<?xml version="1.0" encoding="UTF-8"?>
<gpx version="1.1" creator="https://www.youtrack.es" xsi:schemaLocation="http://www.topografix.com/GPX/1/1 http://www.topografix.com/GPX/1/1/gpx.xsd http://www.garmin.com/xmlschemas/GpxExtensions/v3 http://www.garmin.com/xmlschemas/GpxExtensionsv3.xsd http://www.garmin.com/xmlschemas/TrackPointExtension/v1 http://www.garmin.com/xmlschemas/TrackPointExtensionv1.xsd" xmlns:gpxtpx="http://www.garmin.com/xmlschemas/TrackPointExtension/v1" xmlns:gpxx="http://www.garmin.com/xmlschemas/GpxExtensions/v3" xmlns:xsi="http://www.w3.org/2001/XMLSchema-instance">
  <metadata>
    <link href="https://www.youtrack.es">
      <text>YouTrack.es</text>
    </link>
    <time>2026-05-08T07:01:58Z</time>
  </metadata>
  <trk>
    <src>https://www.youtrack.es</src>
    <link href="https://www.youtrack.es/ruta/9342-circular-por-las-sierras-de-albacete--1-2-3-de-noviembre-de-2019-">
      <text>YouTrack.es</text>
    </link>
    <trkseg>
      <trkpt lat="38.3894040" lon="-2.5784680">
        <ele>915.3</ele>
        <time>2019-11-01T07:21:08Z</time>
      </trkpt>
      <trkpt lat="38.3893940" lon="-2.5784870">
        <ele>915.3</ele>
        <time>2019-11-01T07:21:09Z</time>
      </trkpt>
      <trkpt lat="38.3893890" lon="-2.5784890">
        <ele>915.3</ele>
        <time>2019-11-01T07:21:10Z</time>
      </trkpt>
      <trkpt lat="38.3893860" lon="-2.5784940">
        <ele>915.3</ele>
        <time>2019-11-01T07:21:11Z</time>
      </trkpt>
      <trkpt lat="38.3893860" lon="-2.5784970">
        <ele>915.3</ele>
        <time>2019-11-01T07:21:12Z</time>
      </trkpt>
      <trkpt lat="38.3893860" lon="-2.5784990">
        <ele>915.3</ele>
        <time>2019-11-01T07:21:13Z</time>
      </trkpt>
      <trkpt lat="38.3893890" lon="-2.5784990">
        <ele>915.3</ele>
        <time>2019-11-01T07:21:14Z</time>
      </trkpt>
      <trkpt lat="38.3893940" lon="-2.5785000">
        <ele>915.3</ele>
        <time>2019-11-01T07:21:15Z</time>
      </trkpt>
      <trkpt lat="38.3893940" lon="-2.5785020">
        <ele>915.3</ele>
        <time>2019-11-01T07:21:16Z</time>
      </trkpt>
      <trkpt lat="38.3893940" lon="-2.5785030">
        <ele>915.3</ele>
        <time>2019-11-01T07:21:17Z</time>
      </trkpt>
      <trkpt lat="38.3893960" lon="-2.5785050">
        <ele>915.3</ele>
        <time>2019-11-01T07:21:18Z</time>
      </trkpt>
      <trkpt lat="38.3893960" lon="-2.5785060">
        <ele>915.3</ele>
        <time>2019-11-01T07:21:19Z</time>
      </trkpt>
      <trkpt lat="38.3893940" lon="-2.5785070">
        <ele>915.3</ele>
        <time>2019-11-01T07:21:20Z</time>
      </trkpt>
      <trkpt lat="38.3893860" lon="-2.5785070">
        <ele>915.3</ele>
        <time>2019-11-01T07:21:23Z</time>
      </trkpt>
      <trkpt lat="38.3893960" lon="-2.5785000">
        <ele>915.3</ele>
        <time>2019-11-01T07:21:26Z</time>
      </trkpt>
      <trkpt lat="38.3894350" lon="-2.5785000">
        <ele>915.3</ele>
        <time>2019-11-01T07:21:35Z</time>
      </trkpt>
      <trkpt lat="38.3894370" lon="-2.5785010">
        <ele>915.3</ele>
        <time>2019-11-01T07:21:36Z</time>
      </trkpt>
      <trkpt lat="38.3894450" lon="-2.5785050">
        <ele>915.3</ele>
        <time>2019-11-01T07:21:37Z</time>
      </trkpt>
      <trkpt lat="38.3894960" lon="-2.5785420">
        <ele>915.3</ele>
        <time>2019-11-01T07:21:41Z</time>
      </trkpt>
      <trkpt lat="38.3895420" lon="-2.5785880">
        <ele>915.3</ele>
        <time>2019-11-01T07:21:44Z</time>
      </trkpt>
      <trkpt lat="38.3895990" lon="-2.5786400">
        <ele>915.3</ele>
        <time>2019-11-01T07:21:47Z</time>
      </trkpt>
      <trkpt lat="38.3896320" lon="-2.5786810">
        <ele>915.3</ele>
        <time>2019-11-01T07:21:49Z</time>
      </trkpt>
      <trkpt lat="38.3896320" lon="-2.5787690">
        <ele>914.2</ele>
        <time>2019-11-01T07:21:52Z</time>
      </trkpt>
      <trkpt lat="38.3896060" lon="-2.5788440">
        <ele>912.3</ele>
        <time>2019-11-01T07:21:54Z</time>
      </trkpt>
      <trkpt lat="38.3895680" lon="-2.5789280">
        <ele>911.0</ele>
        <time>2019-11-01T07:21:56Z</time>
      </trkpt>
      <trkpt lat="38.3895500" lon="-2.5790120">
        <ele>909.6</ele>
        <time>2019-11-01T07:21:58Z</time>
      </trkpt>
      <trkpt lat="38.3895650" lon="-2.5790900">
        <ele>909.6</ele>
        <time>2019-11-01T07:22:00Z</time>
      </trkpt>
      <trkpt lat="38.3896140" lon="-2.5791500">
        <ele>908.1</ele>
        <time>2019-11-01T07:22:02Z</time>
      </trkpt>
      <trkpt lat="38.3896860" lon="-2.5792060">
        <ele>906.6</ele>
        <time>2019-11-01T07:22:04Z</time>
      </trkpt>
      <trkpt lat="38.3897680" lon="-2.5792710">
        <ele>906.6</ele>
        <time>2019-11-01T07:22:06Z</time>
      </trkpt>
      <trkpt lat="38.3898470" lon="-2.5793540">
        <ele>905.2</ele>
        <time>2019-11-01T07:22:08Z</time>
      </trkpt>
      <trkpt lat="38.3898880" lon="-2.5793990">
        <ele>905.2</ele>
        <time>2019-11-01T07:22:09Z</time>
      </trkpt>
      <trkpt lat="38.3899320" lon="-2.5794460">
        <ele>905.2</ele>
        <time>2019-11-01T07:22:10Z</time>
      </trkpt>
      <trkpt lat="38.3899720" lon="-2.5794920">
        <ele>905.2</ele>
        <time>2019-11-01T07:22:11Z</time>
      </trkpt>
      <trkpt lat="38.3900190" lon="-2.5795450">
        <ele>903.6</ele>
        <time>2019-11-01T07:22:12Z</time>
      </trkpt>
      <trkpt lat="38.3900650" lon="-2.5795970">
        <ele>903.6</ele>
        <time>2019-11-01T07:22:13Z</time>
      </trkpt>
      <trkpt lat="38.3901130" lon="-2.5796570">
        <ele>902.2</ele>
        <time>2019-11-01T07:22:14Z</time>
      </trkpt>
      <trkpt lat="38.3901670" lon="-2.5797180">
        <ele>902.2</ele>
        <time>2019-11-01T07:22:15Z</time>
      </trkpt>
      <trkpt lat="38.3902160" lon="-2.5797810">
        <ele>900.9</ele>
        <time>2019-11-01T07:22:16Z</time>
      </trkpt>
      <trkpt lat="38.3902670" lon="-2.5798410">
        <ele>900.9</ele>
        <time>2019-11-01T07:22:17Z</time>
      </trkpt>
      <trkpt lat="38.3903130" lon="-2.5798990">
        <ele>899.7</ele>
        <time>2019-11-01T07:22:18Z</time>
      </trkpt>
      <trkpt lat="38.3903540" lon="-2.5799500">
        <ele>899.7</ele>
        <time>2019-11-01T07:22:19Z</time>
      </trkpt>
      <trkpt lat="38.3903920" lon="-2.5799970">
        <ele>899.7</ele>
        <time>2019-11-01T07:22:20Z</time>
      </trkpt>
      <trkpt lat="38.3904310" lon="-2.5800420">
        <ele>898.1</ele>
        <time>2019-11-01T07:22:21Z</time>
      </trkpt>
      <trkpt lat="38.3904640" lon="-2.5800820">
        <ele>898.1</ele>
        <time>2019-11-01T07:22:22Z</time>
      </trkpt>
      <trkpt lat="38.3905150" lon="-2.5801580">
        <ele>896.7</ele>
        <time>2019-11-01T07:22:24Z</time>
      </trkpt>
      <trkpt lat="38.3905330" lon="-2.5802450">
        <ele>896.7</ele>
        <time>2019-11-01T07:22:26Z</time>
      </trkpt>
      <trkpt lat="38.3905310" lon="-2.5803430">
        <ele>895.2</ele>
        <time>2019-11-01T07:22:28Z</time>
      </trkpt>
      <trkpt lat="38.3905020" lon="-2.5804420">
        <ele>893.9</ele>
        <time>2019-11-01T07:22:30Z</time>
      </trkpt>
      <trkpt lat="38.3904720" lon="-2.5805430">
        <ele>892.6</ele>
        <time>2019-11-01T07:22:32Z</time>
      </trkpt>
      <trkpt lat="38.3904410" lon="-2.5806570">
        <ele>891.2</ele>
        <time>2019-11-01T07:22:34Z</time>
      </trkpt>
      <trkpt lat="38.3904260" lon="-2.5807210">
        <ele>889.8</ele>
        <time>2019-11-01T07:22:35Z</time>
      </trkpt>
      <trkpt lat="38.3904150" lon="-2.5807900">
        <ele>889.8</ele>
        <time>2019-11-01T07:22:36Z</time>
      </trkpt>
      <trkpt lat="38.3904000" lon="-2.5808600">
        <ele>888.3</ele>
        <time>2019-11-01T07:22:37Z</time>
      </trkpt>
      <trkpt lat="38.3903900" lon="-2.5809330">
        <ele>888.3</ele>
        <time>2019-11-01T07:22:38Z</time>
      </trkpt>
      <trkpt lat="38.3903740" lon="-2.5810070">
        <ele>887.0</ele>
        <time>2019-11-01T07:22:39Z</time>
      </trkpt>
      <trkpt lat="38.3903620" lon="-2.5810810">
        <ele>887.0</ele>
        <time>2019-11-01T07:22:40Z</time>
      </trkpt>
      <trkpt lat="38.3903460" lon="-2.5811550">
        <ele>885.6</ele>
        <time>2019-11-01T07:22:41Z</time>
      </trkpt>
      <trkpt lat="38.3903280" lon="-2.5812250">
        <ele>885.6</ele>
        <time>2019-11-01T07:22:42Z</time>
      </trkpt>
      <trkpt lat="38.3903130" lon="-2.5812930">
        <ele>884.4</ele>
        <time>2019-11-01T07:22:43Z</time>
      </trkpt>
      <trkpt lat="38.3902900" lon="-2.5813570">
        <ele>884.4</ele>
        <time>2019-11-01T07:22:44Z</time>
      </trkpt>
      <trkpt lat="38.3902690" lon="-2.5814190">
        <ele>884.4</ele>
        <time>2019-11-01T07:22:45Z</time>
      </trkpt>
      <trkpt lat="38.3902520" lon="-2.5814790">
        <ele>883.1</ele>
        <time>2019-11-01T07:22:46Z</time>
      </trkpt>
      <trkpt lat="38.3902280" lon="-2.5815330">
        <ele>883.1</ele>
        <time>2019-11-01T07:22:47Z</time>
      </trkpt>
      <trkpt lat="38.3901900" lon="-2.5816190">
        <ele>883.1</ele>
        <time>2019-11-01T07:22:49Z</time>
      </trkpt>
      <trkpt lat="38.3901670" lon="-2.5816800">
        <ele>881.8</ele>
        <time>2019-11-01T07:22:51Z</time>
      </trkpt>
      <trkpt lat="38.3901490" lon="-2.5817500">
        <ele>881.8</ele>
        <time>2019-11-01T07:22:54Z</time>
      </trkpt>
      <trkpt lat="38.3901720" lon="-2.5818140">
        <ele>881.8</ele>
        <time>2019-11-01T07:22:57Z</time>
      </trkpt>
      <trkpt lat="38.3902210" lon="-2.5818820">
        <ele>881.8</ele>
        <time>2019-11-01T07:23:00Z</time>
      </trkpt>
      <trkpt lat="38.3902590" lon="-2.5819280">
        <ele>880.6</ele>
        <time>2019-11-01T07:23:02Z</time>
      </trkpt>
      <trkpt lat="38.3903130" lon="-2.5819760">
        <ele>880.6</ele>
        <time>2019-11-01T07:23:04Z</time>
      </trkpt>
      <trkpt lat="38.3903670" lon="-2.5820300">
        <ele>880.6</ele>
        <time>2019-11-01T07:23:06Z</time>
      </trkpt>
      <trkpt lat="38.3904310" lon="-2.5820890">
        <ele>880.6</ele>
        <time>2019-11-01T07:23:08Z</time>
      </trkpt>
      <trkpt lat="38.3904950" lon="-2.5821520">
        <ele>880.6</ele>
        <time>2019-11-01T07:23:10Z</time>
      </trkpt>
      <trkpt lat="38.3905560" lon="-2.5822210">
        <ele>880.6</ele>
        <time>2019-11-01T07:23:12Z</time>
      </trkpt>
      <trkpt lat="38.3906020" lon="-2.5822930">
        <ele>880.6</ele>
        <time>2019-11-01T07:23:14Z</time>
      </trkpt>
      <trkpt lat="38.3906120" lon="-2.5823650">
        <ele>880.6</ele>
        <time>2019-11-01T07:23:16Z</time>
      </trkpt>
      <trkpt lat="38.3905870" lon="-2.5824240">
        <ele>879.4</ele>
        <time>2019-11-01T07:23:18Z</time>
      </trkpt>
      <trkpt lat="38.3905310" lon="-2.5824550">
        <ele>879.4</ele>
        <time>2019-11-01T07:23:20Z</time>
      </trkpt>
      <trkpt lat="38.3904560" lon="-2.5824640">
        <ele>878.2</ele>
        <time>2019-11-01T07:23:22Z</time>
      </trkpt>
      <trkpt lat="38.3903770" lon="-2.5824750">
        <ele>878.2</ele>
        <time>2019-11-01T07:23:24Z</time>
      </trkpt>
      <trkpt lat="38.3902850" lon="-2.5824920">
        <ele>876.7</ele>
        <time>2019-11-01T07:23:26Z</time>
      </trkpt>
      <trkpt lat="38.3901900" lon="-2.5825140">
        <ele>875.2</ele>
        <time>2019-11-01T07:23:28Z</time>
      </trkpt>
      <trkpt lat="38.3901360" lon="-2.5825280">
        <ele>875.2</ele>
        <time>2019-11-01T07:23:29Z</time>
      </trkpt>
      <trkpt lat="38.3900880" lon="-2.5825440">
        <ele>875.2</ele>
        <time>2019-11-01T07:23:30Z</time>
      </trkpt>
      <trkpt lat="38.3900420" lon="-2.5825600">
        <ele>873.8</ele>
        <time>2019-11-01T07:23:31Z</time>
      </trkpt>
      <trkpt lat="38.3899570" lon="-2.5825890">
        <ele>873.8</ele>
        <time>2019-11-01T07:23:33Z</time>
      </trkpt>
      <trkpt lat="38.3898850" lon="-2.5826220">
        <ele>872.6</ele>
        <time>2019-11-01T07:23:35Z</time>
      </trkpt>
      <trkpt lat="38.3898190" lon="-2.5826730">
        <ele>871.3</ele>
        <time>2019-11-01T07:23:37Z</time>
      </trkpt>
      <trkpt lat="38.3897700" lon="-2.5827580">
        <ele>871.3</ele>
        <time>2019-11-01T07:23:39Z</time>
      </trkpt>
      <trkpt lat="38.3897220" lon="-2.5828730">
        <ele>869.7</ele>
        <time>2019-11-01T07:23:41Z</time>
      </trkpt>
      <trkpt lat="38.3896990" lon="-2.5829300">
        <ele>868.5</ele>
        <time>2019-11-01T07:23:42Z</time>
      </trkpt>
      <trkpt lat="38.3896780" lon="-2.5829910">
        <ele>868.5</ele>
        <time>2019-11-01T07:23:43Z</time>
      </trkpt>
      <trkpt lat="38.3896550" lon="-2.5830530">
        <ele>868.5</ele>
        <time>2019-11-01T07:23:44Z</time>
      </trkpt>
      <trkpt lat="38.3896370" lon="-2.5831120">
        <ele>867.1</ele>
        <time>2019-11-01T07:23:45Z</time>
      </trkpt>
      <trkpt lat="38.3896140" lon="-2.5831680">
        <ele>867.1</ele>
        <time>2019-11-01T07:23:46Z</time>
      </trkpt>
      <trkpt lat="38.3895730" lon="-2.5832700">
        <ele>865.7</ele>
        <time>2019-11-01T07:23:48Z</time>
      </trkpt>
      <trkpt lat="38.3895370" lon="-2.5833540">
        <ele>865.7</ele>
        <time>2019-11-01T07:23:50Z</time>
      </trkpt>
      <trkpt lat="38.3895140" lon="-2.5834170">
        <ele>864.3</ele>
        <time>2019-11-01T07:23:52Z</time>
      </trkpt>
      <trkpt lat="38.3894910" lon="-2.5834820">
        <ele>864.3</ele>
        <time>2019-11-01T07:23:55Z</time>
      </trkpt>
      <trkpt lat="38.3894580" lon="-2.5835440">
        <ele>864.3</ele>
        <time>2019-11-01T07:23:59Z</time>
      </trkpt>
      <trkpt lat="38.3894200" lon="-2.5835690">
        <ele>863.2</ele>
        <time>2019-11-01T07:24:02Z</time>
      </trkpt>
      <trkpt lat="38.3893430" lon="-2.5835410">
        <ele>863.2</ele>
        <time>2019-11-01T07:24:06Z</time>
      </trkpt>
      <trkpt lat="38.3892860" lon="-2.5835070">
        <ele>863.2</ele>
        <time>2019-11-01T07:24:08Z</time>
      </trkpt>
      <trkpt lat="38.3892250" lon="-2.5834640">
        <ele>863.2</ele>
        <time>2019-11-01T07:24:10Z</time>
      </trkpt>
      <trkpt lat="38.3891610" lon="-2.5834160">
        <ele>862.0</ele>
        <time>2019-11-01T07:24:12Z</time>
      </trkpt>
      <trkpt lat="38.3890870" lon="-2.5833670">
        <ele>862.0</ele>
        <time>2019-11-01T07:24:14Z</time>
      </trkpt>
      <trkpt lat="38.3890280" lon="-2.5833270">
        <ele>862.0</ele>
        <time>2019-11-01T07:24:16Z</time>
      </trkpt>
      <trkpt lat="38.3889770" lon="-2.5832970">
        <ele>862.0</ele>
        <time>2019-11-01T07:24:18Z</time>
      </trkpt>
      <trkpt lat="38.3889080" lon="-2.5832580">
        <ele>862.0</ele>
        <time>2019-11-01T07:24:21Z</time>
      </trkpt>
      <trkpt lat="38.3888440" lon="-2.5832320">
        <ele>862.0</ele>
        <time>2019-11-01T07:24:23Z</time>
      </trkpt>
      <trkpt lat="38.3887720" lon="-2.5832050">
        <ele>862.0</ele>
        <time>2019-11-01T07:24:25Z</time>
      </trkpt>
      <trkpt lat="38.3886870" lon="-2.5831770">
        <ele>860.6</ele>
        <time>2019-11-01T07:24:27Z</time>
      </trkpt>
      <trkpt lat="38.3886000" lon="-2.5831460">
        <ele>860.6</ele>
        <time>2019-11-01T07:24:29Z</time>
      </trkpt>
      <trkpt lat="38.3884930" lon="-2.5831130">
        <ele>860.6</ele>
        <time>2019-11-01T07:24:31Z</time>
      </trkpt>
      <trkpt lat="38.3884360" lon="-2.5831010">
        <ele>859.2</ele>
        <time>2019-11-01T07:24:32Z</time>
      </trkpt>
      <trkpt lat="38.3883830" lon="-2.5830950">
        <ele>859.2</ele>
        <time>2019-11-01T07:24:33Z</time>
      </trkpt>
      <trkpt lat="38.3883290" lon="-2.5830960">
        <ele>859.2</ele>
        <time>2019-11-01T07:24:34Z</time>
      </trkpt>
      <trkpt lat="38.3882750" lon="-2.5831020">
        <ele>859.2</ele>
        <time>2019-11-01T07:24:35Z</time>
      </trkpt>
      <trkpt lat="38.3881910" lon="-2.5831200">
        <ele>857.9</ele>
        <time>2019-11-01T07:24:37Z</time>
      </trkpt>
      <trkpt lat="38.3881220" lon="-2.5831250">
        <ele>857.9</ele>
        <time>2019-11-01T07:24:39Z</time>
      </trkpt>
      <trkpt lat="38.3880730" lon="-2.5831100">
        <ele>857.9</ele>
        <time>2019-11-01T07:24:41Z</time>
      </trkpt>
      <trkpt lat="38.3880270" lon="-2.5831040">
        <ele>857.9</ele>
        <time>2019-11-01T07:24:44Z</time>
      </trkpt>
      <trkpt lat="38.3880580" lon="-2.5831910">
        <ele>856.7</ele>
        <time>2019-11-01T07:24:49Z</time>
      </trkpt>
      <trkpt lat="38.3880880" lon="-2.5832720">
        <ele>856.7</ele>
        <time>2019-11-01T07:24:51Z</time>
      </trkpt>
      <trkpt lat="38.3881220" lon="-2.5833690">
        <ele>856.7</ele>
        <time>2019-11-01T07:24:53Z</time>
      </trkpt>
      <trkpt lat="38.3881570" lon="-2.5834800">
        <ele>856.7</ele>
        <time>2019-11-01T07:24:55Z</time>
      </trkpt>
      <trkpt lat="38.3881730" lon="-2.5835400">
        <ele>855.3</ele>
        <time>2019-11-01T07:24:56Z</time>
      </trkpt>
      <trkpt lat="38.3881830" lon="-2.5836050">
        <ele>855.3</ele>
        <time>2019-11-01T07:24:57Z</time>
      </trkpt>
      <trkpt lat="38.3882140" lon="-2.5837370">
        <ele>855.3</ele>
        <time>2019-11-01T07:24:59Z</time>
      </trkpt>
      <trkpt lat="38.3882340" lon="-2.5838120">
        <ele>854.0</ele>
        <time>2019-11-01T07:25:00Z</time>
      </trkpt>
      <trkpt lat="38.3882500" lon="-2.5838850">
        <ele>854.0</ele>
        <time>2019-11-01T07:25:01Z</time>
      </trkpt>
      <trkpt lat="38.3882650" lon="-2.5839680">
        <ele>854.0</ele>
        <time>2019-11-01T07:25:02Z</time>
      </trkpt>
      <trkpt lat="38.3882780" lon="-2.5840490">
        <ele>854.0</ele>
        <time>2019-11-01T07:25:03Z</time>
      </trkpt>
      <trkpt lat="38.3882980" lon="-2.5841280">
        <ele>852.8</ele>
        <time>2019-11-01T07:25:04Z</time>
      </trkpt>
      <trkpt lat="38.3883140" lon="-2.5842040">
        <ele>852.8</ele>
        <time>2019-11-01T07:25:05Z</time>
      </trkpt>
      <trkpt lat="38.3883320" lon="-2.5842760">
        <ele>852.8</ele>
        <time>2019-11-01T07:25:06Z</time>
      </trkpt>
      <trkpt lat="38.3883470" lon="-2.5843430">
        <ele>852.8</ele>
        <time>2019-11-01T07:25:07Z</time>
      </trkpt>
      <trkpt lat="38.3883670" lon="-2.5844030">
        <ele>852.8</ele>
        <time>2019-11-01T07:25:08Z</time>
      </trkpt>
      <trkpt lat="38.3883930" lon="-2.5845040">
        <ele>851.6</ele>
        <time>2019-11-01T07:25:10Z</time>
      </trkpt>
      <trkpt lat="38.3884130" lon="-2.5845830">
        <ele>851.6</ele>
        <time>2019-11-01T07:25:12Z</time>
      </trkpt>
      <trkpt lat="38.3884130" lon="-2.5846500">
        <ele>851.6</ele>
        <time>2019-11-01T07:25:14Z</time>
      </trkpt>
      <trkpt lat="38.3883620" lon="-2.5847090">
        <ele>851.6</ele>
        <time>2019-11-01T07:25:17Z</time>
      </trkpt>
      <trkpt lat="38.3883010" lon="-2.5847230">
        <ele>850.4</ele>
        <time>2019-11-01T07:25:19Z</time>
      </trkpt>
      <trkpt lat="38.3882290" lon="-2.5847220">
        <ele>850.4</ele>
        <time>2019-11-01T07:25:21Z</time>
      </trkpt>
      <trkpt lat="38.3881420" lon="-2.5847070">
        <ele>850.4</ele>
        <time>2019-11-01T07:25:23Z</time>
      </trkpt>
      <trkpt lat="38.3880420" lon="-2.5846910">
        <ele>849.2</ele>
        <time>2019-11-01T07:25:25Z</time>
      </trkpt>
      <trkpt lat="38.3879880" lon="-2.5846850">
        <ele>849.2</ele>
        <time>2019-11-01T07:25:26Z</time>
      </trkpt>
      <trkpt lat="38.3879270" lon="-2.5846820">
        <ele>849.2</ele>
        <time>2019-11-01T07:25:27Z</time>
      </trkpt>
      <trkpt lat="38.3878680" lon="-2.5846830">
        <ele>848.0</ele>
        <time>2019-11-01T07:25:28Z</time>
      </trkpt>
      <trkpt lat="38.3878070" lon="-2.5846890">
        <ele>848.0</ele>
        <time>2019-11-01T07:25:29Z</time>
      </trkpt>
      <trkpt lat="38.3877400" lon="-2.5846990">
        <ele>848.0</ele>
        <time>2019-11-01T07:25:30Z</time>
      </trkpt>
      <trkpt lat="38.3876760" lon="-2.5847120">
        <ele>848.0</ele>
        <time>2019-11-01T07:25:31Z</time>
      </trkpt>
      <trkpt lat="38.3876070" lon="-2.5847250">
        <ele>846.8</ele>
        <time>2019-11-01T07:25:32Z</time>
      </trkpt>
      <trkpt lat="38.3875430" lon="-2.5847370">
        <ele>846.8</ele>
        <time>2019-11-01T07:25:33Z</time>
      </trkpt>
      <trkpt lat="38.3874740" lon="-2.5847470">
        <ele>846.8</ele>
        <time>2019-11-01T07:25:34Z</time>
      </trkpt>
      <trkpt lat="38.3874100" lon="-2.5847520">
        <ele>846.8</ele>
        <time>2019-11-01T07:25:35Z</time>
      </trkpt>
      <trkpt lat="38.3873410" lon="-2.5847550">
        <ele>846.8</ele>
        <time>2019-11-01T07:25:36Z</time>
      </trkpt>
      <trkpt lat="38.3872720" lon="-2.5847560">
        <ele>846.8</ele>
        <time>2019-11-01T07:25:37Z</time>
      </trkpt>
      <trkpt lat="38.3872150" lon="-2.5847540">
        <ele>845.5</ele>
        <time>2019-11-01T07:25:38Z</time>
      </trkpt>
      <trkpt lat="38.3871460" lon="-2.5847510">
        <ele>845.5</ele>
        <time>2019-11-01T07:25:39Z</time>
      </trkpt>
      <trkpt lat="38.3870770" lon="-2.5847460">
        <ele>845.5</ele>
        <time>2019-11-01T07:25:40Z</time>
      </trkpt>
      <trkpt lat="38.3870080" lon="-2.5847410">
        <ele>845.5</ele>
        <time>2019-11-01T07:25:41Z</time>
      </trkpt>
      <trkpt lat="38.3869360" lon="-2.5847400">
        <ele>844.1</ele>
        <time>2019-11-01T07:25:42Z</time>
      </trkpt>
      <trkpt lat="38.3868650" lon="-2.5847390">
        <ele>844.1</ele>
        <time>2019-11-01T07:25:43Z</time>
      </trkpt>
      <trkpt lat="38.3867900" lon="-2.5847390">
        <ele>844.1</ele>
        <time>2019-11-01T07:25:44Z</time>
      </trkpt>
      <trkpt lat="38.3867190" lon="-2.5847340">
        <ele>842.9</ele>
        <time>2019-11-01T07:25:45Z</time>
      </trkpt>
      <trkpt lat="38.3866470" lon="-2.5847220">
        <ele>842.9</ele>
        <time>2019-11-01T07:25:46Z</time>
      </trkpt>
      <trkpt lat="38.3865800" lon="-2.5847030">
        <ele>842.9</ele>
        <time>2019-11-01T07:25:47Z</time>
      </trkpt>
      <trkpt lat="38.3865160" lon="-2.5846760">
        <ele>842.9</ele>
        <time>2019-11-01T07:25:48Z</time>
      </trkpt>
      <trkpt lat="38.3864550" lon="-2.5846430">
        <ele>841.3</ele>
        <time>2019-11-01T07:25:49Z</time>
      </trkpt>
      <trkpt lat="38.3863940" lon="-2.5846040">
        <ele>841.3</ele>
        <time>2019-11-01T07:25:50Z</time>
      </trkpt>
      <trkpt lat="38.3863350" lon="-2.5845600">
        <ele>841.3</ele>
        <time>2019-11-01T07:25:51Z</time>
      </trkpt>
      <trkpt lat="38.3862760" lon="-2.5845120">
        <ele>840.0</ele>
        <time>2019-11-01T07:25:52Z</time>
      </trkpt>
      <trkpt lat="38.3862140" lon="-2.5844660">
        <ele>840.0</ele>
        <time>2019-11-01T07:25:53Z</time>
      </trkpt>
      <trkpt lat="38.3861530" lon="-2.5844240">
        <ele>840.0</ele>
        <time>2019-11-01T07:25:54Z</time>
      </trkpt>
      <trkpt lat="38.3860940" lon="-2.5843920">
        <ele>838.5</ele>
        <time>2019-11-01T07:25:55Z</time>
      </trkpt>
      <trkpt lat="38.3860350" lon="-2.5843720">
        <ele>838.5</ele>
        <time>2019-11-01T07:25:56Z</time>
      </trkpt>
      <trkpt lat="38.3859740" lon="-2.5843690">
        <ele>838.5</ele>
        <time>2019-11-01T07:25:57Z</time>
      </trkpt>
      <trkpt lat="38.3859230" lon="-2.5843830">
        <ele>837.2</ele>
        <time>2019-11-01T07:25:58Z</time>
      </trkpt>
      <trkpt lat="38.3858710" lon="-2.5844130">
        <ele>837.2</ele>
        <time>2019-11-01T07:25:59Z</time>
      </trkpt>
      <trkpt lat="38.3858230" lon="-2.5844570">
        <ele>837.2</ele>
        <time>2019-11-01T07:26:00Z</time>
      </trkpt>
      <trkpt lat="38.3857770" lon="-2.5845100">
        <ele>835.6</ele>
        <time>2019-11-01T07:26:01Z</time>
      </trkpt>
      <trkpt lat="38.3857360" lon="-2.5845670">
        <ele>835.6</ele>
        <time>2019-11-01T07:26:02Z</time>
      </trkpt>
      <trkpt lat="38.3856920" lon="-2.5846260">
        <ele>835.6</ele>
        <time>2019-11-01T07:26:03Z</time>
      </trkpt>
      <trkpt lat="38.3856460" lon="-2.5846880">
        <ele>834.3</ele>
        <time>2019-11-01T07:26:04Z</time>
      </trkpt>
      <trkpt lat="38.3856050" lon="-2.5847510">
        <ele>834.3</ele>
        <time>2019-11-01T07:26:05Z</time>
      </trkpt>
      <trkpt lat="38.3855640" lon="-2.5848150">
        <ele>834.3</ele>
        <time>2019-11-01T07:26:06Z</time>
      </trkpt>
      <trkpt lat="38.3855260" lon="-2.5848800">
        <ele>833.0</ele>
        <time>2019-11-01T07:26:07Z</time>
      </trkpt>
      <trkpt lat="38.3854820" lon="-2.5849420">
        <ele>833.0</ele>
        <time>2019-11-01T07:26:08Z</time>
      </trkpt>
      <trkpt lat="38.3854440" lon="-2.5850090">
        <ele>833.0</ele>
        <time>2019-11-01T07:26:09Z</time>
      </trkpt>
      <trkpt lat="38.3854050" lon="-2.5850730">
        <ele>831.7</ele>
        <time>2019-11-01T07:26:10Z</time>
      </trkpt>
      <trkpt lat="38.3853700" lon="-2.5851360">
        <ele>831.7</ele>
        <time>2019-11-01T07:26:11Z</time>
      </trkpt>
      <trkpt lat="38.3853310" lon="-2.5852020">
        <ele>831.7</ele>
        <time>2019-11-01T07:26:12Z</time>
      </trkpt>
      <trkpt lat="38.3853000" lon="-2.5852600">
        <ele>830.5</ele>
        <time>2019-11-01T07:26:13Z</time>
      </trkpt>
      <trkpt lat="38.3852650" lon="-2.5853200">
        <ele>830.5</ele>
        <time>2019-11-01T07:26:14Z</time>
      </trkpt>
      <trkpt lat="38.3852340" lon="-2.5853790">
        <ele>830.5</ele>
        <time>2019-11-01T07:26:15Z</time>
      </trkpt>
      <trkpt lat="38.3852030" lon="-2.5854340">
        <ele>830.5</ele>
        <time>2019-11-01T07:26:16Z</time>
      </trkpt>
      <trkpt lat="38.3851800" lon="-2.5854850">
        <ele>829.3</ele>
        <time>2019-11-01T07:26:17Z</time>
      </trkpt>
      <trkpt lat="38.3851520" lon="-2.5855670">
        <ele>829.3</ele>
        <time>2019-11-01T07:26:19Z</time>
      </trkpt>
      <trkpt lat="38.3851160" lon="-2.5856090">
        <ele>829.3</ele>
        <time>2019-11-01T07:26:21Z</time>
      </trkpt>
      <trkpt lat="38.3850750" lon="-2.5855710">
        <ele>829.3</ele>
        <time>2019-11-01T07:26:26Z</time>
      </trkpt>
      <trkpt lat="38.3850390" lon="-2.5856050">
        <ele>829.3</ele>
        <time>2019-11-01T07:27:01Z</time>
      </trkpt>
      <trkpt lat="38.3850090" lon="-2.5856170">
        <ele>829.3</ele>
        <time>2019-11-01T07:27:15Z</time>
      </trkpt>
      <trkpt lat="38.3850010" lon="-2.5855910">
        <ele>829.3</ele>
        <time>2019-11-01T07:27:29Z</time>
      </trkpt>
      <trkpt lat="38.3850700" lon="-2.5855120">
        <ele>829.3</ele>
        <time>2019-11-01T07:27:47Z</time>
      </trkpt>
      <trkpt lat="38.3850440" lon="-2.5855730">
        <ele>829.3</ele>
        <time>2019-11-01T07:28:12Z</time>
      </trkpt>
      <trkpt lat="38.3850520" lon="-2.5855670">
        <ele>829.3</ele>
        <time>2019-11-01T07:28:31Z</time>
      </trkpt>
      <trkpt lat="38.3850290" lon="-2.5855900">
        <ele>829.3</ele>
        <time>2019-11-01T07:29:32Z</time>
      </trkpt>
      <trkpt lat="38.3850290" lon="-2.5856410">
        <ele>796.7</ele>
        <time>2019-11-01T07:29:45Z</time>
      </trkpt>
      <trkpt lat="38.3850240" lon="-2.5857020">
        <ele>796.7</ele>
        <time>2019-11-01T07:30:14Z</time>
      </trkpt>
      <trkpt lat="38.3850470" lon="-2.5855200">
        <ele>796.7</ele>
        <time>2019-11-01T07:30:19Z</time>
      </trkpt>
      <trkpt lat="38.3850520" lon="-2.5854380">
        <ele>796.7</ele>
        <time>2019-11-01T07:30:20Z</time>
      </trkpt>
      <trkpt lat="38.3850550" lon="-2.5853600">
        <ele>796.7</ele>
        <time>2019-11-01T07:30:21Z</time>
      </trkpt>
      <trkpt lat="38.3850550" lon="-2.5853140">
        <ele>796.7</ele>
        <time>2019-11-01T07:30:22Z</time>
      </trkpt>
      <trkpt lat="38.3850520" lon="-2.5852540">
        <ele>796.7</ele>
        <time>2019-11-01T07:30:24Z</time>
      </trkpt>
      <trkpt lat="38.3850370" lon="-2.5853390">
        <ele>796.7</ele>
        <time>2019-11-01T07:30:28Z</time>
      </trkpt>
      <trkpt lat="38.3850290" lon="-2.5853900">
        <ele>796.7</ele>
        <time>2019-11-01T07:30:30Z</time>
      </trkpt>
      <trkpt lat="38.3849860" lon="-2.5854800">
        <ele>796.7</ele>
        <time>2019-11-01T07:30:41Z</time>
      </trkpt>
      <trkpt lat="38.3850010" lon="-2.5855510">
        <ele>796.7</ele>
        <time>2019-11-01T07:30:49Z</time>
      </trkpt>
      <trkpt lat="38.3850620" lon="-2.5855620">
        <ele>796.7</ele>
        <time>2019-11-01T07:30:54Z</time>
      </trkpt>
      <trkpt lat="38.3850980" lon="-2.5855240">
        <ele>796.7</ele>
        <time>2019-11-01T07:30:58Z</time>
      </trkpt>
      <trkpt lat="38.3850830" lon="-2.5855390">
        <ele>796.7</ele>
        <time>2019-11-01T07:31:06Z</time>
      </trkpt>
      <trkpt lat="38.3851060" lon="-2.5855930">
        <ele>796.7</ele>
        <time>2019-11-01T07:31:23Z</time>
      </trkpt>
      <trkpt lat="38.3850060" lon="-2.5855660">
        <ele>796.7</ele>
        <time>2019-11-01T07:31:41Z</time>
      </trkpt>
      <trkpt lat="38.3850240" lon="-2.5855580">
        <ele>796.7</ele>
        <time>2019-11-01T07:31:43Z</time>
      </trkpt>
      <trkpt lat="38.3849980" lon="-2.5855250">
        <ele>796.7</ele>
        <time>2019-11-01T07:31:50Z</time>
      </trkpt>
      <trkpt lat="38.3850140" lon="-2.5854840">
        <ele>796.7</ele>
        <time>2019-11-01T07:32:00Z</time>
      </trkpt>
      <trkpt lat="38.3850600" lon="-2.5855120">
        <ele>796.7</ele>
        <time>2019-11-01T07:32:04Z</time>
      </trkpt>
      <trkpt lat="38.3851010" lon="-2.5855120">
        <ele>796.7</ele>
        <time>2019-11-01T07:32:12Z</time>
      </trkpt>
      <trkpt lat="38.3851160" lon="-2.5854530">
        <ele>796.7</ele>
        <time>2019-11-01T07:32:19Z</time>
      </trkpt>
      <trkpt lat="38.3851290" lon="-2.5853830">
        <ele>796.7</ele>
        <time>2019-11-01T07:32:24Z</time>
      </trkpt>
      <trkpt lat="38.3851390" lon="-2.5854430">
        <ele>796.7</ele>
        <time>2019-11-01T07:32:30Z</time>
      </trkpt>
      <trkpt lat="38.3851520" lon="-2.5854820">
        <ele>796.7</ele>
        <time>2019-11-01T07:32:32Z</time>
      </trkpt>
      <trkpt lat="38.3851370" lon="-2.5855760">
        <ele>796.7</ele>
        <time>2019-11-01T07:32:39Z</time>
      </trkpt>
      <trkpt lat="38.3851320" lon="-2.5856300">
        <ele>796.7</ele>
        <time>2019-11-01T07:32:41Z</time>
      </trkpt>
      <trkpt lat="38.3851240" lon="-2.5856570">
        <ele>783.8</ele>
        <time>2019-11-01T07:32:43Z</time>
      </trkpt>
      <trkpt lat="38.3850830" lon="-2.5856680">
        <ele>783.8</ele>
        <time>2019-11-01T07:32:51Z</time>
      </trkpt>
      <trkpt lat="38.3850620" lon="-2.5856010">
        <ele>783.8</ele>
        <time>2019-11-01T07:32:56Z</time>
      </trkpt>
      <trkpt lat="38.3850010" lon="-2.5859000">
        <ele>783.8</ele>
        <time>2019-11-01T07:33:04Z</time>
      </trkpt>
      <trkpt lat="38.3850240" lon="-2.5859170">
        <ele>783.8</ele>
        <time>2019-11-01T07:33:06Z</time>
      </trkpt>
      <trkpt lat="38.3850550" lon="-2.5859810">
        <ele>783.8</ele>
        <time>2019-11-01T07:33:08Z</time>
      </trkpt>
      <trkpt lat="38.3850750" lon="-2.5860460">
        <ele>783.8</ele>
        <time>2019-11-01T07:33:10Z</time>
      </trkpt>
      <trkpt lat="38.3850910" lon="-2.5861110">
        <ele>783.8</ele>
        <time>2019-11-01T07:33:12Z</time>
      </trkpt>
      <trkpt lat="38.3851060" lon="-2.5861560">
        <ele>783.8</ele>
        <time>2019-11-01T07:33:14Z</time>
      </trkpt>
      <trkpt lat="38.3851370" lon="-2.5862260">
        <ele>783.8</ele>
        <time>2019-11-01T07:33:17Z</time>
      </trkpt>
      <trkpt lat="38.3851390" lon="-2.5862610">
        <ele>783.8</ele>
        <time>2019-11-01T07:33:21Z</time>
      </trkpt>
      <trkpt lat="38.3851320" lon="-2.5864590">
        <ele>783.8</ele>
        <time>2019-11-01T07:33:23Z</time>
      </trkpt>
      <trkpt lat="38.3851240" lon="-2.5865720">
        <ele>783.8</ele>
        <time>2019-11-01T07:33:24Z</time>
      </trkpt>
      <trkpt lat="38.3851140" lon="-2.5866690">
        <ele>783.8</ele>
        <time>2019-11-01T07:33:25Z</time>
      </trkpt>
      <trkpt lat="38.3851060" lon="-2.5867520">
        <ele>783.8</ele>
        <time>2019-11-01T07:33:26Z</time>
      </trkpt>
      <trkpt lat="38.3850980" lon="-2.5868280">
        <ele>783.8</ele>
        <time>2019-11-01T07:33:27Z</time>
      </trkpt>
      <trkpt lat="38.3850910" lon="-2.5868830">
        <ele>783.8</ele>
        <time>2019-11-01T07:33:28Z</time>
      </trkpt>
      <trkpt lat="38.3850830" lon="-2.5868970">
        <ele>783.8</ele>
        <time>2019-11-01T07:33:30Z</time>
      </trkpt>
      <trkpt lat="38.3850780" lon="-2.5866560">
        <ele>783.8</ele>
        <time>2019-11-01T07:33:33Z</time>
      </trkpt>
      <trkpt lat="38.3850780" lon="-2.5864720">
        <ele>783.8</ele>
        <time>2019-11-01T07:33:35Z</time>
      </trkpt>
      <trkpt lat="38.3850830" lon="-2.5863130">
        <ele>783.8</ele>
        <time>2019-11-01T07:33:39Z</time>
      </trkpt>
      <trkpt lat="38.3851190" lon="-2.5855340">
        <ele>783.8</ele>
        <time>2019-11-01T07:33:41Z</time>
      </trkpt>
      <trkpt lat="38.3851370" lon="-2.5851450">
        <ele>783.8</ele>
        <time>2019-11-01T07:33:42Z</time>
      </trkpt>
      <trkpt lat="38.3851550" lon="-2.5849180">
        <ele>783.8</ele>
        <time>2019-11-01T07:33:44Z</time>
      </trkpt>
      <trkpt lat="38.3851670" lon="-2.5847780">
        <ele>783.8</ele>
        <time>2019-11-01T07:33:45Z</time>
      </trkpt>
      <trkpt lat="38.3851750" lon="-2.5846530">
        <ele>783.8</ele>
        <time>2019-11-01T07:33:46Z</time>
      </trkpt>
      <trkpt lat="38.3851800" lon="-2.5845290">
        <ele>783.8</ele>
        <time>2019-11-01T07:33:47Z</time>
      </trkpt>
      <trkpt lat="38.3851880" lon="-2.5844160">
        <ele>783.8</ele>
        <time>2019-11-01T07:33:48Z</time>
      </trkpt>
      <trkpt lat="38.3851960" lon="-2.5843020">
        <ele>783.8</ele>
        <time>2019-11-01T07:33:49Z</time>
      </trkpt>
      <trkpt lat="38.3852030" lon="-2.5842260">
        <ele>783.8</ele>
        <time>2019-11-01T07:33:50Z</time>
      </trkpt>
      <trkpt lat="38.3852110" lon="-2.5841620">
        <ele>783.8</ele>
        <time>2019-11-01T07:33:51Z</time>
      </trkpt>
      <trkpt lat="38.3852240" lon="-2.5840970">
        <ele>783.8</ele>
        <time>2019-11-01T07:33:53Z</time>
      </trkpt>
      <trkpt lat="38.3852190" lon="-2.5842010">
        <ele>783.8</ele>
        <time>2019-11-01T07:33:55Z</time>
      </trkpt>
      <trkpt lat="38.3852110" lon="-2.5844470">
        <ele>783.8</ele>
        <time>2019-11-01T07:33:57Z</time>
      </trkpt>
      <trkpt lat="38.3852080" lon="-2.5845690">
        <ele>783.8</ele>
        <time>2019-11-01T07:33:58Z</time>
      </trkpt>
      <trkpt lat="38.3852030" lon="-2.5846640">
        <ele>783.8</ele>
        <time>2019-11-01T07:33:59Z</time>
      </trkpt>
      <trkpt lat="38.3852010" lon="-2.5847310">
        <ele>783.8</ele>
        <time>2019-11-01T07:34:00Z</time>
      </trkpt>
      <trkpt lat="38.3851960" lon="-2.5847870">
        <ele>783.8</ele>
        <time>2019-11-01T07:34:01Z</time>
      </trkpt>
      <trkpt lat="38.3851930" lon="-2.5848880">
        <ele>783.8</ele>
        <time>2019-11-01T07:34:03Z</time>
      </trkpt>
      <trkpt lat="38.3851930" lon="-2.5850650">
        <ele>783.8</ele>
        <time>2019-11-01T07:34:05Z</time>
      </trkpt>
      <trkpt lat="38.3851930" lon="-2.5851740">
        <ele>783.8</ele>
        <time>2019-11-01T07:34:06Z</time>
      </trkpt>
      <trkpt lat="38.3851960" lon="-2.5852550">
        <ele>783.8</ele>
        <time>2019-11-01T07:34:08Z</time>
      </trkpt>
      <trkpt lat="38.3851960" lon="-2.5853170">
        <ele>783.8</ele>
        <time>2019-11-01T07:34:09Z</time>
      </trkpt>
      <trkpt lat="38.3851700" lon="-2.5858390">
        <ele>783.8</ele>
        <time>2019-11-01T07:34:24Z</time>
      </trkpt>
      <trkpt lat="38.3852160" lon="-2.5859220">
        <ele>783.8</ele>
        <time>2019-11-01T07:34:30Z</time>
      </trkpt>
      <trkpt lat="38.3850930" lon="-2.5859200">
        <ele>783.8</ele>
        <time>2019-11-01T07:34:41Z</time>
      </trkpt>
      <trkpt lat="38.3850850" lon="-2.5858400">
        <ele>783.8</ele>
        <time>2019-11-01T07:34:43Z</time>
      </trkpt>
      <trkpt lat="38.3850470" lon="-2.5857820">
        <ele>783.8</ele>
        <time>2019-11-01T07:34:45Z</time>
      </trkpt>
      <trkpt lat="38.3850240" lon="-2.5857520">
        <ele>783.8</ele>
        <time>2019-11-01T07:34:47Z</time>
      </trkpt>
      <trkpt lat="38.3850680" lon="-2.5856070">
        <ele>783.8</ele>
        <time>2019-11-01T07:34:58Z</time>
      </trkpt>
      <trkpt lat="38.3850600" lon="-2.5856010">
        <ele>783.8</ele>
        <time>2019-11-01T07:35:05Z</time>
      </trkpt>
      <trkpt lat="38.3850830" lon="-2.5856510">
        <ele>783.8</ele>
        <time>2019-11-01T07:35:10Z</time>
      </trkpt>
      <trkpt lat="38.3851160" lon="-2.5856970">
        <ele>783.8</ele>
        <time>2019-11-01T07:35:13Z</time>
      </trkpt>
      <trkpt lat="38.3851600" lon="-2.5857210">
        <ele>783.8</ele>
        <time>2019-11-01T07:35:15Z</time>
      </trkpt>
      <trkpt lat="38.3851930" lon="-2.5856610">
        <ele>783.8</ele>
        <time>2019-11-01T07:35:19Z</time>
      </trkpt>
      <trkpt lat="38.3851600" lon="-2.5856730">
        <ele>783.8</ele>
        <time>2019-11-01T07:35:30Z</time>
      </trkpt>
      <trkpt lat="38.3850320" lon="-2.5859950">
        <ele>783.8</ele>
        <time>2019-11-01T07:35:58Z</time>
      </trkpt>
      <trkpt lat="38.3849600" lon="-2.5858870">
        <ele>783.8</ele>
        <time>2019-11-01T07:36:25Z</time>
      </trkpt>
      <trkpt lat="38.3850140" lon="-2.5856790">
        <ele>783.8</ele>
        <time>2019-11-01T07:36:42Z</time>
      </trkpt>
      <trkpt lat="38.3850210" lon="-2.5856030">
        <ele>783.8</ele>
        <time>2019-11-01T07:36:46Z</time>
      </trkpt>
      <trkpt lat="38.3850320" lon="-2.5855340">
        <ele>783.8</ele>
        <time>2019-11-01T07:36:49Z</time>
      </trkpt>
      <trkpt lat="38.3850700" lon="-2.5854910">
        <ele>783.8</ele>
        <time>2019-11-01T07:36:53Z</time>
      </trkpt>
      <trkpt lat="38.3850550" lon="-2.5855740">
        <ele>783.8</ele>
        <time>2019-11-01T07:36:57Z</time>
      </trkpt>
      <trkpt lat="38.3850440" lon="-2.5856300">
        <ele>783.8</ele>
        <time>2019-11-01T07:37:01Z</time>
      </trkpt>
      <trkpt lat="38.3850440" lon="-2.5856630">
        <ele>783.8</ele>
        <time>2019-11-01T07:37:12Z</time>
      </trkpt>
      <trkpt lat="38.3850140" lon="-2.5857310">
        <ele>783.8</ele>
        <time>2019-11-01T07:37:18Z</time>
      </trkpt>
      <trkpt lat="38.3849750" lon="-2.5858900">
        <ele>783.8</ele>
        <time>2019-11-01T07:37:21Z</time>
      </trkpt>
      <trkpt lat="38.3849520" lon="-2.5859660">
        <ele>783.8</ele>
        <time>2019-11-01T07:37:22Z</time>
      </trkpt>
      <trkpt lat="38.3849270" lon="-2.5860280">
        <ele>783.8</ele>
        <time>2019-11-01T07:37:23Z</time>
      </trkpt>
      <trkpt lat="38.3849110" lon="-2.5860820">
        <ele>783.8</ele>
        <time>2019-11-01T07:37:24Z</time>
      </trkpt>
      <trkpt lat="38.3848810" lon="-2.5861180">
        <ele>783.8</ele>
        <time>2019-11-01T07:37:26Z</time>
      </trkpt>
      <trkpt lat="38.3848600" lon="-2.5860790">
        <ele>783.8</ele>
        <time>2019-11-01T07:37:32Z</time>
      </trkpt>
      <trkpt lat="38.3848830" lon="-2.5860090">
        <ele>783.8</ele>
        <time>2019-11-01T07:37:35Z</time>
      </trkpt>
      <trkpt lat="38.3849040" lon="-2.5859380">
        <ele>783.8</ele>
        <time>2019-11-01T07:37:39Z</time>
      </trkpt>
      <trkpt lat="38.3849420" lon="-2.5858630">
        <ele>783.8</ele>
        <time>2019-11-01T07:37:45Z</time>
      </trkpt>
      <trkpt lat="38.3849520" lon="-2.5858110">
        <ele>783.8</ele>
        <time>2019-11-01T07:37:49Z</time>
      </trkpt>
      <trkpt lat="38.3849520" lon="-2.5857260">
        <ele>783.8</ele>
        <time>2019-11-01T07:37:53Z</time>
      </trkpt>
      <trkpt lat="38.3849730" lon="-2.5856520">
        <ele>783.8</ele>
        <time>2019-11-01T07:37:55Z</time>
      </trkpt>
      <trkpt lat="38.3849910" lon="-2.5855740">
        <ele>783.8</ele>
        <time>2019-11-01T07:37:57Z</time>
      </trkpt>
      <trkpt lat="38.3850060" lon="-2.5856100">
        <ele>783.8</ele>
        <time>2019-11-01T07:38:00Z</time>
      </trkpt>
      <trkpt lat="38.3850240" lon="-2.5855880">
        <ele>783.8</ele>
        <time>2019-11-01T07:38:08Z</time>
      </trkpt>
      <trkpt lat="38.3850390" lon="-2.5855100">
        <ele>783.8</ele>
        <time>2019-11-01T07:38:13Z</time>
      </trkpt>
      <trkpt lat="38.3850680" lon="-2.5854420">
        <ele>783.8</ele>
        <time>2019-11-01T07:38:17Z</time>
      </trkpt>
      <trkpt lat="38.3850780" lon="-2.5853590">
        <ele>783.8</ele>
        <time>2019-11-01T07:38:19Z</time>
      </trkpt>
      <trkpt lat="38.3850910" lon="-2.5852810">
        <ele>783.8</ele>
        <time>2019-11-01T07:38:21Z</time>
      </trkpt>
      <trkpt lat="38.3851010" lon="-2.5852420">
        <ele>783.8</ele>
        <time>2019-11-01T07:38:23Z</time>
      </trkpt>
      <trkpt lat="38.3851010" lon="-2.5852480">
        <ele>783.8</ele>
        <time>2019-11-01T07:38:34Z</time>
      </trkpt>
      <trkpt lat="38.3850620" lon="-2.5852950">
        <ele>783.8</ele>
        <time>2019-11-01T07:38:39Z</time>
      </trkpt>
      <trkpt lat="38.3850520" lon="-2.5853390">
        <ele>780.2</ele>
        <time>2019-11-01T07:38:42Z</time>
      </trkpt>
      <trkpt lat="38.3850390" lon="-2.5854130">
        <ele>780.2</ele>
        <time>2019-11-01T07:38:46Z</time>
      </trkpt>
      <trkpt lat="38.3850090" lon="-2.5854890">
        <ele>780.2</ele>
        <time>2019-11-01T07:38:49Z</time>
      </trkpt>
      <trkpt lat="38.3849930" lon="-2.5855460">
        <ele>780.2</ele>
        <time>2019-11-01T07:38:52Z</time>
      </trkpt>
      <trkpt lat="38.3849980" lon="-2.5856240">
        <ele>780.2</ele>
        <time>2019-11-01T07:38:55Z</time>
      </trkpt>
      <trkpt lat="38.3849910" lon="-2.5856950">
        <ele>780.2</ele>
        <time>2019-11-01T07:38:57Z</time>
      </trkpt>
      <trkpt lat="38.3849910" lon="-2.5857520">
        <ele>780.2</ele>
        <time>2019-11-01T07:38:59Z</time>
      </trkpt>
      <trkpt lat="38.3850140" lon="-2.5857810">
        <ele>780.2</ele>
        <time>2019-11-01T07:39:04Z</time>
      </trkpt>
      <trkpt lat="38.3851240" lon="-2.5859620">
        <ele>780.2</ele>
        <time>2019-11-01T07:40:05Z</time>
      </trkpt>
      <trkpt lat="38.3851670" lon="-2.5859040">
        <ele>780.2</ele>
        <time>2019-11-01T07:40:08Z</time>
      </trkpt>
      <trkpt lat="38.3852030" lon="-2.5858270">
        <ele>780.2</ele>
        <time>2019-11-01T07:40:11Z</time>
      </trkpt>
      <trkpt lat="38.3852160" lon="-2.5857630">
        <ele>780.2</ele>
        <time>2019-11-01T07:40:14Z</time>
      </trkpt>
      <trkpt lat="38.3851930" lon="-2.5856940">
        <ele>780.2</ele>
        <time>2019-11-01T07:40:17Z</time>
      </trkpt>
      <trkpt lat="38.3851780" lon="-2.5856260">
        <ele>780.2</ele>
        <time>2019-11-01T07:40:20Z</time>
      </trkpt>
      <trkpt lat="38.3851880" lon="-2.5854480">
        <ele>780.2</ele>
        <time>2019-11-01T07:40:38Z</time>
      </trkpt>
      <trkpt lat="38.3851780" lon="-2.5854630">
        <ele>780.2</ele>
        <time>2019-11-01T07:40:46Z</time>
      </trkpt>
      <trkpt lat="38.3851600" lon="-2.5855140">
        <ele>780.2</ele>
        <time>2019-11-01T07:40:55Z</time>
      </trkpt>
      <trkpt lat="38.3851550" lon="-2.5855520">
        <ele>780.2</ele>
        <time>2019-11-01T07:41:07Z</time>
      </trkpt>
      <trkpt lat="38.3851290" lon="-2.5856410">
        <ele>780.2</ele>
        <time>2019-11-01T07:41:14Z</time>
      </trkpt>
      <trkpt lat="38.3851240" lon="-2.5856480">
        <ele>780.2</ele>
        <time>2019-11-01T07:41:32Z</time>
      </trkpt>
      <trkpt lat="38.3851290" lon="-2.5856190">
        <ele>780.2</ele>
        <time>2019-11-01T07:41:47Z</time>
      </trkpt>
      <trkpt lat="38.3851390" lon="-2.5856260">
        <ele>780.2</ele>
        <time>2019-11-01T07:41:56Z</time>
      </trkpt>
      <trkpt lat="38.3851390" lon="-2.5855470">
        <ele>780.2</ele>
        <time>2019-11-01T07:42:19Z</time>
      </trkpt>
      <trkpt lat="38.3851080" lon="-2.5856340">
        <ele>780.2</ele>
        <time>2019-11-01T07:42:48Z</time>
      </trkpt>
      <trkpt lat="38.3850980" lon="-2.5856010">
        <ele>796.9</ele>
        <time>2019-11-01T07:42:57Z</time>
      </trkpt>
      <trkpt lat="38.3850930" lon="-2.5855890">
        <ele>796.9</ele>
        <time>2019-11-01T07:43:18Z</time>
      </trkpt>
      <trkpt lat="38.3850910" lon="-2.5856990">
        <ele>796.9</ele>
        <time>2019-11-01T07:44:23Z</time>
      </trkpt>
      <trkpt lat="38.3850520" lon="-2.5857230">
        <ele>796.9</ele>
        <time>2019-11-01T07:44:39Z</time>
      </trkpt>
      <trkpt lat="38.3850750" lon="-2.5856800">
        <ele>796.9</ele>
        <time>2019-11-01T07:44:45Z</time>
      </trkpt>
      <trkpt lat="38.3850930" lon="-2.5856120">
        <ele>796.9</ele>
        <time>2019-11-01T07:44:52Z</time>
      </trkpt>
      <trkpt lat="38.3850830" lon="-2.5856800">
        <ele>796.9</ele>
        <time>2019-11-01T07:45:02Z</time>
      </trkpt>
      <trkpt lat="38.3851080" lon="-2.5856490">
        <ele>796.9</ele>
        <time>2019-11-01T07:45:12Z</time>
      </trkpt>
      <trkpt lat="38.3851080" lon="-2.5855820">
        <ele>796.9</ele>
        <time>2019-11-01T07:45:18Z</time>
      </trkpt>
      <trkpt lat="38.3851060" lon="-2.5855950">
        <ele>796.9</ele>
        <time>2019-11-01T07:45:28Z</time>
      </trkpt>
      <trkpt lat="38.3851080" lon="-2.5855050">
        <ele>796.9</ele>
        <time>2019-11-01T07:45:47Z</time>
      </trkpt>
      <trkpt lat="38.3850830" lon="-2.5854700">
        <ele>796.9</ele>
        <time>2019-11-01T07:45:57Z</time>
      </trkpt>
      <trkpt lat="38.3850680" lon="-2.5855060">
        <ele>796.2</ele>
        <time>2019-11-01T07:46:07Z</time>
      </trkpt>
      <trkpt lat="38.3850320" lon="-2.5855370">
        <ele>796.2</ele>
        <time>2019-11-01T07:46:22Z</time>
      </trkpt>
      <trkpt lat="38.3850010" lon="-2.5854710">
        <ele>796.2</ele>
        <time>2019-11-01T07:46:29Z</time>
      </trkpt>
      <trkpt lat="38.3849730" lon="-2.5854160">
        <ele>796.2</ele>
        <time>2019-11-01T07:46:33Z</time>
      </trkpt>
      <trkpt lat="38.3848960" lon="-2.5854060">
        <ele>796.2</ele>
        <time>2019-11-01T07:46:36Z</time>
      </trkpt>
      <trkpt lat="38.3848580" lon="-2.5854240">
        <ele>796.2</ele>
        <time>2019-11-01T07:46:39Z</time>
      </trkpt>
      <trkpt lat="38.3849110" lon="-2.5853800">
        <ele>796.2</ele>
        <time>2019-11-01T07:46:44Z</time>
      </trkpt>
      <trkpt lat="38.3849500" lon="-2.5854400">
        <ele>796.2</ele>
        <time>2019-11-01T07:46:49Z</time>
      </trkpt>
      <trkpt lat="38.3849730" lon="-2.5854900">
        <ele>796.2</ele>
        <time>2019-11-01T07:46:53Z</time>
      </trkpt>
      <trkpt lat="38.3849750" lon="-2.5855270">
        <ele>796.2</ele>
        <time>2019-11-01T07:47:01Z</time>
      </trkpt>
      <trkpt lat="38.3850160" lon="-2.5854890">
        <ele>796.2</ele>
        <time>2019-11-01T07:47:08Z</time>
      </trkpt>
      <trkpt lat="38.3850320" lon="-2.5855290">
        <ele>796.2</ele>
        <time>2019-11-01T07:47:18Z</time>
      </trkpt>
      <trkpt lat="38.3850320" lon="-2.5855350">
        <ele>796.2</ele>
        <time>2019-11-01T07:47:30Z</time>
      </trkpt>
      <trkpt lat="38.3849980" lon="-2.5855870">
        <ele>796.2</ele>
        <time>2019-11-01T07:47:39Z</time>
      </trkpt>
      <trkpt lat="38.3850370" lon="-2.5855930">
        <ele>796.2</ele>
        <time>2019-11-01T07:47:43Z</time>
      </trkpt>
      <trkpt lat="38.3851060" lon="-2.5856000">
        <ele>796.2</ele>
        <time>2019-11-01T07:47:48Z</time>
      </trkpt>
      <trkpt lat="38.3850910" lon="-2.5856440">
        <ele>796.2</ele>
        <time>2019-11-01T07:47:55Z</time>
      </trkpt>
      <trkpt lat="38.3850620" lon="-2.5857000">
        <ele>796.2</ele>
        <time>2019-11-01T07:48:00Z</time>
      </trkpt>
      <trkpt lat="38.3850090" lon="-2.5857130">
        <ele>796.2</ele>
        <time>2019-11-01T07:48:07Z</time>
      </trkpt>
      <trkpt lat="38.3849600" lon="-2.5857280">
        <ele>796.2</ele>
        <time>2019-11-01T07:48:10Z</time>
      </trkpt>
      <trkpt lat="38.3849140" lon="-2.5857310">
        <ele>796.2</ele>
        <time>2019-11-01T07:48:13Z</time>
      </trkpt>
      <trkpt lat="38.3850160" lon="-2.5856610">
        <ele>796.2</ele>
        <time>2019-11-01T07:48:16Z</time>
      </trkpt>
      <trkpt lat="38.3850750" lon="-2.5856350">
        <ele>796.2</ele>
        <time>2019-11-01T07:48:18Z</time>
      </trkpt>
      <trkpt lat="38.3851240" lon="-2.5856230">
        <ele>796.2</ele>
        <time>2019-11-01T07:48:21Z</time>
      </trkpt>
      <trkpt lat="38.3851780" lon="-2.5855770">
        <ele>796.2</ele>
        <time>2019-11-01T07:48:25Z</time>
      </trkpt>
      <trkpt lat="38.3851930" lon="-2.5855340">
        <ele>796.2</ele>
        <time>2019-11-01T07:48:28Z</time>
      </trkpt>
      <trkpt lat="38.3850750" lon="-2.5855350">
        <ele>796.2</ele>
        <time>2019-11-01T07:48:31Z</time>
      </trkpt>
      <trkpt lat="38.3850010" lon="-2.5855370">
        <ele>796.2</ele>
        <time>2019-11-01T07:48:33Z</time>
      </trkpt>
      <trkpt lat="38.3849140" lon="-2.5855330">
        <ele>796.2</ele>
        <time>2019-11-01T07:48:36Z</time>
      </trkpt>
      <trkpt lat="38.3849140" lon="-2.5855320">
        <ele>796.2</ele>
        <time>2019-11-01T07:48:37Z</time>
      </trkpt>
      <trkpt lat="38.3849680" lon="-2.5855070">
        <ele>796.2</ele>
        <time>2019-11-01T07:48:42Z</time>
      </trkpt>
      <trkpt lat="38.3849860" lon="-2.5855170">
        <ele>796.2</ele>
        <time>2019-11-01T07:48:48Z</time>
      </trkpt>
      <trkpt lat="38.3850210" lon="-2.5855820">
        <ele>796.2</ele>
        <time>2019-11-01T07:48:56Z</time>
      </trkpt>
      <trkpt lat="38.3850830" lon="-2.5856040">
        <ele>796.2</ele>
        <time>2019-11-01T07:48:58Z</time>
      </trkpt>
      <trkpt lat="38.3851210" lon="-2.5856180">
        <ele>796.2</ele>
        <time>2019-11-01T07:49:00Z</time>
      </trkpt>
      <trkpt lat="38.3851670" lon="-2.5856390">
        <ele>796.2</ele>
        <time>2019-11-01T07:49:06Z</time>
      </trkpt>
      <trkpt lat="38.3851800" lon="-2.5856410">
        <ele>796.2</ele>
        <time>2019-11-01T07:49:13Z</time>
      </trkpt>
      <trkpt lat="38.3851320" lon="-2.5855900">
        <ele>796.2</ele>
        <time>2019-11-01T07:49:17Z</time>
      </trkpt>
      <trkpt lat="38.3851060" lon="-2.5853730">
        <ele>796.2</ele>
        <time>2019-11-01T07:49:24Z</time>
      </trkpt>
      <trkpt lat="38.3851060" lon="-2.5853730">
        <ele>796.2</ele>
        <time>2019-11-01T07:49:25Z</time>
      </trkpt>
      <trkpt lat="38.3850830" lon="-2.5854730">
        <ele>796.2</ele>
        <time>2019-11-01T07:49:29Z</time>
      </trkpt>
      <trkpt lat="38.3850680" lon="-2.5855280">
        <ele>796.2</ele>
        <time>2019-11-01T07:49:31Z</time>
      </trkpt>
      <trkpt lat="38.3850520" lon="-2.5855870">
        <ele>796.2</ele>
        <time>2019-11-01T07:49:34Z</time>
      </trkpt>
      <trkpt lat="38.3850320" lon="-2.5856430">
        <ele>796.2</ele>
        <time>2019-11-01T07:49:43Z</time>
      </trkpt>
      <trkpt lat="38.3850470" lon="-2.5856380">
        <ele>796.2</ele>
        <time>2019-11-01T07:50:05Z</time>
      </trkpt>
      <trkpt lat="38.3851080" lon="-2.5856170">
        <ele>785.9</ele>
        <time>2019-11-01T07:50:10Z</time>
      </trkpt>
      <trkpt lat="38.3851140" lon="-2.5856170">
        <ele>785.9</ele>
        <time>2019-11-01T07:50:11Z</time>
      </trkpt>
      <trkpt lat="38.3850830" lon="-2.5856070">
        <ele>785.9</ele>
        <time>2019-11-01T07:50:23Z</time>
      </trkpt>
      <trkpt lat="38.3851600" lon="-2.5855950">
        <ele>785.9</ele>
        <time>2019-11-01T07:50:56Z</time>
      </trkpt>
      <trkpt lat="38.3851670" lon="-2.5855570">
        <ele>785.9</ele>
        <time>2019-11-01T07:51:09Z</time>
      </trkpt>
      <trkpt lat="38.3851750" lon="-2.5855110">
        <ele>785.9</ele>
        <time>2019-11-01T07:51:14Z</time>
      </trkpt>
      <trkpt lat="38.3851620" lon="-2.5855670">
        <ele>785.9</ele>
        <time>2019-11-01T07:51:22Z</time>
      </trkpt>
      <trkpt lat="38.3851140" lon="-2.5855910">
        <ele>785.9</ele>
        <time>2019-11-01T07:52:14Z</time>
      </trkpt>
      <trkpt lat="38.3850980" lon="-2.5856150">
        <ele>791.3</ele>
        <time>2019-11-01T07:52:19Z</time>
      </trkpt>
      <trkpt lat="38.3850370" lon="-2.5856060">
        <ele>791.3</ele>
        <time>2019-11-01T07:52:22Z</time>
      </trkpt>
      <trkpt lat="38.3850700" lon="-2.5856240">
        <ele>791.3</ele>
        <time>2019-11-01T07:52:29Z</time>
      </trkpt>
      <trkpt lat="38.3851010" lon="-2.5856180">
        <ele>791.3</ele>
        <time>2019-11-01T07:52:33Z</time>
      </trkpt>
      <trkpt lat="38.3851600" lon="-2.5855910">
        <ele>791.3</ele>
        <time>2019-11-01T07:52:39Z</time>
      </trkpt>
      <trkpt lat="38.3852110" lon="-2.5855980">
        <ele>791.3</ele>
        <time>2019-11-01T07:52:44Z</time>
      </trkpt>
      <trkpt lat="38.3852570" lon="-2.5856200">
        <ele>791.3</ele>
        <time>2019-11-01T07:52:49Z</time>
      </trkpt>
      <trkpt lat="38.3852540" lon="-2.5855900">
        <ele>791.3</ele>
        <time>2019-11-01T07:52:58Z</time>
      </trkpt>
      <trkpt lat="38.3852010" lon="-2.5855430">
        <ele>791.3</ele>
        <time>2019-11-01T07:53:03Z</time>
      </trkpt>
      <trkpt lat="38.3851440" lon="-2.5855590">
        <ele>791.3</ele>
        <time>2019-11-01T07:53:07Z</time>
      </trkpt>
      <trkpt lat="38.3850620" lon="-2.5855890">
        <ele>791.3</ele>
        <time>2019-11-01T07:53:10Z</time>
      </trkpt>
      <trkpt lat="38.3850320" lon="-2.5855950">
        <ele>791.3</ele>
        <time>2019-11-01T07:53:13Z</time>
      </trkpt>
      <trkpt lat="38.3850140" lon="-2.5855380">
        <ele>791.3</ele>
        <time>2019-11-01T07:53:19Z</time>
      </trkpt>
      <trkpt lat="38.3850370" lon="-2.5855120">
        <ele>791.3</ele>
        <time>2019-11-01T07:53:32Z</time>
      </trkpt>
      <trkpt lat="38.3850850" lon="-2.5855260">
        <ele>791.3</ele>
        <time>2019-11-01T07:53:38Z</time>
      </trkpt>
      <trkpt lat="38.3850440" lon="-2.5854770">
        <ele>791.3</ele>
        <time>2019-11-01T07:53:52Z</time>
      </trkpt>
      <trkpt lat="38.3850320" lon="-2.5854940">
        <ele>791.3</ele>
        <time>2019-11-01T07:53:58Z</time>
      </trkpt>
      <trkpt lat="38.3850680" lon="-2.5855320">
        <ele>791.3</ele>
        <time>2019-11-01T07:54:04Z</time>
      </trkpt>
      <trkpt lat="38.3851140" lon="-2.5856170">
        <ele>791.3</ele>
        <time>2019-11-01T07:54:11Z</time>
      </trkpt>
      <trkpt lat="38.3851290" lon="-2.5856500">
        <ele>791.3</ele>
        <time>2019-11-01T07:54:14Z</time>
      </trkpt>
      <trkpt lat="38.3851140" lon="-2.5855910">
        <ele>798.0</ele>
        <time>2019-11-01T07:54:20Z</time>
      </trkpt>
      <trkpt lat="38.3850320" lon="-2.5856030">
        <ele>798.0</ele>
        <time>2019-11-01T07:54:26Z</time>
      </trkpt>
      <trkpt lat="38.3849800" lon="-2.5855240">
        <ele>798.0</ele>
        <time>2019-11-01T07:54:29Z</time>
      </trkpt>
      <trkpt lat="38.3849650" lon="-2.5854400">
        <ele>798.0</ele>
        <time>2019-11-01T07:54:31Z</time>
      </trkpt>
      <trkpt lat="38.3849570" lon="-2.5853680">
        <ele>798.0</ele>
        <time>2019-11-01T07:54:33Z</time>
      </trkpt>
      <trkpt lat="38.3849750" lon="-2.5853980">
        <ele>798.0</ele>
        <time>2019-11-01T07:54:37Z</time>
      </trkpt>
      <trkpt lat="38.3850780" lon="-2.5856600">
        <ele>798.0</ele>
        <time>2019-11-01T07:55:12Z</time>
      </trkpt>
      <trkpt lat="38.3850780" lon="-2.5855610">
        <ele>798.0</ele>
        <time>2019-11-01T07:55:51Z</time>
      </trkpt>
      <trkpt lat="38.3851320" lon="-2.5854550">
        <ele>798.0</ele>
        <time>2019-11-01T07:56:13Z</time>
      </trkpt>
      <trkpt lat="38.3851370" lon="-2.5855240">
        <ele>798.0</ele>
        <time>2019-11-01T07:56:18Z</time>
      </trkpt>
      <trkpt lat="38.3851550" lon="-2.5854320">
        <ele>798.0</ele>
        <time>2019-11-01T07:56:23Z</time>
      </trkpt>
      <trkpt lat="38.3851780" lon="-2.5854080">
        <ele>798.0</ele>
        <time>2019-11-01T07:56:28Z</time>
      </trkpt>
      <trkpt lat="38.3851550" lon="-2.5853740">
        <ele>798.0</ele>
        <time>2019-11-01T07:56:40Z</time>
      </trkpt>
      <trkpt lat="38.3851470" lon="-2.5854420">
        <ele>798.0</ele>
        <time>2019-11-01T07:56:46Z</time>
      </trkpt>
      <trkpt lat="38.3851780" lon="-2.5855110">
        <ele>798.0</ele>
        <time>2019-11-01T07:56:52Z</time>
      </trkpt>
      <trkpt lat="38.3851620" lon="-2.5855500">
        <ele>798.0</ele>
        <time>2019-11-01T07:57:02Z</time>
      </trkpt>
      <trkpt lat="38.3851080" lon="-2.5855720">
        <ele>798.0</ele>
        <time>2019-11-01T07:57:07Z</time>
      </trkpt>
      <trkpt lat="38.3850830" lon="-2.5855710">
        <ele>798.0</ele>
        <time>2019-11-01T07:57:14Z</time>
      </trkpt>
      <trkpt lat="38.3851390" lon="-2.5855750">
        <ele>798.0</ele>
        <time>2019-11-01T07:57:20Z</time>
      </trkpt>
      <trkpt lat="38.3852030" lon="-2.5855830">
        <ele>798.0</ele>
        <time>2019-11-01T07:57:23Z</time>
      </trkpt>
      <trkpt lat="38.3852260" lon="-2.5856160">
        <ele>798.0</ele>
        <time>2019-11-01T07:57:26Z</time>
      </trkpt>
      <trkpt lat="38.3851800" lon="-2.5856310">
        <ele>798.0</ele>
        <time>2019-11-01T07:57:29Z</time>
      </trkpt>
      <trkpt lat="38.3851290" lon="-2.5856110">
        <ele>798.0</ele>
        <time>2019-11-01T07:57:34Z</time>
      </trkpt>
      <trkpt lat="38.3853720" lon="-2.5855880">
        <ele>798.0</ele>
        <time>2019-11-01T07:58:18Z</time>
      </trkpt>
      <trkpt lat="38.3853540" lon="-2.5855760">
        <ele>798.0</ele>
        <time>2019-11-01T07:58:35Z</time>
      </trkpt>
      <trkpt lat="38.3853470" lon="-2.5855290">
        <ele>798.0</ele>
        <time>2019-11-01T07:58:41Z</time>
      </trkpt>
      <trkpt lat="38.3852770" lon="-2.5855510">
        <ele>798.0</ele>
        <time>2019-11-01T07:58:50Z</time>
      </trkpt>
      <trkpt lat="38.3851700" lon="-2.5855600">
        <ele>798.0</ele>
        <time>2019-11-01T07:58:53Z</time>
      </trkpt>
      <trkpt lat="38.3849800" lon="-2.5855940">
        <ele>798.0</ele>
        <time>2019-11-01T07:59:06Z</time>
      </trkpt>
      <trkpt lat="38.3850440" lon="-2.5855850">
        <ele>798.0</ele>
        <time>2019-11-01T07:59:08Z</time>
      </trkpt>
      <trkpt lat="38.3850930" lon="-2.5855850">
        <ele>798.0</ele>
        <time>2019-11-01T07:59:10Z</time>
      </trkpt>
      <trkpt lat="38.3851320" lon="-2.5855980">
        <ele>798.0</ele>
        <time>2019-11-01T07:59:13Z</time>
      </trkpt>
      <trkpt lat="38.3851600" lon="-2.5856420">
        <ele>798.0</ele>
        <time>2019-11-01T07:59:28Z</time>
      </trkpt>
      <trkpt lat="38.3852010" lon="-2.5856200">
        <ele>798.0</ele>
        <time>2019-11-01T08:00:01Z</time>
      </trkpt>
      <trkpt lat="38.3851620" lon="-2.5855870">
        <ele>798.0</ele>
        <time>2019-11-01T08:00:24Z</time>
      </trkpt>
      <trkpt lat="38.3851520" lon="-2.5855950">
        <ele>798.0</ele>
        <time>2019-11-01T08:00:46Z</time>
      </trkpt>
      <trkpt lat="38.3851290" lon="-2.5855340">
        <ele>798.0</ele>
        <time>2019-11-01T08:00:57Z</time>
      </trkpt>
      <trkpt lat="38.3851850" lon="-2.5855050">
        <ele>798.0</ele>
        <time>2019-11-01T08:01:04Z</time>
      </trkpt>
      <trkpt lat="38.3851620" lon="-2.5856050">
        <ele>798.0</ele>
        <time>2019-11-01T08:01:33Z</time>
      </trkpt>
      <trkpt lat="38.3851080" lon="-2.5855930">
        <ele>798.0</ele>
        <time>2019-11-01T08:01:39Z</time>
      </trkpt>
      <trkpt lat="38.3850750" lon="-2.5855630">
        <ele>798.0</ele>
        <time>2019-11-01T08:02:11Z</time>
      </trkpt>
      <trkpt lat="38.3850550" lon="-2.5855820">
        <ele>798.0</ele>
        <time>2019-11-01T08:02:21Z</time>
      </trkpt>
      <trkpt lat="38.3852030" lon="-2.5855710">
        <ele>798.0</ele>
        <time>2019-11-01T08:03:01Z</time>
      </trkpt>
      <trkpt lat="38.3852080" lon="-2.5855710">
        <ele>798.0</ele>
        <time>2019-11-01T08:03:12Z</time>
      </trkpt>
      <trkpt lat="38.3850830" lon="-2.5856450">
        <ele>798.0</ele>
        <time>2019-11-01T08:04:23Z</time>
      </trkpt>
      <trkpt lat="38.3850910" lon="-2.5855570">
        <ele>798.0</ele>
        <time>2019-11-01T08:04:44Z</time>
      </trkpt>
      <trkpt lat="38.3851010" lon="-2.5855180">
        <ele>798.0</ele>
        <time>2019-11-01T08:04:48Z</time>
      </trkpt>
      <trkpt lat="38.3851370" lon="-2.5854550">
        <ele>798.0</ele>
        <time>2019-11-01T08:05:02Z</time>
      </trkpt>
      <trkpt lat="38.3850850" lon="-2.5854880">
        <ele>798.0</ele>
        <time>2019-11-01T08:05:08Z</time>
      </trkpt>
      <trkpt lat="38.3851210" lon="-2.5854880">
        <ele>798.0</ele>
        <time>2019-11-01T08:05:35Z</time>
      </trkpt>
      <trkpt lat="38.3851600" lon="-2.5854280">
        <ele>798.0</ele>
        <time>2019-11-01T08:05:43Z</time>
      </trkpt>
      <trkpt lat="38.3851880" lon="-2.5853770">
        <ele>798.0</ele>
        <time>2019-11-01T08:05:52Z</time>
      </trkpt>
      <trkpt lat="38.3852010" lon="-2.5854370">
        <ele>798.0</ele>
        <time>2019-11-01T08:06:07Z</time>
      </trkpt>
      <trkpt lat="38.3852260" lon="-2.5855070">
        <ele>798.0</ele>
        <time>2019-11-01T08:06:42Z</time>
      </trkpt>
      <trkpt lat="38.3851780" lon="-2.5856240">
        <ele>798.0</ele>
        <time>2019-11-01T08:06:59Z</time>
      </trkpt>
      <trkpt lat="38.3851800" lon="-2.5855730">
        <ele>798.0</ele>
        <time>2019-11-01T08:07:10Z</time>
      </trkpt>
      <trkpt lat="38.3851800" lon="-2.5856750">
        <ele>798.0</ele>
        <time>2019-11-01T08:07:56Z</time>
      </trkpt>
      <trkpt lat="38.3851550" lon="-2.5855820">
        <ele>798.0</ele>
        <time>2019-11-01T08:08:12Z</time>
      </trkpt>
      <trkpt lat="38.3851240" lon="-2.5855850">
        <ele>798.0</ele>
        <time>2019-11-01T08:08:37Z</time>
      </trkpt>
      <trkpt lat="38.3851370" lon="-2.5855340">
        <ele>798.0</ele>
        <time>2019-11-01T08:08:49Z</time>
      </trkpt>
      <trkpt lat="38.3850930" lon="-2.5855490">
        <ele>798.0</ele>
        <time>2019-11-01T08:09:24Z</time>
      </trkpt>
      <trkpt lat="38.3851320" lon="-2.5855480">
        <ele>798.0</ele>
        <time>2019-11-01T08:09:48Z</time>
      </trkpt>
      <trkpt lat="38.3851290" lon="-2.5855060">
        <ele>798.0</ele>
        <time>2019-11-01T08:09:59Z</time>
      </trkpt>
      <trkpt lat="38.3851800" lon="-2.5855000">
        <ele>798.0</ele>
        <time>2019-11-01T08:10:07Z</time>
      </trkpt>
      <trkpt lat="38.3852190" lon="-2.5855350">
        <ele>798.0</ele>
        <time>2019-11-01T08:10:14Z</time>
      </trkpt>
      <trkpt lat="38.3851750" lon="-2.5855290">
        <ele>798.0</ele>
        <time>2019-11-01T08:10:22Z</time>
      </trkpt>
      <trkpt lat="38.3851960" lon="-2.5855360">
        <ele>798.0</ele>
        <time>2019-11-01T08:11:04Z</time>
      </trkpt>
      <trkpt lat="38.3852030" lon="-2.5854800">
        <ele>798.0</ele>
        <time>2019-11-01T08:11:07Z</time>
      </trkpt>
      <trkpt lat="38.3850780" lon="-2.5855380">
        <ele>798.0</ele>
        <time>2019-11-01T08:19:08Z</time>
      </trkpt>
      <trkpt lat="38.3851240" lon="-2.5855060">
        <ele>798.0</ele>
        <time>2019-11-01T08:22:35Z</time>
      </trkpt>
      <trkpt lat="38.3851620" lon="-2.5854430">
        <ele>798.0</ele>
        <time>2019-11-01T08:22:40Z</time>
      </trkpt>
      <trkpt lat="38.3852010" lon="-2.5853770">
        <ele>798.0</ele>
        <time>2019-11-01T08:22:44Z</time>
      </trkpt>
      <trkpt lat="38.3852310" lon="-2.5853200">
        <ele>798.0</ele>
        <time>2019-11-01T08:22:47Z</time>
      </trkpt>
      <trkpt lat="38.3852620" lon="-2.5852610">
        <ele>798.0</ele>
        <time>2019-11-01T08:22:50Z</time>
      </trkpt>
      <trkpt lat="38.3852950" lon="-2.5852040">
        <ele>798.0</ele>
        <time>2019-11-01T08:22:53Z</time>
      </trkpt>
      <trkpt lat="38.3853310" lon="-2.5851450">
        <ele>798.0</ele>
        <time>2019-11-01T08:22:56Z</time>
      </trkpt>
      <trkpt lat="38.3853700" lon="-2.5850850">
        <ele>800.3</ele>
        <time>2019-11-01T08:22:59Z</time>
      </trkpt>
      <trkpt lat="38.3854110" lon="-2.5850230">
        <ele>800.3</ele>
        <time>2019-11-01T08:23:02Z</time>
      </trkpt>
      <trkpt lat="38.3854490" lon="-2.5849620">
        <ele>800.3</ele>
        <time>2019-11-01T08:23:05Z</time>
      </trkpt>
      <trkpt lat="38.3854870" lon="-2.5849010">
        <ele>800.3</ele>
        <time>2019-11-01T08:23:08Z</time>
      </trkpt>
      <trkpt lat="38.3855180" lon="-2.5848450">
        <ele>801.6</ele>
        <time>2019-11-01T08:23:11Z</time>
      </trkpt>
      <trkpt lat="38.3855510" lon="-2.5847880">
        <ele>801.6</ele>
        <time>2019-11-01T08:23:14Z</time>
      </trkpt>
      <trkpt lat="38.3855900" lon="-2.5847290">
        <ele>802.8</ele>
        <time>2019-11-01T08:23:17Z</time>
      </trkpt>
      <trkpt lat="38.3856310" lon="-2.5846690">
        <ele>802.8</ele>
        <time>2019-11-01T08:23:20Z</time>
      </trkpt>
      <trkpt lat="38.3856690" lon="-2.5846070">
        <ele>802.8</ele>
        <time>2019-11-01T08:23:23Z</time>
      </trkpt>
      <trkpt lat="38.3857130" lon="-2.5845450">
        <ele>802.8</ele>
        <time>2019-11-01T08:23:26Z</time>
      </trkpt>
      <trkpt lat="38.3857460" lon="-2.5844830">
        <ele>803.9</ele>
        <time>2019-11-01T08:23:29Z</time>
      </trkpt>
      <trkpt lat="38.3857840" lon="-2.5844180">
        <ele>803.9</ele>
        <time>2019-11-01T08:23:32Z</time>
      </trkpt>
      <trkpt lat="38.3858230" lon="-2.5843620">
        <ele>803.9</ele>
        <time>2019-11-01T08:23:35Z</time>
      </trkpt>
      <trkpt lat="38.3858710" lon="-2.5843220">
        <ele>805.1</ele>
        <time>2019-11-01T08:23:38Z</time>
      </trkpt>
      <trkpt lat="38.3859250" lon="-2.5842990">
        <ele>805.1</ele>
        <time>2019-11-01T08:23:41Z</time>
      </trkpt>
      <trkpt lat="38.3859810" lon="-2.5842960">
        <ele>805.1</ele>
        <time>2019-11-01T08:23:44Z</time>
      </trkpt>
      <trkpt lat="38.3860400" lon="-2.5843160">
        <ele>806.5</ele>
        <time>2019-11-01T08:23:47Z</time>
      </trkpt>
      <trkpt lat="38.3860970" lon="-2.5843400">
        <ele>806.5</ele>
        <time>2019-11-01T08:23:50Z</time>
      </trkpt>
      <trkpt lat="38.3861500" lon="-2.5843760">
        <ele>807.7</ele>
        <time>2019-11-01T08:23:53Z</time>
      </trkpt>
      <trkpt lat="38.3861960" lon="-2.5844190">
        <ele>807.7</ele>
        <time>2019-11-01T08:23:56Z</time>
      </trkpt>
      <trkpt lat="38.3862370" lon="-2.5844600">
        <ele>807.7</ele>
        <time>2019-11-01T08:23:59Z</time>
      </trkpt>
      <trkpt lat="38.3862810" lon="-2.5844980">
        <ele>807.7</ele>
        <time>2019-11-01T08:24:02Z</time>
      </trkpt>
      <trkpt lat="38.3863270" lon="-2.5845440">
        <ele>808.8</ele>
        <time>2019-11-01T08:24:06Z</time>
      </trkpt>
      <trkpt lat="38.3863710" lon="-2.5845860">
        <ele>808.8</ele>
        <time>2019-11-01T08:24:10Z</time>
      </trkpt>
      <trkpt lat="38.3864240" lon="-2.5846340">
        <ele>810.0</ele>
        <time>2019-11-01T08:24:14Z</time>
      </trkpt>
      <trkpt lat="38.3864760" lon="-2.5846690">
        <ele>810.0</ele>
        <time>2019-11-01T08:24:17Z</time>
      </trkpt>
      <trkpt lat="38.3865240" lon="-2.5846940">
        <ele>810.0</ele>
        <time>2019-11-01T08:24:20Z</time>
      </trkpt>
      <trkpt lat="38.3865700" lon="-2.5847070">
        <ele>810.0</ele>
        <time>2019-11-01T08:24:23Z</time>
      </trkpt>
      <trkpt lat="38.3866340" lon="-2.5847220">
        <ele>811.3</ele>
        <time>2019-11-01T08:24:27Z</time>
      </trkpt>
      <trkpt lat="38.3866930" lon="-2.5847280">
        <ele>811.3</ele>
        <time>2019-11-01T08:24:30Z</time>
      </trkpt>
      <trkpt lat="38.3867490" lon="-2.5847310">
        <ele>811.3</ele>
        <time>2019-11-01T08:24:33Z</time>
      </trkpt>
      <trkpt lat="38.3868110" lon="-2.5847350">
        <ele>812.5</ele>
        <time>2019-11-01T08:24:36Z</time>
      </trkpt>
      <trkpt lat="38.3868720" lon="-2.5847390">
        <ele>812.5</ele>
        <time>2019-11-01T08:24:39Z</time>
      </trkpt>
      <trkpt lat="38.3869310" lon="-2.5847410">
        <ele>812.5</ele>
        <time>2019-11-01T08:24:42Z</time>
      </trkpt>
      <trkpt lat="38.3869900" lon="-2.5847500">
        <ele>812.5</ele>
        <time>2019-11-01T08:24:45Z</time>
      </trkpt>
      <trkpt lat="38.3870520" lon="-2.5847540">
        <ele>813.7</ele>
        <time>2019-11-01T08:24:48Z</time>
      </trkpt>
      <trkpt lat="38.3871160" lon="-2.5847510">
        <ele>813.7</ele>
        <time>2019-11-01T08:24:51Z</time>
      </trkpt>
      <trkpt lat="38.3871770" lon="-2.5847460">
        <ele>813.7</ele>
        <time>2019-11-01T08:24:54Z</time>
      </trkpt>
      <trkpt lat="38.3872380" lon="-2.5847390">
        <ele>813.7</ele>
        <time>2019-11-01T08:24:57Z</time>
      </trkpt>
      <trkpt lat="38.3873180" lon="-2.5847290">
        <ele>814.8</ele>
        <time>2019-11-01T08:25:01Z</time>
      </trkpt>
      <trkpt lat="38.3873820" lon="-2.5847210">
        <ele>814.8</ele>
        <time>2019-11-01T08:25:04Z</time>
      </trkpt>
      <trkpt lat="38.3874510" lon="-2.5847090">
        <ele>814.8</ele>
        <time>2019-11-01T08:25:07Z</time>
      </trkpt>
      <trkpt lat="38.3875200" lon="-2.5846920">
        <ele>814.8</ele>
        <time>2019-11-01T08:25:10Z</time>
      </trkpt>
      <trkpt lat="38.3875890" lon="-2.5846730">
        <ele>814.8</ele>
        <time>2019-11-01T08:25:13Z</time>
      </trkpt>
      <trkpt lat="38.3876580" lon="-2.5846560">
        <ele>814.8</ele>
        <time>2019-11-01T08:25:16Z</time>
      </trkpt>
      <trkpt lat="38.3877250" lon="-2.5846430">
        <ele>814.8</ele>
        <time>2019-11-01T08:25:19Z</time>
      </trkpt>
      <trkpt lat="38.3877760" lon="-2.5846380">
        <ele>816.0</ele>
        <time>2019-11-01T08:25:21Z</time>
      </trkpt>
      <trkpt lat="38.3878450" lon="-2.5846360">
        <ele>816.0</ele>
        <time>2019-11-01T08:25:24Z</time>
      </trkpt>
      <trkpt lat="38.3879090" lon="-2.5846380">
        <ele>816.0</ele>
        <time>2019-11-01T08:25:27Z</time>
      </trkpt>
      <trkpt lat="38.3879780" lon="-2.5846480">
        <ele>816.0</ele>
        <time>2019-11-01T08:25:30Z</time>
      </trkpt>
      <trkpt lat="38.3880470" lon="-2.5846590">
        <ele>817.4</ele>
        <time>2019-11-01T08:25:33Z</time>
      </trkpt>
      <trkpt lat="38.3881060" lon="-2.5846760">
        <ele>817.4</ele>
        <time>2019-11-01T08:25:36Z</time>
      </trkpt>
      <trkpt lat="38.3881650" lon="-2.5846960">
        <ele>818.6</ele>
        <time>2019-11-01T08:25:39Z</time>
      </trkpt>
      <trkpt lat="38.3882270" lon="-2.5847160">
        <ele>818.6</ele>
        <time>2019-11-01T08:25:42Z</time>
      </trkpt>
      <trkpt lat="38.3882830" lon="-2.5847350">
        <ele>818.6</ele>
        <time>2019-11-01T08:25:45Z</time>
      </trkpt>
      <trkpt lat="38.3883440" lon="-2.5847490">
        <ele>818.6</ele>
        <time>2019-11-01T08:25:48Z</time>
      </trkpt>
      <trkpt lat="38.3883980" lon="-2.5847620">
        <ele>819.8</ele>
        <time>2019-11-01T08:25:51Z</time>
      </trkpt>
      <trkpt lat="38.3884540" lon="-2.5847650">
        <ele>819.8</ele>
        <time>2019-11-01T08:25:54Z</time>
      </trkpt>
      <trkpt lat="38.3885110" lon="-2.5847490">
        <ele>821.0</ele>
        <time>2019-11-01T08:25:57Z</time>
      </trkpt>
      <trkpt lat="38.3885570" lon="-2.5847080">
        <ele>821.0</ele>
        <time>2019-11-01T08:26:00Z</time>
      </trkpt>
      <trkpt lat="38.3886000" lon="-2.5846360">
        <ele>821.0</ele>
        <time>2019-11-01T08:26:04Z</time>
      </trkpt>
      <trkpt lat="38.3886180" lon="-2.5845720">
        <ele>821.0</ele>
        <time>2019-11-01T08:26:07Z</time>
      </trkpt>
      <trkpt lat="38.3886340" lon="-2.5845130">
        <ele>821.0</ele>
        <time>2019-11-01T08:26:10Z</time>
      </trkpt>
      <trkpt lat="38.3886570" lon="-2.5844360">
        <ele>821.0</ele>
        <time>2019-11-01T08:26:14Z</time>
      </trkpt>
      <trkpt lat="38.3886750" lon="-2.5843770">
        <ele>821.0</ele>
        <time>2019-11-01T08:26:17Z</time>
      </trkpt>
      <trkpt lat="38.3886980" lon="-2.5842970">
        <ele>821.0</ele>
        <time>2019-11-01T08:26:21Z</time>
      </trkpt>
      <trkpt lat="38.3887180" lon="-2.5842400">
        <ele>821.0</ele>
        <time>2019-11-01T08:26:24Z</time>
      </trkpt>
      <trkpt lat="38.3887440" lon="-2.5841760">
        <ele>821.0</ele>
        <time>2019-11-01T08:26:28Z</time>
      </trkpt>
      <trkpt lat="38.3887870" lon="-2.5841150">
        <ele>821.0</ele>
        <time>2019-11-01T08:26:32Z</time>
      </trkpt>
      <trkpt lat="38.3888280" lon="-2.5840570">
        <ele>821.0</ele>
        <time>2019-11-01T08:26:36Z</time>
      </trkpt>
      <trkpt lat="38.3888670" lon="-2.5839910">
        <ele>821.0</ele>
        <time>2019-11-01T08:26:40Z</time>
      </trkpt>
      <trkpt lat="38.3889000" lon="-2.5839420">
        <ele>821.0</ele>
        <time>2019-11-01T08:26:43Z</time>
      </trkpt>
      <trkpt lat="38.3889460" lon="-2.5838830">
        <ele>821.0</ele>
        <time>2019-11-01T08:26:47Z</time>
      </trkpt>
      <trkpt lat="38.3889890" lon="-2.5838420">
        <ele>821.0</ele>
        <time>2019-11-01T08:26:50Z</time>
      </trkpt>
      <trkpt lat="38.3890360" lon="-2.5838050">
        <ele>821.0</ele>
        <time>2019-11-01T08:26:53Z</time>
      </trkpt>
      <trkpt lat="38.3890790" lon="-2.5837700">
        <ele>821.0</ele>
        <time>2019-11-01T08:26:56Z</time>
      </trkpt>
      <trkpt lat="38.3891250" lon="-2.5837370">
        <ele>824.5</ele>
        <time>2019-11-01T08:26:59Z</time>
      </trkpt>
      <trkpt lat="38.3891610" lon="-2.5837160">
        <ele>824.5</ele>
        <time>2019-11-01T08:27:01Z</time>
      </trkpt>
      <trkpt lat="38.3892100" lon="-2.5836870">
        <ele>824.5</ele>
        <time>2019-11-01T08:27:04Z</time>
      </trkpt>
      <trkpt lat="38.3892630" lon="-2.5836580">
        <ele>824.5</ele>
        <time>2019-11-01T08:27:07Z</time>
      </trkpt>
      <trkpt lat="38.3893090" lon="-2.5836290">
        <ele>824.5</ele>
        <time>2019-11-01T08:27:10Z</time>
      </trkpt>
      <trkpt lat="38.3893500" lon="-2.5835920">
        <ele>824.5</ele>
        <time>2019-11-01T08:27:13Z</time>
      </trkpt>
      <trkpt lat="38.3894040" lon="-2.5835410">
        <ele>824.5</ele>
        <time>2019-11-01T08:27:17Z</time>
      </trkpt>
      <trkpt lat="38.3894450" lon="-2.5834970">
        <ele>824.5</ele>
        <time>2019-11-01T08:27:20Z</time>
      </trkpt>
      <trkpt lat="38.3894810" lon="-2.5834360">
        <ele>824.5</ele>
        <time>2019-11-01T08:27:23Z</time>
      </trkpt>
      <trkpt lat="38.3895070" lon="-2.5833740">
        <ele>826.5</ele>
        <time>2019-11-01T08:27:26Z</time>
      </trkpt>
      <trkpt lat="38.3895420" lon="-2.5833200">
        <ele>826.5</ele>
        <time>2019-11-01T08:27:29Z</time>
      </trkpt>
      <trkpt lat="38.3895680" lon="-2.5832640">
        <ele>826.5</ele>
        <time>2019-11-01T08:27:32Z</time>
      </trkpt>
      <trkpt lat="38.3895990" lon="-2.5831850">
        <ele>826.5</ele>
        <time>2019-11-01T08:27:36Z</time>
      </trkpt>
      <trkpt lat="38.3896220" lon="-2.5831210">
        <ele>826.5</ele>
        <time>2019-11-01T08:27:39Z</time>
      </trkpt>
      <trkpt lat="38.3896450" lon="-2.5830600">
        <ele>826.5</ele>
        <time>2019-11-01T08:27:42Z</time>
      </trkpt>
      <trkpt lat="38.3896600" lon="-2.5830000">
        <ele>826.5</ele>
        <time>2019-11-01T08:27:45Z</time>
      </trkpt>
      <trkpt lat="38.3896760" lon="-2.5829400">
        <ele>826.5</ele>
        <time>2019-11-01T08:27:48Z</time>
      </trkpt>
      <trkpt lat="38.3896910" lon="-2.5828810">
        <ele>828.5</ele>
        <time>2019-11-01T08:27:51Z</time>
      </trkpt>
      <trkpt lat="38.3897090" lon="-2.5828040">
        <ele>828.5</ele>
        <time>2019-11-01T08:27:55Z</time>
      </trkpt>
      <trkpt lat="38.3897370" lon="-2.5827400">
        <ele>828.5</ele>
        <time>2019-11-01T08:27:59Z</time>
      </trkpt>
      <trkpt lat="38.3897630" lon="-2.5826760">
        <ele>828.5</ele>
        <time>2019-11-01T08:28:03Z</time>
      </trkpt>
      <trkpt lat="38.3897930" lon="-2.5826270">
        <ele>828.5</ele>
        <time>2019-11-01T08:28:07Z</time>
      </trkpt>
      <trkpt lat="38.3898090" lon="-2.5825830">
        <ele>831.5</ele>
        <time>2019-11-01T08:28:11Z</time>
      </trkpt>
      <trkpt lat="38.3897470" lon="-2.5826130">
        <ele>831.5</ele>
        <time>2019-11-01T08:28:18Z</time>
      </trkpt>
      <trkpt lat="38.3896700" lon="-2.5825800">
        <ele>831.5</ele>
        <time>2019-11-01T08:28:22Z</time>
      </trkpt>
      <trkpt lat="38.3895960" lon="-2.5825400">
        <ele>831.5</ele>
        <time>2019-11-01T08:28:25Z</time>
      </trkpt>
      <trkpt lat="38.3895350" lon="-2.5825060">
        <ele>833.5</ele>
        <time>2019-11-01T08:28:27Z</time>
      </trkpt>
      <trkpt lat="38.3894680" lon="-2.5824710">
        <ele>833.5</ele>
        <time>2019-11-01T08:28:29Z</time>
      </trkpt>
      <trkpt lat="38.3894020" lon="-2.5824300">
        <ele>833.5</ele>
        <time>2019-11-01T08:28:31Z</time>
      </trkpt>
      <trkpt lat="38.3893270" lon="-2.5823830">
        <ele>833.5</ele>
        <time>2019-11-01T08:28:33Z</time>
      </trkpt>
      <trkpt lat="38.3892580" lon="-2.5823310">
        <ele>833.5</ele>
        <time>2019-11-01T08:28:35Z</time>
      </trkpt>
      <trkpt lat="38.3891870" lon="-2.5822880">
        <ele>833.5</ele>
        <time>2019-11-01T08:28:37Z</time>
      </trkpt>
      <trkpt lat="38.3891250" lon="-2.5822530">
        <ele>833.5</ele>
        <time>2019-11-01T08:28:39Z</time>
      </trkpt>
      <trkpt lat="38.3890690" lon="-2.5822180">
        <ele>833.5</ele>
        <time>2019-11-01T08:28:41Z</time>
      </trkpt>
      <trkpt lat="38.3890150" lon="-2.5821890">
        <ele>835.7</ele>
        <time>2019-11-01T08:28:43Z</time>
      </trkpt>
      <trkpt lat="38.3889690" lon="-2.5821620">
        <ele>835.7</ele>
        <time>2019-11-01T08:28:45Z</time>
      </trkpt>
      <trkpt lat="38.3889080" lon="-2.5821280">
        <ele>835.7</ele>
        <time>2019-11-01T08:28:48Z</time>
      </trkpt>
      <trkpt lat="38.3888610" lon="-2.5821000">
        <ele>835.7</ele>
        <time>2019-11-01T08:28:50Z</time>
      </trkpt>
      <trkpt lat="38.3888130" lon="-2.5820670">
        <ele>835.7</ele>
        <time>2019-11-01T08:28:52Z</time>
      </trkpt>
      <trkpt lat="38.3887640" lon="-2.5820340">
        <ele>835.7</ele>
        <time>2019-11-01T08:28:54Z</time>
      </trkpt>
      <trkpt lat="38.3887130" lon="-2.5819990">
        <ele>835.7</ele>
        <time>2019-11-01T08:28:56Z</time>
      </trkpt>
      <trkpt lat="38.3886640" lon="-2.5819620">
        <ele>835.7</ele>
        <time>2019-11-01T08:28:58Z</time>
      </trkpt>
      <trkpt lat="38.3886160" lon="-2.5819260">
        <ele>835.7</ele>
        <time>2019-11-01T08:29:00Z</time>
      </trkpt>
      <trkpt lat="38.3885640" lon="-2.5818940">
        <ele>835.7</ele>
        <time>2019-11-01T08:29:02Z</time>
      </trkpt>
      <trkpt lat="38.3885180" lon="-2.5818630">
        <ele>835.7</ele>
        <time>2019-11-01T08:29:04Z</time>
      </trkpt>
      <trkpt lat="38.3884600" lon="-2.5818230">
        <ele>835.7</ele>
        <time>2019-11-01T08:29:07Z</time>
      </trkpt>
      <trkpt lat="38.3883980" lon="-2.5817830">
        <ele>835.7</ele>
        <time>2019-11-01T08:29:10Z</time>
      </trkpt>
      <trkpt lat="38.3883550" lon="-2.5817510">
        <ele>835.7</ele>
        <time>2019-11-01T08:29:13Z</time>
      </trkpt>
      <trkpt lat="38.3882980" lon="-2.5817120">
        <ele>835.7</ele>
        <time>2019-11-01T08:29:17Z</time>
      </trkpt>
      <trkpt lat="38.3882370" lon="-2.5816780">
        <ele>835.7</ele>
        <time>2019-11-01T08:29:20Z</time>
      </trkpt>
      <trkpt lat="38.3881910" lon="-2.5816530">
        <ele>835.7</ele>
        <time>2019-11-01T08:29:22Z</time>
      </trkpt>
      <trkpt lat="38.3881110" lon="-2.5816030">
        <ele>835.7</ele>
        <time>2019-11-01T08:29:25Z</time>
      </trkpt>
      <trkpt lat="38.3880630" lon="-2.5815670">
        <ele>835.7</ele>
        <time>2019-11-01T08:29:27Z</time>
      </trkpt>
      <trkpt lat="38.3880190" lon="-2.5815350">
        <ele>835.7</ele>
        <time>2019-11-01T08:29:29Z</time>
      </trkpt>
      <trkpt lat="38.3879780" lon="-2.5815000">
        <ele>835.7</ele>
        <time>2019-11-01T08:29:31Z</time>
      </trkpt>
      <trkpt lat="38.3879190" lon="-2.5814600">
        <ele>835.7</ele>
        <time>2019-11-01T08:29:34Z</time>
      </trkpt>
      <trkpt lat="38.3878710" lon="-2.5814270">
        <ele>835.7</ele>
        <time>2019-11-01T08:29:37Z</time>
      </trkpt>
      <trkpt lat="38.3878170" lon="-2.5813890">
        <ele>836.9</ele>
        <time>2019-11-01T08:29:40Z</time>
      </trkpt>
      <trkpt lat="38.3877610" lon="-2.5813540">
        <ele>836.9</ele>
        <time>2019-11-01T08:29:43Z</time>
      </trkpt>
      <trkpt lat="38.3877070" lon="-2.5813120">
        <ele>836.9</ele>
        <time>2019-11-01T08:29:46Z</time>
      </trkpt>
      <trkpt lat="38.3876510" lon="-2.5812660">
        <ele>836.9</ele>
        <time>2019-11-01T08:29:49Z</time>
      </trkpt>
      <trkpt lat="38.3875920" lon="-2.5812240">
        <ele>836.9</ele>
        <time>2019-11-01T08:29:52Z</time>
      </trkpt>
      <trkpt lat="38.3875460" lon="-2.5811890">
        <ele>838.0</ele>
        <time>2019-11-01T08:29:55Z</time>
      </trkpt>
      <trkpt lat="38.3875050" lon="-2.5811560">
        <ele>838.0</ele>
        <time>2019-11-01T08:29:58Z</time>
      </trkpt>
      <trkpt lat="38.3874870" lon="-2.5811060">
        <ele>838.0</ele>
        <time>2019-11-01T08:30:02Z</time>
      </trkpt>
      <trkpt lat="38.3875200" lon="-2.5810330">
        <ele>838.0</ele>
        <time>2019-11-01T08:30:07Z</time>
      </trkpt>
      <trkpt lat="38.3875530" lon="-2.5809800">
        <ele>839.5</ele>
        <time>2019-11-01T08:30:10Z</time>
      </trkpt>
      <trkpt lat="38.3875810" lon="-2.5809250">
        <ele>840.8</ele>
        <time>2019-11-01T08:30:13Z</time>
      </trkpt>
      <trkpt lat="38.3876070" lon="-2.5808720">
        <ele>840.8</ele>
        <time>2019-11-01T08:30:16Z</time>
      </trkpt>
      <trkpt lat="38.3876510" lon="-2.5808030">
        <ele>840.8</ele>
        <time>2019-11-01T08:30:20Z</time>
      </trkpt>
      <trkpt lat="38.3876760" lon="-2.5807530">
        <ele>840.8</ele>
        <time>2019-11-01T08:30:23Z</time>
      </trkpt>
      <trkpt lat="38.3877220" lon="-2.5806940">
        <ele>840.8</ele>
        <time>2019-11-01T08:30:27Z</time>
      </trkpt>
      <trkpt lat="38.3877630" lon="-2.5806360">
        <ele>840.8</ele>
        <time>2019-11-01T08:30:31Z</time>
      </trkpt>
      <trkpt lat="38.3878070" lon="-2.5805650">
        <ele>842.2</ele>
        <time>2019-11-01T08:30:35Z</time>
      </trkpt>
      <trkpt lat="38.3878370" lon="-2.5805060">
        <ele>843.5</ele>
        <time>2019-11-01T08:30:38Z</time>
      </trkpt>
      <trkpt lat="38.3878550" lon="-2.5804520">
        <ele>843.5</ele>
        <time>2019-11-01T08:30:41Z</time>
      </trkpt>
      <trkpt lat="38.3878810" lon="-2.5803850">
        <ele>843.5</ele>
        <time>2019-11-01T08:30:45Z</time>
      </trkpt>
      <trkpt lat="38.3879010" lon="-2.5803310">
        <ele>843.5</ele>
        <time>2019-11-01T08:30:48Z</time>
      </trkpt>
      <trkpt lat="38.3879320" lon="-2.5802670">
        <ele>843.5</ele>
        <time>2019-11-01T08:30:52Z</time>
      </trkpt>
      <trkpt lat="38.3879630" lon="-2.5801990">
        <ele>843.5</ele>
        <time>2019-11-01T08:30:56Z</time>
      </trkpt>
      <trkpt lat="38.3879880" lon="-2.5801370">
        <ele>843.5</ele>
        <time>2019-11-01T08:31:00Z</time>
      </trkpt>
      <trkpt lat="38.3880320" lon="-2.5800760">
        <ele>843.5</ele>
        <time>2019-11-01T08:31:04Z</time>
      </trkpt>
      <trkpt lat="38.3880700" lon="-2.5800400">
        <ele>847.1</ele>
        <time>2019-11-01T08:31:07Z</time>
      </trkpt>
      <trkpt lat="38.3881040" lon="-2.5800070">
        <ele>850.6</ele>
        <time>2019-11-01T08:31:10Z</time>
      </trkpt>
      <trkpt lat="38.3881500" lon="-2.5799650">
        <ele>850.6</ele>
        <time>2019-11-01T08:31:14Z</time>
      </trkpt>
      <trkpt lat="38.3881910" lon="-2.5799210">
        <ele>851.8</ele>
        <time>2019-11-01T08:31:18Z</time>
      </trkpt>
      <trkpt lat="38.3882340" lon="-2.5798740">
        <ele>851.8</ele>
        <time>2019-11-01T08:31:22Z</time>
      </trkpt>
      <trkpt lat="38.3882500" lon="-2.5798010">
        <ele>851.8</ele>
        <time>2019-11-01T08:31:26Z</time>
      </trkpt>
      <trkpt lat="38.3882340" lon="-2.5797250">
        <ele>851.8</ele>
        <time>2019-11-01T08:31:30Z</time>
      </trkpt>
      <trkpt lat="38.3882060" lon="-2.5796660">
        <ele>851.8</ele>
        <time>2019-11-01T08:31:33Z</time>
      </trkpt>
      <trkpt lat="38.3881750" lon="-2.5796040">
        <ele>853.1</ele>
        <time>2019-11-01T08:31:36Z</time>
      </trkpt>
      <trkpt lat="38.3881520" lon="-2.5795400">
        <ele>853.1</ele>
        <time>2019-11-01T08:31:39Z</time>
      </trkpt>
      <trkpt lat="38.3881340" lon="-2.5794790">
        <ele>857.2</ele>
        <time>2019-11-01T08:31:42Z</time>
      </trkpt>
      <trkpt lat="38.3881140" lon="-2.5794160">
        <ele>858.8</ele>
        <time>2019-11-01T08:31:45Z</time>
      </trkpt>
      <trkpt lat="38.3880880" lon="-2.5793510">
        <ele>858.8</ele>
        <time>2019-11-01T08:31:48Z</time>
      </trkpt>
      <trkpt lat="38.3880650" lon="-2.5792870">
        <ele>858.8</ele>
        <time>2019-11-01T08:31:51Z</time>
      </trkpt>
      <trkpt lat="38.3880350" lon="-2.5792160">
        <ele>858.8</ele>
        <time>2019-11-01T08:31:54Z</time>
      </trkpt>
      <trkpt lat="38.3880010" lon="-2.5791470">
        <ele>858.8</ele>
        <time>2019-11-01T08:31:57Z</time>
      </trkpt>
      <trkpt lat="38.3879580" lon="-2.5790810">
        <ele>858.8</ele>
        <time>2019-11-01T08:32:00Z</time>
      </trkpt>
      <trkpt lat="38.3879170" lon="-2.5790060">
        <ele>858.8</ele>
        <time>2019-11-01T08:32:03Z</time>
      </trkpt>
      <trkpt lat="38.3878810" lon="-2.5789320">
        <ele>858.8</ele>
        <time>2019-11-01T08:32:06Z</time>
      </trkpt>
      <trkpt lat="38.3878400" lon="-2.5788570">
        <ele>858.8</ele>
        <time>2019-11-01T08:32:09Z</time>
      </trkpt>
      <trkpt lat="38.3878140" lon="-2.5788060">
        <ele>860.0</ele>
        <time>2019-11-01T08:32:11Z</time>
      </trkpt>
      <trkpt lat="38.3877710" lon="-2.5787350">
        <ele>860.0</ele>
        <time>2019-11-01T08:32:14Z</time>
      </trkpt>
      <trkpt lat="38.3877250" lon="-2.5786610">
        <ele>860.0</ele>
        <time>2019-11-01T08:32:17Z</time>
      </trkpt>
      <trkpt lat="38.3876840" lon="-2.5785870">
        <ele>860.0</ele>
        <time>2019-11-01T08:32:20Z</time>
      </trkpt>
      <trkpt lat="38.3876380" lon="-2.5785180">
        <ele>860.0</ele>
        <time>2019-11-01T08:32:23Z</time>
      </trkpt>
      <trkpt lat="38.3875970" lon="-2.5784480">
        <ele>860.0</ele>
        <time>2019-11-01T08:32:26Z</time>
      </trkpt>
      <trkpt lat="38.3875510" lon="-2.5783750">
        <ele>860.0</ele>
        <time>2019-11-01T08:32:29Z</time>
      </trkpt>
      <trkpt lat="38.3875000" lon="-2.5782990">
        <ele>860.0</ele>
        <time>2019-11-01T08:32:32Z</time>
      </trkpt>
      <trkpt lat="38.3874660" lon="-2.5782470">
        <ele>860.0</ele>
        <time>2019-11-01T08:32:34Z</time>
      </trkpt>
      <trkpt lat="38.3874360" lon="-2.5781890">
        <ele>860.0</ele>
        <time>2019-11-01T08:32:36Z</time>
      </trkpt>
      <trkpt lat="38.3874050" lon="-2.5781280">
        <ele>860.0</ele>
        <time>2019-11-01T08:32:38Z</time>
      </trkpt>
      <trkpt lat="38.3873740" lon="-2.5780670">
        <ele>860.0</ele>
        <time>2019-11-01T08:32:40Z</time>
      </trkpt>
      <trkpt lat="38.3873480" lon="-2.5780040">
        <ele>861.1</ele>
        <time>2019-11-01T08:32:42Z</time>
      </trkpt>
      <trkpt lat="38.3873200" lon="-2.5779400">
        <ele>861.1</ele>
        <time>2019-11-01T08:32:44Z</time>
      </trkpt>
      <trkpt lat="38.3873000" lon="-2.5778710">
        <ele>861.1</ele>
        <time>2019-11-01T08:32:46Z</time>
      </trkpt>
      <trkpt lat="38.3872770" lon="-2.5777960">
        <ele>861.1</ele>
        <time>2019-11-01T08:32:48Z</time>
      </trkpt>
      <trkpt lat="38.3872640" lon="-2.5777200">
        <ele>861.1</ele>
        <time>2019-11-01T08:32:50Z</time>
      </trkpt>
      <trkpt lat="38.3872540" lon="-2.5776450">
        <ele>861.1</ele>
        <time>2019-11-01T08:32:52Z</time>
      </trkpt>
      <trkpt lat="38.3872490" lon="-2.5775730">
        <ele>861.1</ele>
        <time>2019-11-01T08:32:54Z</time>
      </trkpt>
      <trkpt lat="38.3872490" lon="-2.5774960">
        <ele>861.1</ele>
        <time>2019-11-01T08:32:56Z</time>
      </trkpt>
      <trkpt lat="38.3872490" lon="-2.5774220">
        <ele>861.1</ele>
        <time>2019-11-01T08:32:58Z</time>
      </trkpt>
      <trkpt lat="38.3872490" lon="-2.5773430">
        <ele>862.3</ele>
        <time>2019-11-01T08:33:00Z</time>
      </trkpt>
      <trkpt lat="38.3872490" lon="-2.5772680">
        <ele>862.3</ele>
        <time>2019-11-01T08:33:02Z</time>
      </trkpt>
      <trkpt lat="38.3872540" lon="-2.5771910">
        <ele>862.3</ele>
        <time>2019-11-01T08:33:04Z</time>
      </trkpt>
      <trkpt lat="38.3872560" lon="-2.5771150">
        <ele>862.3</ele>
        <time>2019-11-01T08:33:06Z</time>
      </trkpt>
      <trkpt lat="38.3872640" lon="-2.5770390">
        <ele>862.3</ele>
        <time>2019-11-01T08:33:08Z</time>
      </trkpt>
      <trkpt lat="38.3872690" lon="-2.5769670">
        <ele>862.3</ele>
        <time>2019-11-01T08:33:10Z</time>
      </trkpt>
      <trkpt lat="38.3872770" lon="-2.5768910">
        <ele>862.3</ele>
        <time>2019-11-01T08:33:12Z</time>
      </trkpt>
      <trkpt lat="38.3872840" lon="-2.5767730">
        <ele>862.3</ele>
        <time>2019-11-01T08:33:15Z</time>
      </trkpt>
      <trkpt lat="38.3872920" lon="-2.5766600">
        <ele>863.5</ele>
        <time>2019-11-01T08:33:18Z</time>
      </trkpt>
      <trkpt lat="38.3873000" lon="-2.5765850">
        <ele>863.5</ele>
        <time>2019-11-01T08:33:20Z</time>
      </trkpt>
      <trkpt lat="38.3873100" lon="-2.5765120">
        <ele>863.5</ele>
        <time>2019-11-01T08:33:22Z</time>
      </trkpt>
      <trkpt lat="38.3873330" lon="-2.5764410">
        <ele>863.5</ele>
        <time>2019-11-01T08:33:24Z</time>
      </trkpt>
      <trkpt lat="38.3873560" lon="-2.5763730">
        <ele>863.5</ele>
        <time>2019-11-01T08:33:26Z</time>
      </trkpt>
      <trkpt lat="38.3873820" lon="-2.5763050">
        <ele>863.5</ele>
        <time>2019-11-01T08:33:28Z</time>
      </trkpt>
      <trkpt lat="38.3874050" lon="-2.5762380">
        <ele>863.5</ele>
        <time>2019-11-01T08:33:30Z</time>
      </trkpt>
      <trkpt lat="38.3874250" lon="-2.5761690">
        <ele>863.5</ele>
        <time>2019-11-01T08:33:32Z</time>
      </trkpt>
      <trkpt lat="38.3874410" lon="-2.5760990">
        <ele>863.5</ele>
        <time>2019-11-01T08:33:34Z</time>
      </trkpt>
      <trkpt lat="38.3874480" lon="-2.5760290">
        <ele>863.5</ele>
        <time>2019-11-01T08:33:36Z</time>
      </trkpt>
      <trkpt lat="38.3874430" lon="-2.5759610">
        <ele>863.5</ele>
        <time>2019-11-01T08:33:38Z</time>
      </trkpt>
      <trkpt lat="38.3874330" lon="-2.5758980">
        <ele>863.5</ele>
        <time>2019-11-01T08:33:40Z</time>
      </trkpt>
      <trkpt lat="38.3874020" lon="-2.5758170">
        <ele>866.2</ele>
        <time>2019-11-01T08:33:43Z</time>
      </trkpt>
      <trkpt lat="38.3873740" lon="-2.5757670">
        <ele>866.2</ele>
        <time>2019-11-01T08:33:45Z</time>
      </trkpt>
      <trkpt lat="38.3873360" lon="-2.5756940">
        <ele>867.4</ele>
        <time>2019-11-01T08:33:48Z</time>
      </trkpt>
      <trkpt lat="38.3873000" lon="-2.5756180">
        <ele>867.4</ele>
        <time>2019-11-01T08:33:51Z</time>
      </trkpt>
      <trkpt lat="38.3872770" lon="-2.5755670">
        <ele>867.4</ele>
        <time>2019-11-01T08:33:53Z</time>
      </trkpt>
      <trkpt lat="38.3872380" lon="-2.5754890">
        <ele>867.4</ele>
        <time>2019-11-01T08:33:56Z</time>
      </trkpt>
      <trkpt lat="38.3872150" lon="-2.5754360">
        <ele>867.4</ele>
        <time>2019-11-01T08:33:58Z</time>
      </trkpt>
      <trkpt lat="38.3871770" lon="-2.5753590">
        <ele>867.4</ele>
        <time>2019-11-01T08:34:01Z</time>
      </trkpt>
      <trkpt lat="38.3871410" lon="-2.5752800">
        <ele>867.4</ele>
        <time>2019-11-01T08:34:04Z</time>
      </trkpt>
      <trkpt lat="38.3871100" lon="-2.5752030">
        <ele>867.4</ele>
        <time>2019-11-01T08:34:07Z</time>
      </trkpt>
      <trkpt lat="38.3870820" lon="-2.5751230">
        <ele>867.4</ele>
        <time>2019-11-01T08:34:10Z</time>
      </trkpt>
      <trkpt lat="38.3870520" lon="-2.5750430">
        <ele>867.4</ele>
        <time>2019-11-01T08:34:13Z</time>
      </trkpt>
      <trkpt lat="38.3870360" lon="-2.5749680">
        <ele>867.4</ele>
        <time>2019-11-01T08:34:16Z</time>
      </trkpt>
      <trkpt lat="38.3870310" lon="-2.5748870">
        <ele>867.4</ele>
        <time>2019-11-01T08:34:19Z</time>
      </trkpt>
      <trkpt lat="38.3870310" lon="-2.5748040">
        <ele>867.4</ele>
        <time>2019-11-01T08:34:22Z</time>
      </trkpt>
      <trkpt lat="38.3870310" lon="-2.5747200">
        <ele>867.4</ele>
        <time>2019-11-01T08:34:25Z</time>
      </trkpt>
      <trkpt lat="38.3870390" lon="-2.5746370">
        <ele>867.4</ele>
        <time>2019-11-01T08:34:28Z</time>
      </trkpt>
      <trkpt lat="38.3870440" lon="-2.5745530">
        <ele>869.0</ele>
        <time>2019-11-01T08:34:31Z</time>
      </trkpt>
      <trkpt lat="38.3870460" lon="-2.5744700">
        <ele>870.4</ele>
        <time>2019-11-01T08:34:34Z</time>
      </trkpt>
      <trkpt lat="38.3870460" lon="-2.5743930">
        <ele>871.9</ele>
        <time>2019-11-01T08:34:37Z</time>
      </trkpt>
      <trkpt lat="38.3870440" lon="-2.5743170">
        <ele>871.9</ele>
        <time>2019-11-01T08:34:40Z</time>
      </trkpt>
      <trkpt lat="38.3870390" lon="-2.5742390">
        <ele>871.9</ele>
        <time>2019-11-01T08:34:43Z</time>
      </trkpt>
      <trkpt lat="38.3870230" lon="-2.5741670">
        <ele>871.9</ele>
        <time>2019-11-01T08:34:46Z</time>
      </trkpt>
      <trkpt lat="38.3870080" lon="-2.5740980">
        <ele>871.9</ele>
        <time>2019-11-01T08:34:49Z</time>
      </trkpt>
      <trkpt lat="38.3869770" lon="-2.5740320">
        <ele>873.1</ele>
        <time>2019-11-01T08:34:52Z</time>
      </trkpt>
      <trkpt lat="38.3869440" lon="-2.5739730">
        <ele>873.1</ele>
        <time>2019-11-01T08:34:55Z</time>
      </trkpt>
      <trkpt lat="38.3869160" lon="-2.5739150">
        <ele>874.3</ele>
        <time>2019-11-01T08:34:58Z</time>
      </trkpt>
      <trkpt lat="38.3868950" lon="-2.5738600">
        <ele>874.3</ele>
        <time>2019-11-01T08:35:01Z</time>
      </trkpt>
      <trkpt lat="38.3868650" lon="-2.5737860">
        <ele>874.3</ele>
        <time>2019-11-01T08:35:05Z</time>
      </trkpt>
      <trkpt lat="38.3868490" lon="-2.5737260">
        <ele>875.7</ele>
        <time>2019-11-01T08:35:08Z</time>
      </trkpt>
      <trkpt lat="38.3868360" lon="-2.5736560">
        <ele>877.0</ele>
        <time>2019-11-01T08:35:11Z</time>
      </trkpt>
      <trkpt lat="38.3868340" lon="-2.5735820">
        <ele>877.0</ele>
        <time>2019-11-01T08:35:14Z</time>
      </trkpt>
      <trkpt lat="38.3868360" lon="-2.5735070">
        <ele>877.0</ele>
        <time>2019-11-01T08:35:17Z</time>
      </trkpt>
      <trkpt lat="38.3868520" lon="-2.5734400">
        <ele>877.0</ele>
        <time>2019-11-01T08:35:20Z</time>
      </trkpt>
      <trkpt lat="38.3868830" lon="-2.5733820">
        <ele>877.0</ele>
        <time>2019-11-01T08:35:23Z</time>
      </trkpt>
      <trkpt lat="38.3869240" lon="-2.5733450">
        <ele>878.1</ele>
        <time>2019-11-01T08:35:26Z</time>
      </trkpt>
      <trkpt lat="38.3869820" lon="-2.5733410">
        <ele>879.4</ele>
        <time>2019-11-01T08:35:30Z</time>
      </trkpt>
      <trkpt lat="38.3870310" lon="-2.5733730">
        <ele>881.0</ele>
        <time>2019-11-01T08:35:33Z</time>
      </trkpt>
      <trkpt lat="38.3870750" lon="-2.5734240">
        <ele>881.0</ele>
        <time>2019-11-01T08:35:36Z</time>
      </trkpt>
      <trkpt lat="38.3871160" lon="-2.5734830">
        <ele>881.0</ele>
        <time>2019-11-01T08:35:39Z</time>
      </trkpt>
      <trkpt lat="38.3871690" lon="-2.5735320">
        <ele>881.0</ele>
        <time>2019-11-01T08:35:42Z</time>
      </trkpt>
      <trkpt lat="38.3872260" lon="-2.5735690">
        <ele>881.0</ele>
        <time>2019-11-01T08:35:45Z</time>
      </trkpt>
      <trkpt lat="38.3872950" lon="-2.5735900">
        <ele>881.0</ele>
        <time>2019-11-01T08:35:48Z</time>
      </trkpt>
      <trkpt lat="38.3873660" lon="-2.5736000">
        <ele>881.0</ele>
        <time>2019-11-01T08:35:51Z</time>
      </trkpt>
      <trkpt lat="38.3874410" lon="-2.5736060">
        <ele>881.0</ele>
        <time>2019-11-01T08:35:54Z</time>
      </trkpt>
      <trkpt lat="38.3875070" lon="-2.5736140">
        <ele>881.0</ele>
        <time>2019-11-01T08:35:57Z</time>
      </trkpt>
      <trkpt lat="38.3875740" lon="-2.5736160">
        <ele>881.0</ele>
        <time>2019-11-01T08:36:00Z</time>
      </trkpt>
      <trkpt lat="38.3876430" lon="-2.5736180">
        <ele>881.0</ele>
        <time>2019-11-01T08:36:03Z</time>
      </trkpt>
      <trkpt lat="38.3877020" lon="-2.5736210">
        <ele>881.0</ele>
        <time>2019-11-01T08:36:06Z</time>
      </trkpt>
      <trkpt lat="38.3877630" lon="-2.5736280">
        <ele>881.0</ele>
        <time>2019-11-01T08:36:09Z</time>
      </trkpt>
      <trkpt lat="38.3878250" lon="-2.5736460">
        <ele>881.0</ele>
        <time>2019-11-01T08:36:12Z</time>
      </trkpt>
      <trkpt lat="38.3878810" lon="-2.5736820">
        <ele>881.0</ele>
        <time>2019-11-01T08:36:15Z</time>
      </trkpt>
      <trkpt lat="38.3879270" lon="-2.5737330">
        <ele>881.0</ele>
        <time>2019-11-01T08:36:18Z</time>
      </trkpt>
      <trkpt lat="38.3879580" lon="-2.5737920">
        <ele>881.0</ele>
        <time>2019-11-01T08:36:21Z</time>
      </trkpt>
      <trkpt lat="38.3879780" lon="-2.5738640">
        <ele>881.0</ele>
        <time>2019-11-01T08:36:24Z</time>
      </trkpt>
      <trkpt lat="38.3879810" lon="-2.5739420">
        <ele>881.0</ele>
        <time>2019-11-01T08:36:27Z</time>
      </trkpt>
      <trkpt lat="38.3879780" lon="-2.5740210">
        <ele>881.0</ele>
        <time>2019-11-01T08:36:30Z</time>
      </trkpt>
      <trkpt lat="38.3879710" lon="-2.5740990">
        <ele>881.0</ele>
        <time>2019-11-01T08:36:33Z</time>
      </trkpt>
      <trkpt lat="38.3879650" lon="-2.5741540">
        <ele>888.5</ele>
        <time>2019-11-01T08:36:35Z</time>
      </trkpt>
      <trkpt lat="38.3879650" lon="-2.5742330">
        <ele>888.5</ele>
        <time>2019-11-01T08:36:38Z</time>
      </trkpt>
      <trkpt lat="38.3879810" lon="-2.5743060">
        <ele>888.5</ele>
        <time>2019-11-01T08:36:41Z</time>
      </trkpt>
      <trkpt lat="38.3880090" lon="-2.5743740">
        <ele>888.5</ele>
        <time>2019-11-01T08:36:44Z</time>
      </trkpt>
      <trkpt lat="38.3880500" lon="-2.5744320">
        <ele>888.5</ele>
        <time>2019-11-01T08:36:47Z</time>
      </trkpt>
      <trkpt lat="38.3880960" lon="-2.5744810">
        <ele>888.5</ele>
        <time>2019-11-01T08:36:50Z</time>
      </trkpt>
      <trkpt lat="38.3881500" lon="-2.5745130">
        <ele>890.5</ele>
        <time>2019-11-01T08:36:53Z</time>
      </trkpt>
      <trkpt lat="38.3881980" lon="-2.5745410">
        <ele>890.5</ele>
        <time>2019-11-01T08:36:56Z</time>
      </trkpt>
      <trkpt lat="38.3882500" lon="-2.5745720">
        <ele>890.5</ele>
        <time>2019-11-01T08:36:59Z</time>
      </trkpt>
      <trkpt lat="38.3883010" lon="-2.5746020">
        <ele>890.5</ele>
        <time>2019-11-01T08:37:02Z</time>
      </trkpt>
      <trkpt lat="38.3883520" lon="-2.5746300">
        <ele>890.5</ele>
        <time>2019-11-01T08:37:05Z</time>
      </trkpt>
      <trkpt lat="38.3884080" lon="-2.5746550">
        <ele>890.5</ele>
        <time>2019-11-01T08:37:08Z</time>
      </trkpt>
      <trkpt lat="38.3884650" lon="-2.5746760">
        <ele>890.5</ele>
        <time>2019-11-01T08:37:11Z</time>
      </trkpt>
      <trkpt lat="38.3885260" lon="-2.5746870">
        <ele>893.1</ele>
        <time>2019-11-01T08:37:14Z</time>
      </trkpt>
      <trkpt lat="38.3885700" lon="-2.5746850">
        <ele>893.1</ele>
        <time>2019-11-01T08:37:16Z</time>
      </trkpt>
      <trkpt lat="38.3886260" lon="-2.5746590">
        <ele>893.1</ele>
        <time>2019-11-01T08:37:19Z</time>
      </trkpt>
      <trkpt lat="38.3886720" lon="-2.5746100">
        <ele>893.1</ele>
        <time>2019-11-01T08:37:22Z</time>
      </trkpt>
      <trkpt lat="38.3886980" lon="-2.5745450">
        <ele>893.1</ele>
        <time>2019-11-01T08:37:25Z</time>
      </trkpt>
      <trkpt lat="38.3887050" lon="-2.5744690">
        <ele>893.1</ele>
        <time>2019-11-01T08:37:28Z</time>
      </trkpt>
      <trkpt lat="38.3886870" lon="-2.5744020">
        <ele>893.1</ele>
        <time>2019-11-01T08:37:31Z</time>
      </trkpt>
      <trkpt lat="38.3886570" lon="-2.5743430">
        <ele>895.2</ele>
        <time>2019-11-01T08:37:34Z</time>
      </trkpt>
      <trkpt lat="38.3886230" lon="-2.5742840">
        <ele>895.2</ele>
        <time>2019-11-01T08:37:37Z</time>
      </trkpt>
      <trkpt lat="38.3885880" lon="-2.5742210">
        <ele>895.2</ele>
        <time>2019-11-01T08:37:40Z</time>
      </trkpt>
      <trkpt lat="38.3885700" lon="-2.5741500">
        <ele>895.2</ele>
        <time>2019-11-01T08:37:43Z</time>
      </trkpt>
      <trkpt lat="38.3885770" lon="-2.5740790">
        <ele>895.2</ele>
        <time>2019-11-01T08:37:46Z</time>
      </trkpt>
      <trkpt lat="38.3886030" lon="-2.5740250">
        <ele>895.2</ele>
        <time>2019-11-01T08:37:49Z</time>
      </trkpt>
      <trkpt lat="38.3886540" lon="-2.5739980">
        <ele>897.2</ele>
        <time>2019-11-01T08:37:52Z</time>
      </trkpt>
      <trkpt lat="38.3887050" lon="-2.5740010">
        <ele>897.2</ele>
        <time>2019-11-01T08:37:55Z</time>
      </trkpt>
      <trkpt lat="38.3887640" lon="-2.5740220">
        <ele>897.2</ele>
        <time>2019-11-01T08:37:58Z</time>
      </trkpt>
      <trkpt lat="38.3888260" lon="-2.5740510">
        <ele>897.2</ele>
        <time>2019-11-01T08:38:01Z</time>
      </trkpt>
      <trkpt lat="38.3888820" lon="-2.5740870">
        <ele>897.2</ele>
        <time>2019-11-01T08:38:04Z</time>
      </trkpt>
      <trkpt lat="38.3889430" lon="-2.5741250">
        <ele>897.2</ele>
        <time>2019-11-01T08:38:07Z</time>
      </trkpt>
      <trkpt lat="38.3890070" lon="-2.5741580">
        <ele>899.3</ele>
        <time>2019-11-01T08:38:10Z</time>
      </trkpt>
      <trkpt lat="38.3890640" lon="-2.5741860">
        <ele>899.3</ele>
        <time>2019-11-01T08:38:13Z</time>
      </trkpt>
      <trkpt lat="38.3891230" lon="-2.5742170">
        <ele>899.3</ele>
        <time>2019-11-01T08:38:16Z</time>
      </trkpt>
      <trkpt lat="38.3891920" lon="-2.5742350">
        <ele>899.3</ele>
        <time>2019-11-01T08:38:20Z</time>
      </trkpt>
      <trkpt lat="38.3892740" lon="-2.5742180">
        <ele>901.3</ele>
        <time>2019-11-01T08:38:25Z</time>
      </trkpt>
      <trkpt lat="38.3893250" lon="-2.5741680">
        <ele>901.3</ele>
        <time>2019-11-01T08:38:28Z</time>
      </trkpt>
      <trkpt lat="38.3893430" lon="-2.5740970">
        <ele>901.3</ele>
        <time>2019-11-01T08:38:31Z</time>
      </trkpt>
      <trkpt lat="38.3893250" lon="-2.5740280">
        <ele>901.3</ele>
        <time>2019-11-01T08:38:34Z</time>
      </trkpt>
      <trkpt lat="38.3892860" lon="-2.5739800">
        <ele>901.3</ele>
        <time>2019-11-01T08:38:37Z</time>
      </trkpt>
      <trkpt lat="38.3892350" lon="-2.5739430">
        <ele>903.4</ele>
        <time>2019-11-01T08:38:40Z</time>
      </trkpt>
      <trkpt lat="38.3891840" lon="-2.5739080">
        <ele>903.4</ele>
        <time>2019-11-01T08:38:43Z</time>
      </trkpt>
      <trkpt lat="38.3891250" lon="-2.5738730">
        <ele>903.4</ele>
        <time>2019-11-01T08:38:46Z</time>
      </trkpt>
      <trkpt lat="38.3890760" lon="-2.5738410">
        <ele>903.4</ele>
        <time>2019-11-01T08:38:49Z</time>
      </trkpt>
      <trkpt lat="38.3890300" lon="-2.5737920">
        <ele>905.5</ele>
        <time>2019-11-01T08:38:52Z</time>
      </trkpt>
      <trkpt lat="38.3889970" lon="-2.5737330">
        <ele>905.5</ele>
        <time>2019-11-01T08:38:55Z</time>
      </trkpt>
      <trkpt lat="38.3889740" lon="-2.5736690">
        <ele>905.5</ele>
        <time>2019-11-01T08:38:58Z</time>
      </trkpt>
      <trkpt lat="38.3889610" lon="-2.5735960">
        <ele>905.5</ele>
        <time>2019-11-01T08:39:01Z</time>
      </trkpt>
      <trkpt lat="38.3889540" lon="-2.5735080">
        <ele>905.5</ele>
        <time>2019-11-01T08:39:04Z</time>
      </trkpt>
      <trkpt lat="38.3889540" lon="-2.5734180">
        <ele>907.6</ele>
        <time>2019-11-01T08:39:07Z</time>
      </trkpt>
      <trkpt lat="38.3889590" lon="-2.5733630">
        <ele>907.6</ele>
        <time>2019-11-01T08:39:09Z</time>
      </trkpt>
      <trkpt lat="38.3889740" lon="-2.5732790">
        <ele>907.6</ele>
        <time>2019-11-01T08:39:12Z</time>
      </trkpt>
      <trkpt lat="38.3889920" lon="-2.5732020">
        <ele>907.6</ele>
        <time>2019-11-01T08:39:15Z</time>
      </trkpt>
      <trkpt lat="38.3890150" lon="-2.5731260">
        <ele>907.6</ele>
        <time>2019-11-01T08:39:18Z</time>
      </trkpt>
      <trkpt lat="38.3890380" lon="-2.5730440">
        <ele>907.6</ele>
        <time>2019-11-01T08:39:21Z</time>
      </trkpt>
      <trkpt lat="38.3890530" lon="-2.5729860">
        <ele>909.9</ele>
        <time>2019-11-01T08:39:23Z</time>
      </trkpt>
      <trkpt lat="38.3890640" lon="-2.5729050">
        <ele>909.9</ele>
        <time>2019-11-01T08:39:26Z</time>
      </trkpt>
      <trkpt lat="38.3890560" lon="-2.5728250">
        <ele>909.9</ele>
        <time>2019-11-01T08:39:29Z</time>
      </trkpt>
      <trkpt lat="38.3890300" lon="-2.5727620">
        <ele>909.9</ele>
        <time>2019-11-01T08:39:32Z</time>
      </trkpt>
      <trkpt lat="38.3889970" lon="-2.5727160">
        <ele>909.9</ele>
        <time>2019-11-01T08:39:35Z</time>
      </trkpt>
      <trkpt lat="38.3889590" lon="-2.5726710">
        <ele>912.5</ele>
        <time>2019-11-01T08:39:38Z</time>
      </trkpt>
      <trkpt lat="38.3889200" lon="-2.5726290">
        <ele>912.5</ele>
        <time>2019-11-01T08:39:41Z</time>
      </trkpt>
      <trkpt lat="38.3888820" lon="-2.5725940">
        <ele>912.5</ele>
        <time>2019-11-01T08:39:44Z</time>
      </trkpt>
      <trkpt lat="38.3888200" lon="-2.5725510">
        <ele>912.5</ele>
        <time>2019-11-01T08:39:48Z</time>
      </trkpt>
      <trkpt lat="38.3887720" lon="-2.5725160">
        <ele>912.5</ele>
        <time>2019-11-01T08:39:51Z</time>
      </trkpt>
      <trkpt lat="38.3887180" lon="-2.5724760">
        <ele>914.9</ele>
        <time>2019-11-01T08:39:54Z</time>
      </trkpt>
      <trkpt lat="38.3886820" lon="-2.5724490">
        <ele>914.9</ele>
        <time>2019-11-01T08:39:56Z</time>
      </trkpt>
      <trkpt lat="38.3886310" lon="-2.5724060">
        <ele>914.9</ele>
        <time>2019-11-01T08:39:59Z</time>
      </trkpt>
      <trkpt lat="38.3885770" lon="-2.5723610">
        <ele>914.9</ele>
        <time>2019-11-01T08:40:02Z</time>
      </trkpt>
      <trkpt lat="38.3885180" lon="-2.5723240">
        <ele>914.9</ele>
        <time>2019-11-01T08:40:05Z</time>
      </trkpt>
      <trkpt lat="38.3884620" lon="-2.5722890">
        <ele>914.9</ele>
        <time>2019-11-01T08:40:08Z</time>
      </trkpt>
      <trkpt lat="38.3884010" lon="-2.5722520">
        <ele>917.7</ele>
        <time>2019-11-01T08:40:11Z</time>
      </trkpt>
      <trkpt lat="38.3883390" lon="-2.5722250">
        <ele>917.7</ele>
        <time>2019-11-01T08:40:14Z</time>
      </trkpt>
      <trkpt lat="38.3882830" lon="-2.5722080">
        <ele>917.7</ele>
        <time>2019-11-01T08:40:17Z</time>
      </trkpt>
      <trkpt lat="38.3882210" lon="-2.5721870">
        <ele>917.7</ele>
        <time>2019-11-01T08:40:20Z</time>
      </trkpt>
      <trkpt lat="38.3881600" lon="-2.5721610">
        <ele>917.7</ele>
        <time>2019-11-01T08:40:23Z</time>
      </trkpt>
      <trkpt lat="38.3881040" lon="-2.5721250">
        <ele>920.5</ele>
        <time>2019-11-01T08:40:26Z</time>
      </trkpt>
      <trkpt lat="38.3880700" lon="-2.5720990">
        <ele>920.5</ele>
        <time>2019-11-01T08:40:28Z</time>
      </trkpt>
      <trkpt lat="38.3880120" lon="-2.5720600">
        <ele>920.5</ele>
        <time>2019-11-01T08:40:31Z</time>
      </trkpt>
      <trkpt lat="38.3879630" lon="-2.5720270">
        <ele>920.5</ele>
        <time>2019-11-01T08:40:34Z</time>
      </trkpt>
      <trkpt lat="38.3879170" lon="-2.5719850">
        <ele>920.5</ele>
        <time>2019-11-01T08:40:37Z</time>
      </trkpt>
      <trkpt lat="38.3878710" lon="-2.5719300">
        <ele>920.5</ele>
        <time>2019-11-01T08:40:40Z</time>
      </trkpt>
      <trkpt lat="38.3878250" lon="-2.5718810">
        <ele>923.6</ele>
        <time>2019-11-01T08:40:43Z</time>
      </trkpt>
      <trkpt lat="38.3877760" lon="-2.5718220">
        <ele>923.6</ele>
        <time>2019-11-01T08:40:46Z</time>
      </trkpt>
      <trkpt lat="38.3877300" lon="-2.5717630">
        <ele>923.6</ele>
        <time>2019-11-01T08:40:49Z</time>
      </trkpt>
      <trkpt lat="38.3876890" lon="-2.5716940">
        <ele>923.6</ele>
        <time>2019-11-01T08:40:52Z</time>
      </trkpt>
      <trkpt lat="38.3876660" lon="-2.5716220">
        <ele>923.6</ele>
        <time>2019-11-01T08:40:55Z</time>
      </trkpt>
      <trkpt lat="38.3876450" lon="-2.5715490">
        <ele>926.3</ele>
        <time>2019-11-01T08:40:58Z</time>
      </trkpt>
      <trkpt lat="38.3876350" lon="-2.5715010">
        <ele>926.3</ele>
        <time>2019-11-01T08:41:00Z</time>
      </trkpt>
      <trkpt lat="38.3876220" lon="-2.5714190">
        <ele>926.3</ele>
        <time>2019-11-01T08:41:03Z</time>
      </trkpt>
      <trkpt lat="38.3876150" lon="-2.5713410">
        <ele>926.3</ele>
        <time>2019-11-01T08:41:06Z</time>
      </trkpt>
      <trkpt lat="38.3876120" lon="-2.5712760">
        <ele>926.3</ele>
        <time>2019-11-01T08:41:09Z</time>
      </trkpt>
      <trkpt lat="38.3876070" lon="-2.5712120">
        <ele>926.3</ele>
        <time>2019-11-01T08:41:12Z</time>
      </trkpt>
      <trkpt lat="38.3876120" lon="-2.5711400">
        <ele>929.0</ele>
        <time>2019-11-01T08:41:15Z</time>
      </trkpt>
      <trkpt lat="38.3876120" lon="-2.5710650">
        <ele>929.0</ele>
        <time>2019-11-01T08:41:18Z</time>
      </trkpt>
      <trkpt lat="38.3876120" lon="-2.5709930">
        <ele>929.0</ele>
        <time>2019-11-01T08:41:21Z</time>
      </trkpt>
      <trkpt lat="38.3876150" lon="-2.5709180">
        <ele>929.0</ele>
        <time>2019-11-01T08:41:24Z</time>
      </trkpt>
      <trkpt lat="38.3876150" lon="-2.5708380">
        <ele>929.0</ele>
        <time>2019-11-01T08:41:27Z</time>
      </trkpt>
      <trkpt lat="38.3876200" lon="-2.5707620">
        <ele>931.6</ele>
        <time>2019-11-01T08:41:30Z</time>
      </trkpt>
      <trkpt lat="38.3876120" lon="-2.5706860">
        <ele>931.6</ele>
        <time>2019-11-01T08:41:33Z</time>
      </trkpt>
      <trkpt lat="38.3875990" lon="-2.5706180">
        <ele>931.6</ele>
        <time>2019-11-01T08:41:36Z</time>
      </trkpt>
      <trkpt lat="38.3875890" lon="-2.5705470">
        <ele>931.6</ele>
        <time>2019-11-01T08:41:39Z</time>
      </trkpt>
      <trkpt lat="38.3875760" lon="-2.5704740">
        <ele>931.6</ele>
        <time>2019-11-01T08:41:42Z</time>
      </trkpt>
      <trkpt lat="38.3875690" lon="-2.5704050">
        <ele>931.6</ele>
        <time>2019-11-01T08:41:45Z</time>
      </trkpt>
      <trkpt lat="38.3875580" lon="-2.5703370">
        <ele>934.2</ele>
        <time>2019-11-01T08:41:48Z</time>
      </trkpt>
      <trkpt lat="38.3875510" lon="-2.5702710">
        <ele>934.2</ele>
        <time>2019-11-01T08:41:51Z</time>
      </trkpt>
      <trkpt lat="38.3875380" lon="-2.5702070">
        <ele>934.2</ele>
        <time>2019-11-01T08:41:54Z</time>
      </trkpt>
      <trkpt lat="38.3875280" lon="-2.5701200">
        <ele>934.2</ele>
        <time>2019-11-01T08:41:58Z</time>
      </trkpt>
      <trkpt lat="38.3875200" lon="-2.5700500">
        <ele>934.2</ele>
        <time>2019-11-01T08:42:01Z</time>
      </trkpt>
      <trkpt lat="38.3875120" lon="-2.5700050">
        <ele>936.7</ele>
        <time>2019-11-01T08:42:03Z</time>
      </trkpt>
      <trkpt lat="38.3875070" lon="-2.5699300">
        <ele>936.7</ele>
        <time>2019-11-01T08:42:06Z</time>
      </trkpt>
      <trkpt lat="38.3875070" lon="-2.5698570">
        <ele>936.7</ele>
        <time>2019-11-01T08:42:09Z</time>
      </trkpt>
      <trkpt lat="38.3875000" lon="-2.5697860">
        <ele>936.7</ele>
        <time>2019-11-01T08:42:12Z</time>
      </trkpt>
      <trkpt lat="38.3875050" lon="-2.5697090">
        <ele>936.7</ele>
        <time>2019-11-01T08:42:15Z</time>
      </trkpt>
      <trkpt lat="38.3875070" lon="-2.5696320">
        <ele>939.5</ele>
        <time>2019-11-01T08:42:18Z</time>
      </trkpt>
      <trkpt lat="38.3875070" lon="-2.5695800">
        <ele>939.5</ele>
        <time>2019-11-01T08:42:20Z</time>
      </trkpt>
      <trkpt lat="38.3875050" lon="-2.5695050">
        <ele>939.5</ele>
        <time>2019-11-01T08:42:23Z</time>
      </trkpt>
      <trkpt lat="38.3875050" lon="-2.5694300">
        <ele>939.5</ele>
        <time>2019-11-01T08:42:26Z</time>
      </trkpt>
      <trkpt lat="38.3875070" lon="-2.5693600">
        <ele>939.5</ele>
        <time>2019-11-01T08:42:29Z</time>
      </trkpt>
      <trkpt lat="38.3875120" lon="-2.5692870">
        <ele>939.5</ele>
        <time>2019-11-01T08:42:32Z</time>
      </trkpt>
      <trkpt lat="38.3875200" lon="-2.5692150">
        <ele>942.3</ele>
        <time>2019-11-01T08:42:35Z</time>
      </trkpt>
      <trkpt lat="38.3875230" lon="-2.5691270">
        <ele>942.3</ele>
        <time>2019-11-01T08:42:39Z</time>
      </trkpt>
      <trkpt lat="38.3875280" lon="-2.5690550">
        <ele>942.3</ele>
        <time>2019-11-01T08:42:42Z</time>
      </trkpt>
      <trkpt lat="38.3875280" lon="-2.5689800">
        <ele>942.3</ele>
        <time>2019-11-01T08:42:45Z</time>
      </trkpt>
      <trkpt lat="38.3875300" lon="-2.5689110">
        <ele>942.3</ele>
        <time>2019-11-01T08:42:48Z</time>
      </trkpt>
      <trkpt lat="38.3875380" lon="-2.5688370">
        <ele>944.9</ele>
        <time>2019-11-01T08:42:51Z</time>
      </trkpt>
      <trkpt lat="38.3875460" lon="-2.5687680">
        <ele>944.9</ele>
        <time>2019-11-01T08:42:54Z</time>
      </trkpt>
      <trkpt lat="38.3875510" lon="-2.5687040">
        <ele>944.9</ele>
        <time>2019-11-01T08:42:57Z</time>
      </trkpt>
      <trkpt lat="38.3875530" lon="-2.5686360">
        <ele>944.9</ele>
        <time>2019-11-01T08:43:00Z</time>
      </trkpt>
      <trkpt lat="38.3875430" lon="-2.5685510">
        <ele>944.9</ele>
        <time>2019-11-01T08:43:04Z</time>
      </trkpt>
      <trkpt lat="38.3875430" lon="-2.5684800">
        <ele>947.4</ele>
        <time>2019-11-01T08:43:07Z</time>
      </trkpt>
      <trkpt lat="38.3875430" lon="-2.5684010">
        <ele>947.4</ele>
        <time>2019-11-01T08:43:10Z</time>
      </trkpt>
      <trkpt lat="38.3875510" lon="-2.5683250">
        <ele>947.4</ele>
        <time>2019-11-01T08:43:13Z</time>
      </trkpt>
      <trkpt lat="38.3875580" lon="-2.5682490">
        <ele>947.4</ele>
        <time>2019-11-01T08:43:16Z</time>
      </trkpt>
      <trkpt lat="38.3875660" lon="-2.5681710">
        <ele>947.4</ele>
        <time>2019-11-01T08:43:19Z</time>
      </trkpt>
      <trkpt lat="38.3875810" lon="-2.5680980">
        <ele>949.9</ele>
        <time>2019-11-01T08:43:22Z</time>
      </trkpt>
      <trkpt lat="38.3875920" lon="-2.5680280">
        <ele>949.9</ele>
        <time>2019-11-01T08:43:25Z</time>
      </trkpt>
      <trkpt lat="38.3876070" lon="-2.5679590">
        <ele>949.9</ele>
        <time>2019-11-01T08:43:28Z</time>
      </trkpt>
      <trkpt lat="38.3876280" lon="-2.5678890">
        <ele>949.9</ele>
        <time>2019-11-01T08:43:31Z</time>
      </trkpt>
      <trkpt lat="38.3876430" lon="-2.5678180">
        <ele>949.9</ele>
        <time>2019-11-01T08:43:34Z</time>
      </trkpt>
      <trkpt lat="38.3876610" lon="-2.5677450">
        <ele>949.9</ele>
        <time>2019-11-01T08:43:37Z</time>
      </trkpt>
      <trkpt lat="38.3876740" lon="-2.5676960">
        <ele>952.3</ele>
        <time>2019-11-01T08:43:39Z</time>
      </trkpt>
      <trkpt lat="38.3876840" lon="-2.5676200">
        <ele>952.3</ele>
        <time>2019-11-01T08:43:42Z</time>
      </trkpt>
      <trkpt lat="38.3876920" lon="-2.5675480">
        <ele>952.3</ele>
        <time>2019-11-01T08:43:45Z</time>
      </trkpt>
      <trkpt lat="38.3877090" lon="-2.5674780">
        <ele>952.3</ele>
        <time>2019-11-01T08:43:48Z</time>
      </trkpt>
      <trkpt lat="38.3877250" lon="-2.5674070">
        <ele>952.3</ele>
        <time>2019-11-01T08:43:51Z</time>
      </trkpt>
      <trkpt lat="38.3877450" lon="-2.5673340">
        <ele>954.8</ele>
        <time>2019-11-01T08:43:54Z</time>
      </trkpt>
      <trkpt lat="38.3877530" lon="-2.5672880">
        <ele>954.8</ele>
        <time>2019-11-01T08:43:56Z</time>
      </trkpt>
      <trkpt lat="38.3877560" lon="-2.5672170">
        <ele>954.8</ele>
        <time>2019-11-01T08:43:59Z</time>
      </trkpt>
      <trkpt lat="38.3877610" lon="-2.5671410">
        <ele>954.8</ele>
        <time>2019-11-01T08:44:02Z</time>
      </trkpt>
      <trkpt lat="38.3877610" lon="-2.5670730">
        <ele>954.8</ele>
        <time>2019-11-01T08:44:05Z</time>
      </trkpt>
      <trkpt lat="38.3877450" lon="-2.5669880">
        <ele>954.8</ele>
        <time>2019-11-01T08:44:09Z</time>
      </trkpt>
      <trkpt lat="38.3877250" lon="-2.5669270">
        <ele>957.0</ele>
        <time>2019-11-01T08:44:12Z</time>
      </trkpt>
      <trkpt lat="38.3877020" lon="-2.5668660">
        <ele>957.0</ele>
        <time>2019-11-01T08:44:15Z</time>
      </trkpt>
      <trkpt lat="38.3876810" lon="-2.5668000">
        <ele>957.0</ele>
        <time>2019-11-01T08:44:18Z</time>
      </trkpt>
      <trkpt lat="38.3876610" lon="-2.5667390">
        <ele>957.0</ele>
        <time>2019-11-01T08:44:21Z</time>
      </trkpt>
      <trkpt lat="38.3876300" lon="-2.5666680">
        <ele>957.0</ele>
        <time>2019-11-01T08:44:25Z</time>
      </trkpt>
      <trkpt lat="38.3876150" lon="-2.5666060">
        <ele>959.6</ele>
        <time>2019-11-01T08:44:28Z</time>
      </trkpt>
      <trkpt lat="38.3876040" lon="-2.5665430">
        <ele>959.6</ele>
        <time>2019-11-01T08:44:31Z</time>
      </trkpt>
      <trkpt lat="38.3875920" lon="-2.5664740">
        <ele>959.6</ele>
        <time>2019-11-01T08:44:34Z</time>
      </trkpt>
      <trkpt lat="38.3875760" lon="-2.5664030">
        <ele>959.6</ele>
        <time>2019-11-01T08:44:37Z</time>
      </trkpt>
      <trkpt lat="38.3875580" lon="-2.5663320">
        <ele>959.6</ele>
        <time>2019-11-01T08:44:40Z</time>
      </trkpt>
      <trkpt lat="38.3875350" lon="-2.5662670">
        <ele>962.0</ele>
        <time>2019-11-01T08:44:43Z</time>
      </trkpt>
      <trkpt lat="38.3875070" lon="-2.5662080">
        <ele>962.0</ele>
        <time>2019-11-01T08:44:46Z</time>
      </trkpt>
      <trkpt lat="38.3874890" lon="-2.5661490">
        <ele>962.0</ele>
        <time>2019-11-01T08:44:49Z</time>
      </trkpt>
      <trkpt lat="38.3874660" lon="-2.5660680">
        <ele>962.0</ele>
        <time>2019-11-01T08:44:53Z</time>
      </trkpt>
      <trkpt lat="38.3874480" lon="-2.5659950">
        <ele>962.0</ele>
        <time>2019-11-01T08:44:57Z</time>
      </trkpt>
      <trkpt lat="38.3874360" lon="-2.5659380">
        <ele>964.3</ele>
        <time>2019-11-01T08:45:00Z</time>
      </trkpt>
      <trkpt lat="38.3874280" lon="-2.5658750">
        <ele>964.3</ele>
        <time>2019-11-01T08:45:03Z</time>
      </trkpt>
      <trkpt lat="38.3874200" lon="-2.5657930">
        <ele>964.3</ele>
        <time>2019-11-01T08:45:07Z</time>
      </trkpt>
      <trkpt lat="38.3874180" lon="-2.5657120">
        <ele>964.3</ele>
        <time>2019-11-01T08:45:11Z</time>
      </trkpt>
      <trkpt lat="38.3874250" lon="-2.5656250">
        <ele>966.6</ele>
        <time>2019-11-01T08:45:15Z</time>
      </trkpt>
      <trkpt lat="38.3874280" lon="-2.5655610">
        <ele>966.6</ele>
        <time>2019-11-01T08:45:18Z</time>
      </trkpt>
      <trkpt lat="38.3874330" lon="-2.5655010">
        <ele>966.6</ele>
        <time>2019-11-01T08:45:21Z</time>
      </trkpt>
      <trkpt lat="38.3874280" lon="-2.5654330">
        <ele>966.6</ele>
        <time>2019-11-01T08:45:25Z</time>
      </trkpt>
      <trkpt lat="38.3874200" lon="-2.5653620">
        <ele>966.6</ele>
        <time>2019-11-01T08:45:29Z</time>
      </trkpt>
      <trkpt lat="38.3874180" lon="-2.5653130">
        <ele>968.8</ele>
        <time>2019-11-01T08:45:32Z</time>
      </trkpt>
      <trkpt lat="38.3874280" lon="-2.5652410">
        <ele>968.8</ele>
        <time>2019-11-01T08:46:34Z</time>
      </trkpt>
      <trkpt lat="38.3874200" lon="-2.5651730">
        <ele>971.0</ele>
        <time>2019-11-01T08:46:38Z</time>
      </trkpt>
      <trkpt lat="38.3874120" lon="-2.5650880">
        <ele>971.0</ele>
        <time>2019-11-01T08:46:42Z</time>
      </trkpt>
      <trkpt lat="38.3874100" lon="-2.5650170">
        <ele>971.0</ele>
        <time>2019-11-01T08:46:45Z</time>
      </trkpt>
      <trkpt lat="38.3874100" lon="-2.5649430">
        <ele>971.0</ele>
        <time>2019-11-01T08:46:48Z</time>
      </trkpt>
      <trkpt lat="38.3874020" lon="-2.5648720">
        <ele>971.0</ele>
        <time>2019-11-01T08:46:51Z</time>
      </trkpt>
      <trkpt lat="38.3873950" lon="-2.5648060">
        <ele>971.0</ele>
        <time>2019-11-01T08:46:54Z</time>
      </trkpt>
      <trkpt lat="38.3873890" lon="-2.5647360">
        <ele>973.0</ele>
        <time>2019-11-01T08:46:57Z</time>
      </trkpt>
      <trkpt lat="38.3873870" lon="-2.5646630">
        <ele>973.0</ele>
        <time>2019-11-01T08:47:00Z</time>
      </trkpt>
      <trkpt lat="38.3873870" lon="-2.5645830">
        <ele>973.0</ele>
        <time>2019-11-01T08:47:03Z</time>
      </trkpt>
      <trkpt lat="38.3873790" lon="-2.5645070">
        <ele>973.0</ele>
        <time>2019-11-01T08:47:06Z</time>
      </trkpt>
      <trkpt lat="38.3873720" lon="-2.5644310">
        <ele>975.0</ele>
        <time>2019-11-01T08:47:09Z</time>
      </trkpt>
      <trkpt lat="38.3873720" lon="-2.5643820">
        <ele>975.0</ele>
        <time>2019-11-01T08:47:11Z</time>
      </trkpt>
      <trkpt lat="38.3873720" lon="-2.5643150">
        <ele>975.0</ele>
        <time>2019-11-01T08:47:14Z</time>
      </trkpt>
      <trkpt lat="38.3873720" lon="-2.5642400">
        <ele>975.0</ele>
        <time>2019-11-01T08:47:17Z</time>
      </trkpt>
      <trkpt lat="38.3873720" lon="-2.5641640">
        <ele>975.0</ele>
        <time>2019-11-01T08:47:20Z</time>
      </trkpt>
      <trkpt lat="38.3873720" lon="-2.5640880">
        <ele>977.1</ele>
        <time>2019-11-01T08:47:23Z</time>
      </trkpt>
      <trkpt lat="38.3873720" lon="-2.5640340">
        <ele>977.1</ele>
        <time>2019-11-01T08:47:25Z</time>
      </trkpt>
      <trkpt lat="38.3873740" lon="-2.5639600">
        <ele>977.1</ele>
        <time>2019-11-01T08:47:28Z</time>
      </trkpt>
      <trkpt lat="38.3873740" lon="-2.5638910">
        <ele>977.1</ele>
        <time>2019-11-01T08:47:31Z</time>
      </trkpt>
      <trkpt lat="38.3873740" lon="-2.5638180">
        <ele>977.1</ele>
        <time>2019-11-01T08:47:34Z</time>
      </trkpt>
      <trkpt lat="38.3873640" lon="-2.5637490">
        <ele>977.1</ele>
        <time>2019-11-01T08:47:37Z</time>
      </trkpt>
      <trkpt lat="38.3873560" lon="-2.5636800">
        <ele>979.4</ele>
        <time>2019-11-01T08:47:40Z</time>
      </trkpt>
      <trkpt lat="38.3873560" lon="-2.5636060">
        <ele>979.4</ele>
        <time>2019-11-01T08:47:43Z</time>
      </trkpt>
      <trkpt lat="38.3873510" lon="-2.5635350">
        <ele>979.4</ele>
        <time>2019-11-01T08:47:46Z</time>
      </trkpt>
      <trkpt lat="38.3873480" lon="-2.5634620">
        <ele>979.4</ele>
        <time>2019-11-01T08:47:49Z</time>
      </trkpt>
      <trkpt lat="38.3873480" lon="-2.5633890">
        <ele>979.4</ele>
        <time>2019-11-01T08:47:52Z</time>
      </trkpt>
      <trkpt lat="38.3873480" lon="-2.5633140">
        <ele>981.5</ele>
        <time>2019-11-01T08:47:55Z</time>
      </trkpt>
      <trkpt lat="38.3873510" lon="-2.5632400">
        <ele>981.5</ele>
        <time>2019-11-01T08:47:58Z</time>
      </trkpt>
      <trkpt lat="38.3873640" lon="-2.5631700">
        <ele>981.5</ele>
        <time>2019-11-01T08:48:01Z</time>
      </trkpt>
      <trkpt lat="38.3873660" lon="-2.5630980">
        <ele>981.5</ele>
        <time>2019-11-01T08:48:04Z</time>
      </trkpt>
      <trkpt lat="38.3873660" lon="-2.5630230">
        <ele>981.5</ele>
        <time>2019-11-01T08:48:07Z</time>
      </trkpt>
      <trkpt lat="38.3873640" lon="-2.5629480">
        <ele>981.5</ele>
        <time>2019-11-01T08:48:10Z</time>
      </trkpt>
      <trkpt lat="38.3873590" lon="-2.5628800">
        <ele>983.9</ele>
        <time>2019-11-01T08:48:13Z</time>
      </trkpt>
      <trkpt lat="38.3873560" lon="-2.5628060">
        <ele>983.9</ele>
        <time>2019-11-01T08:48:16Z</time>
      </trkpt>
      <trkpt lat="38.3873560" lon="-2.5627290">
        <ele>983.9</ele>
        <time>2019-11-01T08:48:19Z</time>
      </trkpt>
      <trkpt lat="38.3873480" lon="-2.5626550">
        <ele>983.9</ele>
        <time>2019-11-01T08:48:22Z</time>
      </trkpt>
      <trkpt lat="38.3873360" lon="-2.5625910">
        <ele>983.9</ele>
        <time>2019-11-01T08:48:25Z</time>
      </trkpt>
      <trkpt lat="38.3873250" lon="-2.5625410">
        <ele>986.3</ele>
        <time>2019-11-01T08:48:28Z</time>
      </trkpt>
      <trkpt lat="38.3873100" lon="-2.5624760">
        <ele>986.3</ele>
        <time>2019-11-01T08:48:32Z</time>
      </trkpt>
      <trkpt lat="38.3873000" lon="-2.5623920">
        <ele>986.3</ele>
        <time>2019-11-01T08:48:36Z</time>
      </trkpt>
      <trkpt lat="38.3872920" lon="-2.5623200">
        <ele>986.3</ele>
        <time>2019-11-01T08:48:39Z</time>
      </trkpt>
      <trkpt lat="38.3872870" lon="-2.5622360">
        <ele>986.3</ele>
        <time>2019-11-01T08:48:42Z</time>
      </trkpt>
      <trkpt lat="38.3872840" lon="-2.5621870">
        <ele>988.8</ele>
        <time>2019-11-01T08:48:44Z</time>
      </trkpt>
      <trkpt lat="38.3872770" lon="-2.5621190">
        <ele>988.8</ele>
        <time>2019-11-01T08:48:47Z</time>
      </trkpt>
      <trkpt lat="38.3872690" lon="-2.5620330">
        <ele>988.8</ele>
        <time>2019-11-01T08:48:51Z</time>
      </trkpt>
      <trkpt lat="38.3872560" lon="-2.5619640">
        <ele>988.8</ele>
        <time>2019-11-01T08:48:54Z</time>
      </trkpt>
      <trkpt lat="38.3872460" lon="-2.5618960">
        <ele>988.8</ele>
        <time>2019-11-01T08:48:57Z</time>
      </trkpt>
      <trkpt lat="38.3872330" lon="-2.5618240">
        <ele>991.1</ele>
        <time>2019-11-01T08:49:00Z</time>
      </trkpt>
      <trkpt lat="38.3872230" lon="-2.5617500">
        <ele>991.1</ele>
        <time>2019-11-01T08:49:03Z</time>
      </trkpt>
      <trkpt lat="38.3872100" lon="-2.5616760">
        <ele>991.1</ele>
        <time>2019-11-01T08:49:06Z</time>
      </trkpt>
      <trkpt lat="38.3871920" lon="-2.5616060">
        <ele>991.1</ele>
        <time>2019-11-01T08:49:09Z</time>
      </trkpt>
      <trkpt lat="38.3871690" lon="-2.5615410">
        <ele>991.1</ele>
        <time>2019-11-01T08:49:12Z</time>
      </trkpt>
      <trkpt lat="38.3871410" lon="-2.5614770">
        <ele>993.2</ele>
        <time>2019-11-01T08:49:15Z</time>
      </trkpt>
      <trkpt lat="38.3871000" lon="-2.5614270">
        <ele>993.2</ele>
        <time>2019-11-01T08:49:18Z</time>
      </trkpt>
      <trkpt lat="38.3870520" lon="-2.5613810">
        <ele>993.2</ele>
        <time>2019-11-01T08:49:21Z</time>
      </trkpt>
      <trkpt lat="38.3869980" lon="-2.5613470">
        <ele>993.2</ele>
        <time>2019-11-01T08:49:24Z</time>
      </trkpt>
      <trkpt lat="38.3869440" lon="-2.5613270">
        <ele>993.2</ele>
        <time>2019-11-01T08:49:27Z</time>
      </trkpt>
      <trkpt lat="38.3868950" lon="-2.5613040">
        <ele>993.2</ele>
        <time>2019-11-01T08:49:30Z</time>
      </trkpt>
      <trkpt lat="38.3868420" lon="-2.5612760">
        <ele>996.0</ele>
        <time>2019-11-01T08:49:33Z</time>
      </trkpt>
      <trkpt lat="38.3867900" lon="-2.5612350">
        <ele>996.0</ele>
        <time>2019-11-01T08:49:36Z</time>
      </trkpt>
      <trkpt lat="38.3867490" lon="-2.5611810">
        <ele>996.0</ele>
        <time>2019-11-01T08:49:39Z</time>
      </trkpt>
      <trkpt lat="38.3867160" lon="-2.5611240">
        <ele>996.0</ele>
        <time>2019-11-01T08:49:42Z</time>
      </trkpt>
      <trkpt lat="38.3866880" lon="-2.5610620">
        <ele>996.0</ele>
        <time>2019-11-01T08:49:45Z</time>
      </trkpt>
      <trkpt lat="38.3866620" lon="-2.5609910">
        <ele>998.6</ele>
        <time>2019-11-01T08:49:48Z</time>
      </trkpt>
      <trkpt lat="38.3866270" lon="-2.5609160">
        <ele>998.6</ele>
        <time>2019-11-01T08:49:51Z</time>
      </trkpt>
      <trkpt lat="38.3865960" lon="-2.5608450">
        <ele>998.6</ele>
        <time>2019-11-01T08:49:54Z</time>
      </trkpt>
      <trkpt lat="38.3865730" lon="-2.5607740">
        <ele>998.6</ele>
        <time>2019-11-01T08:49:57Z</time>
      </trkpt>
      <trkpt lat="38.3865470" lon="-2.5607110">
        <ele>998.6</ele>
        <time>2019-11-01T08:50:00Z</time>
      </trkpt>
      <trkpt lat="38.3865160" lon="-2.5606410">
        <ele>1001.0</ele>
        <time>2019-11-01T08:50:03Z</time>
      </trkpt>
      <trkpt lat="38.3865010" lon="-2.5605910">
        <ele>1001.0</ele>
        <time>2019-11-01T08:50:05Z</time>
      </trkpt>
      <trkpt lat="38.3864700" lon="-2.5605180">
        <ele>1001.0</ele>
        <time>2019-11-01T08:50:08Z</time>
      </trkpt>
      <trkpt lat="38.3864450" lon="-2.5604430">
        <ele>1001.0</ele>
        <time>2019-11-01T08:50:11Z</time>
      </trkpt>
      <trkpt lat="38.3864140" lon="-2.5603730">
        <ele>1001.0</ele>
        <time>2019-11-01T08:50:14Z</time>
      </trkpt>
      <trkpt lat="38.3863830" lon="-2.5603050">
        <ele>1001.0</ele>
        <time>2019-11-01T08:50:17Z</time>
      </trkpt>
      <trkpt lat="38.3863530" lon="-2.5602370">
        <ele>1003.3</ele>
        <time>2019-11-01T08:50:20Z</time>
      </trkpt>
      <trkpt lat="38.3863220" lon="-2.5601660">
        <ele>1003.3</ele>
        <time>2019-11-01T08:50:23Z</time>
      </trkpt>
      <trkpt lat="38.3862890" lon="-2.5600980">
        <ele>1003.3</ele>
        <time>2019-11-01T08:50:26Z</time>
      </trkpt>
      <trkpt lat="38.3862660" lon="-2.5600340">
        <ele>1003.3</ele>
        <time>2019-11-01T08:50:29Z</time>
      </trkpt>
      <trkpt lat="38.3862430" lon="-2.5599680">
        <ele>1003.3</ele>
        <time>2019-11-01T08:50:32Z</time>
      </trkpt>
      <trkpt lat="38.3862120" lon="-2.5599030">
        <ele>1005.8</ele>
        <time>2019-11-01T08:50:35Z</time>
      </trkpt>
      <trkpt lat="38.3861840" lon="-2.5598370">
        <ele>1005.8</ele>
        <time>2019-11-01T08:50:38Z</time>
      </trkpt>
      <trkpt lat="38.3861580" lon="-2.5597700">
        <ele>1005.8</ele>
        <time>2019-11-01T08:50:41Z</time>
      </trkpt>
      <trkpt lat="38.3861320" lon="-2.5597060">
        <ele>1005.8</ele>
        <time>2019-11-01T08:50:44Z</time>
      </trkpt>
      <trkpt lat="38.3861020" lon="-2.5596390">
        <ele>1005.8</ele>
        <time>2019-11-01T08:50:47Z</time>
      </trkpt>
      <trkpt lat="38.3860660" lon="-2.5595780">
        <ele>1005.8</ele>
        <time>2019-11-01T08:50:50Z</time>
      </trkpt>
      <trkpt lat="38.3860200" lon="-2.5595270">
        <ele>1008.2</ele>
        <time>2019-11-01T08:50:53Z</time>
      </trkpt>
      <trkpt lat="38.3859710" lon="-2.5594870">
        <ele>1008.2</ele>
        <time>2019-11-01T08:50:56Z</time>
      </trkpt>
      <trkpt lat="38.3859150" lon="-2.5594560">
        <ele>1008.2</ele>
        <time>2019-11-01T08:50:59Z</time>
      </trkpt>
      <trkpt lat="38.3858480" lon="-2.5594380">
        <ele>1008.2</ele>
        <time>2019-11-01T08:51:02Z</time>
      </trkpt>
      <trkpt lat="38.3857870" lon="-2.5594300">
        <ele>1008.2</ele>
        <time>2019-11-01T08:51:05Z</time>
      </trkpt>
      <trkpt lat="38.3857310" lon="-2.5594250">
        <ele>1010.5</ele>
        <time>2019-11-01T08:51:08Z</time>
      </trkpt>
      <trkpt lat="38.3856690" lon="-2.5594120">
        <ele>1010.5</ele>
        <time>2019-11-01T08:51:11Z</time>
      </trkpt>
      <trkpt lat="38.3856130" lon="-2.5594110">
        <ele>1010.5</ele>
        <time>2019-11-01T08:51:14Z</time>
      </trkpt>
      <trkpt lat="38.3855560" lon="-2.5594190">
        <ele>1010.5</ele>
        <time>2019-11-01T08:51:17Z</time>
      </trkpt>
      <trkpt lat="38.3854900" lon="-2.5594250">
        <ele>1010.5</ele>
        <time>2019-11-01T08:51:20Z</time>
      </trkpt>
      <trkpt lat="38.3854210" lon="-2.5594290">
        <ele>1012.7</ele>
        <time>2019-11-01T08:51:23Z</time>
      </trkpt>
      <trkpt lat="38.3853750" lon="-2.5594310">
        <ele>1012.7</ele>
        <time>2019-11-01T08:51:25Z</time>
      </trkpt>
      <trkpt lat="38.3853110" lon="-2.5594260">
        <ele>1012.7</ele>
        <time>2019-11-01T08:51:28Z</time>
      </trkpt>
      <trkpt lat="38.3852490" lon="-2.5594210">
        <ele>1012.7</ele>
        <time>2019-11-01T08:51:31Z</time>
      </trkpt>
      <trkpt lat="38.3851930" lon="-2.5594090">
        <ele>1012.7</ele>
        <time>2019-11-01T08:51:34Z</time>
      </trkpt>
      <trkpt lat="38.3851390" lon="-2.5593880">
        <ele>1012.7</ele>
        <time>2019-11-01T08:51:37Z</time>
      </trkpt>
      <trkpt lat="38.3850830" lon="-2.5593620">
        <ele>1014.8</ele>
        <time>2019-11-01T08:51:40Z</time>
      </trkpt>
      <trkpt lat="38.3850210" lon="-2.5593330">
        <ele>1014.8</ele>
        <time>2019-11-01T08:51:43Z</time>
      </trkpt>
      <trkpt lat="38.3849570" lon="-2.5593010">
        <ele>1014.8</ele>
        <time>2019-11-01T08:51:46Z</time>
      </trkpt>
      <trkpt lat="38.3848960" lon="-2.5592590">
        <ele>1014.8</ele>
        <time>2019-11-01T08:51:49Z</time>
      </trkpt>
      <trkpt lat="38.3848290" lon="-2.5592130">
        <ele>1014.8</ele>
        <time>2019-11-01T08:51:52Z</time>
      </trkpt>
      <trkpt lat="38.3847730" lon="-2.5591720">
        <ele>1017.1</ele>
        <time>2019-11-01T08:51:55Z</time>
      </trkpt>
      <trkpt lat="38.3847170" lon="-2.5591350">
        <ele>1017.1</ele>
        <time>2019-11-01T08:51:58Z</time>
      </trkpt>
      <trkpt lat="38.3846550" lon="-2.5590940">
        <ele>1017.1</ele>
        <time>2019-11-01T08:52:01Z</time>
      </trkpt>
      <trkpt lat="38.3845940" lon="-2.5590510">
        <ele>1017.1</ele>
        <time>2019-11-01T08:52:04Z</time>
      </trkpt>
      <trkpt lat="38.3845380" lon="-2.5590030">
        <ele>1017.1</ele>
        <time>2019-11-01T08:52:07Z</time>
      </trkpt>
      <trkpt lat="38.3844990" lon="-2.5589680">
        <ele>1017.1</ele>
        <time>2019-11-01T08:52:09Z</time>
      </trkpt>
      <trkpt lat="38.3844530" lon="-2.5589290">
        <ele>1019.5</ele>
        <time>2019-11-01T08:52:12Z</time>
      </trkpt>
      <trkpt lat="38.3844100" lon="-2.5588850">
        <ele>1019.5</ele>
        <time>2019-11-01T08:52:15Z</time>
      </trkpt>
      <trkpt lat="38.3843690" lon="-2.5588430">
        <ele>1019.5</ele>
        <time>2019-11-01T08:52:18Z</time>
      </trkpt>
      <trkpt lat="38.3843150" lon="-2.5587950">
        <ele>1019.5</ele>
        <time>2019-11-01T08:52:21Z</time>
      </trkpt>
      <trkpt lat="38.3842590" lon="-2.5587470">
        <ele>1019.5</ele>
        <time>2019-11-01T08:52:24Z</time>
      </trkpt>
      <trkpt lat="38.3842020" lon="-2.5587030">
        <ele>1021.8</ele>
        <time>2019-11-01T08:52:27Z</time>
      </trkpt>
      <trkpt lat="38.3841660" lon="-2.5586750">
        <ele>1021.8</ele>
        <time>2019-11-01T08:52:29Z</time>
      </trkpt>
      <trkpt lat="38.3841130" lon="-2.5586450">
        <ele>1021.8</ele>
        <time>2019-11-01T08:52:32Z</time>
      </trkpt>
      <trkpt lat="38.3840590" lon="-2.5586150">
        <ele>1021.8</ele>
        <time>2019-11-01T08:52:35Z</time>
      </trkpt>
      <trkpt lat="38.3840000" lon="-2.5585860">
        <ele>1021.8</ele>
        <time>2019-11-01T08:52:38Z</time>
      </trkpt>
      <trkpt lat="38.3839390" lon="-2.5585690">
        <ele>1021.8</ele>
        <time>2019-11-01T08:52:41Z</time>
      </trkpt>
      <trkpt lat="38.3838720" lon="-2.5585500">
        <ele>1021.8</ele>
        <time>2019-11-01T08:52:44Z</time>
      </trkpt>
      <trkpt lat="38.3838210" lon="-2.5585250">
        <ele>1021.8</ele>
        <time>2019-11-01T08:52:47Z</time>
      </trkpt>
      <trkpt lat="38.3837670" lon="-2.5584820">
        <ele>1023.8</ele>
        <time>2019-11-01T08:52:50Z</time>
      </trkpt>
      <trkpt lat="38.3837290" lon="-2.5584320">
        <ele>1023.8</ele>
        <time>2019-11-01T08:52:53Z</time>
      </trkpt>
      <trkpt lat="38.3836980" lon="-2.5583760">
        <ele>1023.8</ele>
        <time>2019-11-01T08:52:56Z</time>
      </trkpt>
      <trkpt lat="38.3836830" lon="-2.5582950">
        <ele>1023.8</ele>
        <time>2019-11-01T08:53:00Z</time>
      </trkpt>
      <trkpt lat="38.3836700" lon="-2.5582240">
        <ele>1023.8</ele>
        <time>2019-11-01T08:53:03Z</time>
      </trkpt>
      <trkpt lat="38.3836600" lon="-2.5581410">
        <ele>1025.8</ele>
        <time>2019-11-01T08:53:06Z</time>
      </trkpt>
      <trkpt lat="38.3836520" lon="-2.5580850">
        <ele>1025.8</ele>
        <time>2019-11-01T08:53:08Z</time>
      </trkpt>
      <trkpt lat="38.3836390" lon="-2.5579950">
        <ele>1025.8</ele>
        <time>2019-11-01T08:53:11Z</time>
      </trkpt>
      <trkpt lat="38.3836360" lon="-2.5579390">
        <ele>1025.8</ele>
        <time>2019-11-01T08:53:13Z</time>
      </trkpt>
      <trkpt lat="38.3836360" lon="-2.5578620">
        <ele>1027.9</ele>
        <time>2019-11-01T08:53:16Z</time>
      </trkpt>
      <trkpt lat="38.3836340" lon="-2.5578080">
        <ele>1027.9</ele>
        <time>2019-11-01T08:53:18Z</time>
      </trkpt>
      <trkpt lat="38.3836360" lon="-2.5577330">
        <ele>1027.9</ele>
        <time>2019-11-01T08:53:21Z</time>
      </trkpt>
      <trkpt lat="38.3836390" lon="-2.5576650">
        <ele>1027.9</ele>
        <time>2019-11-01T08:53:24Z</time>
      </trkpt>
      <trkpt lat="38.3836440" lon="-2.5575890">
        <ele>1027.9</ele>
        <time>2019-11-01T08:53:27Z</time>
      </trkpt>
      <trkpt lat="38.3836600" lon="-2.5575200">
        <ele>1027.9</ele>
        <time>2019-11-01T08:53:30Z</time>
      </trkpt>
      <trkpt lat="38.3836770" lon="-2.5574500">
        <ele>1030.0</ele>
        <time>2019-11-01T08:53:33Z</time>
      </trkpt>
      <trkpt lat="38.3836930" lon="-2.5573810">
        <ele>1030.0</ele>
        <time>2019-11-01T08:53:36Z</time>
      </trkpt>
      <trkpt lat="38.3837160" lon="-2.5573120">
        <ele>1030.0</ele>
        <time>2019-11-01T08:53:39Z</time>
      </trkpt>
      <trkpt lat="38.3837290" lon="-2.5572430">
        <ele>1030.0</ele>
        <time>2019-11-01T08:53:42Z</time>
      </trkpt>
      <trkpt lat="38.3837360" lon="-2.5571690">
        <ele>1030.0</ele>
        <time>2019-11-01T08:53:45Z</time>
      </trkpt>
      <trkpt lat="38.3837440" lon="-2.5570970">
        <ele>1032.1</ele>
        <time>2019-11-01T08:53:48Z</time>
      </trkpt>
      <trkpt lat="38.3837470" lon="-2.5570250">
        <ele>1032.1</ele>
        <time>2019-11-01T08:53:51Z</time>
      </trkpt>
      <trkpt lat="38.3837470" lon="-2.5569510">
        <ele>1032.1</ele>
        <time>2019-11-01T08:53:54Z</time>
      </trkpt>
      <trkpt lat="38.3837470" lon="-2.5568760">
        <ele>1032.1</ele>
        <time>2019-11-01T08:53:57Z</time>
      </trkpt>
      <trkpt lat="38.3837440" lon="-2.5568000">
        <ele>1032.1</ele>
        <time>2019-11-01T08:54:00Z</time>
      </trkpt>
      <trkpt lat="38.3837360" lon="-2.5567290">
        <ele>1034.2</ele>
        <time>2019-11-01T08:54:03Z</time>
      </trkpt>
      <trkpt lat="38.3837290" lon="-2.5566550">
        <ele>1034.2</ele>
        <time>2019-11-01T08:54:06Z</time>
      </trkpt>
      <trkpt lat="38.3837160" lon="-2.5565800">
        <ele>1034.2</ele>
        <time>2019-11-01T08:54:09Z</time>
      </trkpt>
      <trkpt lat="38.3837060" lon="-2.5565150">
        <ele>1034.2</ele>
        <time>2019-11-01T08:54:12Z</time>
      </trkpt>
      <trkpt lat="38.3836930" lon="-2.5564520">
        <ele>1034.2</ele>
        <time>2019-11-01T08:54:15Z</time>
      </trkpt>
      <trkpt lat="38.3836750" lon="-2.5563830">
        <ele>1034.2</ele>
        <time>2019-11-01T08:54:18Z</time>
      </trkpt>
      <trkpt lat="38.3836520" lon="-2.5563130">
        <ele>1036.3</ele>
        <time>2019-11-01T08:54:21Z</time>
      </trkpt>
      <trkpt lat="38.3836260" lon="-2.5562320">
        <ele>1036.3</ele>
        <time>2019-11-01T08:54:24Z</time>
      </trkpt>
      <trkpt lat="38.3835980" lon="-2.5561830">
        <ele>1036.3</ele>
        <time>2019-11-01T08:54:26Z</time>
      </trkpt>
      <trkpt lat="38.3835600" lon="-2.5561160">
        <ele>1036.3</ele>
        <time>2019-11-01T08:54:29Z</time>
      </trkpt>
      <trkpt lat="38.3835260" lon="-2.5560610">
        <ele>1036.3</ele>
        <time>2019-11-01T08:54:32Z</time>
      </trkpt>
      <trkpt lat="38.3834910" lon="-2.5560060">
        <ele>1038.8</ele>
        <time>2019-11-01T08:54:35Z</time>
      </trkpt>
      <trkpt lat="38.3834650" lon="-2.5559680">
        <ele>1038.8</ele>
        <time>2019-11-01T08:54:37Z</time>
      </trkpt>
      <trkpt lat="38.3834240" lon="-2.5559100">
        <ele>1038.8</ele>
        <time>2019-11-01T08:54:40Z</time>
      </trkpt>
      <trkpt lat="38.3833800" lon="-2.5558510">
        <ele>1038.8</ele>
        <time>2019-11-01T08:54:43Z</time>
      </trkpt>
      <trkpt lat="38.3833400" lon="-2.5557930">
        <ele>1038.8</ele>
        <time>2019-11-01T08:54:46Z</time>
      </trkpt>
      <trkpt lat="38.3833010" lon="-2.5557390">
        <ele>1038.8</ele>
        <time>2019-11-01T08:54:49Z</time>
      </trkpt>
      <trkpt lat="38.3832650" lon="-2.5556840">
        <ele>1038.8</ele>
        <time>2019-11-01T08:54:52Z</time>
      </trkpt>
      <trkpt lat="38.3832290" lon="-2.5556220">
        <ele>1040.8</ele>
        <time>2019-11-01T08:54:55Z</time>
      </trkpt>
      <trkpt lat="38.3831940" lon="-2.5555600">
        <ele>1040.8</ele>
        <time>2019-11-01T08:54:58Z</time>
      </trkpt>
      <trkpt lat="38.3831630" lon="-2.5555050">
        <ele>1040.8</ele>
        <time>2019-11-01T08:55:01Z</time>
      </trkpt>
      <trkpt lat="38.3831300" lon="-2.5554460">
        <ele>1040.8</ele>
        <time>2019-11-01T08:55:04Z</time>
      </trkpt>
      <trkpt lat="38.3831070" lon="-2.5553850">
        <ele>1040.8</ele>
        <time>2019-11-01T08:55:07Z</time>
      </trkpt>
      <trkpt lat="38.3830840" lon="-2.5553180">
        <ele>1042.8</ele>
        <time>2019-11-01T08:55:10Z</time>
      </trkpt>
      <trkpt lat="38.3830710" lon="-2.5552550">
        <ele>1042.8</ele>
        <time>2019-11-01T08:55:13Z</time>
      </trkpt>
      <trkpt lat="38.3830530" lon="-2.5551640">
        <ele>1042.8</ele>
        <time>2019-11-01T08:55:17Z</time>
      </trkpt>
      <trkpt lat="38.3830350" lon="-2.5550960">
        <ele>1042.8</ele>
        <time>2019-11-01T08:55:20Z</time>
      </trkpt>
      <trkpt lat="38.3830140" lon="-2.5549970">
        <ele>1044.8</ele>
        <time>2019-11-01T08:55:24Z</time>
      </trkpt>
      <trkpt lat="38.3830040" lon="-2.5549310">
        <ele>1044.8</ele>
        <time>2019-11-01T08:55:27Z</time>
      </trkpt>
      <trkpt lat="38.3829910" lon="-2.5548610">
        <ele>1044.8</ele>
        <time>2019-11-01T08:55:30Z</time>
      </trkpt>
      <trkpt lat="38.3829760" lon="-2.5547940">
        <ele>1044.8</ele>
        <time>2019-11-01T08:55:33Z</time>
      </trkpt>
      <trkpt lat="38.3829680" lon="-2.5547200">
        <ele>1044.8</ele>
        <time>2019-11-01T08:55:36Z</time>
      </trkpt>
      <trkpt lat="38.3829580" lon="-2.5546430">
        <ele>1047.3</ele>
        <time>2019-11-01T08:55:39Z</time>
      </trkpt>
      <trkpt lat="38.3829450" lon="-2.5545920">
        <ele>1047.3</ele>
        <time>2019-11-01T08:55:41Z</time>
      </trkpt>
      <trkpt lat="38.3829270" lon="-2.5545210">
        <ele>1047.3</ele>
        <time>2019-11-01T08:55:44Z</time>
      </trkpt>
      <trkpt lat="38.3829070" lon="-2.5544530">
        <ele>1047.3</ele>
        <time>2019-11-01T08:55:47Z</time>
      </trkpt>
      <trkpt lat="38.3828810" lon="-2.5543790">
        <ele>1047.3</ele>
        <time>2019-11-01T08:55:50Z</time>
      </trkpt>
      <trkpt lat="38.3828580" lon="-2.5543100">
        <ele>1047.3</ele>
        <time>2019-11-01T08:55:53Z</time>
      </trkpt>
      <trkpt lat="38.3828400" lon="-2.5542410">
        <ele>1049.4</ele>
        <time>2019-11-01T08:55:56Z</time>
      </trkpt>
      <trkpt lat="38.3828250" lon="-2.5541680">
        <ele>1049.4</ele>
        <time>2019-11-01T08:55:59Z</time>
      </trkpt>
      <trkpt lat="38.3828100" lon="-2.5540950">
        <ele>1049.4</ele>
        <time>2019-11-01T08:56:02Z</time>
      </trkpt>
      <trkpt lat="38.3827940" lon="-2.5540160">
        <ele>1049.4</ele>
        <time>2019-11-01T08:56:05Z</time>
      </trkpt>
      <trkpt lat="38.3827870" lon="-2.5539400">
        <ele>1049.4</ele>
        <time>2019-11-01T08:56:08Z</time>
      </trkpt>
      <trkpt lat="38.3827790" lon="-2.5538660">
        <ele>1051.5</ele>
        <time>2019-11-01T08:56:11Z</time>
      </trkpt>
      <trkpt lat="38.3827710" lon="-2.5537930">
        <ele>1051.5</ele>
        <time>2019-11-01T08:56:14Z</time>
      </trkpt>
      <trkpt lat="38.3827560" lon="-2.5537180">
        <ele>1051.5</ele>
        <time>2019-11-01T08:56:17Z</time>
      </trkpt>
      <trkpt lat="38.3827400" lon="-2.5536440">
        <ele>1051.5</ele>
        <time>2019-11-01T08:56:20Z</time>
      </trkpt>
      <trkpt lat="38.3827170" lon="-2.5535690">
        <ele>1051.5</ele>
        <time>2019-11-01T08:56:23Z</time>
      </trkpt>
      <trkpt lat="38.3826870" lon="-2.5534890">
        <ele>1051.5</ele>
        <time>2019-11-01T08:56:26Z</time>
      </trkpt>
      <trkpt lat="38.3826610" lon="-2.5534370">
        <ele>1053.8</ele>
        <time>2019-11-01T08:56:28Z</time>
      </trkpt>
      <trkpt lat="38.3826230" lon="-2.5533580">
        <ele>1053.8</ele>
        <time>2019-11-01T08:56:31Z</time>
      </trkpt>
      <trkpt lat="38.3825920" lon="-2.5533040">
        <ele>1053.8</ele>
        <time>2019-11-01T08:56:33Z</time>
      </trkpt>
      <trkpt lat="38.3825480" lon="-2.5532260">
        <ele>1053.8</ele>
        <time>2019-11-01T08:56:36Z</time>
      </trkpt>
      <trkpt lat="38.3825180" lon="-2.5531760">
        <ele>1053.8</ele>
        <time>2019-11-01T08:56:38Z</time>
      </trkpt>
      <trkpt lat="38.3824740" lon="-2.5530950">
        <ele>1053.8</ele>
        <time>2019-11-01T08:56:41Z</time>
      </trkpt>
      <trkpt lat="38.3824440" lon="-2.5530420">
        <ele>1055.9</ele>
        <time>2019-11-01T08:56:43Z</time>
      </trkpt>
      <trkpt lat="38.3824130" lon="-2.5529900">
        <ele>1055.9</ele>
        <time>2019-11-01T08:56:45Z</time>
      </trkpt>
      <trkpt lat="38.3823820" lon="-2.5529410">
        <ele>1055.9</ele>
        <time>2019-11-01T08:56:47Z</time>
      </trkpt>
      <trkpt lat="38.3823280" lon="-2.5528720">
        <ele>1055.9</ele>
        <time>2019-11-01T08:56:50Z</time>
      </trkpt>
      <trkpt lat="38.3822900" lon="-2.5528310">
        <ele>1055.9</ele>
        <time>2019-11-01T08:56:52Z</time>
      </trkpt>
      <trkpt lat="38.3822260" lon="-2.5527740">
        <ele>1055.9</ele>
        <time>2019-11-01T08:56:55Z</time>
      </trkpt>
      <trkpt lat="38.3821820" lon="-2.5527350">
        <ele>1055.9</ele>
        <time>2019-11-01T08:56:57Z</time>
      </trkpt>
      <trkpt lat="38.3821440" lon="-2.5527050">
        <ele>1058.4</ele>
        <time>2019-11-01T08:56:59Z</time>
      </trkpt>
      <trkpt lat="38.3821060" lon="-2.5526760">
        <ele>1058.4</ele>
        <time>2019-11-01T08:57:01Z</time>
      </trkpt>
      <trkpt lat="38.3820490" lon="-2.5526240">
        <ele>1058.4</ele>
        <time>2019-11-01T08:57:04Z</time>
      </trkpt>
      <trkpt lat="38.3820160" lon="-2.5525780">
        <ele>1058.4</ele>
        <time>2019-11-01T08:57:06Z</time>
      </trkpt>
      <trkpt lat="38.3819700" lon="-2.5525000">
        <ele>1058.4</ele>
        <time>2019-11-01T08:57:09Z</time>
      </trkpt>
      <trkpt lat="38.3819490" lon="-2.5524430">
        <ele>1058.4</ele>
        <time>2019-11-01T08:57:11Z</time>
      </trkpt>
      <trkpt lat="38.3819390" lon="-2.5523540">
        <ele>1058.4</ele>
        <time>2019-11-01T08:57:14Z</time>
      </trkpt>
      <trkpt lat="38.3819420" lon="-2.5522920">
        <ele>1060.6</ele>
        <time>2019-11-01T08:57:16Z</time>
      </trkpt>
      <trkpt lat="38.3819490" lon="-2.5521990">
        <ele>1060.6</ele>
        <time>2019-11-01T08:57:19Z</time>
      </trkpt>
      <trkpt lat="38.3819570" lon="-2.5521060">
        <ele>1060.6</ele>
        <time>2019-11-01T08:57:22Z</time>
      </trkpt>
      <trkpt lat="38.3819700" lon="-2.5520200">
        <ele>1060.6</ele>
        <time>2019-11-01T08:57:25Z</time>
      </trkpt>
      <trkpt lat="38.3819780" lon="-2.5519480">
        <ele>1060.6</ele>
        <time>2019-11-01T08:57:28Z</time>
      </trkpt>
      <trkpt lat="38.3819850" lon="-2.5518630">
        <ele>1062.7</ele>
        <time>2019-11-01T08:57:32Z</time>
      </trkpt>
      <trkpt lat="38.3819960" lon="-2.5517960">
        <ele>1062.7</ele>
        <time>2019-11-01T08:57:35Z</time>
      </trkpt>
      <trkpt lat="38.3819960" lon="-2.5517210">
        <ele>1062.7</ele>
        <time>2019-11-01T08:57:38Z</time>
      </trkpt>
      <trkpt lat="38.3819880" lon="-2.5516440">
        <ele>1062.7</ele>
        <time>2019-11-01T08:57:41Z</time>
      </trkpt>
      <trkpt lat="38.3819800" lon="-2.5515670">
        <ele>1062.7</ele>
        <time>2019-11-01T08:57:44Z</time>
      </trkpt>
      <trkpt lat="38.3819720" lon="-2.5514890">
        <ele>1065.3</ele>
        <time>2019-11-01T08:57:47Z</time>
      </trkpt>
      <trkpt lat="38.3819780" lon="-2.5514330">
        <ele>1065.3</ele>
        <time>2019-11-01T08:57:49Z</time>
      </trkpt>
      <trkpt lat="38.3819800" lon="-2.5513490">
        <ele>1065.3</ele>
        <time>2019-11-01T08:57:52Z</time>
      </trkpt>
      <trkpt lat="38.3819930" lon="-2.5512660">
        <ele>1065.3</ele>
        <time>2019-11-01T08:57:55Z</time>
      </trkpt>
      <trkpt lat="38.3820110" lon="-2.5511930">
        <ele>1065.3</ele>
        <time>2019-11-01T08:57:58Z</time>
      </trkpt>
      <trkpt lat="38.3820310" lon="-2.5511180">
        <ele>1065.3</ele>
        <time>2019-11-01T08:58:01Z</time>
      </trkpt>
      <trkpt lat="38.3820470" lon="-2.5510360">
        <ele>1068.1</ele>
        <time>2019-11-01T08:58:04Z</time>
      </trkpt>
      <trkpt lat="38.3820620" lon="-2.5509560">
        <ele>1068.1</ele>
        <time>2019-11-01T08:58:07Z</time>
      </trkpt>
      <trkpt lat="38.3820770" lon="-2.5508820">
        <ele>1068.1</ele>
        <time>2019-11-01T08:58:10Z</time>
      </trkpt>
      <trkpt lat="38.3820850" lon="-2.5508000">
        <ele>1068.1</ele>
        <time>2019-11-01T08:58:13Z</time>
      </trkpt>
      <trkpt lat="38.3820880" lon="-2.5507170">
        <ele>1068.1</ele>
        <time>2019-11-01T08:58:16Z</time>
      </trkpt>
      <trkpt lat="38.3820980" lon="-2.5506350">
        <ele>1070.8</ele>
        <time>2019-11-01T08:58:19Z</time>
      </trkpt>
      <trkpt lat="38.3820980" lon="-2.5505790">
        <ele>1070.8</ele>
        <time>2019-11-01T08:58:21Z</time>
      </trkpt>
      <trkpt lat="38.3820980" lon="-2.5504880">
        <ele>1070.8</ele>
        <time>2019-11-01T08:58:24Z</time>
      </trkpt>
      <trkpt lat="38.3820950" lon="-2.5503950">
        <ele>1070.8</ele>
        <time>2019-11-01T08:58:27Z</time>
      </trkpt>
      <trkpt lat="38.3820950" lon="-2.5503060">
        <ele>1070.8</ele>
        <time>2019-11-01T08:58:30Z</time>
      </trkpt>
      <trkpt lat="38.3821030" lon="-2.5502220">
        <ele>1070.8</ele>
        <time>2019-11-01T08:58:33Z</time>
      </trkpt>
      <trkpt lat="38.3821030" lon="-2.5501440">
        <ele>1073.1</ele>
        <time>2019-11-01T08:58:36Z</time>
      </trkpt>
      <trkpt lat="38.3820980" lon="-2.5500600">
        <ele>1073.1</ele>
        <time>2019-11-01T08:58:39Z</time>
      </trkpt>
      <trkpt lat="38.3820950" lon="-2.5499720">
        <ele>1073.1</ele>
        <time>2019-11-01T08:58:42Z</time>
      </trkpt>
      <trkpt lat="38.3821030" lon="-2.5498870">
        <ele>1073.1</ele>
        <time>2019-11-01T08:58:45Z</time>
      </trkpt>
      <trkpt lat="38.3821110" lon="-2.5497950">
        <ele>1073.1</ele>
        <time>2019-11-01T08:58:48Z</time>
      </trkpt>
      <trkpt lat="38.3821130" lon="-2.5497120">
        <ele>1075.4</ele>
        <time>2019-11-01T08:58:51Z</time>
      </trkpt>
      <trkpt lat="38.3821110" lon="-2.5496580">
        <ele>1075.4</ele>
        <time>2019-11-01T08:58:53Z</time>
      </trkpt>
      <trkpt lat="38.3821130" lon="-2.5495860">
        <ele>1075.4</ele>
        <time>2019-11-01T08:58:56Z</time>
      </trkpt>
      <trkpt lat="38.3821260" lon="-2.5495140">
        <ele>1075.4</ele>
        <time>2019-11-01T08:58:59Z</time>
      </trkpt>
      <trkpt lat="38.3821360" lon="-2.5494340">
        <ele>1075.4</ele>
        <time>2019-11-01T08:59:02Z</time>
      </trkpt>
      <trkpt lat="38.3821360" lon="-2.5493530">
        <ele>1075.4</ele>
        <time>2019-11-01T08:59:05Z</time>
      </trkpt>
      <trkpt lat="38.3821440" lon="-2.5492730">
        <ele>1077.9</ele>
        <time>2019-11-01T08:59:08Z</time>
      </trkpt>
      <trkpt lat="38.3821520" lon="-2.5491880">
        <ele>1077.9</ele>
        <time>2019-11-01T08:59:11Z</time>
      </trkpt>
      <trkpt lat="38.3821570" lon="-2.5491060">
        <ele>1077.9</ele>
        <time>2019-11-01T08:59:14Z</time>
      </trkpt>
      <trkpt lat="38.3821670" lon="-2.5490160">
        <ele>1077.9</ele>
        <time>2019-11-01T08:59:17Z</time>
      </trkpt>
      <trkpt lat="38.3821880" lon="-2.5489250">
        <ele>1077.9</ele>
        <time>2019-11-01T08:59:20Z</time>
      </trkpt>
      <trkpt lat="38.3822050" lon="-2.5488550">
        <ele>1077.9</ele>
        <time>2019-11-01T08:59:22Z</time>
      </trkpt>
      <trkpt lat="38.3822260" lon="-2.5487780">
        <ele>1080.1</ele>
        <time>2019-11-01T08:59:24Z</time>
      </trkpt>
      <trkpt lat="38.3822490" lon="-2.5487020">
        <ele>1080.1</ele>
        <time>2019-11-01T08:59:26Z</time>
      </trkpt>
      <trkpt lat="38.3822750" lon="-2.5486180">
        <ele>1080.1</ele>
        <time>2019-11-01T08:59:28Z</time>
      </trkpt>
      <trkpt lat="38.3823080" lon="-2.5485270">
        <ele>1080.1</ele>
        <time>2019-11-01T08:59:30Z</time>
      </trkpt>
      <trkpt lat="38.3823390" lon="-2.5484290">
        <ele>1080.1</ele>
        <time>2019-11-01T08:59:32Z</time>
      </trkpt>
      <trkpt lat="38.3823690" lon="-2.5483250">
        <ele>1080.1</ele>
        <time>2019-11-01T08:59:34Z</time>
      </trkpt>
      <trkpt lat="38.3824000" lon="-2.5482250">
        <ele>1080.1</ele>
        <time>2019-11-01T08:59:36Z</time>
      </trkpt>
      <trkpt lat="38.3824310" lon="-2.5481240">
        <ele>1080.1</ele>
        <time>2019-11-01T08:59:38Z</time>
      </trkpt>
      <trkpt lat="38.3824540" lon="-2.5480310">
        <ele>1082.4</ele>
        <time>2019-11-01T08:59:40Z</time>
      </trkpt>
      <trkpt lat="38.3824770" lon="-2.5479380">
        <ele>1082.4</ele>
        <time>2019-11-01T08:59:42Z</time>
      </trkpt>
      <trkpt lat="38.3824950" lon="-2.5478500">
        <ele>1082.4</ele>
        <time>2019-11-01T08:59:44Z</time>
      </trkpt>
      <trkpt lat="38.3825100" lon="-2.5477710">
        <ele>1082.4</ele>
        <time>2019-11-01T08:59:46Z</time>
      </trkpt>
      <trkpt lat="38.3825310" lon="-2.5477010">
        <ele>1082.4</ele>
        <time>2019-11-01T08:59:48Z</time>
      </trkpt>
      <trkpt lat="38.3825480" lon="-2.5476400">
        <ele>1082.4</ele>
        <time>2019-11-01T08:59:50Z</time>
      </trkpt>
      <trkpt lat="38.3825690" lon="-2.5475560">
        <ele>1082.4</ele>
        <time>2019-11-01T08:59:53Z</time>
      </trkpt>
      <trkpt lat="38.3825790" lon="-2.5474660">
        <ele>1082.4</ele>
        <time>2019-11-01T08:59:56Z</time>
      </trkpt>
      <trkpt lat="38.3825840" lon="-2.5474040">
        <ele>1082.4</ele>
        <time>2019-11-01T08:59:58Z</time>
      </trkpt>
      <trkpt lat="38.3825840" lon="-2.5473080">
        <ele>1084.5</ele>
        <time>2019-11-01T09:00:01Z</time>
      </trkpt>
      <trkpt lat="38.3825720" lon="-2.5472490">
        <ele>1084.5</ele>
        <time>2019-11-01T09:00:03Z</time>
      </trkpt>
      <trkpt lat="38.3825410" lon="-2.5471720">
        <ele>1084.5</ele>
        <time>2019-11-01T09:00:06Z</time>
      </trkpt>
      <trkpt lat="38.3825020" lon="-2.5471100">
        <ele>1084.5</ele>
        <time>2019-11-01T09:00:09Z</time>
      </trkpt>
      <trkpt lat="38.3824460" lon="-2.5470700">
        <ele>1084.5</ele>
        <time>2019-11-01T09:00:12Z</time>
      </trkpt>
      <trkpt lat="38.3823770" lon="-2.5470550">
        <ele>1084.5</ele>
        <time>2019-11-01T09:00:15Z</time>
      </trkpt>
      <trkpt lat="38.3823210" lon="-2.5470700">
        <ele>1084.5</ele>
        <time>2019-11-01T09:00:18Z</time>
      </trkpt>
      <trkpt lat="38.3822800" lon="-2.5471070">
        <ele>1086.5</ele>
        <time>2019-11-01T09:00:21Z</time>
      </trkpt>
      <trkpt lat="38.3822410" lon="-2.5471830">
        <ele>1086.5</ele>
        <time>2019-11-01T09:00:25Z</time>
      </trkpt>
      <trkpt lat="38.3821950" lon="-2.5472490">
        <ele>1086.5</ele>
        <time>2019-11-01T09:00:28Z</time>
      </trkpt>
      <trkpt lat="38.3821640" lon="-2.5473150">
        <ele>1086.5</ele>
        <time>2019-11-01T09:00:31Z</time>
      </trkpt>
      <trkpt lat="38.3821340" lon="-2.5473820">
        <ele>1086.5</ele>
        <time>2019-11-01T09:00:34Z</time>
      </trkpt>
      <trkpt lat="38.3821130" lon="-2.5474440">
        <ele>1088.5</ele>
        <time>2019-11-01T09:00:37Z</time>
      </trkpt>
      <trkpt lat="38.3820880" lon="-2.5475070">
        <ele>1088.5</ele>
        <time>2019-11-01T09:00:40Z</time>
      </trkpt>
      <trkpt lat="38.3820570" lon="-2.5475680">
        <ele>1088.5</ele>
        <time>2019-11-01T09:00:43Z</time>
      </trkpt>
      <trkpt lat="38.3820310" lon="-2.5476320">
        <ele>1088.5</ele>
        <time>2019-11-01T09:00:46Z</time>
      </trkpt>
      <trkpt lat="38.3820030" lon="-2.5476960">
        <ele>1090.6</ele>
        <time>2019-11-01T09:00:49Z</time>
      </trkpt>
      <trkpt lat="38.3819800" lon="-2.5477570">
        <ele>1090.6</ele>
        <time>2019-11-01T09:00:52Z</time>
      </trkpt>
      <trkpt lat="38.3819570" lon="-2.5478220">
        <ele>1090.6</ele>
        <time>2019-11-01T09:00:55Z</time>
      </trkpt>
      <trkpt lat="38.3819340" lon="-2.5478880">
        <ele>1090.6</ele>
        <time>2019-11-01T09:00:58Z</time>
      </trkpt>
      <trkpt lat="38.3819110" lon="-2.5479540">
        <ele>1090.6</ele>
        <time>2019-11-01T09:01:01Z</time>
      </trkpt>
      <trkpt lat="38.3818850" lon="-2.5480120">
        <ele>1090.6</ele>
        <time>2019-11-01T09:01:04Z</time>
      </trkpt>
      <trkpt lat="38.3818600" lon="-2.5480610">
        <ele>1092.7</ele>
        <time>2019-11-01T09:01:07Z</time>
      </trkpt>
      <trkpt lat="38.3818290" lon="-2.5481160">
        <ele>1092.7</ele>
        <time>2019-11-01T09:01:10Z</time>
      </trkpt>
      <trkpt lat="38.3818010" lon="-2.5481740">
        <ele>1092.7</ele>
        <time>2019-11-01T09:01:13Z</time>
      </trkpt>
      <trkpt lat="38.3817700" lon="-2.5482320">
        <ele>1092.7</ele>
        <time>2019-11-01T09:01:16Z</time>
      </trkpt>
      <trkpt lat="38.3817320" lon="-2.5482920">
        <ele>1092.7</ele>
        <time>2019-11-01T09:01:19Z</time>
      </trkpt>
      <trkpt lat="38.3817040" lon="-2.5483470">
        <ele>1094.7</ele>
        <time>2019-11-01T09:01:22Z</time>
      </trkpt>
      <trkpt lat="38.3816730" lon="-2.5484000">
        <ele>1094.7</ele>
        <time>2019-11-01T09:01:25Z</time>
      </trkpt>
      <trkpt lat="38.3816370" lon="-2.5484710">
        <ele>1094.7</ele>
        <time>2019-11-01T09:01:29Z</time>
      </trkpt>
      <trkpt lat="38.3816060" lon="-2.5485230">
        <ele>1094.7</ele>
        <time>2019-11-01T09:01:32Z</time>
      </trkpt>
      <trkpt lat="38.3815810" lon="-2.5485950">
        <ele>1094.7</ele>
        <time>2019-11-01T09:01:36Z</time>
      </trkpt>
      <trkpt lat="38.3815600" lon="-2.5486520">
        <ele>1096.7</ele>
        <time>2019-11-01T09:01:39Z</time>
      </trkpt>
      <trkpt lat="38.3815370" lon="-2.5487110">
        <ele>1096.7</ele>
        <time>2019-11-01T09:01:42Z</time>
      </trkpt>
      <trkpt lat="38.3815140" lon="-2.5487750">
        <ele>1096.7</ele>
        <time>2019-11-01T09:01:45Z</time>
      </trkpt>
      <trkpt lat="38.3814890" lon="-2.5488370">
        <ele>1096.7</ele>
        <time>2019-11-01T09:01:48Z</time>
      </trkpt>
      <trkpt lat="38.3814660" lon="-2.5488950">
        <ele>1098.8</ele>
        <time>2019-11-01T09:01:51Z</time>
      </trkpt>
      <trkpt lat="38.3814430" lon="-2.5489620">
        <ele>1098.8</ele>
        <time>2019-11-01T09:01:54Z</time>
      </trkpt>
      <trkpt lat="38.3814200" lon="-2.5490280">
        <ele>1098.8</ele>
        <time>2019-11-01T09:01:57Z</time>
      </trkpt>
      <trkpt lat="38.3813960" lon="-2.5490910">
        <ele>1098.8</ele>
        <time>2019-11-01T09:02:00Z</time>
      </trkpt>
      <trkpt lat="38.3813790" lon="-2.5491760">
        <ele>1098.8</ele>
        <time>2019-11-01T09:02:04Z</time>
      </trkpt>
      <trkpt lat="38.3813560" lon="-2.5492400">
        <ele>1100.8</ele>
        <time>2019-11-01T09:02:07Z</time>
      </trkpt>
      <trkpt lat="38.3813320" lon="-2.5493010">
        <ele>1100.8</ele>
        <time>2019-11-01T09:02:10Z</time>
      </trkpt>
      <trkpt lat="38.3813020" lon="-2.5493670">
        <ele>1100.8</ele>
        <time>2019-11-01T09:02:13Z</time>
      </trkpt>
      <trkpt lat="38.3812790" lon="-2.5494290">
        <ele>1100.8</ele>
        <time>2019-11-01T09:02:16Z</time>
      </trkpt>
      <trkpt lat="38.3812560" lon="-2.5494940">
        <ele>1100.8</ele>
        <time>2019-11-01T09:02:19Z</time>
      </trkpt>
      <trkpt lat="38.3812380" lon="-2.5495590">
        <ele>1100.8</ele>
        <time>2019-11-01T09:02:22Z</time>
      </trkpt>
      <trkpt lat="38.3812100" lon="-2.5496210">
        <ele>1102.9</ele>
        <time>2019-11-01T09:02:25Z</time>
      </trkpt>
      <trkpt lat="38.3811760" lon="-2.5496820">
        <ele>1102.9</ele>
        <time>2019-11-01T09:02:28Z</time>
      </trkpt>
      <trkpt lat="38.3811460" lon="-2.5497420">
        <ele>1102.9</ele>
        <time>2019-11-01T09:02:31Z</time>
      </trkpt>
      <trkpt lat="38.3811120" lon="-2.5498000">
        <ele>1102.9</ele>
        <time>2019-11-01T09:02:34Z</time>
      </trkpt>
      <trkpt lat="38.3810820" lon="-2.5498540">
        <ele>1102.9</ele>
        <time>2019-11-01T09:02:37Z</time>
      </trkpt>
      <trkpt lat="38.3810460" lon="-2.5499180">
        <ele>1102.9</ele>
        <time>2019-11-01T09:02:40Z</time>
      </trkpt>
      <trkpt lat="38.3810230" lon="-2.5499840">
        <ele>1102.9</ele>
        <time>2019-11-01T09:02:43Z</time>
      </trkpt>
      <trkpt lat="38.3809920" lon="-2.5500410">
        <ele>1102.9</ele>
        <time>2019-11-01T09:02:46Z</time>
      </trkpt>
      <trkpt lat="38.3809540" lon="-2.5500970">
        <ele>1104.9</ele>
        <time>2019-11-01T09:02:49Z</time>
      </trkpt>
      <trkpt lat="38.3809330" lon="-2.5501580">
        <ele>1104.9</ele>
        <time>2019-11-01T09:02:52Z</time>
      </trkpt>
      <trkpt lat="38.3809020" lon="-2.5502210">
        <ele>1104.9</ele>
        <time>2019-11-01T09:02:55Z</time>
      </trkpt>
      <trkpt lat="38.3808670" lon="-2.5502860">
        <ele>1104.9</ele>
        <time>2019-11-01T09:02:58Z</time>
      </trkpt>
      <trkpt lat="38.3808490" lon="-2.5503480">
        <ele>1104.9</ele>
        <time>2019-11-01T09:03:01Z</time>
      </trkpt>
      <trkpt lat="38.3808280" lon="-2.5504130">
        <ele>1106.9</ele>
        <time>2019-11-01T09:03:04Z</time>
      </trkpt>
      <trkpt lat="38.3808050" lon="-2.5504810">
        <ele>1106.9</ele>
        <time>2019-11-01T09:03:07Z</time>
      </trkpt>
      <trkpt lat="38.3807900" lon="-2.5505530">
        <ele>1106.9</ele>
        <time>2019-11-01T09:03:10Z</time>
      </trkpt>
      <trkpt lat="38.3807720" lon="-2.5506210">
        <ele>1106.9</ele>
        <time>2019-11-01T09:03:13Z</time>
      </trkpt>
      <trkpt lat="38.3807560" lon="-2.5506920">
        <ele>1106.9</ele>
        <time>2019-11-01T09:03:16Z</time>
      </trkpt>
      <trkpt lat="38.3807390" lon="-2.5507540">
        <ele>1106.9</ele>
        <time>2019-11-01T09:03:19Z</time>
      </trkpt>
      <trkpt lat="38.3807180" lon="-2.5508170">
        <ele>1106.9</ele>
        <time>2019-11-01T09:03:22Z</time>
      </trkpt>
      <trkpt lat="38.3806950" lon="-2.5508770">
        <ele>1109.8</ele>
        <time>2019-11-01T09:03:25Z</time>
      </trkpt>
      <trkpt lat="38.3806770" lon="-2.5509390">
        <ele>1109.8</ele>
        <time>2019-11-01T09:03:28Z</time>
      </trkpt>
      <trkpt lat="38.3806540" lon="-2.5510010">
        <ele>1109.8</ele>
        <time>2019-11-01T09:03:31Z</time>
      </trkpt>
      <trkpt lat="38.3806260" lon="-2.5510790">
        <ele>1109.8</ele>
        <time>2019-11-01T09:03:34Z</time>
      </trkpt>
      <trkpt lat="38.3806030" lon="-2.5511540">
        <ele>1109.8</ele>
        <time>2019-11-01T09:03:37Z</time>
      </trkpt>
      <trkpt lat="38.3805850" lon="-2.5512280">
        <ele>1112.2</ele>
        <time>2019-11-01T09:03:40Z</time>
      </trkpt>
      <trkpt lat="38.3805700" lon="-2.5512980">
        <ele>1112.2</ele>
        <time>2019-11-01T09:03:43Z</time>
      </trkpt>
      <trkpt lat="38.3805490" lon="-2.5513610">
        <ele>1112.2</ele>
        <time>2019-11-01T09:03:46Z</time>
      </trkpt>
      <trkpt lat="38.3805290" lon="-2.5514450">
        <ele>1112.2</ele>
        <time>2019-11-01T09:03:50Z</time>
      </trkpt>
      <trkpt lat="38.3805130" lon="-2.5515070">
        <ele>1112.2</ele>
        <time>2019-11-01T09:03:53Z</time>
      </trkpt>
      <trkpt lat="38.3804900" lon="-2.5515690">
        <ele>1112.2</ele>
        <time>2019-11-01T09:03:56Z</time>
      </trkpt>
      <trkpt lat="38.3804700" lon="-2.5516330">
        <ele>1114.2</ele>
        <time>2019-11-01T09:03:59Z</time>
      </trkpt>
      <trkpt lat="38.3804520" lon="-2.5517010">
        <ele>1114.2</ele>
        <time>2019-11-01T09:04:02Z</time>
      </trkpt>
      <trkpt lat="38.3804310" lon="-2.5517740">
        <ele>1114.2</ele>
        <time>2019-11-01T09:04:05Z</time>
      </trkpt>
      <trkpt lat="38.3804290" lon="-2.5518440">
        <ele>1114.2</ele>
        <time>2019-11-01T09:04:08Z</time>
      </trkpt>
      <trkpt lat="38.3804440" lon="-2.5519190">
        <ele>1114.2</ele>
        <time>2019-11-01T09:04:12Z</time>
      </trkpt>
      <trkpt lat="38.3804770" lon="-2.5519970">
        <ele>1116.3</ele>
        <time>2019-11-01T09:04:16Z</time>
      </trkpt>
      <trkpt lat="38.3805080" lon="-2.5520550">
        <ele>1116.3</ele>
        <time>2019-11-01T09:04:19Z</time>
      </trkpt>
      <trkpt lat="38.3805360" lon="-2.5521200">
        <ele>1116.3</ele>
        <time>2019-11-01T09:04:22Z</time>
      </trkpt>
      <trkpt lat="38.3805470" lon="-2.5521860">
        <ele>1116.3</ele>
        <time>2019-11-01T09:04:25Z</time>
      </trkpt>
      <trkpt lat="38.3805540" lon="-2.5522530">
        <ele>1116.3</ele>
        <time>2019-11-01T09:04:28Z</time>
      </trkpt>
      <trkpt lat="38.3805540" lon="-2.5523220">
        <ele>1116.3</ele>
        <time>2019-11-01T09:04:31Z</time>
      </trkpt>
      <trkpt lat="38.3805470" lon="-2.5523960">
        <ele>1116.3</ele>
        <time>2019-11-01T09:04:34Z</time>
      </trkpt>
      <trkpt lat="38.3805390" lon="-2.5524700">
        <ele>1118.3</ele>
        <time>2019-11-01T09:04:37Z</time>
      </trkpt>
      <trkpt lat="38.3805390" lon="-2.5525360">
        <ele>1118.3</ele>
        <time>2019-11-01T09:04:40Z</time>
      </trkpt>
      <trkpt lat="38.3805290" lon="-2.5526230">
        <ele>1118.3</ele>
        <time>2019-11-01T09:04:44Z</time>
      </trkpt>
      <trkpt lat="38.3805160" lon="-2.5527180">
        <ele>1118.3</ele>
        <time>2019-11-01T09:04:48Z</time>
      </trkpt>
      <trkpt lat="38.3805060" lon="-2.5528030">
        <ele>1118.3</ele>
        <time>2019-11-01T09:04:51Z</time>
      </trkpt>
      <trkpt lat="38.3805000" lon="-2.5528790">
        <ele>1118.3</ele>
        <time>2019-11-01T09:04:54Z</time>
      </trkpt>
      <trkpt lat="38.3804930" lon="-2.5529600">
        <ele>1120.4</ele>
        <time>2019-11-01T09:04:57Z</time>
      </trkpt>
      <trkpt lat="38.3804850" lon="-2.5530450">
        <ele>1120.4</ele>
        <time>2019-11-01T09:05:00Z</time>
      </trkpt>
      <trkpt lat="38.3804750" lon="-2.5531320">
        <ele>1120.4</ele>
        <time>2019-11-01T09:05:03Z</time>
      </trkpt>
      <trkpt lat="38.3804620" lon="-2.5531960">
        <ele>1120.4</ele>
        <time>2019-11-01T09:05:05Z</time>
      </trkpt>
      <trkpt lat="38.3804470" lon="-2.5532920">
        <ele>1120.4</ele>
        <time>2019-11-01T09:05:08Z</time>
      </trkpt>
      <trkpt lat="38.3804360" lon="-2.5533590">
        <ele>1120.4</ele>
        <time>2019-11-01T09:05:10Z</time>
      </trkpt>
      <trkpt lat="38.3804290" lon="-2.5534240">
        <ele>1122.5</ele>
        <time>2019-11-01T09:05:12Z</time>
      </trkpt>
      <trkpt lat="38.3804240" lon="-2.5534830">
        <ele>1122.5</ele>
        <time>2019-11-01T09:05:14Z</time>
      </trkpt>
      <trkpt lat="38.3804290" lon="-2.5535720">
        <ele>1122.5</ele>
        <time>2019-11-01T09:05:17Z</time>
      </trkpt>
      <trkpt lat="38.3804440" lon="-2.5536580">
        <ele>1122.5</ele>
        <time>2019-11-01T09:05:20Z</time>
      </trkpt>
      <trkpt lat="38.3804700" lon="-2.5537430">
        <ele>1122.5</ele>
        <time>2019-11-01T09:05:23Z</time>
      </trkpt>
      <trkpt lat="38.3804980" lon="-2.5538300">
        <ele>1124.5</ele>
        <time>2019-11-01T09:05:26Z</time>
      </trkpt>
      <trkpt lat="38.3805240" lon="-2.5539130">
        <ele>1124.5</ele>
        <time>2019-11-01T09:05:29Z</time>
      </trkpt>
      <trkpt lat="38.3805470" lon="-2.5539980">
        <ele>1124.5</ele>
        <time>2019-11-01T09:05:32Z</time>
      </trkpt>
      <trkpt lat="38.3805570" lon="-2.5540610">
        <ele>1124.5</ele>
        <time>2019-11-01T09:05:34Z</time>
      </trkpt>
      <trkpt lat="38.3805620" lon="-2.5541580">
        <ele>1124.5</ele>
        <time>2019-11-01T09:05:37Z</time>
      </trkpt>
      <trkpt lat="38.3805540" lon="-2.5542190">
        <ele>1124.5</ele>
        <time>2019-11-01T09:05:39Z</time>
      </trkpt>
      <trkpt lat="38.3805490" lon="-2.5543070">
        <ele>1126.5</ele>
        <time>2019-11-01T09:05:42Z</time>
      </trkpt>
      <trkpt lat="38.3805620" lon="-2.5543840">
        <ele>1126.5</ele>
        <time>2019-11-01T09:05:45Z</time>
      </trkpt>
      <trkpt lat="38.3805640" lon="-2.5544660">
        <ele>1126.5</ele>
        <time>2019-11-01T09:05:48Z</time>
      </trkpt>
      <trkpt lat="38.3805570" lon="-2.5545470">
        <ele>1126.5</ele>
        <time>2019-11-01T09:05:51Z</time>
      </trkpt>
      <trkpt lat="38.3805440" lon="-2.5546230">
        <ele>1126.5</ele>
        <time>2019-11-01T09:05:54Z</time>
      </trkpt>
      <trkpt lat="38.3805160" lon="-2.5546930">
        <ele>1128.6</ele>
        <time>2019-11-01T09:05:57Z</time>
      </trkpt>
      <trkpt lat="38.3804770" lon="-2.5547550">
        <ele>1128.6</ele>
        <time>2019-11-01T09:06:00Z</time>
      </trkpt>
      <trkpt lat="38.3804390" lon="-2.5548000">
        <ele>1128.6</ele>
        <time>2019-11-01T09:06:03Z</time>
      </trkpt>
      <trkpt lat="38.3803930" lon="-2.5548450">
        <ele>1128.6</ele>
        <time>2019-11-01T09:06:06Z</time>
      </trkpt>
      <trkpt lat="38.3803440" lon="-2.5548910">
        <ele>1130.6</ele>
        <time>2019-11-01T09:06:09Z</time>
      </trkpt>
      <trkpt lat="38.3802910" lon="-2.5549170">
        <ele>1130.6</ele>
        <time>2019-11-01T09:06:12Z</time>
      </trkpt>
      <trkpt lat="38.3802290" lon="-2.5549200">
        <ele>1130.6</ele>
        <time>2019-11-01T09:06:15Z</time>
      </trkpt>
      <trkpt lat="38.3801750" lon="-2.5549150">
        <ele>1130.6</ele>
        <time>2019-11-01T09:06:18Z</time>
      </trkpt>
      <trkpt lat="38.3801270" lon="-2.5548780">
        <ele>1132.7</ele>
        <time>2019-11-01T09:06:22Z</time>
      </trkpt>
      <trkpt lat="38.3800960" lon="-2.5548320">
        <ele>1132.7</ele>
        <time>2019-11-01T09:06:25Z</time>
      </trkpt>
      <trkpt lat="38.3800650" lon="-2.5547570">
        <ele>1132.7</ele>
        <time>2019-11-01T09:06:29Z</time>
      </trkpt>
      <trkpt lat="38.3800420" lon="-2.5546820">
        <ele>1132.7</ele>
        <time>2019-11-01T09:06:33Z</time>
      </trkpt>
      <trkpt lat="38.3800320" lon="-2.5546080">
        <ele>1134.7</ele>
        <time>2019-11-01T09:06:36Z</time>
      </trkpt>
      <trkpt lat="38.3800190" lon="-2.5545370">
        <ele>1134.7</ele>
        <time>2019-11-01T09:06:39Z</time>
      </trkpt>
      <trkpt lat="38.3800120" lon="-2.5544590">
        <ele>1134.7</ele>
        <time>2019-11-01T09:06:42Z</time>
      </trkpt>
      <trkpt lat="38.3800040" lon="-2.5543750">
        <ele>1134.7</ele>
        <time>2019-11-01T09:06:45Z</time>
      </trkpt>
      <trkpt lat="38.3800010" lon="-2.5542900">
        <ele>1134.7</ele>
        <time>2019-11-01T09:06:48Z</time>
      </trkpt>
      <trkpt lat="38.3800040" lon="-2.5542140">
        <ele>1134.7</ele>
        <time>2019-11-01T09:06:51Z</time>
      </trkpt>
      <trkpt lat="38.3800120" lon="-2.5541260">
        <ele>1136.7</ele>
        <time>2019-11-01T09:06:54Z</time>
      </trkpt>
      <trkpt lat="38.3800120" lon="-2.5540380">
        <ele>1136.7</ele>
        <time>2019-11-01T09:06:57Z</time>
      </trkpt>
      <trkpt lat="38.3800120" lon="-2.5539480">
        <ele>1136.7</ele>
        <time>2019-11-01T09:07:00Z</time>
      </trkpt>
      <trkpt lat="38.3800190" lon="-2.5538520">
        <ele>1136.7</ele>
        <time>2019-11-01T09:07:03Z</time>
      </trkpt>
      <trkpt lat="38.3800240" lon="-2.5537580">
        <ele>1136.7</ele>
        <time>2019-11-01T09:07:06Z</time>
      </trkpt>
      <trkpt lat="38.3800170" lon="-2.5536970">
        <ele>1136.7</ele>
        <time>2019-11-01T09:07:08Z</time>
      </trkpt>
      <trkpt lat="38.3799960" lon="-2.5536100">
        <ele>1136.7</ele>
        <time>2019-11-01T09:07:11Z</time>
      </trkpt>
      <trkpt lat="38.3799810" lon="-2.5535550">
        <ele>1138.8</ele>
        <time>2019-11-01T09:07:13Z</time>
      </trkpt>
      <trkpt lat="38.3799450" lon="-2.5534830">
        <ele>1138.8</ele>
        <time>2019-11-01T09:07:16Z</time>
      </trkpt>
      <trkpt lat="38.3798940" lon="-2.5534400">
        <ele>1138.8</ele>
        <time>2019-11-01T09:07:19Z</time>
      </trkpt>
      <trkpt lat="38.3798400" lon="-2.5534240">
        <ele>1138.8</ele>
        <time>2019-11-01T09:07:22Z</time>
      </trkpt>
      <trkpt lat="38.3797860" lon="-2.5534330">
        <ele>1138.8</ele>
        <time>2019-11-01T09:07:25Z</time>
      </trkpt>
      <trkpt lat="38.3797220" lon="-2.5534530">
        <ele>1140.8</ele>
        <time>2019-11-01T09:07:28Z</time>
      </trkpt>
      <trkpt lat="38.3796740" lon="-2.5534970">
        <ele>1140.8</ele>
        <time>2019-11-01T09:07:31Z</time>
      </trkpt>
      <trkpt lat="38.3796350" lon="-2.5535610">
        <ele>1140.8</ele>
        <time>2019-11-01T09:07:34Z</time>
      </trkpt>
      <trkpt lat="38.3796150" lon="-2.5536320">
        <ele>1140.8</ele>
        <time>2019-11-01T09:07:37Z</time>
      </trkpt>
      <trkpt lat="38.3795990" lon="-2.5537120">
        <ele>1140.8</ele>
        <time>2019-11-01T09:07:40Z</time>
      </trkpt>
      <trkpt lat="38.3795920" lon="-2.5537660">
        <ele>1142.8</ele>
        <time>2019-11-01T09:07:42Z</time>
      </trkpt>
      <trkpt lat="38.3795840" lon="-2.5538450">
        <ele>1142.8</ele>
        <time>2019-11-01T09:07:45Z</time>
      </trkpt>
      <trkpt lat="38.3795840" lon="-2.5539210">
        <ele>1142.8</ele>
        <time>2019-11-01T09:07:48Z</time>
      </trkpt>
      <trkpt lat="38.3795810" lon="-2.5539960">
        <ele>1142.8</ele>
        <time>2019-11-01T09:07:51Z</time>
      </trkpt>
      <trkpt lat="38.3795810" lon="-2.5540830">
        <ele>1142.8</ele>
        <time>2019-11-01T09:07:54Z</time>
      </trkpt>
      <trkpt lat="38.3795810" lon="-2.5541460">
        <ele>1145.1</ele>
        <time>2019-11-01T09:07:56Z</time>
      </trkpt>
      <trkpt lat="38.3795840" lon="-2.5542110">
        <ele>1145.1</ele>
        <time>2019-11-01T09:07:58Z</time>
      </trkpt>
      <trkpt lat="38.3795840" lon="-2.5543150">
        <ele>1145.1</ele>
        <time>2019-11-01T09:08:01Z</time>
      </trkpt>
      <trkpt lat="38.3795840" lon="-2.5543780">
        <ele>1145.1</ele>
        <time>2019-11-01T09:08:03Z</time>
      </trkpt>
      <trkpt lat="38.3795810" lon="-2.5544370">
        <ele>1145.1</ele>
        <time>2019-11-01T09:08:05Z</time>
      </trkpt>
      <trkpt lat="38.3795580" lon="-2.5545150">
        <ele>1145.1</ele>
        <time>2019-11-01T09:08:08Z</time>
      </trkpt>
      <trkpt lat="38.3795200" lon="-2.5546010">
        <ele>1147.5</ele>
        <time>2019-11-01T09:08:11Z</time>
      </trkpt>
      <trkpt lat="38.3794940" lon="-2.5546580">
        <ele>1147.5</ele>
        <time>2019-11-01T09:08:13Z</time>
      </trkpt>
      <trkpt lat="38.3794560" lon="-2.5547390">
        <ele>1147.5</ele>
        <time>2019-11-01T09:08:16Z</time>
      </trkpt>
      <trkpt lat="38.3794330" lon="-2.5547930">
        <ele>1147.5</ele>
        <time>2019-11-01T09:08:18Z</time>
      </trkpt>
      <trkpt lat="38.3793950" lon="-2.5548780">
        <ele>1147.5</ele>
        <time>2019-11-01T09:08:21Z</time>
      </trkpt>
      <trkpt lat="38.3793720" lon="-2.5549660">
        <ele>1147.5</ele>
        <time>2019-11-01T09:08:24Z</time>
      </trkpt>
      <trkpt lat="38.3793640" lon="-2.5550260">
        <ele>1147.5</ele>
        <time>2019-11-01T09:08:26Z</time>
      </trkpt>
      <trkpt lat="38.3793540" lon="-2.5550870">
        <ele>1149.7</ele>
        <time>2019-11-01T09:08:28Z</time>
      </trkpt>
      <trkpt lat="38.3793460" lon="-2.5551720">
        <ele>1149.7</ele>
        <time>2019-11-01T09:08:31Z</time>
      </trkpt>
      <trkpt lat="38.3793480" lon="-2.5552340">
        <ele>1149.7</ele>
        <time>2019-11-01T09:08:34Z</time>
      </trkpt>
      <trkpt lat="38.3793770" lon="-2.5552090">
        <ele>1149.7</ele>
        <time>2019-11-01T09:08:40Z</time>
      </trkpt>
      <trkpt lat="38.3793690" lon="-2.5551670">
        <ele>1152.1</ele>
        <time>2019-11-01T09:08:44Z</time>
      </trkpt>
      <trkpt lat="38.3792870" lon="-2.5550740">
        <ele>1154.1</ele>
        <time>2019-11-01T09:09:47Z</time>
      </trkpt>
      <trkpt lat="38.3793180" lon="-2.5550780">
        <ele>1156.1</ele>
        <time>2019-11-01T09:09:59Z</time>
      </trkpt>
      <trkpt lat="38.3793540" lon="-2.5552550">
        <ele>1156.1</ele>
        <time>2019-11-01T09:12:12Z</time>
      </trkpt>
      <trkpt lat="38.3793380" lon="-2.5553410">
        <ele>1158.1</ele>
        <time>2019-11-01T09:12:17Z</time>
      </trkpt>
      <trkpt lat="38.3793310" lon="-2.5554150">
        <ele>1158.1</ele>
        <time>2019-11-01T09:12:20Z</time>
      </trkpt>
      <trkpt lat="38.3793230" lon="-2.5554910">
        <ele>1158.1</ele>
        <time>2019-11-01T09:12:23Z</time>
      </trkpt>
      <trkpt lat="38.3793100" lon="-2.5555670">
        <ele>1158.1</ele>
        <time>2019-11-01T09:12:26Z</time>
      </trkpt>
      <trkpt lat="38.3793020" lon="-2.5556540">
        <ele>1158.1</ele>
        <time>2019-11-01T09:12:29Z</time>
      </trkpt>
      <trkpt lat="38.3792920" lon="-2.5557410">
        <ele>1158.1</ele>
        <time>2019-11-01T09:12:32Z</time>
      </trkpt>
      <trkpt lat="38.3792720" lon="-2.5558260">
        <ele>1158.1</ele>
        <time>2019-11-01T09:12:35Z</time>
      </trkpt>
      <trkpt lat="38.3792560" lon="-2.5558850">
        <ele>1160.1</ele>
        <time>2019-11-01T09:12:37Z</time>
      </trkpt>
      <trkpt lat="38.3792410" lon="-2.5559390">
        <ele>1160.1</ele>
        <time>2019-11-01T09:12:39Z</time>
      </trkpt>
      <trkpt lat="38.3792100" lon="-2.5560210">
        <ele>1160.1</ele>
        <time>2019-11-01T09:12:42Z</time>
      </trkpt>
      <trkpt lat="38.3791820" lon="-2.5560930">
        <ele>1160.1</ele>
        <time>2019-11-01T09:12:45Z</time>
      </trkpt>
      <trkpt lat="38.3791460" lon="-2.5561560">
        <ele>1160.1</ele>
        <time>2019-11-01T09:12:48Z</time>
      </trkpt>
      <trkpt lat="38.3791080" lon="-2.5562140">
        <ele>1160.1</ele>
        <time>2019-11-01T09:12:51Z</time>
      </trkpt>
      <trkpt lat="38.3790670" lon="-2.5562740">
        <ele>1160.1</ele>
        <time>2019-11-01T09:12:54Z</time>
      </trkpt>
      <trkpt lat="38.3790210" lon="-2.5563310">
        <ele>1160.1</ele>
        <time>2019-11-01T09:12:57Z</time>
      </trkpt>
      <trkpt lat="38.3789720" lon="-2.5563800">
        <ele>1162.9</ele>
        <time>2019-11-01T09:13:00Z</time>
      </trkpt>
      <trkpt lat="38.3789210" lon="-2.5564200">
        <ele>1162.9</ele>
        <time>2019-11-01T09:13:03Z</time>
      </trkpt>
      <trkpt lat="38.3788750" lon="-2.5564580">
        <ele>1162.9</ele>
        <time>2019-11-01T09:13:06Z</time>
      </trkpt>
      <trkpt lat="38.3788290" lon="-2.5564840">
        <ele>1162.9</ele>
        <time>2019-11-01T09:13:09Z</time>
      </trkpt>
      <trkpt lat="38.3787800" lon="-2.5565050">
        <ele>1162.9</ele>
        <time>2019-11-01T09:13:12Z</time>
      </trkpt>
      <trkpt lat="38.3787260" lon="-2.5565250">
        <ele>1162.9</ele>
        <time>2019-11-01T09:13:15Z</time>
      </trkpt>
      <trkpt lat="38.3786780" lon="-2.5565450">
        <ele>1164.9</ele>
        <time>2019-11-01T09:13:18Z</time>
      </trkpt>
      <trkpt lat="38.3786140" lon="-2.5565670">
        <ele>1164.9</ele>
        <time>2019-11-01T09:13:21Z</time>
      </trkpt>
      <trkpt lat="38.3785470" lon="-2.5565860">
        <ele>1164.9</ele>
        <time>2019-11-01T09:13:24Z</time>
      </trkpt>
      <trkpt lat="38.3784860" lon="-2.5566110">
        <ele>1164.9</ele>
        <time>2019-11-01T09:13:27Z</time>
      </trkpt>
      <trkpt lat="38.3784320" lon="-2.5566350">
        <ele>1164.9</ele>
        <time>2019-11-01T09:13:30Z</time>
      </trkpt>
      <trkpt lat="38.3783960" lon="-2.5566520">
        <ele>1167.0</ele>
        <time>2019-11-01T09:13:33Z</time>
      </trkpt>
      <trkpt lat="38.3783270" lon="-2.5566710">
        <ele>1167.0</ele>
        <time>2019-11-01T09:13:37Z</time>
      </trkpt>
      <trkpt lat="38.3782730" lon="-2.5566900">
        <ele>1167.0</ele>
        <time>2019-11-01T09:13:40Z</time>
      </trkpt>
      <trkpt lat="38.3782270" lon="-2.5567180">
        <ele>1167.0</ele>
        <time>2019-11-01T09:13:43Z</time>
      </trkpt>
      <trkpt lat="38.3781790" lon="-2.5567500">
        <ele>1167.0</ele>
        <time>2019-11-01T09:13:46Z</time>
      </trkpt>
      <trkpt lat="38.3781120" lon="-2.5567760">
        <ele>1169.1</ele>
        <time>2019-11-01T09:13:49Z</time>
      </trkpt>
      <trkpt lat="38.3780580" lon="-2.5568090">
        <ele>1169.1</ele>
        <time>2019-11-01T09:13:52Z</time>
      </trkpt>
      <trkpt lat="38.3780100" lon="-2.5568580">
        <ele>1169.1</ele>
        <time>2019-11-01T09:13:55Z</time>
      </trkpt>
      <trkpt lat="38.3779760" lon="-2.5569210">
        <ele>1169.1</ele>
        <time>2019-11-01T09:13:58Z</time>
      </trkpt>
      <trkpt lat="38.3779400" lon="-2.5569840">
        <ele>1169.1</ele>
        <time>2019-11-01T09:14:01Z</time>
      </trkpt>
      <trkpt lat="38.3779100" lon="-2.5570460">
        <ele>1171.2</ele>
        <time>2019-11-01T09:14:04Z</time>
      </trkpt>
      <trkpt lat="38.3778840" lon="-2.5571020">
        <ele>1171.2</ele>
        <time>2019-11-01T09:14:07Z</time>
      </trkpt>
      <trkpt lat="38.3778460" lon="-2.5571580">
        <ele>1171.2</ele>
        <time>2019-11-01T09:14:10Z</time>
      </trkpt>
      <trkpt lat="38.3778050" lon="-2.5572150">
        <ele>1171.2</ele>
        <time>2019-11-01T09:14:13Z</time>
      </trkpt>
      <trkpt lat="38.3777590" lon="-2.5572810">
        <ele>1171.2</ele>
        <time>2019-11-01T09:14:16Z</time>
      </trkpt>
      <trkpt lat="38.3777200" lon="-2.5573510">
        <ele>1171.2</ele>
        <time>2019-11-01T09:14:19Z</time>
      </trkpt>
      <trkpt lat="38.3776920" lon="-2.5574210">
        <ele>1171.2</ele>
        <time>2019-11-01T09:14:22Z</time>
      </trkpt>
      <trkpt lat="38.3776610" lon="-2.5574930">
        <ele>1171.2</ele>
        <time>2019-11-01T09:14:25Z</time>
      </trkpt>
      <trkpt lat="38.3776260" lon="-2.5575640">
        <ele>1171.2</ele>
        <time>2019-11-01T09:14:28Z</time>
      </trkpt>
      <trkpt lat="38.3775820" lon="-2.5576370">
        <ele>1173.2</ele>
        <time>2019-11-01T09:14:31Z</time>
      </trkpt>
      <trkpt lat="38.3775510" lon="-2.5576870">
        <ele>1173.2</ele>
        <time>2019-11-01T09:14:33Z</time>
      </trkpt>
      <trkpt lat="38.3775210" lon="-2.5577320">
        <ele>1173.2</ele>
        <time>2019-11-01T09:14:35Z</time>
      </trkpt>
      <trkpt lat="38.3774800" lon="-2.5577910">
        <ele>1173.2</ele>
        <time>2019-11-01T09:14:38Z</time>
      </trkpt>
      <trkpt lat="38.3774410" lon="-2.5578460">
        <ele>1173.2</ele>
        <time>2019-11-01T09:14:41Z</time>
      </trkpt>
      <trkpt lat="38.3774030" lon="-2.5579120">
        <ele>1173.2</ele>
        <time>2019-11-01T09:14:45Z</time>
      </trkpt>
      <trkpt lat="38.3773640" lon="-2.5579630">
        <ele>1173.2</ele>
        <time>2019-11-01T09:14:48Z</time>
      </trkpt>
      <trkpt lat="38.3773110" lon="-2.5580090">
        <ele>1175.9</ele>
        <time>2019-11-01T09:14:51Z</time>
      </trkpt>
      <trkpt lat="38.3772770" lon="-2.5580400">
        <ele>1175.9</ele>
        <time>2019-11-01T09:14:53Z</time>
      </trkpt>
      <trkpt lat="38.3772240" lon="-2.5580890">
        <ele>1175.9</ele>
        <time>2019-11-01T09:14:56Z</time>
      </trkpt>
      <trkpt lat="38.3771780" lon="-2.5581390">
        <ele>1175.9</ele>
        <time>2019-11-01T09:14:59Z</time>
      </trkpt>
      <trkpt lat="38.3771290" lon="-2.5581890">
        <ele>1175.9</ele>
        <time>2019-11-01T09:15:02Z</time>
      </trkpt>
      <trkpt lat="38.3770830" lon="-2.5582310">
        <ele>1175.9</ele>
        <time>2019-11-01T09:15:05Z</time>
      </trkpt>
      <trkpt lat="38.3770290" lon="-2.5582660">
        <ele>1178.0</ele>
        <time>2019-11-01T09:15:08Z</time>
      </trkpt>
      <trkpt lat="38.3769730" lon="-2.5582920">
        <ele>1178.0</ele>
        <time>2019-11-01T09:15:11Z</time>
      </trkpt>
      <trkpt lat="38.3769110" lon="-2.5583200">
        <ele>1178.0</ele>
        <time>2019-11-01T09:15:14Z</time>
      </trkpt>
      <trkpt lat="38.3768500" lon="-2.5583450">
        <ele>1178.0</ele>
        <time>2019-11-01T09:15:17Z</time>
      </trkpt>
      <trkpt lat="38.3767860" lon="-2.5583700">
        <ele>1178.0</ele>
        <time>2019-11-01T09:15:20Z</time>
      </trkpt>
      <trkpt lat="38.3767320" lon="-2.5584010">
        <ele>1178.0</ele>
        <time>2019-11-01T09:15:23Z</time>
      </trkpt>
      <trkpt lat="38.3766860" lon="-2.5584380">
        <ele>1178.0</ele>
        <time>2019-11-01T09:15:26Z</time>
      </trkpt>
      <trkpt lat="38.3766370" lon="-2.5584720">
        <ele>1180.0</ele>
        <time>2019-11-01T09:15:29Z</time>
      </trkpt>
      <trkpt lat="38.3765840" lon="-2.5585020">
        <ele>1180.0</ele>
        <time>2019-11-01T09:15:32Z</time>
      </trkpt>
      <trkpt lat="38.3765320" lon="-2.5585340">
        <ele>1180.0</ele>
        <time>2019-11-01T09:15:35Z</time>
      </trkpt>
      <trkpt lat="38.3764740" lon="-2.5585700">
        <ele>1180.0</ele>
        <time>2019-11-01T09:15:38Z</time>
      </trkpt>
      <trkpt lat="38.3764200" lon="-2.5586040">
        <ele>1180.0</ele>
        <time>2019-11-01T09:15:41Z</time>
      </trkpt>
      <trkpt lat="38.3763610" lon="-2.5586420">
        <ele>1180.0</ele>
        <time>2019-11-01T09:15:44Z</time>
      </trkpt>
      <trkpt lat="38.3763020" lon="-2.5586750">
        <ele>1182.0</ele>
        <time>2019-11-01T09:15:47Z</time>
      </trkpt>
      <trkpt lat="38.3762510" lon="-2.5587200">
        <ele>1182.0</ele>
        <time>2019-11-01T09:15:50Z</time>
      </trkpt>
      <trkpt lat="38.3762020" lon="-2.5587640">
        <ele>1182.0</ele>
        <time>2019-11-01T09:15:53Z</time>
      </trkpt>
      <trkpt lat="38.3761430" lon="-2.5588060">
        <ele>1182.0</ele>
        <time>2019-11-01T09:15:56Z</time>
      </trkpt>
      <trkpt lat="38.3760920" lon="-2.5588500">
        <ele>1182.0</ele>
        <time>2019-11-01T09:15:59Z</time>
      </trkpt>
      <trkpt lat="38.3760330" lon="-2.5588900">
        <ele>1182.0</ele>
        <time>2019-11-01T09:16:02Z</time>
      </trkpt>
      <trkpt lat="38.3759800" lon="-2.5589370">
        <ele>1182.0</ele>
        <time>2019-11-01T09:16:05Z</time>
      </trkpt>
      <trkpt lat="38.3759310" lon="-2.5589850">
        <ele>1182.0</ele>
        <time>2019-11-01T09:16:08Z</time>
      </trkpt>
      <trkpt lat="38.3758820" lon="-2.5590330">
        <ele>1184.7</ele>
        <time>2019-11-01T09:16:11Z</time>
      </trkpt>
      <trkpt lat="38.3758390" lon="-2.5590790">
        <ele>1184.7</ele>
        <time>2019-11-01T09:16:14Z</time>
      </trkpt>
      <trkpt lat="38.3757850" lon="-2.5591260">
        <ele>1184.7</ele>
        <time>2019-11-01T09:16:17Z</time>
      </trkpt>
      <trkpt lat="38.3757130" lon="-2.5591940">
        <ele>1184.7</ele>
        <time>2019-11-01T09:16:21Z</time>
      </trkpt>
      <trkpt lat="38.3756570" lon="-2.5592470">
        <ele>1184.7</ele>
        <time>2019-11-01T09:16:24Z</time>
      </trkpt>
      <trkpt lat="38.3756030" lon="-2.5593010">
        <ele>1184.7</ele>
        <time>2019-11-01T09:16:27Z</time>
      </trkpt>
      <trkpt lat="38.3755420" lon="-2.5593550">
        <ele>1184.7</ele>
        <time>2019-11-01T09:16:30Z</time>
      </trkpt>
      <trkpt lat="38.3755080" lon="-2.5593890">
        <ele>1184.7</ele>
        <time>2019-11-01T09:16:32Z</time>
      </trkpt>
      <trkpt lat="38.3754550" lon="-2.5594460">
        <ele>1184.7</ele>
        <time>2019-11-01T09:16:35Z</time>
      </trkpt>
      <trkpt lat="38.3754270" lon="-2.5594840">
        <ele>1186.7</ele>
        <time>2019-11-01T09:16:37Z</time>
      </trkpt>
      <trkpt lat="38.3753730" lon="-2.5595400">
        <ele>1186.7</ele>
        <time>2019-11-01T09:16:40Z</time>
      </trkpt>
      <trkpt lat="38.3753220" lon="-2.5595910">
        <ele>1186.7</ele>
        <time>2019-11-01T09:16:43Z</time>
      </trkpt>
      <trkpt lat="38.3752700" lon="-2.5596490">
        <ele>1186.7</ele>
        <time>2019-11-01T09:16:46Z</time>
      </trkpt>
      <trkpt lat="38.3752220" lon="-2.5597110">
        <ele>1186.7</ele>
        <time>2019-11-01T09:16:49Z</time>
      </trkpt>
      <trkpt lat="38.3751780" lon="-2.5597790">
        <ele>1186.7</ele>
        <time>2019-11-01T09:16:52Z</time>
      </trkpt>
      <trkpt lat="38.3751350" lon="-2.5598430">
        <ele>1186.7</ele>
        <time>2019-11-01T09:16:55Z</time>
      </trkpt>
      <trkpt lat="38.3750840" lon="-2.5599110">
        <ele>1186.7</ele>
        <time>2019-11-01T09:16:58Z</time>
      </trkpt>
      <trkpt lat="38.3750500" lon="-2.5599540">
        <ele>1189.1</ele>
        <time>2019-11-01T09:17:00Z</time>
      </trkpt>
      <trkpt lat="38.3749990" lon="-2.5600180">
        <ele>1189.1</ele>
        <time>2019-11-01T09:17:03Z</time>
      </trkpt>
      <trkpt lat="38.3749480" lon="-2.5600850">
        <ele>1189.1</ele>
        <time>2019-11-01T09:17:06Z</time>
      </trkpt>
      <trkpt lat="38.3749090" lon="-2.5601340">
        <ele>1189.1</ele>
        <time>2019-11-01T09:17:08Z</time>
      </trkpt>
      <trkpt lat="38.3748740" lon="-2.5601790">
        <ele>1189.1</ele>
        <time>2019-11-01T09:17:10Z</time>
      </trkpt>
      <trkpt lat="38.3748250" lon="-2.5602470">
        <ele>1189.1</ele>
        <time>2019-11-01T09:17:13Z</time>
      </trkpt>
      <trkpt lat="38.3747740" lon="-2.5603070">
        <ele>1189.1</ele>
        <time>2019-11-01T09:17:16Z</time>
      </trkpt>
      <trkpt lat="38.3747380" lon="-2.5603520">
        <ele>1189.1</ele>
        <time>2019-11-01T09:17:18Z</time>
      </trkpt>
      <trkpt lat="38.3746870" lon="-2.5604160">
        <ele>1191.1</ele>
        <time>2019-11-01T09:17:21Z</time>
      </trkpt>
      <trkpt lat="38.3746530" lon="-2.5604600">
        <ele>1191.1</ele>
        <time>2019-11-01T09:17:23Z</time>
      </trkpt>
      <trkpt lat="38.3746150" lon="-2.5604990">
        <ele>1191.1</ele>
        <time>2019-11-01T09:17:25Z</time>
      </trkpt>
      <trkpt lat="38.3745540" lon="-2.5605560">
        <ele>1191.1</ele>
        <time>2019-11-01T09:17:28Z</time>
      </trkpt>
      <trkpt lat="38.3744970" lon="-2.5606070">
        <ele>1191.1</ele>
        <time>2019-11-01T09:17:31Z</time>
      </trkpt>
      <trkpt lat="38.3744310" lon="-2.5606490">
        <ele>1191.1</ele>
        <time>2019-11-01T09:17:34Z</time>
      </trkpt>
      <trkpt lat="38.3743640" lon="-2.5606810">
        <ele>1191.1</ele>
        <time>2019-11-01T09:17:37Z</time>
      </trkpt>
      <trkpt lat="38.3742900" lon="-2.5607040">
        <ele>1191.1</ele>
        <time>2019-11-01T09:17:40Z</time>
      </trkpt>
      <trkpt lat="38.3742410" lon="-2.5607150">
        <ele>1191.1</ele>
        <time>2019-11-01T09:17:42Z</time>
      </trkpt>
      <trkpt lat="38.3741720" lon="-2.5607250">
        <ele>1191.1</ele>
        <time>2019-11-01T09:17:45Z</time>
      </trkpt>
      <trkpt lat="38.3741240" lon="-2.5607320">
        <ele>1194.1</ele>
        <time>2019-11-01T09:17:47Z</time>
      </trkpt>
      <trkpt lat="38.3740700" lon="-2.5607390">
        <ele>1194.1</ele>
        <time>2019-11-01T09:17:49Z</time>
      </trkpt>
      <trkpt lat="38.3740190" lon="-2.5607430">
        <ele>1194.1</ele>
        <time>2019-11-01T09:17:51Z</time>
      </trkpt>
      <trkpt lat="38.3739390" lon="-2.5607470">
        <ele>1194.1</ele>
        <time>2019-11-01T09:17:54Z</time>
      </trkpt>
      <trkpt lat="38.3738910" lon="-2.5607460">
        <ele>1194.1</ele>
        <time>2019-11-01T09:17:56Z</time>
      </trkpt>
      <trkpt lat="38.3738160" lon="-2.5607370">
        <ele>1194.1</ele>
        <time>2019-11-01T09:17:59Z</time>
      </trkpt>
      <trkpt lat="38.3737500" lon="-2.5607200">
        <ele>1194.1</ele>
        <time>2019-11-01T09:18:02Z</time>
      </trkpt>
      <trkpt lat="38.3736810" lon="-2.5606910">
        <ele>1196.1</ele>
        <time>2019-11-01T09:18:05Z</time>
      </trkpt>
      <trkpt lat="38.3736350" lon="-2.5606700">
        <ele>1196.1</ele>
        <time>2019-11-01T09:18:07Z</time>
      </trkpt>
      <trkpt lat="38.3735630" lon="-2.5606380">
        <ele>1196.1</ele>
        <time>2019-11-01T09:18:10Z</time>
      </trkpt>
      <trkpt lat="38.3735170" lon="-2.5606210">
        <ele>1196.1</ele>
        <time>2019-11-01T09:18:12Z</time>
      </trkpt>
      <trkpt lat="38.3734480" lon="-2.5605920">
        <ele>1196.1</ele>
        <time>2019-11-01T09:18:15Z</time>
      </trkpt>
      <trkpt lat="38.3733790" lon="-2.5605640">
        <ele>1196.1</ele>
        <time>2019-11-01T09:18:18Z</time>
      </trkpt>
      <trkpt lat="38.3733150" lon="-2.5605380">
        <ele>1198.1</ele>
        <time>2019-11-01T09:18:21Z</time>
      </trkpt>
      <trkpt lat="38.3732450" lon="-2.5605150">
        <ele>1198.1</ele>
        <time>2019-11-01T09:18:24Z</time>
      </trkpt>
      <trkpt lat="38.3731810" lon="-2.5604950">
        <ele>1198.1</ele>
        <time>2019-11-01T09:18:27Z</time>
      </trkpt>
      <trkpt lat="38.3731150" lon="-2.5604740">
        <ele>1198.1</ele>
        <time>2019-11-01T09:18:30Z</time>
      </trkpt>
      <trkpt lat="38.3730510" lon="-2.5604550">
        <ele>1198.1</ele>
        <time>2019-11-01T09:18:33Z</time>
      </trkpt>
      <trkpt lat="38.3729870" lon="-2.5604360">
        <ele>1198.1</ele>
        <time>2019-11-01T09:18:36Z</time>
      </trkpt>
      <trkpt lat="38.3729410" lon="-2.5604260">
        <ele>1198.1</ele>
        <time>2019-11-01T09:18:38Z</time>
      </trkpt>
      <trkpt lat="38.3728790" lon="-2.5604070">
        <ele>1198.1</ele>
        <time>2019-11-01T09:18:41Z</time>
      </trkpt>
      <trkpt lat="38.3728100" lon="-2.5603880">
        <ele>1198.1</ele>
        <time>2019-11-01T09:18:44Z</time>
      </trkpt>
      <trkpt lat="38.3727540" lon="-2.5603710">
        <ele>1200.2</ele>
        <time>2019-11-01T09:18:47Z</time>
      </trkpt>
      <trkpt lat="38.3726920" lon="-2.5603500">
        <ele>1200.2</ele>
        <time>2019-11-01T09:18:50Z</time>
      </trkpt>
      <trkpt lat="38.3726280" lon="-2.5603300">
        <ele>1200.2</ele>
        <time>2019-11-01T09:18:53Z</time>
      </trkpt>
      <trkpt lat="38.3725670" lon="-2.5603110">
        <ele>1200.2</ele>
        <time>2019-11-01T09:18:56Z</time>
      </trkpt>
      <trkpt lat="38.3725060" lon="-2.5602810">
        <ele>1200.2</ele>
        <time>2019-11-01T09:18:59Z</time>
      </trkpt>
      <trkpt lat="38.3724440" lon="-2.5602460">
        <ele>1200.2</ele>
        <time>2019-11-01T09:19:02Z</time>
      </trkpt>
      <trkpt lat="38.3723880" lon="-2.5602120">
        <ele>1200.2</ele>
        <time>2019-11-01T09:19:05Z</time>
      </trkpt>
      <trkpt lat="38.3723260" lon="-2.5601780">
        <ele>1202.6</ele>
        <time>2019-11-01T09:19:08Z</time>
      </trkpt>
      <trkpt lat="38.3722650" lon="-2.5601390">
        <ele>1202.6</ele>
        <time>2019-11-01T09:19:11Z</time>
      </trkpt>
      <trkpt lat="38.3722040" lon="-2.5600920">
        <ele>1202.6</ele>
        <time>2019-11-01T09:19:14Z</time>
      </trkpt>
      <trkpt lat="38.3721500" lon="-2.5600450">
        <ele>1202.6</ele>
        <time>2019-11-01T09:19:17Z</time>
      </trkpt>
      <trkpt lat="38.3720880" lon="-2.5600030">
        <ele>1202.6</ele>
        <time>2019-11-01T09:19:20Z</time>
      </trkpt>
      <trkpt lat="38.3720290" lon="-2.5599540">
        <ele>1202.6</ele>
        <time>2019-11-01T09:19:23Z</time>
      </trkpt>
      <trkpt lat="38.3719780" lon="-2.5599030">
        <ele>1202.6</ele>
        <time>2019-11-01T09:19:26Z</time>
      </trkpt>
      <trkpt lat="38.3719320" lon="-2.5598500">
        <ele>1202.6</ele>
        <time>2019-11-01T09:19:29Z</time>
      </trkpt>
      <trkpt lat="38.3718780" lon="-2.5597930">
        <ele>1202.6</ele>
        <time>2019-11-01T09:19:32Z</time>
      </trkpt>
      <trkpt lat="38.3718270" lon="-2.5597530">
        <ele>1202.6</ele>
        <time>2019-11-01T09:19:35Z</time>
      </trkpt>
      <trkpt lat="38.3717840" lon="-2.5597360">
        <ele>1204.7</ele>
        <time>2019-11-01T09:19:37Z</time>
      </trkpt>
      <trkpt lat="38.3717220" lon="-2.5597310">
        <ele>1204.7</ele>
        <time>2019-11-01T09:19:40Z</time>
      </trkpt>
      <trkpt lat="38.3716660" lon="-2.5597440">
        <ele>1204.7</ele>
        <time>2019-11-01T09:19:43Z</time>
      </trkpt>
      <trkpt lat="38.3716170" lon="-2.5597660">
        <ele>1204.7</ele>
        <time>2019-11-01T09:19:46Z</time>
      </trkpt>
      <trkpt lat="38.3715660" lon="-2.5597930">
        <ele>1204.7</ele>
        <time>2019-11-01T09:19:49Z</time>
      </trkpt>
      <trkpt lat="38.3715170" lon="-2.5598260">
        <ele>1204.7</ele>
        <time>2019-11-01T09:19:52Z</time>
      </trkpt>
      <trkpt lat="38.3714610" lon="-2.5598760">
        <ele>1207.4</ele>
        <time>2019-11-01T09:19:55Z</time>
      </trkpt>
      <trkpt lat="38.3714180" lon="-2.5599120">
        <ele>1207.4</ele>
        <time>2019-11-01T09:19:57Z</time>
      </trkpt>
      <trkpt lat="38.3713770" lon="-2.5599480">
        <ele>1207.4</ele>
        <time>2019-11-01T09:19:59Z</time>
      </trkpt>
      <trkpt lat="38.3713250" lon="-2.5600090">
        <ele>1207.4</ele>
        <time>2019-11-01T09:20:02Z</time>
      </trkpt>
      <trkpt lat="38.3712920" lon="-2.5600550">
        <ele>1207.4</ele>
        <time>2019-11-01T09:20:04Z</time>
      </trkpt>
      <trkpt lat="38.3712540" lon="-2.5601360">
        <ele>1207.4</ele>
        <time>2019-11-01T09:20:07Z</time>
      </trkpt>
      <trkpt lat="38.3712280" lon="-2.5602140">
        <ele>1207.4</ele>
        <time>2019-11-01T09:20:10Z</time>
      </trkpt>
      <trkpt lat="38.3712050" lon="-2.5602940">
        <ele>1209.4</ele>
        <time>2019-11-01T09:20:13Z</time>
      </trkpt>
      <trkpt lat="38.3711850" lon="-2.5603490">
        <ele>1209.4</ele>
        <time>2019-11-01T09:20:15Z</time>
      </trkpt>
      <trkpt lat="38.3711540" lon="-2.5604270">
        <ele>1209.4</ele>
        <time>2019-11-01T09:20:18Z</time>
      </trkpt>
      <trkpt lat="38.3711360" lon="-2.5604830">
        <ele>1209.4</ele>
        <time>2019-11-01T09:20:20Z</time>
      </trkpt>
      <trkpt lat="38.3711130" lon="-2.5605540">
        <ele>1209.4</ele>
        <time>2019-11-01T09:20:23Z</time>
      </trkpt>
      <trkpt lat="38.3710920" lon="-2.5606250">
        <ele>1209.4</ele>
        <time>2019-11-01T09:20:26Z</time>
      </trkpt>
      <trkpt lat="38.3710670" lon="-2.5607020">
        <ele>1209.4</ele>
        <time>2019-11-01T09:20:29Z</time>
      </trkpt>
      <trkpt lat="38.3710360" lon="-2.5607750">
        <ele>1211.5</ele>
        <time>2019-11-01T09:20:32Z</time>
      </trkpt>
      <trkpt lat="38.3710180" lon="-2.5608250">
        <ele>1211.5</ele>
        <time>2019-11-01T09:20:34Z</time>
      </trkpt>
      <trkpt lat="38.3709900" lon="-2.5609040">
        <ele>1211.5</ele>
        <time>2019-11-01T09:20:37Z</time>
      </trkpt>
      <trkpt lat="38.3709590" lon="-2.5609880">
        <ele>1211.5</ele>
        <time>2019-11-01T09:20:40Z</time>
      </trkpt>
      <trkpt lat="38.3709360" lon="-2.5610660">
        <ele>1211.5</ele>
        <time>2019-11-01T09:20:43Z</time>
      </trkpt>
      <trkpt lat="38.3709110" lon="-2.5611280">
        <ele>1211.5</ele>
        <time>2019-11-01T09:20:46Z</time>
      </trkpt>
      <trkpt lat="38.3708880" lon="-2.5612060">
        <ele>1211.5</ele>
        <time>2019-11-01T09:20:49Z</time>
      </trkpt>
      <trkpt lat="38.3708540" lon="-2.5612800">
        <ele>1213.5</ele>
        <time>2019-11-01T09:20:52Z</time>
      </trkpt>
      <trkpt lat="38.3708310" lon="-2.5613260">
        <ele>1213.5</ele>
        <time>2019-11-01T09:20:54Z</time>
      </trkpt>
      <trkpt lat="38.3707930" lon="-2.5614050">
        <ele>1213.5</ele>
        <time>2019-11-01T09:20:57Z</time>
      </trkpt>
      <trkpt lat="38.3707620" lon="-2.5614910">
        <ele>1213.5</ele>
        <time>2019-11-01T09:21:00Z</time>
      </trkpt>
      <trkpt lat="38.3707390" lon="-2.5615520">
        <ele>1213.5</ele>
        <time>2019-11-01T09:21:02Z</time>
      </trkpt>
      <trkpt lat="38.3707160" lon="-2.5616170">
        <ele>1213.5</ele>
        <time>2019-11-01T09:21:04Z</time>
      </trkpt>
      <trkpt lat="38.3706980" lon="-2.5616810">
        <ele>1213.5</ele>
        <time>2019-11-01T09:21:06Z</time>
      </trkpt>
      <trkpt lat="38.3706700" lon="-2.5617350">
        <ele>1213.5</ele>
        <time>2019-11-01T09:21:08Z</time>
      </trkpt>
      <trkpt lat="38.3706240" lon="-2.5618100">
        <ele>1213.5</ele>
        <time>2019-11-01T09:21:11Z</time>
      </trkpt>
      <trkpt lat="38.3705700" lon="-2.5618670">
        <ele>1215.5</ele>
        <time>2019-11-01T09:21:14Z</time>
      </trkpt>
      <trkpt lat="38.3705220" lon="-2.5619020">
        <ele>1215.5</ele>
        <time>2019-11-01T09:21:17Z</time>
      </trkpt>
      <trkpt lat="38.3704760" lon="-2.5619040">
        <ele>1215.5</ele>
        <time>2019-11-01T09:21:20Z</time>
      </trkpt>
      <trkpt lat="38.3704140" lon="-2.5618590">
        <ele>1215.5</ele>
        <time>2019-11-01T09:21:24Z</time>
      </trkpt>
      <trkpt lat="38.3703830" lon="-2.5618040">
        <ele>1215.5</ele>
        <time>2019-11-01T09:21:27Z</time>
      </trkpt>
      <trkpt lat="38.3703680" lon="-2.5617410">
        <ele>1215.5</ele>
        <time>2019-11-01T09:21:30Z</time>
      </trkpt>
      <trkpt lat="38.3703680" lon="-2.5616780">
        <ele>1218.5</ele>
        <time>2019-11-01T09:21:33Z</time>
      </trkpt>
      <trkpt lat="38.3703760" lon="-2.5616080">
        <ele>1218.5</ele>
        <time>2019-11-01T09:21:36Z</time>
      </trkpt>
      <trkpt lat="38.3703880" lon="-2.5615430">
        <ele>1218.5</ele>
        <time>2019-11-01T09:21:39Z</time>
      </trkpt>
      <trkpt lat="38.3704040" lon="-2.5614710">
        <ele>1218.5</ele>
        <time>2019-11-01T09:21:42Z</time>
      </trkpt>
      <trkpt lat="38.3704190" lon="-2.5613890">
        <ele>1218.5</ele>
        <time>2019-11-01T09:21:45Z</time>
      </trkpt>
      <trkpt lat="38.3704350" lon="-2.5613100">
        <ele>1218.5</ele>
        <time>2019-11-01T09:21:48Z</time>
      </trkpt>
      <trkpt lat="38.3704520" lon="-2.5612340">
        <ele>1218.5</ele>
        <time>2019-11-01T09:21:51Z</time>
      </trkpt>
      <trkpt lat="38.3704730" lon="-2.5611590">
        <ele>1220.5</ele>
        <time>2019-11-01T09:21:54Z</time>
      </trkpt>
      <trkpt lat="38.3704960" lon="-2.5610770">
        <ele>1220.5</ele>
        <time>2019-11-01T09:21:57Z</time>
      </trkpt>
      <trkpt lat="38.3705140" lon="-2.5609990">
        <ele>1220.5</ele>
        <time>2019-11-01T09:22:00Z</time>
      </trkpt>
      <trkpt lat="38.3705370" lon="-2.5609220">
        <ele>1220.5</ele>
        <time>2019-11-01T09:22:03Z</time>
      </trkpt>
      <trkpt lat="38.3705550" lon="-2.5608410">
        <ele>1220.5</ele>
        <time>2019-11-01T09:22:06Z</time>
      </trkpt>
      <trkpt lat="38.3705630" lon="-2.5607660">
        <ele>1222.6</ele>
        <time>2019-11-01T09:22:09Z</time>
      </trkpt>
      <trkpt lat="38.3705700" lon="-2.5607020">
        <ele>1222.6</ele>
        <time>2019-11-01T09:22:12Z</time>
      </trkpt>
      <trkpt lat="38.3705700" lon="-2.5606390">
        <ele>1222.6</ele>
        <time>2019-11-01T09:22:15Z</time>
      </trkpt>
      <trkpt lat="38.3705750" lon="-2.5605480">
        <ele>1222.6</ele>
        <time>2019-11-01T09:22:19Z</time>
      </trkpt>
      <trkpt lat="38.3705910" lon="-2.5604800">
        <ele>1224.7</ele>
        <time>2019-11-01T09:22:22Z</time>
      </trkpt>
      <trkpt lat="38.3706010" lon="-2.5604300">
        <ele>1224.7</ele>
        <time>2019-11-01T09:22:24Z</time>
      </trkpt>
      <trkpt lat="38.3706290" lon="-2.5603510">
        <ele>1224.7</ele>
        <time>2019-11-01T09:22:27Z</time>
      </trkpt>
      <trkpt lat="38.3706520" lon="-2.5602630">
        <ele>1224.7</ele>
        <time>2019-11-01T09:22:30Z</time>
      </trkpt>
      <trkpt lat="38.3706780" lon="-2.5601720">
        <ele>1224.7</ele>
        <time>2019-11-01T09:22:33Z</time>
      </trkpt>
      <trkpt lat="38.3706930" lon="-2.5601150">
        <ele>1224.7</ele>
        <time>2019-11-01T09:22:35Z</time>
      </trkpt>
      <trkpt lat="38.3707160" lon="-2.5600630">
        <ele>1226.7</ele>
        <time>2019-11-01T09:22:37Z</time>
      </trkpt>
      <trkpt lat="38.3707420" lon="-2.5599840">
        <ele>1226.7</ele>
        <time>2019-11-01T09:22:40Z</time>
      </trkpt>
      <trkpt lat="38.3707620" lon="-2.5599060">
        <ele>1226.7</ele>
        <time>2019-11-01T09:22:43Z</time>
      </trkpt>
      <trkpt lat="38.3707800" lon="-2.5598340">
        <ele>1226.7</ele>
        <time>2019-11-01T09:22:46Z</time>
      </trkpt>
      <trkpt lat="38.3708080" lon="-2.5597550">
        <ele>1226.7</ele>
        <time>2019-11-01T09:22:49Z</time>
      </trkpt>
      <trkpt lat="38.3708260" lon="-2.5596960">
        <ele>1229.1</ele>
        <time>2019-11-01T09:22:51Z</time>
      </trkpt>
      <trkpt lat="38.3708470" lon="-2.5596370">
        <ele>1229.1</ele>
        <time>2019-11-01T09:22:53Z</time>
      </trkpt>
      <trkpt lat="38.3708650" lon="-2.5595780">
        <ele>1229.1</ele>
        <time>2019-11-01T09:22:55Z</time>
      </trkpt>
      <trkpt lat="38.3709000" lon="-2.5594890">
        <ele>1229.1</ele>
        <time>2019-11-01T09:22:58Z</time>
      </trkpt>
      <trkpt lat="38.3709180" lon="-2.5594330">
        <ele>1229.1</ele>
        <time>2019-11-01T09:23:00Z</time>
      </trkpt>
      <trkpt lat="38.3709410" lon="-2.5593660">
        <ele>1229.1</ele>
        <time>2019-11-01T09:23:03Z</time>
      </trkpt>
      <trkpt lat="38.3709590" lon="-2.5593020">
        <ele>1229.1</ele>
        <time>2019-11-01T09:23:06Z</time>
      </trkpt>
      <trkpt lat="38.3709720" lon="-2.5592310">
        <ele>1231.2</ele>
        <time>2019-11-01T09:23:09Z</time>
      </trkpt>
      <trkpt lat="38.3709900" lon="-2.5591560">
        <ele>1231.2</ele>
        <time>2019-11-01T09:23:12Z</time>
      </trkpt>
      <trkpt lat="38.3710260" lon="-2.5590840">
        <ele>1231.2</ele>
        <time>2019-11-01T09:23:15Z</time>
      </trkpt>
      <trkpt lat="38.3710670" lon="-2.5590140">
        <ele>1231.2</ele>
        <time>2019-11-01T09:23:18Z</time>
      </trkpt>
      <trkpt lat="38.3711000" lon="-2.5589550">
        <ele>1231.2</ele>
        <time>2019-11-01T09:23:21Z</time>
      </trkpt>
      <trkpt lat="38.3711440" lon="-2.5588960">
        <ele>1233.4</ele>
        <time>2019-11-01T09:23:24Z</time>
      </trkpt>
      <trkpt lat="38.3711820" lon="-2.5588390">
        <ele>1233.4</ele>
        <time>2019-11-01T09:23:27Z</time>
      </trkpt>
      <trkpt lat="38.3712150" lon="-2.5587880">
        <ele>1233.4</ele>
        <time>2019-11-01T09:23:30Z</time>
      </trkpt>
      <trkpt lat="38.3712590" lon="-2.5587390">
        <ele>1233.4</ele>
        <time>2019-11-01T09:23:33Z</time>
      </trkpt>
      <trkpt lat="38.3712950" lon="-2.5586830">
        <ele>1233.4</ele>
        <time>2019-11-01T09:23:36Z</time>
      </trkpt>
      <trkpt lat="38.3713330" lon="-2.5586170">
        <ele>1235.6</ele>
        <time>2019-11-01T09:23:39Z</time>
      </trkpt>
      <trkpt lat="38.3713610" lon="-2.5585680">
        <ele>1235.6</ele>
        <time>2019-11-01T09:23:41Z</time>
      </trkpt>
      <trkpt lat="38.3713950" lon="-2.5584940">
        <ele>1235.6</ele>
        <time>2019-11-01T09:23:44Z</time>
      </trkpt>
      <trkpt lat="38.3714480" lon="-2.5584270">
        <ele>1235.6</ele>
        <time>2019-11-01T09:23:47Z</time>
      </trkpt>
      <trkpt lat="38.3714890" lon="-2.5583810">
        <ele>1235.6</ele>
        <time>2019-11-01T09:23:49Z</time>
      </trkpt>
      <trkpt lat="38.3715200" lon="-2.5583360">
        <ele>1235.6</ele>
        <time>2019-11-01T09:23:51Z</time>
      </trkpt>
      <trkpt lat="38.3715640" lon="-2.5582640">
        <ele>1235.6</ele>
        <time>2019-11-01T09:23:54Z</time>
      </trkpt>
      <trkpt lat="38.3715810" lon="-2.5582190">
        <ele>1238.0</ele>
        <time>2019-11-01T09:23:56Z</time>
      </trkpt>
      <trkpt lat="38.3716100" lon="-2.5581570">
        <ele>1238.0</ele>
        <time>2019-11-01T09:23:59Z</time>
      </trkpt>
      <trkpt lat="38.3716400" lon="-2.5580730">
        <ele>1238.0</ele>
        <time>2019-11-01T09:24:03Z</time>
      </trkpt>
      <trkpt lat="38.3716630" lon="-2.5580110">
        <ele>1238.0</ele>
        <time>2019-11-01T09:24:06Z</time>
      </trkpt>
      <trkpt lat="38.3716840" lon="-2.5579400">
        <ele>1238.0</ele>
        <time>2019-11-01T09:24:10Z</time>
      </trkpt>
      <trkpt lat="38.3716970" lon="-2.5578800">
        <ele>1240.6</ele>
        <time>2019-11-01T09:24:13Z</time>
      </trkpt>
      <trkpt lat="38.3717270" lon="-2.5578100">
        <ele>1240.6</ele>
        <time>2019-11-01T09:24:16Z</time>
      </trkpt>
      <trkpt lat="38.3717500" lon="-2.5577510">
        <ele>1240.6</ele>
        <time>2019-11-01T09:24:18Z</time>
      </trkpt>
      <trkpt lat="38.3717730" lon="-2.5576940">
        <ele>1240.6</ele>
        <time>2019-11-01T09:24:20Z</time>
      </trkpt>
      <trkpt lat="38.3718070" lon="-2.5576110">
        <ele>1240.6</ele>
        <time>2019-11-01T09:24:23Z</time>
      </trkpt>
      <trkpt lat="38.3718350" lon="-2.5575360">
        <ele>1240.6</ele>
        <time>2019-11-01T09:24:26Z</time>
      </trkpt>
      <trkpt lat="38.3718430" lon="-2.5574950">
        <ele>1243.6</ele>
        <time>2019-11-01T09:24:28Z</time>
      </trkpt>
      <trkpt lat="38.3718530" lon="-2.5574240">
        <ele>1243.6</ele>
        <time>2019-11-01T09:24:32Z</time>
      </trkpt>
      <trkpt lat="38.3718780" lon="-2.5573530">
        <ele>1243.6</ele>
        <time>2019-11-01T09:24:36Z</time>
      </trkpt>
      <trkpt lat="38.3719170" lon="-2.5572790">
        <ele>1243.6</ele>
        <time>2019-11-01T09:24:40Z</time>
      </trkpt>
      <trkpt lat="38.3719370" lon="-2.5572160">
        <ele>1246.4</ele>
        <time>2019-11-01T09:24:43Z</time>
      </trkpt>
      <trkpt lat="38.3719600" lon="-2.5571430">
        <ele>1246.4</ele>
        <time>2019-11-01T09:24:46Z</time>
      </trkpt>
      <trkpt lat="38.3719830" lon="-2.5570590">
        <ele>1246.4</ele>
        <time>2019-11-01T09:24:49Z</time>
      </trkpt>
      <trkpt lat="38.3719990" lon="-2.5569970">
        <ele>1246.4</ele>
        <time>2019-11-01T09:24:51Z</time>
      </trkpt>
      <trkpt lat="38.3720220" lon="-2.5569140">
        <ele>1246.4</ele>
        <time>2019-11-01T09:24:54Z</time>
      </trkpt>
      <trkpt lat="38.3720320" lon="-2.5568400">
        <ele>1246.4</ele>
        <time>2019-11-01T09:24:57Z</time>
      </trkpt>
      <trkpt lat="38.3720550" lon="-2.5567800">
        <ele>1249.3</ele>
        <time>2019-11-01T09:25:00Z</time>
      </trkpt>
      <trkpt lat="38.3720810" lon="-2.5567170">
        <ele>1249.3</ele>
        <time>2019-11-01T09:25:03Z</time>
      </trkpt>
      <trkpt lat="38.3721090" lon="-2.5566490">
        <ele>1249.3</ele>
        <time>2019-11-01T09:25:06Z</time>
      </trkpt>
      <trkpt lat="38.3721400" lon="-2.5565790">
        <ele>1249.3</ele>
        <time>2019-11-01T09:25:09Z</time>
      </trkpt>
      <trkpt lat="38.3721730" lon="-2.5564960">
        <ele>1249.3</ele>
        <time>2019-11-01T09:25:12Z</time>
      </trkpt>
      <trkpt lat="38.3722110" lon="-2.5564190">
        <ele>1251.9</ele>
        <time>2019-11-01T09:25:15Z</time>
      </trkpt>
      <trkpt lat="38.3722390" lon="-2.5563720">
        <ele>1251.9</ele>
        <time>2019-11-01T09:25:17Z</time>
      </trkpt>
      <trkpt lat="38.3722730" lon="-2.5562940">
        <ele>1251.9</ele>
        <time>2019-11-01T09:25:20Z</time>
      </trkpt>
      <trkpt lat="38.3722910" lon="-2.5562120">
        <ele>1251.9</ele>
        <time>2019-11-01T09:25:23Z</time>
      </trkpt>
      <trkpt lat="38.3723140" lon="-2.5561370">
        <ele>1251.9</ele>
        <time>2019-11-01T09:25:26Z</time>
      </trkpt>
      <trkpt lat="38.3723490" lon="-2.5560580">
        <ele>1251.9</ele>
        <time>2019-11-01T09:25:29Z</time>
      </trkpt>
      <trkpt lat="38.3723830" lon="-2.5559790">
        <ele>1254.3</ele>
        <time>2019-11-01T09:25:32Z</time>
      </trkpt>
      <trkpt lat="38.3724190" lon="-2.5558980">
        <ele>1254.3</ele>
        <time>2019-11-01T09:25:35Z</time>
      </trkpt>
      <trkpt lat="38.3724440" lon="-2.5558270">
        <ele>1254.3</ele>
        <time>2019-11-01T09:25:38Z</time>
      </trkpt>
      <trkpt lat="38.3724620" lon="-2.5557610">
        <ele>1254.3</ele>
        <time>2019-11-01T09:25:41Z</time>
      </trkpt>
      <trkpt lat="38.3724900" lon="-2.5556920">
        <ele>1254.3</ele>
        <time>2019-11-01T09:25:44Z</time>
      </trkpt>
      <trkpt lat="38.3725240" lon="-2.5556250">
        <ele>1256.7</ele>
        <time>2019-11-01T09:25:47Z</time>
      </trkpt>
      <trkpt lat="38.3725470" lon="-2.5555720">
        <ele>1256.7</ele>
        <time>2019-11-01T09:25:49Z</time>
      </trkpt>
      <trkpt lat="38.3725820" lon="-2.5554900">
        <ele>1256.7</ele>
        <time>2019-11-01T09:25:52Z</time>
      </trkpt>
      <trkpt lat="38.3726210" lon="-2.5554120">
        <ele>1256.7</ele>
        <time>2019-11-01T09:25:55Z</time>
      </trkpt>
      <trkpt lat="38.3726460" lon="-2.5553600">
        <ele>1256.7</ele>
        <time>2019-11-01T09:25:57Z</time>
      </trkpt>
      <trkpt lat="38.3726870" lon="-2.5552820">
        <ele>1256.7</ele>
        <time>2019-11-01T09:26:00Z</time>
      </trkpt>
      <trkpt lat="38.3727230" lon="-2.5552060">
        <ele>1259.3</ele>
        <time>2019-11-01T09:26:03Z</time>
      </trkpt>
      <trkpt lat="38.3727460" lon="-2.5551580">
        <ele>1259.3</ele>
        <time>2019-11-01T09:26:05Z</time>
      </trkpt>
      <trkpt lat="38.3727770" lon="-2.5550870">
        <ele>1259.3</ele>
        <time>2019-11-01T09:26:08Z</time>
      </trkpt>
      <trkpt lat="38.3728030" lon="-2.5550150">
        <ele>1259.3</ele>
        <time>2019-11-01T09:26:11Z</time>
      </trkpt>
      <trkpt lat="38.3728330" lon="-2.5549500">
        <ele>1259.3</ele>
        <time>2019-11-01T09:26:14Z</time>
      </trkpt>
      <trkpt lat="38.3728740" lon="-2.5548920">
        <ele>1259.3</ele>
        <time>2019-11-01T09:26:17Z</time>
      </trkpt>
      <trkpt lat="38.3729050" lon="-2.5548170">
        <ele>1262.0</ele>
        <time>2019-11-01T09:26:20Z</time>
      </trkpt>
      <trkpt lat="38.3729330" lon="-2.5547470">
        <ele>1262.0</ele>
        <time>2019-11-01T09:26:23Z</time>
      </trkpt>
      <trkpt lat="38.3729560" lon="-2.5546810">
        <ele>1262.0</ele>
        <time>2019-11-01T09:26:26Z</time>
      </trkpt>
      <trkpt lat="38.3729790" lon="-2.5546210">
        <ele>1262.0</ele>
        <time>2019-11-01T09:26:29Z</time>
      </trkpt>
      <trkpt lat="38.3730100" lon="-2.5545500">
        <ele>1262.0</ele>
        <time>2019-11-01T09:26:32Z</time>
      </trkpt>
      <trkpt lat="38.3730300" lon="-2.5544780">
        <ele>1264.7</ele>
        <time>2019-11-01T09:26:35Z</time>
      </trkpt>
      <trkpt lat="38.3730460" lon="-2.5544280">
        <ele>1264.7</ele>
        <time>2019-11-01T09:26:37Z</time>
      </trkpt>
      <trkpt lat="38.3730660" lon="-2.5543570">
        <ele>1264.7</ele>
        <time>2019-11-01T09:26:40Z</time>
      </trkpt>
      <trkpt lat="38.3730890" lon="-2.5542720">
        <ele>1264.7</ele>
        <time>2019-11-01T09:26:43Z</time>
      </trkpt>
      <trkpt lat="38.3731070" lon="-2.5542100">
        <ele>1264.7</ele>
        <time>2019-11-01T09:26:45Z</time>
      </trkpt>
      <trkpt lat="38.3731300" lon="-2.5541510">
        <ele>1264.7</ele>
        <time>2019-11-01T09:26:47Z</time>
      </trkpt>
      <trkpt lat="38.3731510" lon="-2.5540930">
        <ele>1264.7</ele>
        <time>2019-11-01T09:26:49Z</time>
      </trkpt>
      <trkpt lat="38.3731740" lon="-2.5539970">
        <ele>1267.0</ele>
        <time>2019-11-01T09:26:52Z</time>
      </trkpt>
      <trkpt lat="38.3731890" lon="-2.5539330">
        <ele>1267.0</ele>
        <time>2019-11-01T09:26:54Z</time>
      </trkpt>
      <trkpt lat="38.3732120" lon="-2.5538660">
        <ele>1267.0</ele>
        <time>2019-11-01T09:26:56Z</time>
      </trkpt>
      <trkpt lat="38.3732220" lon="-2.5538100">
        <ele>1267.0</ele>
        <time>2019-11-01T09:26:58Z</time>
      </trkpt>
      <trkpt lat="38.3732530" lon="-2.5537240">
        <ele>1267.0</ele>
        <time>2019-11-01T09:27:01Z</time>
      </trkpt>
      <trkpt lat="38.3732760" lon="-2.5536560">
        <ele>1267.0</ele>
        <time>2019-11-01T09:27:03Z</time>
      </trkpt>
      <trkpt lat="38.3732990" lon="-2.5535910">
        <ele>1267.0</ele>
        <time>2019-11-01T09:27:05Z</time>
      </trkpt>
      <trkpt lat="38.3733170" lon="-2.5535250">
        <ele>1269.6</ele>
        <time>2019-11-01T09:27:07Z</time>
      </trkpt>
      <trkpt lat="38.3733320" lon="-2.5534640">
        <ele>1269.6</ele>
        <time>2019-11-01T09:27:09Z</time>
      </trkpt>
      <trkpt lat="38.3733560" lon="-2.5533820">
        <ele>1269.6</ele>
        <time>2019-11-01T09:27:12Z</time>
      </trkpt>
      <trkpt lat="38.3733840" lon="-2.5532890">
        <ele>1269.6</ele>
        <time>2019-11-01T09:27:15Z</time>
      </trkpt>
      <trkpt lat="38.3734090" lon="-2.5532230">
        <ele>1269.6</ele>
        <time>2019-11-01T09:27:17Z</time>
      </trkpt>
      <trkpt lat="38.3734320" lon="-2.5531580">
        <ele>1269.6</ele>
        <time>2019-11-01T09:27:19Z</time>
      </trkpt>
      <trkpt lat="38.3734550" lon="-2.5530930">
        <ele>1269.6</ele>
        <time>2019-11-01T09:27:21Z</time>
      </trkpt>
      <trkpt lat="38.3734730" lon="-2.5530330">
        <ele>1269.6</ele>
        <time>2019-11-01T09:27:23Z</time>
      </trkpt>
      <trkpt lat="38.3734940" lon="-2.5529780">
        <ele>1271.6</ele>
        <time>2019-11-01T09:27:25Z</time>
      </trkpt>
      <trkpt lat="38.3735170" lon="-2.5529190">
        <ele>1271.6</ele>
        <time>2019-11-01T09:27:27Z</time>
      </trkpt>
      <trkpt lat="38.3735480" lon="-2.5528240">
        <ele>1271.6</ele>
        <time>2019-11-01T09:27:30Z</time>
      </trkpt>
      <trkpt lat="38.3735710" lon="-2.5527550">
        <ele>1271.6</ele>
        <time>2019-11-01T09:27:32Z</time>
      </trkpt>
      <trkpt lat="38.3735880" lon="-2.5526890">
        <ele>1271.6</ele>
        <time>2019-11-01T09:27:34Z</time>
      </trkpt>
      <trkpt lat="38.3736040" lon="-2.5526250">
        <ele>1271.6</ele>
        <time>2019-11-01T09:27:36Z</time>
      </trkpt>
      <trkpt lat="38.3736140" lon="-2.5525600">
        <ele>1271.6</ele>
        <time>2019-11-01T09:27:38Z</time>
      </trkpt>
      <trkpt lat="38.3736290" lon="-2.5524880">
        <ele>1271.6</ele>
        <time>2019-11-01T09:27:40Z</time>
      </trkpt>
      <trkpt lat="38.3736500" lon="-2.5524130">
        <ele>1271.6</ele>
        <time>2019-11-01T09:27:42Z</time>
      </trkpt>
      <trkpt lat="38.3736650" lon="-2.5523400">
        <ele>1273.6</ele>
        <time>2019-11-01T09:27:44Z</time>
      </trkpt>
      <trkpt lat="38.3736810" lon="-2.5522650">
        <ele>1273.6</ele>
        <time>2019-11-01T09:27:46Z</time>
      </trkpt>
      <trkpt lat="38.3736880" lon="-2.5521880">
        <ele>1273.6</ele>
        <time>2019-11-01T09:27:48Z</time>
      </trkpt>
      <trkpt lat="38.3736990" lon="-2.5521070">
        <ele>1273.6</ele>
        <time>2019-11-01T09:27:50Z</time>
      </trkpt>
      <trkpt lat="38.3737040" lon="-2.5520280">
        <ele>1273.6</ele>
        <time>2019-11-01T09:27:52Z</time>
      </trkpt>
      <trkpt lat="38.3737060" lon="-2.5519430">
        <ele>1273.6</ele>
        <time>2019-11-01T09:27:54Z</time>
      </trkpt>
      <trkpt lat="38.3737060" lon="-2.5518560">
        <ele>1273.6</ele>
        <time>2019-11-01T09:27:56Z</time>
      </trkpt>
      <trkpt lat="38.3737040" lon="-2.5517700">
        <ele>1273.6</ele>
        <time>2019-11-01T09:27:58Z</time>
      </trkpt>
      <trkpt lat="38.3736960" lon="-2.5516880">
        <ele>1273.6</ele>
        <time>2019-11-01T09:28:00Z</time>
      </trkpt>
      <trkpt lat="38.3736810" lon="-2.5516120">
        <ele>1273.6</ele>
        <time>2019-11-01T09:28:02Z</time>
      </trkpt>
      <trkpt lat="38.3736730" lon="-2.5515240">
        <ele>1275.6</ele>
        <time>2019-11-01T09:28:04Z</time>
      </trkpt>
      <trkpt lat="38.3736760" lon="-2.5514320">
        <ele>1275.6</ele>
        <time>2019-11-01T09:28:06Z</time>
      </trkpt>
      <trkpt lat="38.3736910" lon="-2.5513420">
        <ele>1275.6</ele>
        <time>2019-11-01T09:28:08Z</time>
      </trkpt>
      <trkpt lat="38.3737110" lon="-2.5512540">
        <ele>1275.6</ele>
        <time>2019-11-01T09:28:10Z</time>
      </trkpt>
      <trkpt lat="38.3737420" lon="-2.5511690">
        <ele>1275.6</ele>
        <time>2019-11-01T09:28:12Z</time>
      </trkpt>
      <trkpt lat="38.3737750" lon="-2.5510830">
        <ele>1275.6</ele>
        <time>2019-11-01T09:28:14Z</time>
      </trkpt>
      <trkpt lat="38.3738060" lon="-2.5509970">
        <ele>1275.6</ele>
        <time>2019-11-01T09:28:16Z</time>
      </trkpt>
      <trkpt lat="38.3738370" lon="-2.5509130">
        <ele>1275.6</ele>
        <time>2019-11-01T09:28:18Z</time>
      </trkpt>
      <trkpt lat="38.3738750" lon="-2.5508290">
        <ele>1275.6</ele>
        <time>2019-11-01T09:28:20Z</time>
      </trkpt>
      <trkpt lat="38.3739080" lon="-2.5507430">
        <ele>1275.6</ele>
        <time>2019-11-01T09:28:22Z</time>
      </trkpt>
      <trkpt lat="38.3739470" lon="-2.5506520">
        <ele>1275.6</ele>
        <time>2019-11-01T09:28:24Z</time>
      </trkpt>
      <trkpt lat="38.3739850" lon="-2.5505580">
        <ele>1274.5</ele>
        <time>2019-11-01T09:28:26Z</time>
      </trkpt>
      <trkpt lat="38.3740240" lon="-2.5504600">
        <ele>1274.5</ele>
        <time>2019-11-01T09:28:28Z</time>
      </trkpt>
      <trkpt lat="38.3740540" lon="-2.5503620">
        <ele>1274.5</ele>
        <time>2019-11-01T09:28:30Z</time>
      </trkpt>
      <trkpt lat="38.3740770" lon="-2.5502650">
        <ele>1274.5</ele>
        <time>2019-11-01T09:28:32Z</time>
      </trkpt>
      <trkpt lat="38.3740950" lon="-2.5501560">
        <ele>1274.5</ele>
        <time>2019-11-01T09:28:34Z</time>
      </trkpt>
      <trkpt lat="38.3741180" lon="-2.5500450">
        <ele>1273.0</ele>
        <time>2019-11-01T09:28:36Z</time>
      </trkpt>
      <trkpt lat="38.3741410" lon="-2.5499310">
        <ele>1273.0</ele>
        <time>2019-11-01T09:28:38Z</time>
      </trkpt>
      <trkpt lat="38.3741540" lon="-2.5498730">
        <ele>1273.0</ele>
        <time>2019-11-01T09:28:39Z</time>
      </trkpt>
      <trkpt lat="38.3741720" lon="-2.5497590">
        <ele>1273.0</ele>
        <time>2019-11-01T09:28:41Z</time>
      </trkpt>
      <trkpt lat="38.3741900" lon="-2.5496530">
        <ele>1273.0</ele>
        <time>2019-11-01T09:28:43Z</time>
      </trkpt>
      <trkpt lat="38.3742130" lon="-2.5495560">
        <ele>1273.0</ele>
        <time>2019-11-01T09:28:45Z</time>
      </trkpt>
      <trkpt lat="38.3742490" lon="-2.5494580">
        <ele>1273.0</ele>
        <time>2019-11-01T09:28:47Z</time>
      </trkpt>
      <trkpt lat="38.3742900" lon="-2.5493580">
        <ele>1273.0</ele>
        <time>2019-11-01T09:28:49Z</time>
      </trkpt>
      <trkpt lat="38.3743490" lon="-2.5492630">
        <ele>1273.0</ele>
        <time>2019-11-01T09:28:51Z</time>
      </trkpt>
      <trkpt lat="38.3744080" lon="-2.5491770">
        <ele>1271.8</ele>
        <time>2019-11-01T09:28:53Z</time>
      </trkpt>
      <trkpt lat="38.3744440" lon="-2.5491310">
        <ele>1271.8</ele>
        <time>2019-11-01T09:28:54Z</time>
      </trkpt>
      <trkpt lat="38.3745130" lon="-2.5490370">
        <ele>1271.8</ele>
        <time>2019-11-01T09:28:56Z</time>
      </trkpt>
      <trkpt lat="38.3745720" lon="-2.5489450">
        <ele>1271.8</ele>
        <time>2019-11-01T09:28:58Z</time>
      </trkpt>
      <trkpt lat="38.3746230" lon="-2.5488630">
        <ele>1271.8</ele>
        <time>2019-11-01T09:29:00Z</time>
      </trkpt>
      <trkpt lat="38.3746640" lon="-2.5487640">
        <ele>1271.8</ele>
        <time>2019-11-01T09:29:02Z</time>
      </trkpt>
      <trkpt lat="38.3747000" lon="-2.5486640">
        <ele>1271.8</ele>
        <time>2019-11-01T09:29:04Z</time>
      </trkpt>
      <trkpt lat="38.3747300" lon="-2.5485550">
        <ele>1271.8</ele>
        <time>2019-11-01T09:29:06Z</time>
      </trkpt>
      <trkpt lat="38.3747530" lon="-2.5484450">
        <ele>1271.8</ele>
        <time>2019-11-01T09:29:08Z</time>
      </trkpt>
      <trkpt lat="38.3747710" lon="-2.5483470">
        <ele>1271.8</ele>
        <time>2019-11-01T09:29:10Z</time>
      </trkpt>
      <trkpt lat="38.3747940" lon="-2.5482390">
        <ele>1270.6</ele>
        <time>2019-11-01T09:29:12Z</time>
      </trkpt>
      <trkpt lat="38.3748170" lon="-2.5481310">
        <ele>1269.2</ele>
        <time>2019-11-01T09:29:14Z</time>
      </trkpt>
      <trkpt lat="38.3748350" lon="-2.5480160">
        <ele>1269.2</ele>
        <time>2019-11-01T09:29:16Z</time>
      </trkpt>
      <trkpt lat="38.3748580" lon="-2.5478990">
        <ele>1267.9</ele>
        <time>2019-11-01T09:29:18Z</time>
      </trkpt>
      <trkpt lat="38.3748790" lon="-2.5477850">
        <ele>1267.9</ele>
        <time>2019-11-01T09:29:20Z</time>
      </trkpt>
      <trkpt lat="38.3748970" lon="-2.5476650">
        <ele>1267.9</ele>
        <time>2019-11-01T09:29:22Z</time>
      </trkpt>
      <trkpt lat="38.3749170" lon="-2.5475490">
        <ele>1267.9</ele>
        <time>2019-11-01T09:29:24Z</time>
      </trkpt>
      <trkpt lat="38.3749350" lon="-2.5474320">
        <ele>1267.9</ele>
        <time>2019-11-01T09:29:26Z</time>
      </trkpt>
      <trkpt lat="38.3749430" lon="-2.5473710">
        <ele>1267.9</ele>
        <time>2019-11-01T09:29:27Z</time>
      </trkpt>
      <trkpt lat="38.3749530" lon="-2.5472470">
        <ele>1267.9</ele>
        <time>2019-11-01T09:29:29Z</time>
      </trkpt>
      <trkpt lat="38.3749680" lon="-2.5471210">
        <ele>1267.9</ele>
        <time>2019-11-01T09:29:31Z</time>
      </trkpt>
      <trkpt lat="38.3749760" lon="-2.5470570">
        <ele>1267.9</ele>
        <time>2019-11-01T09:29:32Z</time>
      </trkpt>
      <trkpt lat="38.3749840" lon="-2.5469930">
        <ele>1267.9</ele>
        <time>2019-11-01T09:29:33Z</time>
      </trkpt>
      <trkpt lat="38.3749960" lon="-2.5468670">
        <ele>1267.9</ele>
        <time>2019-11-01T09:29:35Z</time>
      </trkpt>
      <trkpt lat="38.3750040" lon="-2.5468020">
        <ele>1267.9</ele>
        <time>2019-11-01T09:29:36Z</time>
      </trkpt>
      <trkpt lat="38.3750120" lon="-2.5466710">
        <ele>1267.9</ele>
        <time>2019-11-01T09:29:38Z</time>
      </trkpt>
      <trkpt lat="38.3750200" lon="-2.5466060">
        <ele>1267.9</ele>
        <time>2019-11-01T09:29:39Z</time>
      </trkpt>
      <trkpt lat="38.3750270" lon="-2.5465390">
        <ele>1267.9</ele>
        <time>2019-11-01T09:29:40Z</time>
      </trkpt>
      <trkpt lat="38.3750450" lon="-2.5464030">
        <ele>1267.9</ele>
        <time>2019-11-01T09:29:42Z</time>
      </trkpt>
      <trkpt lat="38.3750580" lon="-2.5463330">
        <ele>1267.9</ele>
        <time>2019-11-01T09:29:43Z</time>
      </trkpt>
      <trkpt lat="38.3750680" lon="-2.5462640">
        <ele>1267.9</ele>
        <time>2019-11-01T09:29:44Z</time>
      </trkpt>
      <trkpt lat="38.3750890" lon="-2.5462020">
        <ele>1267.9</ele>
        <time>2019-11-01T09:29:45Z</time>
      </trkpt>
      <trkpt lat="38.3751070" lon="-2.5461350">
        <ele>1267.9</ele>
        <time>2019-11-01T09:29:46Z</time>
      </trkpt>
      <trkpt lat="38.3751300" lon="-2.5460690">
        <ele>1267.9</ele>
        <time>2019-11-01T09:29:47Z</time>
      </trkpt>
      <trkpt lat="38.3751530" lon="-2.5460030">
        <ele>1267.9</ele>
        <time>2019-11-01T09:29:48Z</time>
      </trkpt>
      <trkpt lat="38.3751780" lon="-2.5459340">
        <ele>1267.9</ele>
        <time>2019-11-01T09:29:49Z</time>
      </trkpt>
      <trkpt lat="38.3752060" lon="-2.5458660">
        <ele>1267.9</ele>
        <time>2019-11-01T09:29:50Z</time>
      </trkpt>
      <trkpt lat="38.3752370" lon="-2.5457980">
        <ele>1267.9</ele>
        <time>2019-11-01T09:29:51Z</time>
      </trkpt>
      <trkpt lat="38.3752680" lon="-2.5457310">
        <ele>1266.4</ele>
        <time>2019-11-01T09:29:52Z</time>
      </trkpt>
      <trkpt lat="38.3752990" lon="-2.5456630">
        <ele>1266.4</ele>
        <time>2019-11-01T09:29:53Z</time>
      </trkpt>
      <trkpt lat="38.3753320" lon="-2.5455960">
        <ele>1266.4</ele>
        <time>2019-11-01T09:29:54Z</time>
      </trkpt>
      <trkpt lat="38.3753930" lon="-2.5454560">
        <ele>1265.2</ele>
        <time>2019-11-01T09:29:56Z</time>
      </trkpt>
      <trkpt lat="38.3754270" lon="-2.5453850">
        <ele>1265.2</ele>
        <time>2019-11-01T09:29:57Z</time>
      </trkpt>
      <trkpt lat="38.3754850" lon="-2.5452400">
        <ele>1265.2</ele>
        <time>2019-11-01T09:29:59Z</time>
      </trkpt>
      <trkpt lat="38.3755110" lon="-2.5451660">
        <ele>1265.2</ele>
        <time>2019-11-01T09:30:00Z</time>
      </trkpt>
      <trkpt lat="38.3755370" lon="-2.5450920">
        <ele>1263.8</ele>
        <time>2019-11-01T09:30:01Z</time>
      </trkpt>
      <trkpt lat="38.3755600" lon="-2.5450170">
        <ele>1263.8</ele>
        <time>2019-11-01T09:30:02Z</time>
      </trkpt>
      <trkpt lat="38.3755900" lon="-2.5449410">
        <ele>1263.8</ele>
        <time>2019-11-01T09:30:03Z</time>
      </trkpt>
      <trkpt lat="38.3756190" lon="-2.5448630">
        <ele>1263.8</ele>
        <time>2019-11-01T09:30:04Z</time>
      </trkpt>
      <trkpt lat="38.3756440" lon="-2.5447850">
        <ele>1263.8</ele>
        <time>2019-11-01T09:30:05Z</time>
      </trkpt>
      <trkpt lat="38.3756670" lon="-2.5447120">
        <ele>1262.6</ele>
        <time>2019-11-01T09:30:06Z</time>
      </trkpt>
      <trkpt lat="38.3756900" lon="-2.5446390">
        <ele>1262.6</ele>
        <time>2019-11-01T09:30:07Z</time>
      </trkpt>
      <trkpt lat="38.3757180" lon="-2.5445610">
        <ele>1262.6</ele>
        <time>2019-11-01T09:30:08Z</time>
      </trkpt>
      <trkpt lat="38.3757440" lon="-2.5444840">
        <ele>1262.6</ele>
        <time>2019-11-01T09:30:09Z</time>
      </trkpt>
      <trkpt lat="38.3757700" lon="-2.5444100">
        <ele>1262.6</ele>
        <time>2019-11-01T09:30:10Z</time>
      </trkpt>
      <trkpt lat="38.3757930" lon="-2.5443380">
        <ele>1262.6</ele>
        <time>2019-11-01T09:30:11Z</time>
      </trkpt>
      <trkpt lat="38.3758210" lon="-2.5442670">
        <ele>1262.6</ele>
        <time>2019-11-01T09:30:12Z</time>
      </trkpt>
      <trkpt lat="38.3758390" lon="-2.5441990">
        <ele>1262.6</ele>
        <time>2019-11-01T09:30:13Z</time>
      </trkpt>
      <trkpt lat="38.3758620" lon="-2.5441340">
        <ele>1262.6</ele>
        <time>2019-11-01T09:30:14Z</time>
      </trkpt>
      <trkpt lat="38.3758820" lon="-2.5440700">
        <ele>1262.6</ele>
        <time>2019-11-01T09:30:15Z</time>
      </trkpt>
      <trkpt lat="38.3758980" lon="-2.5440070">
        <ele>1261.5</ele>
        <time>2019-11-01T09:30:16Z</time>
      </trkpt>
      <trkpt lat="38.3759130" lon="-2.5439450">
        <ele>1261.5</ele>
        <time>2019-11-01T09:30:17Z</time>
      </trkpt>
      <trkpt lat="38.3759460" lon="-2.5438270">
        <ele>1261.5</ele>
        <time>2019-11-01T09:30:19Z</time>
      </trkpt>
      <trkpt lat="38.3759800" lon="-2.5437220">
        <ele>1261.5</ele>
        <time>2019-11-01T09:30:21Z</time>
      </trkpt>
      <trkpt lat="38.3760100" lon="-2.5436240">
        <ele>1261.5</ele>
        <time>2019-11-01T09:30:23Z</time>
      </trkpt>
      <trkpt lat="38.3760410" lon="-2.5435280">
        <ele>1261.5</ele>
        <time>2019-11-01T09:30:25Z</time>
      </trkpt>
      <trkpt lat="38.3760720" lon="-2.5434390">
        <ele>1262.6</ele>
        <time>2019-11-01T09:30:27Z</time>
      </trkpt>
      <trkpt lat="38.3761080" lon="-2.5433530">
        <ele>1262.6</ele>
        <time>2019-11-01T09:30:29Z</time>
      </trkpt>
      <trkpt lat="38.3761360" lon="-2.5432680">
        <ele>1262.6</ele>
        <time>2019-11-01T09:30:31Z</time>
      </trkpt>
      <trkpt lat="38.3761720" lon="-2.5431850">
        <ele>1262.6</ele>
        <time>2019-11-01T09:30:33Z</time>
      </trkpt>
      <trkpt lat="38.3762180" lon="-2.5431040">
        <ele>1262.6</ele>
        <time>2019-11-01T09:30:35Z</time>
      </trkpt>
      <trkpt lat="38.3762640" lon="-2.5430240">
        <ele>1262.6</ele>
        <time>2019-11-01T09:30:37Z</time>
      </trkpt>
      <trkpt lat="38.3763050" lon="-2.5429470">
        <ele>1262.6</ele>
        <time>2019-11-01T09:30:39Z</time>
      </trkpt>
      <trkpt lat="38.3763460" lon="-2.5428780">
        <ele>1261.5</ele>
        <time>2019-11-01T09:30:41Z</time>
      </trkpt>
      <trkpt lat="38.3763890" lon="-2.5428110">
        <ele>1261.5</ele>
        <time>2019-11-01T09:30:43Z</time>
      </trkpt>
      <trkpt lat="38.3764280" lon="-2.5427440">
        <ele>1261.5</ele>
        <time>2019-11-01T09:30:45Z</time>
      </trkpt>
      <trkpt lat="38.3764580" lon="-2.5426840">
        <ele>1261.5</ele>
        <time>2019-11-01T09:30:47Z</time>
      </trkpt>
      <trkpt lat="38.3764840" lon="-2.5426220">
        <ele>1261.5</ele>
        <time>2019-11-01T09:30:49Z</time>
      </trkpt>
      <trkpt lat="38.3765090" lon="-2.5425600">
        <ele>1261.5</ele>
        <time>2019-11-01T09:30:51Z</time>
      </trkpt>
      <trkpt lat="38.3765400" lon="-2.5425010">
        <ele>1261.5</ele>
        <time>2019-11-01T09:30:53Z</time>
      </trkpt>
      <trkpt lat="38.3765760" lon="-2.5424480">
        <ele>1261.5</ele>
        <time>2019-11-01T09:30:55Z</time>
      </trkpt>
      <trkpt lat="38.3766170" lon="-2.5423740">
        <ele>1261.5</ele>
        <time>2019-11-01T09:30:58Z</time>
      </trkpt>
      <trkpt lat="38.3766630" lon="-2.5423020">
        <ele>1261.5</ele>
        <time>2019-11-01T09:31:01Z</time>
      </trkpt>
      <trkpt lat="38.3767090" lon="-2.5422240">
        <ele>1261.5</ele>
        <time>2019-11-01T09:31:04Z</time>
      </trkpt>
      <trkpt lat="38.3767420" lon="-2.5421660">
        <ele>1261.5</ele>
        <time>2019-11-01T09:31:06Z</time>
      </trkpt>
      <trkpt lat="38.3767730" lon="-2.5421160">
        <ele>1261.5</ele>
        <time>2019-11-01T09:31:08Z</time>
      </trkpt>
      <trkpt lat="38.3768010" lon="-2.5420700">
        <ele>1261.5</ele>
        <time>2019-11-01T09:31:10Z</time>
      </trkpt>
      <trkpt lat="38.3768470" lon="-2.5420030">
        <ele>1264.1</ele>
        <time>2019-11-01T09:31:13Z</time>
      </trkpt>
      <trkpt lat="38.3768780" lon="-2.5419540">
        <ele>1265.7</ele>
        <time>2019-11-01T09:31:15Z</time>
      </trkpt>
      <trkpt lat="38.3769220" lon="-2.5418820">
        <ele>1267.1</ele>
        <time>2019-11-01T09:31:18Z</time>
      </trkpt>
      <trkpt lat="38.3769450" lon="-2.5418360">
        <ele>1268.3</ele>
        <time>2019-11-01T09:31:20Z</time>
      </trkpt>
      <trkpt lat="38.3769800" lon="-2.5417640">
        <ele>1268.3</ele>
        <time>2019-11-01T09:31:23Z</time>
      </trkpt>
      <trkpt lat="38.3770270" lon="-2.5416960">
        <ele>1268.3</ele>
        <time>2019-11-01T09:31:26Z</time>
      </trkpt>
      <trkpt lat="38.3770570" lon="-2.5416500">
        <ele>1269.5</ele>
        <time>2019-11-01T09:31:28Z</time>
      </trkpt>
      <trkpt lat="38.3771080" lon="-2.5415790">
        <ele>1269.5</ele>
        <time>2019-11-01T09:31:31Z</time>
      </trkpt>
      <trkpt lat="38.3771470" lon="-2.5415350">
        <ele>1269.5</ele>
        <time>2019-11-01T09:31:33Z</time>
      </trkpt>
      <trkpt lat="38.3771830" lon="-2.5414900">
        <ele>1270.8</ele>
        <time>2019-11-01T09:31:35Z</time>
      </trkpt>
      <trkpt lat="38.3772290" lon="-2.5414110">
        <ele>1270.8</ele>
        <time>2019-11-01T09:31:38Z</time>
      </trkpt>
      <trkpt lat="38.3772600" lon="-2.5413620">
        <ele>1270.8</ele>
        <time>2019-11-01T09:31:40Z</time>
      </trkpt>
      <trkpt lat="38.3773030" lon="-2.5412810">
        <ele>1270.8</ele>
        <time>2019-11-01T09:31:43Z</time>
      </trkpt>
      <trkpt lat="38.3773340" lon="-2.5412230">
        <ele>1270.8</ele>
        <time>2019-11-01T09:31:45Z</time>
      </trkpt>
      <trkpt lat="38.3773720" lon="-2.5411330">
        <ele>1270.8</ele>
        <time>2019-11-01T09:31:48Z</time>
      </trkpt>
      <trkpt lat="38.3773950" lon="-2.5410670">
        <ele>1270.8</ele>
        <time>2019-11-01T09:31:50Z</time>
      </trkpt>
      <trkpt lat="38.3774180" lon="-2.5409970">
        <ele>1270.8</ele>
        <time>2019-11-01T09:31:52Z</time>
      </trkpt>
      <trkpt lat="38.3774340" lon="-2.5409270">
        <ele>1270.8</ele>
        <time>2019-11-01T09:31:54Z</time>
      </trkpt>
      <trkpt lat="38.3774390" lon="-2.5408490">
        <ele>1270.8</ele>
        <time>2019-11-01T09:31:56Z</time>
      </trkpt>
      <trkpt lat="38.3774260" lon="-2.5407750">
        <ele>1270.8</ele>
        <time>2019-11-01T09:31:58Z</time>
      </trkpt>
      <trkpt lat="38.3774080" lon="-2.5406910">
        <ele>1270.8</ele>
        <time>2019-11-01T09:32:00Z</time>
      </trkpt>
      <trkpt lat="38.3773800" lon="-2.5406080">
        <ele>1270.8</ele>
        <time>2019-11-01T09:32:02Z</time>
      </trkpt>
      <trkpt lat="38.3773490" lon="-2.5405260">
        <ele>1270.8</ele>
        <time>2019-11-01T09:32:04Z</time>
      </trkpt>
      <trkpt lat="38.3773180" lon="-2.5404380">
        <ele>1270.8</ele>
        <time>2019-11-01T09:32:06Z</time>
      </trkpt>
      <trkpt lat="38.3772880" lon="-2.5403440">
        <ele>1272.0</ele>
        <time>2019-11-01T09:32:08Z</time>
      </trkpt>
      <trkpt lat="38.3772540" lon="-2.5402510">
        <ele>1272.0</ele>
        <time>2019-11-01T09:32:10Z</time>
      </trkpt>
      <trkpt lat="38.3772210" lon="-2.5401550">
        <ele>1272.0</ele>
        <time>2019-11-01T09:32:12Z</time>
      </trkpt>
      <trkpt lat="38.3771850" lon="-2.5400620">
        <ele>1272.0</ele>
        <time>2019-11-01T09:32:14Z</time>
      </trkpt>
      <trkpt lat="38.3771550" lon="-2.5399660">
        <ele>1272.0</ele>
        <time>2019-11-01T09:32:16Z</time>
      </trkpt>
      <trkpt lat="38.3771210" lon="-2.5398680">
        <ele>1272.0</ele>
        <time>2019-11-01T09:32:18Z</time>
      </trkpt>
      <trkpt lat="38.3770830" lon="-2.5397720">
        <ele>1272.0</ele>
        <time>2019-11-01T09:32:20Z</time>
      </trkpt>
      <trkpt lat="38.3770440" lon="-2.5396780">
        <ele>1272.0</ele>
        <time>2019-11-01T09:32:22Z</time>
      </trkpt>
      <trkpt lat="38.3770060" lon="-2.5395770">
        <ele>1272.0</ele>
        <time>2019-11-01T09:32:24Z</time>
      </trkpt>
      <trkpt lat="38.3769800" lon="-2.5394260">
        <ele>1272.0</ele>
        <time>2019-11-01T09:32:27Z</time>
      </trkpt>
      <trkpt lat="38.3769800" lon="-2.5393440">
        <ele>1272.0</ele>
        <time>2019-11-01T09:32:29Z</time>
      </trkpt>
      <trkpt lat="38.3769800" lon="-2.5392660">
        <ele>1272.0</ele>
        <time>2019-11-01T09:32:31Z</time>
      </trkpt>
      <trkpt lat="38.3769830" lon="-2.5391960">
        <ele>1272.0</ele>
        <time>2019-11-01T09:32:33Z</time>
      </trkpt>
      <trkpt lat="38.3769960" lon="-2.5391180">
        <ele>1272.0</ele>
        <time>2019-11-01T09:32:35Z</time>
      </trkpt>
      <trkpt lat="38.3770110" lon="-2.5390390">
        <ele>1272.0</ele>
        <time>2019-11-01T09:32:37Z</time>
      </trkpt>
      <trkpt lat="38.3770290" lon="-2.5389610">
        <ele>1272.0</ele>
        <time>2019-11-01T09:32:39Z</time>
      </trkpt>
      <trkpt lat="38.3770520" lon="-2.5388740">
        <ele>1270.8</ele>
        <time>2019-11-01T09:32:41Z</time>
      </trkpt>
      <trkpt lat="38.3770730" lon="-2.5387960">
        <ele>1270.8</ele>
        <time>2019-11-01T09:32:43Z</time>
      </trkpt>
      <trkpt lat="38.3770850" lon="-2.5387280">
        <ele>1270.8</ele>
        <time>2019-11-01T09:32:45Z</time>
      </trkpt>
      <trkpt lat="38.3771060" lon="-2.5386640">
        <ele>1270.8</ele>
        <time>2019-11-01T09:32:47Z</time>
      </trkpt>
      <trkpt lat="38.3771370" lon="-2.5385990">
        <ele>1270.8</ele>
        <time>2019-11-01T09:32:49Z</time>
      </trkpt>
      <trkpt lat="38.3771750" lon="-2.5385360">
        <ele>1270.8</ele>
        <time>2019-11-01T09:32:51Z</time>
      </trkpt>
      <trkpt lat="38.3772130" lon="-2.5384790">
        <ele>1270.8</ele>
        <time>2019-11-01T09:32:53Z</time>
      </trkpt>
      <trkpt lat="38.3772470" lon="-2.5384240">
        <ele>1270.8</ele>
        <time>2019-11-01T09:32:55Z</time>
      </trkpt>
      <trkpt lat="38.3772770" lon="-2.5383760">
        <ele>1270.8</ele>
        <time>2019-11-01T09:32:57Z</time>
      </trkpt>
      <trkpt lat="38.3773240" lon="-2.5383030">
        <ele>1270.8</ele>
        <time>2019-11-01T09:33:00Z</time>
      </trkpt>
      <trkpt lat="38.3773620" lon="-2.5382530">
        <ele>1270.8</ele>
        <time>2019-11-01T09:33:02Z</time>
      </trkpt>
      <trkpt lat="38.3774030" lon="-2.5382100">
        <ele>1270.8</ele>
        <time>2019-11-01T09:33:04Z</time>
      </trkpt>
      <trkpt lat="38.3774460" lon="-2.5381740">
        <ele>1270.8</ele>
        <time>2019-11-01T09:33:06Z</time>
      </trkpt>
      <trkpt lat="38.3775050" lon="-2.5381370">
        <ele>1270.8</ele>
        <time>2019-11-01T09:33:09Z</time>
      </trkpt>
      <trkpt lat="38.3775640" lon="-2.5381120">
        <ele>1270.8</ele>
        <time>2019-11-01T09:33:12Z</time>
      </trkpt>
      <trkpt lat="38.3776200" lon="-2.5380910">
        <ele>1270.8</ele>
        <time>2019-11-01T09:33:15Z</time>
      </trkpt>
      <trkpt lat="38.3776670" lon="-2.5380750">
        <ele>1270.8</ele>
        <time>2019-11-01T09:33:18Z</time>
      </trkpt>
      <trkpt lat="38.3777150" lon="-2.5380640">
        <ele>1270.8</ele>
        <time>2019-11-01T09:33:22Z</time>
      </trkpt>
      <trkpt lat="38.3777660" lon="-2.5380760">
        <ele>1270.8</ele>
        <time>2019-11-01T09:33:26Z</time>
      </trkpt>
      <trkpt lat="38.3778300" lon="-2.5380790">
        <ele>1270.8</ele>
        <time>2019-11-01T09:33:31Z</time>
      </trkpt>
      <trkpt lat="38.3779300" lon="-2.5380300">
        <ele>1270.8</ele>
        <time>2019-11-01T09:33:51Z</time>
      </trkpt>
      <trkpt lat="38.3779990" lon="-2.5379910">
        <ele>1270.8</ele>
        <time>2019-11-01T09:33:57Z</time>
      </trkpt>
      <trkpt lat="38.3780400" lon="-2.5379240">
        <ele>1270.8</ele>
        <time>2019-11-01T09:34:01Z</time>
      </trkpt>
      <trkpt lat="38.3780510" lon="-2.5378670">
        <ele>1270.8</ele>
        <time>2019-11-01T09:34:04Z</time>
      </trkpt>
      <trkpt lat="38.3780430" lon="-2.5377850">
        <ele>1270.8</ele>
        <time>2019-11-01T09:34:08Z</time>
      </trkpt>
      <trkpt lat="38.3780150" lon="-2.5377130">
        <ele>1270.8</ele>
        <time>2019-11-01T09:34:12Z</time>
      </trkpt>
      <trkpt lat="38.3779870" lon="-2.5376340">
        <ele>1270.8</ele>
        <time>2019-11-01T09:34:16Z</time>
      </trkpt>
      <trkpt lat="38.3779610" lon="-2.5375790">
        <ele>1270.8</ele>
        <time>2019-11-01T09:34:19Z</time>
      </trkpt>
      <trkpt lat="38.3779330" lon="-2.5375050">
        <ele>1270.8</ele>
        <time>2019-11-01T09:34:23Z</time>
      </trkpt>
      <trkpt lat="38.3779230" lon="-2.5374300">
        <ele>1272.8</ele>
        <time>2019-11-01T09:34:27Z</time>
      </trkpt>
      <trkpt lat="38.3779170" lon="-2.5373710">
        <ele>1272.8</ele>
        <time>2019-11-01T09:34:30Z</time>
      </trkpt>
      <trkpt lat="38.3779150" lon="-2.5372950">
        <ele>1272.8</ele>
        <time>2019-11-01T09:34:34Z</time>
      </trkpt>
      <trkpt lat="38.3779000" lon="-2.5372310">
        <ele>1272.8</ele>
        <time>2019-11-01T09:34:38Z</time>
      </trkpt>
      <trkpt lat="38.3778790" lon="-2.5371570">
        <ele>1272.8</ele>
        <time>2019-11-01T09:34:42Z</time>
      </trkpt>
      <trkpt lat="38.3778690" lon="-2.5370790">
        <ele>1272.8</ele>
        <time>2019-11-01T09:34:46Z</time>
      </trkpt>
      <trkpt lat="38.3778640" lon="-2.5370060">
        <ele>1272.8</ele>
        <time>2019-11-01T09:34:50Z</time>
      </trkpt>
      <trkpt lat="38.3778560" lon="-2.5369360">
        <ele>1272.8</ele>
        <time>2019-11-01T09:34:55Z</time>
      </trkpt>
      <trkpt lat="38.3778480" lon="-2.5368720">
        <ele>1274.9</ele>
        <time>2019-11-01T09:34:59Z</time>
      </trkpt>
      <trkpt lat="38.3778560" lon="-2.5367950">
        <ele>1274.9</ele>
        <time>2019-11-01T09:35:04Z</time>
      </trkpt>
      <trkpt lat="38.3778460" lon="-2.5367250">
        <ele>1274.9</ele>
        <time>2019-11-01T09:35:10Z</time>
      </trkpt>
      <trkpt lat="38.3778360" lon="-2.5366620">
        <ele>1274.9</ele>
        <time>2019-11-01T09:35:15Z</time>
      </trkpt>
      <trkpt lat="38.3778230" lon="-2.5365870">
        <ele>1274.9</ele>
        <time>2019-11-01T09:35:20Z</time>
      </trkpt>
      <trkpt lat="38.3778200" lon="-2.5365130">
        <ele>1274.9</ele>
        <time>2019-11-01T09:35:24Z</time>
      </trkpt>
      <trkpt lat="38.3778200" lon="-2.5364480">
        <ele>1277.4</ele>
        <time>2019-11-01T09:35:27Z</time>
      </trkpt>
      <trkpt lat="38.3778120" lon="-2.5363940">
        <ele>1277.4</ele>
        <time>2019-11-01T09:35:30Z</time>
      </trkpt>
      <trkpt lat="38.3777970" lon="-2.5363230">
        <ele>1277.4</ele>
        <time>2019-11-01T09:35:34Z</time>
      </trkpt>
      <trkpt lat="38.3777920" lon="-2.5362430">
        <ele>1277.4</ele>
        <time>2019-11-01T09:35:38Z</time>
      </trkpt>
      <trkpt lat="38.3777970" lon="-2.5361780">
        <ele>1277.4</ele>
        <time>2019-11-01T09:35:41Z</time>
      </trkpt>
      <trkpt lat="38.3777840" lon="-2.5361130">
        <ele>1277.4</ele>
        <time>2019-11-01T09:35:44Z</time>
      </trkpt>
      <trkpt lat="38.3777660" lon="-2.5360510">
        <ele>1277.4</ele>
        <time>2019-11-01T09:35:47Z</time>
      </trkpt>
      <trkpt lat="38.3777460" lon="-2.5359820">
        <ele>1277.4</ele>
        <time>2019-11-01T09:35:51Z</time>
      </trkpt>
      <trkpt lat="38.3777280" lon="-2.5359300">
        <ele>1279.4</ele>
        <time>2019-11-01T09:35:54Z</time>
      </trkpt>
      <trkpt lat="38.3777080" lon="-2.5358570">
        <ele>1279.4</ele>
        <time>2019-11-01T09:35:58Z</time>
      </trkpt>
      <trkpt lat="38.3776840" lon="-2.5357840">
        <ele>1279.4</ele>
        <time>2019-11-01T09:36:02Z</time>
      </trkpt>
      <trkpt lat="38.3776690" lon="-2.5357160">
        <ele>1279.4</ele>
        <time>2019-11-01T09:36:06Z</time>
      </trkpt>
      <trkpt lat="38.3776610" lon="-2.5356460">
        <ele>1279.4</ele>
        <time>2019-11-01T09:36:10Z</time>
      </trkpt>
      <trkpt lat="38.3776670" lon="-2.5355700">
        <ele>1279.4</ele>
        <time>2019-11-01T09:36:14Z</time>
      </trkpt>
      <trkpt lat="38.3776690" lon="-2.5355010">
        <ele>1282.4</ele>
        <time>2019-11-01T09:36:17Z</time>
      </trkpt>
      <trkpt lat="38.3776670" lon="-2.5354320">
        <ele>1282.4</ele>
        <time>2019-11-01T09:36:20Z</time>
      </trkpt>
      <trkpt lat="38.3776610" lon="-2.5353590">
        <ele>1282.4</ele>
        <time>2019-11-01T09:36:23Z</time>
      </trkpt>
      <trkpt lat="38.3776590" lon="-2.5352820">
        <ele>1282.4</ele>
        <time>2019-11-01T09:36:27Z</time>
      </trkpt>
      <trkpt lat="38.3776590" lon="-2.5352090">
        <ele>1284.5</ele>
        <time>2019-11-01T09:36:31Z</time>
      </trkpt>
      <trkpt lat="38.3776670" lon="-2.5351600">
        <ele>1284.5</ele>
        <time>2019-11-01T09:36:34Z</time>
      </trkpt>
      <trkpt lat="38.3777000" lon="-2.5350910">
        <ele>1284.5</ele>
        <time>2019-11-01T09:36:38Z</time>
      </trkpt>
      <trkpt lat="38.3777310" lon="-2.5350340">
        <ele>1284.5</ele>
        <time>2019-11-01T09:36:42Z</time>
      </trkpt>
      <trkpt lat="38.3777510" lon="-2.5349770">
        <ele>1284.5</ele>
        <time>2019-11-01T09:36:46Z</time>
      </trkpt>
      <trkpt lat="38.3777770" lon="-2.5349150">
        <ele>1286.7</ele>
        <time>2019-11-01T09:36:50Z</time>
      </trkpt>
      <trkpt lat="38.3778050" lon="-2.5348480">
        <ele>1286.7</ele>
        <time>2019-11-01T09:36:54Z</time>
      </trkpt>
      <trkpt lat="38.3778360" lon="-2.5347780">
        <ele>1286.7</ele>
        <time>2019-11-01T09:36:58Z</time>
      </trkpt>
      <trkpt lat="38.3778640" lon="-2.5347130">
        <ele>1286.7</ele>
        <time>2019-11-01T09:37:02Z</time>
      </trkpt>
      <trkpt lat="38.3779070" lon="-2.5346370">
        <ele>1288.8</ele>
        <time>2019-11-01T09:37:06Z</time>
      </trkpt>
      <trkpt lat="38.3779380" lon="-2.5345730">
        <ele>1288.8</ele>
        <time>2019-11-01T09:37:09Z</time>
      </trkpt>
      <trkpt lat="38.3779690" lon="-2.5345050">
        <ele>1288.8</ele>
        <time>2019-11-01T09:37:12Z</time>
      </trkpt>
      <trkpt lat="38.3779940" lon="-2.5344520">
        <ele>1288.8</ele>
        <time>2019-11-01T09:37:15Z</time>
      </trkpt>
      <trkpt lat="38.3780150" lon="-2.5344030">
        <ele>1288.8</ele>
        <time>2019-11-01T09:37:18Z</time>
      </trkpt>
      <trkpt lat="38.3780300" lon="-2.5343330">
        <ele>1288.8</ele>
        <time>2019-11-01T09:37:22Z</time>
      </trkpt>
      <trkpt lat="38.3780510" lon="-2.5342530">
        <ele>1288.8</ele>
        <time>2019-11-01T09:37:26Z</time>
      </trkpt>
      <trkpt lat="38.3780790" lon="-2.5341690">
        <ele>1290.8</ele>
        <time>2019-11-01T09:37:30Z</time>
      </trkpt>
      <trkpt lat="38.3780940" lon="-2.5341010">
        <ele>1290.8</ele>
        <time>2019-11-01T09:37:33Z</time>
      </trkpt>
      <trkpt lat="38.3781090" lon="-2.5340220">
        <ele>1290.8</ele>
        <time>2019-11-01T09:37:36Z</time>
      </trkpt>
      <trkpt lat="38.3781120" lon="-2.5339480">
        <ele>1290.8</ele>
        <time>2019-11-01T09:37:39Z</time>
      </trkpt>
      <trkpt lat="38.3781120" lon="-2.5338790">
        <ele>1290.8</ele>
        <time>2019-11-01T09:37:42Z</time>
      </trkpt>
      <trkpt lat="38.3780860" lon="-2.5338030">
        <ele>1290.8</ele>
        <time>2019-11-01T09:37:46Z</time>
      </trkpt>
      <trkpt lat="38.3780560" lon="-2.5337370">
        <ele>1290.8</ele>
        <time>2019-11-01T09:37:50Z</time>
      </trkpt>
      <trkpt lat="38.3780330" lon="-2.5336720">
        <ele>1293.8</ele>
        <time>2019-11-01T09:37:53Z</time>
      </trkpt>
      <trkpt lat="38.3780150" lon="-2.5336010">
        <ele>1293.8</ele>
        <time>2019-11-01T09:37:56Z</time>
      </trkpt>
      <trkpt lat="38.3779990" lon="-2.5335190">
        <ele>1293.8</ele>
        <time>2019-11-01T09:37:59Z</time>
      </trkpt>
      <trkpt lat="38.3779940" lon="-2.5334630">
        <ele>1293.8</ele>
        <time>2019-11-01T09:38:01Z</time>
      </trkpt>
      <trkpt lat="38.3779940" lon="-2.5333960">
        <ele>1293.8</ele>
        <time>2019-11-01T09:38:04Z</time>
      </trkpt>
      <trkpt lat="38.3779870" lon="-2.5333240">
        <ele>1293.8</ele>
        <time>2019-11-01T09:38:08Z</time>
      </trkpt>
      <trkpt lat="38.3779940" lon="-2.5332520">
        <ele>1293.8</ele>
        <time>2019-11-01T09:38:12Z</time>
      </trkpt>
      <trkpt lat="38.3780150" lon="-2.5331740">
        <ele>1293.8</ele>
        <time>2019-11-01T09:38:16Z</time>
      </trkpt>
      <trkpt lat="38.3780380" lon="-2.5330920">
        <ele>1293.8</ele>
        <time>2019-11-01T09:38:20Z</time>
      </trkpt>
      <trkpt lat="38.3780510" lon="-2.5330320">
        <ele>1296.2</ele>
        <time>2019-11-01T09:38:23Z</time>
      </trkpt>
      <trkpt lat="38.3780710" lon="-2.5329780">
        <ele>1296.2</ele>
        <time>2019-11-01T09:38:26Z</time>
      </trkpt>
      <trkpt lat="38.3780940" lon="-2.5329220">
        <ele>1296.2</ele>
        <time>2019-11-01T09:38:29Z</time>
      </trkpt>
      <trkpt lat="38.3781320" lon="-2.5328470">
        <ele>1296.2</ele>
        <time>2019-11-01T09:38:33Z</time>
      </trkpt>
      <trkpt lat="38.3781730" lon="-2.5327820">
        <ele>1296.2</ele>
        <time>2019-11-01T09:38:36Z</time>
      </trkpt>
      <trkpt lat="38.3782090" lon="-2.5327370">
        <ele>1296.2</ele>
        <time>2019-11-01T09:38:38Z</time>
      </trkpt>
      <trkpt lat="38.3782600" lon="-2.5326690">
        <ele>1296.2</ele>
        <time>2019-11-01T09:38:41Z</time>
      </trkpt>
      <trkpt lat="38.3782990" lon="-2.5326210">
        <ele>1296.2</ele>
        <time>2019-11-01T09:38:43Z</time>
      </trkpt>
      <trkpt lat="38.3783420" lon="-2.5325540">
        <ele>1296.2</ele>
        <time>2019-11-01T09:38:46Z</time>
      </trkpt>
      <trkpt lat="38.3783760" lon="-2.5324980">
        <ele>1296.2</ele>
        <time>2019-11-01T09:38:49Z</time>
      </trkpt>
      <trkpt lat="38.3784060" lon="-2.5324430">
        <ele>1298.2</ele>
        <time>2019-11-01T09:38:52Z</time>
      </trkpt>
      <trkpt lat="38.3784400" lon="-2.5323690">
        <ele>1298.2</ele>
        <time>2019-11-01T09:38:55Z</time>
      </trkpt>
      <trkpt lat="38.3784760" lon="-2.5322930">
        <ele>1298.2</ele>
        <time>2019-11-01T09:38:58Z</time>
      </trkpt>
      <trkpt lat="38.3784990" lon="-2.5322230">
        <ele>1298.2</ele>
        <time>2019-11-01T09:39:01Z</time>
      </trkpt>
      <trkpt lat="38.3785290" lon="-2.5321520">
        <ele>1298.2</ele>
        <time>2019-11-01T09:39:04Z</time>
      </trkpt>
      <trkpt lat="38.3785680" lon="-2.5320840">
        <ele>1300.3</ele>
        <time>2019-11-01T09:39:07Z</time>
      </trkpt>
      <trkpt lat="38.3786010" lon="-2.5320150">
        <ele>1300.3</ele>
        <time>2019-11-01T09:39:10Z</time>
      </trkpt>
      <trkpt lat="38.3786270" lon="-2.5319440">
        <ele>1300.3</ele>
        <time>2019-11-01T09:39:13Z</time>
      </trkpt>
      <trkpt lat="38.3786550" lon="-2.5318780">
        <ele>1300.3</ele>
        <time>2019-11-01T09:39:16Z</time>
      </trkpt>
      <trkpt lat="38.3786780" lon="-2.5318140">
        <ele>1300.3</ele>
        <time>2019-11-01T09:39:19Z</time>
      </trkpt>
      <trkpt lat="38.3786960" lon="-2.5317480">
        <ele>1300.3</ele>
        <time>2019-11-01T09:39:22Z</time>
      </trkpt>
      <trkpt lat="38.3787160" lon="-2.5316840">
        <ele>1300.3</ele>
        <time>2019-11-01T09:39:25Z</time>
      </trkpt>
      <trkpt lat="38.3787320" lon="-2.5316140">
        <ele>1302.3</ele>
        <time>2019-11-01T09:39:28Z</time>
      </trkpt>
      <trkpt lat="38.3787490" lon="-2.5315430">
        <ele>1302.3</ele>
        <time>2019-11-01T09:39:31Z</time>
      </trkpt>
      <trkpt lat="38.3787780" lon="-2.5314690">
        <ele>1302.3</ele>
        <time>2019-11-01T09:39:34Z</time>
      </trkpt>
      <trkpt lat="38.3788030" lon="-2.5313840">
        <ele>1302.3</ele>
        <time>2019-11-01T09:39:37Z</time>
      </trkpt>
      <trkpt lat="38.3788340" lon="-2.5313020">
        <ele>1302.3</ele>
        <time>2019-11-01T09:39:40Z</time>
      </trkpt>
      <trkpt lat="38.3788720" lon="-2.5312220">
        <ele>1304.4</ele>
        <time>2019-11-01T09:39:43Z</time>
      </trkpt>
      <trkpt lat="38.3789030" lon="-2.5311560">
        <ele>1304.4</ele>
        <time>2019-11-01T09:39:46Z</time>
      </trkpt>
      <trkpt lat="38.3789360" lon="-2.5310960">
        <ele>1304.4</ele>
        <time>2019-11-01T09:39:49Z</time>
      </trkpt>
      <trkpt lat="38.3789750" lon="-2.5310350">
        <ele>1304.4</ele>
        <time>2019-11-01T09:39:52Z</time>
      </trkpt>
      <trkpt lat="38.3790230" lon="-2.5309700">
        <ele>1304.4</ele>
        <time>2019-11-01T09:39:55Z</time>
      </trkpt>
      <trkpt lat="38.3790670" lon="-2.5309060">
        <ele>1304.4</ele>
        <time>2019-11-01T09:39:58Z</time>
      </trkpt>
      <trkpt lat="38.3790980" lon="-2.5308670">
        <ele>1307.2</ele>
        <time>2019-11-01T09:40:00Z</time>
      </trkpt>
      <trkpt lat="38.3791360" lon="-2.5308070">
        <ele>1307.2</ele>
        <time>2019-11-01T09:40:03Z</time>
      </trkpt>
      <trkpt lat="38.3791770" lon="-2.5307420">
        <ele>1307.2</ele>
        <time>2019-11-01T09:40:06Z</time>
      </trkpt>
      <trkpt lat="38.3792030" lon="-2.5306950">
        <ele>1307.2</ele>
        <time>2019-11-01T09:40:08Z</time>
      </trkpt>
      <trkpt lat="38.3792380" lon="-2.5306210">
        <ele>1307.2</ele>
        <time>2019-11-01T09:40:11Z</time>
      </trkpt>
      <trkpt lat="38.3792690" lon="-2.5305560">
        <ele>1307.2</ele>
        <time>2019-11-01T09:40:14Z</time>
      </trkpt>
      <trkpt lat="38.3792950" lon="-2.5304910">
        <ele>1307.2</ele>
        <time>2019-11-01T09:40:17Z</time>
      </trkpt>
      <trkpt lat="38.3793380" lon="-2.5304070">
        <ele>1307.2</ele>
        <time>2019-11-01T09:40:21Z</time>
      </trkpt>
      <trkpt lat="38.3793690" lon="-2.5303390">
        <ele>1307.2</ele>
        <time>2019-11-01T09:40:24Z</time>
      </trkpt>
      <trkpt lat="38.3794020" lon="-2.5302710">
        <ele>1307.2</ele>
        <time>2019-11-01T09:40:27Z</time>
      </trkpt>
      <trkpt lat="38.3794360" lon="-2.5302040">
        <ele>1309.2</ele>
        <time>2019-11-01T09:40:30Z</time>
      </trkpt>
      <trkpt lat="38.3794740" lon="-2.5301360">
        <ele>1309.2</ele>
        <time>2019-11-01T09:40:33Z</time>
      </trkpt>
      <trkpt lat="38.3795100" lon="-2.5300730">
        <ele>1309.2</ele>
        <time>2019-11-01T09:40:36Z</time>
      </trkpt>
      <trkpt lat="38.3795580" lon="-2.5300140">
        <ele>1309.2</ele>
        <time>2019-11-01T09:40:39Z</time>
      </trkpt>
      <trkpt lat="38.3796070" lon="-2.5299520">
        <ele>1309.2</ele>
        <time>2019-11-01T09:40:42Z</time>
      </trkpt>
      <trkpt lat="38.3796430" lon="-2.5299100">
        <ele>1309.2</ele>
        <time>2019-11-01T09:40:44Z</time>
      </trkpt>
      <trkpt lat="38.3796920" lon="-2.5298460">
        <ele>1311.3</ele>
        <time>2019-11-01T09:40:47Z</time>
      </trkpt>
      <trkpt lat="38.3797270" lon="-2.5298070">
        <ele>1311.3</ele>
        <time>2019-11-01T09:40:49Z</time>
      </trkpt>
      <trkpt lat="38.3797610" lon="-2.5297660">
        <ele>1311.3</ele>
        <time>2019-11-01T09:40:51Z</time>
      </trkpt>
      <trkpt lat="38.3798090" lon="-2.5297030">
        <ele>1311.3</ele>
        <time>2019-11-01T09:40:54Z</time>
      </trkpt>
      <trkpt lat="38.3798400" lon="-2.5296560">
        <ele>1311.3</ele>
        <time>2019-11-01T09:40:56Z</time>
      </trkpt>
      <trkpt lat="38.3798860" lon="-2.5295900">
        <ele>1311.3</ele>
        <time>2019-11-01T09:40:59Z</time>
      </trkpt>
      <trkpt lat="38.3799220" lon="-2.5295260">
        <ele>1311.3</ele>
        <time>2019-11-01T09:41:02Z</time>
      </trkpt>
      <trkpt lat="38.3799480" lon="-2.5294590">
        <ele>1311.3</ele>
        <time>2019-11-01T09:41:05Z</time>
      </trkpt>
      <trkpt lat="38.3799780" lon="-2.5293920">
        <ele>1311.3</ele>
        <time>2019-11-01T09:41:08Z</time>
      </trkpt>
      <trkpt lat="38.3800120" lon="-2.5293190">
        <ele>1313.3</ele>
        <time>2019-11-01T09:41:11Z</time>
      </trkpt>
      <trkpt lat="38.3800350" lon="-2.5292730">
        <ele>1313.3</ele>
        <time>2019-11-01T09:41:13Z</time>
      </trkpt>
      <trkpt lat="38.3800580" lon="-2.5292090">
        <ele>1313.3</ele>
        <time>2019-11-01T09:41:16Z</time>
      </trkpt>
      <trkpt lat="38.3800810" lon="-2.5291380">
        <ele>1313.3</ele>
        <time>2019-11-01T09:41:19Z</time>
      </trkpt>
      <trkpt lat="38.3800960" lon="-2.5290690">
        <ele>1313.3</ele>
        <time>2019-11-01T09:41:22Z</time>
      </trkpt>
      <trkpt lat="38.3801090" lon="-2.5289970">
        <ele>1313.3</ele>
        <time>2019-11-01T09:41:25Z</time>
      </trkpt>
      <trkpt lat="38.3801110" lon="-2.5289260">
        <ele>1313.3</ele>
        <time>2019-11-01T09:41:28Z</time>
      </trkpt>
      <trkpt lat="38.3801190" lon="-2.5288610">
        <ele>1315.3</ele>
        <time>2019-11-01T09:41:31Z</time>
      </trkpt>
      <trkpt lat="38.3801190" lon="-2.5287710">
        <ele>1315.3</ele>
        <time>2019-11-01T09:41:35Z</time>
      </trkpt>
      <trkpt lat="38.3801190" lon="-2.5287070">
        <ele>1315.3</ele>
        <time>2019-11-01T09:41:38Z</time>
      </trkpt>
      <trkpt lat="38.3801240" lon="-2.5286430">
        <ele>1315.3</ele>
        <time>2019-11-01T09:41:41Z</time>
      </trkpt>
      <trkpt lat="38.3801270" lon="-2.5285690">
        <ele>1315.3</ele>
        <time>2019-11-01T09:41:45Z</time>
      </trkpt>
      <trkpt lat="38.3801400" lon="-2.5285070">
        <ele>1315.3</ele>
        <time>2019-11-01T09:41:48Z</time>
      </trkpt>
      <trkpt lat="38.3801470" lon="-2.5284440">
        <ele>1317.4</ele>
        <time>2019-11-01T09:41:51Z</time>
      </trkpt>
      <trkpt lat="38.3801570" lon="-2.5283730">
        <ele>1317.4</ele>
        <time>2019-11-01T09:41:54Z</time>
      </trkpt>
      <trkpt lat="38.3801730" lon="-2.5282830">
        <ele>1317.4</ele>
        <time>2019-11-01T09:41:57Z</time>
      </trkpt>
      <trkpt lat="38.3801830" lon="-2.5282070">
        <ele>1317.4</ele>
        <time>2019-11-01T09:41:59Z</time>
      </trkpt>
      <trkpt lat="38.3801960" lon="-2.5281230">
        <ele>1317.4</ele>
        <time>2019-11-01T09:42:01Z</time>
      </trkpt>
      <trkpt lat="38.3802040" lon="-2.5280330">
        <ele>1317.4</ele>
        <time>2019-11-01T09:42:03Z</time>
      </trkpt>
      <trkpt lat="38.3802040" lon="-2.5279480">
        <ele>1317.4</ele>
        <time>2019-11-01T09:42:05Z</time>
      </trkpt>
      <trkpt lat="38.3801960" lon="-2.5278700">
        <ele>1319.4</ele>
        <time>2019-11-01T09:42:07Z</time>
      </trkpt>
      <trkpt lat="38.3801800" lon="-2.5278020">
        <ele>1319.4</ele>
        <time>2019-11-01T09:42:09Z</time>
      </trkpt>
      <trkpt lat="38.3801570" lon="-2.5277440">
        <ele>1319.4</ele>
        <time>2019-11-01T09:42:11Z</time>
      </trkpt>
      <trkpt lat="38.3801270" lon="-2.5276880">
        <ele>1319.4</ele>
        <time>2019-11-01T09:42:13Z</time>
      </trkpt>
      <trkpt lat="38.3800930" lon="-2.5276300">
        <ele>1319.4</ele>
        <time>2019-11-01T09:42:15Z</time>
      </trkpt>
      <trkpt lat="38.3800630" lon="-2.5275680">
        <ele>1319.4</ele>
        <time>2019-11-01T09:42:17Z</time>
      </trkpt>
      <trkpt lat="38.3800420" lon="-2.5275030">
        <ele>1319.4</ele>
        <time>2019-11-01T09:42:19Z</time>
      </trkpt>
      <trkpt lat="38.3800400" lon="-2.5274360">
        <ele>1319.4</ele>
        <time>2019-11-01T09:42:21Z</time>
      </trkpt>
      <trkpt lat="38.3800550" lon="-2.5273430">
        <ele>1319.4</ele>
        <time>2019-11-01T09:42:24Z</time>
      </trkpt>
      <trkpt lat="38.3800780" lon="-2.5272830">
        <ele>1319.4</ele>
        <time>2019-11-01T09:42:26Z</time>
      </trkpt>
      <trkpt lat="38.3801090" lon="-2.5272010">
        <ele>1319.4</ele>
        <time>2019-11-01T09:42:29Z</time>
      </trkpt>
      <trkpt lat="38.3801400" lon="-2.5271280">
        <ele>1319.4</ele>
        <time>2019-11-01T09:42:32Z</time>
      </trkpt>
      <trkpt lat="38.3801680" lon="-2.5270650">
        <ele>1321.4</ele>
        <time>2019-11-01T09:42:35Z</time>
      </trkpt>
      <trkpt lat="38.3801910" lon="-2.5270220">
        <ele>1321.4</ele>
        <time>2019-11-01T09:42:37Z</time>
      </trkpt>
      <trkpt lat="38.3802210" lon="-2.5269560">
        <ele>1321.4</ele>
        <time>2019-11-01T09:42:40Z</time>
      </trkpt>
      <trkpt lat="38.3802370" lon="-2.5268840">
        <ele>1321.4</ele>
        <time>2019-11-01T09:42:43Z</time>
      </trkpt>
      <trkpt lat="38.3802440" lon="-2.5268090">
        <ele>1321.4</ele>
        <time>2019-11-01T09:42:46Z</time>
      </trkpt>
      <trkpt lat="38.3802570" lon="-2.5267260">
        <ele>1321.4</ele>
        <time>2019-11-01T09:42:49Z</time>
      </trkpt>
      <trkpt lat="38.3802680" lon="-2.5266420">
        <ele>1321.4</ele>
        <time>2019-11-01T09:42:52Z</time>
      </trkpt>
      <trkpt lat="38.3802800" lon="-2.5265550">
        <ele>1323.8</ele>
        <time>2019-11-01T09:42:55Z</time>
      </trkpt>
      <trkpt lat="38.3802880" lon="-2.5265010">
        <ele>1323.8</ele>
        <time>2019-11-01T09:42:57Z</time>
      </trkpt>
      <trkpt lat="38.3802910" lon="-2.5264160">
        <ele>1323.8</ele>
        <time>2019-11-01T09:43:00Z</time>
      </trkpt>
      <trkpt lat="38.3802960" lon="-2.5263330">
        <ele>1323.8</ele>
        <time>2019-11-01T09:43:03Z</time>
      </trkpt>
      <trkpt lat="38.3802880" lon="-2.5262470">
        <ele>1323.8</ele>
        <time>2019-11-01T09:43:06Z</time>
      </trkpt>
      <trkpt lat="38.3802680" lon="-2.5261620">
        <ele>1323.8</ele>
        <time>2019-11-01T09:43:09Z</time>
      </trkpt>
      <trkpt lat="38.3802440" lon="-2.5260790">
        <ele>1323.8</ele>
        <time>2019-11-01T09:43:12Z</time>
      </trkpt>
      <trkpt lat="38.3802210" lon="-2.5260000">
        <ele>1323.8</ele>
        <time>2019-11-01T09:43:15Z</time>
      </trkpt>
      <trkpt lat="38.3802040" lon="-2.5259150">
        <ele>1323.8</ele>
        <time>2019-11-01T09:43:18Z</time>
      </trkpt>
      <trkpt lat="38.3801880" lon="-2.5258290">
        <ele>1323.8</ele>
        <time>2019-11-01T09:43:21Z</time>
      </trkpt>
      <trkpt lat="38.3801650" lon="-2.5257430">
        <ele>1325.9</ele>
        <time>2019-11-01T09:43:24Z</time>
      </trkpt>
      <trkpt lat="38.3801500" lon="-2.5256870">
        <ele>1325.9</ele>
        <time>2019-11-01T09:43:26Z</time>
      </trkpt>
      <trkpt lat="38.3801320" lon="-2.5256000">
        <ele>1325.9</ele>
        <time>2019-11-01T09:43:29Z</time>
      </trkpt>
      <trkpt lat="38.3801090" lon="-2.5255180">
        <ele>1325.9</ele>
        <time>2019-11-01T09:43:32Z</time>
      </trkpt>
      <trkpt lat="38.3800880" lon="-2.5254390">
        <ele>1325.9</ele>
        <time>2019-11-01T09:43:35Z</time>
      </trkpt>
      <trkpt lat="38.3800730" lon="-2.5253680">
        <ele>1325.9</ele>
        <time>2019-11-01T09:43:38Z</time>
      </trkpt>
      <trkpt lat="38.3800650" lon="-2.5253000">
        <ele>1325.9</ele>
        <time>2019-11-01T09:43:41Z</time>
      </trkpt>
      <trkpt lat="38.3800700" lon="-2.5252260">
        <ele>1328.5</ele>
        <time>2019-11-01T09:43:44Z</time>
      </trkpt>
      <trkpt lat="38.3800780" lon="-2.5251500">
        <ele>1328.5</ele>
        <time>2019-11-01T09:43:47Z</time>
      </trkpt>
      <trkpt lat="38.3800880" lon="-2.5250790">
        <ele>1328.5</ele>
        <time>2019-11-01T09:43:50Z</time>
      </trkpt>
      <trkpt lat="38.3801040" lon="-2.5250110">
        <ele>1328.5</ele>
        <time>2019-11-01T09:43:53Z</time>
      </trkpt>
      <trkpt lat="38.3801190" lon="-2.5249430">
        <ele>1328.5</ele>
        <time>2019-11-01T09:43:56Z</time>
      </trkpt>
      <trkpt lat="38.3801340" lon="-2.5248740">
        <ele>1328.5</ele>
        <time>2019-11-01T09:43:59Z</time>
      </trkpt>
      <trkpt lat="38.3801470" lon="-2.5248050">
        <ele>1328.5</ele>
        <time>2019-11-01T09:44:02Z</time>
      </trkpt>
      <trkpt lat="38.3801570" lon="-2.5247360">
        <ele>1328.5</ele>
        <time>2019-11-01T09:44:05Z</time>
      </trkpt>
      <trkpt lat="38.3801730" lon="-2.5246640">
        <ele>1328.5</ele>
        <time>2019-11-01T09:44:08Z</time>
      </trkpt>
      <trkpt lat="38.3801960" lon="-2.5245880">
        <ele>1330.5</ele>
        <time>2019-11-01T09:44:11Z</time>
      </trkpt>
      <trkpt lat="38.3802110" lon="-2.5245140">
        <ele>1330.5</ele>
        <time>2019-11-01T09:44:14Z</time>
      </trkpt>
      <trkpt lat="38.3802190" lon="-2.5244400">
        <ele>1330.5</ele>
        <time>2019-11-01T09:44:17Z</time>
      </trkpt>
      <trkpt lat="38.3802270" lon="-2.5243670">
        <ele>1330.5</ele>
        <time>2019-11-01T09:44:20Z</time>
      </trkpt>
      <trkpt lat="38.3802420" lon="-2.5242890">
        <ele>1330.5</ele>
        <time>2019-11-01T09:44:23Z</time>
      </trkpt>
      <trkpt lat="38.3802570" lon="-2.5242110">
        <ele>1330.5</ele>
        <time>2019-11-01T09:44:26Z</time>
      </trkpt>
      <trkpt lat="38.3802750" lon="-2.5241270">
        <ele>1330.5</ele>
        <time>2019-11-01T09:44:29Z</time>
      </trkpt>
      <trkpt lat="38.3803030" lon="-2.5240280">
        <ele>1332.9</ele>
        <time>2019-11-01T09:44:32Z</time>
      </trkpt>
      <trkpt lat="38.3803210" lon="-2.5239610">
        <ele>1332.9</ele>
        <time>2019-11-01T09:44:34Z</time>
      </trkpt>
      <trkpt lat="38.3803370" lon="-2.5238930">
        <ele>1332.9</ele>
        <time>2019-11-01T09:44:36Z</time>
      </trkpt>
      <trkpt lat="38.3803520" lon="-2.5238290">
        <ele>1332.9</ele>
        <time>2019-11-01T09:44:38Z</time>
      </trkpt>
      <trkpt lat="38.3803700" lon="-2.5237660">
        <ele>1332.9</ele>
        <time>2019-11-01T09:44:40Z</time>
      </trkpt>
      <trkpt lat="38.3804010" lon="-2.5236720">
        <ele>1332.9</ele>
        <time>2019-11-01T09:44:43Z</time>
      </trkpt>
      <trkpt lat="38.3804240" lon="-2.5236100">
        <ele>1332.9</ele>
        <time>2019-11-01T09:44:45Z</time>
      </trkpt>
      <trkpt lat="38.3804470" lon="-2.5235430">
        <ele>1332.9</ele>
        <time>2019-11-01T09:44:47Z</time>
      </trkpt>
      <trkpt lat="38.3804750" lon="-2.5234810">
        <ele>1332.9</ele>
        <time>2019-11-01T09:44:49Z</time>
      </trkpt>
      <trkpt lat="38.3805000" lon="-2.5234230">
        <ele>1332.9</ele>
        <time>2019-11-01T09:44:51Z</time>
      </trkpt>
      <trkpt lat="38.3805310" lon="-2.5233720">
        <ele>1332.9</ele>
        <time>2019-11-01T09:44:53Z</time>
      </trkpt>
      <trkpt lat="38.3805930" lon="-2.5232960">
        <ele>1332.9</ele>
        <time>2019-11-01T09:44:56Z</time>
      </trkpt>
      <trkpt lat="38.3806390" lon="-2.5232490">
        <ele>1332.9</ele>
        <time>2019-11-01T09:44:58Z</time>
      </trkpt>
      <trkpt lat="38.3806870" lon="-2.5232030">
        <ele>1332.9</ele>
        <time>2019-11-01T09:45:00Z</time>
      </trkpt>
      <trkpt lat="38.3807310" lon="-2.5231600">
        <ele>1332.9</ele>
        <time>2019-11-01T09:45:02Z</time>
      </trkpt>
      <trkpt lat="38.3807720" lon="-2.5231160">
        <ele>1335.2</ele>
        <time>2019-11-01T09:45:04Z</time>
      </trkpt>
      <trkpt lat="38.3808180" lon="-2.5230690">
        <ele>1335.2</ele>
        <time>2019-11-01T09:45:06Z</time>
      </trkpt>
      <trkpt lat="38.3808670" lon="-2.5230250">
        <ele>1335.2</ele>
        <time>2019-11-01T09:45:08Z</time>
      </trkpt>
      <trkpt lat="38.3809430" lon="-2.5229630">
        <ele>1335.2</ele>
        <time>2019-11-01T09:45:11Z</time>
      </trkpt>
      <trkpt lat="38.3809970" lon="-2.5229200">
        <ele>1335.2</ele>
        <time>2019-11-01T09:45:13Z</time>
      </trkpt>
      <trkpt lat="38.3810530" lon="-2.5228710">
        <ele>1335.2</ele>
        <time>2019-11-01T09:45:15Z</time>
      </trkpt>
      <trkpt lat="38.3811120" lon="-2.5228210">
        <ele>1335.2</ele>
        <time>2019-11-01T09:45:17Z</time>
      </trkpt>
      <trkpt lat="38.3811690" lon="-2.5227760">
        <ele>1335.2</ele>
        <time>2019-11-01T09:45:19Z</time>
      </trkpt>
      <trkpt lat="38.3812220" lon="-2.5227360">
        <ele>1335.2</ele>
        <time>2019-11-01T09:45:21Z</time>
      </trkpt>
      <trkpt lat="38.3812790" lon="-2.5227020">
        <ele>1335.2</ele>
        <time>2019-11-01T09:45:23Z</time>
      </trkpt>
      <trkpt lat="38.3813350" lon="-2.5226740">
        <ele>1335.2</ele>
        <time>2019-11-01T09:45:25Z</time>
      </trkpt>
      <trkpt lat="38.3813940" lon="-2.5226430">
        <ele>1335.2</ele>
        <time>2019-11-01T09:45:27Z</time>
      </trkpt>
      <trkpt lat="38.3814350" lon="-2.5226140">
        <ele>1335.2</ele>
        <time>2019-11-01T09:45:29Z</time>
      </trkpt>
      <trkpt lat="38.3814810" lon="-2.5225710">
        <ele>1335.2</ele>
        <time>2019-11-01T09:45:32Z</time>
      </trkpt>
      <trkpt lat="38.3815190" lon="-2.5225210">
        <ele>1335.2</ele>
        <time>2019-11-01T09:45:36Z</time>
      </trkpt>
      <trkpt lat="38.3815300" lon="-2.5224390">
        <ele>1335.2</ele>
        <time>2019-11-01T09:45:40Z</time>
      </trkpt>
      <trkpt lat="38.3815220" lon="-2.5223880">
        <ele>1335.2</ele>
        <time>2019-11-01T09:45:44Z</time>
      </trkpt>
      <trkpt lat="38.3815220" lon="-2.5223120">
        <ele>1335.2</ele>
        <time>2019-11-01T09:47:24Z</time>
      </trkpt>
      <trkpt lat="38.3815530" lon="-2.5222190">
        <ele>1335.2</ele>
        <time>2019-11-01T09:47:28Z</time>
      </trkpt>
      <trkpt lat="38.3815830" lon="-2.5221420">
        <ele>1335.2</ele>
        <time>2019-11-01T09:47:30Z</time>
      </trkpt>
      <trkpt lat="38.3816220" lon="-2.5220540">
        <ele>1335.2</ele>
        <time>2019-11-01T09:47:32Z</time>
      </trkpt>
      <trkpt lat="38.3816680" lon="-2.5219620">
        <ele>1335.2</ele>
        <time>2019-11-01T09:47:34Z</time>
      </trkpt>
      <trkpt lat="38.3817160" lon="-2.5218770">
        <ele>1335.2</ele>
        <time>2019-11-01T09:47:36Z</time>
      </trkpt>
      <trkpt lat="38.3817680" lon="-2.5218020">
        <ele>1335.2</ele>
        <time>2019-11-01T09:47:38Z</time>
      </trkpt>
      <trkpt lat="38.3818240" lon="-2.5217350">
        <ele>1335.2</ele>
        <time>2019-11-01T09:47:40Z</time>
      </trkpt>
      <trkpt lat="38.3818780" lon="-2.5216720">
        <ele>1335.2</ele>
        <time>2019-11-01T09:47:42Z</time>
      </trkpt>
      <trkpt lat="38.3819260" lon="-2.5216090">
        <ele>1335.2</ele>
        <time>2019-11-01T09:47:44Z</time>
      </trkpt>
      <trkpt lat="38.3819650" lon="-2.5215490">
        <ele>1335.2</ele>
        <time>2019-11-01T09:47:46Z</time>
      </trkpt>
      <trkpt lat="38.3820010" lon="-2.5214910">
        <ele>1335.2</ele>
        <time>2019-11-01T09:47:48Z</time>
      </trkpt>
      <trkpt lat="38.3820340" lon="-2.5214400">
        <ele>1335.2</ele>
        <time>2019-11-01T09:47:50Z</time>
      </trkpt>
      <trkpt lat="38.3820850" lon="-2.5213630">
        <ele>1335.2</ele>
        <time>2019-11-01T09:47:53Z</time>
      </trkpt>
      <trkpt lat="38.3821210" lon="-2.5213060">
        <ele>1335.2</ele>
        <time>2019-11-01T09:47:55Z</time>
      </trkpt>
      <trkpt lat="38.3821670" lon="-2.5212540">
        <ele>1335.2</ele>
        <time>2019-11-01T09:47:57Z</time>
      </trkpt>
      <trkpt lat="38.3822130" lon="-2.5212010">
        <ele>1335.2</ele>
        <time>2019-11-01T09:47:59Z</time>
      </trkpt>
      <trkpt lat="38.3822590" lon="-2.5211450">
        <ele>1335.2</ele>
        <time>2019-11-01T09:48:01Z</time>
      </trkpt>
      <trkpt lat="38.3823050" lon="-2.5210890">
        <ele>1335.2</ele>
        <time>2019-11-01T09:48:03Z</time>
      </trkpt>
      <trkpt lat="38.3823460" lon="-2.5210300">
        <ele>1335.2</ele>
        <time>2019-11-01T09:48:05Z</time>
      </trkpt>
      <trkpt lat="38.3823900" lon="-2.5209670">
        <ele>1335.2</ele>
        <time>2019-11-01T09:48:07Z</time>
      </trkpt>
      <trkpt lat="38.3824230" lon="-2.5209040">
        <ele>1335.2</ele>
        <time>2019-11-01T09:48:09Z</time>
      </trkpt>
      <trkpt lat="38.3824590" lon="-2.5208410">
        <ele>1335.2</ele>
        <time>2019-11-01T09:48:11Z</time>
      </trkpt>
      <trkpt lat="38.3824920" lon="-2.5207820">
        <ele>1335.2</ele>
        <time>2019-11-01T09:48:13Z</time>
      </trkpt>
      <trkpt lat="38.3825310" lon="-2.5207180">
        <ele>1335.2</ele>
        <time>2019-11-01T09:48:15Z</time>
      </trkpt>
      <trkpt lat="38.3825720" lon="-2.5206540">
        <ele>1335.2</ele>
        <time>2019-11-01T09:48:17Z</time>
      </trkpt>
      <trkpt lat="38.3826150" lon="-2.5205890">
        <ele>1335.2</ele>
        <time>2019-11-01T09:48:19Z</time>
      </trkpt>
      <trkpt lat="38.3826690" lon="-2.5205230">
        <ele>1335.2</ele>
        <time>2019-11-01T09:48:21Z</time>
      </trkpt>
      <trkpt lat="38.3827250" lon="-2.5204590">
        <ele>1335.2</ele>
        <time>2019-11-01T09:48:23Z</time>
      </trkpt>
      <trkpt lat="38.3827810" lon="-2.5203990">
        <ele>1335.2</ele>
        <time>2019-11-01T09:48:25Z</time>
      </trkpt>
      <trkpt lat="38.3828330" lon="-2.5203420">
        <ele>1335.2</ele>
        <time>2019-11-01T09:48:27Z</time>
      </trkpt>
      <trkpt lat="38.3828740" lon="-2.5202940">
        <ele>1335.2</ele>
        <time>2019-11-01T09:48:29Z</time>
      </trkpt>
      <trkpt lat="38.3829120" lon="-2.5202330">
        <ele>1335.2</ele>
        <time>2019-11-01T09:48:32Z</time>
      </trkpt>
      <trkpt lat="38.3829500" lon="-2.5201690">
        <ele>1335.2</ele>
        <time>2019-11-01T09:48:36Z</time>
      </trkpt>
      <trkpt lat="38.3829760" lon="-2.5200930">
        <ele>1335.2</ele>
        <time>2019-11-01T09:48:40Z</time>
      </trkpt>
      <trkpt lat="38.3829910" lon="-2.5200250">
        <ele>1335.2</ele>
        <time>2019-11-01T09:48:43Z</time>
      </trkpt>
      <trkpt lat="38.3830350" lon="-2.5199770">
        <ele>1335.2</ele>
        <time>2019-11-01T09:48:46Z</time>
      </trkpt>
      <trkpt lat="38.3830910" lon="-2.5199430">
        <ele>1335.2</ele>
        <time>2019-11-01T09:48:49Z</time>
      </trkpt>
      <trkpt lat="38.3831400" lon="-2.5199160">
        <ele>1335.2</ele>
        <time>2019-11-01T09:48:52Z</time>
      </trkpt>
      <trkpt lat="38.3831940" lon="-2.5198750">
        <ele>1335.2</ele>
        <time>2019-11-01T09:48:55Z</time>
      </trkpt>
      <trkpt lat="38.3832450" lon="-2.5198300">
        <ele>1335.2</ele>
        <time>2019-11-01T09:48:58Z</time>
      </trkpt>
      <trkpt lat="38.3832860" lon="-2.5197800">
        <ele>1335.2</ele>
        <time>2019-11-01T09:49:01Z</time>
      </trkpt>
      <trkpt lat="38.3833190" lon="-2.5197200">
        <ele>1335.2</ele>
        <time>2019-11-01T09:49:04Z</time>
      </trkpt>
      <trkpt lat="38.3833550" lon="-2.5196550">
        <ele>1335.2</ele>
        <time>2019-11-01T09:49:07Z</time>
      </trkpt>
      <trkpt lat="38.3833880" lon="-2.5195910">
        <ele>1335.2</ele>
        <time>2019-11-01T09:49:10Z</time>
      </trkpt>
      <trkpt lat="38.3834240" lon="-2.5195320">
        <ele>1333.1</ele>
        <time>2019-11-01T09:49:13Z</time>
      </trkpt>
      <trkpt lat="38.3834600" lon="-2.5194760">
        <ele>1333.1</ele>
        <time>2019-11-01T09:49:16Z</time>
      </trkpt>
      <trkpt lat="38.3835060" lon="-2.5194080">
        <ele>1333.1</ele>
        <time>2019-11-01T09:49:19Z</time>
      </trkpt>
      <trkpt lat="38.3835490" lon="-2.5193380">
        <ele>1333.1</ele>
        <time>2019-11-01T09:49:22Z</time>
      </trkpt>
      <trkpt lat="38.3835900" lon="-2.5192760">
        <ele>1333.1</ele>
        <time>2019-11-01T09:49:25Z</time>
      </trkpt>
      <trkpt lat="38.3836340" lon="-2.5192190">
        <ele>1333.1</ele>
        <time>2019-11-01T09:49:28Z</time>
      </trkpt>
      <trkpt lat="38.3836850" lon="-2.5191610">
        <ele>1333.1</ele>
        <time>2019-11-01T09:49:31Z</time>
      </trkpt>
      <trkpt lat="38.3837360" lon="-2.5190990">
        <ele>1333.1</ele>
        <time>2019-11-01T09:49:34Z</time>
      </trkpt>
      <trkpt lat="38.3837850" lon="-2.5190370">
        <ele>1333.1</ele>
        <time>2019-11-01T09:49:37Z</time>
      </trkpt>
      <trkpt lat="38.3838340" lon="-2.5189800">
        <ele>1333.1</ele>
        <time>2019-11-01T09:49:40Z</time>
      </trkpt>
      <trkpt lat="38.3838870" lon="-2.5189260">
        <ele>1333.1</ele>
        <time>2019-11-01T09:49:43Z</time>
      </trkpt>
      <trkpt lat="38.3839410" lon="-2.5188790">
        <ele>1331.1</ele>
        <time>2019-11-01T09:49:46Z</time>
      </trkpt>
      <trkpt lat="38.3840000" lon="-2.5188360">
        <ele>1331.1</ele>
        <time>2019-11-01T09:49:49Z</time>
      </trkpt>
      <trkpt lat="38.3840590" lon="-2.5187850">
        <ele>1331.1</ele>
        <time>2019-11-01T09:49:52Z</time>
      </trkpt>
      <trkpt lat="38.3841020" lon="-2.5187530">
        <ele>1331.1</ele>
        <time>2019-11-01T09:49:54Z</time>
      </trkpt>
      <trkpt lat="38.3841560" lon="-2.5187000">
        <ele>1331.1</ele>
        <time>2019-11-01T09:49:57Z</time>
      </trkpt>
      <trkpt lat="38.3842230" lon="-2.5186240">
        <ele>1331.1</ele>
        <time>2019-11-01T09:50:01Z</time>
      </trkpt>
      <trkpt lat="38.3842690" lon="-2.5185660">
        <ele>1331.1</ele>
        <time>2019-11-01T09:50:04Z</time>
      </trkpt>
      <trkpt lat="38.3843200" lon="-2.5185010">
        <ele>1331.1</ele>
        <time>2019-11-01T09:50:07Z</time>
      </trkpt>
      <trkpt lat="38.3843660" lon="-2.5184370">
        <ele>1331.1</ele>
        <time>2019-11-01T09:50:10Z</time>
      </trkpt>
      <trkpt lat="38.3844070" lon="-2.5183830">
        <ele>1331.1</ele>
        <time>2019-11-01T09:50:13Z</time>
      </trkpt>
      <trkpt lat="38.3844480" lon="-2.5183330">
        <ele>1331.1</ele>
        <time>2019-11-01T09:50:16Z</time>
      </trkpt>
      <trkpt lat="38.3844940" lon="-2.5182840">
        <ele>1331.1</ele>
        <time>2019-11-01T09:50:19Z</time>
      </trkpt>
      <trkpt lat="38.3845450" lon="-2.5182280">
        <ele>1331.1</ele>
        <time>2019-11-01T09:50:22Z</time>
      </trkpt>
      <trkpt lat="38.3845860" lon="-2.5181640">
        <ele>1329.1</ele>
        <time>2019-11-01T09:50:25Z</time>
      </trkpt>
      <trkpt lat="38.3846120" lon="-2.5181220">
        <ele>1329.1</ele>
        <time>2019-11-01T09:50:27Z</time>
      </trkpt>
      <trkpt lat="38.3846400" lon="-2.5180620">
        <ele>1329.1</ele>
        <time>2019-11-01T09:50:30Z</time>
      </trkpt>
      <trkpt lat="38.3846730" lon="-2.5179900">
        <ele>1329.1</ele>
        <time>2019-11-01T09:50:33Z</time>
      </trkpt>
      <trkpt lat="38.3847120" lon="-2.5179150">
        <ele>1329.1</ele>
        <time>2019-11-01T09:50:36Z</time>
      </trkpt>
      <trkpt lat="38.3847500" lon="-2.5178330">
        <ele>1329.1</ele>
        <time>2019-11-01T09:50:39Z</time>
      </trkpt>
      <trkpt lat="38.3847780" lon="-2.5177770">
        <ele>1329.1</ele>
        <time>2019-11-01T09:50:41Z</time>
      </trkpt>
      <trkpt lat="38.3848120" lon="-2.5176980">
        <ele>1329.1</ele>
        <time>2019-11-01T09:50:44Z</time>
      </trkpt>
      <trkpt lat="38.3848420" lon="-2.5176270">
        <ele>1329.1</ele>
        <time>2019-11-01T09:50:47Z</time>
      </trkpt>
      <trkpt lat="38.3848760" lon="-2.5175540">
        <ele>1329.1</ele>
        <time>2019-11-01T09:50:50Z</time>
      </trkpt>
      <trkpt lat="38.3849140" lon="-2.5174900">
        <ele>1329.1</ele>
        <time>2019-11-01T09:50:53Z</time>
      </trkpt>
      <trkpt lat="38.3849570" lon="-2.5174290">
        <ele>1329.1</ele>
        <time>2019-11-01T09:50:56Z</time>
      </trkpt>
      <trkpt lat="38.3849910" lon="-2.5173600">
        <ele>1329.1</ele>
        <time>2019-11-01T09:50:59Z</time>
      </trkpt>
      <trkpt lat="38.3850240" lon="-2.5172990">
        <ele>1329.1</ele>
        <time>2019-11-01T09:51:02Z</time>
      </trkpt>
      <trkpt lat="38.3850600" lon="-2.5172460">
        <ele>1326.1</ele>
        <time>2019-11-01T09:51:05Z</time>
      </trkpt>
      <trkpt lat="38.3850980" lon="-2.5171890">
        <ele>1326.1</ele>
        <time>2019-11-01T09:51:08Z</time>
      </trkpt>
      <trkpt lat="38.3851520" lon="-2.5171330">
        <ele>1326.1</ele>
        <time>2019-11-01T09:51:11Z</time>
      </trkpt>
      <trkpt lat="38.3852110" lon="-2.5170700">
        <ele>1326.1</ele>
        <time>2019-11-01T09:51:14Z</time>
      </trkpt>
      <trkpt lat="38.3852540" lon="-2.5170260">
        <ele>1326.1</ele>
        <time>2019-11-01T09:51:16Z</time>
      </trkpt>
      <trkpt lat="38.3852950" lon="-2.5169790">
        <ele>1326.1</ele>
        <time>2019-11-01T09:51:18Z</time>
      </trkpt>
      <trkpt lat="38.3853410" lon="-2.5169300">
        <ele>1326.1</ele>
        <time>2019-11-01T09:51:20Z</time>
      </trkpt>
      <trkpt lat="38.3853880" lon="-2.5168770">
        <ele>1326.1</ele>
        <time>2019-11-01T09:51:22Z</time>
      </trkpt>
      <trkpt lat="38.3854340" lon="-2.5168260">
        <ele>1326.1</ele>
        <time>2019-11-01T09:51:24Z</time>
      </trkpt>
      <trkpt lat="38.3854820" lon="-2.5167820">
        <ele>1326.1</ele>
        <time>2019-11-01T09:51:26Z</time>
      </trkpt>
      <trkpt lat="38.3855280" lon="-2.5167510">
        <ele>1326.1</ele>
        <time>2019-11-01T09:51:28Z</time>
      </trkpt>
      <trkpt lat="38.3855770" lon="-2.5167200">
        <ele>1326.1</ele>
        <time>2019-11-01T09:51:30Z</time>
      </trkpt>
      <trkpt lat="38.3856280" lon="-2.5166930">
        <ele>1326.1</ele>
        <time>2019-11-01T09:51:32Z</time>
      </trkpt>
      <trkpt lat="38.3856740" lon="-2.5166790">
        <ele>1326.1</ele>
        <time>2019-11-01T09:51:34Z</time>
      </trkpt>
      <trkpt lat="38.3857460" lon="-2.5166590">
        <ele>1324.1</ele>
        <time>2019-11-01T09:51:37Z</time>
      </trkpt>
      <trkpt lat="38.3857920" lon="-2.5166440">
        <ele>1324.1</ele>
        <time>2019-11-01T09:51:39Z</time>
      </trkpt>
      <trkpt lat="38.3858380" lon="-2.5166260">
        <ele>1324.1</ele>
        <time>2019-11-01T09:51:41Z</time>
      </trkpt>
      <trkpt lat="38.3859000" lon="-2.5166080">
        <ele>1324.1</ele>
        <time>2019-11-01T09:51:44Z</time>
      </trkpt>
      <trkpt lat="38.3859510" lon="-2.5165780">
        <ele>1324.1</ele>
        <time>2019-11-01T09:51:47Z</time>
      </trkpt>
      <trkpt lat="38.3860040" lon="-2.5165510">
        <ele>1324.1</ele>
        <time>2019-11-01T09:51:50Z</time>
      </trkpt>
      <trkpt lat="38.3860580" lon="-2.5165280">
        <ele>1324.1</ele>
        <time>2019-11-01T09:51:53Z</time>
      </trkpt>
      <trkpt lat="38.3861120" lon="-2.5165150">
        <ele>1324.1</ele>
        <time>2019-11-01T09:51:56Z</time>
      </trkpt>
      <trkpt lat="38.3861680" lon="-2.5165130">
        <ele>1324.1</ele>
        <time>2019-11-01T09:51:59Z</time>
      </trkpt>
      <trkpt lat="38.3862270" lon="-2.5165160">
        <ele>1324.1</ele>
        <time>2019-11-01T09:52:02Z</time>
      </trkpt>
      <trkpt lat="38.3862730" lon="-2.5165180">
        <ele>1324.1</ele>
        <time>2019-11-01T09:52:05Z</time>
      </trkpt>
      <trkpt lat="38.3863300" lon="-2.5165190">
        <ele>1324.1</ele>
        <time>2019-11-01T09:52:09Z</time>
      </trkpt>
      <trkpt lat="38.3863860" lon="-2.5165330">
        <ele>1324.1</ele>
        <time>2019-11-01T09:52:13Z</time>
      </trkpt>
      <trkpt lat="38.3864320" lon="-2.5165640">
        <ele>1324.1</ele>
        <time>2019-11-01T09:52:16Z</time>
      </trkpt>
      <trkpt lat="38.3864830" lon="-2.5165820">
        <ele>1324.1</ele>
        <time>2019-11-01T09:52:19Z</time>
      </trkpt>
      <trkpt lat="38.3865470" lon="-2.5166090">
        <ele>1324.1</ele>
        <time>2019-11-01T09:52:23Z</time>
      </trkpt>
      <trkpt lat="38.3865880" lon="-2.5166430">
        <ele>1324.1</ele>
        <time>2019-11-01T09:52:26Z</time>
      </trkpt>
      <trkpt lat="38.3866390" lon="-2.5166680">
        <ele>1324.1</ele>
        <time>2019-11-01T09:52:29Z</time>
      </trkpt>
      <trkpt lat="38.3866930" lon="-2.5166770">
        <ele>1324.1</ele>
        <time>2019-11-01T09:52:32Z</time>
      </trkpt>
      <trkpt lat="38.3867440" lon="-2.5166640">
        <ele>1324.1</ele>
        <time>2019-11-01T09:52:35Z</time>
      </trkpt>
      <trkpt lat="38.3867880" lon="-2.5166260">
        <ele>1324.1</ele>
        <time>2019-11-01T09:52:38Z</time>
      </trkpt>
      <trkpt lat="38.3868290" lon="-2.5165620">
        <ele>1324.1</ele>
        <time>2019-11-01T09:52:42Z</time>
      </trkpt>
      <trkpt lat="38.3868600" lon="-2.5165020">
        <ele>1324.1</ele>
        <time>2019-11-01T09:52:45Z</time>
      </trkpt>
      <trkpt lat="38.3868980" lon="-2.5164390">
        <ele>1324.1</ele>
        <time>2019-11-01T09:52:48Z</time>
      </trkpt>
      <trkpt lat="38.3869360" lon="-2.5163910">
        <ele>1324.1</ele>
        <time>2019-11-01T09:52:51Z</time>
      </trkpt>
      <trkpt lat="38.3869750" lon="-2.5163550">
        <ele>1324.1</ele>
        <time>2019-11-01T09:52:54Z</time>
      </trkpt>
      <trkpt lat="38.3870210" lon="-2.5163160">
        <ele>1324.1</ele>
        <time>2019-11-01T09:52:58Z</time>
      </trkpt>
      <trkpt lat="38.3870690" lon="-2.5162820">
        <ele>1324.1</ele>
        <time>2019-11-01T09:53:02Z</time>
      </trkpt>
      <trkpt lat="38.3871230" lon="-2.5162600">
        <ele>1324.1</ele>
        <time>2019-11-01T09:53:06Z</time>
      </trkpt>
      <trkpt lat="38.3871640" lon="-2.5162480">
        <ele>1326.1</ele>
        <time>2019-11-01T09:53:09Z</time>
      </trkpt>
      <trkpt lat="38.3872310" lon="-2.5162370">
        <ele>1326.1</ele>
        <time>2019-11-01T09:53:13Z</time>
      </trkpt>
      <trkpt lat="38.3872870" lon="-2.5162310">
        <ele>1326.1</ele>
        <time>2019-11-01T09:53:17Z</time>
      </trkpt>
      <trkpt lat="38.3873430" lon="-2.5162140">
        <ele>1326.1</ele>
        <time>2019-11-01T09:53:21Z</time>
      </trkpt>
      <trkpt lat="38.3873970" lon="-2.5162030">
        <ele>1326.1</ele>
        <time>2019-11-01T09:53:25Z</time>
      </trkpt>
      <trkpt lat="38.3874590" lon="-2.5161950">
        <ele>1326.1</ele>
        <time>2019-11-01T09:53:29Z</time>
      </trkpt>
      <trkpt lat="38.3875120" lon="-2.5162000">
        <ele>1326.1</ele>
        <time>2019-11-01T09:53:33Z</time>
      </trkpt>
      <trkpt lat="38.3875760" lon="-2.5162150">
        <ele>1326.1</ele>
        <time>2019-11-01T09:53:38Z</time>
      </trkpt>
      <trkpt lat="38.3876220" lon="-2.5162420">
        <ele>1328.2</ele>
        <time>2019-11-01T09:54:04Z</time>
      </trkpt>
      <trkpt lat="38.3877020" lon="-2.5162580">
        <ele>1328.2</ele>
        <time>2019-11-01T09:54:09Z</time>
      </trkpt>
      <trkpt lat="38.3877680" lon="-2.5162520">
        <ele>1328.2</ele>
        <time>2019-11-01T09:54:12Z</time>
      </trkpt>
      <trkpt lat="38.3878370" lon="-2.5162470">
        <ele>1328.2</ele>
        <time>2019-11-01T09:54:15Z</time>
      </trkpt>
      <trkpt lat="38.3879090" lon="-2.5162510">
        <ele>1328.2</ele>
        <time>2019-11-01T09:54:18Z</time>
      </trkpt>
      <trkpt lat="38.3879550" lon="-2.5162410">
        <ele>1328.2</ele>
        <time>2019-11-01T09:54:20Z</time>
      </trkpt>
      <trkpt lat="38.3880270" lon="-2.5162230">
        <ele>1330.2</ele>
        <time>2019-11-01T09:54:23Z</time>
      </trkpt>
      <trkpt lat="38.3880760" lon="-2.5162110">
        <ele>1330.2</ele>
        <time>2019-11-01T09:54:25Z</time>
      </trkpt>
      <trkpt lat="38.3881270" lon="-2.5162000">
        <ele>1330.2</ele>
        <time>2019-11-01T09:54:27Z</time>
      </trkpt>
      <trkpt lat="38.3881980" lon="-2.5161900">
        <ele>1330.2</ele>
        <time>2019-11-01T09:54:30Z</time>
      </trkpt>
      <trkpt lat="38.3882750" lon="-2.5161940">
        <ele>1330.2</ele>
        <time>2019-11-01T09:54:33Z</time>
      </trkpt>
      <trkpt lat="38.3883290" lon="-2.5162020">
        <ele>1330.2</ele>
        <time>2019-11-01T09:54:35Z</time>
      </trkpt>
      <trkpt lat="38.3883850" lon="-2.5162180">
        <ele>1330.2</ele>
        <time>2019-11-01T09:54:37Z</time>
      </trkpt>
      <trkpt lat="38.3884470" lon="-2.5162390">
        <ele>1330.2</ele>
        <time>2019-11-01T09:54:39Z</time>
      </trkpt>
      <trkpt lat="38.3885030" lon="-2.5162540">
        <ele>1330.2</ele>
        <time>2019-11-01T09:54:41Z</time>
      </trkpt>
      <trkpt lat="38.3885720" lon="-2.5162670">
        <ele>1330.2</ele>
        <time>2019-11-01T09:54:43Z</time>
      </trkpt>
      <trkpt lat="38.3886490" lon="-2.5162790">
        <ele>1330.2</ele>
        <time>2019-11-01T09:54:45Z</time>
      </trkpt>
      <trkpt lat="38.3887180" lon="-2.5162920">
        <ele>1330.2</ele>
        <time>2019-11-01T09:54:47Z</time>
      </trkpt>
      <trkpt lat="38.3887870" lon="-2.5163070">
        <ele>1330.2</ele>
        <time>2019-11-01T09:54:49Z</time>
      </trkpt>
      <trkpt lat="38.3888510" lon="-2.5163230">
        <ele>1332.7</ele>
        <time>2019-11-01T09:54:51Z</time>
      </trkpt>
      <trkpt lat="38.3889130" lon="-2.5163400">
        <ele>1332.7</ele>
        <time>2019-11-01T09:54:53Z</time>
      </trkpt>
      <trkpt lat="38.3889770" lon="-2.5163520">
        <ele>1332.7</ele>
        <time>2019-11-01T09:54:55Z</time>
      </trkpt>
      <trkpt lat="38.3890410" lon="-2.5163590">
        <ele>1332.7</ele>
        <time>2019-11-01T09:54:57Z</time>
      </trkpt>
      <trkpt lat="38.3891000" lon="-2.5163690">
        <ele>1332.7</ele>
        <time>2019-11-01T09:54:59Z</time>
      </trkpt>
      <trkpt lat="38.3891530" lon="-2.5163810">
        <ele>1332.7</ele>
        <time>2019-11-01T09:55:01Z</time>
      </trkpt>
      <trkpt lat="38.3892070" lon="-2.5163960">
        <ele>1332.7</ele>
        <time>2019-11-01T09:55:03Z</time>
      </trkpt>
      <trkpt lat="38.3892630" lon="-2.5164110">
        <ele>1332.7</ele>
        <time>2019-11-01T09:55:05Z</time>
      </trkpt>
      <trkpt lat="38.3893250" lon="-2.5164250">
        <ele>1332.7</ele>
        <time>2019-11-01T09:55:07Z</time>
      </trkpt>
      <trkpt lat="38.3893810" lon="-2.5164370">
        <ele>1332.7</ele>
        <time>2019-11-01T09:55:09Z</time>
      </trkpt>
      <trkpt lat="38.3894430" lon="-2.5164450">
        <ele>1332.7</ele>
        <time>2019-11-01T09:55:11Z</time>
      </trkpt>
      <trkpt lat="38.3895040" lon="-2.5164540">
        <ele>1332.7</ele>
        <time>2019-11-01T09:55:13Z</time>
      </trkpt>
      <trkpt lat="38.3895600" lon="-2.5164590">
        <ele>1332.7</ele>
        <time>2019-11-01T09:55:15Z</time>
      </trkpt>
      <trkpt lat="38.3896220" lon="-2.5164610">
        <ele>1332.7</ele>
        <time>2019-11-01T09:55:17Z</time>
      </trkpt>
      <trkpt lat="38.3896860" lon="-2.5164680">
        <ele>1332.7</ele>
        <time>2019-11-01T09:55:19Z</time>
      </trkpt>
      <trkpt lat="38.3897550" lon="-2.5164670">
        <ele>1332.7</ele>
        <time>2019-11-01T09:55:21Z</time>
      </trkpt>
      <trkpt lat="38.3898270" lon="-2.5164580">
        <ele>1335.3</ele>
        <time>2019-11-01T09:55:23Z</time>
      </trkpt>
      <trkpt lat="38.3899010" lon="-2.5164450">
        <ele>1335.3</ele>
        <time>2019-11-01T09:55:25Z</time>
      </trkpt>
      <trkpt lat="38.3899780" lon="-2.5164290">
        <ele>1335.3</ele>
        <time>2019-11-01T09:55:27Z</time>
      </trkpt>
      <trkpt lat="38.3900490" lon="-2.5164100">
        <ele>1335.3</ele>
        <time>2019-11-01T09:55:29Z</time>
      </trkpt>
      <trkpt lat="38.3901210" lon="-2.5163910">
        <ele>1335.3</ele>
        <time>2019-11-01T09:55:31Z</time>
      </trkpt>
      <trkpt lat="38.3901950" lon="-2.5163680">
        <ele>1335.3</ele>
        <time>2019-11-01T09:55:33Z</time>
      </trkpt>
      <trkpt lat="38.3902670" lon="-2.5163320">
        <ele>1335.3</ele>
        <time>2019-11-01T09:55:35Z</time>
      </trkpt>
      <trkpt lat="38.3903360" lon="-2.5162880">
        <ele>1335.3</ele>
        <time>2019-11-01T09:55:37Z</time>
      </trkpt>
      <trkpt lat="38.3904080" lon="-2.5162380">
        <ele>1335.3</ele>
        <time>2019-11-01T09:55:39Z</time>
      </trkpt>
      <trkpt lat="38.3904720" lon="-2.5161850">
        <ele>1335.3</ele>
        <time>2019-11-01T09:55:41Z</time>
      </trkpt>
      <trkpt lat="38.3905380" lon="-2.5161330">
        <ele>1335.3</ele>
        <time>2019-11-01T09:55:43Z</time>
      </trkpt>
      <trkpt lat="38.3906020" lon="-2.5160830">
        <ele>1335.3</ele>
        <time>2019-11-01T09:55:45Z</time>
      </trkpt>
      <trkpt lat="38.3906660" lon="-2.5160350">
        <ele>1335.3</ele>
        <time>2019-11-01T09:55:47Z</time>
      </trkpt>
      <trkpt lat="38.3907350" lon="-2.5159840">
        <ele>1335.3</ele>
        <time>2019-11-01T09:55:49Z</time>
      </trkpt>
      <trkpt lat="38.3908070" lon="-2.5159240">
        <ele>1335.3</ele>
        <time>2019-11-01T09:55:51Z</time>
      </trkpt>
      <trkpt lat="38.3908840" lon="-2.5158630">
        <ele>1335.3</ele>
        <time>2019-11-01T09:55:53Z</time>
      </trkpt>
      <trkpt lat="38.3909660" lon="-2.5157950">
        <ele>1335.3</ele>
        <time>2019-11-01T09:55:55Z</time>
      </trkpt>
      <trkpt lat="38.3909990" lon="-2.5157600">
        <ele>1335.3</ele>
        <time>2019-11-01T09:55:56Z</time>
      </trkpt>
      <trkpt lat="38.3910710" lon="-2.5156920">
        <ele>1335.3</ele>
        <time>2019-11-01T09:55:58Z</time>
      </trkpt>
      <trkpt lat="38.3911480" lon="-2.5156230">
        <ele>1335.3</ele>
        <time>2019-11-01T09:56:00Z</time>
      </trkpt>
      <trkpt lat="38.3912170" lon="-2.5155590">
        <ele>1335.3</ele>
        <time>2019-11-01T09:56:02Z</time>
      </trkpt>
      <trkpt lat="38.3912880" lon="-2.5154920">
        <ele>1335.3</ele>
        <time>2019-11-01T09:56:04Z</time>
      </trkpt>
      <trkpt lat="38.3913570" lon="-2.5154250">
        <ele>1335.3</ele>
        <time>2019-11-01T09:56:06Z</time>
      </trkpt>
      <trkpt lat="38.3914190" lon="-2.5153590">
        <ele>1335.3</ele>
        <time>2019-11-01T09:56:08Z</time>
      </trkpt>
      <trkpt lat="38.3914750" lon="-2.5152940">
        <ele>1335.3</ele>
        <time>2019-11-01T09:56:10Z</time>
      </trkpt>
      <trkpt lat="38.3915290" lon="-2.5152350">
        <ele>1335.3</ele>
        <time>2019-11-01T09:56:12Z</time>
      </trkpt>
      <trkpt lat="38.3915830" lon="-2.5151780">
        <ele>1335.3</ele>
        <time>2019-11-01T09:56:14Z</time>
      </trkpt>
      <trkpt lat="38.3916290" lon="-2.5151290">
        <ele>1335.3</ele>
        <time>2019-11-01T09:56:16Z</time>
      </trkpt>
      <trkpt lat="38.3916700" lon="-2.5150860">
        <ele>1335.3</ele>
        <time>2019-11-01T09:56:18Z</time>
      </trkpt>
      <trkpt lat="38.3917130" lon="-2.5150440">
        <ele>1335.3</ele>
        <time>2019-11-01T09:56:20Z</time>
      </trkpt>
      <trkpt lat="38.3917490" lon="-2.5150020">
        <ele>1335.3</ele>
        <time>2019-11-01T09:56:22Z</time>
      </trkpt>
      <trkpt lat="38.3918160" lon="-2.5149290">
        <ele>1335.3</ele>
        <time>2019-11-01T09:56:25Z</time>
      </trkpt>
      <trkpt lat="38.3918620" lon="-2.5148710">
        <ele>1335.3</ele>
        <time>2019-11-01T09:56:27Z</time>
      </trkpt>
      <trkpt lat="38.3919080" lon="-2.5148190">
        <ele>1335.3</ele>
        <time>2019-11-01T09:56:29Z</time>
      </trkpt>
      <trkpt lat="38.3919490" lon="-2.5147770">
        <ele>1335.3</ele>
        <time>2019-11-01T09:56:31Z</time>
      </trkpt>
      <trkpt lat="38.3919870" lon="-2.5147330">
        <ele>1335.3</ele>
        <time>2019-11-01T09:56:33Z</time>
      </trkpt>
      <trkpt lat="38.3920410" lon="-2.5146640">
        <ele>1335.3</ele>
        <time>2019-11-01T09:56:36Z</time>
      </trkpt>
      <trkpt lat="38.3920790" lon="-2.5146060">
        <ele>1335.3</ele>
        <time>2019-11-01T09:56:38Z</time>
      </trkpt>
      <trkpt lat="38.3921200" lon="-2.5145500">
        <ele>1335.3</ele>
        <time>2019-11-01T09:56:40Z</time>
      </trkpt>
      <trkpt lat="38.3921660" lon="-2.5144970">
        <ele>1335.3</ele>
        <time>2019-11-01T09:56:42Z</time>
      </trkpt>
      <trkpt lat="38.3922150" lon="-2.5144400">
        <ele>1335.3</ele>
        <time>2019-11-01T09:56:44Z</time>
      </trkpt>
      <trkpt lat="38.3922690" lon="-2.5143760">
        <ele>1335.3</ele>
        <time>2019-11-01T09:56:46Z</time>
      </trkpt>
      <trkpt lat="38.3923250" lon="-2.5143080">
        <ele>1335.3</ele>
        <time>2019-11-01T09:56:48Z</time>
      </trkpt>
      <trkpt lat="38.3923870" lon="-2.5142380">
        <ele>1335.3</ele>
        <time>2019-11-01T09:56:50Z</time>
      </trkpt>
      <trkpt lat="38.3924530" lon="-2.5141720">
        <ele>1335.3</ele>
        <time>2019-11-01T09:56:52Z</time>
      </trkpt>
      <trkpt lat="38.3925120" lon="-2.5141130">
        <ele>1335.3</ele>
        <time>2019-11-01T09:56:54Z</time>
      </trkpt>
      <trkpt lat="38.3925860" lon="-2.5140550">
        <ele>1335.3</ele>
        <time>2019-11-01T09:56:56Z</time>
      </trkpt>
      <trkpt lat="38.3926580" lon="-2.5139950">
        <ele>1335.3</ele>
        <time>2019-11-01T09:56:58Z</time>
      </trkpt>
      <trkpt lat="38.3927370" lon="-2.5139370">
        <ele>1335.3</ele>
        <time>2019-11-01T09:57:00Z</time>
      </trkpt>
      <trkpt lat="38.3928580" lon="-2.5138560">
        <ele>1335.3</ele>
        <time>2019-11-01T09:57:03Z</time>
      </trkpt>
      <trkpt lat="38.3929400" lon="-2.5138060">
        <ele>1335.3</ele>
        <time>2019-11-01T09:57:05Z</time>
      </trkpt>
      <trkpt lat="38.3930290" lon="-2.5137510">
        <ele>1333.3</ele>
        <time>2019-11-01T09:57:07Z</time>
      </trkpt>
      <trkpt lat="38.3931110" lon="-2.5136930">
        <ele>1333.3</ele>
        <time>2019-11-01T09:57:09Z</time>
      </trkpt>
      <trkpt lat="38.3931880" lon="-2.5136440">
        <ele>1333.3</ele>
        <time>2019-11-01T09:57:11Z</time>
      </trkpt>
      <trkpt lat="38.3932570" lon="-2.5136040">
        <ele>1333.3</ele>
        <time>2019-11-01T09:57:13Z</time>
      </trkpt>
      <trkpt lat="38.3933210" lon="-2.5135740">
        <ele>1333.3</ele>
        <time>2019-11-01T09:57:15Z</time>
      </trkpt>
      <trkpt lat="38.3933820" lon="-2.5135530">
        <ele>1333.3</ele>
        <time>2019-11-01T09:57:17Z</time>
      </trkpt>
      <trkpt lat="38.3934410" lon="-2.5135390">
        <ele>1333.3</ele>
        <time>2019-11-01T09:57:19Z</time>
      </trkpt>
      <trkpt lat="38.3934980" lon="-2.5135250">
        <ele>1333.3</ele>
        <time>2019-11-01T09:57:21Z</time>
      </trkpt>
      <trkpt lat="38.3935540" lon="-2.5135110">
        <ele>1333.3</ele>
        <time>2019-11-01T09:57:23Z</time>
      </trkpt>
      <trkpt lat="38.3936130" lon="-2.5134950">
        <ele>1333.3</ele>
        <time>2019-11-01T09:57:25Z</time>
      </trkpt>
      <trkpt lat="38.3936690" lon="-2.5134710">
        <ele>1331.2</ele>
        <time>2019-11-01T09:57:27Z</time>
      </trkpt>
      <trkpt lat="38.3937250" lon="-2.5134550">
        <ele>1331.2</ele>
        <time>2019-11-01T09:57:29Z</time>
      </trkpt>
      <trkpt lat="38.3937790" lon="-2.5134600">
        <ele>1331.2</ele>
        <time>2019-11-01T09:57:31Z</time>
      </trkpt>
      <trkpt lat="38.3938250" lon="-2.5134940">
        <ele>1331.2</ele>
        <time>2019-11-01T09:57:33Z</time>
      </trkpt>
      <trkpt lat="38.3938410" lon="-2.5135870">
        <ele>1331.2</ele>
        <time>2019-11-01T09:57:36Z</time>
      </trkpt>
      <trkpt lat="38.3938300" lon="-2.5136540">
        <ele>1331.2</ele>
        <time>2019-11-01T09:57:38Z</time>
      </trkpt>
      <trkpt lat="38.3938070" lon="-2.5137270">
        <ele>1331.2</ele>
        <time>2019-11-01T09:57:40Z</time>
      </trkpt>
      <trkpt lat="38.3937840" lon="-2.5138040">
        <ele>1329.2</ele>
        <time>2019-11-01T09:57:42Z</time>
      </trkpt>
      <trkpt lat="38.3937610" lon="-2.5138790">
        <ele>1329.2</ele>
        <time>2019-11-01T09:57:44Z</time>
      </trkpt>
      <trkpt lat="38.3937330" lon="-2.5139510">
        <ele>1329.2</ele>
        <time>2019-11-01T09:57:46Z</time>
      </trkpt>
      <trkpt lat="38.3937080" lon="-2.5140160">
        <ele>1329.2</ele>
        <time>2019-11-01T09:57:48Z</time>
      </trkpt>
      <trkpt lat="38.3936840" lon="-2.5140740">
        <ele>1329.2</ele>
        <time>2019-11-01T09:57:50Z</time>
      </trkpt>
      <trkpt lat="38.3936460" lon="-2.5141570">
        <ele>1329.2</ele>
        <time>2019-11-01T09:57:53Z</time>
      </trkpt>
      <trkpt lat="38.3936230" lon="-2.5142170">
        <ele>1327.1</ele>
        <time>2019-11-01T09:57:55Z</time>
      </trkpt>
      <trkpt lat="38.3935920" lon="-2.5142880">
        <ele>1327.1</ele>
        <time>2019-11-01T09:57:57Z</time>
      </trkpt>
      <trkpt lat="38.3935670" lon="-2.5143640">
        <ele>1327.1</ele>
        <time>2019-11-01T09:57:59Z</time>
      </trkpt>
      <trkpt lat="38.3935360" lon="-2.5144450">
        <ele>1327.1</ele>
        <time>2019-11-01T09:58:01Z</time>
      </trkpt>
      <trkpt lat="38.3935080" lon="-2.5145320">
        <ele>1325.0</ele>
        <time>2019-11-01T09:58:03Z</time>
      </trkpt>
      <trkpt lat="38.3934820" lon="-2.5146250">
        <ele>1325.0</ele>
        <time>2019-11-01T09:58:05Z</time>
      </trkpt>
      <trkpt lat="38.3934590" lon="-2.5147180">
        <ele>1325.0</ele>
        <time>2019-11-01T09:58:07Z</time>
      </trkpt>
      <trkpt lat="38.3934410" lon="-2.5148100">
        <ele>1325.0</ele>
        <time>2019-11-01T09:58:09Z</time>
      </trkpt>
      <trkpt lat="38.3934210" lon="-2.5148930">
        <ele>1325.0</ele>
        <time>2019-11-01T09:58:11Z</time>
      </trkpt>
      <trkpt lat="38.3934030" lon="-2.5149730">
        <ele>1325.0</ele>
        <time>2019-11-01T09:58:13Z</time>
      </trkpt>
      <trkpt lat="38.3933880" lon="-2.5150520">
        <ele>1325.0</ele>
        <time>2019-11-01T09:58:15Z</time>
      </trkpt>
      <trkpt lat="38.3933670" lon="-2.5151260">
        <ele>1322.9</ele>
        <time>2019-11-01T09:58:17Z</time>
      </trkpt>
      <trkpt lat="38.3933520" lon="-2.5151850">
        <ele>1322.9</ele>
        <time>2019-11-01T09:58:19Z</time>
      </trkpt>
      <trkpt lat="38.3933340" lon="-2.5152500">
        <ele>1322.9</ele>
        <time>2019-11-01T09:58:22Z</time>
      </trkpt>
      <trkpt lat="38.3933180" lon="-2.5153210">
        <ele>1320.8</ele>
        <time>2019-11-01T09:58:25Z</time>
      </trkpt>
      <trkpt lat="38.3933030" lon="-2.5154120">
        <ele>1320.8</ele>
        <time>2019-11-01T09:58:28Z</time>
      </trkpt>
      <trkpt lat="38.3932880" lon="-2.5154890">
        <ele>1320.8</ele>
        <time>2019-11-01T09:58:30Z</time>
      </trkpt>
      <trkpt lat="38.3932650" lon="-2.5155830">
        <ele>1320.8</ele>
        <time>2019-11-01T09:58:32Z</time>
      </trkpt>
      <trkpt lat="38.3932390" lon="-2.5156820">
        <ele>1318.3</ele>
        <time>2019-11-01T09:58:34Z</time>
      </trkpt>
      <trkpt lat="38.3932080" lon="-2.5157830">
        <ele>1318.3</ele>
        <time>2019-11-01T09:58:36Z</time>
      </trkpt>
      <trkpt lat="38.3931800" lon="-2.5158830">
        <ele>1318.3</ele>
        <time>2019-11-01T09:58:38Z</time>
      </trkpt>
      <trkpt lat="38.3931620" lon="-2.5159900">
        <ele>1318.3</ele>
        <time>2019-11-01T09:58:40Z</time>
      </trkpt>
      <trkpt lat="38.3931390" lon="-2.5160970">
        <ele>1318.3</ele>
        <time>2019-11-01T09:58:42Z</time>
      </trkpt>
      <trkpt lat="38.3931190" lon="-2.5161960">
        <ele>1318.3</ele>
        <time>2019-11-01T09:58:44Z</time>
      </trkpt>
      <trkpt lat="38.3931010" lon="-2.5162870">
        <ele>1316.2</ele>
        <time>2019-11-01T09:58:46Z</time>
      </trkpt>
      <trkpt lat="38.3930850" lon="-2.5163730">
        <ele>1316.2</ele>
        <time>2019-11-01T09:58:48Z</time>
      </trkpt>
      <trkpt lat="38.3930680" lon="-2.5164530">
        <ele>1314.0</ele>
        <time>2019-11-01T09:58:50Z</time>
      </trkpt>
      <trkpt lat="38.3930520" lon="-2.5165240">
        <ele>1314.0</ele>
        <time>2019-11-01T09:58:52Z</time>
      </trkpt>
      <trkpt lat="38.3930390" lon="-2.5165930">
        <ele>1314.0</ele>
        <time>2019-11-01T09:58:54Z</time>
      </trkpt>
      <trkpt lat="38.3930240" lon="-2.5166680">
        <ele>1314.0</ele>
        <time>2019-11-01T09:58:56Z</time>
      </trkpt>
      <trkpt lat="38.3930140" lon="-2.5167400">
        <ele>1314.0</ele>
        <time>2019-11-01T09:58:58Z</time>
      </trkpt>
      <trkpt lat="38.3930010" lon="-2.5168170">
        <ele>1312.0</ele>
        <time>2019-11-01T09:59:00Z</time>
      </trkpt>
      <trkpt lat="38.3929860" lon="-2.5168950">
        <ele>1312.0</ele>
        <time>2019-11-01T09:59:02Z</time>
      </trkpt>
      <trkpt lat="38.3929750" lon="-2.5169720">
        <ele>1312.0</ele>
        <time>2019-11-01T09:59:04Z</time>
      </trkpt>
      <trkpt lat="38.3929680" lon="-2.5170400">
        <ele>1309.6</ele>
        <time>2019-11-01T09:59:06Z</time>
      </trkpt>
      <trkpt lat="38.3929600" lon="-2.5171070">
        <ele>1309.6</ele>
        <time>2019-11-01T09:59:08Z</time>
      </trkpt>
      <trkpt lat="38.3929520" lon="-2.5171700">
        <ele>1309.6</ele>
        <time>2019-11-01T09:59:10Z</time>
      </trkpt>
      <trkpt lat="38.3929370" lon="-2.5172630">
        <ele>1309.6</ele>
        <time>2019-11-01T09:59:13Z</time>
      </trkpt>
      <trkpt lat="38.3929240" lon="-2.5173340">
        <ele>1309.6</ele>
        <time>2019-11-01T09:59:15Z</time>
      </trkpt>
      <trkpt lat="38.3929160" lon="-2.5174020">
        <ele>1307.5</ele>
        <time>2019-11-01T09:59:17Z</time>
      </trkpt>
      <trkpt lat="38.3929060" lon="-2.5174780">
        <ele>1307.5</ele>
        <time>2019-11-01T09:59:19Z</time>
      </trkpt>
      <trkpt lat="38.3928990" lon="-2.5175520">
        <ele>1307.5</ele>
        <time>2019-11-01T09:59:21Z</time>
      </trkpt>
      <trkpt lat="38.3928880" lon="-2.5176380">
        <ele>1304.5</ele>
        <time>2019-11-01T09:59:23Z</time>
      </trkpt>
      <trkpt lat="38.3928680" lon="-2.5177180">
        <ele>1304.5</ele>
        <time>2019-11-01T09:59:25Z</time>
      </trkpt>
      <trkpt lat="38.3928500" lon="-2.5177890">
        <ele>1304.5</ele>
        <time>2019-11-01T09:59:27Z</time>
      </trkpt>
      <trkpt lat="38.3928290" lon="-2.5178580">
        <ele>1304.5</ele>
        <time>2019-11-01T09:59:29Z</time>
      </trkpt>
      <trkpt lat="38.3928190" lon="-2.5179270">
        <ele>1304.5</ele>
        <time>2019-11-01T09:59:31Z</time>
      </trkpt>
      <trkpt lat="38.3928290" lon="-2.5179840">
        <ele>1302.4</ele>
        <time>2019-11-01T09:59:33Z</time>
      </trkpt>
      <trkpt lat="38.3928760" lon="-2.5180400">
        <ele>1302.4</ele>
        <time>2019-11-01T09:59:36Z</time>
      </trkpt>
      <trkpt lat="38.3929450" lon="-2.5180490">
        <ele>1299.2</ele>
        <time>2019-11-01T09:59:39Z</time>
      </trkpt>
      <trkpt lat="38.3930010" lon="-2.5180290">
        <ele>1299.2</ele>
        <time>2019-11-01T09:59:41Z</time>
      </trkpt>
      <trkpt lat="38.3930550" lon="-2.5179950">
        <ele>1299.2</ele>
        <time>2019-11-01T09:59:43Z</time>
      </trkpt>
      <trkpt lat="38.3931110" lon="-2.5179580">
        <ele>1299.2</ele>
        <time>2019-11-01T09:59:45Z</time>
      </trkpt>
      <trkpt lat="38.3931700" lon="-2.5179200">
        <ele>1297.1</ele>
        <time>2019-11-01T09:59:47Z</time>
      </trkpt>
      <trkpt lat="38.3932310" lon="-2.5178780">
        <ele>1297.1</ele>
        <time>2019-11-01T09:59:49Z</time>
      </trkpt>
      <trkpt lat="38.3932900" lon="-2.5178320">
        <ele>1297.1</ele>
        <time>2019-11-01T09:59:51Z</time>
      </trkpt>
      <trkpt lat="38.3933520" lon="-2.5177870">
        <ele>1297.1</ele>
        <time>2019-11-01T09:59:53Z</time>
      </trkpt>
      <trkpt lat="38.3934130" lon="-2.5177450">
        <ele>1293.0</ele>
        <time>2019-11-01T09:59:55Z</time>
      </trkpt>
      <trkpt lat="38.3934750" lon="-2.5177030">
        <ele>1293.0</ele>
        <time>2019-11-01T09:59:57Z</time>
      </trkpt>
      <trkpt lat="38.3935360" lon="-2.5176580">
        <ele>1293.0</ele>
        <time>2019-11-01T09:59:59Z</time>
      </trkpt>
      <trkpt lat="38.3935920" lon="-2.5176100">
        <ele>1293.0</ele>
        <time>2019-11-01T10:00:01Z</time>
      </trkpt>
      <trkpt lat="38.3936540" lon="-2.5175630">
        <ele>1290.9</ele>
        <time>2019-11-01T10:00:03Z</time>
      </trkpt>
      <trkpt lat="38.3937100" lon="-2.5175230">
        <ele>1290.9</ele>
        <time>2019-11-01T10:00:05Z</time>
      </trkpt>
      <trkpt lat="38.3937720" lon="-2.5174760">
        <ele>1290.9</ele>
        <time>2019-11-01T10:00:07Z</time>
      </trkpt>
      <trkpt lat="38.3938330" lon="-2.5174310">
        <ele>1290.9</ele>
        <time>2019-11-01T10:00:09Z</time>
      </trkpt>
      <trkpt lat="38.3938940" lon="-2.5173870">
        <ele>1286.7</ele>
        <time>2019-11-01T10:00:11Z</time>
      </trkpt>
      <trkpt lat="38.3939580" lon="-2.5173490">
        <ele>1286.7</ele>
        <time>2019-11-01T10:00:13Z</time>
      </trkpt>
      <trkpt lat="38.3940280" lon="-2.5173140">
        <ele>1286.7</ele>
        <time>2019-11-01T10:00:15Z</time>
      </trkpt>
      <trkpt lat="38.3940970" lon="-2.5172780">
        <ele>1286.7</ele>
        <time>2019-11-01T10:00:17Z</time>
      </trkpt>
      <trkpt lat="38.3941610" lon="-2.5172430">
        <ele>1284.6</ele>
        <time>2019-11-01T10:00:19Z</time>
      </trkpt>
      <trkpt lat="38.3942300" lon="-2.5172070">
        <ele>1284.6</ele>
        <time>2019-11-01T10:00:21Z</time>
      </trkpt>
      <trkpt lat="38.3942910" lon="-2.5171820">
        <ele>1284.6</ele>
        <time>2019-11-01T10:00:23Z</time>
      </trkpt>
      <trkpt lat="38.3943480" lon="-2.5171670">
        <ele>1284.6</ele>
        <time>2019-11-01T10:00:25Z</time>
      </trkpt>
      <trkpt lat="38.3944090" lon="-2.5171540">
        <ele>1280.0</ele>
        <time>2019-11-01T10:00:27Z</time>
      </trkpt>
      <trkpt lat="38.3944700" lon="-2.5171380">
        <ele>1280.0</ele>
        <time>2019-11-01T10:00:29Z</time>
      </trkpt>
      <trkpt lat="38.3945320" lon="-2.5171200">
        <ele>1280.0</ele>
        <time>2019-11-01T10:00:31Z</time>
      </trkpt>
      <trkpt lat="38.3946010" lon="-2.5170900">
        <ele>1280.0</ele>
        <time>2019-11-01T10:00:33Z</time>
      </trkpt>
      <trkpt lat="38.3946650" lon="-2.5170580">
        <ele>1278.0</ele>
        <time>2019-11-01T10:00:35Z</time>
      </trkpt>
      <trkpt lat="38.3947340" lon="-2.5170230">
        <ele>1278.0</ele>
        <time>2019-11-01T10:00:37Z</time>
      </trkpt>
      <trkpt lat="38.3948060" lon="-2.5169870">
        <ele>1278.0</ele>
        <time>2019-11-01T10:00:39Z</time>
      </trkpt>
      <trkpt lat="38.3948770" lon="-2.5169490">
        <ele>1278.0</ele>
        <time>2019-11-01T10:00:41Z</time>
      </trkpt>
      <trkpt lat="38.3949440" lon="-2.5169140">
        <ele>1273.2</ele>
        <time>2019-11-01T10:00:43Z</time>
      </trkpt>
      <trkpt lat="38.3950080" lon="-2.5168830">
        <ele>1273.2</ele>
        <time>2019-11-01T10:00:45Z</time>
      </trkpt>
      <trkpt lat="38.3950770" lon="-2.5168560">
        <ele>1273.2</ele>
        <time>2019-11-01T10:00:47Z</time>
      </trkpt>
      <trkpt lat="38.3951390" lon="-2.5168340">
        <ele>1273.2</ele>
        <time>2019-11-01T10:00:49Z</time>
      </trkpt>
      <trkpt lat="38.3952000" lon="-2.5168130">
        <ele>1271.0</ele>
        <time>2019-11-01T10:00:51Z</time>
      </trkpt>
      <trkpt lat="38.3952560" lon="-2.5167940">
        <ele>1271.0</ele>
        <time>2019-11-01T10:00:53Z</time>
      </trkpt>
      <trkpt lat="38.3953130" lon="-2.5167780">
        <ele>1271.0</ele>
        <time>2019-11-01T10:00:55Z</time>
      </trkpt>
      <trkpt lat="38.3953790" lon="-2.5167590">
        <ele>1271.0</ele>
        <time>2019-11-01T10:00:57Z</time>
      </trkpt>
      <trkpt lat="38.3954430" lon="-2.5167450">
        <ele>1266.4</ele>
        <time>2019-11-01T10:00:59Z</time>
      </trkpt>
      <trkpt lat="38.3955150" lon="-2.5167360">
        <ele>1266.4</ele>
        <time>2019-11-01T10:01:01Z</time>
      </trkpt>
      <trkpt lat="38.3956100" lon="-2.5167410">
        <ele>1266.4</ele>
        <time>2019-11-01T10:01:04Z</time>
      </trkpt>
      <trkpt lat="38.3956940" lon="-2.5167480">
        <ele>1264.2</ele>
        <time>2019-11-01T10:01:07Z</time>
      </trkpt>
      <trkpt lat="38.3957450" lon="-2.5167520">
        <ele>1264.2</ele>
        <time>2019-11-01T10:01:09Z</time>
      </trkpt>
      <trkpt lat="38.3958200" lon="-2.5167530">
        <ele>1264.2</ele>
        <time>2019-11-01T10:01:12Z</time>
      </trkpt>
      <trkpt lat="38.3958730" lon="-2.5167470">
        <ele>1259.4</ele>
        <time>2019-11-01T10:01:14Z</time>
      </trkpt>
      <trkpt lat="38.3959010" lon="-2.5167420">
        <ele>1259.4</ele>
        <time>2019-11-01T10:01:15Z</time>
      </trkpt>
      <trkpt lat="38.3959580" lon="-2.5167370">
        <ele>1259.4</ele>
        <time>2019-11-01T10:01:17Z</time>
      </trkpt>
      <trkpt lat="38.3960190" lon="-2.5167400">
        <ele>1259.4</ele>
        <time>2019-11-01T10:01:19Z</time>
      </trkpt>
      <trkpt lat="38.3960760" lon="-2.5167450">
        <ele>1259.4</ele>
        <time>2019-11-01T10:01:21Z</time>
      </trkpt>
      <trkpt lat="38.3961340" lon="-2.5167500">
        <ele>1257.4</ele>
        <time>2019-11-01T10:01:23Z</time>
      </trkpt>
      <trkpt lat="38.3961980" lon="-2.5167570">
        <ele>1257.4</ele>
        <time>2019-11-01T10:01:25Z</time>
      </trkpt>
      <trkpt lat="38.3962520" lon="-2.5167640">
        <ele>1257.4</ele>
        <time>2019-11-01T10:01:27Z</time>
      </trkpt>
      <trkpt lat="38.3963290" lon="-2.5167660">
        <ele>1252.6</ele>
        <time>2019-11-01T10:01:30Z</time>
      </trkpt>
      <trkpt lat="38.3963520" lon="-2.5167680">
        <ele>1252.6</ele>
        <time>2019-11-01T10:01:31Z</time>
      </trkpt>
      <trkpt lat="38.3964310" lon="-2.5167750">
        <ele>1252.6</ele>
        <time>2019-11-01T10:01:34Z</time>
      </trkpt>
      <trkpt lat="38.3964880" lon="-2.5167750">
        <ele>1252.6</ele>
        <time>2019-11-01T10:01:36Z</time>
      </trkpt>
      <trkpt lat="38.3965540" lon="-2.5167720">
        <ele>1250.5</ele>
        <time>2019-11-01T10:01:38Z</time>
      </trkpt>
      <trkpt lat="38.3966130" lon="-2.5167720">
        <ele>1250.5</ele>
        <time>2019-11-01T10:01:40Z</time>
      </trkpt>
      <trkpt lat="38.3966720" lon="-2.5167740">
        <ele>1250.5</ele>
        <time>2019-11-01T10:01:42Z</time>
      </trkpt>
      <trkpt lat="38.3967260" lon="-2.5167800">
        <ele>1250.5</ele>
        <time>2019-11-01T10:01:44Z</time>
      </trkpt>
      <trkpt lat="38.3967820" lon="-2.5167910">
        <ele>1245.1</ele>
        <time>2019-11-01T10:01:46Z</time>
      </trkpt>
      <trkpt lat="38.3968080" lon="-2.5167960">
        <ele>1245.1</ele>
        <time>2019-11-01T10:01:47Z</time>
      </trkpt>
      <trkpt lat="38.3968610" lon="-2.5168020">
        <ele>1245.1</ele>
        <time>2019-11-01T10:01:49Z</time>
      </trkpt>
      <trkpt lat="38.3969130" lon="-2.5168030">
        <ele>1245.1</ele>
        <time>2019-11-01T10:01:51Z</time>
      </trkpt>
      <trkpt lat="38.3969920" lon="-2.5168080">
        <ele>1243.1</ele>
        <time>2019-11-01T10:01:54Z</time>
      </trkpt>
      <trkpt lat="38.3970460" lon="-2.5168110">
        <ele>1243.1</ele>
        <time>2019-11-01T10:01:56Z</time>
      </trkpt>
      <trkpt lat="38.3971020" lon="-2.5168150">
        <ele>1243.1</ele>
        <time>2019-11-01T10:01:58Z</time>
      </trkpt>
      <trkpt lat="38.3971560" lon="-2.5168180">
        <ele>1243.1</ele>
        <time>2019-11-01T10:02:00Z</time>
      </trkpt>
      <trkpt lat="38.3972120" lon="-2.5168200">
        <ele>1237.9</ele>
        <time>2019-11-01T10:02:02Z</time>
      </trkpt>
      <trkpt lat="38.3972480" lon="-2.5168220">
        <ele>1237.9</ele>
        <time>2019-11-01T10:02:03Z</time>
      </trkpt>
      <trkpt lat="38.3973090" lon="-2.5168280">
        <ele>1237.9</ele>
        <time>2019-11-01T10:02:05Z</time>
      </trkpt>
      <trkpt lat="38.3973760" lon="-2.5168380">
        <ele>1237.9</ele>
        <time>2019-11-01T10:02:07Z</time>
      </trkpt>
      <trkpt lat="38.3974430" lon="-2.5168470">
        <ele>1237.9</ele>
        <time>2019-11-01T10:02:09Z</time>
      </trkpt>
      <trkpt lat="38.3975040" lon="-2.5168500">
        <ele>1235.7</ele>
        <time>2019-11-01T10:02:11Z</time>
      </trkpt>
      <trkpt lat="38.3975530" lon="-2.5168580">
        <ele>1235.7</ele>
        <time>2019-11-01T10:02:13Z</time>
      </trkpt>
      <trkpt lat="38.3975940" lon="-2.5168940">
        <ele>1235.7</ele>
        <time>2019-11-01T10:02:16Z</time>
      </trkpt>
      <trkpt lat="38.3975710" lon="-2.5169080">
        <ele>1230.7</ele>
        <time>2019-11-01T10:03:40Z</time>
      </trkpt>
      <trkpt lat="38.3976930" lon="-2.5168900">
        <ele>1223.3</ele>
        <time>2019-11-01T10:05:20Z</time>
      </trkpt>
      <trkpt lat="38.3977420" lon="-2.5169000">
        <ele>1221.3</ele>
        <time>2019-11-01T10:05:23Z</time>
      </trkpt>
      <trkpt lat="38.3978090" lon="-2.5169080">
        <ele>1221.3</ele>
        <time>2019-11-01T10:05:26Z</time>
      </trkpt>
      <trkpt lat="38.3978550" lon="-2.5169140">
        <ele>1216.6</ele>
        <time>2019-11-01T10:05:28Z</time>
      </trkpt>
      <trkpt lat="38.3979210" lon="-2.5169270">
        <ele>1216.6</ele>
        <time>2019-11-01T10:05:31Z</time>
      </trkpt>
      <trkpt lat="38.3979670" lon="-2.5169340">
        <ele>1216.6</ele>
        <time>2019-11-01T10:05:33Z</time>
      </trkpt>
      <trkpt lat="38.3980360" lon="-2.5169430">
        <ele>1216.6</ele>
        <time>2019-11-01T10:05:36Z</time>
      </trkpt>
      <trkpt lat="38.3981060" lon="-2.5169550">
        <ele>1214.4</ele>
        <time>2019-11-01T10:05:39Z</time>
      </trkpt>
      <trkpt lat="38.3981520" lon="-2.5169600">
        <ele>1214.4</ele>
        <time>2019-11-01T10:05:41Z</time>
      </trkpt>
      <trkpt lat="38.3982230" lon="-2.5169690">
        <ele>1210.4</ele>
        <time>2019-11-01T10:05:44Z</time>
      </trkpt>
      <trkpt lat="38.3982920" lon="-2.5169750">
        <ele>1210.4</ele>
        <time>2019-11-01T10:05:47Z</time>
      </trkpt>
      <trkpt lat="38.3983540" lon="-2.5169850">
        <ele>1210.4</ele>
        <time>2019-11-01T10:05:50Z</time>
      </trkpt>
      <trkpt lat="38.3984100" lon="-2.5169920">
        <ele>1210.4</ele>
        <time>2019-11-01T10:05:53Z</time>
      </trkpt>
      <trkpt lat="38.3984610" lon="-2.5170100">
        <ele>1208.3</ele>
        <time>2019-11-01T10:05:56Z</time>
      </trkpt>
      <trkpt lat="38.3985100" lon="-2.5170250">
        <ele>1204.5</ele>
        <time>2019-11-01T10:05:59Z</time>
      </trkpt>
      <trkpt lat="38.3985410" lon="-2.5170290">
        <ele>1204.5</ele>
        <time>2019-11-01T10:06:01Z</time>
      </trkpt>
      <trkpt lat="38.3986180" lon="-2.5170370">
        <ele>1204.5</ele>
        <time>2019-11-01T10:06:05Z</time>
      </trkpt>
      <trkpt lat="38.3986870" lon="-2.5170440">
        <ele>1204.5</ele>
        <time>2019-11-01T10:06:08Z</time>
      </trkpt>
      <trkpt lat="38.3987350" lon="-2.5170500">
        <ele>1204.5</ele>
        <time>2019-11-01T10:06:10Z</time>
      </trkpt>
      <trkpt lat="38.3987890" lon="-2.5170590">
        <ele>1204.5</ele>
        <time>2019-11-01T10:06:12Z</time>
      </trkpt>
      <trkpt lat="38.3988610" lon="-2.5170720">
        <ele>1204.5</ele>
        <time>2019-11-01T10:06:15Z</time>
      </trkpt>
      <trkpt lat="38.3989320" lon="-2.5170750">
        <ele>1204.5</ele>
        <time>2019-11-01T10:06:18Z</time>
      </trkpt>
      <trkpt lat="38.3990020" lon="-2.5170740">
        <ele>1204.5</ele>
        <time>2019-11-01T10:06:21Z</time>
      </trkpt>
      <trkpt lat="38.3990630" lon="-2.5170650">
        <ele>1204.5</ele>
        <time>2019-11-01T10:06:24Z</time>
      </trkpt>
      <trkpt lat="38.3991170" lon="-2.5170590">
        <ele>1204.5</ele>
        <time>2019-11-01T10:06:27Z</time>
      </trkpt>
      <trkpt lat="38.3991710" lon="-2.5170630">
        <ele>1204.5</ele>
        <time>2019-11-01T10:06:30Z</time>
      </trkpt>
      <trkpt lat="38.3992240" lon="-2.5170710">
        <ele>1204.5</ele>
        <time>2019-11-01T10:06:33Z</time>
      </trkpt>
      <trkpt lat="38.3992730" lon="-2.5170800">
        <ele>1204.5</ele>
        <time>2019-11-01T10:06:36Z</time>
      </trkpt>
      <trkpt lat="38.3993270" lon="-2.5170830">
        <ele>1204.5</ele>
        <time>2019-11-01T10:06:39Z</time>
      </trkpt>
      <trkpt lat="38.3993910" lon="-2.5170850">
        <ele>1204.5</ele>
        <time>2019-11-01T10:06:43Z</time>
      </trkpt>
      <trkpt lat="38.3994440" lon="-2.5170890">
        <ele>1204.5</ele>
        <time>2019-11-01T10:06:46Z</time>
      </trkpt>
      <trkpt lat="38.3995060" lon="-2.5170970">
        <ele>1204.5</ele>
        <time>2019-11-01T10:06:50Z</time>
      </trkpt>
      <trkpt lat="38.3995670" lon="-2.5171010">
        <ele>1204.5</ele>
        <time>2019-11-01T10:06:54Z</time>
      </trkpt>
      <trkpt lat="38.3996290" lon="-2.5170980">
        <ele>1204.5</ele>
        <time>2019-11-01T10:06:58Z</time>
      </trkpt>
      <trkpt lat="38.3996950" lon="-2.5170980">
        <ele>1204.5</ele>
        <time>2019-11-01T10:07:02Z</time>
      </trkpt>
      <trkpt lat="38.3997570" lon="-2.5171020">
        <ele>1204.5</ele>
        <time>2019-11-01T10:07:05Z</time>
      </trkpt>
      <trkpt lat="38.3998180" lon="-2.5171010">
        <ele>1206.0</ele>
        <time>2019-11-01T10:07:08Z</time>
      </trkpt>
      <trkpt lat="38.3998820" lon="-2.5170980">
        <ele>1206.0</ele>
        <time>2019-11-01T10:07:11Z</time>
      </trkpt>
      <trkpt lat="38.3999560" lon="-2.5171020">
        <ele>1206.0</ele>
        <time>2019-11-01T10:07:14Z</time>
      </trkpt>
      <trkpt lat="38.4000330" lon="-2.5171050">
        <ele>1206.0</ele>
        <time>2019-11-01T10:07:17Z</time>
      </trkpt>
      <trkpt lat="38.4001000" lon="-2.5171150">
        <ele>1206.0</ele>
        <time>2019-11-01T10:07:20Z</time>
      </trkpt>
      <trkpt lat="38.4001660" lon="-2.5171250">
        <ele>1206.0</ele>
        <time>2019-11-01T10:07:23Z</time>
      </trkpt>
      <trkpt lat="38.4002200" lon="-2.5171370">
        <ele>1206.0</ele>
        <time>2019-11-01T10:09:07Z</time>
      </trkpt>
      <trkpt lat="38.4002790" lon="-2.5171800">
        <ele>1206.0</ele>
        <time>2019-11-01T10:09:19Z</time>
      </trkpt>
      <trkpt lat="38.4003400" lon="-2.5172230">
        <ele>1206.0</ele>
        <time>2019-11-01T10:09:24Z</time>
      </trkpt>
      <trkpt lat="38.4004070" lon="-2.5172520">
        <ele>1206.0</ele>
        <time>2019-11-01T10:09:27Z</time>
      </trkpt>
      <trkpt lat="38.4004710" lon="-2.5172850">
        <ele>1206.0</ele>
        <time>2019-11-01T10:09:30Z</time>
      </trkpt>
      <trkpt lat="38.4005270" lon="-2.5173140">
        <ele>1204.8</ele>
        <time>2019-11-01T10:09:33Z</time>
      </trkpt>
      <trkpt lat="38.4005940" lon="-2.5173190">
        <ele>1204.8</ele>
        <time>2019-11-01T10:09:36Z</time>
      </trkpt>
      <trkpt lat="38.4006450" lon="-2.5173050">
        <ele>1204.8</ele>
        <time>2019-11-01T10:09:39Z</time>
      </trkpt>
      <trkpt lat="38.4006960" lon="-2.5172860">
        <ele>1203.5</ele>
        <time>2019-11-01T10:09:43Z</time>
      </trkpt>
      <trkpt lat="38.4008120" lon="-2.5172160">
        <ele>1201.1</ele>
        <time>2019-11-01T10:09:59Z</time>
      </trkpt>
      <trkpt lat="38.4008450" lon="-2.5171680">
        <ele>1201.1</ele>
        <time>2019-11-01T10:10:04Z</time>
      </trkpt>
      <trkpt lat="38.4011190" lon="-2.5167580">
        <ele>1194.0</ele>
        <time>2019-11-01T10:11:40Z</time>
      </trkpt>
      <trkpt lat="38.4011700" lon="-2.5167170">
        <ele>1192.1</ele>
        <time>2019-11-01T10:11:43Z</time>
      </trkpt>
      <trkpt lat="38.4012340" lon="-2.5166580">
        <ele>1190.9</ele>
        <time>2019-11-01T10:11:46Z</time>
      </trkpt>
      <trkpt lat="38.4012880" lon="-2.5166150">
        <ele>1190.9</ele>
        <time>2019-11-01T10:11:48Z</time>
      </trkpt>
      <trkpt lat="38.4013490" lon="-2.5165790">
        <ele>1189.5</ele>
        <time>2019-11-01T10:11:50Z</time>
      </trkpt>
      <trkpt lat="38.4014080" lon="-2.5165480">
        <ele>1189.5</ele>
        <time>2019-11-01T10:11:52Z</time>
      </trkpt>
      <trkpt lat="38.4014750" lon="-2.5165200">
        <ele>1188.3</ele>
        <time>2019-11-01T10:11:54Z</time>
      </trkpt>
      <trkpt lat="38.4015310" lon="-2.5164910">
        <ele>1186.9</ele>
        <time>2019-11-01T10:11:56Z</time>
      </trkpt>
      <trkpt lat="38.4015850" lon="-2.5164710">
        <ele>1186.9</ele>
        <time>2019-11-01T10:11:58Z</time>
      </trkpt>
      <trkpt lat="38.4016230" lon="-2.5164610">
        <ele>1185.7</ele>
        <time>2019-11-01T10:12:00Z</time>
      </trkpt>
      <trkpt lat="38.4018480" lon="-2.5162830">
        <ele>1180.4</ele>
        <time>2019-11-01T10:12:40Z</time>
      </trkpt>
      <trkpt lat="38.4018820" lon="-2.5162060">
        <ele>1180.4</ele>
        <time>2019-11-01T10:12:44Z</time>
      </trkpt>
      <trkpt lat="38.4019250" lon="-2.5161800">
        <ele>1179.0</ele>
        <time>2019-11-01T10:12:47Z</time>
      </trkpt>
      <trkpt lat="38.4019760" lon="-2.5161950">
        <ele>1179.0</ele>
        <time>2019-11-01T10:12:51Z</time>
      </trkpt>
      <trkpt lat="38.4020120" lon="-2.5162210">
        <ele>1177.8</ele>
        <time>2019-11-01T10:12:54Z</time>
      </trkpt>
      <trkpt lat="38.4020530" lon="-2.5162730">
        <ele>1174.4</ele>
        <time>2019-11-01T10:12:58Z</time>
      </trkpt>
      <trkpt lat="38.4020840" lon="-2.5163400">
        <ele>1172.9</ele>
        <time>2019-11-01T10:13:02Z</time>
      </trkpt>
      <trkpt lat="38.4021120" lon="-2.5164120">
        <ele>1171.5</ele>
        <time>2019-11-01T10:13:06Z</time>
      </trkpt>
      <trkpt lat="38.4021350" lon="-2.5164750">
        <ele>1171.5</ele>
        <time>2019-11-01T10:13:09Z</time>
      </trkpt>
      <trkpt lat="38.4021630" lon="-2.5165690">
        <ele>1170.1</ele>
        <time>2019-11-01T10:13:12Z</time>
      </trkpt>
      <trkpt lat="38.4021840" lon="-2.5166330">
        <ele>1168.9</ele>
        <time>2019-11-01T10:13:14Z</time>
      </trkpt>
      <trkpt lat="38.4022020" lon="-2.5166920">
        <ele>1168.9</ele>
        <time>2019-11-01T10:13:16Z</time>
      </trkpt>
      <trkpt lat="38.4022220" lon="-2.5167510">
        <ele>1168.9</ele>
        <time>2019-11-01T10:13:18Z</time>
      </trkpt>
      <trkpt lat="38.4022550" lon="-2.5168430">
        <ele>1167.6</ele>
        <time>2019-11-01T10:13:21Z</time>
      </trkpt>
      <trkpt lat="38.4022860" lon="-2.5169050">
        <ele>1167.6</ele>
        <time>2019-11-01T10:13:23Z</time>
      </trkpt>
      <trkpt lat="38.4023220" lon="-2.5169660">
        <ele>1166.4</ele>
        <time>2019-11-01T10:13:25Z</time>
      </trkpt>
      <trkpt lat="38.4023630" lon="-2.5170340">
        <ele>1166.4</ele>
        <time>2019-11-01T10:13:27Z</time>
      </trkpt>
      <trkpt lat="38.4024010" lon="-2.5171050">
        <ele>1165.1</ele>
        <time>2019-11-01T10:13:29Z</time>
      </trkpt>
      <trkpt lat="38.4024400" lon="-2.5171680">
        <ele>1165.1</ele>
        <time>2019-11-01T10:13:31Z</time>
      </trkpt>
      <trkpt lat="38.4024810" lon="-2.5172250">
        <ele>1165.1</ele>
        <time>2019-11-01T10:13:33Z</time>
      </trkpt>
      <trkpt lat="38.4025270" lon="-2.5172890">
        <ele>1163.7</ele>
        <time>2019-11-01T10:13:35Z</time>
      </trkpt>
      <trkpt lat="38.4025730" lon="-2.5173530">
        <ele>1163.7</ele>
        <time>2019-11-01T10:13:37Z</time>
      </trkpt>
      <trkpt lat="38.4026060" lon="-2.5174190">
        <ele>1162.4</ele>
        <time>2019-11-01T10:13:39Z</time>
      </trkpt>
      <trkpt lat="38.4026290" lon="-2.5174940">
        <ele>1162.4</ele>
        <time>2019-11-01T10:13:41Z</time>
      </trkpt>
      <trkpt lat="38.4026500" lon="-2.5175800">
        <ele>1161.2</ele>
        <time>2019-11-01T10:13:43Z</time>
      </trkpt>
      <trkpt lat="38.4026650" lon="-2.5176750">
        <ele>1161.2</ele>
        <time>2019-11-01T10:13:45Z</time>
      </trkpt>
      <trkpt lat="38.4026800" lon="-2.5177600">
        <ele>1159.7</ele>
        <time>2019-11-01T10:13:47Z</time>
      </trkpt>
      <trkpt lat="38.4026960" lon="-2.5178290">
        <ele>1159.7</ele>
        <time>2019-11-01T10:13:49Z</time>
      </trkpt>
      <trkpt lat="38.4027030" lon="-2.5178790">
        <ele>1158.2</ele>
        <time>2019-11-01T10:13:51Z</time>
      </trkpt>
      <trkpt lat="38.4027210" lon="-2.5180140">
        <ele>1155.7</ele>
        <time>2019-11-01T10:14:02Z</time>
      </trkpt>
      <trkpt lat="38.4027340" lon="-2.5180780">
        <ele>1154.3</ele>
        <time>2019-11-01T10:14:06Z</time>
      </trkpt>
      <trkpt lat="38.4027340" lon="-2.5181460">
        <ele>1153.1</ele>
        <time>2019-11-01T10:14:10Z</time>
      </trkpt>
      <trkpt lat="38.4027390" lon="-2.5182260">
        <ele>1153.1</ele>
        <time>2019-11-01T10:14:13Z</time>
      </trkpt>
      <trkpt lat="38.4027470" lon="-2.5183150">
        <ele>1153.1</ele>
        <time>2019-11-01T10:14:16Z</time>
      </trkpt>
      <trkpt lat="38.4027470" lon="-2.5183800">
        <ele>1153.1</ele>
        <time>2019-11-01T10:14:18Z</time>
      </trkpt>
      <trkpt lat="38.4027260" lon="-2.5184690">
        <ele>1151.9</ele>
        <time>2019-11-01T10:14:21Z</time>
      </trkpt>
      <trkpt lat="38.4027030" lon="-2.5185270">
        <ele>1151.9</ele>
        <time>2019-11-01T10:14:23Z</time>
      </trkpt>
      <trkpt lat="38.4026680" lon="-2.5185860">
        <ele>1150.8</ele>
        <time>2019-11-01T10:14:25Z</time>
      </trkpt>
      <trkpt lat="38.4026370" lon="-2.5186380">
        <ele>1150.8</ele>
        <time>2019-11-01T10:14:27Z</time>
      </trkpt>
      <trkpt lat="38.4026340" lon="-2.5186730">
        <ele>1150.8</ele>
        <time>2019-11-01T10:14:42Z</time>
      </trkpt>
      <trkpt lat="38.4026730" lon="-2.5186230">
        <ele>1150.8</ele>
        <time>2019-11-01T10:14:47Z</time>
      </trkpt>
      <trkpt lat="38.4027030" lon="-2.5185780">
        <ele>1150.8</ele>
        <time>2019-11-01T10:14:52Z</time>
      </trkpt>
      <trkpt lat="38.4027470" lon="-2.5185650">
        <ele>1150.8</ele>
        <time>2019-11-01T10:15:06Z</time>
      </trkpt>
      <trkpt lat="38.4028060" lon="-2.5185470">
        <ele>1150.8</ele>
        <time>2019-11-01T10:15:15Z</time>
      </trkpt>
      <trkpt lat="38.4028620" lon="-2.5185240">
        <ele>1150.8</ele>
        <time>2019-11-01T10:15:19Z</time>
      </trkpt>
      <trkpt lat="38.4029240" lon="-2.5185030">
        <ele>1150.8</ele>
        <time>2019-11-01T10:15:22Z</time>
      </trkpt>
      <trkpt lat="38.4029800" lon="-2.5184600">
        <ele>1150.8</ele>
        <time>2019-11-01T10:15:25Z</time>
      </trkpt>
      <trkpt lat="38.4030340" lon="-2.5184090">
        <ele>1150.8</ele>
        <time>2019-11-01T10:15:28Z</time>
      </trkpt>
      <trkpt lat="38.4030720" lon="-2.5183380">
        <ele>1149.4</ele>
        <time>2019-11-01T10:15:31Z</time>
      </trkpt>
      <trkpt lat="38.4030920" lon="-2.5182820">
        <ele>1149.4</ele>
        <time>2019-11-01T10:15:33Z</time>
      </trkpt>
      <trkpt lat="38.4031160" lon="-2.5182020">
        <ele>1148.2</ele>
        <time>2019-11-01T10:15:36Z</time>
      </trkpt>
      <trkpt lat="38.4031230" lon="-2.5181280">
        <ele>1146.9</ele>
        <time>2019-11-01T10:15:39Z</time>
      </trkpt>
      <trkpt lat="38.4031330" lon="-2.5180660">
        <ele>1146.9</ele>
        <time>2019-11-01T10:15:42Z</time>
      </trkpt>
      <trkpt lat="38.4031590" lon="-2.5179890">
        <ele>1146.9</ele>
        <time>2019-11-01T10:15:46Z</time>
      </trkpt>
      <trkpt lat="38.4031870" lon="-2.5179170">
        <ele>1146.9</ele>
        <time>2019-11-01T10:15:50Z</time>
      </trkpt>
      <trkpt lat="38.4032100" lon="-2.5178530">
        <ele>1145.6</ele>
        <time>2019-11-01T10:15:54Z</time>
      </trkpt>
      <trkpt lat="38.4032360" lon="-2.5177820">
        <ele>1145.6</ele>
        <time>2019-11-01T10:15:58Z</time>
      </trkpt>
      <trkpt lat="38.4032560" lon="-2.5177170">
        <ele>1145.6</ele>
        <time>2019-11-01T10:16:01Z</time>
      </trkpt>
      <trkpt lat="38.4032790" lon="-2.5176540">
        <ele>1145.6</ele>
        <time>2019-11-01T10:16:04Z</time>
      </trkpt>
      <trkpt lat="38.4033050" lon="-2.5175860">
        <ele>1145.6</ele>
        <time>2019-11-01T10:16:07Z</time>
      </trkpt>
      <trkpt lat="38.4033280" lon="-2.5175180">
        <ele>1145.6</ele>
        <time>2019-11-01T10:16:10Z</time>
      </trkpt>
      <trkpt lat="38.4033590" lon="-2.5174560">
        <ele>1145.6</ele>
        <time>2019-11-01T10:16:13Z</time>
      </trkpt>
      <trkpt lat="38.4033840" lon="-2.5173860">
        <ele>1145.6</ele>
        <time>2019-11-01T10:16:16Z</time>
      </trkpt>
      <trkpt lat="38.4034070" lon="-2.5173080">
        <ele>1145.6</ele>
        <time>2019-11-01T10:16:19Z</time>
      </trkpt>
      <trkpt lat="38.4034300" lon="-2.5172260">
        <ele>1145.6</ele>
        <time>2019-11-01T10:16:22Z</time>
      </trkpt>
      <trkpt lat="38.4034610" lon="-2.5171480">
        <ele>1145.6</ele>
        <time>2019-11-01T10:16:25Z</time>
      </trkpt>
      <trkpt lat="38.4034970" lon="-2.5170710">
        <ele>1145.6</ele>
        <time>2019-11-01T10:16:28Z</time>
      </trkpt>
      <trkpt lat="38.4035150" lon="-2.5169920">
        <ele>1145.6</ele>
        <time>2019-11-01T10:16:31Z</time>
      </trkpt>
      <trkpt lat="38.4035230" lon="-2.5169380">
        <ele>1145.6</ele>
        <time>2019-11-01T10:16:34Z</time>
      </trkpt>
      <trkpt lat="38.4035330" lon="-2.5168670">
        <ele>1145.6</ele>
        <time>2019-11-01T10:16:38Z</time>
      </trkpt>
      <trkpt lat="38.4035330" lon="-2.5167960">
        <ele>1141.9</ele>
        <time>2019-11-01T10:16:41Z</time>
      </trkpt>
      <trkpt lat="38.4035250" lon="-2.5167400">
        <ele>1140.6</ele>
        <time>2019-11-01T10:16:43Z</time>
      </trkpt>
      <trkpt lat="38.4035170" lon="-2.5166470">
        <ele>1137.2</ele>
        <time>2019-11-01T10:16:46Z</time>
      </trkpt>
      <trkpt lat="38.4035150" lon="-2.5165850">
        <ele>1137.2</ele>
        <time>2019-11-01T10:16:48Z</time>
      </trkpt>
      <trkpt lat="38.4035050" lon="-2.5165320">
        <ele>1135.7</ele>
        <time>2019-11-01T10:16:50Z</time>
      </trkpt>
      <trkpt lat="38.4034760" lon="-2.5164560">
        <ele>1134.3</ele>
        <time>2019-11-01T10:16:53Z</time>
      </trkpt>
      <trkpt lat="38.4034460" lon="-2.5163790">
        <ele>1134.3</ele>
        <time>2019-11-01T10:16:56Z</time>
      </trkpt>
      <trkpt lat="38.4034050" lon="-2.5163160">
        <ele>1132.8</ele>
        <time>2019-11-01T10:16:59Z</time>
      </trkpt>
      <trkpt lat="38.4033510" lon="-2.5162520">
        <ele>1131.4</ele>
        <time>2019-11-01T10:17:02Z</time>
      </trkpt>
      <trkpt lat="38.4033200" lon="-2.5162020">
        <ele>1131.4</ele>
        <time>2019-11-01T10:17:04Z</time>
      </trkpt>
      <trkpt lat="38.4032870" lon="-2.5161370">
        <ele>1130.1</ele>
        <time>2019-11-01T10:17:06Z</time>
      </trkpt>
      <trkpt lat="38.4032560" lon="-2.5160670">
        <ele>1128.9</ele>
        <time>2019-11-01T10:17:08Z</time>
      </trkpt>
      <trkpt lat="38.4032330" lon="-2.5160010">
        <ele>1128.9</ele>
        <time>2019-11-01T10:17:10Z</time>
      </trkpt>
      <trkpt lat="38.4032180" lon="-2.5159530">
        <ele>1127.7</ele>
        <time>2019-11-01T10:17:12Z</time>
      </trkpt>
      <trkpt lat="38.4031870" lon="-2.5158840">
        <ele>1127.7</ele>
        <time>2019-11-01T10:17:16Z</time>
      </trkpt>
      <trkpt lat="38.4031590" lon="-2.5158380">
        <ele>1126.5</ele>
        <time>2019-11-01T10:17:19Z</time>
      </trkpt>
      <trkpt lat="38.4030770" lon="-2.5156170">
        <ele>1126.5</ele>
        <time>2019-11-01T10:18:28Z</time>
      </trkpt>
      <trkpt lat="38.4030390" lon="-2.5155550">
        <ele>1126.5</ele>
        <time>2019-11-01T10:18:32Z</time>
      </trkpt>
      <trkpt lat="38.4030030" lon="-2.5154820">
        <ele>1126.5</ele>
        <time>2019-11-01T10:18:36Z</time>
      </trkpt>
      <trkpt lat="38.4029640" lon="-2.5154270">
        <ele>1122.8</ele>
        <time>2019-11-01T10:18:39Z</time>
      </trkpt>
      <trkpt lat="38.4029410" lon="-2.5153920">
        <ele>1121.5</ele>
        <time>2019-11-01T10:18:41Z</time>
      </trkpt>
      <trkpt lat="38.4029060" lon="-2.5153500">
        <ele>1119.7</ele>
        <time>2019-11-01T10:18:44Z</time>
      </trkpt>
      <trkpt lat="38.4028520" lon="-2.5152990">
        <ele>1118.2</ele>
        <time>2019-11-01T10:18:47Z</time>
      </trkpt>
      <trkpt lat="38.4028210" lon="-2.5152470">
        <ele>1117.1</ele>
        <time>2019-11-01T10:18:49Z</time>
      </trkpt>
      <trkpt lat="38.4027900" lon="-2.5151880">
        <ele>1117.1</ele>
        <time>2019-11-01T10:18:51Z</time>
      </trkpt>
      <trkpt lat="38.4027600" lon="-2.5151310">
        <ele>1117.1</ele>
        <time>2019-11-01T10:18:53Z</time>
      </trkpt>
      <trkpt lat="38.4027370" lon="-2.5150770">
        <ele>1117.1</ele>
        <time>2019-11-01T10:18:55Z</time>
      </trkpt>
      <trkpt lat="38.4027390" lon="-2.5150200">
        <ele>1117.1</ele>
        <time>2019-11-01T10:18:58Z</time>
      </trkpt>
      <trkpt lat="38.4027850" lon="-2.5149700">
        <ele>1117.1</ele>
        <time>2019-11-01T10:19:02Z</time>
      </trkpt>
      <trkpt lat="38.4028310" lon="-2.5149300">
        <ele>1117.1</ele>
        <time>2019-11-01T10:19:05Z</time>
      </trkpt>
      <trkpt lat="38.4028900" lon="-2.5148910">
        <ele>1117.1</ele>
        <time>2019-11-01T10:19:08Z</time>
      </trkpt>
      <trkpt lat="38.4029470" lon="-2.5148420">
        <ele>1117.1</ele>
        <time>2019-11-01T10:19:11Z</time>
      </trkpt>
      <trkpt lat="38.4029800" lon="-2.5148090">
        <ele>1115.9</ele>
        <time>2019-11-01T10:19:13Z</time>
      </trkpt>
      <trkpt lat="38.4030260" lon="-2.5147660">
        <ele>1115.9</ele>
        <time>2019-11-01T10:19:16Z</time>
      </trkpt>
      <trkpt lat="38.4030570" lon="-2.5147250">
        <ele>1114.7</ele>
        <time>2019-11-01T10:19:20Z</time>
      </trkpt>
      <trkpt lat="38.4030920" lon="-2.5146640">
        <ele>1114.7</ele>
        <time>2019-11-01T10:19:25Z</time>
      </trkpt>
      <trkpt lat="38.4031330" lon="-2.5146020">
        <ele>1114.7</ele>
        <time>2019-11-01T10:19:29Z</time>
      </trkpt>
      <trkpt lat="38.4031640" lon="-2.5145400">
        <ele>1114.7</ele>
        <time>2019-11-01T10:19:32Z</time>
      </trkpt>
      <trkpt lat="38.4031950" lon="-2.5144830">
        <ele>1114.7</ele>
        <time>2019-11-01T10:19:35Z</time>
      </trkpt>
      <trkpt lat="38.4032280" lon="-2.5144220">
        <ele>1114.7</ele>
        <time>2019-11-01T10:19:39Z</time>
      </trkpt>
      <trkpt lat="38.4032670" lon="-2.5143700">
        <ele>1114.7</ele>
        <time>2019-11-01T10:19:43Z</time>
      </trkpt>
      <trkpt lat="38.4032900" lon="-2.5143090">
        <ele>1114.7</ele>
        <time>2019-11-01T10:19:47Z</time>
      </trkpt>
      <trkpt lat="38.4033100" lon="-2.5142550">
        <ele>1114.7</ele>
        <time>2019-11-01T10:19:51Z</time>
      </trkpt>
      <trkpt lat="38.4033360" lon="-2.5141870">
        <ele>1114.7</ele>
        <time>2019-11-01T10:19:56Z</time>
      </trkpt>
      <trkpt lat="38.4033660" lon="-2.5141340">
        <ele>1114.7</ele>
        <time>2019-11-01T10:20:00Z</time>
      </trkpt>
      <trkpt lat="38.4033970" lon="-2.5140740">
        <ele>1114.7</ele>
        <time>2019-11-01T10:20:04Z</time>
      </trkpt>
      <trkpt lat="38.4034150" lon="-2.5140080">
        <ele>1114.7</ele>
        <time>2019-11-01T10:20:07Z</time>
      </trkpt>
      <trkpt lat="38.4034150" lon="-2.5139370">
        <ele>1114.7</ele>
        <time>2019-11-01T10:20:11Z</time>
      </trkpt>
      <trkpt lat="38.4033540" lon="-2.5137660">
        <ele>1110.9</ele>
        <time>2019-11-01T10:20:31Z</time>
      </trkpt>
      <trkpt lat="38.4033280" lon="-2.5137190">
        <ele>1110.9</ele>
        <time>2019-11-01T10:20:36Z</time>
      </trkpt>
      <trkpt lat="38.4033020" lon="-2.5136480">
        <ele>1110.9</ele>
        <time>2019-11-01T10:20:42Z</time>
      </trkpt>
      <trkpt lat="38.4032870" lon="-2.5135880">
        <ele>1110.9</ele>
        <time>2019-11-01T10:20:48Z</time>
      </trkpt>
      <trkpt lat="38.4032720" lon="-2.5135290">
        <ele>1109.1</ele>
        <time>2019-11-01T10:20:53Z</time>
      </trkpt>
      <trkpt lat="38.4032560" lon="-2.5133520">
        <ele>1100.2</ele>
        <time>2019-11-01T10:21:08Z</time>
      </trkpt>
      <trkpt lat="38.4032640" lon="-2.5132930">
        <ele>1100.2</ele>
        <time>2019-11-01T10:21:12Z</time>
      </trkpt>
      <trkpt lat="38.4032560" lon="-2.5132170">
        <ele>1099.1</ele>
        <time>2019-11-01T10:21:17Z</time>
      </trkpt>
      <trkpt lat="38.4032490" lon="-2.5131620">
        <ele>1095.9</ele>
        <time>2019-11-01T10:21:21Z</time>
      </trkpt>
      <trkpt lat="38.4032200" lon="-2.5130430">
        <ele>1092.9</ele>
        <time>2019-11-01T10:21:29Z</time>
      </trkpt>
      <trkpt lat="38.4031970" lon="-2.5129700">
        <ele>1092.9</ele>
        <time>2019-11-01T10:21:31Z</time>
      </trkpt>
      <trkpt lat="38.4031640" lon="-2.5128840">
        <ele>1092.9</ele>
        <time>2019-11-01T10:21:33Z</time>
      </trkpt>
      <trkpt lat="38.4031180" lon="-2.5127780">
        <ele>1092.9</ele>
        <time>2019-11-01T10:21:35Z</time>
      </trkpt>
      <trkpt lat="38.4030870" lon="-2.5126770">
        <ele>1092.9</ele>
        <time>2019-11-01T10:21:37Z</time>
      </trkpt>
      <trkpt lat="38.4030620" lon="-2.5126050">
        <ele>1091.8</ele>
        <time>2019-11-01T10:21:39Z</time>
      </trkpt>
      <trkpt lat="38.4030800" lon="-2.5124110">
        <ele>1086.8</ele>
        <time>2019-11-01T10:26:56Z</time>
      </trkpt>
      <trkpt lat="38.4030950" lon="-2.5123090">
        <ele>1086.8</ele>
        <time>2019-11-01T10:27:01Z</time>
      </trkpt>
      <trkpt lat="38.4031260" lon="-2.5122610">
        <ele>1086.8</ele>
        <time>2019-11-01T10:27:03Z</time>
      </trkpt>
      <trkpt lat="38.4031820" lon="-2.5122070">
        <ele>1086.8</ele>
        <time>2019-11-01T10:27:06Z</time>
      </trkpt>
      <trkpt lat="38.4032590" lon="-2.5121830">
        <ele>1086.8</ele>
        <time>2019-11-01T10:27:09Z</time>
      </trkpt>
      <trkpt lat="38.4033280" lon="-2.5121820">
        <ele>1084.1</ele>
        <time>2019-11-01T10:27:11Z</time>
      </trkpt>
      <trkpt lat="38.4034070" lon="-2.5121790">
        <ele>1082.9</ele>
        <time>2019-11-01T10:27:13Z</time>
      </trkpt>
      <trkpt lat="38.4034890" lon="-2.5121720">
        <ele>1082.9</ele>
        <time>2019-11-01T10:27:15Z</time>
      </trkpt>
      <trkpt lat="38.4035760" lon="-2.5121620">
        <ele>1081.7</ele>
        <time>2019-11-01T10:27:17Z</time>
      </trkpt>
      <trkpt lat="38.4036680" lon="-2.5121450">
        <ele>1081.7</ele>
        <time>2019-11-01T10:27:19Z</time>
      </trkpt>
      <trkpt lat="38.4037200" lon="-2.5121380">
        <ele>1081.7</ele>
        <time>2019-11-01T10:27:20Z</time>
      </trkpt>
      <trkpt lat="38.4037710" lon="-2.5121340">
        <ele>1081.7</ele>
        <time>2019-11-01T10:27:21Z</time>
      </trkpt>
      <trkpt lat="38.4038710" lon="-2.5121350">
        <ele>1081.7</ele>
        <time>2019-11-01T10:27:23Z</time>
      </trkpt>
      <trkpt lat="38.4039680" lon="-2.5121480">
        <ele>1081.7</ele>
        <time>2019-11-01T10:27:25Z</time>
      </trkpt>
      <trkpt lat="38.4040600" lon="-2.5121720">
        <ele>1080.5</ele>
        <time>2019-11-01T10:27:27Z</time>
      </trkpt>
      <trkpt lat="38.4041750" lon="-2.5122270">
        <ele>1080.5</ele>
        <time>2019-11-01T10:27:30Z</time>
      </trkpt>
      <trkpt lat="38.4042470" lon="-2.5122920">
        <ele>1080.5</ele>
        <time>2019-11-01T10:27:33Z</time>
      </trkpt>
      <trkpt lat="38.4042850" lon="-2.5123300">
        <ele>1080.5</ele>
        <time>2019-11-01T10:27:35Z</time>
      </trkpt>
      <trkpt lat="38.4043340" lon="-2.5123860">
        <ele>1080.5</ele>
        <time>2019-11-01T10:27:38Z</time>
      </trkpt>
      <trkpt lat="38.4043720" lon="-2.5124370">
        <ele>1079.3</ele>
        <time>2019-11-01T10:27:41Z</time>
      </trkpt>
      <trkpt lat="38.4044080" lon="-2.5124820">
        <ele>1079.3</ele>
        <time>2019-11-01T10:27:45Z</time>
      </trkpt>
      <trkpt lat="38.4045180" lon="-2.5125710">
        <ele>1080.6</ele>
        <time>2019-11-01T10:40:19Z</time>
      </trkpt>
      <trkpt lat="38.4045720" lon="-2.5126600">
        <ele>1080.6</ele>
        <time>2019-11-01T10:41:04Z</time>
      </trkpt>
      <trkpt lat="38.4046490" lon="-2.5126800">
        <ele>1080.6</ele>
        <time>2019-11-01T10:41:07Z</time>
      </trkpt>
      <trkpt lat="38.4047130" lon="-2.5127070">
        <ele>1080.6</ele>
        <time>2019-11-01T10:41:09Z</time>
      </trkpt>
      <trkpt lat="38.4047820" lon="-2.5127300">
        <ele>1080.6</ele>
        <time>2019-11-01T10:41:11Z</time>
      </trkpt>
      <trkpt lat="38.4048440" lon="-2.5127550">
        <ele>1078.2</ele>
        <time>2019-11-01T10:41:13Z</time>
      </trkpt>
      <trkpt lat="38.4048870" lon="-2.5127860">
        <ele>1078.2</ele>
        <time>2019-11-01T10:41:15Z</time>
      </trkpt>
      <trkpt lat="38.4049310" lon="-2.5128170">
        <ele>1078.2</ele>
        <time>2019-11-01T10:41:18Z</time>
      </trkpt>
      <trkpt lat="38.4049770" lon="-2.5128990">
        <ele>1078.2</ele>
        <time>2019-11-01T10:42:39Z</time>
      </trkpt>
      <trkpt lat="38.4050410" lon="-2.5129280">
        <ele>1078.2</ele>
        <time>2019-11-01T10:42:44Z</time>
      </trkpt>
      <trkpt lat="38.4051020" lon="-2.5129640">
        <ele>1078.2</ele>
        <time>2019-11-01T10:42:48Z</time>
      </trkpt>
      <trkpt lat="38.4051510" lon="-2.5129910">
        <ele>1078.2</ele>
        <time>2019-11-01T10:42:51Z</time>
      </trkpt>
      <trkpt lat="38.4052020" lon="-2.5130130">
        <ele>1078.2</ele>
        <time>2019-11-01T10:42:54Z</time>
      </trkpt>
      <trkpt lat="38.4052480" lon="-2.5130290">
        <ele>1075.1</ele>
        <time>2019-11-01T10:42:57Z</time>
      </trkpt>
      <trkpt lat="38.4052970" lon="-2.5130360">
        <ele>1075.1</ele>
        <time>2019-11-01T10:43:00Z</time>
      </trkpt>
      <trkpt lat="38.4053660" lon="-2.5130560">
        <ele>1075.1</ele>
        <time>2019-11-01T10:43:04Z</time>
      </trkpt>
      <trkpt lat="38.4054140" lon="-2.5130640">
        <ele>1075.1</ele>
        <time>2019-11-01T10:43:07Z</time>
      </trkpt>
      <trkpt lat="38.4054630" lon="-2.5130780">
        <ele>1076.4</ele>
        <time>2019-11-01T10:43:10Z</time>
      </trkpt>
      <trkpt lat="38.4055170" lon="-2.5130970">
        <ele>1076.4</ele>
        <time>2019-11-01T10:43:13Z</time>
      </trkpt>
      <trkpt lat="38.4055710" lon="-2.5131120">
        <ele>1077.6</ele>
        <time>2019-11-01T10:43:16Z</time>
      </trkpt>
      <trkpt lat="38.4056290" lon="-2.5131220">
        <ele>1077.6</ele>
        <time>2019-11-01T10:43:19Z</time>
      </trkpt>
      <trkpt lat="38.4056700" lon="-2.5131380">
        <ele>1077.6</ele>
        <time>2019-11-01T10:43:22Z</time>
      </trkpt>
      <trkpt lat="38.4057470" lon="-2.5131500">
        <ele>1077.6</ele>
        <time>2019-11-01T10:43:26Z</time>
      </trkpt>
      <trkpt lat="38.4058090" lon="-2.5131440">
        <ele>1077.6</ele>
        <time>2019-11-01T10:43:29Z</time>
      </trkpt>
      <trkpt lat="38.4058650" lon="-2.5131330">
        <ele>1077.6</ele>
        <time>2019-11-01T10:43:32Z</time>
      </trkpt>
      <trkpt lat="38.4059190" lon="-2.5131220">
        <ele>1077.6</ele>
        <time>2019-11-01T10:43:35Z</time>
      </trkpt>
      <trkpt lat="38.4059670" lon="-2.5131010">
        <ele>1077.6</ele>
        <time>2019-11-01T10:43:38Z</time>
      </trkpt>
      <trkpt lat="38.4060190" lon="-2.5130750">
        <ele>1077.6</ele>
        <time>2019-11-01T10:43:41Z</time>
      </trkpt>
      <trkpt lat="38.4060670" lon="-2.5130500">
        <ele>1077.6</ele>
        <time>2019-11-01T10:43:44Z</time>
      </trkpt>
      <trkpt lat="38.4061290" lon="-2.5130210">
        <ele>1077.6</ele>
        <time>2019-11-01T10:43:48Z</time>
      </trkpt>
      <trkpt lat="38.4061850" lon="-2.5129930">
        <ele>1077.6</ele>
        <time>2019-11-01T10:43:52Z</time>
      </trkpt>
      <trkpt lat="38.4062260" lon="-2.5129670">
        <ele>1077.6</ele>
        <time>2019-11-01T10:43:55Z</time>
      </trkpt>
      <trkpt lat="38.4062870" lon="-2.5129480">
        <ele>1077.6</ele>
        <time>2019-11-01T10:43:59Z</time>
      </trkpt>
      <trkpt lat="38.4063390" lon="-2.5129360">
        <ele>1077.6</ele>
        <time>2019-11-01T10:44:02Z</time>
      </trkpt>
      <trkpt lat="38.4063950" lon="-2.5129090">
        <ele>1079.1</ele>
        <time>2019-11-01T10:44:06Z</time>
      </trkpt>
      <trkpt lat="38.4064490" lon="-2.5128870">
        <ele>1081.5</ele>
        <time>2019-11-01T10:44:09Z</time>
      </trkpt>
      <trkpt lat="38.4065050" lon="-2.5128660">
        <ele>1082.9</ele>
        <time>2019-11-01T10:44:12Z</time>
      </trkpt>
      <trkpt lat="38.4065640" lon="-2.5128410">
        <ele>1082.9</ele>
        <time>2019-11-01T10:44:15Z</time>
      </trkpt>
      <trkpt lat="38.4066230" lon="-2.5128220">
        <ele>1082.9</ele>
        <time>2019-11-01T10:44:18Z</time>
      </trkpt>
      <trkpt lat="38.4066890" lon="-2.5128190">
        <ele>1082.9</ele>
        <time>2019-11-01T10:44:21Z</time>
      </trkpt>
      <trkpt lat="38.4067530" lon="-2.5128350">
        <ele>1082.9</ele>
        <time>2019-11-01T10:44:24Z</time>
      </trkpt>
      <trkpt lat="38.4068170" lon="-2.5128660">
        <ele>1082.9</ele>
        <time>2019-11-01T10:44:27Z</time>
      </trkpt>
      <trkpt lat="38.4068790" lon="-2.5128930">
        <ele>1082.9</ele>
        <time>2019-11-01T10:44:30Z</time>
      </trkpt>
      <trkpt lat="38.4069400" lon="-2.5129110">
        <ele>1082.9</ele>
        <time>2019-11-01T10:44:33Z</time>
      </trkpt>
      <trkpt lat="38.4069960" lon="-2.5129120">
        <ele>1082.9</ele>
        <time>2019-11-01T10:44:36Z</time>
      </trkpt>
      <trkpt lat="38.4070500" lon="-2.5128870">
        <ele>1082.9</ele>
        <time>2019-11-01T10:44:39Z</time>
      </trkpt>
      <trkpt lat="38.4070810" lon="-2.5128370">
        <ele>1082.9</ele>
        <time>2019-11-01T10:44:42Z</time>
      </trkpt>
      <trkpt lat="38.4070940" lon="-2.5127480">
        <ele>1082.9</ele>
        <time>2019-11-01T10:44:46Z</time>
      </trkpt>
      <trkpt lat="38.4070890" lon="-2.5126440">
        <ele>1082.9</ele>
        <time>2019-11-01T10:44:50Z</time>
      </trkpt>
      <trkpt lat="38.4070780" lon="-2.5125560">
        <ele>1082.9</ele>
        <time>2019-11-01T10:44:53Z</time>
      </trkpt>
      <trkpt lat="38.4070710" lon="-2.5124680">
        <ele>1082.9</ele>
        <time>2019-11-01T10:44:56Z</time>
      </trkpt>
      <trkpt lat="38.4070630" lon="-2.5123820">
        <ele>1082.9</ele>
        <time>2019-11-01T10:44:59Z</time>
      </trkpt>
      <trkpt lat="38.4070660" lon="-2.5122990">
        <ele>1082.9</ele>
        <time>2019-11-01T10:45:02Z</time>
      </trkpt>
      <trkpt lat="38.4070660" lon="-2.5122200">
        <ele>1082.9</ele>
        <time>2019-11-01T10:45:05Z</time>
      </trkpt>
      <trkpt lat="38.4070710" lon="-2.5121380">
        <ele>1082.9</ele>
        <time>2019-11-01T10:45:08Z</time>
      </trkpt>
      <trkpt lat="38.4070660" lon="-2.5120550">
        <ele>1082.9</ele>
        <time>2019-11-01T10:45:11Z</time>
      </trkpt>
      <trkpt lat="38.4070580" lon="-2.5119670">
        <ele>1082.9</ele>
        <time>2019-11-01T10:45:14Z</time>
      </trkpt>
      <trkpt lat="38.4070480" lon="-2.5118760">
        <ele>1082.9</ele>
        <time>2019-11-01T10:45:17Z</time>
      </trkpt>
      <trkpt lat="38.4070320" lon="-2.5117900">
        <ele>1082.9</ele>
        <time>2019-11-01T10:45:20Z</time>
      </trkpt>
      <trkpt lat="38.4070200" lon="-2.5117020">
        <ele>1082.9</ele>
        <time>2019-11-01T10:45:23Z</time>
      </trkpt>
      <trkpt lat="38.4070090" lon="-2.5116280">
        <ele>1082.9</ele>
        <time>2019-11-01T10:45:26Z</time>
      </trkpt>
      <trkpt lat="38.4070090" lon="-2.5115620">
        <ele>1082.9</ele>
        <time>2019-11-01T10:45:29Z</time>
      </trkpt>
      <trkpt lat="38.4069960" lon="-2.5114840">
        <ele>1082.9</ele>
        <time>2019-11-01T10:45:33Z</time>
      </trkpt>
      <trkpt lat="38.4069790" lon="-2.5114070">
        <ele>1082.9</ele>
        <time>2019-11-01T10:45:37Z</time>
      </trkpt>
      <trkpt lat="38.4069680" lon="-2.5113300">
        <ele>1082.9</ele>
        <time>2019-11-01T10:45:40Z</time>
      </trkpt>
      <trkpt lat="38.4069560" lon="-2.5112490">
        <ele>1082.9</ele>
        <time>2019-11-01T10:45:43Z</time>
      </trkpt>
      <trkpt lat="38.4069450" lon="-2.5111710">
        <ele>1082.9</ele>
        <time>2019-11-01T10:45:46Z</time>
      </trkpt>
      <trkpt lat="38.4069300" lon="-2.5110890">
        <ele>1082.9</ele>
        <time>2019-11-01T10:45:49Z</time>
      </trkpt>
      <trkpt lat="38.4069150" lon="-2.5110060">
        <ele>1082.9</ele>
        <time>2019-11-01T10:45:52Z</time>
      </trkpt>
      <trkpt lat="38.4068940" lon="-2.5109300">
        <ele>1082.9</ele>
        <time>2019-11-01T10:45:55Z</time>
      </trkpt>
      <trkpt lat="38.4068630" lon="-2.5108570">
        <ele>1082.9</ele>
        <time>2019-11-01T10:45:58Z</time>
      </trkpt>
      <trkpt lat="38.4068250" lon="-2.5107820">
        <ele>1082.9</ele>
        <time>2019-11-01T10:46:01Z</time>
      </trkpt>
      <trkpt lat="38.4067890" lon="-2.5107010">
        <ele>1082.9</ele>
        <time>2019-11-01T10:46:04Z</time>
      </trkpt>
      <trkpt lat="38.4067430" lon="-2.5106250">
        <ele>1082.9</ele>
        <time>2019-11-01T10:46:07Z</time>
      </trkpt>
      <trkpt lat="38.4067050" lon="-2.5105730">
        <ele>1082.9</ele>
        <time>2019-11-01T10:46:09Z</time>
      </trkpt>
      <trkpt lat="38.4066660" lon="-2.5105260">
        <ele>1082.9</ele>
        <time>2019-11-01T10:46:11Z</time>
      </trkpt>
      <trkpt lat="38.4066200" lon="-2.5104780">
        <ele>1082.9</ele>
        <time>2019-11-01T10:46:13Z</time>
      </trkpt>
      <trkpt lat="38.4065820" lon="-2.5104300">
        <ele>1082.9</ele>
        <time>2019-11-01T10:46:15Z</time>
      </trkpt>
      <trkpt lat="38.4065430" lon="-2.5103820">
        <ele>1082.9</ele>
        <time>2019-11-01T10:46:17Z</time>
      </trkpt>
      <trkpt lat="38.4064870" lon="-2.5103110">
        <ele>1082.9</ele>
        <time>2019-11-01T10:46:20Z</time>
      </trkpt>
      <trkpt lat="38.4064490" lon="-2.5102650">
        <ele>1082.9</ele>
        <time>2019-11-01T10:46:22Z</time>
      </trkpt>
      <trkpt lat="38.4064080" lon="-2.5102180">
        <ele>1082.9</ele>
        <time>2019-11-01T10:46:24Z</time>
      </trkpt>
      <trkpt lat="38.4063640" lon="-2.5101680">
        <ele>1082.9</ele>
        <time>2019-11-01T10:46:26Z</time>
      </trkpt>
      <trkpt lat="38.4063230" lon="-2.5101170">
        <ele>1082.9</ele>
        <time>2019-11-01T10:46:28Z</time>
      </trkpt>
      <trkpt lat="38.4062770" lon="-2.5100610">
        <ele>1082.9</ele>
        <time>2019-11-01T10:46:30Z</time>
      </trkpt>
      <trkpt lat="38.4062390" lon="-2.5100000">
        <ele>1082.9</ele>
        <time>2019-11-01T10:46:32Z</time>
      </trkpt>
      <trkpt lat="38.4062050" lon="-2.5099320">
        <ele>1082.9</ele>
        <time>2019-11-01T10:46:34Z</time>
      </trkpt>
      <trkpt lat="38.4061750" lon="-2.5098630">
        <ele>1082.9</ele>
        <time>2019-11-01T10:46:36Z</time>
      </trkpt>
      <trkpt lat="38.4061540" lon="-2.5097890">
        <ele>1082.9</ele>
        <time>2019-11-01T10:46:38Z</time>
      </trkpt>
      <trkpt lat="38.4061440" lon="-2.5097130">
        <ele>1082.9</ele>
        <time>2019-11-01T10:46:40Z</time>
      </trkpt>
      <trkpt lat="38.4061440" lon="-2.5096320">
        <ele>1082.9</ele>
        <time>2019-11-01T10:46:42Z</time>
      </trkpt>
      <trkpt lat="38.4061520" lon="-2.5095500">
        <ele>1081.5</ele>
        <time>2019-11-01T10:46:44Z</time>
      </trkpt>
      <trkpt lat="38.4061670" lon="-2.5094720">
        <ele>1081.5</ele>
        <time>2019-11-01T10:46:46Z</time>
      </trkpt>
      <trkpt lat="38.4061850" lon="-2.5093890">
        <ele>1081.5</ele>
        <time>2019-11-01T10:46:48Z</time>
      </trkpt>
      <trkpt lat="38.4062050" lon="-2.5093170">
        <ele>1081.5</ele>
        <time>2019-11-01T10:46:50Z</time>
      </trkpt>
      <trkpt lat="38.4062310" lon="-2.5092460">
        <ele>1081.5</ele>
        <time>2019-11-01T10:46:52Z</time>
      </trkpt>
      <trkpt lat="38.4062570" lon="-2.5091840">
        <ele>1081.5</ele>
        <time>2019-11-01T10:46:54Z</time>
      </trkpt>
      <trkpt lat="38.4062850" lon="-2.5091340">
        <ele>1081.5</ele>
        <time>2019-11-01T10:46:56Z</time>
      </trkpt>
      <trkpt lat="38.4063310" lon="-2.5090650">
        <ele>1081.5</ele>
        <time>2019-11-01T10:46:59Z</time>
      </trkpt>
      <trkpt lat="38.4063640" lon="-2.5090240">
        <ele>1080.3</ele>
        <time>2019-11-01T10:47:01Z</time>
      </trkpt>
      <trkpt lat="38.4064030" lon="-2.5089830">
        <ele>1080.3</ele>
        <time>2019-11-01T10:47:03Z</time>
      </trkpt>
      <trkpt lat="38.4064560" lon="-2.5089300">
        <ele>1080.3</ele>
        <time>2019-11-01T10:47:06Z</time>
      </trkpt>
      <trkpt lat="38.4064950" lon="-2.5088910">
        <ele>1080.3</ele>
        <time>2019-11-01T10:47:08Z</time>
      </trkpt>
      <trkpt lat="38.4065480" lon="-2.5088300">
        <ele>1081.6</ele>
        <time>2019-11-01T10:47:11Z</time>
      </trkpt>
      <trkpt lat="38.4066050" lon="-2.5087720">
        <ele>1082.9</ele>
        <time>2019-11-01T10:47:14Z</time>
      </trkpt>
      <trkpt lat="38.4066590" lon="-2.5087190">
        <ele>1082.9</ele>
        <time>2019-11-01T10:47:17Z</time>
      </trkpt>
      <trkpt lat="38.4067120" lon="-2.5086600">
        <ele>1084.1</ele>
        <time>2019-11-01T10:47:20Z</time>
      </trkpt>
      <trkpt lat="38.4067690" lon="-2.5085990">
        <ele>1084.1</ele>
        <time>2019-11-01T10:47:23Z</time>
      </trkpt>
      <trkpt lat="38.4068020" lon="-2.5085560">
        <ele>1084.1</ele>
        <time>2019-11-01T10:47:25Z</time>
      </trkpt>
      <trkpt lat="38.4068480" lon="-2.5084880">
        <ele>1084.1</ele>
        <time>2019-11-01T10:47:28Z</time>
      </trkpt>
      <trkpt lat="38.4068920" lon="-2.5084150">
        <ele>1084.1</ele>
        <time>2019-11-01T10:47:31Z</time>
      </trkpt>
      <trkpt lat="38.4069150" lon="-2.5083640">
        <ele>1085.5</ele>
        <time>2019-11-01T10:47:33Z</time>
      </trkpt>
      <trkpt lat="38.4069400" lon="-2.5082900">
        <ele>1087.2</ele>
        <time>2019-11-01T10:47:36Z</time>
      </trkpt>
      <trkpt lat="38.4069530" lon="-2.5082400">
        <ele>1087.2</ele>
        <time>2019-11-01T10:47:38Z</time>
      </trkpt>
      <trkpt lat="38.4069760" lon="-2.5081670">
        <ele>1088.5</ele>
        <time>2019-11-01T10:47:41Z</time>
      </trkpt>
      <trkpt lat="38.4069960" lon="-2.5080870">
        <ele>1088.5</ele>
        <time>2019-11-01T10:47:44Z</time>
      </trkpt>
      <trkpt lat="38.4070040" lon="-2.5080040">
        <ele>1088.5</ele>
        <time>2019-11-01T10:47:47Z</time>
      </trkpt>
      <trkpt lat="38.4070040" lon="-2.5079200">
        <ele>1088.5</ele>
        <time>2019-11-01T10:47:50Z</time>
      </trkpt>
      <trkpt lat="38.4069940" lon="-2.5078370">
        <ele>1088.5</ele>
        <time>2019-11-01T10:47:53Z</time>
      </trkpt>
      <trkpt lat="38.4069840" lon="-2.5077470">
        <ele>1088.5</ele>
        <time>2019-11-01T10:47:56Z</time>
      </trkpt>
      <trkpt lat="38.4069710" lon="-2.5076500">
        <ele>1089.7</ele>
        <time>2019-11-01T10:47:59Z</time>
      </trkpt>
      <trkpt lat="38.4069710" lon="-2.5075880">
        <ele>1089.7</ele>
        <time>2019-11-01T10:48:01Z</time>
      </trkpt>
      <trkpt lat="38.4069860" lon="-2.5074970">
        <ele>1088.3</ele>
        <time>2019-11-01T10:48:04Z</time>
      </trkpt>
      <trkpt lat="38.4070090" lon="-2.5074180">
        <ele>1088.3</ele>
        <time>2019-11-01T10:48:07Z</time>
      </trkpt>
      <trkpt lat="38.4070320" lon="-2.5073400">
        <ele>1088.3</ele>
        <time>2019-11-01T10:48:10Z</time>
      </trkpt>
      <trkpt lat="38.4070480" lon="-2.5072640">
        <ele>1088.3</ele>
        <time>2019-11-01T10:48:13Z</time>
      </trkpt>
      <trkpt lat="38.4070430" lon="-2.5071850">
        <ele>1088.3</ele>
        <time>2019-11-01T10:48:16Z</time>
      </trkpt>
      <trkpt lat="38.4070200" lon="-2.5071040">
        <ele>1088.3</ele>
        <time>2019-11-01T10:48:19Z</time>
      </trkpt>
      <trkpt lat="38.4069890" lon="-2.5070580">
        <ele>1088.3</ele>
        <time>2019-11-01T10:48:21Z</time>
      </trkpt>
      <trkpt lat="38.4069380" lon="-2.5070050">
        <ele>1088.3</ele>
        <time>2019-11-01T10:48:24Z</time>
      </trkpt>
      <trkpt lat="38.4068920" lon="-2.5069780">
        <ele>1090.2</ele>
        <time>2019-11-01T10:48:26Z</time>
      </trkpt>
      <trkpt lat="38.4068400" lon="-2.5069530">
        <ele>1091.4</ele>
        <time>2019-11-01T10:48:28Z</time>
      </trkpt>
      <trkpt lat="38.4067920" lon="-2.5069280">
        <ele>1091.4</ele>
        <time>2019-11-01T10:48:30Z</time>
      </trkpt>
      <trkpt lat="38.4067430" lon="-2.5069030">
        <ele>1092.8</ele>
        <time>2019-11-01T10:48:32Z</time>
      </trkpt>
      <trkpt lat="38.4066970" lon="-2.5068710">
        <ele>1092.8</ele>
        <time>2019-11-01T10:48:34Z</time>
      </trkpt>
      <trkpt lat="38.4066510" lon="-2.5068080">
        <ele>1092.8</ele>
        <time>2019-11-01T10:48:37Z</time>
      </trkpt>
      <trkpt lat="38.4066280" lon="-2.5067270">
        <ele>1092.8</ele>
        <time>2019-11-01T10:48:40Z</time>
      </trkpt>
      <trkpt lat="38.4066360" lon="-2.5066450">
        <ele>1092.8</ele>
        <time>2019-11-01T10:48:43Z</time>
      </trkpt>
      <trkpt lat="38.4066530" lon="-2.5065730">
        <ele>1092.8</ele>
        <time>2019-11-01T10:48:46Z</time>
      </trkpt>
      <trkpt lat="38.4066840" lon="-2.5065000">
        <ele>1092.8</ele>
        <time>2019-11-01T10:48:49Z</time>
      </trkpt>
      <trkpt lat="38.4067150" lon="-2.5064250">
        <ele>1092.8</ele>
        <time>2019-11-01T10:48:52Z</time>
      </trkpt>
      <trkpt lat="38.4067380" lon="-2.5063420">
        <ele>1092.8</ele>
        <time>2019-11-01T10:48:55Z</time>
      </trkpt>
      <trkpt lat="38.4067430" lon="-2.5062540">
        <ele>1092.8</ele>
        <time>2019-11-01T10:48:58Z</time>
      </trkpt>
      <trkpt lat="38.4067430" lon="-2.5061920">
        <ele>1092.8</ele>
        <time>2019-11-01T10:49:00Z</time>
      </trkpt>
      <trkpt lat="38.4067350" lon="-2.5060970">
        <ele>1092.8</ele>
        <time>2019-11-01T10:49:03Z</time>
      </trkpt>
      <trkpt lat="38.4067300" lon="-2.5060290">
        <ele>1092.8</ele>
        <time>2019-11-01T10:49:05Z</time>
      </trkpt>
      <trkpt lat="38.4067230" lon="-2.5059610">
        <ele>1092.8</ele>
        <time>2019-11-01T10:49:07Z</time>
      </trkpt>
      <trkpt lat="38.4067200" lon="-2.5058960">
        <ele>1092.8</ele>
        <time>2019-11-01T10:49:09Z</time>
      </trkpt>
      <trkpt lat="38.4067070" lon="-2.5058030">
        <ele>1095.6</ele>
        <time>2019-11-01T10:49:12Z</time>
      </trkpt>
      <trkpt lat="38.4067050" lon="-2.5057460">
        <ele>1095.6</ele>
        <time>2019-11-01T10:49:14Z</time>
      </trkpt>
      <trkpt lat="38.4067000" lon="-2.5056700">
        <ele>1096.9</ele>
        <time>2019-11-01T10:49:17Z</time>
      </trkpt>
      <trkpt lat="38.4067050" lon="-2.5055890">
        <ele>1096.9</ele>
        <time>2019-11-01T10:49:20Z</time>
      </trkpt>
      <trkpt lat="38.4067200" lon="-2.5055110">
        <ele>1096.9</ele>
        <time>2019-11-01T10:49:23Z</time>
      </trkpt>
      <trkpt lat="38.4067460" lon="-2.5054360">
        <ele>1096.9</ele>
        <time>2019-11-01T10:49:26Z</time>
      </trkpt>
      <trkpt lat="38.4067760" lon="-2.5053610">
        <ele>1096.9</ele>
        <time>2019-11-01T10:49:29Z</time>
      </trkpt>
      <trkpt lat="38.4067840" lon="-2.5052750">
        <ele>1096.9</ele>
        <time>2019-11-01T10:49:32Z</time>
      </trkpt>
      <trkpt lat="38.4067660" lon="-2.5051960">
        <ele>1096.9</ele>
        <time>2019-11-01T10:49:35Z</time>
      </trkpt>
      <trkpt lat="38.4067230" lon="-2.5051330">
        <ele>1096.9</ele>
        <time>2019-11-01T10:49:38Z</time>
      </trkpt>
      <trkpt lat="38.4066660" lon="-2.5050920">
        <ele>1096.9</ele>
        <time>2019-11-01T10:49:41Z</time>
      </trkpt>
      <trkpt lat="38.4066070" lon="-2.5050780">
        <ele>1096.9</ele>
        <time>2019-11-01T10:49:44Z</time>
      </trkpt>
      <trkpt lat="38.4065410" lon="-2.5050820">
        <ele>1096.9</ele>
        <time>2019-11-01T10:49:47Z</time>
      </trkpt>
      <trkpt lat="38.4064740" lon="-2.5050920">
        <ele>1096.9</ele>
        <time>2019-11-01T10:49:50Z</time>
      </trkpt>
      <trkpt lat="38.4064080" lon="-2.5050960">
        <ele>1096.9</ele>
        <time>2019-11-01T10:49:53Z</time>
      </trkpt>
      <trkpt lat="38.4063410" lon="-2.5050800">
        <ele>1096.9</ele>
        <time>2019-11-01T10:49:56Z</time>
      </trkpt>
      <trkpt lat="38.4062720" lon="-2.5050500">
        <ele>1096.9</ele>
        <time>2019-11-01T10:49:59Z</time>
      </trkpt>
      <trkpt lat="38.4062080" lon="-2.5050070">
        <ele>1096.9</ele>
        <time>2019-11-01T10:50:02Z</time>
      </trkpt>
      <trkpt lat="38.4061470" lon="-2.5049540">
        <ele>1096.9</ele>
        <time>2019-11-01T10:50:05Z</time>
      </trkpt>
      <trkpt lat="38.4061080" lon="-2.5049140">
        <ele>1096.9</ele>
        <time>2019-11-01T10:50:07Z</time>
      </trkpt>
      <trkpt lat="38.4060670" lon="-2.5048380">
        <ele>1096.9</ele>
        <time>2019-11-01T10:50:10Z</time>
      </trkpt>
      <trkpt lat="38.4060620" lon="-2.5047560">
        <ele>1099.9</ele>
        <time>2019-11-01T10:50:13Z</time>
      </trkpt>
      <trkpt lat="38.4060700" lon="-2.5047010">
        <ele>1103.2</ele>
        <time>2019-11-01T10:50:15Z</time>
      </trkpt>
      <trkpt lat="38.4060850" lon="-2.5046150">
        <ele>1105.9</ele>
        <time>2019-11-01T10:50:18Z</time>
      </trkpt>
      <trkpt lat="38.4060980" lon="-2.5045530">
        <ele>1105.9</ele>
        <time>2019-11-01T10:50:20Z</time>
      </trkpt>
      <trkpt lat="38.4060980" lon="-2.5044890">
        <ele>1107.4</ele>
        <time>2019-11-01T10:50:22Z</time>
      </trkpt>
      <trkpt lat="38.4060830" lon="-2.5044040">
        <ele>1107.4</ele>
        <time>2019-11-01T10:50:25Z</time>
      </trkpt>
      <trkpt lat="38.4060440" lon="-2.5043310">
        <ele>1107.4</ele>
        <time>2019-11-01T10:50:28Z</time>
      </trkpt>
      <trkpt lat="38.4060030" lon="-2.5042680">
        <ele>1107.4</ele>
        <time>2019-11-01T10:50:31Z</time>
      </trkpt>
      <trkpt lat="38.4059570" lon="-2.5042010">
        <ele>1107.4</ele>
        <time>2019-11-01T10:50:34Z</time>
      </trkpt>
      <trkpt lat="38.4059140" lon="-2.5041290">
        <ele>1107.4</ele>
        <time>2019-11-01T10:50:37Z</time>
      </trkpt>
      <trkpt lat="38.4058830" lon="-2.5040810">
        <ele>1107.4</ele>
        <time>2019-11-01T10:50:39Z</time>
      </trkpt>
      <trkpt lat="38.4058440" lon="-2.5040020">
        <ele>1107.4</ele>
        <time>2019-11-01T10:50:42Z</time>
      </trkpt>
      <trkpt lat="38.4058240" lon="-2.5039450">
        <ele>1107.4</ele>
        <time>2019-11-01T10:50:44Z</time>
      </trkpt>
      <trkpt lat="38.4057930" lon="-2.5038630">
        <ele>1107.4</ele>
        <time>2019-11-01T10:50:47Z</time>
      </trkpt>
      <trkpt lat="38.4057650" lon="-2.5037750">
        <ele>1107.4</ele>
        <time>2019-11-01T10:50:50Z</time>
      </trkpt>
      <trkpt lat="38.4057500" lon="-2.5037120">
        <ele>1107.4</ele>
        <time>2019-11-01T10:50:52Z</time>
      </trkpt>
      <trkpt lat="38.4057470" lon="-2.5036170">
        <ele>1107.4</ele>
        <time>2019-11-01T10:50:55Z</time>
      </trkpt>
      <trkpt lat="38.4057570" lon="-2.5035560">
        <ele>1103.9</ele>
        <time>2019-11-01T10:50:57Z</time>
      </trkpt>
      <trkpt lat="38.4057730" lon="-2.5035060">
        <ele>1098.1</ele>
        <time>2019-11-01T10:50:59Z</time>
      </trkpt>
      <trkpt lat="38.4058040" lon="-2.5034600">
        <ele>1096.1</ele>
        <time>2019-11-01T10:51:01Z</time>
      </trkpt>
      <trkpt lat="38.4058570" lon="-2.5033990">
        <ele>1094.6</ele>
        <time>2019-11-01T10:51:04Z</time>
      </trkpt>
      <trkpt lat="38.4059110" lon="-2.5033500">
        <ele>1093.2</ele>
        <time>2019-11-01T10:51:07Z</time>
      </trkpt>
      <trkpt lat="38.4059670" lon="-2.5032950">
        <ele>1093.2</ele>
        <time>2019-11-01T10:51:10Z</time>
      </trkpt>
      <trkpt lat="38.4060110" lon="-2.5032280">
        <ele>1092.1</ele>
        <time>2019-11-01T10:51:13Z</time>
      </trkpt>
      <trkpt lat="38.4060470" lon="-2.5031520">
        <ele>1092.1</ele>
        <time>2019-11-01T10:51:16Z</time>
      </trkpt>
      <trkpt lat="38.4060770" lon="-2.5030770">
        <ele>1089.9</ele>
        <time>2019-11-01T10:51:19Z</time>
      </trkpt>
      <trkpt lat="38.4060980" lon="-2.5030280">
        <ele>1089.9</ele>
        <time>2019-11-01T10:51:21Z</time>
      </trkpt>
      <trkpt lat="38.4061240" lon="-2.5029540">
        <ele>1089.9</ele>
        <time>2019-11-01T10:51:24Z</time>
      </trkpt>
      <trkpt lat="38.4061540" lon="-2.5028870">
        <ele>1089.9</ele>
        <time>2019-11-01T10:51:27Z</time>
      </trkpt>
      <trkpt lat="38.4061850" lon="-2.5028250">
        <ele>1089.9</ele>
        <time>2019-11-01T10:51:30Z</time>
      </trkpt>
      <trkpt lat="38.4062230" lon="-2.5027680">
        <ele>1089.9</ele>
        <time>2019-11-01T10:51:33Z</time>
      </trkpt>
      <trkpt lat="38.4062620" lon="-2.5027150">
        <ele>1088.8</ele>
        <time>2019-11-01T10:51:36Z</time>
      </trkpt>
      <trkpt lat="38.4063080" lon="-2.5026690">
        <ele>1088.8</ele>
        <time>2019-11-01T10:51:39Z</time>
      </trkpt>
      <trkpt lat="38.4063540" lon="-2.5026180">
        <ele>1088.8</ele>
        <time>2019-11-01T10:51:42Z</time>
      </trkpt>
      <trkpt lat="38.4064000" lon="-2.5025620">
        <ele>1088.8</ele>
        <time>2019-11-01T10:51:45Z</time>
      </trkpt>
      <trkpt lat="38.4064490" lon="-2.5025080">
        <ele>1088.8</ele>
        <time>2019-11-01T10:51:48Z</time>
      </trkpt>
      <trkpt lat="38.4064950" lon="-2.5024480">
        <ele>1088.8</ele>
        <time>2019-11-01T10:51:51Z</time>
      </trkpt>
      <trkpt lat="38.4065410" lon="-2.5023620">
        <ele>1088.8</ele>
        <time>2019-11-01T10:51:55Z</time>
      </trkpt>
      <trkpt lat="38.4065660" lon="-2.5022850">
        <ele>1095.2</ele>
        <time>2019-11-01T10:51:58Z</time>
      </trkpt>
      <trkpt lat="38.4065870" lon="-2.5022080">
        <ele>1095.2</ele>
        <time>2019-11-01T10:52:01Z</time>
      </trkpt>
      <trkpt lat="38.4065970" lon="-2.5021340">
        <ele>1095.2</ele>
        <time>2019-11-01T10:52:04Z</time>
      </trkpt>
      <trkpt lat="38.4066070" lon="-2.5020560">
        <ele>1095.2</ele>
        <time>2019-11-01T10:52:07Z</time>
      </trkpt>
      <trkpt lat="38.4066120" lon="-2.5019800">
        <ele>1095.2</ele>
        <time>2019-11-01T10:52:10Z</time>
      </trkpt>
      <trkpt lat="38.4066200" lon="-2.5019100">
        <ele>1095.2</ele>
        <time>2019-11-01T10:52:13Z</time>
      </trkpt>
      <trkpt lat="38.4066300" lon="-2.5018420">
        <ele>1098.0</ele>
        <time>2019-11-01T10:52:16Z</time>
      </trkpt>
      <trkpt lat="38.4066430" lon="-2.5017610">
        <ele>1098.0</ele>
        <time>2019-11-01T10:52:19Z</time>
      </trkpt>
      <trkpt lat="38.4066590" lon="-2.5016790">
        <ele>1098.0</ele>
        <time>2019-11-01T10:52:22Z</time>
      </trkpt>
      <trkpt lat="38.4066690" lon="-2.5015950">
        <ele>1098.0</ele>
        <time>2019-11-01T10:52:25Z</time>
      </trkpt>
      <trkpt lat="38.4066820" lon="-2.5015370">
        <ele>1098.0</ele>
        <time>2019-11-01T10:52:27Z</time>
      </trkpt>
      <trkpt lat="38.4066920" lon="-2.5014580">
        <ele>1098.0</ele>
        <time>2019-11-01T10:52:30Z</time>
      </trkpt>
      <trkpt lat="38.4067050" lon="-2.5013820">
        <ele>1100.4</ele>
        <time>2019-11-01T10:52:33Z</time>
      </trkpt>
      <trkpt lat="38.4067230" lon="-2.5013110">
        <ele>1100.4</ele>
        <time>2019-11-01T10:52:36Z</time>
      </trkpt>
      <trkpt lat="38.4067380" lon="-2.5012350">
        <ele>1100.4</ele>
        <time>2019-11-01T10:52:39Z</time>
      </trkpt>
      <trkpt lat="38.4067580" lon="-2.5011620">
        <ele>1100.4</ele>
        <time>2019-11-01T10:52:42Z</time>
      </trkpt>
      <trkpt lat="38.4067840" lon="-2.5010890">
        <ele>1100.4</ele>
        <time>2019-11-01T10:52:45Z</time>
      </trkpt>
      <trkpt lat="38.4068170" lon="-2.5010200">
        <ele>1102.8</ele>
        <time>2019-11-01T10:52:48Z</time>
      </trkpt>
      <trkpt lat="38.4068610" lon="-2.5009530">
        <ele>1102.8</ele>
        <time>2019-11-01T10:52:51Z</time>
      </trkpt>
      <trkpt lat="38.4069020" lon="-2.5008860">
        <ele>1102.8</ele>
        <time>2019-11-01T10:52:54Z</time>
      </trkpt>
      <trkpt lat="38.4069400" lon="-2.5008200">
        <ele>1102.8</ele>
        <time>2019-11-01T10:52:57Z</time>
      </trkpt>
      <trkpt lat="38.4069840" lon="-2.5007580">
        <ele>1102.8</ele>
        <time>2019-11-01T10:53:00Z</time>
      </trkpt>
      <trkpt lat="38.4070170" lon="-2.5006960">
        <ele>1105.1</ele>
        <time>2019-11-01T10:53:03Z</time>
      </trkpt>
      <trkpt lat="38.4070480" lon="-2.5006240">
        <ele>1105.1</ele>
        <time>2019-11-01T10:53:06Z</time>
      </trkpt>
      <trkpt lat="38.4070660" lon="-2.5005460">
        <ele>1105.1</ele>
        <time>2019-11-01T10:53:09Z</time>
      </trkpt>
      <trkpt lat="38.4070860" lon="-2.5004560">
        <ele>1105.1</ele>
        <time>2019-11-01T10:53:12Z</time>
      </trkpt>
      <trkpt lat="38.4070940" lon="-2.5003600">
        <ele>1105.1</ele>
        <time>2019-11-01T10:53:15Z</time>
      </trkpt>
      <trkpt lat="38.4070940" lon="-2.5002960">
        <ele>1105.1</ele>
        <time>2019-11-01T10:53:17Z</time>
      </trkpt>
      <trkpt lat="38.4070890" lon="-2.5001990">
        <ele>1107.2</ele>
        <time>2019-11-01T10:53:20Z</time>
      </trkpt>
      <trkpt lat="38.4070860" lon="-2.5001290">
        <ele>1107.2</ele>
        <time>2019-11-01T10:53:22Z</time>
      </trkpt>
      <trkpt lat="38.4070810" lon="-2.5000540">
        <ele>1107.2</ele>
        <time>2019-11-01T10:53:24Z</time>
      </trkpt>
      <trkpt lat="38.4070810" lon="-2.4999780">
        <ele>1107.2</ele>
        <time>2019-11-01T10:53:26Z</time>
      </trkpt>
      <trkpt lat="38.4070890" lon="-2.4999060">
        <ele>1107.2</ele>
        <time>2019-11-01T10:53:28Z</time>
      </trkpt>
      <trkpt lat="38.4070960" lon="-2.4998320">
        <ele>1107.2</ele>
        <time>2019-11-01T10:53:30Z</time>
      </trkpt>
      <trkpt lat="38.4071040" lon="-2.4997560">
        <ele>1107.2</ele>
        <time>2019-11-01T10:53:32Z</time>
      </trkpt>
      <trkpt lat="38.4071040" lon="-2.4996720">
        <ele>1107.2</ele>
        <time>2019-11-01T10:53:34Z</time>
      </trkpt>
      <trkpt lat="38.4071090" lon="-2.4995810">
        <ele>1109.7</ele>
        <time>2019-11-01T10:53:36Z</time>
      </trkpt>
      <trkpt lat="38.4071090" lon="-2.4994830">
        <ele>1109.7</ele>
        <time>2019-11-01T10:53:38Z</time>
      </trkpt>
      <trkpt lat="38.4071120" lon="-2.4993810">
        <ele>1109.7</ele>
        <time>2019-11-01T10:53:40Z</time>
      </trkpt>
      <trkpt lat="38.4071240" lon="-2.4992810">
        <ele>1109.7</ele>
        <time>2019-11-01T10:53:42Z</time>
      </trkpt>
      <trkpt lat="38.4071400" lon="-2.4991930">
        <ele>1109.7</ele>
        <time>2019-11-01T10:53:44Z</time>
      </trkpt>
      <trkpt lat="38.4071580" lon="-2.4991040">
        <ele>1109.7</ele>
        <time>2019-11-01T10:53:46Z</time>
      </trkpt>
      <trkpt lat="38.4071830" lon="-2.4989870">
        <ele>1109.7</ele>
        <time>2019-11-01T10:53:49Z</time>
      </trkpt>
      <trkpt lat="38.4072060" lon="-2.4989150">
        <ele>1109.7</ele>
        <time>2019-11-01T10:53:51Z</time>
      </trkpt>
      <trkpt lat="38.4072350" lon="-2.4988460">
        <ele>1109.7</ele>
        <time>2019-11-01T10:53:53Z</time>
      </trkpt>
      <trkpt lat="38.4072600" lon="-2.4987730">
        <ele>1111.7</ele>
        <time>2019-11-01T10:53:55Z</time>
      </trkpt>
      <trkpt lat="38.4072880" lon="-2.4987030">
        <ele>1111.7</ele>
        <time>2019-11-01T10:53:57Z</time>
      </trkpt>
      <trkpt lat="38.4073140" lon="-2.4986360">
        <ele>1111.7</ele>
        <time>2019-11-01T10:53:59Z</time>
      </trkpt>
      <trkpt lat="38.4073450" lon="-2.4985620">
        <ele>1111.7</ele>
        <time>2019-11-01T10:54:01Z</time>
      </trkpt>
      <trkpt lat="38.4073780" lon="-2.4984920">
        <ele>1111.7</ele>
        <time>2019-11-01T10:54:03Z</time>
      </trkpt>
      <trkpt lat="38.4074090" lon="-2.4984230">
        <ele>1111.7</ele>
        <time>2019-11-01T10:54:05Z</time>
      </trkpt>
      <trkpt lat="38.4074390" lon="-2.4983480">
        <ele>1111.7</ele>
        <time>2019-11-01T10:54:07Z</time>
      </trkpt>
      <trkpt lat="38.4074600" lon="-2.4982660">
        <ele>1111.7</ele>
        <time>2019-11-01T10:54:09Z</time>
      </trkpt>
      <trkpt lat="38.4074600" lon="-2.4981790">
        <ele>1111.7</ele>
        <time>2019-11-01T10:54:11Z</time>
      </trkpt>
      <trkpt lat="38.4074370" lon="-2.4980920">
        <ele>1113.7</ele>
        <time>2019-11-01T10:54:13Z</time>
      </trkpt>
      <trkpt lat="38.4074060" lon="-2.4979920">
        <ele>1113.7</ele>
        <time>2019-11-01T10:54:15Z</time>
      </trkpt>
      <trkpt lat="38.4073730" lon="-2.4978830">
        <ele>1113.7</ele>
        <time>2019-11-01T10:54:17Z</time>
      </trkpt>
      <trkpt lat="38.4073420" lon="-2.4977540">
        <ele>1113.7</ele>
        <time>2019-11-01T10:54:19Z</time>
      </trkpt>
      <trkpt lat="38.4073270" lon="-2.4976870">
        <ele>1113.7</ele>
        <time>2019-11-01T10:54:20Z</time>
      </trkpt>
      <trkpt lat="38.4073110" lon="-2.4976190">
        <ele>1113.7</ele>
        <time>2019-11-01T10:54:21Z</time>
      </trkpt>
      <trkpt lat="38.4072990" lon="-2.4975490">
        <ele>1113.7</ele>
        <time>2019-11-01T10:54:22Z</time>
      </trkpt>
      <trkpt lat="38.4072880" lon="-2.4974790">
        <ele>1113.7</ele>
        <time>2019-11-01T10:54:23Z</time>
      </trkpt>
      <trkpt lat="38.4072810" lon="-2.4974080">
        <ele>1113.7</ele>
        <time>2019-11-01T10:54:24Z</time>
      </trkpt>
      <trkpt lat="38.4072730" lon="-2.4973420">
        <ele>1113.7</ele>
        <time>2019-11-01T10:54:25Z</time>
      </trkpt>
      <trkpt lat="38.4072650" lon="-2.4972710">
        <ele>1113.7</ele>
        <time>2019-11-01T10:54:26Z</time>
      </trkpt>
      <trkpt lat="38.4072520" lon="-2.4972060">
        <ele>1113.7</ele>
        <time>2019-11-01T10:54:27Z</time>
      </trkpt>
      <trkpt lat="38.4072420" lon="-2.4970730">
        <ele>1113.7</ele>
        <time>2019-11-01T10:54:29Z</time>
      </trkpt>
      <trkpt lat="38.4072350" lon="-2.4970110">
        <ele>1113.7</ele>
        <time>2019-11-01T10:54:30Z</time>
      </trkpt>
      <trkpt lat="38.4072270" lon="-2.4968990">
        <ele>1113.7</ele>
        <time>2019-11-01T10:54:32Z</time>
      </trkpt>
      <trkpt lat="38.4072190" lon="-2.4967870">
        <ele>1113.7</ele>
        <time>2019-11-01T10:54:34Z</time>
      </trkpt>
      <trkpt lat="38.4072060" lon="-2.4966810">
        <ele>1115.8</ele>
        <time>2019-11-01T10:54:36Z</time>
      </trkpt>
      <trkpt lat="38.4071880" lon="-2.4965780">
        <ele>1115.8</ele>
        <time>2019-11-01T10:54:38Z</time>
      </trkpt>
      <trkpt lat="38.4071710" lon="-2.4964720">
        <ele>1115.8</ele>
        <time>2019-11-01T10:54:40Z</time>
      </trkpt>
      <trkpt lat="38.4071550" lon="-2.4963720">
        <ele>1115.8</ele>
        <time>2019-11-01T10:54:42Z</time>
      </trkpt>
      <trkpt lat="38.4071350" lon="-2.4962830">
        <ele>1115.8</ele>
        <time>2019-11-01T10:54:44Z</time>
      </trkpt>
      <trkpt lat="38.4071240" lon="-2.4962050">
        <ele>1115.8</ele>
        <time>2019-11-01T10:54:46Z</time>
      </trkpt>
      <trkpt lat="38.4071120" lon="-2.4961390">
        <ele>1115.8</ele>
        <time>2019-11-01T10:54:48Z</time>
      </trkpt>
      <trkpt lat="38.4070940" lon="-2.4960490">
        <ele>1115.8</ele>
        <time>2019-11-01T10:54:51Z</time>
      </trkpt>
      <trkpt lat="38.4070810" lon="-2.4959630">
        <ele>1115.8</ele>
        <time>2019-11-01T10:54:54Z</time>
      </trkpt>
      <trkpt lat="38.4070780" lon="-2.4959040">
        <ele>1118.5</ele>
        <time>2019-11-01T10:54:56Z</time>
      </trkpt>
      <trkpt lat="38.4070730" lon="-2.4958120">
        <ele>1118.5</ele>
        <time>2019-11-01T10:54:59Z</time>
      </trkpt>
      <trkpt lat="38.4070730" lon="-2.4957200">
        <ele>1118.5</ele>
        <time>2019-11-01T10:55:02Z</time>
      </trkpt>
      <trkpt lat="38.4070730" lon="-2.4956290">
        <ele>1118.5</ele>
        <time>2019-11-01T10:55:05Z</time>
      </trkpt>
      <trkpt lat="38.4070730" lon="-2.4955480">
        <ele>1118.5</ele>
        <time>2019-11-01T10:55:08Z</time>
      </trkpt>
      <trkpt lat="38.4070810" lon="-2.4954770">
        <ele>1118.5</ele>
        <time>2019-11-01T10:55:11Z</time>
      </trkpt>
      <trkpt lat="38.4070960" lon="-2.4954090">
        <ele>1118.5</ele>
        <time>2019-11-01T10:55:14Z</time>
      </trkpt>
      <trkpt lat="38.4071270" lon="-2.4953440">
        <ele>1118.5</ele>
        <time>2019-11-01T10:55:17Z</time>
      </trkpt>
      <trkpt lat="38.4071550" lon="-2.4952770">
        <ele>1118.5</ele>
        <time>2019-11-01T10:55:20Z</time>
      </trkpt>
      <trkpt lat="38.4071730" lon="-2.4952070">
        <ele>1118.5</ele>
        <time>2019-11-01T10:55:23Z</time>
      </trkpt>
      <trkpt lat="38.4071910" lon="-2.4951370">
        <ele>1118.5</ele>
        <time>2019-11-01T10:55:26Z</time>
      </trkpt>
      <trkpt lat="38.4072060" lon="-2.4950600">
        <ele>1121.0</ele>
        <time>2019-11-01T10:55:29Z</time>
      </trkpt>
      <trkpt lat="38.4072190" lon="-2.4949840">
        <ele>1121.0</ele>
        <time>2019-11-01T10:55:32Z</time>
      </trkpt>
      <trkpt lat="38.4072290" lon="-2.4949060">
        <ele>1121.0</ele>
        <time>2019-11-01T10:55:35Z</time>
      </trkpt>
      <trkpt lat="38.4072580" lon="-2.4948310">
        <ele>1121.0</ele>
        <time>2019-11-01T10:55:38Z</time>
      </trkpt>
      <trkpt lat="38.4072990" lon="-2.4947710">
        <ele>1121.0</ele>
        <time>2019-11-01T10:55:41Z</time>
      </trkpt>
      <trkpt lat="38.4073520" lon="-2.4947320">
        <ele>1121.0</ele>
        <time>2019-11-01T10:55:44Z</time>
      </trkpt>
      <trkpt lat="38.4074090" lon="-2.4947030">
        <ele>1121.0</ele>
        <time>2019-11-01T10:55:47Z</time>
      </trkpt>
      <trkpt lat="38.4074680" lon="-2.4946840">
        <ele>1121.0</ele>
        <time>2019-11-01T10:55:50Z</time>
      </trkpt>
      <trkpt lat="38.4075140" lon="-2.4946790">
        <ele>1123.0</ele>
        <time>2019-11-01T10:55:52Z</time>
      </trkpt>
      <trkpt lat="38.4075800" lon="-2.4946760">
        <ele>1123.0</ele>
        <time>2019-11-01T10:55:55Z</time>
      </trkpt>
      <trkpt lat="38.4076310" lon="-2.4946750">
        <ele>1123.0</ele>
        <time>2019-11-01T10:55:57Z</time>
      </trkpt>
      <trkpt lat="38.4076950" lon="-2.4946720">
        <ele>1123.0</ele>
        <time>2019-11-01T10:56:00Z</time>
      </trkpt>
      <trkpt lat="38.4077640" lon="-2.4946620">
        <ele>1123.0</ele>
        <time>2019-11-01T10:56:03Z</time>
      </trkpt>
      <trkpt lat="38.4078260" lon="-2.4946290">
        <ele>1123.0</ele>
        <time>2019-11-01T10:56:06Z</time>
      </trkpt>
      <trkpt lat="38.4078670" lon="-2.4945960">
        <ele>1123.0</ele>
        <time>2019-11-01T10:56:08Z</time>
      </trkpt>
      <trkpt lat="38.4079130" lon="-2.4945340">
        <ele>1123.0</ele>
        <time>2019-11-01T10:56:11Z</time>
      </trkpt>
      <trkpt lat="38.4079440" lon="-2.4944570">
        <ele>1123.0</ele>
        <time>2019-11-01T10:56:14Z</time>
      </trkpt>
      <trkpt lat="38.4079540" lon="-2.4944010">
        <ele>1125.4</ele>
        <time>2019-11-01T10:56:16Z</time>
      </trkpt>
      <trkpt lat="38.4079620" lon="-2.4943150">
        <ele>1125.4</ele>
        <time>2019-11-01T10:56:19Z</time>
      </trkpt>
      <trkpt lat="38.4079740" lon="-2.4942270">
        <ele>1125.4</ele>
        <time>2019-11-01T10:56:22Z</time>
      </trkpt>
      <trkpt lat="38.4079820" lon="-2.4941420">
        <ele>1125.4</ele>
        <time>2019-11-01T10:56:25Z</time>
      </trkpt>
      <trkpt lat="38.4079850" lon="-2.4940570">
        <ele>1125.4</ele>
        <time>2019-11-01T10:56:28Z</time>
      </trkpt>
      <trkpt lat="38.4079920" lon="-2.4939740">
        <ele>1125.4</ele>
        <time>2019-11-01T10:56:31Z</time>
      </trkpt>
      <trkpt lat="38.4080000" lon="-2.4938880">
        <ele>1125.4</ele>
        <time>2019-11-01T10:56:34Z</time>
      </trkpt>
      <trkpt lat="38.4080130" lon="-2.4938140">
        <ele>1125.4</ele>
        <time>2019-11-01T10:56:37Z</time>
      </trkpt>
      <trkpt lat="38.4080310" lon="-2.4937440">
        <ele>1125.4</ele>
        <time>2019-11-01T10:56:40Z</time>
      </trkpt>
      <trkpt lat="38.4080590" lon="-2.4936790">
        <ele>1125.4</ele>
        <time>2019-11-01T10:56:43Z</time>
      </trkpt>
      <trkpt lat="38.4080970" lon="-2.4936210">
        <ele>1125.4</ele>
        <time>2019-11-01T10:56:46Z</time>
      </trkpt>
      <trkpt lat="38.4081230" lon="-2.4935850">
        <ele>1128.0</ele>
        <time>2019-11-01T10:56:48Z</time>
      </trkpt>
      <trkpt lat="38.4081720" lon="-2.4935390">
        <ele>1128.0</ele>
        <time>2019-11-01T10:56:51Z</time>
      </trkpt>
      <trkpt lat="38.4082300" lon="-2.4935030">
        <ele>1128.0</ele>
        <time>2019-11-01T10:56:54Z</time>
      </trkpt>
      <trkpt lat="38.4083000" lon="-2.4934670">
        <ele>1128.0</ele>
        <time>2019-11-01T10:56:57Z</time>
      </trkpt>
      <trkpt lat="38.4083430" lon="-2.4934430">
        <ele>1128.0</ele>
        <time>2019-11-01T10:56:59Z</time>
      </trkpt>
      <trkpt lat="38.4083890" lon="-2.4934200">
        <ele>1128.0</ele>
        <time>2019-11-01T10:57:01Z</time>
      </trkpt>
      <trkpt lat="38.4084580" lon="-2.4933830">
        <ele>1128.0</ele>
        <time>2019-11-01T10:57:04Z</time>
      </trkpt>
      <trkpt lat="38.4085270" lon="-2.4933460">
        <ele>1128.0</ele>
        <time>2019-11-01T10:57:07Z</time>
      </trkpt>
      <trkpt lat="38.4085760" lon="-2.4933200">
        <ele>1128.0</ele>
        <time>2019-11-01T10:57:09Z</time>
      </trkpt>
      <trkpt lat="38.4086220" lon="-2.4932950">
        <ele>1130.0</ele>
        <time>2019-11-01T10:57:11Z</time>
      </trkpt>
      <trkpt lat="38.4086730" lon="-2.4932700">
        <ele>1130.0</ele>
        <time>2019-11-01T10:57:13Z</time>
      </trkpt>
      <trkpt lat="38.4087220" lon="-2.4932440">
        <ele>1130.0</ele>
        <time>2019-11-01T10:57:15Z</time>
      </trkpt>
      <trkpt lat="38.4087680" lon="-2.4932150">
        <ele>1130.0</ele>
        <time>2019-11-01T10:57:17Z</time>
      </trkpt>
      <trkpt lat="38.4088140" lon="-2.4931870">
        <ele>1130.0</ele>
        <time>2019-11-01T10:57:19Z</time>
      </trkpt>
      <trkpt lat="38.4088910" lon="-2.4931420">
        <ele>1130.0</ele>
        <time>2019-11-01T10:57:22Z</time>
      </trkpt>
      <trkpt lat="38.4089420" lon="-2.4931150">
        <ele>1130.0</ele>
        <time>2019-11-01T10:57:24Z</time>
      </trkpt>
      <trkpt lat="38.4089930" lon="-2.4930870">
        <ele>1130.0</ele>
        <time>2019-11-01T10:57:26Z</time>
      </trkpt>
      <trkpt lat="38.4090420" lon="-2.4930610">
        <ele>1130.0</ele>
        <time>2019-11-01T10:57:28Z</time>
      </trkpt>
      <trkpt lat="38.4091140" lon="-2.4930220">
        <ele>1130.0</ele>
        <time>2019-11-01T10:57:31Z</time>
      </trkpt>
      <trkpt lat="38.4091800" lon="-2.4929780">
        <ele>1130.0</ele>
        <time>2019-11-01T10:57:34Z</time>
      </trkpt>
      <trkpt lat="38.4092210" lon="-2.4929430">
        <ele>1132.8</ele>
        <time>2019-11-01T10:57:36Z</time>
      </trkpt>
      <trkpt lat="38.4092720" lon="-2.4928830">
        <ele>1132.8</ele>
        <time>2019-11-01T10:57:39Z</time>
      </trkpt>
      <trkpt lat="38.4093080" lon="-2.4928030">
        <ele>1132.8</ele>
        <time>2019-11-01T10:57:42Z</time>
      </trkpt>
      <trkpt lat="38.4093360" lon="-2.4927120">
        <ele>1132.8</ele>
        <time>2019-11-01T10:57:45Z</time>
      </trkpt>
      <trkpt lat="38.4093520" lon="-2.4926220">
        <ele>1132.8</ele>
        <time>2019-11-01T10:57:48Z</time>
      </trkpt>
      <trkpt lat="38.4093620" lon="-2.4925590">
        <ele>1132.8</ele>
        <time>2019-11-01T10:57:50Z</time>
      </trkpt>
      <trkpt lat="38.4093750" lon="-2.4924620">
        <ele>1132.8</ele>
        <time>2019-11-01T10:57:53Z</time>
      </trkpt>
      <trkpt lat="38.4093820" lon="-2.4924020">
        <ele>1132.8</ele>
        <time>2019-11-01T10:57:55Z</time>
      </trkpt>
      <trkpt lat="38.4093900" lon="-2.4923060">
        <ele>1132.8</ele>
        <time>2019-11-01T10:57:58Z</time>
      </trkpt>
      <trkpt lat="38.4093900" lon="-2.4922400">
        <ele>1132.8</ele>
        <time>2019-11-01T10:58:00Z</time>
      </trkpt>
      <trkpt lat="38.4093900" lon="-2.4921440">
        <ele>1132.8</ele>
        <time>2019-11-01T10:58:03Z</time>
      </trkpt>
      <trkpt lat="38.4093850" lon="-2.4920740">
        <ele>1132.8</ele>
        <time>2019-11-01T10:58:05Z</time>
      </trkpt>
      <trkpt lat="38.4093930" lon="-2.4919990">
        <ele>1132.8</ele>
        <time>2019-11-01T10:58:07Z</time>
      </trkpt>
      <trkpt lat="38.4094130" lon="-2.4919300">
        <ele>1132.8</ele>
        <time>2019-11-01T10:58:09Z</time>
      </trkpt>
      <trkpt lat="38.4094460" lon="-2.4918790">
        <ele>1134.8</ele>
        <time>2019-11-01T10:58:11Z</time>
      </trkpt>
      <trkpt lat="38.4094900" lon="-2.4918450">
        <ele>1134.8</ele>
        <time>2019-11-01T10:58:13Z</time>
      </trkpt>
      <trkpt lat="38.4095460" lon="-2.4918200">
        <ele>1134.8</ele>
        <time>2019-11-01T10:58:15Z</time>
      </trkpt>
      <trkpt lat="38.4096000" lon="-2.4918060">
        <ele>1134.8</ele>
        <time>2019-11-01T10:58:17Z</time>
      </trkpt>
      <trkpt lat="38.4096610" lon="-2.4918010">
        <ele>1134.8</ele>
        <time>2019-11-01T10:58:19Z</time>
      </trkpt>
      <trkpt lat="38.4097200" lon="-2.4918070">
        <ele>1134.8</ele>
        <time>2019-11-01T10:58:21Z</time>
      </trkpt>
      <trkpt lat="38.4097820" lon="-2.4918190">
        <ele>1134.8</ele>
        <time>2019-11-01T10:58:23Z</time>
      </trkpt>
      <trkpt lat="38.4098360" lon="-2.4918350">
        <ele>1134.8</ele>
        <time>2019-11-01T10:58:25Z</time>
      </trkpt>
      <trkpt lat="38.4098920" lon="-2.4918530">
        <ele>1134.8</ele>
        <time>2019-11-01T10:58:27Z</time>
      </trkpt>
      <trkpt lat="38.4099460" lon="-2.4918690">
        <ele>1134.8</ele>
        <time>2019-11-01T10:58:29Z</time>
      </trkpt>
      <trkpt lat="38.4100040" lon="-2.4918820">
        <ele>1134.8</ele>
        <time>2019-11-01T10:58:31Z</time>
      </trkpt>
      <trkpt lat="38.4100660" lon="-2.4918900">
        <ele>1134.8</ele>
        <time>2019-11-01T10:58:33Z</time>
      </trkpt>
      <trkpt lat="38.4101250" lon="-2.4918960">
        <ele>1134.8</ele>
        <time>2019-11-01T10:58:35Z</time>
      </trkpt>
      <trkpt lat="38.4101910" lon="-2.4918940">
        <ele>1134.8</ele>
        <time>2019-11-01T10:58:37Z</time>
      </trkpt>
      <trkpt lat="38.4102600" lon="-2.4918860">
        <ele>1137.2</ele>
        <time>2019-11-01T10:58:39Z</time>
      </trkpt>
      <trkpt lat="38.4103240" lon="-2.4918780">
        <ele>1137.2</ele>
        <time>2019-11-01T10:58:41Z</time>
      </trkpt>
      <trkpt lat="38.4103860" lon="-2.4918700">
        <ele>1137.2</ele>
        <time>2019-11-01T10:58:43Z</time>
      </trkpt>
      <trkpt lat="38.4104420" lon="-2.4918630">
        <ele>1137.2</ele>
        <time>2019-11-01T10:58:45Z</time>
      </trkpt>
      <trkpt lat="38.4105040" lon="-2.4918580">
        <ele>1137.2</ele>
        <time>2019-11-01T10:58:47Z</time>
      </trkpt>
      <trkpt lat="38.4105650" lon="-2.4918570">
        <ele>1137.2</ele>
        <time>2019-11-01T10:58:49Z</time>
      </trkpt>
      <trkpt lat="38.4106270" lon="-2.4918600">
        <ele>1137.2</ele>
        <time>2019-11-01T10:58:51Z</time>
      </trkpt>
      <trkpt lat="38.4106830" lon="-2.4918620">
        <ele>1137.2</ele>
        <time>2019-11-01T10:58:53Z</time>
      </trkpt>
      <trkpt lat="38.4107390" lon="-2.4918640">
        <ele>1137.2</ele>
        <time>2019-11-01T10:58:55Z</time>
      </trkpt>
      <trkpt lat="38.4107930" lon="-2.4918700">
        <ele>1137.2</ele>
        <time>2019-11-01T10:58:57Z</time>
      </trkpt>
      <trkpt lat="38.4108440" lon="-2.4918830">
        <ele>1137.2</ele>
        <time>2019-11-01T10:58:59Z</time>
      </trkpt>
      <trkpt lat="38.4109000" lon="-2.4919020">
        <ele>1137.2</ele>
        <time>2019-11-01T10:59:01Z</time>
      </trkpt>
      <trkpt lat="38.4109540" lon="-2.4919240">
        <ele>1137.2</ele>
        <time>2019-11-01T10:59:03Z</time>
      </trkpt>
      <trkpt lat="38.4110110" lon="-2.4919490">
        <ele>1137.2</ele>
        <time>2019-11-01T10:59:05Z</time>
      </trkpt>
      <trkpt lat="38.4110640" lon="-2.4919730">
        <ele>1137.2</ele>
        <time>2019-11-01T10:59:07Z</time>
      </trkpt>
      <trkpt lat="38.4111280" lon="-2.4920020">
        <ele>1137.2</ele>
        <time>2019-11-01T10:59:09Z</time>
      </trkpt>
      <trkpt lat="38.4111900" lon="-2.4920260">
        <ele>1139.6</ele>
        <time>2019-11-01T10:59:11Z</time>
      </trkpt>
      <trkpt lat="38.4112540" lon="-2.4920430">
        <ele>1139.6</ele>
        <time>2019-11-01T10:59:13Z</time>
      </trkpt>
      <trkpt lat="38.4113230" lon="-2.4920560">
        <ele>1139.6</ele>
        <time>2019-11-01T10:59:15Z</time>
      </trkpt>
      <trkpt lat="38.4113920" lon="-2.4920650">
        <ele>1139.6</ele>
        <time>2019-11-01T10:59:17Z</time>
      </trkpt>
      <trkpt lat="38.4114640" lon="-2.4920730">
        <ele>1139.6</ele>
        <time>2019-11-01T10:59:19Z</time>
      </trkpt>
      <trkpt lat="38.4115300" lon="-2.4920810">
        <ele>1139.6</ele>
        <time>2019-11-01T10:59:21Z</time>
      </trkpt>
      <trkpt lat="38.4115990" lon="-2.4920920">
        <ele>1139.6</ele>
        <time>2019-11-01T10:59:23Z</time>
      </trkpt>
      <trkpt lat="38.4116630" lon="-2.4921110">
        <ele>1139.6</ele>
        <time>2019-11-01T10:59:25Z</time>
      </trkpt>
      <trkpt lat="38.4117250" lon="-2.4921310">
        <ele>1139.6</ele>
        <time>2019-11-01T10:59:27Z</time>
      </trkpt>
      <trkpt lat="38.4117810" lon="-2.4921520">
        <ele>1139.6</ele>
        <time>2019-11-01T10:59:29Z</time>
      </trkpt>
      <trkpt lat="38.4118350" lon="-2.4921810">
        <ele>1139.6</ele>
        <time>2019-11-01T10:59:31Z</time>
      </trkpt>
      <trkpt lat="38.4118840" lon="-2.4922120">
        <ele>1139.6</ele>
        <time>2019-11-01T10:59:33Z</time>
      </trkpt>
      <trkpt lat="38.4119580" lon="-2.4922490">
        <ele>1141.6</ele>
        <time>2019-11-01T10:59:36Z</time>
      </trkpt>
      <trkpt lat="38.4120140" lon="-2.4922670">
        <ele>1141.6</ele>
        <time>2019-11-01T10:59:38Z</time>
      </trkpt>
      <trkpt lat="38.4120700" lon="-2.4922710">
        <ele>1141.6</ele>
        <time>2019-11-01T10:59:40Z</time>
      </trkpt>
      <trkpt lat="38.4121290" lon="-2.4922610">
        <ele>1141.6</ele>
        <time>2019-11-01T10:59:42Z</time>
      </trkpt>
      <trkpt lat="38.4121780" lon="-2.4922400">
        <ele>1141.6</ele>
        <time>2019-11-01T10:59:44Z</time>
      </trkpt>
      <trkpt lat="38.4122270" lon="-2.4922190">
        <ele>1141.6</ele>
        <time>2019-11-01T10:59:46Z</time>
      </trkpt>
      <trkpt lat="38.4122780" lon="-2.4922020">
        <ele>1141.6</ele>
        <time>2019-11-01T10:59:48Z</time>
      </trkpt>
      <trkpt lat="38.4123320" lon="-2.4921960">
        <ele>1141.6</ele>
        <time>2019-11-01T10:59:50Z</time>
      </trkpt>
      <trkpt lat="38.4123980" lon="-2.4922130">
        <ele>1141.6</ele>
        <time>2019-11-01T10:59:53Z</time>
      </trkpt>
      <trkpt lat="38.4124340" lon="-2.4922370">
        <ele>1143.6</ele>
        <time>2019-11-01T10:59:55Z</time>
      </trkpt>
      <trkpt lat="38.4124900" lon="-2.4922960">
        <ele>1143.6</ele>
        <time>2019-11-01T10:59:58Z</time>
      </trkpt>
      <trkpt lat="38.4125340" lon="-2.4923380">
        <ele>1143.6</ele>
        <time>2019-11-01T11:00:00Z</time>
      </trkpt>
      <trkpt lat="38.4125800" lon="-2.4923770">
        <ele>1143.6</ele>
        <time>2019-11-01T11:00:02Z</time>
      </trkpt>
      <trkpt lat="38.4126280" lon="-2.4924090">
        <ele>1143.6</ele>
        <time>2019-11-01T11:00:04Z</time>
      </trkpt>
      <trkpt lat="38.4126820" lon="-2.4924330">
        <ele>1143.6</ele>
        <time>2019-11-01T11:00:06Z</time>
      </trkpt>
      <trkpt lat="38.4127310" lon="-2.4924500">
        <ele>1143.6</ele>
        <time>2019-11-01T11:00:08Z</time>
      </trkpt>
      <trkpt lat="38.4127850" lon="-2.4924610">
        <ele>1143.6</ele>
        <time>2019-11-01T11:00:10Z</time>
      </trkpt>
      <trkpt lat="38.4128330" lon="-2.4924720">
        <ele>1143.6</ele>
        <time>2019-11-01T11:00:12Z</time>
      </trkpt>
      <trkpt lat="38.4129000" lon="-2.4924930">
        <ele>1145.7</ele>
        <time>2019-11-01T11:00:15Z</time>
      </trkpt>
      <trkpt lat="38.4129640" lon="-2.4925230">
        <ele>1145.7</ele>
        <time>2019-11-01T11:00:18Z</time>
      </trkpt>
      <trkpt lat="38.4130250" lon="-2.4925610">
        <ele>1145.7</ele>
        <time>2019-11-01T11:00:21Z</time>
      </trkpt>
      <trkpt lat="38.4130940" lon="-2.4926080">
        <ele>1145.7</ele>
        <time>2019-11-01T11:00:24Z</time>
      </trkpt>
      <trkpt lat="38.4131580" lon="-2.4926540">
        <ele>1145.7</ele>
        <time>2019-11-01T11:00:27Z</time>
      </trkpt>
      <trkpt lat="38.4131990" lon="-2.4926830">
        <ele>1147.8</ele>
        <time>2019-11-01T11:00:29Z</time>
      </trkpt>
      <trkpt lat="38.4132450" lon="-2.4927140">
        <ele>1147.8</ele>
        <time>2019-11-01T11:00:31Z</time>
      </trkpt>
      <trkpt lat="38.4132920" lon="-2.4927430">
        <ele>1147.8</ele>
        <time>2019-11-01T11:00:33Z</time>
      </trkpt>
      <trkpt lat="38.4133380" lon="-2.4927710">
        <ele>1147.8</ele>
        <time>2019-11-01T11:00:35Z</time>
      </trkpt>
      <trkpt lat="38.4134070" lon="-2.4928170">
        <ele>1147.8</ele>
        <time>2019-11-01T11:00:38Z</time>
      </trkpt>
      <trkpt lat="38.4134480" lon="-2.4928450">
        <ele>1147.8</ele>
        <time>2019-11-01T11:00:40Z</time>
      </trkpt>
      <trkpt lat="38.4135140" lon="-2.4928850">
        <ele>1149.8</ele>
        <time>2019-11-01T11:00:43Z</time>
      </trkpt>
      <trkpt lat="38.4135580" lon="-2.4929070">
        <ele>1149.8</ele>
        <time>2019-11-01T11:00:45Z</time>
      </trkpt>
      <trkpt lat="38.4136270" lon="-2.4929350">
        <ele>1149.8</ele>
        <time>2019-11-01T11:00:48Z</time>
      </trkpt>
      <trkpt lat="38.4137040" lon="-2.4929510">
        <ele>1149.8</ele>
        <time>2019-11-01T11:00:51Z</time>
      </trkpt>
      <trkpt lat="38.4137600" lon="-2.4929470">
        <ele>1149.8</ele>
        <time>2019-11-01T11:00:53Z</time>
      </trkpt>
      <trkpt lat="38.4138140" lon="-2.4929380">
        <ele>1149.8</ele>
        <time>2019-11-01T11:00:55Z</time>
      </trkpt>
      <trkpt lat="38.4138680" lon="-2.4929200">
        <ele>1149.8</ele>
        <time>2019-11-01T11:00:57Z</time>
      </trkpt>
      <trkpt lat="38.4139210" lon="-2.4928950">
        <ele>1151.8</ele>
        <time>2019-11-01T11:00:59Z</time>
      </trkpt>
      <trkpt lat="38.4139780" lon="-2.4928720">
        <ele>1151.8</ele>
        <time>2019-11-01T11:01:01Z</time>
      </trkpt>
      <trkpt lat="38.4140310" lon="-2.4928590">
        <ele>1151.8</ele>
        <time>2019-11-01T11:01:03Z</time>
      </trkpt>
      <trkpt lat="38.4140830" lon="-2.4928590">
        <ele>1151.8</ele>
        <time>2019-11-01T11:01:05Z</time>
      </trkpt>
      <trkpt lat="38.4141490" lon="-2.4928780">
        <ele>1151.8</ele>
        <time>2019-11-01T11:01:08Z</time>
      </trkpt>
      <trkpt lat="38.4142110" lon="-2.4929130">
        <ele>1151.8</ele>
        <time>2019-11-01T11:01:11Z</time>
      </trkpt>
      <trkpt lat="38.4142690" lon="-2.4929610">
        <ele>1151.8</ele>
        <time>2019-11-01T11:01:14Z</time>
      </trkpt>
      <trkpt lat="38.4143280" lon="-2.4930180">
        <ele>1153.8</ele>
        <time>2019-11-01T11:01:17Z</time>
      </trkpt>
      <trkpt lat="38.4143800" lon="-2.4930790">
        <ele>1153.8</ele>
        <time>2019-11-01T11:01:20Z</time>
      </trkpt>
      <trkpt lat="38.4144280" lon="-2.4931480">
        <ele>1153.8</ele>
        <time>2019-11-01T11:01:23Z</time>
      </trkpt>
      <trkpt lat="38.4144740" lon="-2.4932190">
        <ele>1153.8</ele>
        <time>2019-11-01T11:01:26Z</time>
      </trkpt>
      <trkpt lat="38.4145200" lon="-2.4932860">
        <ele>1153.8</ele>
        <time>2019-11-01T11:01:29Z</time>
      </trkpt>
      <trkpt lat="38.4145690" lon="-2.4933430">
        <ele>1153.8</ele>
        <time>2019-11-01T11:01:32Z</time>
      </trkpt>
      <trkpt lat="38.4146230" lon="-2.4933970">
        <ele>1156.7</ele>
        <time>2019-11-01T11:01:35Z</time>
      </trkpt>
      <trkpt lat="38.4146610" lon="-2.4934340">
        <ele>1156.7</ele>
        <time>2019-11-01T11:01:37Z</time>
      </trkpt>
      <trkpt lat="38.4147000" lon="-2.4934660">
        <ele>1156.7</ele>
        <time>2019-11-01T11:01:39Z</time>
      </trkpt>
      <trkpt lat="38.4147560" lon="-2.4935120">
        <ele>1156.7</ele>
        <time>2019-11-01T11:01:42Z</time>
      </trkpt>
      <trkpt lat="38.4148100" lon="-2.4935720">
        <ele>1156.7</ele>
        <time>2019-11-01T11:01:45Z</time>
      </trkpt>
      <trkpt lat="38.4148380" lon="-2.4936270">
        <ele>1156.7</ele>
        <time>2019-11-01T11:01:47Z</time>
      </trkpt>
      <trkpt lat="38.4148480" lon="-2.4937200">
        <ele>1156.7</ele>
        <time>2019-11-01T11:01:50Z</time>
      </trkpt>
      <trkpt lat="38.4148530" lon="-2.4937860">
        <ele>1156.7</ele>
        <time>2019-11-01T11:01:52Z</time>
      </trkpt>
      <trkpt lat="38.4148450" lon="-2.4938920">
        <ele>1158.8</ele>
        <time>2019-11-01T11:01:55Z</time>
      </trkpt>
      <trkpt lat="38.4148400" lon="-2.4939600">
        <ele>1158.8</ele>
        <time>2019-11-01T11:01:57Z</time>
      </trkpt>
      <trkpt lat="38.4148380" lon="-2.4940320">
        <ele>1158.8</ele>
        <time>2019-11-01T11:01:59Z</time>
      </trkpt>
      <trkpt lat="38.4148380" lon="-2.4941040">
        <ele>1158.8</ele>
        <time>2019-11-01T11:02:01Z</time>
      </trkpt>
      <trkpt lat="38.4148380" lon="-2.4941700">
        <ele>1158.8</ele>
        <time>2019-11-01T11:02:03Z</time>
      </trkpt>
      <trkpt lat="38.4148330" lon="-2.4942570">
        <ele>1158.8</ele>
        <time>2019-11-01T11:02:06Z</time>
      </trkpt>
      <trkpt lat="38.4148330" lon="-2.4943210">
        <ele>1158.8</ele>
        <time>2019-11-01T11:02:09Z</time>
      </trkpt>
      <trkpt lat="38.4148940" lon="-2.4944930">
        <ele>1163.4</ele>
        <time>2019-11-01T11:05:32Z</time>
      </trkpt>
      <trkpt lat="38.4149270" lon="-2.4945480">
        <ele>1163.4</ele>
        <time>2019-11-01T11:05:35Z</time>
      </trkpt>
      <trkpt lat="38.4149730" lon="-2.4946050">
        <ele>1163.4</ele>
        <time>2019-11-01T11:05:38Z</time>
      </trkpt>
      <trkpt lat="38.4150200" lon="-2.4946440">
        <ele>1163.4</ele>
        <time>2019-11-01T11:05:40Z</time>
      </trkpt>
      <trkpt lat="38.4150780" lon="-2.4946800">
        <ele>1163.4</ele>
        <time>2019-11-01T11:05:42Z</time>
      </trkpt>
      <trkpt lat="38.4151500" lon="-2.4947040">
        <ele>1163.4</ele>
        <time>2019-11-01T11:05:44Z</time>
      </trkpt>
      <trkpt lat="38.4152290" lon="-2.4947080">
        <ele>1163.4</ele>
        <time>2019-11-01T11:05:46Z</time>
      </trkpt>
      <trkpt lat="38.4152930" lon="-2.4947000">
        <ele>1163.4</ele>
        <time>2019-11-01T11:05:48Z</time>
      </trkpt>
      <trkpt lat="38.4153450" lon="-2.4946830">
        <ele>1163.4</ele>
        <time>2019-11-01T11:05:50Z</time>
      </trkpt>
      <trkpt lat="38.4153980" lon="-2.4946350">
        <ele>1163.4</ele>
        <time>2019-11-01T11:05:53Z</time>
      </trkpt>
      <trkpt lat="38.4154390" lon="-2.4945780">
        <ele>1165.4</ele>
        <time>2019-11-01T11:05:55Z</time>
      </trkpt>
      <trkpt lat="38.4154930" lon="-2.4945270">
        <ele>1165.4</ele>
        <time>2019-11-01T11:05:57Z</time>
      </trkpt>
      <trkpt lat="38.4155620" lon="-2.4944940">
        <ele>1165.4</ele>
        <time>2019-11-01T11:05:59Z</time>
      </trkpt>
      <trkpt lat="38.4156470" lon="-2.4944840">
        <ele>1165.4</ele>
        <time>2019-11-01T11:06:01Z</time>
      </trkpt>
      <trkpt lat="38.4157290" lon="-2.4944950">
        <ele>1165.4</ele>
        <time>2019-11-01T11:06:03Z</time>
      </trkpt>
      <trkpt lat="38.4158280" lon="-2.4945220">
        <ele>1165.4</ele>
        <time>2019-11-01T11:06:05Z</time>
      </trkpt>
      <trkpt lat="38.4159280" lon="-2.4945550">
        <ele>1165.4</ele>
        <time>2019-11-01T11:06:07Z</time>
      </trkpt>
      <trkpt lat="38.4159820" lon="-2.4945740">
        <ele>1165.4</ele>
        <time>2019-11-01T11:06:08Z</time>
      </trkpt>
      <trkpt lat="38.4160360" lon="-2.4945930">
        <ele>1165.4</ele>
        <time>2019-11-01T11:06:09Z</time>
      </trkpt>
      <trkpt lat="38.4160870" lon="-2.4946090">
        <ele>1165.4</ele>
        <time>2019-11-01T11:06:10Z</time>
      </trkpt>
      <trkpt lat="38.4161460" lon="-2.4946180">
        <ele>1165.4</ele>
        <time>2019-11-01T11:06:11Z</time>
      </trkpt>
      <trkpt lat="38.4161950" lon="-2.4946200">
        <ele>1165.4</ele>
        <time>2019-11-01T11:06:12Z</time>
      </trkpt>
      <trkpt lat="38.4163020" lon="-2.4945900">
        <ele>1165.4</ele>
        <time>2019-11-01T11:06:14Z</time>
      </trkpt>
      <trkpt lat="38.4163970" lon="-2.4945250">
        <ele>1165.4</ele>
        <time>2019-11-01T11:06:16Z</time>
      </trkpt>
      <trkpt lat="38.4164430" lon="-2.4944860">
        <ele>1165.4</ele>
        <time>2019-11-01T11:06:17Z</time>
      </trkpt>
      <trkpt lat="38.4164890" lon="-2.4944480">
        <ele>1167.7</ele>
        <time>2019-11-01T11:06:18Z</time>
      </trkpt>
      <trkpt lat="38.4165350" lon="-2.4944140">
        <ele>1167.7</ele>
        <time>2019-11-01T11:06:19Z</time>
      </trkpt>
      <trkpt lat="38.4165840" lon="-2.4943860">
        <ele>1167.7</ele>
        <time>2019-11-01T11:06:20Z</time>
      </trkpt>
      <trkpt lat="38.4166370" lon="-2.4943630">
        <ele>1167.7</ele>
        <time>2019-11-01T11:06:21Z</time>
      </trkpt>
      <trkpt lat="38.4166910" lon="-2.4943430">
        <ele>1167.7</ele>
        <time>2019-11-01T11:06:22Z</time>
      </trkpt>
      <trkpt lat="38.4167400" lon="-2.4943250">
        <ele>1167.7</ele>
        <time>2019-11-01T11:06:23Z</time>
      </trkpt>
      <trkpt lat="38.4167990" lon="-2.4943020">
        <ele>1167.7</ele>
        <time>2019-11-01T11:06:24Z</time>
      </trkpt>
      <trkpt lat="38.4168550" lon="-2.4942790">
        <ele>1167.7</ele>
        <time>2019-11-01T11:06:25Z</time>
      </trkpt>
      <trkpt lat="38.4169110" lon="-2.4942570">
        <ele>1167.7</ele>
        <time>2019-11-01T11:06:26Z</time>
      </trkpt>
      <trkpt lat="38.4169700" lon="-2.4942380">
        <ele>1167.7</ele>
        <time>2019-11-01T11:06:27Z</time>
      </trkpt>
      <trkpt lat="38.4170290" lon="-2.4942220">
        <ele>1167.7</ele>
        <time>2019-11-01T11:06:28Z</time>
      </trkpt>
      <trkpt lat="38.4170960" lon="-2.4942120">
        <ele>1167.7</ele>
        <time>2019-11-01T11:06:29Z</time>
      </trkpt>
      <trkpt lat="38.4171520" lon="-2.4942060">
        <ele>1167.7</ele>
        <time>2019-11-01T11:06:30Z</time>
      </trkpt>
      <trkpt lat="38.4172130" lon="-2.4942040">
        <ele>1167.7</ele>
        <time>2019-11-01T11:06:31Z</time>
      </trkpt>
      <trkpt lat="38.4172750" lon="-2.4942000">
        <ele>1167.7</ele>
        <time>2019-11-01T11:06:32Z</time>
      </trkpt>
      <trkpt lat="38.4173360" lon="-2.4941890">
        <ele>1167.7</ele>
        <time>2019-11-01T11:06:33Z</time>
      </trkpt>
      <trkpt lat="38.4173850" lon="-2.4941690">
        <ele>1167.7</ele>
        <time>2019-11-01T11:06:34Z</time>
      </trkpt>
      <trkpt lat="38.4174260" lon="-2.4941380">
        <ele>1167.7</ele>
        <time>2019-11-01T11:06:35Z</time>
      </trkpt>
      <trkpt lat="38.4174640" lon="-2.4940970">
        <ele>1167.7</ele>
        <time>2019-11-01T11:06:36Z</time>
      </trkpt>
      <trkpt lat="38.4175230" lon="-2.4939930">
        <ele>1167.7</ele>
        <time>2019-11-01T11:06:38Z</time>
      </trkpt>
      <trkpt lat="38.4175720" lon="-2.4938640">
        <ele>1167.7</ele>
        <time>2019-11-01T11:06:40Z</time>
      </trkpt>
      <trkpt lat="38.4175950" lon="-2.4937920">
        <ele>1167.7</ele>
        <time>2019-11-01T11:06:41Z</time>
      </trkpt>
      <trkpt lat="38.4176200" lon="-2.4937190">
        <ele>1167.7</ele>
        <time>2019-11-01T11:06:42Z</time>
      </trkpt>
      <trkpt lat="38.4176510" lon="-2.4936440">
        <ele>1167.7</ele>
        <time>2019-11-01T11:06:43Z</time>
      </trkpt>
      <trkpt lat="38.4176820" lon="-2.4935670">
        <ele>1167.7</ele>
        <time>2019-11-01T11:06:44Z</time>
      </trkpt>
      <trkpt lat="38.4177180" lon="-2.4934880">
        <ele>1167.7</ele>
        <time>2019-11-01T11:06:45Z</time>
      </trkpt>
      <trkpt lat="38.4177510" lon="-2.4933970">
        <ele>1167.7</ele>
        <time>2019-11-01T11:06:46Z</time>
      </trkpt>
      <trkpt lat="38.4177890" lon="-2.4933060">
        <ele>1167.7</ele>
        <time>2019-11-01T11:06:47Z</time>
      </trkpt>
      <trkpt lat="38.4178360" lon="-2.4932160">
        <ele>1167.7</ele>
        <time>2019-11-01T11:06:48Z</time>
      </trkpt>
      <trkpt lat="38.4178820" lon="-2.4931270">
        <ele>1167.7</ele>
        <time>2019-11-01T11:06:49Z</time>
      </trkpt>
      <trkpt lat="38.4179200" lon="-2.4930470">
        <ele>1167.7</ele>
        <time>2019-11-01T11:06:50Z</time>
      </trkpt>
      <trkpt lat="38.4179580" lon="-2.4929640">
        <ele>1167.7</ele>
        <time>2019-11-01T11:06:51Z</time>
      </trkpt>
      <trkpt lat="38.4179940" lon="-2.4928860">
        <ele>1167.7</ele>
        <time>2019-11-01T11:06:52Z</time>
      </trkpt>
      <trkpt lat="38.4180330" lon="-2.4928150">
        <ele>1167.7</ele>
        <time>2019-11-01T11:06:53Z</time>
      </trkpt>
      <trkpt lat="38.4180680" lon="-2.4927540">
        <ele>1167.7</ele>
        <time>2019-11-01T11:06:54Z</time>
      </trkpt>
      <trkpt lat="38.4181090" lon="-2.4926910">
        <ele>1167.7</ele>
        <time>2019-11-01T11:06:55Z</time>
      </trkpt>
      <trkpt lat="38.4181610" lon="-2.4926380">
        <ele>1167.7</ele>
        <time>2019-11-01T11:06:56Z</time>
      </trkpt>
      <trkpt lat="38.4182120" lon="-2.4925990">
        <ele>1167.7</ele>
        <time>2019-11-01T11:06:57Z</time>
      </trkpt>
      <trkpt lat="38.4182730" lon="-2.4925730">
        <ele>1167.7</ele>
        <time>2019-11-01T11:06:58Z</time>
      </trkpt>
      <trkpt lat="38.4183400" lon="-2.4925560">
        <ele>1167.7</ele>
        <time>2019-11-01T11:06:59Z</time>
      </trkpt>
      <trkpt lat="38.4184040" lon="-2.4925470">
        <ele>1167.7</ele>
        <time>2019-11-01T11:07:00Z</time>
      </trkpt>
      <trkpt lat="38.4184650" lon="-2.4925680">
        <ele>1167.7</ele>
        <time>2019-11-01T11:07:01Z</time>
      </trkpt>
      <trkpt lat="38.4185340" lon="-2.4925850">
        <ele>1167.7</ele>
        <time>2019-11-01T11:07:02Z</time>
      </trkpt>
      <trkpt lat="38.4186010" lon="-2.4926070">
        <ele>1167.7</ele>
        <time>2019-11-01T11:07:03Z</time>
      </trkpt>
      <trkpt lat="38.4186680" lon="-2.4926380">
        <ele>1167.7</ele>
        <time>2019-11-01T11:07:04Z</time>
      </trkpt>
      <trkpt lat="38.4187370" lon="-2.4926810">
        <ele>1167.7</ele>
        <time>2019-11-01T11:07:05Z</time>
      </trkpt>
      <trkpt lat="38.4188010" lon="-2.4927340">
        <ele>1167.7</ele>
        <time>2019-11-01T11:07:06Z</time>
      </trkpt>
      <trkpt lat="38.4188620" lon="-2.4927930">
        <ele>1167.7</ele>
        <time>2019-11-01T11:07:07Z</time>
      </trkpt>
      <trkpt lat="38.4189240" lon="-2.4928590">
        <ele>1167.7</ele>
        <time>2019-11-01T11:07:08Z</time>
      </trkpt>
      <trkpt lat="38.4189800" lon="-2.4929280">
        <ele>1167.7</ele>
        <time>2019-11-01T11:07:09Z</time>
      </trkpt>
      <trkpt lat="38.4190360" lon="-2.4929940">
        <ele>1167.7</ele>
        <time>2019-11-01T11:07:10Z</time>
      </trkpt>
      <trkpt lat="38.4190950" lon="-2.4930560">
        <ele>1167.7</ele>
        <time>2019-11-01T11:07:11Z</time>
      </trkpt>
      <trkpt lat="38.4191540" lon="-2.4931080">
        <ele>1167.7</ele>
        <time>2019-11-01T11:07:12Z</time>
      </trkpt>
      <trkpt lat="38.4192200" lon="-2.4931510">
        <ele>1167.7</ele>
        <time>2019-11-01T11:07:13Z</time>
      </trkpt>
      <trkpt lat="38.4192820" lon="-2.4931900">
        <ele>1167.7</ele>
        <time>2019-11-01T11:07:14Z</time>
      </trkpt>
      <trkpt lat="38.4193460" lon="-2.4932320">
        <ele>1167.7</ele>
        <time>2019-11-01T11:07:15Z</time>
      </trkpt>
      <trkpt lat="38.4194070" lon="-2.4932740">
        <ele>1167.7</ele>
        <time>2019-11-01T11:07:16Z</time>
      </trkpt>
      <trkpt lat="38.4194710" lon="-2.4933130">
        <ele>1167.7</ele>
        <time>2019-11-01T11:07:17Z</time>
      </trkpt>
      <trkpt lat="38.4195430" lon="-2.4933510">
        <ele>1167.7</ele>
        <time>2019-11-01T11:07:18Z</time>
      </trkpt>
      <trkpt lat="38.4196170" lon="-2.4933810">
        <ele>1167.7</ele>
        <time>2019-11-01T11:07:19Z</time>
      </trkpt>
      <trkpt lat="38.4196890" lon="-2.4934060">
        <ele>1167.7</ele>
        <time>2019-11-01T11:07:20Z</time>
      </trkpt>
      <trkpt lat="38.4197580" lon="-2.4934250">
        <ele>1165.6</ele>
        <time>2019-11-01T11:07:21Z</time>
      </trkpt>
      <trkpt lat="38.4198300" lon="-2.4934410">
        <ele>1165.6</ele>
        <time>2019-11-01T11:07:22Z</time>
      </trkpt>
      <trkpt lat="38.4199040" lon="-2.4934550">
        <ele>1165.6</ele>
        <time>2019-11-01T11:07:23Z</time>
      </trkpt>
      <trkpt lat="38.4199830" lon="-2.4934710">
        <ele>1165.6</ele>
        <time>2019-11-01T11:07:24Z</time>
      </trkpt>
      <trkpt lat="38.4200470" lon="-2.4934950">
        <ele>1165.6</ele>
        <time>2019-11-01T11:07:25Z</time>
      </trkpt>
      <trkpt lat="38.4201010" lon="-2.4935340">
        <ele>1165.6</ele>
        <time>2019-11-01T11:07:26Z</time>
      </trkpt>
      <trkpt lat="38.4201420" lon="-2.4935840">
        <ele>1165.6</ele>
        <time>2019-11-01T11:07:27Z</time>
      </trkpt>
      <trkpt lat="38.4201730" lon="-2.4936430">
        <ele>1165.6</ele>
        <time>2019-11-01T11:07:28Z</time>
      </trkpt>
      <trkpt lat="38.4201960" lon="-2.4937020">
        <ele>1165.6</ele>
        <time>2019-11-01T11:07:29Z</time>
      </trkpt>
      <trkpt lat="38.4202240" lon="-2.4937750">
        <ele>1165.6</ele>
        <time>2019-11-01T11:07:30Z</time>
      </trkpt>
      <trkpt lat="38.4202470" lon="-2.4938480">
        <ele>1165.6</ele>
        <time>2019-11-01T11:07:31Z</time>
      </trkpt>
      <trkpt lat="38.4202780" lon="-2.4939220">
        <ele>1165.6</ele>
        <time>2019-11-01T11:07:32Z</time>
      </trkpt>
      <trkpt lat="38.4203110" lon="-2.4939920">
        <ele>1165.6</ele>
        <time>2019-11-01T11:07:33Z</time>
      </trkpt>
      <trkpt lat="38.4203490" lon="-2.4940540">
        <ele>1165.6</ele>
        <time>2019-11-01T11:07:34Z</time>
      </trkpt>
      <trkpt lat="38.4203900" lon="-2.4941020">
        <ele>1165.6</ele>
        <time>2019-11-01T11:07:35Z</time>
      </trkpt>
      <trkpt lat="38.4204340" lon="-2.4941350">
        <ele>1165.6</ele>
        <time>2019-11-01T11:07:36Z</time>
      </trkpt>
      <trkpt lat="38.4204750" lon="-2.4941530">
        <ele>1165.6</ele>
        <time>2019-11-01T11:07:37Z</time>
      </trkpt>
      <trkpt lat="38.4205470" lon="-2.4941390">
        <ele>1165.6</ele>
        <time>2019-11-01T11:07:39Z</time>
      </trkpt>
      <trkpt lat="38.4206230" lon="-2.4940740">
        <ele>1165.6</ele>
        <time>2019-11-01T11:07:41Z</time>
      </trkpt>
      <trkpt lat="38.4206620" lon="-2.4940270">
        <ele>1165.6</ele>
        <time>2019-11-01T11:07:42Z</time>
      </trkpt>
      <trkpt lat="38.4207390" lon="-2.4939450">
        <ele>1165.6</ele>
        <time>2019-11-01T11:07:43Z</time>
      </trkpt>
      <trkpt lat="38.4207850" lon="-2.4938640">
        <ele>1163.6</ele>
        <time>2019-11-01T11:07:44Z</time>
      </trkpt>
      <trkpt lat="38.4208310" lon="-2.4937820">
        <ele>1163.6</ele>
        <time>2019-11-01T11:07:45Z</time>
      </trkpt>
      <trkpt lat="38.4208790" lon="-2.4937090">
        <ele>1163.6</ele>
        <time>2019-11-01T11:07:46Z</time>
      </trkpt>
      <trkpt lat="38.4209410" lon="-2.4936460">
        <ele>1163.6</ele>
        <time>2019-11-01T11:07:47Z</time>
      </trkpt>
      <trkpt lat="38.4210100" lon="-2.4935990">
        <ele>1163.6</ele>
        <time>2019-11-01T11:07:48Z</time>
      </trkpt>
      <trkpt lat="38.4210760" lon="-2.4935630">
        <ele>1163.6</ele>
        <time>2019-11-01T11:07:49Z</time>
      </trkpt>
      <trkpt lat="38.4211580" lon="-2.4935230">
        <ele>1163.6</ele>
        <time>2019-11-01T11:07:50Z</time>
      </trkpt>
      <trkpt lat="38.4212350" lon="-2.4934780">
        <ele>1163.6</ele>
        <time>2019-11-01T11:07:51Z</time>
      </trkpt>
      <trkpt lat="38.4213070" lon="-2.4934200">
        <ele>1163.6</ele>
        <time>2019-11-01T11:07:52Z</time>
      </trkpt>
      <trkpt lat="38.4213760" lon="-2.4933500">
        <ele>1163.6</ele>
        <time>2019-11-01T11:07:53Z</time>
      </trkpt>
      <trkpt lat="38.4214400" lon="-2.4932710">
        <ele>1163.6</ele>
        <time>2019-11-01T11:07:54Z</time>
      </trkpt>
      <trkpt lat="38.4214940" lon="-2.4931860">
        <ele>1163.6</ele>
        <time>2019-11-01T11:07:55Z</time>
      </trkpt>
      <trkpt lat="38.4215480" lon="-2.4930950">
        <ele>1163.6</ele>
        <time>2019-11-01T11:07:56Z</time>
      </trkpt>
      <trkpt lat="38.4215960" lon="-2.4930010">
        <ele>1163.6</ele>
        <time>2019-11-01T11:07:57Z</time>
      </trkpt>
      <trkpt lat="38.4216500" lon="-2.4929080">
        <ele>1163.6</ele>
        <time>2019-11-01T11:07:58Z</time>
      </trkpt>
      <trkpt lat="38.4216990" lon="-2.4928200">
        <ele>1161.4</ele>
        <time>2019-11-01T11:07:59Z</time>
      </trkpt>
      <trkpt lat="38.4217520" lon="-2.4927450">
        <ele>1161.4</ele>
        <time>2019-11-01T11:08:00Z</time>
      </trkpt>
      <trkpt lat="38.4218060" lon="-2.4926720">
        <ele>1161.4</ele>
        <time>2019-11-01T11:08:01Z</time>
      </trkpt>
      <trkpt lat="38.4218620" lon="-2.4926070">
        <ele>1161.4</ele>
        <time>2019-11-01T11:08:02Z</time>
      </trkpt>
      <trkpt lat="38.4219210" lon="-2.4925480">
        <ele>1161.4</ele>
        <time>2019-11-01T11:08:03Z</time>
      </trkpt>
      <trkpt lat="38.4220470" lon="-2.4924180">
        <ele>1161.4</ele>
        <time>2019-11-01T11:08:05Z</time>
      </trkpt>
      <trkpt lat="38.4220950" lon="-2.4923540">
        <ele>1161.4</ele>
        <time>2019-11-01T11:08:06Z</time>
      </trkpt>
      <trkpt lat="38.4221540" lon="-2.4922810">
        <ele>1161.4</ele>
        <time>2019-11-01T11:08:07Z</time>
      </trkpt>
      <trkpt lat="38.4221950" lon="-2.4922070">
        <ele>1161.4</ele>
        <time>2019-11-01T11:08:08Z</time>
      </trkpt>
      <trkpt lat="38.4222410" lon="-2.4921270">
        <ele>1161.4</ele>
        <time>2019-11-01T11:08:09Z</time>
      </trkpt>
      <trkpt lat="38.4222870" lon="-2.4920500">
        <ele>1161.4</ele>
        <time>2019-11-01T11:08:10Z</time>
      </trkpt>
      <trkpt lat="38.4223330" lon="-2.4919670">
        <ele>1159.3</ele>
        <time>2019-11-01T11:08:11Z</time>
      </trkpt>
      <trkpt lat="38.4223740" lon="-2.4918730">
        <ele>1159.3</ele>
        <time>2019-11-01T11:08:12Z</time>
      </trkpt>
      <trkpt lat="38.4224130" lon="-2.4917730">
        <ele>1159.3</ele>
        <time>2019-11-01T11:08:13Z</time>
      </trkpt>
      <trkpt lat="38.4224380" lon="-2.4916660">
        <ele>1159.3</ele>
        <time>2019-11-01T11:08:14Z</time>
      </trkpt>
      <trkpt lat="38.4224610" lon="-2.4915500">
        <ele>1159.3</ele>
        <time>2019-11-01T11:08:15Z</time>
      </trkpt>
      <trkpt lat="38.4224770" lon="-2.4914290">
        <ele>1159.3</ele>
        <time>2019-11-01T11:08:16Z</time>
      </trkpt>
      <trkpt lat="38.4224900" lon="-2.4913040">
        <ele>1159.3</ele>
        <time>2019-11-01T11:08:17Z</time>
      </trkpt>
      <trkpt lat="38.4224970" lon="-2.4911850">
        <ele>1159.3</ele>
        <time>2019-11-01T11:08:18Z</time>
      </trkpt>
      <trkpt lat="38.4225080" lon="-2.4910530">
        <ele>1159.3</ele>
        <time>2019-11-01T11:08:19Z</time>
      </trkpt>
      <trkpt lat="38.4225230" lon="-2.4909230">
        <ele>1159.3</ele>
        <time>2019-11-01T11:08:20Z</time>
      </trkpt>
      <trkpt lat="38.4225380" lon="-2.4907950">
        <ele>1157.3</ele>
        <time>2019-11-01T11:08:21Z</time>
      </trkpt>
      <trkpt lat="38.4225510" lon="-2.4906690">
        <ele>1157.3</ele>
        <time>2019-11-01T11:08:22Z</time>
      </trkpt>
      <trkpt lat="38.4225610" lon="-2.4905430">
        <ele>1157.3</ele>
        <time>2019-11-01T11:08:23Z</time>
      </trkpt>
      <trkpt lat="38.4225690" lon="-2.4904190">
        <ele>1157.3</ele>
        <time>2019-11-01T11:08:24Z</time>
      </trkpt>
      <trkpt lat="38.4225820" lon="-2.4902980">
        <ele>1157.3</ele>
        <time>2019-11-01T11:08:25Z</time>
      </trkpt>
      <trkpt lat="38.4225890" lon="-2.4901820">
        <ele>1157.3</ele>
        <time>2019-11-01T11:08:26Z</time>
      </trkpt>
      <trkpt lat="38.4225970" lon="-2.4900680">
        <ele>1157.3</ele>
        <time>2019-11-01T11:08:27Z</time>
      </trkpt>
      <trkpt lat="38.4226000" lon="-2.4899570">
        <ele>1155.2</ele>
        <time>2019-11-01T11:08:28Z</time>
      </trkpt>
      <trkpt lat="38.4226000" lon="-2.4898570">
        <ele>1155.2</ele>
        <time>2019-11-01T11:08:29Z</time>
      </trkpt>
      <trkpt lat="38.4225920" lon="-2.4897510">
        <ele>1155.2</ele>
        <time>2019-11-01T11:08:30Z</time>
      </trkpt>
      <trkpt lat="38.4225820" lon="-2.4896480">
        <ele>1155.2</ele>
        <time>2019-11-01T11:08:31Z</time>
      </trkpt>
      <trkpt lat="38.4225610" lon="-2.4895500">
        <ele>1155.2</ele>
        <time>2019-11-01T11:08:32Z</time>
      </trkpt>
      <trkpt lat="38.4225430" lon="-2.4894600">
        <ele>1155.2</ele>
        <time>2019-11-01T11:08:33Z</time>
      </trkpt>
      <trkpt lat="38.4225150" lon="-2.4893690">
        <ele>1155.2</ele>
        <time>2019-11-01T11:08:34Z</time>
      </trkpt>
      <trkpt lat="38.4224820" lon="-2.4892870">
        <ele>1155.2</ele>
        <time>2019-11-01T11:08:35Z</time>
      </trkpt>
      <trkpt lat="38.4224380" lon="-2.4892140">
        <ele>1153.2</ele>
        <time>2019-11-01T11:08:36Z</time>
      </trkpt>
      <trkpt lat="38.4223950" lon="-2.4891470">
        <ele>1153.2</ele>
        <time>2019-11-01T11:08:37Z</time>
      </trkpt>
      <trkpt lat="38.4223360" lon="-2.4890850">
        <ele>1153.2</ele>
        <time>2019-11-01T11:08:38Z</time>
      </trkpt>
      <trkpt lat="38.4222750" lon="-2.4890270">
        <ele>1153.2</ele>
        <time>2019-11-01T11:08:39Z</time>
      </trkpt>
      <trkpt lat="38.4222080" lon="-2.4889730">
        <ele>1153.2</ele>
        <time>2019-11-01T11:08:40Z</time>
      </trkpt>
      <trkpt lat="38.4221390" lon="-2.4889260">
        <ele>1153.2</ele>
        <time>2019-11-01T11:08:41Z</time>
      </trkpt>
      <trkpt lat="38.4220650" lon="-2.4888760">
        <ele>1151.1</ele>
        <time>2019-11-01T11:08:42Z</time>
      </trkpt>
      <trkpt lat="38.4219900" lon="-2.4888280">
        <ele>1151.1</ele>
        <time>2019-11-01T11:08:43Z</time>
      </trkpt>
      <trkpt lat="38.4219210" lon="-2.4887830">
        <ele>1151.1</ele>
        <time>2019-11-01T11:08:44Z</time>
      </trkpt>
      <trkpt lat="38.4218470" lon="-2.4887360">
        <ele>1151.1</ele>
        <time>2019-11-01T11:08:45Z</time>
      </trkpt>
      <trkpt lat="38.4217750" lon="-2.4886920">
        <ele>1151.1</ele>
        <time>2019-11-01T11:08:46Z</time>
      </trkpt>
      <trkpt lat="38.4217110" lon="-2.4886550">
        <ele>1151.1</ele>
        <time>2019-11-01T11:08:47Z</time>
      </trkpt>
      <trkpt lat="38.4216470" lon="-2.4886250">
        <ele>1151.1</ele>
        <time>2019-11-01T11:08:48Z</time>
      </trkpt>
      <trkpt lat="38.4215880" lon="-2.4886220">
        <ele>1151.1</ele>
        <time>2019-11-01T11:08:49Z</time>
      </trkpt>
      <trkpt lat="38.4215190" lon="-2.4886210">
        <ele>1151.1</ele>
        <time>2019-11-01T11:08:50Z</time>
      </trkpt>
      <trkpt lat="38.4214630" lon="-2.4886220">
        <ele>1148.9</ele>
        <time>2019-11-01T11:08:51Z</time>
      </trkpt>
      <trkpt lat="38.4214020" lon="-2.4886220">
        <ele>1148.9</ele>
        <time>2019-11-01T11:08:52Z</time>
      </trkpt>
      <trkpt lat="38.4213480" lon="-2.4886160">
        <ele>1148.9</ele>
        <time>2019-11-01T11:08:53Z</time>
      </trkpt>
      <trkpt lat="38.4212990" lon="-2.4885990">
        <ele>1148.9</ele>
        <time>2019-11-01T11:08:54Z</time>
      </trkpt>
      <trkpt lat="38.4212530" lon="-2.4885700">
        <ele>1148.9</ele>
        <time>2019-11-01T11:08:55Z</time>
      </trkpt>
      <trkpt lat="38.4211890" lon="-2.4884800">
        <ele>1148.9</ele>
        <time>2019-11-01T11:08:57Z</time>
      </trkpt>
      <trkpt lat="38.4211610" lon="-2.4883600">
        <ele>1146.3</ele>
        <time>2019-11-01T11:08:59Z</time>
      </trkpt>
      <trkpt lat="38.4211610" lon="-2.4882910">
        <ele>1146.3</ele>
        <time>2019-11-01T11:09:00Z</time>
      </trkpt>
      <trkpt lat="38.4211740" lon="-2.4882220">
        <ele>1146.3</ele>
        <time>2019-11-01T11:09:01Z</time>
      </trkpt>
      <trkpt lat="38.4211890" lon="-2.4881530">
        <ele>1146.3</ele>
        <time>2019-11-01T11:09:02Z</time>
      </trkpt>
      <trkpt lat="38.4212120" lon="-2.4880870">
        <ele>1146.3</ele>
        <time>2019-11-01T11:09:03Z</time>
      </trkpt>
      <trkpt lat="38.4212380" lon="-2.4880210">
        <ele>1146.3</ele>
        <time>2019-11-01T11:09:04Z</time>
      </trkpt>
      <trkpt lat="38.4212680" lon="-2.4879500">
        <ele>1146.3</ele>
        <time>2019-11-01T11:09:05Z</time>
      </trkpt>
      <trkpt lat="38.4213020" lon="-2.4878800">
        <ele>1144.2</ele>
        <time>2019-11-01T11:09:06Z</time>
      </trkpt>
      <trkpt lat="38.4213400" lon="-2.4878080">
        <ele>1144.2</ele>
        <time>2019-11-01T11:09:07Z</time>
      </trkpt>
      <trkpt lat="38.4213760" lon="-2.4877360">
        <ele>1144.2</ele>
        <time>2019-11-01T11:09:08Z</time>
      </trkpt>
      <trkpt lat="38.4214090" lon="-2.4876700">
        <ele>1144.2</ele>
        <time>2019-11-01T11:09:09Z</time>
      </trkpt>
      <trkpt lat="38.4214400" lon="-2.4875980">
        <ele>1144.2</ele>
        <time>2019-11-01T11:09:10Z</time>
      </trkpt>
      <trkpt lat="38.4214630" lon="-2.4875310">
        <ele>1144.2</ele>
        <time>2019-11-01T11:09:11Z</time>
      </trkpt>
      <trkpt lat="38.4214810" lon="-2.4874670">
        <ele>1144.2</ele>
        <time>2019-11-01T11:09:12Z</time>
      </trkpt>
      <trkpt lat="38.4214960" lon="-2.4874050">
        <ele>1144.2</ele>
        <time>2019-11-01T11:09:13Z</time>
      </trkpt>
      <trkpt lat="38.4215120" lon="-2.4872890">
        <ele>1140.9</ele>
        <time>2019-11-01T11:09:15Z</time>
      </trkpt>
      <trkpt lat="38.4215170" lon="-2.4872310">
        <ele>1140.9</ele>
        <time>2019-11-01T11:09:16Z</time>
      </trkpt>
      <trkpt lat="38.4215170" lon="-2.4871350">
        <ele>1140.9</ele>
        <time>2019-11-01T11:09:18Z</time>
      </trkpt>
      <trkpt lat="38.4215090" lon="-2.4870590">
        <ele>1140.9</ele>
        <time>2019-11-01T11:09:20Z</time>
      </trkpt>
      <trkpt lat="38.4215090" lon="-2.4869690">
        <ele>1138.8</ele>
        <time>2019-11-01T11:09:23Z</time>
      </trkpt>
      <trkpt lat="38.4215090" lon="-2.4869080">
        <ele>1138.8</ele>
        <time>2019-11-01T11:09:25Z</time>
      </trkpt>
      <trkpt lat="38.4215090" lon="-2.4868270">
        <ele>1138.8</ele>
        <time>2019-11-01T11:09:28Z</time>
      </trkpt>
      <trkpt lat="38.4215270" lon="-2.4867340">
        <ele>1135.7</ele>
        <time>2019-11-01T11:09:31Z</time>
      </trkpt>
      <trkpt lat="38.4215550" lon="-2.4866650">
        <ele>1135.7</ele>
        <time>2019-11-01T11:09:33Z</time>
      </trkpt>
      <trkpt lat="38.4215940" lon="-2.4865990">
        <ele>1135.7</ele>
        <time>2019-11-01T11:09:35Z</time>
      </trkpt>
      <trkpt lat="38.4216420" lon="-2.4865390">
        <ele>1135.7</ele>
        <time>2019-11-01T11:09:37Z</time>
      </trkpt>
      <trkpt lat="38.4217040" lon="-2.4864890">
        <ele>1133.6</ele>
        <time>2019-11-01T11:09:39Z</time>
      </trkpt>
      <trkpt lat="38.4217830" lon="-2.4864510">
        <ele>1133.6</ele>
        <time>2019-11-01T11:09:41Z</time>
      </trkpt>
      <trkpt lat="38.4218750" lon="-2.4864220">
        <ele>1133.6</ele>
        <time>2019-11-01T11:09:43Z</time>
      </trkpt>
      <trkpt lat="38.4219240" lon="-2.4864080">
        <ele>1133.6</ele>
        <time>2019-11-01T11:09:44Z</time>
      </trkpt>
      <trkpt lat="38.4220390" lon="-2.4863800">
        <ele>1130.2</ele>
        <time>2019-11-01T11:09:46Z</time>
      </trkpt>
      <trkpt lat="38.4221000" lon="-2.4863680">
        <ele>1130.2</ele>
        <time>2019-11-01T11:09:47Z</time>
      </trkpt>
      <trkpt lat="38.4221800" lon="-2.4863590">
        <ele>1130.2</ele>
        <time>2019-11-01T11:09:48Z</time>
      </trkpt>
      <trkpt lat="38.4222640" lon="-2.4863550">
        <ele>1130.2</ele>
        <time>2019-11-01T11:09:49Z</time>
      </trkpt>
      <trkpt lat="38.4223490" lon="-2.4863520">
        <ele>1130.2</ele>
        <time>2019-11-01T11:09:50Z</time>
      </trkpt>
      <trkpt lat="38.4224360" lon="-2.4863480">
        <ele>1130.2</ele>
        <time>2019-11-01T11:09:51Z</time>
      </trkpt>
      <trkpt lat="38.4225200" lon="-2.4863480">
        <ele>1130.2</ele>
        <time>2019-11-01T11:09:52Z</time>
      </trkpt>
      <trkpt lat="38.4226050" lon="-2.4863520">
        <ele>1130.2</ele>
        <time>2019-11-01T11:09:53Z</time>
      </trkpt>
      <trkpt lat="38.4226920" lon="-2.4863600">
        <ele>1130.2</ele>
        <time>2019-11-01T11:09:54Z</time>
      </trkpt>
      <trkpt lat="38.4227760" lon="-2.4863730">
        <ele>1128.1</ele>
        <time>2019-11-01T11:09:55Z</time>
      </trkpt>
      <trkpt lat="38.4228660" lon="-2.4863910">
        <ele>1128.1</ele>
        <time>2019-11-01T11:09:56Z</time>
      </trkpt>
      <trkpt lat="38.4229660" lon="-2.4864120">
        <ele>1128.1</ele>
        <time>2019-11-01T11:09:57Z</time>
      </trkpt>
      <trkpt lat="38.4230600" lon="-2.4864340">
        <ele>1128.1</ele>
        <time>2019-11-01T11:09:58Z</time>
      </trkpt>
      <trkpt lat="38.4231580" lon="-2.4864590">
        <ele>1128.1</ele>
        <time>2019-11-01T11:09:59Z</time>
      </trkpt>
      <trkpt lat="38.4232520" lon="-2.4864870">
        <ele>1128.1</ele>
        <time>2019-11-01T11:10:00Z</time>
      </trkpt>
      <trkpt lat="38.4233550" lon="-2.4865190">
        <ele>1128.1</ele>
        <time>2019-11-01T11:10:01Z</time>
      </trkpt>
      <trkpt lat="38.4234570" lon="-2.4865520">
        <ele>1124.2</ele>
        <time>2019-11-01T11:10:02Z</time>
      </trkpt>
      <trkpt lat="38.4235620" lon="-2.4865850">
        <ele>1124.2</ele>
        <time>2019-11-01T11:10:03Z</time>
      </trkpt>
      <trkpt lat="38.4236570" lon="-2.4866130">
        <ele>1124.2</ele>
        <time>2019-11-01T11:10:04Z</time>
      </trkpt>
      <trkpt lat="38.4237570" lon="-2.4866380">
        <ele>1124.2</ele>
        <time>2019-11-01T11:10:05Z</time>
      </trkpt>
      <trkpt lat="38.4238590" lon="-2.4866620">
        <ele>1124.2</ele>
        <time>2019-11-01T11:10:06Z</time>
      </trkpt>
      <trkpt lat="38.4239540" lon="-2.4866880">
        <ele>1124.2</ele>
        <time>2019-11-01T11:10:07Z</time>
      </trkpt>
      <trkpt lat="38.4240410" lon="-2.4867160">
        <ele>1124.2</ele>
        <time>2019-11-01T11:10:08Z</time>
      </trkpt>
      <trkpt lat="38.4241250" lon="-2.4867550">
        <ele>1124.2</ele>
        <time>2019-11-01T11:10:09Z</time>
      </trkpt>
      <trkpt lat="38.4242120" lon="-2.4868070">
        <ele>1122.1</ele>
        <time>2019-11-01T11:10:10Z</time>
      </trkpt>
      <trkpt lat="38.4242940" lon="-2.4868660">
        <ele>1122.1</ele>
        <time>2019-11-01T11:10:11Z</time>
      </trkpt>
      <trkpt lat="38.4243740" lon="-2.4869300">
        <ele>1122.1</ele>
        <time>2019-11-01T11:10:12Z</time>
      </trkpt>
      <trkpt lat="38.4244450" lon="-2.4869980">
        <ele>1122.1</ele>
        <time>2019-11-01T11:10:13Z</time>
      </trkpt>
      <trkpt lat="38.4245220" lon="-2.4870740">
        <ele>1122.1</ele>
        <time>2019-11-01T11:10:14Z</time>
      </trkpt>
      <trkpt lat="38.4245990" lon="-2.4871570">
        <ele>1122.1</ele>
        <time>2019-11-01T11:10:15Z</time>
      </trkpt>
      <trkpt lat="38.4246710" lon="-2.4872480">
        <ele>1122.1</ele>
        <time>2019-11-01T11:10:16Z</time>
      </trkpt>
      <trkpt lat="38.4247420" lon="-2.4873450">
        <ele>1122.1</ele>
        <time>2019-11-01T11:10:17Z</time>
      </trkpt>
      <trkpt lat="38.4248120" lon="-2.4874370">
        <ele>1117.5</ele>
        <time>2019-11-01T11:10:18Z</time>
      </trkpt>
      <trkpt lat="38.4248930" lon="-2.4875370">
        <ele>1117.5</ele>
        <time>2019-11-01T11:10:19Z</time>
      </trkpt>
      <trkpt lat="38.4249730" lon="-2.4876380">
        <ele>1117.5</ele>
        <time>2019-11-01T11:10:20Z</time>
      </trkpt>
      <trkpt lat="38.4250520" lon="-2.4877420">
        <ele>1117.5</ele>
        <time>2019-11-01T11:10:21Z</time>
      </trkpt>
      <trkpt lat="38.4251260" lon="-2.4878410">
        <ele>1117.5</ele>
        <time>2019-11-01T11:10:22Z</time>
      </trkpt>
      <trkpt lat="38.4251980" lon="-2.4879520">
        <ele>1117.5</ele>
        <time>2019-11-01T11:10:23Z</time>
      </trkpt>
      <trkpt lat="38.4252620" lon="-2.4880560">
        <ele>1117.5</ele>
        <time>2019-11-01T11:10:24Z</time>
      </trkpt>
      <trkpt lat="38.4253310" lon="-2.4881690">
        <ele>1117.5</ele>
        <time>2019-11-01T11:10:25Z</time>
      </trkpt>
      <trkpt lat="38.4253930" lon="-2.4882790">
        <ele>1115.3</ele>
        <time>2019-11-01T11:10:26Z</time>
      </trkpt>
      <trkpt lat="38.4254540" lon="-2.4883820">
        <ele>1115.3</ele>
        <time>2019-11-01T11:10:27Z</time>
      </trkpt>
      <trkpt lat="38.4255130" lon="-2.4884740">
        <ele>1115.3</ele>
        <time>2019-11-01T11:10:28Z</time>
      </trkpt>
      <trkpt lat="38.4255740" lon="-2.4885550">
        <ele>1115.3</ele>
        <time>2019-11-01T11:10:29Z</time>
      </trkpt>
      <trkpt lat="38.4256330" lon="-2.4886230">
        <ele>1115.3</ele>
        <time>2019-11-01T11:10:30Z</time>
      </trkpt>
      <trkpt lat="38.4256870" lon="-2.4886790">
        <ele>1115.3</ele>
        <time>2019-11-01T11:10:31Z</time>
      </trkpt>
      <trkpt lat="38.4257360" lon="-2.4887220">
        <ele>1115.3</ele>
        <time>2019-11-01T11:10:32Z</time>
      </trkpt>
      <trkpt lat="38.4257890" lon="-2.4887280">
        <ele>1115.3</ele>
        <time>2019-11-01T11:10:33Z</time>
      </trkpt>
      <trkpt lat="38.4258380" lon="-2.4887440">
        <ele>1110.3</ele>
        <time>2019-11-01T11:10:34Z</time>
      </trkpt>
      <trkpt lat="38.4258890" lon="-2.4887590">
        <ele>1110.3</ele>
        <time>2019-11-01T11:10:35Z</time>
      </trkpt>
      <trkpt lat="38.4259300" lon="-2.4887670">
        <ele>1110.3</ele>
        <time>2019-11-01T11:10:36Z</time>
      </trkpt>
      <trkpt lat="38.4260070" lon="-2.4887720">
        <ele>1110.3</ele>
        <time>2019-11-01T11:10:38Z</time>
      </trkpt>
      <trkpt lat="38.4260680" lon="-2.4887740">
        <ele>1110.3</ele>
        <time>2019-11-01T11:10:40Z</time>
      </trkpt>
      <trkpt lat="38.4261170" lon="-2.4887680">
        <ele>1110.3</ele>
        <time>2019-11-01T11:10:42Z</time>
      </trkpt>
      <trkpt lat="38.4261580" lon="-2.4887620">
        <ele>1108.2</ele>
        <time>2019-11-01T11:10:44Z</time>
      </trkpt>
      <trkpt lat="38.4262200" lon="-2.4887480">
        <ele>1108.2</ele>
        <time>2019-11-01T11:10:47Z</time>
      </trkpt>
      <trkpt lat="38.4262730" lon="-2.4887090">
        <ele>1103.4</ele>
        <time>2019-11-01T11:11:28Z</time>
      </trkpt>
      <trkpt lat="38.4263350" lon="-2.4886770">
        <ele>1101.3</ele>
        <time>2019-11-01T11:11:32Z</time>
      </trkpt>
      <trkpt lat="38.4264040" lon="-2.4886550">
        <ele>1096.4</ele>
        <time>2019-11-01T11:11:35Z</time>
      </trkpt>
      <trkpt lat="38.4264290" lon="-2.4886480">
        <ele>1096.4</ele>
        <time>2019-11-01T11:11:36Z</time>
      </trkpt>
      <trkpt lat="38.4264830" lon="-2.4886410">
        <ele>1096.4</ele>
        <time>2019-11-01T11:11:38Z</time>
      </trkpt>
      <trkpt lat="38.4265400" lon="-2.4886350">
        <ele>1096.4</ele>
        <time>2019-11-01T11:11:40Z</time>
      </trkpt>
      <trkpt lat="38.4265980" lon="-2.4886310">
        <ele>1096.4</ele>
        <time>2019-11-01T11:11:42Z</time>
      </trkpt>
      <trkpt lat="38.4266600" lon="-2.4886310">
        <ele>1096.4</ele>
        <time>2019-11-01T11:11:44Z</time>
      </trkpt>
      <trkpt lat="38.4267240" lon="-2.4886300">
        <ele>1096.4</ele>
        <time>2019-11-01T11:11:46Z</time>
      </trkpt>
      <trkpt lat="38.4267880" lon="-2.4886260">
        <ele>1094.3</ele>
        <time>2019-11-01T11:11:48Z</time>
      </trkpt>
      <trkpt lat="38.4268540" lon="-2.4886230">
        <ele>1094.3</ele>
        <time>2019-11-01T11:11:50Z</time>
      </trkpt>
      <trkpt lat="38.4269210" lon="-2.4886190">
        <ele>1089.9</ele>
        <time>2019-11-01T11:11:52Z</time>
      </trkpt>
      <trkpt lat="38.4270130" lon="-2.4886170">
        <ele>1089.9</ele>
        <time>2019-11-01T11:11:55Z</time>
      </trkpt>
      <trkpt lat="38.4270770" lon="-2.4886130">
        <ele>1089.9</ele>
        <time>2019-11-01T11:11:57Z</time>
      </trkpt>
      <trkpt lat="38.4271440" lon="-2.4886060">
        <ele>1089.9</ele>
        <time>2019-11-01T11:11:59Z</time>
      </trkpt>
      <trkpt lat="38.4272080" lon="-2.4885920">
        <ele>1089.9</ele>
        <time>2019-11-01T11:12:01Z</time>
      </trkpt>
      <trkpt lat="38.4272770" lon="-2.4885700">
        <ele>1089.9</ele>
        <time>2019-11-01T11:12:03Z</time>
      </trkpt>
      <trkpt lat="38.4273460" lon="-2.4885450">
        <ele>1089.9</ele>
        <time>2019-11-01T11:12:05Z</time>
      </trkpt>
      <trkpt lat="38.4274180" lon="-2.4885140">
        <ele>1083.8</ele>
        <time>2019-11-01T11:12:07Z</time>
      </trkpt>
      <trkpt lat="38.4274820" lon="-2.4884740">
        <ele>1083.8</ele>
        <time>2019-11-01T11:12:09Z</time>
      </trkpt>
      <trkpt lat="38.4275510" lon="-2.4884190">
        <ele>1083.8</ele>
        <time>2019-11-01T11:12:11Z</time>
      </trkpt>
      <trkpt lat="38.4276120" lon="-2.4883630">
        <ele>1083.8</ele>
        <time>2019-11-01T11:12:13Z</time>
      </trkpt>
      <trkpt lat="38.4276680" lon="-2.4883110">
        <ele>1083.8</ele>
        <time>2019-11-01T11:12:15Z</time>
      </trkpt>
      <trkpt lat="38.4277200" lon="-2.4882520">
        <ele>1083.8</ele>
        <time>2019-11-01T11:12:17Z</time>
      </trkpt>
      <trkpt lat="38.4277680" lon="-2.4881960">
        <ele>1083.8</ele>
        <time>2019-11-01T11:12:19Z</time>
      </trkpt>
      <trkpt lat="38.4278120" lon="-2.4881410">
        <ele>1083.8</ele>
        <time>2019-11-01T11:12:21Z</time>
      </trkpt>
      <trkpt lat="38.4278450" lon="-2.4880840">
        <ele>1077.9</ele>
        <time>2019-11-01T11:12:23Z</time>
      </trkpt>
      <trkpt lat="38.4278710" lon="-2.4880270">
        <ele>1077.9</ele>
        <time>2019-11-01T11:12:25Z</time>
      </trkpt>
      <trkpt lat="38.4279010" lon="-2.4879630">
        <ele>1077.9</ele>
        <time>2019-11-01T11:12:27Z</time>
      </trkpt>
      <trkpt lat="38.4279320" lon="-2.4879010">
        <ele>1077.9</ele>
        <time>2019-11-01T11:12:29Z</time>
      </trkpt>
      <trkpt lat="38.4279600" lon="-2.4878350">
        <ele>1077.9</ele>
        <time>2019-11-01T11:12:31Z</time>
      </trkpt>
      <trkpt lat="38.4279830" lon="-2.4877680">
        <ele>1077.9</ele>
        <time>2019-11-01T11:12:33Z</time>
      </trkpt>
      <trkpt lat="38.4280010" lon="-2.4877080">
        <ele>1077.9</ele>
        <time>2019-11-01T11:12:35Z</time>
      </trkpt>
      <trkpt lat="38.4280190" lon="-2.4876440">
        <ele>1077.9</ele>
        <time>2019-11-01T11:12:37Z</time>
      </trkpt>
      <trkpt lat="38.4280320" lon="-2.4875830">
        <ele>1073.0</ele>
        <time>2019-11-01T11:12:39Z</time>
      </trkpt>
      <trkpt lat="38.4280400" lon="-2.4875560">
        <ele>1073.0</ele>
        <time>2019-11-01T11:12:40Z</time>
      </trkpt>
      <trkpt lat="38.4280700" lon="-2.4874650">
        <ele>1073.0</ele>
        <time>2019-11-01T11:12:43Z</time>
      </trkpt>
      <trkpt lat="38.4281010" lon="-2.4873770">
        <ele>1073.0</ele>
        <time>2019-11-01T11:12:46Z</time>
      </trkpt>
      <trkpt lat="38.4281270" lon="-2.4873180">
        <ele>1073.0</ele>
        <time>2019-11-01T11:12:48Z</time>
      </trkpt>
      <trkpt lat="38.4281500" lon="-2.4872610">
        <ele>1073.0</ele>
        <time>2019-11-01T11:12:50Z</time>
      </trkpt>
      <trkpt lat="38.4281880" lon="-2.4871760">
        <ele>1073.0</ele>
        <time>2019-11-01T11:12:53Z</time>
      </trkpt>
      <trkpt lat="38.4282090" lon="-2.4871190">
        <ele>1068.4</ele>
        <time>2019-11-01T11:12:55Z</time>
      </trkpt>
      <trkpt lat="38.4282290" lon="-2.4870560">
        <ele>1068.4</ele>
        <time>2019-11-01T11:12:57Z</time>
      </trkpt>
      <trkpt lat="38.4282500" lon="-2.4869930">
        <ele>1068.4</ele>
        <time>2019-11-01T11:12:59Z</time>
      </trkpt>
      <trkpt lat="38.4282680" lon="-2.4869330">
        <ele>1068.4</ele>
        <time>2019-11-01T11:13:01Z</time>
      </trkpt>
      <trkpt lat="38.4282830" lon="-2.4868680">
        <ele>1068.4</ele>
        <time>2019-11-01T11:13:03Z</time>
      </trkpt>
      <trkpt lat="38.4283060" lon="-2.4867690">
        <ele>1068.4</ele>
        <time>2019-11-01T11:13:06Z</time>
      </trkpt>
      <trkpt lat="38.4283290" lon="-2.4866760">
        <ele>1068.4</ele>
        <time>2019-11-01T11:13:09Z</time>
      </trkpt>
      <trkpt lat="38.4283600" lon="-2.4866280">
        <ele>1065.0</ele>
        <time>2019-11-01T11:13:11Z</time>
      </trkpt>
      <trkpt lat="38.4283980" lon="-2.4865900">
        <ele>1065.0</ele>
        <time>2019-11-01T11:13:13Z</time>
      </trkpt>
      <trkpt lat="38.4284520" lon="-2.4865720">
        <ele>1065.0</ele>
        <time>2019-11-01T11:13:15Z</time>
      </trkpt>
      <trkpt lat="38.4285000" lon="-2.4865760">
        <ele>1065.0</ele>
        <time>2019-11-01T11:13:17Z</time>
      </trkpt>
      <trkpt lat="38.4285520" lon="-2.4866120">
        <ele>1065.0</ele>
        <time>2019-11-01T11:13:19Z</time>
      </trkpt>
      <trkpt lat="38.4285900" lon="-2.4866760">
        <ele>1065.0</ele>
        <time>2019-11-01T11:13:21Z</time>
      </trkpt>
      <trkpt lat="38.4286160" lon="-2.4867690">
        <ele>1065.0</ele>
        <time>2019-11-01T11:13:23Z</time>
      </trkpt>
      <trkpt lat="38.4286310" lon="-2.4868740">
        <ele>1065.0</ele>
        <time>2019-11-01T11:13:25Z</time>
      </trkpt>
      <trkpt lat="38.4286390" lon="-2.4869910">
        <ele>1065.0</ele>
        <time>2019-11-01T11:13:27Z</time>
      </trkpt>
      <trkpt lat="38.4286460" lon="-2.4871170">
        <ele>1065.0</ele>
        <time>2019-11-01T11:13:29Z</time>
      </trkpt>
      <trkpt lat="38.4286460" lon="-2.4871800">
        <ele>1065.0</ele>
        <time>2019-11-01T11:13:30Z</time>
      </trkpt>
      <trkpt lat="38.4286490" lon="-2.4872360">
        <ele>1065.0</ele>
        <time>2019-11-01T11:13:31Z</time>
      </trkpt>
      <trkpt lat="38.4286540" lon="-2.4873460">
        <ele>1065.0</ele>
        <time>2019-11-01T11:13:33Z</time>
      </trkpt>
      <trkpt lat="38.4286620" lon="-2.4874570">
        <ele>1065.0</ele>
        <time>2019-11-01T11:13:35Z</time>
      </trkpt>
      <trkpt lat="38.4286720" lon="-2.4875550">
        <ele>1065.0</ele>
        <time>2019-11-01T11:13:37Z</time>
      </trkpt>
      <trkpt lat="38.4286920" lon="-2.4876590">
        <ele>1065.0</ele>
        <time>2019-11-01T11:13:39Z</time>
      </trkpt>
      <trkpt lat="38.4287180" lon="-2.4877610">
        <ele>1065.0</ele>
        <time>2019-11-01T11:13:41Z</time>
      </trkpt>
      <trkpt lat="38.4287620" lon="-2.4878570">
        <ele>1065.0</ele>
        <time>2019-11-01T11:13:43Z</time>
      </trkpt>
      <trkpt lat="38.4288050" lon="-2.4879570">
        <ele>1065.0</ele>
        <time>2019-11-01T11:13:45Z</time>
      </trkpt>
      <trkpt lat="38.4288490" lon="-2.4880500">
        <ele>1065.0</ele>
        <time>2019-11-01T11:13:47Z</time>
      </trkpt>
      <trkpt lat="38.4288900" lon="-2.4881370">
        <ele>1065.0</ele>
        <time>2019-11-01T11:13:49Z</time>
      </trkpt>
      <trkpt lat="38.4289250" lon="-2.4882100">
        <ele>1065.0</ele>
        <time>2019-11-01T11:13:51Z</time>
      </trkpt>
      <trkpt lat="38.4289590" lon="-2.4882770">
        <ele>1065.0</ele>
        <time>2019-11-01T11:13:53Z</time>
      </trkpt>
      <trkpt lat="38.4289890" lon="-2.4883440">
        <ele>1065.0</ele>
        <time>2019-11-01T11:13:55Z</time>
      </trkpt>
      <trkpt lat="38.4290150" lon="-2.4884120">
        <ele>1065.0</ele>
        <time>2019-11-01T11:13:57Z</time>
      </trkpt>
      <trkpt lat="38.4290380" lon="-2.4884850">
        <ele>1065.0</ele>
        <time>2019-11-01T11:13:59Z</time>
      </trkpt>
      <trkpt lat="38.4290530" lon="-2.4885560">
        <ele>1065.0</ele>
        <time>2019-11-01T11:14:01Z</time>
      </trkpt>
      <trkpt lat="38.4290690" lon="-2.4886330">
        <ele>1065.0</ele>
        <time>2019-11-01T11:14:03Z</time>
      </trkpt>
      <trkpt lat="38.4290760" lon="-2.4887080">
        <ele>1065.0</ele>
        <time>2019-11-01T11:14:05Z</time>
      </trkpt>
      <trkpt lat="38.4290760" lon="-2.4887850">
        <ele>1065.0</ele>
        <time>2019-11-01T11:14:07Z</time>
      </trkpt>
      <trkpt lat="38.4290740" lon="-2.4888600">
        <ele>1065.0</ele>
        <time>2019-11-01T11:14:09Z</time>
      </trkpt>
      <trkpt lat="38.4290660" lon="-2.4889370">
        <ele>1065.0</ele>
        <time>2019-11-01T11:14:11Z</time>
      </trkpt>
      <trkpt lat="38.4290590" lon="-2.4890180">
        <ele>1065.0</ele>
        <time>2019-11-01T11:14:13Z</time>
      </trkpt>
      <trkpt lat="38.4290510" lon="-2.4891010">
        <ele>1065.0</ele>
        <time>2019-11-01T11:14:15Z</time>
      </trkpt>
      <trkpt lat="38.4290430" lon="-2.4891850">
        <ele>1065.0</ele>
        <time>2019-11-01T11:14:17Z</time>
      </trkpt>
      <trkpt lat="38.4290380" lon="-2.4892690">
        <ele>1065.0</ele>
        <time>2019-11-01T11:14:19Z</time>
      </trkpt>
      <trkpt lat="38.4290360" lon="-2.4893540">
        <ele>1065.0</ele>
        <time>2019-11-01T11:14:21Z</time>
      </trkpt>
      <trkpt lat="38.4290380" lon="-2.4894390">
        <ele>1065.0</ele>
        <time>2019-11-01T11:14:23Z</time>
      </trkpt>
      <trkpt lat="38.4290510" lon="-2.4895240">
        <ele>1065.0</ele>
        <time>2019-11-01T11:14:25Z</time>
      </trkpt>
      <trkpt lat="38.4290760" lon="-2.4896090">
        <ele>1065.0</ele>
        <time>2019-11-01T11:14:27Z</time>
      </trkpt>
      <trkpt lat="38.4291150" lon="-2.4896940">
        <ele>1065.0</ele>
        <time>2019-11-01T11:14:29Z</time>
      </trkpt>
      <trkpt lat="38.4291660" lon="-2.4897760">
        <ele>1065.0</ele>
        <time>2019-11-01T11:14:31Z</time>
      </trkpt>
      <trkpt lat="38.4292380" lon="-2.4898570">
        <ele>1065.0</ele>
        <time>2019-11-01T11:14:33Z</time>
      </trkpt>
      <trkpt lat="38.4293220" lon="-2.4899200">
        <ele>1065.0</ele>
        <time>2019-11-01T11:14:35Z</time>
      </trkpt>
      <trkpt lat="38.4293710" lon="-2.4899480">
        <ele>1065.0</ele>
        <time>2019-11-01T11:14:36Z</time>
      </trkpt>
      <trkpt lat="38.4294250" lon="-2.4899700">
        <ele>1065.0</ele>
        <time>2019-11-01T11:14:37Z</time>
      </trkpt>
      <trkpt lat="38.4294780" lon="-2.4899840">
        <ele>1065.0</ele>
        <time>2019-11-01T11:14:38Z</time>
      </trkpt>
      <trkpt lat="38.4295350" lon="-2.4899910">
        <ele>1065.0</ele>
        <time>2019-11-01T11:14:39Z</time>
      </trkpt>
      <trkpt lat="38.4295910" lon="-2.4899940">
        <ele>1065.0</ele>
        <time>2019-11-01T11:14:40Z</time>
      </trkpt>
      <trkpt lat="38.4296520" lon="-2.4899920">
        <ele>1065.0</ele>
        <time>2019-11-01T11:14:41Z</time>
      </trkpt>
      <trkpt lat="38.4297190" lon="-2.4899850">
        <ele>1065.0</ele>
        <time>2019-11-01T11:14:42Z</time>
      </trkpt>
      <trkpt lat="38.4297750" lon="-2.4899770">
        <ele>1065.0</ele>
        <time>2019-11-01T11:14:43Z</time>
      </trkpt>
      <trkpt lat="38.4298440" lon="-2.4899660">
        <ele>1065.0</ele>
        <time>2019-11-01T11:14:44Z</time>
      </trkpt>
      <trkpt lat="38.4299080" lon="-2.4899540">
        <ele>1065.0</ele>
        <time>2019-11-01T11:14:45Z</time>
      </trkpt>
      <trkpt lat="38.4299720" lon="-2.4899410">
        <ele>1065.0</ele>
        <time>2019-11-01T11:14:46Z</time>
      </trkpt>
      <trkpt lat="38.4300340" lon="-2.4899280">
        <ele>1065.0</ele>
        <time>2019-11-01T11:14:47Z</time>
      </trkpt>
      <trkpt lat="38.4301000" lon="-2.4899150">
        <ele>1065.0</ele>
        <time>2019-11-01T11:14:48Z</time>
      </trkpt>
      <trkpt lat="38.4301570" lon="-2.4899040">
        <ele>1065.0</ele>
        <time>2019-11-01T11:14:49Z</time>
      </trkpt>
      <trkpt lat="38.4302180" lon="-2.4898940">
        <ele>1059.9</ele>
        <time>2019-11-01T11:14:50Z</time>
      </trkpt>
      <trkpt lat="38.4302720" lon="-2.4898860">
        <ele>1059.9</ele>
        <time>2019-11-01T11:14:51Z</time>
      </trkpt>
      <trkpt lat="38.4303210" lon="-2.4898790">
        <ele>1059.9</ele>
        <time>2019-11-01T11:14:52Z</time>
      </trkpt>
      <trkpt lat="38.4304050" lon="-2.4898710">
        <ele>1059.9</ele>
        <time>2019-11-01T11:14:54Z</time>
      </trkpt>
      <trkpt lat="38.4304820" lon="-2.4898650">
        <ele>1059.9</ele>
        <time>2019-11-01T11:14:56Z</time>
      </trkpt>
      <trkpt lat="38.4305410" lon="-2.4898590">
        <ele>1059.9</ele>
        <time>2019-11-01T11:14:58Z</time>
      </trkpt>
      <trkpt lat="38.4306070" lon="-2.4898530">
        <ele>1059.9</ele>
        <time>2019-11-01T11:15:00Z</time>
      </trkpt>
      <trkpt lat="38.4306690" lon="-2.4898480">
        <ele>1059.9</ele>
        <time>2019-11-01T11:15:02Z</time>
      </trkpt>
      <trkpt lat="38.4307230" lon="-2.4898460">
        <ele>1059.9</ele>
        <time>2019-11-01T11:15:04Z</time>
      </trkpt>
      <trkpt lat="38.4307710" lon="-2.4898410">
        <ele>1059.9</ele>
        <time>2019-11-01T11:15:06Z</time>
      </trkpt>
      <trkpt lat="38.4308120" lon="-2.4898160">
        <ele>1059.9</ele>
        <time>2019-11-01T11:15:09Z</time>
      </trkpt>
      <trkpt lat="38.4308170" lon="-2.4898540">
        <ele>1059.9</ele>
        <time>2019-11-01T11:16:35Z</time>
      </trkpt>
      <trkpt lat="38.4308790" lon="-2.4899260">
        <ele>1059.9</ele>
        <time>2019-11-01T11:16:40Z</time>
      </trkpt>
      <trkpt lat="38.4309270" lon="-2.4899970">
        <ele>1059.9</ele>
        <time>2019-11-01T11:16:43Z</time>
      </trkpt>
      <trkpt lat="38.4309580" lon="-2.4900530">
        <ele>1059.9</ele>
        <time>2019-11-01T11:16:45Z</time>
      </trkpt>
      <trkpt lat="38.4309960" lon="-2.4901090">
        <ele>1059.9</ele>
        <time>2019-11-01T11:16:47Z</time>
      </trkpt>
      <trkpt lat="38.4310370" lon="-2.4901570">
        <ele>1059.9</ele>
        <time>2019-11-01T11:16:49Z</time>
      </trkpt>
      <trkpt lat="38.4310890" lon="-2.4901950">
        <ele>1059.9</ele>
        <time>2019-11-01T11:16:51Z</time>
      </trkpt>
      <trkpt lat="38.4311400" lon="-2.4902230">
        <ele>1059.9</ele>
        <time>2019-11-01T11:16:53Z</time>
      </trkpt>
      <trkpt lat="38.4311910" lon="-2.4902370">
        <ele>1059.9</ele>
        <time>2019-11-01T11:16:55Z</time>
      </trkpt>
      <trkpt lat="38.4312470" lon="-2.4902400">
        <ele>1059.9</ele>
        <time>2019-11-01T11:16:57Z</time>
      </trkpt>
      <trkpt lat="38.4313090" lon="-2.4902350">
        <ele>1059.9</ele>
        <time>2019-11-01T11:16:59Z</time>
      </trkpt>
      <trkpt lat="38.4313650" lon="-2.4902210">
        <ele>1059.9</ele>
        <time>2019-11-01T11:17:01Z</time>
      </trkpt>
      <trkpt lat="38.4314240" lon="-2.4902030">
        <ele>1059.9</ele>
        <time>2019-11-01T11:17:03Z</time>
      </trkpt>
      <trkpt lat="38.4314800" lon="-2.4901770">
        <ele>1059.9</ele>
        <time>2019-11-01T11:17:05Z</time>
      </trkpt>
      <trkpt lat="38.4315290" lon="-2.4901460">
        <ele>1059.9</ele>
        <time>2019-11-01T11:17:07Z</time>
      </trkpt>
      <trkpt lat="38.4315800" lon="-2.4901140">
        <ele>1059.9</ele>
        <time>2019-11-01T11:17:09Z</time>
      </trkpt>
      <trkpt lat="38.4316260" lon="-2.4900820">
        <ele>1059.9</ele>
        <time>2019-11-01T11:17:11Z</time>
      </trkpt>
      <trkpt lat="38.4316900" lon="-2.4900270">
        <ele>1059.9</ele>
        <time>2019-11-01T11:17:14Z</time>
      </trkpt>
      <trkpt lat="38.4317310" lon="-2.4899910">
        <ele>1059.9</ele>
        <time>2019-11-01T11:17:16Z</time>
      </trkpt>
      <trkpt lat="38.4317930" lon="-2.4899470">
        <ele>1061.9</ele>
        <time>2019-11-01T11:17:19Z</time>
      </trkpt>
      <trkpt lat="38.4318440" lon="-2.4899270">
        <ele>1061.9</ele>
        <time>2019-11-01T11:17:21Z</time>
      </trkpt>
      <trkpt lat="38.4318850" lon="-2.4899120">
        <ele>1061.9</ele>
        <time>2019-11-01T11:17:23Z</time>
      </trkpt>
      <trkpt lat="38.4319540" lon="-2.4898960">
        <ele>1061.9</ele>
        <time>2019-11-01T11:17:26Z</time>
      </trkpt>
      <trkpt lat="38.4320150" lon="-2.4898890">
        <ele>1061.9</ele>
        <time>2019-11-01T11:17:29Z</time>
      </trkpt>
      <trkpt lat="38.4320790" lon="-2.4898890">
        <ele>1064.0</ele>
        <time>2019-11-01T11:17:32Z</time>
      </trkpt>
      <trkpt lat="38.4321250" lon="-2.4898930">
        <ele>1064.0</ele>
        <time>2019-11-01T11:17:34Z</time>
      </trkpt>
      <trkpt lat="38.4321970" lon="-2.4899020">
        <ele>1064.0</ele>
        <time>2019-11-01T11:17:37Z</time>
      </trkpt>
      <trkpt lat="38.4322480" lon="-2.4899060">
        <ele>1064.0</ele>
        <time>2019-11-01T11:17:39Z</time>
      </trkpt>
      <trkpt lat="38.4323230" lon="-2.4899040">
        <ele>1064.0</ele>
        <time>2019-11-01T11:17:42Z</time>
      </trkpt>
      <trkpt lat="38.4323740" lon="-2.4899040">
        <ele>1064.0</ele>
        <time>2019-11-01T11:17:44Z</time>
      </trkpt>
      <trkpt lat="38.4324510" lon="-2.4899130">
        <ele>1066.0</ele>
        <time>2019-11-01T11:17:47Z</time>
      </trkpt>
      <trkpt lat="38.4324940" lon="-2.4899230">
        <ele>1066.0</ele>
        <time>2019-11-01T11:17:49Z</time>
      </trkpt>
      <trkpt lat="38.4325610" lon="-2.4899440">
        <ele>1066.0</ele>
        <time>2019-11-01T11:17:52Z</time>
      </trkpt>
      <trkpt lat="38.4326250" lon="-2.4899670">
        <ele>1066.0</ele>
        <time>2019-11-01T11:17:55Z</time>
      </trkpt>
      <trkpt lat="38.4326960" lon="-2.4899950">
        <ele>1066.0</ele>
        <time>2019-11-01T11:17:58Z</time>
      </trkpt>
      <trkpt lat="38.4327420" lon="-2.4900150">
        <ele>1066.0</ele>
        <time>2019-11-01T11:18:00Z</time>
      </trkpt>
      <trkpt lat="38.4328170" lon="-2.4900480">
        <ele>1066.0</ele>
        <time>2019-11-01T11:18:03Z</time>
      </trkpt>
      <trkpt lat="38.4328680" lon="-2.4900720">
        <ele>1068.0</ele>
        <time>2019-11-01T11:18:05Z</time>
      </trkpt>
      <trkpt lat="38.4329220" lon="-2.4900970">
        <ele>1068.0</ele>
        <time>2019-11-01T11:18:07Z</time>
      </trkpt>
      <trkpt lat="38.4329730" lon="-2.4901290">
        <ele>1068.0</ele>
        <time>2019-11-01T11:18:09Z</time>
      </trkpt>
      <trkpt lat="38.4330270" lon="-2.4901690">
        <ele>1068.0</ele>
        <time>2019-11-01T11:18:11Z</time>
      </trkpt>
      <trkpt lat="38.4330750" lon="-2.4902290">
        <ele>1068.0</ele>
        <time>2019-11-01T11:18:13Z</time>
      </trkpt>
      <trkpt lat="38.4331010" lon="-2.4903070">
        <ele>1068.0</ele>
        <time>2019-11-01T11:18:15Z</time>
      </trkpt>
      <trkpt lat="38.4331060" lon="-2.4903980">
        <ele>1068.0</ele>
        <time>2019-11-01T11:18:17Z</time>
      </trkpt>
      <trkpt lat="38.4330830" lon="-2.4904970">
        <ele>1068.0</ele>
        <time>2019-11-01T11:18:19Z</time>
      </trkpt>
      <trkpt lat="38.4330470" lon="-2.4905990">
        <ele>1068.0</ele>
        <time>2019-11-01T11:18:21Z</time>
      </trkpt>
      <trkpt lat="38.4330040" lon="-2.4907060">
        <ele>1068.0</ele>
        <time>2019-11-01T11:18:23Z</time>
      </trkpt>
      <trkpt lat="38.4329450" lon="-2.4908180">
        <ele>1068.0</ele>
        <time>2019-11-01T11:18:25Z</time>
      </trkpt>
      <trkpt lat="38.4328830" lon="-2.4909380">
        <ele>1070.1</ele>
        <time>2019-11-01T11:18:27Z</time>
      </trkpt>
      <trkpt lat="38.4328450" lon="-2.4909960">
        <ele>1070.1</ele>
        <time>2019-11-01T11:18:28Z</time>
      </trkpt>
      <trkpt lat="38.4328120" lon="-2.4910540">
        <ele>1070.1</ele>
        <time>2019-11-01T11:18:29Z</time>
      </trkpt>
      <trkpt lat="38.4327780" lon="-2.4911060">
        <ele>1070.1</ele>
        <time>2019-11-01T11:18:30Z</time>
      </trkpt>
      <trkpt lat="38.4327350" lon="-2.4911630">
        <ele>1070.1</ele>
        <time>2019-11-01T11:18:31Z</time>
      </trkpt>
      <trkpt lat="38.4326960" lon="-2.4912190">
        <ele>1070.1</ele>
        <time>2019-11-01T11:18:32Z</time>
      </trkpt>
      <trkpt lat="38.4326580" lon="-2.4912770">
        <ele>1070.1</ele>
        <time>2019-11-01T11:18:33Z</time>
      </trkpt>
      <trkpt lat="38.4326220" lon="-2.4913380">
        <ele>1070.1</ele>
        <time>2019-11-01T11:18:34Z</time>
      </trkpt>
      <trkpt lat="38.4325860" lon="-2.4914000">
        <ele>1070.1</ele>
        <time>2019-11-01T11:18:35Z</time>
      </trkpt>
      <trkpt lat="38.4325530" lon="-2.4914660">
        <ele>1070.1</ele>
        <time>2019-11-01T11:18:36Z</time>
      </trkpt>
      <trkpt lat="38.4325170" lon="-2.4915340">
        <ele>1070.1</ele>
        <time>2019-11-01T11:18:37Z</time>
      </trkpt>
      <trkpt lat="38.4324860" lon="-2.4916050">
        <ele>1070.1</ele>
        <time>2019-11-01T11:18:38Z</time>
      </trkpt>
      <trkpt lat="38.4324530" lon="-2.4916770">
        <ele>1070.1</ele>
        <time>2019-11-01T11:18:39Z</time>
      </trkpt>
      <trkpt lat="38.4324200" lon="-2.4917500">
        <ele>1070.1</ele>
        <time>2019-11-01T11:18:40Z</time>
      </trkpt>
      <trkpt lat="38.4323810" lon="-2.4918220">
        <ele>1070.1</ele>
        <time>2019-11-01T11:18:41Z</time>
      </trkpt>
      <trkpt lat="38.4323000" lon="-2.4919550">
        <ele>1070.1</ele>
        <time>2019-11-01T11:18:43Z</time>
      </trkpt>
      <trkpt lat="38.4322510" lon="-2.4920240">
        <ele>1070.1</ele>
        <time>2019-11-01T11:18:44Z</time>
      </trkpt>
      <trkpt lat="38.4322020" lon="-2.4920910">
        <ele>1070.1</ele>
        <time>2019-11-01T11:18:45Z</time>
      </trkpt>
      <trkpt lat="38.4321510" lon="-2.4921570">
        <ele>1072.6</ele>
        <time>2019-11-01T11:18:46Z</time>
      </trkpt>
      <trkpt lat="38.4321020" lon="-2.4922220">
        <ele>1072.6</ele>
        <time>2019-11-01T11:18:47Z</time>
      </trkpt>
      <trkpt lat="38.4320560" lon="-2.4922840">
        <ele>1072.6</ele>
        <time>2019-11-01T11:18:48Z</time>
      </trkpt>
      <trkpt lat="38.4320080" lon="-2.4923530">
        <ele>1072.6</ele>
        <time>2019-11-01T11:18:49Z</time>
      </trkpt>
      <trkpt lat="38.4319620" lon="-2.4924230">
        <ele>1072.6</ele>
        <time>2019-11-01T11:18:50Z</time>
      </trkpt>
      <trkpt lat="38.4319100" lon="-2.4924940">
        <ele>1072.6</ele>
        <time>2019-11-01T11:18:51Z</time>
      </trkpt>
      <trkpt lat="38.4318620" lon="-2.4925730">
        <ele>1072.6</ele>
        <time>2019-11-01T11:18:52Z</time>
      </trkpt>
      <trkpt lat="38.4318160" lon="-2.4926430">
        <ele>1072.6</ele>
        <time>2019-11-01T11:18:53Z</time>
      </trkpt>
      <trkpt lat="38.4317770" lon="-2.4927190">
        <ele>1072.6</ele>
        <time>2019-11-01T11:18:54Z</time>
      </trkpt>
      <trkpt lat="38.4317390" lon="-2.4928070">
        <ele>1072.6</ele>
        <time>2019-11-01T11:18:55Z</time>
      </trkpt>
      <trkpt lat="38.4317080" lon="-2.4929060">
        <ele>1072.6</ele>
        <time>2019-11-01T11:18:56Z</time>
      </trkpt>
      <trkpt lat="38.4316900" lon="-2.4930040">
        <ele>1072.6</ele>
        <time>2019-11-01T11:18:57Z</time>
      </trkpt>
      <trkpt lat="38.4316750" lon="-2.4931160">
        <ele>1072.6</ele>
        <time>2019-11-01T11:18:58Z</time>
      </trkpt>
      <trkpt lat="38.4316650" lon="-2.4932330">
        <ele>1072.6</ele>
        <time>2019-11-01T11:18:59Z</time>
      </trkpt>
      <trkpt lat="38.4316520" lon="-2.4933540">
        <ele>1072.6</ele>
        <time>2019-11-01T11:19:00Z</time>
      </trkpt>
      <trkpt lat="38.4316420" lon="-2.4934740">
        <ele>1072.6</ele>
        <time>2019-11-01T11:19:01Z</time>
      </trkpt>
      <trkpt lat="38.4316260" lon="-2.4935920">
        <ele>1072.6</ele>
        <time>2019-11-01T11:19:02Z</time>
      </trkpt>
      <trkpt lat="38.4315980" lon="-2.4937070">
        <ele>1072.6</ele>
        <time>2019-11-01T11:19:03Z</time>
      </trkpt>
      <trkpt lat="38.4315650" lon="-2.4938150">
        <ele>1072.6</ele>
        <time>2019-11-01T11:19:04Z</time>
      </trkpt>
      <trkpt lat="38.4315210" lon="-2.4939150">
        <ele>1072.6</ele>
        <time>2019-11-01T11:19:05Z</time>
      </trkpt>
      <trkpt lat="38.4314800" lon="-2.4940110">
        <ele>1072.6</ele>
        <time>2019-11-01T11:19:06Z</time>
      </trkpt>
      <trkpt lat="38.4314340" lon="-2.4940980">
        <ele>1072.6</ele>
        <time>2019-11-01T11:19:07Z</time>
      </trkpt>
      <trkpt lat="38.4313780" lon="-2.4941870">
        <ele>1072.6</ele>
        <time>2019-11-01T11:19:08Z</time>
      </trkpt>
      <trkpt lat="38.4313190" lon="-2.4942690">
        <ele>1072.6</ele>
        <time>2019-11-01T11:19:09Z</time>
      </trkpt>
      <trkpt lat="38.4312600" lon="-2.4943450">
        <ele>1072.6</ele>
        <time>2019-11-01T11:19:10Z</time>
      </trkpt>
      <trkpt lat="38.4311990" lon="-2.4944160">
        <ele>1072.6</ele>
        <time>2019-11-01T11:19:11Z</time>
      </trkpt>
      <trkpt lat="38.4311320" lon="-2.4944840">
        <ele>1072.6</ele>
        <time>2019-11-01T11:19:12Z</time>
      </trkpt>
      <trkpt lat="38.4310760" lon="-2.4945470">
        <ele>1072.6</ele>
        <time>2019-11-01T11:19:13Z</time>
      </trkpt>
      <trkpt lat="38.4310200" lon="-2.4946160">
        <ele>1072.6</ele>
        <time>2019-11-01T11:19:14Z</time>
      </trkpt>
      <trkpt lat="38.4309730" lon="-2.4946900">
        <ele>1072.6</ele>
        <time>2019-11-01T11:19:15Z</time>
      </trkpt>
      <trkpt lat="38.4309380" lon="-2.4947690">
        <ele>1072.6</ele>
        <time>2019-11-01T11:19:16Z</time>
      </trkpt>
      <trkpt lat="38.4309270" lon="-2.4948490">
        <ele>1072.6</ele>
        <time>2019-11-01T11:19:17Z</time>
      </trkpt>
      <trkpt lat="38.4309350" lon="-2.4949260">
        <ele>1072.6</ele>
        <time>2019-11-01T11:19:18Z</time>
      </trkpt>
      <trkpt lat="38.4309580" lon="-2.4949930">
        <ele>1072.6</ele>
        <time>2019-11-01T11:19:19Z</time>
      </trkpt>
      <trkpt lat="38.4309990" lon="-2.4950580">
        <ele>1072.6</ele>
        <time>2019-11-01T11:19:20Z</time>
      </trkpt>
      <trkpt lat="38.4310450" lon="-2.4951140">
        <ele>1072.6</ele>
        <time>2019-11-01T11:19:21Z</time>
      </trkpt>
      <trkpt lat="38.4311040" lon="-2.4951710">
        <ele>1072.6</ele>
        <time>2019-11-01T11:19:22Z</time>
      </trkpt>
      <trkpt lat="38.4311680" lon="-2.4952280">
        <ele>1072.6</ele>
        <time>2019-11-01T11:19:23Z</time>
      </trkpt>
      <trkpt lat="38.4312290" lon="-2.4952850">
        <ele>1072.6</ele>
        <time>2019-11-01T11:19:24Z</time>
      </trkpt>
      <trkpt lat="38.4312990" lon="-2.4953460">
        <ele>1072.6</ele>
        <time>2019-11-01T11:19:25Z</time>
      </trkpt>
      <trkpt lat="38.4313650" lon="-2.4954100">
        <ele>1072.6</ele>
        <time>2019-11-01T11:19:26Z</time>
      </trkpt>
      <trkpt lat="38.4314390" lon="-2.4954760">
        <ele>1072.6</ele>
        <time>2019-11-01T11:19:27Z</time>
      </trkpt>
      <trkpt lat="38.4315140" lon="-2.4955490">
        <ele>1072.6</ele>
        <time>2019-11-01T11:19:28Z</time>
      </trkpt>
      <trkpt lat="38.4315880" lon="-2.4956230">
        <ele>1072.6</ele>
        <time>2019-11-01T11:19:29Z</time>
      </trkpt>
      <trkpt lat="38.4316520" lon="-2.4957020">
        <ele>1072.6</ele>
        <time>2019-11-01T11:19:30Z</time>
      </trkpt>
      <trkpt lat="38.4317000" lon="-2.4957800">
        <ele>1072.6</ele>
        <time>2019-11-01T11:19:31Z</time>
      </trkpt>
      <trkpt lat="38.4317390" lon="-2.4958760">
        <ele>1072.6</ele>
        <time>2019-11-01T11:19:32Z</time>
      </trkpt>
      <trkpt lat="38.4317590" lon="-2.4959780">
        <ele>1072.6</ele>
        <time>2019-11-01T11:19:33Z</time>
      </trkpt>
      <trkpt lat="38.4317670" lon="-2.4960850">
        <ele>1072.6</ele>
        <time>2019-11-01T11:19:34Z</time>
      </trkpt>
      <trkpt lat="38.4317620" lon="-2.4961990">
        <ele>1072.6</ele>
        <time>2019-11-01T11:19:35Z</time>
      </trkpt>
      <trkpt lat="38.4317520" lon="-2.4963160">
        <ele>1072.6</ele>
        <time>2019-11-01T11:19:36Z</time>
      </trkpt>
      <trkpt lat="38.4317310" lon="-2.4964360">
        <ele>1072.6</ele>
        <time>2019-11-01T11:19:37Z</time>
      </trkpt>
      <trkpt lat="38.4317080" lon="-2.4965580">
        <ele>1072.6</ele>
        <time>2019-11-01T11:19:38Z</time>
      </trkpt>
      <trkpt lat="38.4316880" lon="-2.4966790">
        <ele>1072.6</ele>
        <time>2019-11-01T11:19:39Z</time>
      </trkpt>
      <trkpt lat="38.4316670" lon="-2.4967970">
        <ele>1072.6</ele>
        <time>2019-11-01T11:19:40Z</time>
      </trkpt>
      <trkpt lat="38.4316570" lon="-2.4969120">
        <ele>1072.6</ele>
        <time>2019-11-01T11:19:41Z</time>
      </trkpt>
      <trkpt lat="38.4316600" lon="-2.4970250">
        <ele>1072.6</ele>
        <time>2019-11-01T11:19:42Z</time>
      </trkpt>
      <trkpt lat="38.4316750" lon="-2.4971330">
        <ele>1072.6</ele>
        <time>2019-11-01T11:19:43Z</time>
      </trkpt>
      <trkpt lat="38.4317000" lon="-2.4972350">
        <ele>1072.6</ele>
        <time>2019-11-01T11:19:44Z</time>
      </trkpt>
      <trkpt lat="38.4317390" lon="-2.4973240">
        <ele>1072.6</ele>
        <time>2019-11-01T11:19:45Z</time>
      </trkpt>
      <trkpt lat="38.4317900" lon="-2.4974080">
        <ele>1072.6</ele>
        <time>2019-11-01T11:19:46Z</time>
      </trkpt>
      <trkpt lat="38.4318440" lon="-2.4974780">
        <ele>1072.6</ele>
        <time>2019-11-01T11:19:47Z</time>
      </trkpt>
      <trkpt lat="38.4319030" lon="-2.4975340">
        <ele>1072.6</ele>
        <time>2019-11-01T11:19:48Z</time>
      </trkpt>
      <trkpt lat="38.4319690" lon="-2.4975800">
        <ele>1072.6</ele>
        <time>2019-11-01T11:19:49Z</time>
      </trkpt>
      <trkpt lat="38.4320260" lon="-2.4976190">
        <ele>1072.6</ele>
        <time>2019-11-01T11:19:50Z</time>
      </trkpt>
      <trkpt lat="38.4320790" lon="-2.4976530">
        <ele>1072.6</ele>
        <time>2019-11-01T11:19:51Z</time>
      </trkpt>
      <trkpt lat="38.4321430" lon="-2.4976590">
        <ele>1072.6</ele>
        <time>2019-11-01T11:19:52Z</time>
      </trkpt>
      <trkpt lat="38.4321950" lon="-2.4976770">
        <ele>1072.6</ele>
        <time>2019-11-01T11:19:53Z</time>
      </trkpt>
      <trkpt lat="38.4322690" lon="-2.4977040">
        <ele>1072.6</ele>
        <time>2019-11-01T11:19:55Z</time>
      </trkpt>
      <trkpt lat="38.4323610" lon="-2.4977220">
        <ele>1072.6</ele>
        <time>2019-11-01T11:19:57Z</time>
      </trkpt>
      <trkpt lat="38.4324530" lon="-2.4977360">
        <ele>1072.6</ele>
        <time>2019-11-01T11:19:59Z</time>
      </trkpt>
      <trkpt lat="38.4325070" lon="-2.4977460">
        <ele>1072.6</ele>
        <time>2019-11-01T11:20:00Z</time>
      </trkpt>
      <trkpt lat="38.4325630" lon="-2.4977600">
        <ele>1072.6</ele>
        <time>2019-11-01T11:20:01Z</time>
      </trkpt>
      <trkpt lat="38.4326170" lon="-2.4977790">
        <ele>1072.6</ele>
        <time>2019-11-01T11:20:02Z</time>
      </trkpt>
      <trkpt lat="38.4326710" lon="-2.4978040">
        <ele>1072.6</ele>
        <time>2019-11-01T11:20:03Z</time>
      </trkpt>
      <trkpt lat="38.4327190" lon="-2.4978400">
        <ele>1072.6</ele>
        <time>2019-11-01T11:20:04Z</time>
      </trkpt>
      <trkpt lat="38.4327550" lon="-2.4979060">
        <ele>1072.6</ele>
        <time>2019-11-01T11:20:05Z</time>
      </trkpt>
      <trkpt lat="38.4327960" lon="-2.4979830">
        <ele>1072.6</ele>
        <time>2019-11-01T11:20:06Z</time>
      </trkpt>
      <trkpt lat="38.4328350" lon="-2.4980690">
        <ele>1072.6</ele>
        <time>2019-11-01T11:20:07Z</time>
      </trkpt>
      <trkpt lat="38.4328680" lon="-2.4981650">
        <ele>1072.6</ele>
        <time>2019-11-01T11:20:08Z</time>
      </trkpt>
      <trkpt lat="38.4329040" lon="-2.4982650">
        <ele>1072.6</ele>
        <time>2019-11-01T11:20:09Z</time>
      </trkpt>
      <trkpt lat="38.4329290" lon="-2.4983670">
        <ele>1072.6</ele>
        <time>2019-11-01T11:20:10Z</time>
      </trkpt>
      <trkpt lat="38.4329500" lon="-2.4984670">
        <ele>1072.6</ele>
        <time>2019-11-01T11:20:11Z</time>
      </trkpt>
      <trkpt lat="38.4329600" lon="-2.4985570">
        <ele>1072.6</ele>
        <time>2019-11-01T11:20:12Z</time>
      </trkpt>
      <trkpt lat="38.4329500" lon="-2.4986420">
        <ele>1072.6</ele>
        <time>2019-11-01T11:20:13Z</time>
      </trkpt>
      <trkpt lat="38.4329270" lon="-2.4987110">
        <ele>1072.6</ele>
        <time>2019-11-01T11:20:14Z</time>
      </trkpt>
      <trkpt lat="38.4328650" lon="-2.4987520">
        <ele>1072.6</ele>
        <time>2019-11-01T11:20:15Z</time>
      </trkpt>
      <trkpt lat="38.4328090" lon="-2.4987940">
        <ele>1072.6</ele>
        <time>2019-11-01T11:20:16Z</time>
      </trkpt>
      <trkpt lat="38.4327500" lon="-2.4988360">
        <ele>1072.6</ele>
        <time>2019-11-01T11:20:17Z</time>
      </trkpt>
      <trkpt lat="38.4327010" lon="-2.4988770">
        <ele>1072.6</ele>
        <time>2019-11-01T11:20:18Z</time>
      </trkpt>
      <trkpt lat="38.4326020" lon="-2.4989740">
        <ele>1072.6</ele>
        <time>2019-11-01T11:20:20Z</time>
      </trkpt>
      <trkpt lat="38.4325560" lon="-2.4990250">
        <ele>1072.6</ele>
        <time>2019-11-01T11:20:21Z</time>
      </trkpt>
      <trkpt lat="38.4325170" lon="-2.4990780">
        <ele>1072.6</ele>
        <time>2019-11-01T11:20:22Z</time>
      </trkpt>
      <trkpt lat="38.4324840" lon="-2.4991330">
        <ele>1072.6</ele>
        <time>2019-11-01T11:20:23Z</time>
      </trkpt>
      <trkpt lat="38.4324530" lon="-2.4991900">
        <ele>1072.6</ele>
        <time>2019-11-01T11:20:24Z</time>
      </trkpt>
      <trkpt lat="38.4324280" lon="-2.4992450">
        <ele>1072.6</ele>
        <time>2019-11-01T11:20:25Z</time>
      </trkpt>
      <trkpt lat="38.4323690" lon="-2.4993450">
        <ele>1072.6</ele>
        <time>2019-11-01T11:20:27Z</time>
      </trkpt>
      <trkpt lat="38.4322890" lon="-2.4994090">
        <ele>1072.6</ele>
        <time>2019-11-01T11:20:29Z</time>
      </trkpt>
      <trkpt lat="38.4321950" lon="-2.4994450">
        <ele>1072.6</ele>
        <time>2019-11-01T11:20:31Z</time>
      </trkpt>
      <trkpt lat="38.4321410" lon="-2.4994580">
        <ele>1072.6</ele>
        <time>2019-11-01T11:20:32Z</time>
      </trkpt>
      <trkpt lat="38.4320870" lon="-2.4994700">
        <ele>1072.6</ele>
        <time>2019-11-01T11:20:33Z</time>
      </trkpt>
      <trkpt lat="38.4320330" lon="-2.4994820">
        <ele>1072.6</ele>
        <time>2019-11-01T11:20:34Z</time>
      </trkpt>
      <trkpt lat="38.4319690" lon="-2.4994990">
        <ele>1072.6</ele>
        <time>2019-11-01T11:20:35Z</time>
      </trkpt>
      <trkpt lat="38.4319080" lon="-2.4995200">
        <ele>1072.6</ele>
        <time>2019-11-01T11:20:36Z</time>
      </trkpt>
      <trkpt lat="38.4318440" lon="-2.4995470">
        <ele>1072.6</ele>
        <time>2019-11-01T11:20:37Z</time>
      </trkpt>
      <trkpt lat="38.4317820" lon="-2.4995780">
        <ele>1072.6</ele>
        <time>2019-11-01T11:20:38Z</time>
      </trkpt>
      <trkpt lat="38.4317210" lon="-2.4996100">
        <ele>1072.6</ele>
        <time>2019-11-01T11:20:39Z</time>
      </trkpt>
      <trkpt lat="38.4316570" lon="-2.4996500">
        <ele>1072.6</ele>
        <time>2019-11-01T11:20:40Z</time>
      </trkpt>
      <trkpt lat="38.4315900" lon="-2.4996930">
        <ele>1072.6</ele>
        <time>2019-11-01T11:20:41Z</time>
      </trkpt>
      <trkpt lat="38.4315290" lon="-2.4997390">
        <ele>1070.6</ele>
        <time>2019-11-01T11:20:42Z</time>
      </trkpt>
      <trkpt lat="38.4314160" lon="-2.4998350">
        <ele>1070.6</ele>
        <time>2019-11-01T11:20:44Z</time>
      </trkpt>
      <trkpt lat="38.4313570" lon="-2.4998800">
        <ele>1070.6</ele>
        <time>2019-11-01T11:20:45Z</time>
      </trkpt>
      <trkpt lat="38.4312240" lon="-2.4999830">
        <ele>1070.6</ele>
        <time>2019-11-01T11:20:47Z</time>
      </trkpt>
      <trkpt lat="38.4311710" lon="-2.5000370">
        <ele>1070.6</ele>
        <time>2019-11-01T11:20:48Z</time>
      </trkpt>
      <trkpt lat="38.4311170" lon="-2.5000960">
        <ele>1070.6</ele>
        <time>2019-11-01T11:20:49Z</time>
      </trkpt>
      <trkpt lat="38.4310600" lon="-2.5001580">
        <ele>1070.6</ele>
        <time>2019-11-01T11:20:50Z</time>
      </trkpt>
      <trkpt lat="38.4309990" lon="-2.5002240">
        <ele>1070.6</ele>
        <time>2019-11-01T11:20:51Z</time>
      </trkpt>
      <trkpt lat="38.4309300" lon="-2.5002930">
        <ele>1070.6</ele>
        <time>2019-11-01T11:20:52Z</time>
      </trkpt>
      <trkpt lat="38.4308710" lon="-2.5003590">
        <ele>1070.6</ele>
        <time>2019-11-01T11:20:53Z</time>
      </trkpt>
      <trkpt lat="38.4308040" lon="-2.5004240">
        <ele>1070.6</ele>
        <time>2019-11-01T11:20:54Z</time>
      </trkpt>
      <trkpt lat="38.4307480" lon="-2.5004810">
        <ele>1070.6</ele>
        <time>2019-11-01T11:20:55Z</time>
      </trkpt>
      <trkpt lat="38.4306760" lon="-2.5005360">
        <ele>1070.6</ele>
        <time>2019-11-01T11:20:56Z</time>
      </trkpt>
      <trkpt lat="38.4306070" lon="-2.5005880">
        <ele>1070.6</ele>
        <time>2019-11-01T11:20:57Z</time>
      </trkpt>
      <trkpt lat="38.4305380" lon="-2.5006420">
        <ele>1070.6</ele>
        <time>2019-11-01T11:20:58Z</time>
      </trkpt>
      <trkpt lat="38.4304740" lon="-2.5007030">
        <ele>1070.6</ele>
        <time>2019-11-01T11:20:59Z</time>
      </trkpt>
      <trkpt lat="38.4304200" lon="-2.5007670">
        <ele>1070.6</ele>
        <time>2019-11-01T11:21:00Z</time>
      </trkpt>
      <trkpt lat="38.4303620" lon="-2.5008470">
        <ele>1068.4</ele>
        <time>2019-11-01T11:21:01Z</time>
      </trkpt>
      <trkpt lat="38.4303180" lon="-2.5009330">
        <ele>1068.4</ele>
        <time>2019-11-01T11:21:02Z</time>
      </trkpt>
      <trkpt lat="38.4302750" lon="-2.5010220">
        <ele>1068.4</ele>
        <time>2019-11-01T11:21:03Z</time>
      </trkpt>
      <trkpt lat="38.4302410" lon="-2.5011100">
        <ele>1068.4</ele>
        <time>2019-11-01T11:21:04Z</time>
      </trkpt>
      <trkpt lat="38.4302110" lon="-2.5012150">
        <ele>1068.4</ele>
        <time>2019-11-01T11:21:05Z</time>
      </trkpt>
      <trkpt lat="38.4301880" lon="-2.5013290">
        <ele>1068.4</ele>
        <time>2019-11-01T11:21:06Z</time>
      </trkpt>
      <trkpt lat="38.4301670" lon="-2.5014500">
        <ele>1068.4</ele>
        <time>2019-11-01T11:21:07Z</time>
      </trkpt>
      <trkpt lat="38.4301520" lon="-2.5015770">
        <ele>1068.4</ele>
        <time>2019-11-01T11:21:08Z</time>
      </trkpt>
      <trkpt lat="38.4301390" lon="-2.5017090">
        <ele>1068.4</ele>
        <time>2019-11-01T11:21:09Z</time>
      </trkpt>
      <trkpt lat="38.4301260" lon="-2.5018450">
        <ele>1068.4</ele>
        <time>2019-11-01T11:21:10Z</time>
      </trkpt>
      <trkpt lat="38.4301160" lon="-2.5019830">
        <ele>1068.4</ele>
        <time>2019-11-01T11:21:11Z</time>
      </trkpt>
      <trkpt lat="38.4301080" lon="-2.5021130">
        <ele>1068.4</ele>
        <time>2019-11-01T11:21:12Z</time>
      </trkpt>
      <trkpt lat="38.4300950" lon="-2.5022540">
        <ele>1068.4</ele>
        <time>2019-11-01T11:21:13Z</time>
      </trkpt>
      <trkpt lat="38.4300880" lon="-2.5023910">
        <ele>1068.4</ele>
        <time>2019-11-01T11:21:14Z</time>
      </trkpt>
      <trkpt lat="38.4300800" lon="-2.5025140">
        <ele>1066.3</ele>
        <time>2019-11-01T11:21:15Z</time>
      </trkpt>
      <trkpt lat="38.4300770" lon="-2.5026360">
        <ele>1066.3</ele>
        <time>2019-11-01T11:21:16Z</time>
      </trkpt>
      <trkpt lat="38.4300700" lon="-2.5027610">
        <ele>1066.3</ele>
        <time>2019-11-01T11:21:17Z</time>
      </trkpt>
      <trkpt lat="38.4300620" lon="-2.5028820">
        <ele>1066.3</ele>
        <time>2019-11-01T11:21:18Z</time>
      </trkpt>
      <trkpt lat="38.4300470" lon="-2.5029960">
        <ele>1066.3</ele>
        <time>2019-11-01T11:21:19Z</time>
      </trkpt>
      <trkpt lat="38.4300310" lon="-2.5031050">
        <ele>1066.3</ele>
        <time>2019-11-01T11:21:20Z</time>
      </trkpt>
      <trkpt lat="38.4300160" lon="-2.5032100">
        <ele>1066.3</ele>
        <time>2019-11-01T11:21:21Z</time>
      </trkpt>
      <trkpt lat="38.4299960" lon="-2.5033130">
        <ele>1066.3</ele>
        <time>2019-11-01T11:21:22Z</time>
      </trkpt>
      <trkpt lat="38.4299800" lon="-2.5034130">
        <ele>1066.3</ele>
        <time>2019-11-01T11:21:23Z</time>
      </trkpt>
      <trkpt lat="38.4299700" lon="-2.5035060">
        <ele>1066.3</ele>
        <time>2019-11-01T11:21:24Z</time>
      </trkpt>
      <trkpt lat="38.4299620" lon="-2.5035900">
        <ele>1066.3</ele>
        <time>2019-11-01T11:21:25Z</time>
      </trkpt>
      <trkpt lat="38.4299550" lon="-2.5036630">
        <ele>1063.9</ele>
        <time>2019-11-01T11:21:26Z</time>
      </trkpt>
      <trkpt lat="38.4299700" lon="-2.5037170">
        <ele>1063.9</ele>
        <time>2019-11-01T11:21:27Z</time>
      </trkpt>
      <trkpt lat="38.4299850" lon="-2.5037750">
        <ele>1063.9</ele>
        <time>2019-11-01T11:21:29Z</time>
      </trkpt>
      <trkpt lat="38.4300110" lon="-2.5038050">
        <ele>1063.9</ele>
        <time>2019-11-01T11:21:32Z</time>
      </trkpt>
      <trkpt lat="38.4299880" lon="-2.5038710">
        <ele>1061.7</ele>
        <time>2019-11-01T11:22:05Z</time>
      </trkpt>
      <trkpt lat="38.4300030" lon="-2.5039920">
        <ele>1059.7</ele>
        <time>2019-11-01T11:22:10Z</time>
      </trkpt>
      <trkpt lat="38.4300160" lon="-2.5040790">
        <ele>1059.7</ele>
        <time>2019-11-01T11:22:12Z</time>
      </trkpt>
      <trkpt lat="38.4300390" lon="-2.5041770">
        <ele>1059.7</ele>
        <time>2019-11-01T11:22:14Z</time>
      </trkpt>
      <trkpt lat="38.4300700" lon="-2.5042710">
        <ele>1059.7</ele>
        <time>2019-11-01T11:22:16Z</time>
      </trkpt>
      <trkpt lat="38.4300950" lon="-2.5043510">
        <ele>1059.7</ele>
        <time>2019-11-01T11:22:18Z</time>
      </trkpt>
      <trkpt lat="38.4301180" lon="-2.5044130">
        <ele>1059.7</ele>
        <time>2019-11-01T11:22:20Z</time>
      </trkpt>
      <trkpt lat="38.4301560" lon="-2.5044680">
        <ele>1057.3</ele>
        <time>2019-11-01T11:22:22Z</time>
      </trkpt>
      <trkpt lat="38.4301720" lon="-2.5044860">
        <ele>1055.1</ele>
        <time>2019-11-01T11:23:14Z</time>
      </trkpt>
      <trkpt lat="38.4301890" lon="-2.5045040">
        <ele>1048.9</ele>
        <time>2019-11-01T11:25:14Z</time>
      </trkpt>
      <trkpt lat="38.4302060" lon="-2.5045220">
        <ele>1044.6</ele>
        <time>2019-11-01T11:25:48Z</time>
      </trkpt>
      <trkpt lat="38.4302220" lon="-2.5045400">
        <ele>1044.6</ele>
        <time>2019-11-01T11:25:49Z</time>
      </trkpt>
      <trkpt lat="38.4302390" lon="-2.5045580">
        <ele>1039.9</ele>
        <time>2019-11-01T11:25:55Z</time>
      </trkpt>
      <trkpt lat="38.4302550" lon="-2.5045760">
        <ele>1039.9</ele>
        <time>2019-11-01T11:26:05Z</time>
      </trkpt>
      <trkpt lat="38.4302720" lon="-2.5045940">
        <ele>1039.9</ele>
        <time>2019-11-01T11:26:07Z</time>
      </trkpt>
      <trkpt lat="38.4303590" lon="-2.5045840">
        <ele>1039.9</ele>
        <time>2019-11-01T11:26:08Z</time>
      </trkpt>
      <trkpt lat="38.4304380" lon="-2.5045780">
        <ele>1039.9</ele>
        <time>2019-11-01T11:26:09Z</time>
      </trkpt>
      <trkpt lat="38.4304920" lon="-2.5045700">
        <ele>1039.9</ele>
        <time>2019-11-01T11:26:10Z</time>
      </trkpt>
      <trkpt lat="38.4305410" lon="-2.5045640">
        <ele>1039.9</ele>
        <time>2019-11-01T11:26:11Z</time>
      </trkpt>
      <trkpt lat="38.4305640" lon="-2.5045640">
        <ele>1039.9</ele>
        <time>2019-11-01T11:26:12Z</time>
      </trkpt>
      <trkpt lat="38.4304770" lon="-2.5045630">
        <ele>1039.9</ele>
        <time>2019-11-01T11:26:14Z</time>
      </trkpt>
      <trkpt lat="38.4303670" lon="-2.5045540">
        <ele>1039.9</ele>
        <time>2019-11-01T11:26:19Z</time>
      </trkpt>
      <trkpt lat="38.4303180" lon="-2.5045500">
        <ele>1039.9</ele>
        <time>2019-11-01T11:26:22Z</time>
      </trkpt>
      <trkpt lat="38.4302590" lon="-2.5045550">
        <ele>1039.9</ele>
        <time>2019-11-01T11:26:26Z</time>
      </trkpt>
      <trkpt lat="38.4302050" lon="-2.5045420">
        <ele>1039.9</ele>
        <time>2019-11-01T11:26:29Z</time>
      </trkpt>
      <trkpt lat="38.4301590" lon="-2.5045340">
        <ele>1039.9</ele>
        <time>2019-11-01T11:26:33Z</time>
      </trkpt>
      <trkpt lat="38.4301110" lon="-2.5045510">
        <ele>1039.9</ele>
        <time>2019-11-01T11:26:38Z</time>
      </trkpt>
      <trkpt lat="38.4301000" lon="-2.5046260">
        <ele>1039.9</ele>
        <time>2019-11-01T11:26:42Z</time>
      </trkpt>
      <trkpt lat="38.4298210" lon="-2.5048000">
        <ele>1039.9</ele>
        <time>2019-11-01T11:27:09Z</time>
      </trkpt>
      <trkpt lat="38.4299140" lon="-2.5047140">
        <ele>1039.9</ele>
        <time>2019-11-01T11:27:14Z</time>
      </trkpt>
      <trkpt lat="38.4300030" lon="-2.5046220">
        <ele>1039.9</ele>
        <time>2019-11-01T11:27:16Z</time>
      </trkpt>
      <trkpt lat="38.4300470" lon="-2.5045820">
        <ele>1039.9</ele>
        <time>2019-11-01T11:27:17Z</time>
      </trkpt>
      <trkpt lat="38.4300880" lon="-2.5045430">
        <ele>1039.9</ele>
        <time>2019-11-01T11:27:18Z</time>
      </trkpt>
      <trkpt lat="38.4301260" lon="-2.5045160">
        <ele>1039.9</ele>
        <time>2019-11-01T11:27:19Z</time>
      </trkpt>
      <trkpt lat="38.4301490" lon="-2.5045000">
        <ele>1039.9</ele>
        <time>2019-11-01T11:27:21Z</time>
      </trkpt>
      <trkpt lat="38.4300930" lon="-2.5045670">
        <ele>1039.9</ele>
        <time>2019-11-01T11:27:27Z</time>
      </trkpt>
      <trkpt lat="38.4300540" lon="-2.5046130">
        <ele>1039.9</ele>
        <time>2019-11-01T11:27:30Z</time>
      </trkpt>
      <trkpt lat="38.4300260" lon="-2.5045950">
        <ele>1039.9</ele>
        <time>2019-11-01T11:27:43Z</time>
      </trkpt>
      <trkpt lat="38.4300470" lon="-2.5045340">
        <ele>1039.9</ele>
        <time>2019-11-01T11:27:51Z</time>
      </trkpt>
      <trkpt lat="38.4300540" lon="-2.5045350">
        <ele>1039.9</ele>
        <time>2019-11-01T11:28:00Z</time>
      </trkpt>
      <trkpt lat="38.4300930" lon="-2.5045920">
        <ele>1039.9</ele>
        <time>2019-11-01T11:28:04Z</time>
      </trkpt>
      <trkpt lat="38.4300700" lon="-2.5045940">
        <ele>1039.9</ele>
        <time>2019-11-01T11:28:17Z</time>
      </trkpt>
      <trkpt lat="38.4300700" lon="-2.5045420">
        <ele>1039.9</ele>
        <time>2019-11-01T11:28:19Z</time>
      </trkpt>
      <trkpt lat="38.4300770" lon="-2.5046200">
        <ele>1039.9</ele>
        <time>2019-11-01T11:28:23Z</time>
      </trkpt>
      <trkpt lat="38.4300850" lon="-2.5046850">
        <ele>1039.9</ele>
        <time>2019-11-01T11:28:25Z</time>
      </trkpt>
      <trkpt lat="38.4300930" lon="-2.5047520">
        <ele>1039.9</ele>
        <time>2019-11-01T11:28:28Z</time>
      </trkpt>
      <trkpt lat="38.4301160" lon="-2.5047840">
        <ele>1039.9</ele>
        <time>2019-11-01T11:28:33Z</time>
      </trkpt>
      <trkpt lat="38.4301260" lon="-2.5048440">
        <ele>1039.9</ele>
        <time>2019-11-01T11:28:37Z</time>
      </trkpt>
      <trkpt lat="38.4301180" lon="-2.5047740">
        <ele>1039.9</ele>
        <time>2019-11-01T11:28:42Z</time>
      </trkpt>
      <trkpt lat="38.4300850" lon="-2.5047190">
        <ele>1039.9</ele>
        <time>2019-11-01T11:28:44Z</time>
      </trkpt>
      <trkpt lat="38.4300770" lon="-2.5046700">
        <ele>1039.9</ele>
        <time>2019-11-01T11:28:47Z</time>
      </trkpt>
      <trkpt lat="38.4301160" lon="-2.5046800">
        <ele>1039.9</ele>
        <time>2019-11-01T11:28:51Z</time>
      </trkpt>
      <trkpt lat="38.4300800" lon="-2.5047300">
        <ele>1039.9</ele>
        <time>2019-11-01T11:28:55Z</time>
      </trkpt>
      <trkpt lat="38.4300160" lon="-2.5045790">
        <ele>1039.9</ele>
        <time>2019-11-01T11:28:58Z</time>
      </trkpt>
      <trkpt lat="38.4299850" lon="-2.5044990">
        <ele>1039.9</ele>
        <time>2019-11-01T11:29:00Z</time>
      </trkpt>
      <trkpt lat="38.4299490" lon="-2.5044130">
        <ele>1039.9</ele>
        <time>2019-11-01T11:29:02Z</time>
      </trkpt>
      <trkpt lat="38.4299210" lon="-2.5043140">
        <ele>1039.9</ele>
        <time>2019-11-01T11:29:04Z</time>
      </trkpt>
      <trkpt lat="38.4299320" lon="-2.5042870">
        <ele>1039.9</ele>
        <time>2019-11-01T11:29:11Z</time>
      </trkpt>
      <trkpt lat="38.4301800" lon="-2.5045850">
        <ele>1039.9</ele>
        <time>2019-11-01T11:29:28Z</time>
      </trkpt>
      <trkpt lat="38.4302590" lon="-2.5044950">
        <ele>1039.9</ele>
        <time>2019-11-01T11:29:40Z</time>
      </trkpt>
      <trkpt lat="38.4302340" lon="-2.5042880">
        <ele>1039.9</ele>
        <time>2019-11-01T11:29:52Z</time>
      </trkpt>
      <trkpt lat="38.4300950" lon="-2.5047270">
        <ele>1039.9</ele>
        <time>2019-11-01T11:30:28Z</time>
      </trkpt>
      <trkpt lat="38.4304150" lon="-2.5037300">
        <ele>1039.9</ele>
        <time>2019-11-01T11:31:21Z</time>
      </trkpt>
      <trkpt lat="38.4299700" lon="-2.5048840">
        <ele>1039.9</ele>
        <time>2019-11-01T11:31:38Z</time>
      </trkpt>
      <trkpt lat="38.4299800" lon="-2.5048140">
        <ele>1039.9</ele>
        <time>2019-11-01T11:31:45Z</time>
      </trkpt>
      <trkpt lat="38.4300570" lon="-2.5047740">
        <ele>1039.9</ele>
        <time>2019-11-01T11:31:52Z</time>
      </trkpt>
      <trkpt lat="38.4302570" lon="-2.5048560">
        <ele>1039.9</ele>
        <time>2019-11-01T11:32:14Z</time>
      </trkpt>
      <trkpt lat="38.4302750" lon="-2.5046920">
        <ele>1039.9</ele>
        <time>2019-11-01T11:32:18Z</time>
      </trkpt>
      <trkpt lat="38.4302750" lon="-2.5046390">
        <ele>1039.9</ele>
        <time>2019-11-01T11:32:19Z</time>
      </trkpt>
      <trkpt lat="38.4302900" lon="-2.5045870">
        <ele>1039.9</ele>
        <time>2019-11-01T11:32:21Z</time>
      </trkpt>
      <trkpt lat="38.4303100" lon="-2.5045740">
        <ele>1039.9</ele>
        <time>2019-11-01T11:32:23Z</time>
      </trkpt>
      <trkpt lat="38.4304080" lon="-2.5045880">
        <ele>1039.9</ele>
        <time>2019-11-01T11:32:30Z</time>
      </trkpt>
      <trkpt lat="38.4304510" lon="-2.5045640">
        <ele>1039.9</ele>
        <time>2019-11-01T11:32:32Z</time>
      </trkpt>
      <trkpt lat="38.4303330" lon="-2.5045740">
        <ele>1039.9</ele>
        <time>2019-11-01T11:32:34Z</time>
      </trkpt>
      <trkpt lat="38.4302820" lon="-2.5045900">
        <ele>1039.9</ele>
        <time>2019-11-01T11:32:35Z</time>
      </trkpt>
      <trkpt lat="38.4302130" lon="-2.5046250">
        <ele>1039.9</ele>
        <time>2019-11-01T11:32:37Z</time>
      </trkpt>
      <trkpt lat="38.4301720" lon="-2.5046610">
        <ele>1039.9</ele>
        <time>2019-11-01T11:32:39Z</time>
      </trkpt>
      <trkpt lat="38.4301390" lon="-2.5047000">
        <ele>1039.9</ele>
        <time>2019-11-01T11:32:41Z</time>
      </trkpt>
      <trkpt lat="38.4301160" lon="-2.5047470">
        <ele>1039.9</ele>
        <time>2019-11-01T11:32:44Z</time>
      </trkpt>
      <trkpt lat="38.4300850" lon="-2.5048000">
        <ele>1039.9</ele>
        <time>2019-11-01T11:32:48Z</time>
      </trkpt>
      <trkpt lat="38.4300310" lon="-2.5047820">
        <ele>1039.9</ele>
        <time>2019-11-01T11:32:52Z</time>
      </trkpt>
      <trkpt lat="38.4300240" lon="-2.5047730">
        <ele>1039.9</ele>
        <time>2019-11-01T11:32:56Z</time>
      </trkpt>
      <trkpt lat="38.4300570" lon="-2.5047240">
        <ele>1039.9</ele>
        <time>2019-11-01T11:33:00Z</time>
      </trkpt>
      <trkpt lat="38.4300770" lon="-2.5047640">
        <ele>1039.9</ele>
        <time>2019-11-01T11:33:07Z</time>
      </trkpt>
      <trkpt lat="38.4299880" lon="-2.5048060">
        <ele>1039.9</ele>
        <time>2019-11-01T11:33:13Z</time>
      </trkpt>
      <trkpt lat="38.4299490" lon="-2.5048510">
        <ele>1039.9</ele>
        <time>2019-11-01T11:33:15Z</time>
      </trkpt>
      <trkpt lat="38.4300110" lon="-2.5047880">
        <ele>1039.9</ele>
        <time>2019-11-01T11:33:22Z</time>
      </trkpt>
      <trkpt lat="38.4299720" lon="-2.5047130">
        <ele>1039.9</ele>
        <time>2019-11-01T11:33:26Z</time>
      </trkpt>
      <trkpt lat="38.4298390" lon="-2.5045850">
        <ele>1039.9</ele>
        <time>2019-11-01T11:33:35Z</time>
      </trkpt>
      <trkpt lat="38.4300470" lon="-2.5047130">
        <ele>1039.9</ele>
        <time>2019-11-01T11:33:50Z</time>
      </trkpt>
      <trkpt lat="38.4300720" lon="-2.5047460">
        <ele>1039.9</ele>
        <time>2019-11-01T11:33:52Z</time>
      </trkpt>
      <trkpt lat="38.4301240" lon="-2.5048630">
        <ele>1039.9</ele>
        <time>2019-11-01T11:34:01Z</time>
      </trkpt>
      <trkpt lat="38.4301110" lon="-2.5048380">
        <ele>1039.9</ele>
        <time>2019-11-01T11:34:05Z</time>
      </trkpt>
      <trkpt lat="38.4300880" lon="-2.5045070">
        <ele>1039.9</ele>
        <time>2019-11-01T11:34:13Z</time>
      </trkpt>
      <trkpt lat="38.4300850" lon="-2.5044380">
        <ele>1039.9</ele>
        <time>2019-11-01T11:34:14Z</time>
      </trkpt>
      <trkpt lat="38.4298700" lon="-2.5048730">
        <ele>1039.9</ele>
        <time>2019-11-01T11:34:30Z</time>
      </trkpt>
      <trkpt lat="38.4299550" lon="-2.5045900">
        <ele>1039.9</ele>
        <time>2019-11-01T11:34:56Z</time>
      </trkpt>
      <trkpt lat="38.4300850" lon="-2.5045290">
        <ele>1039.9</ele>
        <time>2019-11-01T11:34:58Z</time>
      </trkpt>
      <trkpt lat="38.4301410" lon="-2.5044900">
        <ele>1039.9</ele>
        <time>2019-11-01T11:34:59Z</time>
      </trkpt>
      <trkpt lat="38.4301880" lon="-2.5044660">
        <ele>1039.9</ele>
        <time>2019-11-01T11:35:00Z</time>
      </trkpt>
      <trkpt lat="38.4302260" lon="-2.5044670">
        <ele>1039.9</ele>
        <time>2019-11-01T11:35:02Z</time>
      </trkpt>
      <trkpt lat="38.4301520" lon="-2.5045150">
        <ele>1039.9</ele>
        <time>2019-11-01T11:35:05Z</time>
      </trkpt>
      <trkpt lat="38.4300720" lon="-2.5045230">
        <ele>1039.9</ele>
        <time>2019-11-01T11:35:07Z</time>
      </trkpt>
      <trkpt lat="38.4300340" lon="-2.5045320">
        <ele>1039.9</ele>
        <time>2019-11-01T11:35:10Z</time>
      </trkpt>
      <trkpt lat="38.4300420" lon="-2.5044560">
        <ele>1039.9</ele>
        <time>2019-11-01T11:35:15Z</time>
      </trkpt>
      <trkpt lat="38.4300880" lon="-2.5044400">
        <ele>1039.9</ele>
        <time>2019-11-01T11:35:19Z</time>
      </trkpt>
      <trkpt lat="38.4301340" lon="-2.5044100">
        <ele>1039.9</ele>
        <time>2019-11-01T11:35:24Z</time>
      </trkpt>
      <trkpt lat="38.4300080" lon="-2.5044830">
        <ele>1039.9</ele>
        <time>2019-11-01T11:35:26Z</time>
      </trkpt>
      <trkpt lat="38.4299440" lon="-2.5045210">
        <ele>1039.9</ele>
        <time>2019-11-01T11:35:27Z</time>
      </trkpt>
      <trkpt lat="38.4298750" lon="-2.5045610">
        <ele>1039.9</ele>
        <time>2019-11-01T11:35:28Z</time>
      </trkpt>
      <trkpt lat="38.4298060" lon="-2.5046010">
        <ele>1039.9</ele>
        <time>2019-11-01T11:35:29Z</time>
      </trkpt>
      <trkpt lat="38.4297520" lon="-2.5046310">
        <ele>1039.9</ele>
        <time>2019-11-01T11:35:30Z</time>
      </trkpt>
      <trkpt lat="38.4297270" lon="-2.5046570">
        <ele>1039.9</ele>
        <time>2019-11-01T11:35:31Z</time>
      </trkpt>
      <trkpt lat="38.4297040" lon="-2.5047020">
        <ele>1039.9</ele>
        <time>2019-11-01T11:35:33Z</time>
      </trkpt>
      <trkpt lat="38.4296760" lon="-2.5047240">
        <ele>1039.9</ele>
        <time>2019-11-01T11:35:36Z</time>
      </trkpt>
      <trkpt lat="38.4296520" lon="-2.5048230">
        <ele>1039.9</ele>
        <time>2019-11-01T11:35:41Z</time>
      </trkpt>
      <trkpt lat="38.4296060" lon="-2.5050080">
        <ele>1039.9</ele>
        <time>2019-11-01T11:35:48Z</time>
      </trkpt>
      <trkpt lat="38.4296960" lon="-2.5049610">
        <ele>1039.9</ele>
        <time>2019-11-01T11:35:51Z</time>
      </trkpt>
      <trkpt lat="38.4297450" lon="-2.5049270">
        <ele>1039.9</ele>
        <time>2019-11-01T11:35:53Z</time>
      </trkpt>
      <trkpt lat="38.4297700" lon="-2.5048900">
        <ele>1039.9</ele>
        <time>2019-11-01T11:35:56Z</time>
      </trkpt>
      <trkpt lat="38.4297860" lon="-2.5047730">
        <ele>1039.9</ele>
        <time>2019-11-01T11:36:08Z</time>
      </trkpt>
      <trkpt lat="38.4298830" lon="-2.5046400">
        <ele>1039.9</ele>
        <time>2019-11-01T11:36:16Z</time>
      </trkpt>
      <trkpt lat="38.4299010" lon="-2.5046200">
        <ele>1039.9</ele>
        <time>2019-11-01T11:36:18Z</time>
      </trkpt>
      <trkpt lat="38.4299320" lon="-2.5045650">
        <ele>1039.9</ele>
        <time>2019-11-01T11:36:23Z</time>
      </trkpt>
      <trkpt lat="38.4299440" lon="-2.5045030">
        <ele>1039.9</ele>
        <time>2019-11-01T11:36:27Z</time>
      </trkpt>
      <trkpt lat="38.4299780" lon="-2.5044420">
        <ele>1039.9</ele>
        <time>2019-11-01T11:36:32Z</time>
      </trkpt>
      <trkpt lat="38.4301000" lon="-2.5044250">
        <ele>1039.9</ele>
        <time>2019-11-01T11:36:37Z</time>
      </trkpt>
      <trkpt lat="38.4301440" lon="-2.5044310">
        <ele>1039.9</ele>
        <time>2019-11-01T11:36:38Z</time>
      </trkpt>
      <trkpt lat="38.4302280" lon="-2.5044140">
        <ele>1039.9</ele>
        <time>2019-11-01T11:36:41Z</time>
      </trkpt>
      <trkpt lat="38.4302490" lon="-2.5044050">
        <ele>1039.9</ele>
        <time>2019-11-01T11:36:42Z</time>
      </trkpt>
      <trkpt lat="38.4301590" lon="-2.5044190">
        <ele>1039.9</ele>
        <time>2019-11-01T11:36:45Z</time>
      </trkpt>
      <trkpt lat="38.4301160" lon="-2.5044400">
        <ele>1039.9</ele>
        <time>2019-11-01T11:36:47Z</time>
      </trkpt>
      <trkpt lat="38.4300700" lon="-2.5044780">
        <ele>1039.9</ele>
        <time>2019-11-01T11:36:49Z</time>
      </trkpt>
      <trkpt lat="38.4300310" lon="-2.5045250">
        <ele>1039.9</ele>
        <time>2019-11-01T11:36:51Z</time>
      </trkpt>
      <trkpt lat="38.4302900" lon="-2.5044220">
        <ele>1039.9</ele>
        <time>2019-11-01T11:36:53Z</time>
      </trkpt>
      <trkpt lat="38.4304200" lon="-2.5043570">
        <ele>1039.9</ele>
        <time>2019-11-01T11:36:54Z</time>
      </trkpt>
      <trkpt lat="38.4305690" lon="-2.5042750">
        <ele>1039.9</ele>
        <time>2019-11-01T11:36:55Z</time>
      </trkpt>
      <trkpt lat="38.4307510" lon="-2.5041690">
        <ele>1039.9</ele>
        <time>2019-11-01T11:36:57Z</time>
      </trkpt>
      <trkpt lat="38.4309150" lon="-2.5041010">
        <ele>1039.9</ele>
        <time>2019-11-01T11:36:58Z</time>
      </trkpt>
      <trkpt lat="38.4314470" lon="-2.5041690">
        <ele>1039.9</ele>
        <time>2019-11-01T11:37:03Z</time>
      </trkpt>
      <trkpt lat="38.4313880" lon="-2.5042080">
        <ele>1039.9</ele>
        <time>2019-11-01T11:37:04Z</time>
      </trkpt>
      <trkpt lat="38.4313570" lon="-2.5042470">
        <ele>1039.9</ele>
        <time>2019-11-01T11:37:05Z</time>
      </trkpt>
      <trkpt lat="38.4313470" lon="-2.5043090">
        <ele>1039.9</ele>
        <time>2019-11-01T11:37:07Z</time>
      </trkpt>
      <trkpt lat="38.4313190" lon="-2.5043920">
        <ele>1039.9</ele>
        <time>2019-11-01T11:37:10Z</time>
      </trkpt>
      <trkpt lat="38.4312760" lon="-2.5044760">
        <ele>1039.9</ele>
        <time>2019-11-01T11:37:13Z</time>
      </trkpt>
      <trkpt lat="38.4312170" lon="-2.5045310">
        <ele>1039.9</ele>
        <time>2019-11-01T11:37:15Z</time>
      </trkpt>
      <trkpt lat="38.4311140" lon="-2.5045850">
        <ele>1039.9</ele>
        <time>2019-11-01T11:37:17Z</time>
      </trkpt>
      <trkpt lat="38.4310600" lon="-2.5046130">
        <ele>1039.9</ele>
        <time>2019-11-01T11:37:18Z</time>
      </trkpt>
      <trkpt lat="38.4310140" lon="-2.5046390">
        <ele>1039.9</ele>
        <time>2019-11-01T11:37:19Z</time>
      </trkpt>
      <trkpt lat="38.4309730" lon="-2.5046640">
        <ele>1039.9</ele>
        <time>2019-11-01T11:37:20Z</time>
      </trkpt>
      <trkpt lat="38.4309090" lon="-2.5047020">
        <ele>1039.9</ele>
        <time>2019-11-01T11:37:22Z</time>
      </trkpt>
      <trkpt lat="38.4308120" lon="-2.5047600">
        <ele>1039.9</ele>
        <time>2019-11-01T11:37:27Z</time>
      </trkpt>
      <trkpt lat="38.4306710" lon="-2.5045820">
        <ele>1039.9</ele>
        <time>2019-11-01T11:37:41Z</time>
      </trkpt>
      <trkpt lat="38.4293450" lon="-2.5046560">
        <ele>1039.9</ele>
        <time>2019-11-01T11:38:01Z</time>
      </trkpt>
      <trkpt lat="38.4294350" lon="-2.5046890">
        <ele>1039.9</ele>
        <time>2019-11-01T11:38:04Z</time>
      </trkpt>
      <trkpt lat="38.4294810" lon="-2.5047350">
        <ele>1039.9</ele>
        <time>2019-11-01T11:38:06Z</time>
      </trkpt>
      <trkpt lat="38.4295010" lon="-2.5047830">
        <ele>1039.9</ele>
        <time>2019-11-01T11:38:08Z</time>
      </trkpt>
      <trkpt lat="38.4295580" lon="-2.5048070">
        <ele>1039.9</ele>
        <time>2019-11-01T11:38:16Z</time>
      </trkpt>
      <trkpt lat="38.4295190" lon="-2.5049000">
        <ele>1039.9</ele>
        <time>2019-11-01T11:38:18Z</time>
      </trkpt>
      <trkpt lat="38.4295540" lon="-2.5049120">
        <ele>1039.9</ele>
        <time>2019-11-01T11:38:21Z</time>
      </trkpt>
      <trkpt lat="38.4295810" lon="-2.5048940">
        <ele>1039.9</ele>
        <time>2019-11-01T11:38:22Z</time>
      </trkpt>
      <trkpt lat="38.4296350" lon="-2.5048580">
        <ele>1039.9</ele>
        <time>2019-11-01T11:38:23Z</time>
      </trkpt>
      <trkpt lat="38.4296810" lon="-2.5048250">
        <ele>1039.9</ele>
        <time>2019-11-01T11:38:24Z</time>
      </trkpt>
      <trkpt lat="38.4297060" lon="-2.5047980">
        <ele>1039.9</ele>
        <time>2019-11-01T11:38:25Z</time>
      </trkpt>
      <trkpt lat="38.4297750" lon="-2.5047230">
        <ele>1039.9</ele>
        <time>2019-11-01T11:38:27Z</time>
      </trkpt>
      <trkpt lat="38.4299240" lon="-2.5045990">
        <ele>1039.9</ele>
        <time>2019-11-01T11:38:30Z</time>
      </trkpt>
      <trkpt lat="38.4299930" lon="-2.5045750">
        <ele>1039.9</ele>
        <time>2019-11-01T11:38:31Z</time>
      </trkpt>
      <trkpt lat="38.4300420" lon="-2.5045670">
        <ele>1039.9</ele>
        <time>2019-11-01T11:38:32Z</time>
      </trkpt>
      <trkpt lat="38.4301160" lon="-2.5045850">
        <ele>1039.9</ele>
        <time>2019-11-01T11:38:34Z</time>
      </trkpt>
      <trkpt lat="38.4301260" lon="-2.5046190">
        <ele>1039.9</ele>
        <time>2019-11-01T11:38:36Z</time>
      </trkpt>
      <trkpt lat="38.4301000" lon="-2.5046610">
        <ele>912.9</ele>
        <time>2019-11-01T11:38:38Z</time>
      </trkpt>
      <trkpt lat="38.4301390" lon="-2.5046550">
        <ele>912.9</ele>
        <time>2019-11-01T11:38:39Z</time>
      </trkpt>
      <trkpt lat="38.4303130" lon="-2.5045840">
        <ele>912.9</ele>
        <time>2019-11-01T11:38:41Z</time>
      </trkpt>
      <trkpt lat="38.4303900" lon="-2.5045460">
        <ele>912.9</ele>
        <time>2019-11-01T11:38:42Z</time>
      </trkpt>
      <trkpt lat="38.4304610" lon="-2.5045020">
        <ele>912.9</ele>
        <time>2019-11-01T11:38:43Z</time>
      </trkpt>
      <trkpt lat="38.4305230" lon="-2.5044650">
        <ele>912.9</ele>
        <time>2019-11-01T11:38:44Z</time>
      </trkpt>
      <trkpt lat="38.4305690" lon="-2.5044380">
        <ele>912.9</ele>
        <time>2019-11-01T11:38:45Z</time>
      </trkpt>
      <trkpt lat="38.4306300" lon="-2.5044080">
        <ele>912.9</ele>
        <time>2019-11-01T11:38:47Z</time>
      </trkpt>
      <trkpt lat="38.4306760" lon="-2.5044000">
        <ele>912.9</ele>
        <time>2019-11-01T11:38:49Z</time>
      </trkpt>
      <trkpt lat="38.4306790" lon="-2.5044030">
        <ele>912.9</ele>
        <time>2019-11-01T11:38:54Z</time>
      </trkpt>
      <trkpt lat="38.4306300" lon="-2.5044480">
        <ele>912.9</ele>
        <time>2019-11-01T11:38:57Z</time>
      </trkpt>
      <trkpt lat="38.4305720" lon="-2.5044930">
        <ele>912.9</ele>
        <time>2019-11-01T11:39:00Z</time>
      </trkpt>
      <trkpt lat="38.4305280" lon="-2.5044980">
        <ele>912.9</ele>
        <time>2019-11-01T11:39:04Z</time>
      </trkpt>
      <trkpt lat="38.4305480" lon="-2.5044610">
        <ele>912.9</ele>
        <time>2019-11-01T11:39:07Z</time>
      </trkpt>
      <trkpt lat="38.4304670" lon="-2.5045080">
        <ele>912.9</ele>
        <time>2019-11-01T11:39:12Z</time>
      </trkpt>
      <trkpt lat="38.4303900" lon="-2.5045440">
        <ele>912.9</ele>
        <time>2019-11-01T11:39:14Z</time>
      </trkpt>
      <trkpt lat="38.4303460" lon="-2.5045610">
        <ele>912.9</ele>
        <time>2019-11-01T11:39:16Z</time>
      </trkpt>
      <trkpt lat="38.4302750" lon="-2.5045720">
        <ele>912.9</ele>
        <time>2019-11-01T11:39:21Z</time>
      </trkpt>
      <trkpt lat="38.4302210" lon="-2.5045910">
        <ele>912.9</ele>
        <time>2019-11-01T11:39:23Z</time>
      </trkpt>
      <trkpt lat="38.4301750" lon="-2.5045990">
        <ele>912.9</ele>
        <time>2019-11-01T11:39:25Z</time>
      </trkpt>
      <trkpt lat="38.4301410" lon="-2.5045830">
        <ele>912.9</ele>
        <time>2019-11-01T11:39:29Z</time>
      </trkpt>
      <trkpt lat="38.4300880" lon="-2.5045630">
        <ele>912.9</ele>
        <time>2019-11-01T11:39:33Z</time>
      </trkpt>
      <trkpt lat="38.4300880" lon="-2.5044780">
        <ele>912.9</ele>
        <time>2019-11-01T11:39:49Z</time>
      </trkpt>
      <trkpt lat="38.4298370" lon="-2.5046840">
        <ele>912.9</ele>
        <time>2019-11-01T11:40:06Z</time>
      </trkpt>
      <trkpt lat="38.4298830" lon="-2.5046580">
        <ele>912.9</ele>
        <time>2019-11-01T11:40:08Z</time>
      </trkpt>
      <trkpt lat="38.4298980" lon="-2.5046770">
        <ele>912.9</ele>
        <time>2019-11-01T11:40:20Z</time>
      </trkpt>
      <trkpt lat="38.4299800" lon="-2.5046450">
        <ele>912.9</ele>
        <time>2019-11-01T11:40:38Z</time>
      </trkpt>
      <trkpt lat="38.4300850" lon="-2.5046400">
        <ele>912.9</ele>
        <time>2019-11-01T11:40:43Z</time>
      </trkpt>
      <trkpt lat="38.4301520" lon="-2.5046510">
        <ele>912.9</ele>
        <time>2019-11-01T11:40:45Z</time>
      </trkpt>
      <trkpt lat="38.4302130" lon="-2.5046670">
        <ele>912.9</ele>
        <time>2019-11-01T11:40:47Z</time>
      </trkpt>
      <trkpt lat="38.4302720" lon="-2.5046820">
        <ele>912.9</ele>
        <time>2019-11-01T11:40:49Z</time>
      </trkpt>
      <trkpt lat="38.4303180" lon="-2.5046910">
        <ele>912.9</ele>
        <time>2019-11-01T11:40:51Z</time>
      </trkpt>
      <trkpt lat="38.4303620" lon="-2.5046870">
        <ele>912.9</ele>
        <time>2019-11-01T11:40:54Z</time>
      </trkpt>
      <trkpt lat="38.4304280" lon="-2.5046570">
        <ele>912.9</ele>
        <time>2019-11-01T11:41:01Z</time>
      </trkpt>
      <trkpt lat="38.4305950" lon="-2.5045820">
        <ele>912.9</ele>
        <time>2019-11-01T11:41:13Z</time>
      </trkpt>
      <trkpt lat="38.4303970" lon="-2.5046180">
        <ele>912.9</ele>
        <time>2019-11-01T11:41:29Z</time>
      </trkpt>
      <trkpt lat="38.4300110" lon="-2.5047680">
        <ele>912.9</ele>
        <time>2019-11-01T11:41:38Z</time>
      </trkpt>
      <trkpt lat="38.4302410" lon="-2.5046280">
        <ele>912.9</ele>
        <time>2019-11-01T11:41:48Z</time>
      </trkpt>
      <trkpt lat="38.4303210" lon="-2.5045650">
        <ele>912.9</ele>
        <time>2019-11-01T11:41:49Z</time>
      </trkpt>
      <trkpt lat="38.4303690" lon="-2.5045080">
        <ele>912.9</ele>
        <time>2019-11-01T11:41:50Z</time>
      </trkpt>
      <trkpt lat="38.4303820" lon="-2.5044820">
        <ele>912.9</ele>
        <time>2019-11-01T11:41:51Z</time>
      </trkpt>
      <trkpt lat="38.4303850" lon="-2.5044220">
        <ele>912.9</ele>
        <time>2019-11-01T11:41:54Z</time>
      </trkpt>
      <trkpt lat="38.4304280" lon="-2.5043970">
        <ele>912.9</ele>
        <time>2019-11-01T11:42:00Z</time>
      </trkpt>
      <trkpt lat="38.4304920" lon="-2.5043860">
        <ele>912.9</ele>
        <time>2019-11-01T11:42:05Z</time>
      </trkpt>
      <trkpt lat="38.4305330" lon="-2.5043850">
        <ele>912.9</ele>
        <time>2019-11-01T11:42:08Z</time>
      </trkpt>
      <trkpt lat="38.4304540" lon="-2.5044820">
        <ele>912.9</ele>
        <time>2019-11-01T11:42:11Z</time>
      </trkpt>
      <trkpt lat="38.4303920" lon="-2.5045180">
        <ele>912.9</ele>
        <time>2019-11-01T11:42:12Z</time>
      </trkpt>
      <trkpt lat="38.4303460" lon="-2.5045280">
        <ele>912.9</ele>
        <time>2019-11-01T11:42:17Z</time>
      </trkpt>
      <trkpt lat="38.4303360" lon="-2.5045480">
        <ele>912.9</ele>
        <time>2019-11-01T11:42:21Z</time>
      </trkpt>
      <trkpt lat="38.4302720" lon="-2.5045610">
        <ele>912.9</ele>
        <time>2019-11-01T11:42:23Z</time>
      </trkpt>
      <trkpt lat="38.4301800" lon="-2.5045690">
        <ele>912.9</ele>
        <time>2019-11-01T11:42:25Z</time>
      </trkpt>
      <trkpt lat="38.4301260" lon="-2.5045750">
        <ele>912.9</ele>
        <time>2019-11-01T11:42:26Z</time>
      </trkpt>
      <trkpt lat="38.4300850" lon="-2.5045810">
        <ele>912.9</ele>
        <time>2019-11-01T11:42:27Z</time>
      </trkpt>
      <trkpt lat="38.4299880" lon="-2.5046240">
        <ele>912.9</ele>
        <time>2019-11-01T11:42:29Z</time>
      </trkpt>
      <trkpt lat="38.4299210" lon="-2.5046550">
        <ele>912.9</ele>
        <time>2019-11-01T11:42:31Z</time>
      </trkpt>
      <trkpt lat="38.4298620" lon="-2.5046900">
        <ele>912.9</ele>
        <time>2019-11-01T11:42:33Z</time>
      </trkpt>
      <trkpt lat="38.4298390" lon="-2.5047380">
        <ele>912.9</ele>
        <time>2019-11-01T11:42:36Z</time>
      </trkpt>
      <trkpt lat="38.4298160" lon="-2.5048090">
        <ele>912.9</ele>
        <time>2019-11-01T11:42:39Z</time>
      </trkpt>
      <trkpt lat="38.4299320" lon="-2.5047550">
        <ele>912.9</ele>
        <time>2019-11-01T11:42:43Z</time>
      </trkpt>
      <trkpt lat="38.4299880" lon="-2.5047220">
        <ele>912.9</ele>
        <time>2019-11-01T11:42:44Z</time>
      </trkpt>
      <trkpt lat="38.4300260" lon="-2.5046980">
        <ele>912.9</ele>
        <time>2019-11-01T11:42:45Z</time>
      </trkpt>
      <trkpt lat="38.4301110" lon="-2.5046440">
        <ele>912.9</ele>
        <time>2019-11-01T11:42:47Z</time>
      </trkpt>
      <trkpt lat="38.4301410" lon="-2.5046010">
        <ele>912.9</ele>
        <time>2019-11-01T11:42:48Z</time>
      </trkpt>
      <trkpt lat="38.4301410" lon="-2.5045480">
        <ele>912.9</ele>
        <time>2019-11-01T11:42:50Z</time>
      </trkpt>
      <trkpt lat="38.4300880" lon="-2.5045180">
        <ele>912.9</ele>
        <time>2019-11-01T11:42:52Z</time>
      </trkpt>
      <trkpt lat="38.4300880" lon="-2.5044740">
        <ele>912.9</ele>
        <time>2019-11-01T11:42:55Z</time>
      </trkpt>
      <trkpt lat="38.4300260" lon="-2.5045090">
        <ele>912.9</ele>
        <time>2019-11-01T11:43:00Z</time>
      </trkpt>
      <trkpt lat="38.4299930" lon="-2.5045630">
        <ele>912.9</ele>
        <time>2019-11-01T11:43:05Z</time>
      </trkpt>
      <trkpt lat="38.4299720" lon="-2.5046050">
        <ele>912.9</ele>
        <time>2019-11-01T11:43:11Z</time>
      </trkpt>
      <trkpt lat="38.4299550" lon="-2.5046390">
        <ele>912.9</ele>
        <time>2019-11-01T11:43:14Z</time>
      </trkpt>
      <trkpt lat="38.4299780" lon="-2.5046160">
        <ele>912.9</ele>
        <time>2019-11-01T11:43:21Z</time>
      </trkpt>
      <trkpt lat="38.4299850" lon="-2.5045900">
        <ele>912.9</ele>
        <time>2019-11-01T11:43:28Z</time>
      </trkpt>
      <trkpt lat="38.4299390" lon="-2.5045820">
        <ele>912.9</ele>
        <time>2019-11-01T11:43:32Z</time>
      </trkpt>
      <trkpt lat="38.4299720" lon="-2.5046100">
        <ele>920.0</ele>
        <time>2019-11-01T11:43:39Z</time>
      </trkpt>
      <trkpt lat="38.4299850" lon="-2.5046100">
        <ele>920.0</ele>
        <time>2019-11-01T11:43:40Z</time>
      </trkpt>
      <trkpt lat="38.4300110" lon="-2.5046370">
        <ele>920.0</ele>
        <time>2019-11-01T11:43:45Z</time>
      </trkpt>
      <trkpt lat="38.4299060" lon="-2.5047050">
        <ele>920.0</ele>
        <time>2019-11-01T11:43:56Z</time>
      </trkpt>
      <trkpt lat="38.4299470" lon="-2.5046890">
        <ele>920.0</ele>
        <time>2019-11-01T11:44:00Z</time>
      </trkpt>
      <trkpt lat="38.4299160" lon="-2.5047230">
        <ele>920.0</ele>
        <time>2019-11-01T11:44:13Z</time>
      </trkpt>
      <trkpt lat="38.4299240" lon="-2.5048040">
        <ele>920.0</ele>
        <time>2019-11-01T11:44:19Z</time>
      </trkpt>
      <trkpt lat="38.4299320" lon="-2.5048050">
        <ele>920.0</ele>
        <time>2019-11-01T11:44:31Z</time>
      </trkpt>
      <trkpt lat="38.4300190" lon="-2.5047650">
        <ele>920.0</ele>
        <time>2019-11-01T11:44:36Z</time>
      </trkpt>
      <trkpt lat="38.4300010" lon="-2.5046970">
        <ele>920.0</ele>
        <time>2019-11-01T11:44:56Z</time>
      </trkpt>
      <trkpt lat="38.4300010" lon="-2.5047260">
        <ele>920.0</ele>
        <time>2019-11-01T11:45:03Z</time>
      </trkpt>
      <trkpt lat="38.4300650" lon="-2.5047300">
        <ele>920.0</ele>
        <time>2019-11-01T11:45:06Z</time>
      </trkpt>
      <trkpt lat="38.4300310" lon="-2.5047440">
        <ele>920.0</ele>
        <time>2019-11-01T11:45:10Z</time>
      </trkpt>
      <trkpt lat="38.4299650" lon="-2.5047530">
        <ele>920.0</ele>
        <time>2019-11-01T11:45:16Z</time>
      </trkpt>
      <trkpt lat="38.4299570" lon="-2.5047180">
        <ele>920.0</ele>
        <time>2019-11-01T11:45:22Z</time>
      </trkpt>
      <trkpt lat="38.4299800" lon="-2.5046850">
        <ele>920.0</ele>
        <time>2019-11-01T11:45:26Z</time>
      </trkpt>
      <trkpt lat="38.4299320" lon="-2.5047210">
        <ele>920.0</ele>
        <time>2019-11-01T11:45:31Z</time>
      </trkpt>
      <trkpt lat="38.4298750" lon="-2.5046920">
        <ele>920.0</ele>
        <time>2019-11-01T11:45:47Z</time>
      </trkpt>
      <trkpt lat="38.4299370" lon="-2.5046820">
        <ele>920.0</ele>
        <time>2019-11-01T11:45:52Z</time>
      </trkpt>
      <trkpt lat="38.4300030" lon="-2.5046890">
        <ele>920.0</ele>
        <time>2019-11-01T11:45:56Z</time>
      </trkpt>
      <trkpt lat="38.4300540" lon="-2.5045680">
        <ele>920.0</ele>
        <time>2019-11-01T11:46:04Z</time>
      </trkpt>
      <trkpt lat="38.4300470" lon="-2.5044750">
        <ele>920.0</ele>
        <time>2019-11-01T11:46:06Z</time>
      </trkpt>
      <trkpt lat="38.4300420" lon="-2.5044280">
        <ele>920.0</ele>
        <time>2019-11-01T11:46:08Z</time>
      </trkpt>
      <trkpt lat="38.4299650" lon="-2.5044510">
        <ele>920.0</ele>
        <time>2019-11-01T11:46:12Z</time>
      </trkpt>
      <trkpt lat="38.4299850" lon="-2.5045210">
        <ele>920.0</ele>
        <time>2019-11-01T11:46:19Z</time>
      </trkpt>
      <trkpt lat="38.4300030" lon="-2.5045950">
        <ele>920.0</ele>
        <time>2019-11-01T11:46:24Z</time>
      </trkpt>
      <trkpt lat="38.4299700" lon="-2.5046410">
        <ele>920.0</ele>
        <time>2019-11-01T11:46:27Z</time>
      </trkpt>
      <trkpt lat="38.4299390" lon="-2.5046980">
        <ele>920.0</ele>
        <time>2019-11-01T11:46:32Z</time>
      </trkpt>
      <trkpt lat="38.4299010" lon="-2.5047500">
        <ele>920.0</ele>
        <time>2019-11-01T11:46:35Z</time>
      </trkpt>
      <trkpt lat="38.4299060" lon="-2.5047770">
        <ele>920.0</ele>
        <time>2019-11-01T11:46:41Z</time>
      </trkpt>
      <trkpt lat="38.4299390" lon="-2.5047730">
        <ele>920.0</ele>
        <time>2019-11-01T11:46:51Z</time>
      </trkpt>
      <trkpt lat="38.4298700" lon="-2.5048120">
        <ele>920.0</ele>
        <time>2019-11-01T11:46:54Z</time>
      </trkpt>
      <trkpt lat="38.4297910" lon="-2.5048470">
        <ele>920.0</ele>
        <time>2019-11-01T11:46:56Z</time>
      </trkpt>
      <trkpt lat="38.4297290" lon="-2.5048740">
        <ele>920.0</ele>
        <time>2019-11-01T11:46:58Z</time>
      </trkpt>
      <trkpt lat="38.4296830" lon="-2.5048920">
        <ele>920.0</ele>
        <time>2019-11-01T11:47:00Z</time>
      </trkpt>
      <trkpt lat="38.4296650" lon="-2.5048450">
        <ele>920.0</ele>
        <time>2019-11-01T11:47:03Z</time>
      </trkpt>
      <trkpt lat="38.4296730" lon="-2.5047830">
        <ele>920.0</ele>
        <time>2019-11-01T11:47:06Z</time>
      </trkpt>
      <trkpt lat="38.4297370" lon="-2.5047160">
        <ele>920.0</ele>
        <time>2019-11-01T11:47:11Z</time>
      </trkpt>
      <trkpt lat="38.4297860" lon="-2.5046750">
        <ele>920.0</ele>
        <time>2019-11-01T11:47:13Z</time>
      </trkpt>
      <trkpt lat="38.4298140" lon="-2.5046310">
        <ele>920.0</ele>
        <time>2019-11-01T11:47:17Z</time>
      </trkpt>
      <trkpt lat="38.4298930" lon="-2.5045940">
        <ele>920.0</ele>
        <time>2019-11-01T11:47:20Z</time>
      </trkpt>
      <trkpt lat="38.4299490" lon="-2.5045700">
        <ele>920.0</ele>
        <time>2019-11-01T11:47:22Z</time>
      </trkpt>
      <trkpt lat="38.4300030" lon="-2.5045420">
        <ele>920.0</ele>
        <time>2019-11-01T11:47:24Z</time>
      </trkpt>
      <trkpt lat="38.4300570" lon="-2.5045200">
        <ele>920.0</ele>
        <time>2019-11-01T11:47:26Z</time>
      </trkpt>
      <trkpt lat="38.4300930" lon="-2.5045130">
        <ele>920.0</ele>
        <time>2019-11-01T11:47:29Z</time>
      </trkpt>
      <trkpt lat="38.4301440" lon="-2.5045330">
        <ele>920.0</ele>
        <time>2019-11-01T11:47:36Z</time>
      </trkpt>
      <trkpt lat="38.4302900" lon="-2.5045130">
        <ele>920.0</ele>
        <time>2019-11-01T11:47:50Z</time>
      </trkpt>
      <trkpt lat="38.4302750" lon="-2.5045060">
        <ele>920.0</ele>
        <time>2019-11-01T11:48:03Z</time>
      </trkpt>
      <trkpt lat="38.4302180" lon="-2.5045430">
        <ele>920.0</ele>
        <time>2019-11-01T11:48:06Z</time>
      </trkpt>
      <trkpt lat="38.4301750" lon="-2.5045680">
        <ele>920.0</ele>
        <time>2019-11-01T11:48:08Z</time>
      </trkpt>
      <trkpt lat="38.4301310" lon="-2.5046050">
        <ele>920.0</ele>
        <time>2019-11-01T11:48:11Z</time>
      </trkpt>
      <trkpt lat="38.4300850" lon="-2.5046410">
        <ele>920.0</ele>
        <time>2019-11-01T11:48:16Z</time>
      </trkpt>
      <trkpt lat="38.4300240" lon="-2.5046680">
        <ele>920.0</ele>
        <time>2019-11-01T11:48:20Z</time>
      </trkpt>
      <trkpt lat="38.4300570" lon="-2.5046420">
        <ele>920.0</ele>
        <time>2019-11-01T11:48:29Z</time>
      </trkpt>
      <trkpt lat="38.4299800" lon="-2.5046760">
        <ele>920.0</ele>
        <time>2019-11-01T11:48:32Z</time>
      </trkpt>
      <trkpt lat="38.4299290" lon="-2.5046880">
        <ele>920.0</ele>
        <time>2019-11-01T11:48:34Z</time>
      </trkpt>
      <trkpt lat="38.4299240" lon="-2.5046950">
        <ele>920.0</ele>
        <time>2019-11-01T11:48:40Z</time>
      </trkpt>
      <trkpt lat="38.4299850" lon="-2.5046610">
        <ele>920.0</ele>
        <time>2019-11-01T11:48:44Z</time>
      </trkpt>
      <trkpt lat="38.4300260" lon="-2.5046580">
        <ele>920.0</ele>
        <time>2019-11-01T11:48:51Z</time>
      </trkpt>
      <trkpt lat="38.4299140" lon="-2.5046840">
        <ele>920.0</ele>
        <time>2019-11-01T11:49:00Z</time>
      </trkpt>
      <trkpt lat="38.4298830" lon="-2.5047220">
        <ele>920.0</ele>
        <time>2019-11-01T11:49:04Z</time>
      </trkpt>
      <trkpt lat="38.4299720" lon="-2.5046780">
        <ele>920.0</ele>
        <time>2019-11-01T11:49:11Z</time>
      </trkpt>
      <trkpt lat="38.4299550" lon="-2.5045870">
        <ele>920.0</ele>
        <time>2019-11-01T11:49:36Z</time>
      </trkpt>
      <trkpt lat="38.4296420" lon="-2.5049250">
        <ele>920.0</ele>
        <time>2019-11-01T11:49:55Z</time>
      </trkpt>
      <trkpt lat="38.4296910" lon="-2.5048940">
        <ele>920.0</ele>
        <time>2019-11-01T11:49:56Z</time>
      </trkpt>
      <trkpt lat="38.4299160" lon="-2.5047950">
        <ele>920.0</ele>
        <time>2019-11-01T11:50:02Z</time>
      </trkpt>
      <trkpt lat="38.4299650" lon="-2.5047620">
        <ele>920.0</ele>
        <time>2019-11-01T11:50:05Z</time>
      </trkpt>
      <trkpt lat="38.4300030" lon="-2.5047410">
        <ele>920.0</ele>
        <time>2019-11-01T11:50:10Z</time>
      </trkpt>
      <trkpt lat="38.4299650" lon="-2.5048040">
        <ele>920.0</ele>
        <time>2019-11-01T11:50:16Z</time>
      </trkpt>
      <trkpt lat="38.4297270" lon="-2.5047150">
        <ele>920.0</ele>
        <time>2019-11-01T11:50:28Z</time>
      </trkpt>
      <trkpt lat="38.4296520" lon="-2.5047120">
        <ele>920.0</ele>
        <time>2019-11-01T11:50:30Z</time>
      </trkpt>
      <trkpt lat="38.4296040" lon="-2.5047220">
        <ele>920.0</ele>
        <time>2019-11-01T11:50:32Z</time>
      </trkpt>
      <trkpt lat="38.4296370" lon="-2.5047270">
        <ele>920.0</ele>
        <time>2019-11-01T11:50:37Z</time>
      </trkpt>
      <trkpt lat="38.4297140" lon="-2.5046990">
        <ele>920.0</ele>
        <time>2019-11-01T11:50:41Z</time>
      </trkpt>
      <trkpt lat="38.4299880" lon="-2.5045480">
        <ele>920.0</ele>
        <time>2019-11-01T11:51:26Z</time>
      </trkpt>
      <trkpt lat="38.4301030" lon="-2.5046490">
        <ele>920.0</ele>
        <time>2019-11-01T11:51:46Z</time>
      </trkpt>
      <trkpt lat="38.4300570" lon="-2.5046980">
        <ele>920.0</ele>
        <time>2019-11-01T11:51:52Z</time>
      </trkpt>
      <trkpt lat="38.4300800" lon="-2.5047040">
        <ele>920.0</ele>
        <time>2019-11-01T11:51:57Z</time>
      </trkpt>
      <trkpt lat="38.4302050" lon="-2.5046320">
        <ele>920.0</ele>
        <time>2019-11-01T11:51:59Z</time>
      </trkpt>
      <trkpt lat="38.4303260" lon="-2.5045510">
        <ele>920.0</ele>
        <time>2019-11-01T11:52:00Z</time>
      </trkpt>
      <trkpt lat="38.4304670" lon="-2.5044640">
        <ele>920.0</ele>
        <time>2019-11-01T11:52:01Z</time>
      </trkpt>
      <trkpt lat="38.4306070" lon="-2.5043740">
        <ele>920.0</ele>
        <time>2019-11-01T11:52:02Z</time>
      </trkpt>
      <trkpt lat="38.4307480" lon="-2.5042870">
        <ele>920.0</ele>
        <time>2019-11-01T11:52:03Z</time>
      </trkpt>
      <trkpt lat="38.4309610" lon="-2.5041570">
        <ele>920.0</ele>
        <time>2019-11-01T11:52:05Z</time>
      </trkpt>
      <trkpt lat="38.4310270" lon="-2.5041200">
        <ele>920.0</ele>
        <time>2019-11-01T11:52:06Z</time>
      </trkpt>
      <trkpt lat="38.4310660" lon="-2.5041030">
        <ele>920.0</ele>
        <time>2019-11-01T11:52:07Z</time>
      </trkpt>
      <trkpt lat="38.4310810" lon="-2.5041090">
        <ele>920.0</ele>
        <time>2019-11-01T11:52:09Z</time>
      </trkpt>
      <trkpt lat="38.4310040" lon="-2.5041960">
        <ele>920.0</ele>
        <time>2019-11-01T11:52:13Z</time>
      </trkpt>
      <trkpt lat="38.4309430" lon="-2.5042410">
        <ele>920.0</ele>
        <time>2019-11-01T11:52:15Z</time>
      </trkpt>
      <trkpt lat="38.4308400" lon="-2.5042940">
        <ele>920.0</ele>
        <time>2019-11-01T11:52:17Z</time>
      </trkpt>
      <trkpt lat="38.4307940" lon="-2.5043180">
        <ele>920.0</ele>
        <time>2019-11-01T11:52:18Z</time>
      </trkpt>
      <trkpt lat="38.4307560" lon="-2.5043350">
        <ele>920.0</ele>
        <time>2019-11-01T11:52:19Z</time>
      </trkpt>
      <trkpt lat="38.4306410" lon="-2.5043680">
        <ele>920.0</ele>
        <time>2019-11-01T11:52:21Z</time>
      </trkpt>
      <trkpt lat="38.4305280" lon="-2.5044120">
        <ele>920.0</ele>
        <time>2019-11-01T11:52:22Z</time>
      </trkpt>
      <trkpt lat="38.4304310" lon="-2.5044350">
        <ele>920.0</ele>
        <time>2019-11-01T11:52:23Z</time>
      </trkpt>
      <trkpt lat="38.4303620" lon="-2.5044500">
        <ele>920.0</ele>
        <time>2019-11-01T11:52:24Z</time>
      </trkpt>
      <trkpt lat="38.4303180" lon="-2.5044670">
        <ele>920.0</ele>
        <time>2019-11-01T11:52:25Z</time>
      </trkpt>
      <trkpt lat="38.4302870" lon="-2.5044820">
        <ele>920.0</ele>
        <time>2019-11-01T11:52:26Z</time>
      </trkpt>
      <trkpt lat="38.4302520" lon="-2.5045060">
        <ele>920.0</ele>
        <time>2019-11-01T11:52:28Z</time>
      </trkpt>
      <trkpt lat="38.4302260" lon="-2.5045600">
        <ele>920.0</ele>
        <time>2019-11-01T11:52:34Z</time>
      </trkpt>
      <trkpt lat="38.4301800" lon="-2.5045860">
        <ele>920.0</ele>
        <time>2019-11-01T11:52:39Z</time>
      </trkpt>
      <trkpt lat="38.4301440" lon="-2.5045550">
        <ele>920.0</ele>
        <time>2019-11-01T11:52:48Z</time>
      </trkpt>
      <trkpt lat="38.4302050" lon="-2.5045380">
        <ele>920.0</ele>
        <time>2019-11-01T11:52:52Z</time>
      </trkpt>
      <trkpt lat="38.4301640" lon="-2.5045860">
        <ele>920.0</ele>
        <time>2019-11-01T11:52:58Z</time>
      </trkpt>
      <trkpt lat="38.4302180" lon="-2.5046220">
        <ele>920.0</ele>
        <time>2019-11-01T11:53:00Z</time>
      </trkpt>
      <trkpt lat="38.4302210" lon="-2.5046700">
        <ele>920.0</ele>
        <time>2019-11-01T11:53:03Z</time>
      </trkpt>
      <trkpt lat="38.4301880" lon="-2.5046320">
        <ele>920.0</ele>
        <time>2019-11-01T11:53:15Z</time>
      </trkpt>
      <trkpt lat="38.4302570" lon="-2.5045910">
        <ele>920.0</ele>
        <time>2019-11-01T11:53:20Z</time>
      </trkpt>
      <trkpt lat="38.4302980" lon="-2.5045490">
        <ele>920.0</ele>
        <time>2019-11-01T11:53:22Z</time>
      </trkpt>
      <trkpt lat="38.4302800" lon="-2.5045040">
        <ele>920.0</ele>
        <time>2019-11-01T11:53:25Z</time>
      </trkpt>
      <trkpt lat="38.4303590" lon="-2.5044330">
        <ele>920.0</ele>
        <time>2019-11-01T11:53:27Z</time>
      </trkpt>
      <trkpt lat="38.4304360" lon="-2.5043350">
        <ele>920.0</ele>
        <time>2019-11-01T11:53:29Z</time>
      </trkpt>
      <trkpt lat="38.4304360" lon="-2.5043500">
        <ele>920.0</ele>
        <time>2019-11-01T11:53:31Z</time>
      </trkpt>
      <trkpt lat="38.4303850" lon="-2.5044140">
        <ele>920.0</ele>
        <time>2019-11-01T11:53:33Z</time>
      </trkpt>
      <trkpt lat="38.4303050" lon="-2.5045140">
        <ele>920.0</ele>
        <time>2019-11-01T11:53:38Z</time>
      </trkpt>
      <trkpt lat="38.4302590" lon="-2.5045520">
        <ele>920.0</ele>
        <time>2019-11-01T11:53:41Z</time>
      </trkpt>
      <trkpt lat="38.4302030" lon="-2.5045600">
        <ele>920.0</ele>
        <time>2019-11-01T11:53:46Z</time>
      </trkpt>
      <trkpt lat="38.4301490" lon="-2.5045940">
        <ele>920.0</ele>
        <time>2019-11-01T11:53:53Z</time>
      </trkpt>
      <trkpt lat="38.4301000" lon="-2.5046320">
        <ele>920.0</ele>
        <time>2019-11-01T11:53:56Z</time>
      </trkpt>
      <trkpt lat="38.4300720" lon="-2.5046490">
        <ele>920.0</ele>
        <time>2019-11-01T11:54:02Z</time>
      </trkpt>
      <trkpt lat="38.4301390" lon="-2.5046150">
        <ele>920.0</ele>
        <time>2019-11-01T11:54:10Z</time>
      </trkpt>
      <trkpt lat="38.4301000" lon="-2.5046720">
        <ele>920.0</ele>
        <time>2019-11-01T11:54:21Z</time>
      </trkpt>
      <trkpt lat="38.4301570" lon="-2.5047420">
        <ele>920.0</ele>
        <time>2019-11-01T11:54:24Z</time>
      </trkpt>
      <trkpt lat="38.4302110" lon="-2.5047890">
        <ele>920.0</ele>
        <time>2019-11-01T11:54:26Z</time>
      </trkpt>
      <trkpt lat="38.4302570" lon="-2.5048150">
        <ele>920.0</ele>
        <time>2019-11-01T11:54:28Z</time>
      </trkpt>
      <trkpt lat="38.4301900" lon="-2.5048200">
        <ele>920.0</ele>
        <time>2019-11-01T11:54:33Z</time>
      </trkpt>
      <trkpt lat="38.4301030" lon="-2.5045620">
        <ele>920.0</ele>
        <time>2019-11-01T11:54:59Z</time>
      </trkpt>
      <trkpt lat="38.4301160" lon="-2.5044930">
        <ele>920.0</ele>
        <time>2019-11-01T11:55:02Z</time>
      </trkpt>
      <trkpt lat="38.4300700" lon="-2.5044730">
        <ele>920.0</ele>
        <time>2019-11-01T11:55:07Z</time>
      </trkpt>
      <trkpt lat="38.4300240" lon="-2.5044640">
        <ele>920.0</ele>
        <time>2019-11-01T11:55:15Z</time>
      </trkpt>
      <trkpt lat="38.4301800" lon="-2.5045840">
        <ele>914.5</ele>
        <time>2019-11-01T11:55:35Z</time>
      </trkpt>
      <trkpt lat="38.4302180" lon="-2.5046040">
        <ele>914.5</ele>
        <time>2019-11-01T11:55:37Z</time>
      </trkpt>
      <trkpt lat="38.4302750" lon="-2.5045870">
        <ele>914.5</ele>
        <time>2019-11-01T11:55:42Z</time>
      </trkpt>
      <trkpt lat="38.4302590" lon="-2.5045990">
        <ele>914.5</ele>
        <time>2019-11-01T11:55:47Z</time>
      </trkpt>
      <trkpt lat="38.4301950" lon="-2.5046170">
        <ele>914.5</ele>
        <time>2019-11-01T11:55:55Z</time>
      </trkpt>
      <trkpt lat="38.4301310" lon="-2.5046940">
        <ele>914.5</ele>
        <time>2019-11-01T11:56:16Z</time>
      </trkpt>
      <trkpt lat="38.4300700" lon="-2.5047030">
        <ele>914.5</ele>
        <time>2019-11-01T11:56:29Z</time>
      </trkpt>
      <trkpt lat="38.4300240" lon="-2.5047090">
        <ele>914.5</ele>
        <time>2019-11-01T11:56:31Z</time>
      </trkpt>
      <trkpt lat="38.4300390" lon="-2.5046520">
        <ele>914.5</ele>
        <time>2019-11-01T11:56:35Z</time>
      </trkpt>
      <trkpt lat="38.4300080" lon="-2.5047120">
        <ele>914.5</ele>
        <time>2019-11-01T11:56:38Z</time>
      </trkpt>
      <trkpt lat="38.4300010" lon="-2.5047480">
        <ele>914.5</ele>
        <time>2019-11-01T11:56:40Z</time>
      </trkpt>
      <trkpt lat="38.4301080" lon="-2.5047800">
        <ele>914.5</ele>
        <time>2019-11-01T11:57:06Z</time>
      </trkpt>
      <trkpt lat="38.4301030" lon="-2.5047850">
        <ele>914.5</ele>
        <time>2019-11-01T11:57:07Z</time>
      </trkpt>
      <trkpt lat="38.4300850" lon="-2.5048450">
        <ele>914.5</ele>
        <time>2019-11-01T11:57:14Z</time>
      </trkpt>
      <trkpt lat="38.4300930" lon="-2.5048210">
        <ele>914.5</ele>
        <time>2019-11-01T11:57:26Z</time>
      </trkpt>
      <trkpt lat="38.4301080" lon="-2.5047280">
        <ele>914.5</ele>
        <time>2019-11-01T11:57:32Z</time>
      </trkpt>
      <trkpt lat="38.4301000" lon="-2.5046660">
        <ele>914.5</ele>
        <time>2019-11-01T11:57:36Z</time>
      </trkpt>
      <trkpt lat="38.4300390" lon="-2.5047240">
        <ele>914.5</ele>
        <time>2019-11-01T11:57:40Z</time>
      </trkpt>
      <trkpt lat="38.4299960" lon="-2.5047390">
        <ele>914.5</ele>
        <time>2019-11-01T11:57:43Z</time>
      </trkpt>
      <trkpt lat="38.4300620" lon="-2.5047070">
        <ele>914.5</ele>
        <time>2019-11-01T11:57:48Z</time>
      </trkpt>
      <trkpt lat="38.4301000" lon="-2.5046830">
        <ele>914.5</ele>
        <time>2019-11-01T11:57:49Z</time>
      </trkpt>
      <trkpt lat="38.4301440" lon="-2.5046470">
        <ele>914.5</ele>
        <time>2019-11-01T11:57:51Z</time>
      </trkpt>
      <trkpt lat="38.4301840" lon="-2.5046450">
        <ele>914.5</ele>
        <time>2019-11-01T11:57:54Z</time>
      </trkpt>
      <trkpt lat="38.4301870" lon="-2.5046580">
        <ele>923.0</ele>
        <time>2019-11-01T11:57:59Z</time>
      </trkpt>
      <trkpt lat="38.4301890" lon="-2.5046710">
        <ele>923.0</ele>
        <time>2019-11-01T11:58:09Z</time>
      </trkpt>
      <trkpt lat="38.4301910" lon="-2.5046840">
        <ele>923.0</ele>
        <time>2019-11-01T11:58:15Z</time>
      </trkpt>
      <trkpt lat="38.4301940" lon="-2.5046970">
        <ele>923.0</ele>
        <time>2019-11-01T11:58:22Z</time>
      </trkpt>
      <trkpt lat="38.4301960" lon="-2.5047100">
        <ele>923.0</ele>
        <time>2019-11-01T11:58:28Z</time>
      </trkpt>
      <trkpt lat="38.4301980" lon="-2.5047230">
        <ele>923.0</ele>
        <time>2019-11-01T11:58:44Z</time>
      </trkpt>
      <trkpt lat="38.4302010" lon="-2.5047360">
        <ele>923.0</ele>
        <time>2019-11-01T11:59:13Z</time>
      </trkpt>
      <trkpt lat="38.4302030" lon="-2.5047490">
        <ele>923.0</ele>
        <time>2019-11-01T11:59:14Z</time>
      </trkpt>
      <trkpt lat="38.4302590" lon="-2.5047540">
        <ele>923.0</ele>
        <time>2019-11-01T11:59:15Z</time>
      </trkpt>
      <trkpt lat="38.4302800" lon="-2.5047600">
        <ele>923.0</ele>
        <time>2019-11-01T11:59:16Z</time>
      </trkpt>
      <trkpt lat="38.4303360" lon="-2.5047750">
        <ele>923.0</ele>
        <time>2019-11-01T11:59:21Z</time>
      </trkpt>
      <trkpt lat="38.4303460" lon="-2.5047850">
        <ele>923.0</ele>
        <time>2019-11-01T11:59:29Z</time>
      </trkpt>
      <trkpt lat="38.4302950" lon="-2.5047630">
        <ele>923.0</ele>
        <time>2019-11-01T11:59:35Z</time>
      </trkpt>
      <trkpt lat="38.4302180" lon="-2.5047640">
        <ele>923.0</ele>
        <time>2019-11-01T11:59:39Z</time>
      </trkpt>
      <trkpt lat="38.4301310" lon="-2.5047410">
        <ele>923.0</ele>
        <time>2019-11-01T11:59:42Z</time>
      </trkpt>
      <trkpt lat="38.4301080" lon="-2.5047040">
        <ele>923.0</ele>
        <time>2019-11-01T11:59:44Z</time>
      </trkpt>
      <trkpt lat="38.4301000" lon="-2.5046020">
        <ele>923.0</ele>
        <time>2019-11-01T11:59:47Z</time>
      </trkpt>
      <trkpt lat="38.4301000" lon="-2.5045330">
        <ele>923.0</ele>
        <time>2019-11-01T11:59:53Z</time>
      </trkpt>
      <trkpt lat="38.4300620" lon="-2.5045920">
        <ele>923.0</ele>
        <time>2019-11-01T11:59:57Z</time>
      </trkpt>
      <trkpt lat="38.4301340" lon="-2.5046110">
        <ele>923.2</ele>
        <time>2019-11-01T12:00:09Z</time>
      </trkpt>
      <trkpt lat="38.4300490" lon="-2.5046390">
        <ele>923.2</ele>
        <time>2019-11-01T12:00:41Z</time>
      </trkpt>
      <trkpt lat="38.4301160" lon="-2.5046170">
        <ele>923.2</ele>
        <time>2019-11-01T12:00:47Z</time>
      </trkpt>
      <trkpt lat="38.4301520" lon="-2.5046080">
        <ele>923.2</ele>
        <time>2019-11-01T12:00:52Z</time>
      </trkpt>
      <trkpt lat="38.4301670" lon="-2.5046660">
        <ele>923.2</ele>
        <time>2019-11-01T12:00:58Z</time>
      </trkpt>
      <trkpt lat="38.4301440" lon="-2.5046990">
        <ele>923.2</ele>
        <time>2019-11-01T12:01:04Z</time>
      </trkpt>
      <trkpt lat="38.4301880" lon="-2.5047230">
        <ele>923.2</ele>
        <time>2019-11-01T12:01:06Z</time>
      </trkpt>
      <trkpt lat="38.4307400" lon="-2.5042480">
        <ele>925.2</ele>
        <time>2019-11-01T12:01:36Z</time>
      </trkpt>
      <trkpt lat="38.4305640" lon="-2.5042520">
        <ele>925.2</ele>
        <time>2019-11-01T12:01:47Z</time>
      </trkpt>
      <trkpt lat="38.4303900" lon="-2.5043920">
        <ele>925.2</ele>
        <time>2019-11-01T12:01:52Z</time>
      </trkpt>
      <trkpt lat="38.4303510" lon="-2.5044470">
        <ele>925.2</ele>
        <time>2019-11-01T12:01:54Z</time>
      </trkpt>
      <trkpt lat="38.4303460" lon="-2.5044870">
        <ele>925.2</ele>
        <time>2019-11-01T12:01:58Z</time>
      </trkpt>
      <trkpt lat="38.4302670" lon="-2.5045460">
        <ele>925.2</ele>
        <time>2019-11-01T12:02:03Z</time>
      </trkpt>
      <trkpt lat="38.4302110" lon="-2.5046030">
        <ele>925.2</ele>
        <time>2019-11-01T12:02:05Z</time>
      </trkpt>
      <trkpt lat="38.4301640" lon="-2.5046550">
        <ele>925.2</ele>
        <time>2019-11-01T12:02:07Z</time>
      </trkpt>
      <trkpt lat="38.4301390" lon="-2.5046880">
        <ele>925.2</ele>
        <time>2019-11-01T12:02:09Z</time>
      </trkpt>
      <trkpt lat="38.4301670" lon="-2.5046730">
        <ele>925.2</ele>
        <time>2019-11-01T12:02:18Z</time>
      </trkpt>
      <trkpt lat="38.4301260" lon="-2.5047020">
        <ele>925.2</ele>
        <time>2019-11-01T12:02:22Z</time>
      </trkpt>
      <trkpt lat="38.4301800" lon="-2.5046950">
        <ele>925.2</ele>
        <time>2019-11-01T12:02:27Z</time>
      </trkpt>
      <trkpt lat="38.4301980" lon="-2.5047170">
        <ele>925.2</ele>
        <time>2019-11-01T12:02:37Z</time>
      </trkpt>
      <trkpt lat="38.4302280" lon="-2.5047160">
        <ele>925.2</ele>
        <time>2019-11-01T12:02:44Z</time>
      </trkpt>
      <trkpt lat="38.4301880" lon="-2.5047610">
        <ele>925.2</ele>
        <time>2019-11-01T12:02:52Z</time>
      </trkpt>
      <trkpt lat="38.4301490" lon="-2.5047750">
        <ele>925.2</ele>
        <time>2019-11-01T12:02:55Z</time>
      </trkpt>
      <trkpt lat="38.4301900" lon="-2.5047490">
        <ele>925.2</ele>
        <time>2019-11-01T12:02:57Z</time>
      </trkpt>
      <trkpt lat="38.4302110" lon="-2.5046790">
        <ele>925.2</ele>
        <time>2019-11-01T12:03:02Z</time>
      </trkpt>
      <trkpt lat="38.4302670" lon="-2.5046250">
        <ele>925.2</ele>
        <time>2019-11-01T12:03:04Z</time>
      </trkpt>
      <trkpt lat="38.4302980" lon="-2.5046210">
        <ele>925.2</ele>
        <time>2019-11-01T12:03:07Z</time>
      </trkpt>
      <trkpt lat="38.4302900" lon="-2.5046000">
        <ele>925.2</ele>
        <time>2019-11-01T12:03:12Z</time>
      </trkpt>
      <trkpt lat="38.4302280" lon="-2.5045850">
        <ele>925.2</ele>
        <time>2019-11-01T12:03:17Z</time>
      </trkpt>
      <trkpt lat="38.4301160" lon="-2.5046060">
        <ele>925.2</ele>
        <time>2019-11-01T12:03:25Z</time>
      </trkpt>
      <trkpt lat="38.4300850" lon="-2.5046420">
        <ele>925.2</ele>
        <time>2019-11-01T12:03:28Z</time>
      </trkpt>
      <trkpt lat="38.4301390" lon="-2.5046470">
        <ele>925.2</ele>
        <time>2019-11-01T12:03:32Z</time>
      </trkpt>
      <trkpt lat="38.4300950" lon="-2.5046280">
        <ele>925.2</ele>
        <time>2019-11-01T12:03:42Z</time>
      </trkpt>
      <trkpt lat="38.4300110" lon="-2.5046310">
        <ele>925.2</ele>
        <time>2019-11-01T12:03:46Z</time>
      </trkpt>
      <trkpt lat="38.4300160" lon="-2.5046460">
        <ele>925.2</ele>
        <time>2019-11-01T12:03:50Z</time>
      </trkpt>
      <trkpt lat="38.4300310" lon="-2.5046490">
        <ele>920.3</ele>
        <time>2019-11-01T12:03:52Z</time>
      </trkpt>
      <trkpt lat="38.4301000" lon="-2.5046410">
        <ele>920.3</ele>
        <time>2019-11-01T12:03:56Z</time>
      </trkpt>
      <trkpt lat="38.4300800" lon="-2.5046690">
        <ele>920.3</ele>
        <time>2019-11-01T12:04:00Z</time>
      </trkpt>
      <trkpt lat="38.4300240" lon="-2.5047050">
        <ele>920.3</ele>
        <time>2019-11-01T12:04:03Z</time>
      </trkpt>
      <trkpt lat="38.4299700" lon="-2.5047040">
        <ele>920.3</ele>
        <time>2019-11-01T12:04:07Z</time>
      </trkpt>
      <trkpt lat="38.4300030" lon="-2.5046050">
        <ele>920.3</ele>
        <time>2019-11-01T12:04:11Z</time>
      </trkpt>
      <trkpt lat="38.4299960" lon="-2.5046190">
        <ele>920.3</ele>
        <time>2019-11-01T12:04:15Z</time>
      </trkpt>
      <trkpt lat="38.4299780" lon="-2.5046640">
        <ele>920.3</ele>
        <time>2019-11-01T12:04:19Z</time>
      </trkpt>
      <trkpt lat="38.4300080" lon="-2.5047120">
        <ele>920.3</ele>
        <time>2019-11-01T12:04:24Z</time>
      </trkpt>
      <trkpt lat="38.4300700" lon="-2.5047420">
        <ele>920.3</ele>
        <time>2019-11-01T12:04:29Z</time>
      </trkpt>
      <trkpt lat="38.4301570" lon="-2.5047390">
        <ele>920.3</ele>
        <time>2019-11-01T12:04:32Z</time>
      </trkpt>
      <trkpt lat="38.4301590" lon="-2.5049050">
        <ele>920.3</ele>
        <time>2019-11-01T12:04:43Z</time>
      </trkpt>
      <trkpt lat="38.4303820" lon="-2.5046780">
        <ele>920.3</ele>
        <time>2019-11-01T12:06:40Z</time>
      </trkpt>
      <trkpt lat="38.4303360" lon="-2.5045690">
        <ele>920.3</ele>
        <time>2019-11-01T12:07:00Z</time>
      </trkpt>
      <trkpt lat="38.4303100" lon="-2.5045270">
        <ele>920.3</ele>
        <time>2019-11-01T12:07:10Z</time>
      </trkpt>
      <trkpt lat="38.4301490" lon="-2.5044050">
        <ele>920.3</ele>
        <time>2019-11-01T12:08:43Z</time>
      </trkpt>
      <trkpt lat="38.4301720" lon="-2.5044910">
        <ele>920.3</ele>
        <time>2019-11-01T12:08:48Z</time>
      </trkpt>
      <trkpt lat="38.4301880" lon="-2.5045640">
        <ele>920.3</ele>
        <time>2019-11-01T12:08:51Z</time>
      </trkpt>
      <trkpt lat="38.4302050" lon="-2.5045910">
        <ele>920.3</ele>
        <time>2019-11-01T12:08:56Z</time>
      </trkpt>
      <trkpt lat="38.4301590" lon="-2.5045090">
        <ele>920.3</ele>
        <time>2019-11-01T12:09:00Z</time>
      </trkpt>
      <trkpt lat="38.4301260" lon="-2.5044320">
        <ele>920.3</ele>
        <time>2019-11-01T12:09:02Z</time>
      </trkpt>
      <trkpt lat="38.4300930" lon="-2.5043400">
        <ele>921.5</ele>
        <time>2019-11-01T12:09:04Z</time>
      </trkpt>
      <trkpt lat="38.4300570" lon="-2.5042400">
        <ele>921.5</ele>
        <time>2019-11-01T12:09:06Z</time>
      </trkpt>
      <trkpt lat="38.4300390" lon="-2.5041380">
        <ele>922.7</ele>
        <time>2019-11-01T12:09:08Z</time>
      </trkpt>
      <trkpt lat="38.4300340" lon="-2.5040480">
        <ele>924.0</ele>
        <time>2019-11-01T12:09:10Z</time>
      </trkpt>
      <trkpt lat="38.4300470" lon="-2.5039960">
        <ele>924.0</ele>
        <time>2019-11-01T12:09:12Z</time>
      </trkpt>
      <trkpt lat="38.4300950" lon="-2.5039970">
        <ele>926.6</ele>
        <time>2019-11-01T12:09:16Z</time>
      </trkpt>
      <trkpt lat="38.4301410" lon="-2.5040340">
        <ele>926.6</ele>
        <time>2019-11-01T12:09:19Z</time>
      </trkpt>
      <trkpt lat="38.4301820" lon="-2.5040780">
        <ele>927.8</ele>
        <time>2019-11-01T12:09:22Z</time>
      </trkpt>
      <trkpt lat="38.4302210" lon="-2.5041240">
        <ele>927.8</ele>
        <time>2019-11-01T12:09:25Z</time>
      </trkpt>
      <trkpt lat="38.4302640" lon="-2.5041680">
        <ele>927.8</ele>
        <time>2019-11-01T12:09:28Z</time>
      </trkpt>
      <trkpt lat="38.4303100" lon="-2.5042050">
        <ele>929.0</ele>
        <time>2019-11-01T12:09:31Z</time>
      </trkpt>
      <trkpt lat="38.4303510" lon="-2.5042400">
        <ele>929.0</ele>
        <time>2019-11-01T12:09:34Z</time>
      </trkpt>
      <trkpt lat="38.4304000" lon="-2.5042940">
        <ele>930.3</ele>
        <time>2019-11-01T12:09:38Z</time>
      </trkpt>
      <trkpt lat="38.4304380" lon="-2.5043460">
        <ele>930.3</ele>
        <time>2019-11-01T12:09:42Z</time>
      </trkpt>
      <trkpt lat="38.4304770" lon="-2.5043950">
        <ele>931.5</ele>
        <time>2019-11-01T12:09:46Z</time>
      </trkpt>
      <trkpt lat="38.4305230" lon="-2.5044470">
        <ele>931.5</ele>
        <time>2019-11-01T12:09:50Z</time>
      </trkpt>
      <trkpt lat="38.4305770" lon="-2.5045040">
        <ele>931.5</ele>
        <time>2019-11-01T12:09:54Z</time>
      </trkpt>
      <trkpt lat="38.4306180" lon="-2.5045570">
        <ele>931.5</ele>
        <time>2019-11-01T12:09:57Z</time>
      </trkpt>
      <trkpt lat="38.4306640" lon="-2.5046450">
        <ele>931.5</ele>
        <time>2019-11-01T12:10:00Z</time>
      </trkpt>
      <trkpt lat="38.4307000" lon="-2.5047270">
        <ele>931.5</ele>
        <time>2019-11-01T12:10:02Z</time>
      </trkpt>
      <trkpt lat="38.4307230" lon="-2.5048280">
        <ele>931.5</ele>
        <time>2019-11-01T12:10:04Z</time>
      </trkpt>
      <trkpt lat="38.4307400" lon="-2.5049430">
        <ele>931.5</ele>
        <time>2019-11-01T12:10:06Z</time>
      </trkpt>
      <trkpt lat="38.4307510" lon="-2.5050060">
        <ele>931.5</ele>
        <time>2019-11-01T12:10:07Z</time>
      </trkpt>
      <trkpt lat="38.4307790" lon="-2.5051210">
        <ele>931.5</ele>
        <time>2019-11-01T12:10:09Z</time>
      </trkpt>
      <trkpt lat="38.4308200" lon="-2.5052080">
        <ele>931.5</ele>
        <time>2019-11-01T12:10:11Z</time>
      </trkpt>
      <trkpt lat="38.4308740" lon="-2.5052690">
        <ele>931.5</ele>
        <time>2019-11-01T12:10:13Z</time>
      </trkpt>
      <trkpt lat="38.4309220" lon="-2.5053130">
        <ele>931.5</ele>
        <time>2019-11-01T12:10:15Z</time>
      </trkpt>
      <trkpt lat="38.4309680" lon="-2.5053450">
        <ele>930.2</ele>
        <time>2019-11-01T12:10:18Z</time>
      </trkpt>
      <trkpt lat="38.4310730" lon="-2.5053700">
        <ele>930.2</ele>
        <time>2019-11-01T12:10:39Z</time>
      </trkpt>
      <trkpt lat="38.4311710" lon="-2.5053870">
        <ele>930.2</ele>
        <time>2019-11-01T12:10:42Z</time>
      </trkpt>
      <trkpt lat="38.4312370" lon="-2.5054210">
        <ele>930.2</ele>
        <time>2019-11-01T12:10:44Z</time>
      </trkpt>
      <trkpt lat="38.4312930" lon="-2.5054690">
        <ele>930.2</ele>
        <time>2019-11-01T12:10:46Z</time>
      </trkpt>
      <trkpt lat="38.4313470" lon="-2.5055200">
        <ele>930.2</ele>
        <time>2019-11-01T12:10:48Z</time>
      </trkpt>
      <trkpt lat="38.4313930" lon="-2.5055560">
        <ele>930.2</ele>
        <time>2019-11-01T12:10:50Z</time>
      </trkpt>
      <trkpt lat="38.4314500" lon="-2.5055830">
        <ele>930.2</ele>
        <time>2019-11-01T12:10:53Z</time>
      </trkpt>
      <trkpt lat="38.4314850" lon="-2.5055460">
        <ele>931.6</ele>
        <time>2019-11-01T12:10:58Z</time>
      </trkpt>
      <trkpt lat="38.4315060" lon="-2.5054950">
        <ele>934.4</ele>
        <time>2019-11-01T12:11:02Z</time>
      </trkpt>
      <trkpt lat="38.4314930" lon="-2.5054350">
        <ele>935.7</ele>
        <time>2019-11-01T12:11:06Z</time>
      </trkpt>
      <trkpt lat="38.4314700" lon="-2.5053820">
        <ele>935.7</ele>
        <time>2019-11-01T12:11:10Z</time>
      </trkpt>
      <trkpt lat="38.4314730" lon="-2.5053230">
        <ele>936.8</ele>
        <time>2019-11-01T12:11:15Z</time>
      </trkpt>
      <trkpt lat="38.4315190" lon="-2.5053120">
        <ele>938.0</ele>
        <time>2019-11-01T12:11:20Z</time>
      </trkpt>
      <trkpt lat="38.4315750" lon="-2.5053220">
        <ele>939.2</ele>
        <time>2019-11-01T12:11:26Z</time>
      </trkpt>
      <trkpt lat="38.4316260" lon="-2.5053510">
        <ele>940.4</ele>
        <time>2019-11-01T12:11:31Z</time>
      </trkpt>
      <trkpt lat="38.4316720" lon="-2.5053780">
        <ele>941.6</ele>
        <time>2019-11-01T12:11:36Z</time>
      </trkpt>
      <trkpt lat="38.4317060" lon="-2.5054360">
        <ele>942.8</ele>
        <time>2019-11-01T12:11:42Z</time>
      </trkpt>
      <trkpt lat="38.4317290" lon="-2.5054950">
        <ele>944.0</ele>
        <time>2019-11-01T12:11:47Z</time>
      </trkpt>
      <trkpt lat="38.4317620" lon="-2.5054990">
        <ele>944.0</ele>
        <time>2019-11-01T12:11:54Z</time>
      </trkpt>
      <trkpt lat="38.4322480" lon="-2.5052660">
        <ele>966.0</ele>
        <time>2019-11-01T12:15:10Z</time>
      </trkpt>
      <trkpt lat="38.4323070" lon="-2.5052210">
        <ele>966.0</ele>
        <time>2019-11-01T12:15:15Z</time>
      </trkpt>
      <trkpt lat="38.4323690" lon="-2.5051840">
        <ele>966.0</ele>
        <time>2019-11-01T12:15:18Z</time>
      </trkpt>
      <trkpt lat="38.4324350" lon="-2.5051480">
        <ele>966.0</ele>
        <time>2019-11-01T12:15:21Z</time>
      </trkpt>
      <trkpt lat="38.4324840" lon="-2.5051060">
        <ele>966.0</ele>
        <time>2019-11-01T12:15:24Z</time>
      </trkpt>
      <trkpt lat="38.4325300" lon="-2.5050560">
        <ele>966.0</ele>
        <time>2019-11-01T12:15:27Z</time>
      </trkpt>
      <trkpt lat="38.4325710" lon="-2.5050000">
        <ele>967.2</ele>
        <time>2019-11-01T12:15:30Z</time>
      </trkpt>
      <trkpt lat="38.4326090" lon="-2.5049440">
        <ele>968.4</ele>
        <time>2019-11-01T12:15:33Z</time>
      </trkpt>
      <trkpt lat="38.4326550" lon="-2.5048940">
        <ele>969.6</ele>
        <time>2019-11-01T12:15:36Z</time>
      </trkpt>
      <trkpt lat="38.4327090" lon="-2.5048520">
        <ele>969.6</ele>
        <time>2019-11-01T12:15:39Z</time>
      </trkpt>
      <trkpt lat="38.4327650" lon="-2.5048180">
        <ele>969.6</ele>
        <time>2019-11-01T12:15:42Z</time>
      </trkpt>
      <trkpt lat="38.4328190" lon="-2.5047910">
        <ele>969.6</ele>
        <time>2019-11-01T12:15:45Z</time>
      </trkpt>
      <trkpt lat="38.4328680" lon="-2.5047700">
        <ele>969.6</ele>
        <time>2019-11-01T12:15:48Z</time>
      </trkpt>
      <trkpt lat="38.4329190" lon="-2.5047550">
        <ele>969.6</ele>
        <time>2019-11-01T12:15:51Z</time>
      </trkpt>
      <trkpt lat="38.4329960" lon="-2.5047000">
        <ele>969.6</ele>
        <time>2019-11-01T12:15:56Z</time>
      </trkpt>
      <trkpt lat="38.4330440" lon="-2.5046540">
        <ele>969.6</ele>
        <time>2019-11-01T12:16:00Z</time>
      </trkpt>
      <trkpt lat="38.4330980" lon="-2.5046170">
        <ele>969.6</ele>
        <time>2019-11-01T12:16:04Z</time>
      </trkpt>
      <trkpt lat="38.4331470" lon="-2.5045820">
        <ele>969.6</ele>
        <time>2019-11-01T12:16:08Z</time>
      </trkpt>
      <trkpt lat="38.4331930" lon="-2.5045460">
        <ele>969.6</ele>
        <time>2019-11-01T12:16:12Z</time>
      </trkpt>
      <trkpt lat="38.4332310" lon="-2.5045070">
        <ele>969.6</ele>
        <time>2019-11-01T12:16:16Z</time>
      </trkpt>
      <trkpt lat="38.4332700" lon="-2.5044460">
        <ele>969.6</ele>
        <time>2019-11-01T12:16:21Z</time>
      </trkpt>
      <trkpt lat="38.4332950" lon="-2.5044110">
        <ele>973.4</ele>
        <time>2019-11-01T12:16:24Z</time>
      </trkpt>
      <trkpt lat="38.4333310" lon="-2.5043710">
        <ele>975.0</ele>
        <time>2019-11-01T12:16:28Z</time>
      </trkpt>
      <trkpt lat="38.4333720" lon="-2.5043340">
        <ele>976.4</ele>
        <time>2019-11-01T12:16:32Z</time>
      </trkpt>
      <trkpt lat="38.4334110" lon="-2.5042970">
        <ele>977.6</ele>
        <time>2019-11-01T12:16:36Z</time>
      </trkpt>
      <trkpt lat="38.4334590" lon="-2.5042600">
        <ele>979.0</ele>
        <time>2019-11-01T12:16:41Z</time>
      </trkpt>
      <trkpt lat="38.4334980" lon="-2.5042310">
        <ele>980.4</ele>
        <time>2019-11-01T12:16:45Z</time>
      </trkpt>
      <trkpt lat="38.4335410" lon="-2.5042010">
        <ele>980.4</ele>
        <time>2019-11-01T12:16:49Z</time>
      </trkpt>
      <trkpt lat="38.4335950" lon="-2.5041690">
        <ele>981.7</ele>
        <time>2019-11-01T12:16:54Z</time>
      </trkpt>
      <trkpt lat="38.4336590" lon="-2.5041490">
        <ele>981.7</ele>
        <time>2019-11-01T12:16:59Z</time>
      </trkpt>
      <trkpt lat="38.4337000" lon="-2.5041330">
        <ele>982.8</ele>
        <time>2019-11-01T12:17:03Z</time>
      </trkpt>
      <trkpt lat="38.4341990" lon="-2.5038250">
        <ele>990.7</ele>
        <time>2019-11-01T12:19:05Z</time>
      </trkpt>
      <trkpt lat="38.4342370" lon="-2.5037660">
        <ele>990.7</ele>
        <time>2019-11-01T12:19:07Z</time>
      </trkpt>
      <trkpt lat="38.4342680" lon="-2.5037010">
        <ele>990.7</ele>
        <time>2019-11-01T12:19:09Z</time>
      </trkpt>
      <trkpt lat="38.4343040" lon="-2.5036440">
        <ele>990.7</ele>
        <time>2019-11-01T12:19:11Z</time>
      </trkpt>
      <trkpt lat="38.4343420" lon="-2.5035860">
        <ele>990.7</ele>
        <time>2019-11-01T12:19:13Z</time>
      </trkpt>
      <trkpt lat="38.4343910" lon="-2.5035200">
        <ele>990.7</ele>
        <time>2019-11-01T12:19:15Z</time>
      </trkpt>
      <trkpt lat="38.4344450" lon="-2.5034370">
        <ele>990.7</ele>
        <time>2019-11-01T12:19:17Z</time>
      </trkpt>
      <trkpt lat="38.4345060" lon="-2.5033370">
        <ele>990.7</ele>
        <time>2019-11-01T12:19:19Z</time>
      </trkpt>
      <trkpt lat="38.4345630" lon="-2.5032420">
        <ele>990.7</ele>
        <time>2019-11-01T12:19:21Z</time>
      </trkpt>
      <trkpt lat="38.4346240" lon="-2.5031550">
        <ele>990.7</ele>
        <time>2019-11-01T12:19:23Z</time>
      </trkpt>
      <trkpt lat="38.4346780" lon="-2.5030760">
        <ele>990.7</ele>
        <time>2019-11-01T12:19:25Z</time>
      </trkpt>
      <trkpt lat="38.4347160" lon="-2.5029920">
        <ele>990.7</ele>
        <time>2019-11-01T12:19:27Z</time>
      </trkpt>
      <trkpt lat="38.4347420" lon="-2.5029130">
        <ele>990.7</ele>
        <time>2019-11-01T12:19:29Z</time>
      </trkpt>
      <trkpt lat="38.4347570" lon="-2.5028490">
        <ele>990.7</ele>
        <time>2019-11-01T12:19:31Z</time>
      </trkpt>
      <trkpt lat="38.4347720" lon="-2.5027930">
        <ele>990.7</ele>
        <time>2019-11-01T12:19:33Z</time>
      </trkpt>
      <trkpt lat="38.4348190" lon="-2.5027210">
        <ele>990.7</ele>
        <time>2019-11-01T12:19:36Z</time>
      </trkpt>
      <trkpt lat="38.4348520" lon="-2.5026720">
        <ele>990.7</ele>
        <time>2019-11-01T12:19:38Z</time>
      </trkpt>
      <trkpt lat="38.4348830" lon="-2.5026230">
        <ele>990.7</ele>
        <time>2019-11-01T12:19:41Z</time>
      </trkpt>
      <trkpt lat="38.4349590" lon="-2.5024940">
        <ele>989.5</ele>
        <time>2019-11-01T12:20:05Z</time>
      </trkpt>
      <trkpt lat="38.4350080" lon="-2.5024160">
        <ele>989.5</ele>
        <time>2019-11-01T12:20:08Z</time>
      </trkpt>
      <trkpt lat="38.4350540" lon="-2.5023440">
        <ele>989.5</ele>
        <time>2019-11-01T12:20:10Z</time>
      </trkpt>
      <trkpt lat="38.4351130" lon="-2.5022790">
        <ele>989.5</ele>
        <time>2019-11-01T12:20:12Z</time>
      </trkpt>
      <trkpt lat="38.4351770" lon="-2.5022300">
        <ele>989.5</ele>
        <time>2019-11-01T12:20:14Z</time>
      </trkpt>
      <trkpt lat="38.4352380" lon="-2.5021950">
        <ele>988.0</ele>
        <time>2019-11-01T12:20:16Z</time>
      </trkpt>
      <trkpt lat="38.4352950" lon="-2.5021720">
        <ele>988.0</ele>
        <time>2019-11-01T12:20:18Z</time>
      </trkpt>
      <trkpt lat="38.4353460" lon="-2.5021650">
        <ele>988.0</ele>
        <time>2019-11-01T12:20:20Z</time>
      </trkpt>
      <trkpt lat="38.4353970" lon="-2.5021700">
        <ele>988.0</ele>
        <time>2019-11-01T12:20:22Z</time>
      </trkpt>
      <trkpt lat="38.4354510" lon="-2.5021770">
        <ele>988.0</ele>
        <time>2019-11-01T12:20:24Z</time>
      </trkpt>
      <trkpt lat="38.4355050" lon="-2.5021810">
        <ele>988.0</ele>
        <time>2019-11-01T12:20:26Z</time>
      </trkpt>
      <trkpt lat="38.4355580" lon="-2.5021780">
        <ele>988.0</ele>
        <time>2019-11-01T12:20:28Z</time>
      </trkpt>
      <trkpt lat="38.4356220" lon="-2.5021630">
        <ele>988.0</ele>
        <time>2019-11-01T12:20:31Z</time>
      </trkpt>
      <trkpt lat="38.4356920" lon="-2.5021440">
        <ele>988.0</ele>
        <time>2019-11-01T12:20:34Z</time>
      </trkpt>
      <trkpt lat="38.4357560" lon="-2.5021270">
        <ele>988.0</ele>
        <time>2019-11-01T12:20:37Z</time>
      </trkpt>
      <trkpt lat="38.4358090" lon="-2.5021160">
        <ele>989.2</ele>
        <time>2019-11-01T12:20:40Z</time>
      </trkpt>
      <trkpt lat="38.4358550" lon="-2.5021030">
        <ele>990.5</ele>
        <time>2019-11-01T12:20:43Z</time>
      </trkpt>
      <trkpt lat="38.4359070" lon="-2.5020960">
        <ele>990.5</ele>
        <time>2019-11-01T12:20:46Z</time>
      </trkpt>
      <trkpt lat="38.4359500" lon="-2.5020920">
        <ele>991.7</ele>
        <time>2019-11-01T12:20:49Z</time>
      </trkpt>
      <trkpt lat="38.4360040" lon="-2.5020960">
        <ele>991.7</ele>
        <time>2019-11-01T12:20:53Z</time>
      </trkpt>
      <trkpt lat="38.4360550" lon="-2.5021280">
        <ele>992.9</ele>
        <time>2019-11-01T12:20:57Z</time>
      </trkpt>
      <trkpt lat="38.4360960" lon="-2.5021660">
        <ele>994.4</ele>
        <time>2019-11-01T12:21:01Z</time>
      </trkpt>
      <trkpt lat="38.4361420" lon="-2.5022140">
        <ele>994.4</ele>
        <time>2019-11-01T12:21:05Z</time>
      </trkpt>
      <trkpt lat="38.4361800" lon="-2.5022660">
        <ele>994.4</ele>
        <time>2019-11-01T12:21:09Z</time>
      </trkpt>
      <trkpt lat="38.4362140" lon="-2.5023230">
        <ele>994.4</ele>
        <time>2019-11-01T12:21:13Z</time>
      </trkpt>
      <trkpt lat="38.4362570" lon="-2.5023700">
        <ele>994.4</ele>
        <time>2019-11-01T12:21:17Z</time>
      </trkpt>
      <trkpt lat="38.4363030" lon="-2.5023860">
        <ele>995.6</ele>
        <time>2019-11-01T12:21:21Z</time>
      </trkpt>
      <trkpt lat="38.4363440" lon="-2.5023650">
        <ele>999.1</ele>
        <time>2019-11-01T12:21:25Z</time>
      </trkpt>
      <trkpt lat="38.4363830" lon="-2.5023230">
        <ele>1000.3</ele>
        <time>2019-11-01T12:21:29Z</time>
      </trkpt>
      <trkpt lat="38.4364080" lon="-2.5022640">
        <ele>1000.3</ele>
        <time>2019-11-01T12:21:33Z</time>
      </trkpt>
      <trkpt lat="38.4364310" lon="-2.5022030">
        <ele>1000.3</ele>
        <time>2019-11-01T12:21:37Z</time>
      </trkpt>
      <trkpt lat="38.4364470" lon="-2.5021380">
        <ele>1000.3</ele>
        <time>2019-11-01T12:21:41Z</time>
      </trkpt>
      <trkpt lat="38.4364750" lon="-2.5020660">
        <ele>1000.3</ele>
        <time>2019-11-01T12:21:46Z</time>
      </trkpt>
      <trkpt lat="38.4365180" lon="-2.5020130">
        <ele>1000.3</ele>
        <time>2019-11-01T12:21:50Z</time>
      </trkpt>
      <trkpt lat="38.4365620" lon="-2.5019620">
        <ele>1000.3</ele>
        <time>2019-11-01T12:21:54Z</time>
      </trkpt>
      <trkpt lat="38.4366030" lon="-2.5019080">
        <ele>1000.3</ele>
        <time>2019-11-01T12:21:58Z</time>
      </trkpt>
      <trkpt lat="38.4366310" lon="-2.5018370">
        <ele>1000.3</ele>
        <time>2019-11-01T12:22:02Z</time>
      </trkpt>
      <trkpt lat="38.4366460" lon="-2.5017780">
        <ele>1000.3</ele>
        <time>2019-11-01T12:22:05Z</time>
      </trkpt>
      <trkpt lat="38.4366690" lon="-2.5017010">
        <ele>1000.3</ele>
        <time>2019-11-01T12:22:09Z</time>
      </trkpt>
      <trkpt lat="38.4366850" lon="-2.5016160">
        <ele>1000.3</ele>
        <time>2019-11-01T12:22:13Z</time>
      </trkpt>
      <trkpt lat="38.4367000" lon="-2.5015470">
        <ele>1000.3</ele>
        <time>2019-11-01T12:22:16Z</time>
      </trkpt>
      <trkpt lat="38.4367210" lon="-2.5014700">
        <ele>1000.3</ele>
        <time>2019-11-01T12:22:19Z</time>
      </trkpt>
      <trkpt lat="38.4367440" lon="-2.5014090">
        <ele>994.5</ele>
        <time>2019-11-01T12:22:21Z</time>
      </trkpt>
      <trkpt lat="38.4367560" lon="-2.5013780">
        <ele>987.1</ele>
        <time>2019-11-01T12:22:22Z</time>
      </trkpt>
      <trkpt lat="38.4367720" lon="-2.5013490">
        <ele>981.8</ele>
        <time>2019-11-01T12:22:23Z</time>
      </trkpt>
      <trkpt lat="38.4367870" lon="-2.5013190">
        <ele>977.6</ele>
        <time>2019-11-01T12:22:24Z</time>
      </trkpt>
      <trkpt lat="38.4368180" lon="-2.5012580">
        <ele>974.1</ele>
        <time>2019-11-01T12:22:26Z</time>
      </trkpt>
      <trkpt lat="38.4368490" lon="-2.5011930">
        <ele>970.4</ele>
        <time>2019-11-01T12:22:28Z</time>
      </trkpt>
      <trkpt lat="38.4368870" lon="-2.5011220">
        <ele>965.9</ele>
        <time>2019-11-01T12:22:30Z</time>
      </trkpt>
      <trkpt lat="38.4369230" lon="-2.5010500">
        <ele>962.1</ele>
        <time>2019-11-01T12:22:32Z</time>
      </trkpt>
      <trkpt lat="38.4369610" lon="-2.5009760">
        <ele>959.0</ele>
        <time>2019-11-01T12:22:34Z</time>
      </trkpt>
      <trkpt lat="38.4370050" lon="-2.5009050">
        <ele>955.4</ele>
        <time>2019-11-01T12:22:36Z</time>
      </trkpt>
      <trkpt lat="38.4370460" lon="-2.5008380">
        <ele>953.9</ele>
        <time>2019-11-01T12:22:38Z</time>
      </trkpt>
      <trkpt lat="38.4370890" lon="-2.5007670">
        <ele>952.6</ele>
        <time>2019-11-01T12:22:40Z</time>
      </trkpt>
      <trkpt lat="38.4371300" lon="-2.5006950">
        <ele>952.6</ele>
        <time>2019-11-01T12:22:42Z</time>
      </trkpt>
      <trkpt lat="38.4371690" lon="-2.5006270">
        <ele>952.6</ele>
        <time>2019-11-01T12:22:44Z</time>
      </trkpt>
      <trkpt lat="38.4372020" lon="-2.5005660">
        <ele>952.6</ele>
        <time>2019-11-01T12:22:46Z</time>
      </trkpt>
      <trkpt lat="38.4372400" lon="-2.5005030">
        <ele>951.3</ele>
        <time>2019-11-01T12:22:48Z</time>
      </trkpt>
      <trkpt lat="38.4372710" lon="-2.5004430">
        <ele>951.3</ele>
        <time>2019-11-01T12:22:50Z</time>
      </trkpt>
      <trkpt lat="38.4372970" lon="-2.5003870">
        <ele>951.3</ele>
        <time>2019-11-01T12:22:52Z</time>
      </trkpt>
      <trkpt lat="38.4373200" lon="-2.5003370">
        <ele>951.3</ele>
        <time>2019-11-01T12:22:54Z</time>
      </trkpt>
      <trkpt lat="38.4373560" lon="-2.5002670">
        <ele>951.3</ele>
        <time>2019-11-01T12:22:57Z</time>
      </trkpt>
      <trkpt lat="38.4373860" lon="-2.5001900">
        <ele>951.3</ele>
        <time>2019-11-01T12:23:00Z</time>
      </trkpt>
      <trkpt lat="38.4374120" lon="-2.5001010">
        <ele>951.3</ele>
        <time>2019-11-01T12:23:03Z</time>
      </trkpt>
      <trkpt lat="38.4374270" lon="-2.5000360">
        <ele>951.3</ele>
        <time>2019-11-01T12:23:05Z</time>
      </trkpt>
      <trkpt lat="38.4374480" lon="-2.4999640">
        <ele>951.3</ele>
        <time>2019-11-01T12:23:07Z</time>
      </trkpt>
      <trkpt lat="38.4374660" lon="-2.4998880">
        <ele>960.8</ele>
        <time>2019-11-01T12:23:09Z</time>
      </trkpt>
      <trkpt lat="38.4374760" lon="-2.4998460">
        <ele>967.1</ele>
        <time>2019-11-01T12:23:10Z</time>
      </trkpt>
      <trkpt lat="38.4374840" lon="-2.4998020">
        <ele>971.7</ele>
        <time>2019-11-01T12:23:11Z</time>
      </trkpt>
      <trkpt lat="38.4374960" lon="-2.4997580">
        <ele>974.8</ele>
        <time>2019-11-01T12:23:12Z</time>
      </trkpt>
      <trkpt lat="38.4375140" lon="-2.4996690">
        <ele>979.0</ele>
        <time>2019-11-01T12:23:14Z</time>
      </trkpt>
      <trkpt lat="38.4375350" lon="-2.4995760">
        <ele>980.4</ele>
        <time>2019-11-01T12:23:16Z</time>
      </trkpt>
      <trkpt lat="38.4375530" lon="-2.4994800">
        <ele>980.4</ele>
        <time>2019-11-01T12:23:18Z</time>
      </trkpt>
      <trkpt lat="38.4375730" lon="-2.4993940">
        <ele>981.6</ele>
        <time>2019-11-01T12:23:20Z</time>
      </trkpt>
      <trkpt lat="38.4376040" lon="-2.4992630">
        <ele>981.6</ele>
        <time>2019-11-01T12:23:23Z</time>
      </trkpt>
      <trkpt lat="38.4376220" lon="-2.4991810">
        <ele>981.6</ele>
        <time>2019-11-01T12:23:25Z</time>
      </trkpt>
      <trkpt lat="38.4376520" lon="-2.4990800">
        <ele>981.6</ele>
        <time>2019-11-01T12:23:28Z</time>
      </trkpt>
      <trkpt lat="38.4376700" lon="-2.4990190">
        <ele>981.6</ele>
        <time>2019-11-01T12:23:30Z</time>
      </trkpt>
      <trkpt lat="38.4376830" lon="-2.4989410">
        <ele>982.8</ele>
        <time>2019-11-01T12:23:33Z</time>
      </trkpt>
      <trkpt lat="38.4376930" lon="-2.4988750">
        <ele>982.8</ele>
        <time>2019-11-01T12:23:36Z</time>
      </trkpt>
      <trkpt lat="38.4377010" lon="-2.4988060">
        <ele>984.0</ele>
        <time>2019-11-01T12:23:39Z</time>
      </trkpt>
      <trkpt lat="38.4377060" lon="-2.4987290">
        <ele>992.1</ele>
        <time>2019-11-01T12:23:42Z</time>
      </trkpt>
      <trkpt lat="38.4377090" lon="-2.4987010">
        <ele>997.1</ele>
        <time>2019-11-01T12:23:43Z</time>
      </trkpt>
      <trkpt lat="38.4377090" lon="-2.4986770">
        <ele>1000.7</ele>
        <time>2019-11-01T12:23:44Z</time>
      </trkpt>
      <trkpt lat="38.4377220" lon="-2.4986240">
        <ele>1005.2</ele>
        <time>2019-11-01T12:23:46Z</time>
      </trkpt>
      <trkpt lat="38.4377450" lon="-2.4985680">
        <ele>1006.6</ele>
        <time>2019-11-01T12:23:48Z</time>
      </trkpt>
      <trkpt lat="38.4377860" lon="-2.4985090">
        <ele>1008.5</ele>
        <time>2019-11-01T12:23:50Z</time>
      </trkpt>
      <trkpt lat="38.4378390" lon="-2.4984510">
        <ele>1008.5</ele>
        <time>2019-11-01T12:23:52Z</time>
      </trkpt>
      <trkpt lat="38.4379010" lon="-2.4983970">
        <ele>1008.5</ele>
        <time>2019-11-01T12:23:54Z</time>
      </trkpt>
      <trkpt lat="38.4379650" lon="-2.4983440">
        <ele>1008.5</ele>
        <time>2019-11-01T12:23:56Z</time>
      </trkpt>
      <trkpt lat="38.4380260" lon="-2.4982850">
        <ele>1008.5</ele>
        <time>2019-11-01T12:23:58Z</time>
      </trkpt>
      <trkpt lat="38.4380800" lon="-2.4982240">
        <ele>1008.5</ele>
        <time>2019-11-01T12:24:00Z</time>
      </trkpt>
      <trkpt lat="38.4381260" lon="-2.4981560">
        <ele>1008.5</ele>
        <time>2019-11-01T12:24:02Z</time>
      </trkpt>
      <trkpt lat="38.4381570" lon="-2.4980750">
        <ele>1008.5</ele>
        <time>2019-11-01T12:24:04Z</time>
      </trkpt>
      <trkpt lat="38.4381570" lon="-2.4979850">
        <ele>1008.5</ele>
        <time>2019-11-01T12:24:06Z</time>
      </trkpt>
      <trkpt lat="38.4381180" lon="-2.4978980">
        <ele>1008.5</ele>
        <time>2019-11-01T12:24:08Z</time>
      </trkpt>
      <trkpt lat="38.4380260" lon="-2.4978310">
        <ele>1008.5</ele>
        <time>2019-11-01T12:24:10Z</time>
      </trkpt>
      <trkpt lat="38.4379490" lon="-2.4977930">
        <ele>1008.5</ele>
        <time>2019-11-01T12:24:11Z</time>
      </trkpt>
      <trkpt lat="38.4378700" lon="-2.4977610">
        <ele>1008.5</ele>
        <time>2019-11-01T12:24:12Z</time>
      </trkpt>
      <trkpt lat="38.4377910" lon="-2.4977220">
        <ele>1009.7</ele>
        <time>2019-11-01T12:24:13Z</time>
      </trkpt>
      <trkpt lat="38.4377240" lon="-2.4976790">
        <ele>1009.7</ele>
        <time>2019-11-01T12:24:14Z</time>
      </trkpt>
      <trkpt lat="38.4376650" lon="-2.4976290">
        <ele>1009.7</ele>
        <time>2019-11-01T12:24:15Z</time>
      </trkpt>
      <trkpt lat="38.4376120" lon="-2.4975730">
        <ele>1009.7</ele>
        <time>2019-11-01T12:24:16Z</time>
      </trkpt>
      <trkpt lat="38.4375680" lon="-2.4975140">
        <ele>1009.7</ele>
        <time>2019-11-01T12:24:17Z</time>
      </trkpt>
      <trkpt lat="38.4375370" lon="-2.4974500">
        <ele>1009.7</ele>
        <time>2019-11-01T12:24:18Z</time>
      </trkpt>
      <trkpt lat="38.4375370" lon="-2.4973680">
        <ele>1009.7</ele>
        <time>2019-11-01T12:24:19Z</time>
      </trkpt>
      <trkpt lat="38.4375350" lon="-2.4972890">
        <ele>1009.7</ele>
        <time>2019-11-01T12:24:20Z</time>
      </trkpt>
      <trkpt lat="38.4375420" lon="-2.4972160">
        <ele>1009.7</ele>
        <time>2019-11-01T12:24:21Z</time>
      </trkpt>
      <trkpt lat="38.4375500" lon="-2.4971430">
        <ele>1009.7</ele>
        <time>2019-11-01T12:24:22Z</time>
      </trkpt>
      <trkpt lat="38.4375600" lon="-2.4970690">
        <ele>1009.7</ele>
        <time>2019-11-01T12:24:23Z</time>
      </trkpt>
      <trkpt lat="38.4375760" lon="-2.4969940">
        <ele>1009.7</ele>
        <time>2019-11-01T12:24:24Z</time>
      </trkpt>
      <trkpt lat="38.4376040" lon="-2.4969180">
        <ele>1009.7</ele>
        <time>2019-11-01T12:24:25Z</time>
      </trkpt>
      <trkpt lat="38.4376370" lon="-2.4968410">
        <ele>1009.7</ele>
        <time>2019-11-01T12:24:26Z</time>
      </trkpt>
      <trkpt lat="38.4376780" lon="-2.4967630">
        <ele>1009.7</ele>
        <time>2019-11-01T12:24:27Z</time>
      </trkpt>
      <trkpt lat="38.4377290" lon="-2.4966860">
        <ele>1009.7</ele>
        <time>2019-11-01T12:24:28Z</time>
      </trkpt>
      <trkpt lat="38.4377750" lon="-2.4966200">
        <ele>1009.7</ele>
        <time>2019-11-01T12:24:29Z</time>
      </trkpt>
      <trkpt lat="38.4378140" lon="-2.4965670">
        <ele>1009.7</ele>
        <time>2019-11-01T12:24:30Z</time>
      </trkpt>
      <trkpt lat="38.4378390" lon="-2.4965250">
        <ele>1009.7</ele>
        <time>2019-11-01T12:24:31Z</time>
      </trkpt>
      <trkpt lat="38.4378700" lon="-2.4964750">
        <ele>1009.7</ele>
        <time>2019-11-01T12:24:33Z</time>
      </trkpt>
      <trkpt lat="38.4379080" lon="-2.4964490">
        <ele>1009.7</ele>
        <time>2019-11-01T12:24:46Z</time>
      </trkpt>
      <trkpt lat="38.4379550" lon="-2.4963820">
        <ele>1009.7</ele>
        <time>2019-11-01T12:24:49Z</time>
      </trkpt>
      <trkpt lat="38.4379850" lon="-2.4963060">
        <ele>1012.3</ele>
        <time>2019-11-01T12:24:51Z</time>
      </trkpt>
      <trkpt lat="38.4380240" lon="-2.4961910">
        <ele>1012.3</ele>
        <time>2019-11-01T12:24:53Z</time>
      </trkpt>
      <trkpt lat="38.4380600" lon="-2.4960530">
        <ele>1012.3</ele>
        <time>2019-11-01T12:24:55Z</time>
      </trkpt>
      <trkpt lat="38.4380880" lon="-2.4959820">
        <ele>1012.3</ele>
        <time>2019-11-01T12:24:56Z</time>
      </trkpt>
      <trkpt lat="38.4381180" lon="-2.4959130">
        <ele>1012.3</ele>
        <time>2019-11-01T12:24:57Z</time>
      </trkpt>
      <trkpt lat="38.4381520" lon="-2.4958500">
        <ele>1012.3</ele>
        <time>2019-11-01T12:24:58Z</time>
      </trkpt>
      <trkpt lat="38.4381880" lon="-2.4957920">
        <ele>1012.3</ele>
        <time>2019-11-01T12:24:59Z</time>
      </trkpt>
      <trkpt lat="38.4382280" lon="-2.4957380">
        <ele>1012.3</ele>
        <time>2019-11-01T12:25:00Z</time>
      </trkpt>
      <trkpt lat="38.4382670" lon="-2.4956870">
        <ele>1012.3</ele>
        <time>2019-11-01T12:25:01Z</time>
      </trkpt>
      <trkpt lat="38.4383080" lon="-2.4956400">
        <ele>1012.3</ele>
        <time>2019-11-01T12:25:02Z</time>
      </trkpt>
      <trkpt lat="38.4383460" lon="-2.4955970">
        <ele>1012.3</ele>
        <time>2019-11-01T12:25:03Z</time>
      </trkpt>
      <trkpt lat="38.4384280" lon="-2.4954990">
        <ele>1012.3</ele>
        <time>2019-11-01T12:25:05Z</time>
      </trkpt>
      <trkpt lat="38.4384690" lon="-2.4954560">
        <ele>1012.3</ele>
        <time>2019-11-01T12:25:06Z</time>
      </trkpt>
      <trkpt lat="38.4385150" lon="-2.4954170">
        <ele>1012.3</ele>
        <time>2019-11-01T12:25:07Z</time>
      </trkpt>
      <trkpt lat="38.4385690" lon="-2.4953870">
        <ele>1012.3</ele>
        <time>2019-11-01T12:25:08Z</time>
      </trkpt>
      <trkpt lat="38.4386300" lon="-2.4953660">
        <ele>1012.3</ele>
        <time>2019-11-01T12:25:09Z</time>
      </trkpt>
      <trkpt lat="38.4386890" lon="-2.4953560">
        <ele>1012.3</ele>
        <time>2019-11-01T12:25:10Z</time>
      </trkpt>
      <trkpt lat="38.4387580" lon="-2.4953520">
        <ele>1012.3</ele>
        <time>2019-11-01T12:25:11Z</time>
      </trkpt>
      <trkpt lat="38.4388250" lon="-2.4953530">
        <ele>1012.3</ele>
        <time>2019-11-01T12:25:12Z</time>
      </trkpt>
      <trkpt lat="38.4388970" lon="-2.4953570">
        <ele>1012.3</ele>
        <time>2019-11-01T12:25:13Z</time>
      </trkpt>
      <trkpt lat="38.4389680" lon="-2.4953630">
        <ele>1012.3</ele>
        <time>2019-11-01T12:25:14Z</time>
      </trkpt>
      <trkpt lat="38.4390400" lon="-2.4953720">
        <ele>1012.3</ele>
        <time>2019-11-01T12:25:15Z</time>
      </trkpt>
      <trkpt lat="38.4391220" lon="-2.4953840">
        <ele>1012.3</ele>
        <time>2019-11-01T12:25:16Z</time>
      </trkpt>
      <trkpt lat="38.4392010" lon="-2.4954050">
        <ele>1012.3</ele>
        <time>2019-11-01T12:25:17Z</time>
      </trkpt>
      <trkpt lat="38.4392810" lon="-2.4954170">
        <ele>1012.3</ele>
        <time>2019-11-01T12:25:18Z</time>
      </trkpt>
      <trkpt lat="38.4393550" lon="-2.4954330">
        <ele>1012.3</ele>
        <time>2019-11-01T12:25:19Z</time>
      </trkpt>
      <trkpt lat="38.4394290" lon="-2.4954490">
        <ele>1012.3</ele>
        <time>2019-11-01T12:25:20Z</time>
      </trkpt>
      <trkpt lat="38.4395030" lon="-2.4954670">
        <ele>1012.3</ele>
        <time>2019-11-01T12:25:21Z</time>
      </trkpt>
      <trkpt lat="38.4395720" lon="-2.4954830">
        <ele>1012.3</ele>
        <time>2019-11-01T12:25:22Z</time>
      </trkpt>
      <trkpt lat="38.4396360" lon="-2.4955010">
        <ele>1012.3</ele>
        <time>2019-11-01T12:25:23Z</time>
      </trkpt>
      <trkpt lat="38.4396980" lon="-2.4955170">
        <ele>1012.3</ele>
        <time>2019-11-01T12:25:24Z</time>
      </trkpt>
      <trkpt lat="38.4397520" lon="-2.4955300">
        <ele>1012.3</ele>
        <time>2019-11-01T12:25:25Z</time>
      </trkpt>
      <trkpt lat="38.4398000" lon="-2.4955380">
        <ele>1012.3</ele>
        <time>2019-11-01T12:25:26Z</time>
      </trkpt>
      <trkpt lat="38.4398720" lon="-2.4955440">
        <ele>1012.3</ele>
        <time>2019-11-01T12:25:28Z</time>
      </trkpt>
      <trkpt lat="38.4399390" lon="-2.4955430">
        <ele>1012.3</ele>
        <time>2019-11-01T12:25:30Z</time>
      </trkpt>
      <trkpt lat="38.4399900" lon="-2.4955340">
        <ele>1012.3</ele>
        <time>2019-11-01T12:25:32Z</time>
      </trkpt>
      <trkpt lat="38.4400410" lon="-2.4955210">
        <ele>1012.3</ele>
        <time>2019-11-01T12:25:34Z</time>
      </trkpt>
      <trkpt lat="38.4401020" lon="-2.4954880">
        <ele>1012.3</ele>
        <time>2019-11-01T12:25:37Z</time>
      </trkpt>
      <trkpt lat="38.4401510" lon="-2.4954220">
        <ele>1012.3</ele>
        <time>2019-11-01T12:25:40Z</time>
      </trkpt>
      <trkpt lat="38.4401740" lon="-2.4953550">
        <ele>1012.3</ele>
        <time>2019-11-01T12:25:42Z</time>
      </trkpt>
      <trkpt lat="38.4401920" lon="-2.4952610">
        <ele>1012.3</ele>
        <time>2019-11-01T12:25:44Z</time>
      </trkpt>
      <trkpt lat="38.4402120" lon="-2.4951410">
        <ele>1012.3</ele>
        <time>2019-11-01T12:25:46Z</time>
      </trkpt>
      <trkpt lat="38.4402150" lon="-2.4950680">
        <ele>1012.3</ele>
        <time>2019-11-01T12:25:47Z</time>
      </trkpt>
      <trkpt lat="38.4402230" lon="-2.4949940">
        <ele>1012.3</ele>
        <time>2019-11-01T12:25:48Z</time>
      </trkpt>
      <trkpt lat="38.4402300" lon="-2.4949180">
        <ele>1012.3</ele>
        <time>2019-11-01T12:25:49Z</time>
      </trkpt>
      <trkpt lat="38.4402510" lon="-2.4948380">
        <ele>1012.3</ele>
        <time>2019-11-01T12:25:50Z</time>
      </trkpt>
      <trkpt lat="38.4402760" lon="-2.4947670">
        <ele>1012.3</ele>
        <time>2019-11-01T12:25:51Z</time>
      </trkpt>
      <trkpt lat="38.4403150" lon="-2.4947080">
        <ele>1012.3</ele>
        <time>2019-11-01T12:25:52Z</time>
      </trkpt>
      <trkpt lat="38.4403610" lon="-2.4946620">
        <ele>1012.3</ele>
        <time>2019-11-01T12:25:53Z</time>
      </trkpt>
      <trkpt lat="38.4404070" lon="-2.4946270">
        <ele>1012.3</ele>
        <time>2019-11-01T12:25:54Z</time>
      </trkpt>
      <trkpt lat="38.4404630" lon="-2.4945940">
        <ele>1012.3</ele>
        <time>2019-11-01T12:25:55Z</time>
      </trkpt>
      <trkpt lat="38.4405220" lon="-2.4945650">
        <ele>1012.3</ele>
        <time>2019-11-01T12:25:56Z</time>
      </trkpt>
      <trkpt lat="38.4405730" lon="-2.4945390">
        <ele>1012.3</ele>
        <time>2019-11-01T12:25:57Z</time>
      </trkpt>
      <trkpt lat="38.4406350" lon="-2.4945090">
        <ele>1012.3</ele>
        <time>2019-11-01T12:25:58Z</time>
      </trkpt>
      <trkpt lat="38.4406940" lon="-2.4944760">
        <ele>1012.3</ele>
        <time>2019-11-01T12:25:59Z</time>
      </trkpt>
      <trkpt lat="38.4407420" lon="-2.4944410">
        <ele>1012.3</ele>
        <time>2019-11-01T12:26:00Z</time>
      </trkpt>
      <trkpt lat="38.4408370" lon="-2.4943420">
        <ele>1012.3</ele>
        <time>2019-11-01T12:26:02Z</time>
      </trkpt>
      <trkpt lat="38.4409110" lon="-2.4942170">
        <ele>1012.3</ele>
        <time>2019-11-01T12:26:04Z</time>
      </trkpt>
      <trkpt lat="38.4409420" lon="-2.4941450">
        <ele>1012.3</ele>
        <time>2019-11-01T12:26:05Z</time>
      </trkpt>
      <trkpt lat="38.4409600" lon="-2.4940500">
        <ele>1012.3</ele>
        <time>2019-11-01T12:26:06Z</time>
      </trkpt>
      <trkpt lat="38.4409830" lon="-2.4939520">
        <ele>1012.3</ele>
        <time>2019-11-01T12:26:07Z</time>
      </trkpt>
      <trkpt lat="38.4410140" lon="-2.4938550">
        <ele>1012.3</ele>
        <time>2019-11-01T12:26:08Z</time>
      </trkpt>
      <trkpt lat="38.4410440" lon="-2.4937610">
        <ele>1012.3</ele>
        <time>2019-11-01T12:26:09Z</time>
      </trkpt>
      <trkpt lat="38.4410700" lon="-2.4936680">
        <ele>1012.3</ele>
        <time>2019-11-01T12:26:10Z</time>
      </trkpt>
      <trkpt lat="38.4410850" lon="-2.4935750">
        <ele>1012.3</ele>
        <time>2019-11-01T12:26:11Z</time>
      </trkpt>
      <trkpt lat="38.4410930" lon="-2.4934800">
        <ele>1012.3</ele>
        <time>2019-11-01T12:26:12Z</time>
      </trkpt>
      <trkpt lat="38.4410980" lon="-2.4933860">
        <ele>1012.3</ele>
        <time>2019-11-01T12:26:13Z</time>
      </trkpt>
      <trkpt lat="38.4410930" lon="-2.4932940">
        <ele>1012.3</ele>
        <time>2019-11-01T12:26:14Z</time>
      </trkpt>
      <trkpt lat="38.4410910" lon="-2.4932140">
        <ele>1012.3</ele>
        <time>2019-11-01T12:26:15Z</time>
      </trkpt>
      <trkpt lat="38.4410850" lon="-2.4931420">
        <ele>1012.3</ele>
        <time>2019-11-01T12:26:16Z</time>
      </trkpt>
      <trkpt lat="38.4411010" lon="-2.4930840">
        <ele>1012.3</ele>
        <time>2019-11-01T12:26:17Z</time>
      </trkpt>
      <trkpt lat="38.4411160" lon="-2.4929990">
        <ele>1012.3</ele>
        <time>2019-11-01T12:26:19Z</time>
      </trkpt>
      <trkpt lat="38.4411210" lon="-2.4929340">
        <ele>1012.3</ele>
        <time>2019-11-01T12:26:21Z</time>
      </trkpt>
      <trkpt lat="38.4411290" lon="-2.4928620">
        <ele>1012.3</ele>
        <time>2019-11-01T12:26:23Z</time>
      </trkpt>
      <trkpt lat="38.4411490" lon="-2.4927720">
        <ele>1012.3</ele>
        <time>2019-11-01T12:26:25Z</time>
      </trkpt>
      <trkpt lat="38.4411850" lon="-2.4926650">
        <ele>1012.3</ele>
        <time>2019-11-01T12:26:27Z</time>
      </trkpt>
      <trkpt lat="38.4412030" lon="-2.4926050">
        <ele>1010.2</ele>
        <time>2019-11-01T12:26:28Z</time>
      </trkpt>
      <trkpt lat="38.4412240" lon="-2.4925450">
        <ele>1010.2</ele>
        <time>2019-11-01T12:26:29Z</time>
      </trkpt>
      <trkpt lat="38.4412570" lon="-2.4924040">
        <ele>1010.2</ele>
        <time>2019-11-01T12:26:31Z</time>
      </trkpt>
      <trkpt lat="38.4412770" lon="-2.4923270">
        <ele>1010.2</ele>
        <time>2019-11-01T12:26:32Z</time>
      </trkpt>
      <trkpt lat="38.4412950" lon="-2.4922510">
        <ele>1010.2</ele>
        <time>2019-11-01T12:26:33Z</time>
      </trkpt>
      <trkpt lat="38.4413260" lon="-2.4921430">
        <ele>1010.2</ele>
        <time>2019-11-01T12:26:34Z</time>
      </trkpt>
      <trkpt lat="38.4413640" lon="-2.4920380">
        <ele>1010.2</ele>
        <time>2019-11-01T12:26:35Z</time>
      </trkpt>
      <trkpt lat="38.4414050" lon="-2.4919460">
        <ele>1010.2</ele>
        <time>2019-11-01T12:26:36Z</time>
      </trkpt>
      <trkpt lat="38.4414570" lon="-2.4918620">
        <ele>1010.2</ele>
        <time>2019-11-01T12:26:37Z</time>
      </trkpt>
      <trkpt lat="38.4415100" lon="-2.4917840">
        <ele>1010.2</ele>
        <time>2019-11-01T12:26:38Z</time>
      </trkpt>
      <trkpt lat="38.4415670" lon="-2.4917090">
        <ele>1010.2</ele>
        <time>2019-11-01T12:26:39Z</time>
      </trkpt>
      <trkpt lat="38.4416200" lon="-2.4916480">
        <ele>1010.2</ele>
        <time>2019-11-01T12:26:40Z</time>
      </trkpt>
      <trkpt lat="38.4416820" lon="-2.4915910">
        <ele>1010.2</ele>
        <time>2019-11-01T12:26:41Z</time>
      </trkpt>
      <trkpt lat="38.4417410" lon="-2.4915410">
        <ele>1010.2</ele>
        <time>2019-11-01T12:26:42Z</time>
      </trkpt>
      <trkpt lat="38.4418000" lon="-2.4914970">
        <ele>1010.2</ele>
        <time>2019-11-01T12:26:43Z</time>
      </trkpt>
      <trkpt lat="38.4418530" lon="-2.4914630">
        <ele>1010.2</ele>
        <time>2019-11-01T12:26:44Z</time>
      </trkpt>
      <trkpt lat="38.4419020" lon="-2.4914140">
        <ele>1010.2</ele>
        <time>2019-11-01T12:26:45Z</time>
      </trkpt>
      <trkpt lat="38.4419430" lon="-2.4913530">
        <ele>1008.1</ele>
        <time>2019-11-01T12:26:46Z</time>
      </trkpt>
      <trkpt lat="38.4419870" lon="-2.4912870">
        <ele>1008.1</ele>
        <time>2019-11-01T12:26:47Z</time>
      </trkpt>
      <trkpt lat="38.4420250" lon="-2.4912260">
        <ele>1008.1</ele>
        <time>2019-11-01T12:26:48Z</time>
      </trkpt>
      <trkpt lat="38.4420740" lon="-2.4911700">
        <ele>1008.1</ele>
        <time>2019-11-01T12:26:49Z</time>
      </trkpt>
      <trkpt lat="38.4421270" lon="-2.4911290">
        <ele>1008.1</ele>
        <time>2019-11-01T12:26:50Z</time>
      </trkpt>
      <trkpt lat="38.4421890" lon="-2.4910980">
        <ele>1008.1</ele>
        <time>2019-11-01T12:26:51Z</time>
      </trkpt>
      <trkpt lat="38.4422450" lon="-2.4910740">
        <ele>1008.1</ele>
        <time>2019-11-01T12:26:52Z</time>
      </trkpt>
      <trkpt lat="38.4423010" lon="-2.4910570">
        <ele>1008.1</ele>
        <time>2019-11-01T12:26:53Z</time>
      </trkpt>
      <trkpt lat="38.4423830" lon="-2.4910560">
        <ele>1008.1</ele>
        <time>2019-11-01T12:26:54Z</time>
      </trkpt>
      <trkpt lat="38.4424630" lon="-2.4910550">
        <ele>1008.1</ele>
        <time>2019-11-01T12:26:55Z</time>
      </trkpt>
      <trkpt lat="38.4425420" lon="-2.4910510">
        <ele>1008.1</ele>
        <time>2019-11-01T12:26:56Z</time>
      </trkpt>
      <trkpt lat="38.4426160" lon="-2.4910430">
        <ele>1008.1</ele>
        <time>2019-11-01T12:26:57Z</time>
      </trkpt>
      <trkpt lat="38.4426910" lon="-2.4910310">
        <ele>1008.1</ele>
        <time>2019-11-01T12:26:58Z</time>
      </trkpt>
      <trkpt lat="38.4427720" lon="-2.4910180">
        <ele>1006.0</ele>
        <time>2019-11-01T12:26:59Z</time>
      </trkpt>
      <trkpt lat="38.4428520" lon="-2.4910080">
        <ele>1006.0</ele>
        <time>2019-11-01T12:27:00Z</time>
      </trkpt>
      <trkpt lat="38.4429290" lon="-2.4910000">
        <ele>1006.0</ele>
        <time>2019-11-01T12:27:01Z</time>
      </trkpt>
      <trkpt lat="38.4430000" lon="-2.4909950">
        <ele>1006.0</ele>
        <time>2019-11-01T12:27:02Z</time>
      </trkpt>
      <trkpt lat="38.4430720" lon="-2.4909980">
        <ele>1006.0</ele>
        <time>2019-11-01T12:27:03Z</time>
      </trkpt>
      <trkpt lat="38.4431560" lon="-2.4910080">
        <ele>1006.0</ele>
        <time>2019-11-01T12:27:04Z</time>
      </trkpt>
      <trkpt lat="38.4432380" lon="-2.4910240">
        <ele>1006.0</ele>
        <time>2019-11-01T12:27:05Z</time>
      </trkpt>
      <trkpt lat="38.4433130" lon="-2.4910490">
        <ele>1006.0</ele>
        <time>2019-11-01T12:27:06Z</time>
      </trkpt>
      <trkpt lat="38.4433740" lon="-2.4910800">
        <ele>1006.0</ele>
        <time>2019-11-01T12:27:07Z</time>
      </trkpt>
      <trkpt lat="38.4434280" lon="-2.4911210">
        <ele>1006.0</ele>
        <time>2019-11-01T12:27:08Z</time>
      </trkpt>
      <trkpt lat="38.4434560" lon="-2.4911830">
        <ele>1006.0</ele>
        <time>2019-11-01T12:27:09Z</time>
      </trkpt>
      <trkpt lat="38.4434820" lon="-2.4912620">
        <ele>1006.0</ele>
        <time>2019-11-01T12:27:10Z</time>
      </trkpt>
      <trkpt lat="38.4435000" lon="-2.4913380">
        <ele>1003.3</ele>
        <time>2019-11-01T12:27:11Z</time>
      </trkpt>
      <trkpt lat="38.4435200" lon="-2.4914150">
        <ele>1003.3</ele>
        <time>2019-11-01T12:27:12Z</time>
      </trkpt>
      <trkpt lat="38.4435460" lon="-2.4914960">
        <ele>1003.3</ele>
        <time>2019-11-01T12:27:13Z</time>
      </trkpt>
      <trkpt lat="38.4435740" lon="-2.4915660">
        <ele>1003.3</ele>
        <time>2019-11-01T12:27:14Z</time>
      </trkpt>
      <trkpt lat="38.4436120" lon="-2.4916300">
        <ele>1003.3</ele>
        <time>2019-11-01T12:27:15Z</time>
      </trkpt>
      <trkpt lat="38.4436560" lon="-2.4916770">
        <ele>1003.3</ele>
        <time>2019-11-01T12:27:16Z</time>
      </trkpt>
      <trkpt lat="38.4437250" lon="-2.4916980">
        <ele>1003.3</ele>
        <time>2019-11-01T12:27:17Z</time>
      </trkpt>
      <trkpt lat="38.4438090" lon="-2.4916870">
        <ele>1003.3</ele>
        <time>2019-11-01T12:27:18Z</time>
      </trkpt>
      <trkpt lat="38.4438940" lon="-2.4916660">
        <ele>1003.3</ele>
        <time>2019-11-01T12:27:19Z</time>
      </trkpt>
      <trkpt lat="38.4439780" lon="-2.4916380">
        <ele>1001.3</ele>
        <time>2019-11-01T12:27:20Z</time>
      </trkpt>
      <trkpt lat="38.4440580" lon="-2.4916070">
        <ele>1001.3</ele>
        <time>2019-11-01T12:27:21Z</time>
      </trkpt>
      <trkpt lat="38.4441290" lon="-2.4915770">
        <ele>1001.3</ele>
        <time>2019-11-01T12:27:22Z</time>
      </trkpt>
      <trkpt lat="38.4441910" lon="-2.4915430">
        <ele>1001.3</ele>
        <time>2019-11-01T12:27:23Z</time>
      </trkpt>
      <trkpt lat="38.4442470" lon="-2.4915070">
        <ele>1001.3</ele>
        <time>2019-11-01T12:27:24Z</time>
      </trkpt>
      <trkpt lat="38.4442850" lon="-2.4914760">
        <ele>1001.3</ele>
        <time>2019-11-01T12:27:25Z</time>
      </trkpt>
      <trkpt lat="38.4443320" lon="-2.4914280">
        <ele>999.0</ele>
        <time>2019-11-01T12:27:27Z</time>
      </trkpt>
      <trkpt lat="38.4443520" lon="-2.4913830">
        <ele>999.0</ele>
        <time>2019-11-01T12:27:30Z</time>
      </trkpt>
      <trkpt lat="38.4443550" lon="-2.4912980">
        <ele>999.0</ele>
        <time>2019-11-01T12:27:34Z</time>
      </trkpt>
      <trkpt lat="38.4443520" lon="-2.4911810">
        <ele>996.8</ele>
        <time>2019-11-01T12:27:37Z</time>
      </trkpt>
      <trkpt lat="38.4443320" lon="-2.4910810">
        <ele>996.8</ele>
        <time>2019-11-01T12:27:39Z</time>
      </trkpt>
      <trkpt lat="38.4443140" lon="-2.4909940">
        <ele>996.8</ele>
        <time>2019-11-01T12:27:41Z</time>
      </trkpt>
      <trkpt lat="38.4443080" lon="-2.4909110">
        <ele>994.0</ele>
        <time>2019-11-01T12:27:43Z</time>
      </trkpt>
      <trkpt lat="38.4443240" lon="-2.4908550">
        <ele>994.0</ele>
        <time>2019-11-01T12:27:45Z</time>
      </trkpt>
      <trkpt lat="38.4443520" lon="-2.4908130">
        <ele>994.0</ele>
        <time>2019-11-01T12:27:48Z</time>
      </trkpt>
      <trkpt lat="38.4444010" lon="-2.4907570">
        <ele>987.1</ele>
        <time>2019-11-01T12:30:31Z</time>
      </trkpt>
      <trkpt lat="38.4444310" lon="-2.4906860">
        <ele>987.1</ele>
        <time>2019-11-01T12:30:35Z</time>
      </trkpt>
      <trkpt lat="38.4444490" lon="-2.4906180">
        <ele>983.8</ele>
        <time>2019-11-01T12:30:38Z</time>
      </trkpt>
      <trkpt lat="38.4444880" lon="-2.4905610">
        <ele>983.8</ele>
        <time>2019-11-01T12:30:41Z</time>
      </trkpt>
      <trkpt lat="38.4445310" lon="-2.4905020">
        <ele>983.8</ele>
        <time>2019-11-01T12:30:44Z</time>
      </trkpt>
      <trkpt lat="38.4445770" lon="-2.4904390">
        <ele>981.6</ele>
        <time>2019-11-01T12:30:47Z</time>
      </trkpt>
      <trkpt lat="38.4446110" lon="-2.4904000">
        <ele>981.6</ele>
        <time>2019-11-01T12:30:49Z</time>
      </trkpt>
      <trkpt lat="38.4446570" lon="-2.4903380">
        <ele>981.6</ele>
        <time>2019-11-01T12:30:52Z</time>
      </trkpt>
      <trkpt lat="38.4446870" lon="-2.4902960">
        <ele>978.4</ele>
        <time>2019-11-01T12:30:54Z</time>
      </trkpt>
      <trkpt lat="38.4447330" lon="-2.4902370">
        <ele>978.4</ele>
        <time>2019-11-01T12:30:57Z</time>
      </trkpt>
      <trkpt lat="38.4447740" lon="-2.4901850">
        <ele>978.4</ele>
        <time>2019-11-01T12:31:00Z</time>
      </trkpt>
      <trkpt lat="38.4448080" lon="-2.4901410">
        <ele>978.4</ele>
        <time>2019-11-01T12:31:03Z</time>
      </trkpt>
      <trkpt lat="38.4448380" lon="-2.4901020">
        <ele>976.3</ele>
        <time>2019-11-01T12:31:07Z</time>
      </trkpt>
      <trkpt lat="38.4448610" lon="-2.4900750">
        <ele>973.2</ele>
        <time>2019-11-01T12:31:11Z</time>
      </trkpt>
      <trkpt lat="38.4449920" lon="-2.4899590">
        <ele>968.1</ele>
        <time>2019-11-01T12:31:36Z</time>
      </trkpt>
      <trkpt lat="38.4450480" lon="-2.4899020">
        <ele>963.3</ele>
        <time>2019-11-01T12:33:00Z</time>
      </trkpt>
      <trkpt lat="38.4450710" lon="-2.4898060">
        <ele>963.3</ele>
        <time>2019-11-01T12:33:04Z</time>
      </trkpt>
      <trkpt lat="38.4450920" lon="-2.4897410">
        <ele>963.3</ele>
        <time>2019-11-01T12:33:06Z</time>
      </trkpt>
      <trkpt lat="38.4451150" lon="-2.4896760">
        <ele>963.3</ele>
        <time>2019-11-01T12:33:08Z</time>
      </trkpt>
      <trkpt lat="38.4451380" lon="-2.4896080">
        <ele>963.3</ele>
        <time>2019-11-01T12:33:10Z</time>
      </trkpt>
      <trkpt lat="38.4451610" lon="-2.4895360">
        <ele>958.3</ele>
        <time>2019-11-01T12:33:12Z</time>
      </trkpt>
      <trkpt lat="38.4451840" lon="-2.4894670">
        <ele>958.3</ele>
        <time>2019-11-01T12:33:14Z</time>
      </trkpt>
      <trkpt lat="38.4452020" lon="-2.4893980">
        <ele>958.3</ele>
        <time>2019-11-01T12:33:16Z</time>
      </trkpt>
      <trkpt lat="38.4452250" lon="-2.4893300">
        <ele>958.3</ele>
        <time>2019-11-01T12:33:18Z</time>
      </trkpt>
      <trkpt lat="38.4452480" lon="-2.4892600">
        <ele>958.3</ele>
        <time>2019-11-01T12:33:20Z</time>
      </trkpt>
      <trkpt lat="38.4452710" lon="-2.4891910">
        <ele>958.3</ele>
        <time>2019-11-01T12:33:22Z</time>
      </trkpt>
      <trkpt lat="38.4452940" lon="-2.4891220">
        <ele>958.3</ele>
        <time>2019-11-01T12:33:24Z</time>
      </trkpt>
      <trkpt lat="38.4453170" lon="-2.4890510">
        <ele>958.3</ele>
        <time>2019-11-01T12:33:26Z</time>
      </trkpt>
      <trkpt lat="38.4453400" lon="-2.4889850">
        <ele>958.3</ele>
        <time>2019-11-01T12:33:28Z</time>
      </trkpt>
      <trkpt lat="38.4453560" lon="-2.4889180">
        <ele>958.3</ele>
        <time>2019-11-01T12:33:30Z</time>
      </trkpt>
      <trkpt lat="38.4453710" lon="-2.4888510">
        <ele>958.3</ele>
        <time>2019-11-01T12:33:32Z</time>
      </trkpt>
      <trkpt lat="38.4453890" lon="-2.4887830">
        <ele>958.3</ele>
        <time>2019-11-01T12:33:34Z</time>
      </trkpt>
      <trkpt lat="38.4454120" lon="-2.4887060">
        <ele>958.3</ele>
        <time>2019-11-01T12:33:36Z</time>
      </trkpt>
      <trkpt lat="38.4454350" lon="-2.4886270">
        <ele>958.3</ele>
        <time>2019-11-01T12:33:38Z</time>
      </trkpt>
      <trkpt lat="38.4454600" lon="-2.4885430">
        <ele>959.5</ele>
        <time>2019-11-01T12:33:40Z</time>
      </trkpt>
      <trkpt lat="38.4454890" lon="-2.4884530">
        <ele>959.5</ele>
        <time>2019-11-01T12:33:42Z</time>
      </trkpt>
      <trkpt lat="38.4455140" lon="-2.4883670">
        <ele>959.5</ele>
        <time>2019-11-01T12:33:44Z</time>
      </trkpt>
      <trkpt lat="38.4455500" lon="-2.4882720">
        <ele>959.5</ele>
        <time>2019-11-01T12:33:46Z</time>
      </trkpt>
      <trkpt lat="38.4455760" lon="-2.4881870">
        <ele>959.5</ele>
        <time>2019-11-01T12:33:48Z</time>
      </trkpt>
      <trkpt lat="38.4456090" lon="-2.4880920">
        <ele>960.7</ele>
        <time>2019-11-01T12:33:50Z</time>
      </trkpt>
      <trkpt lat="38.4456450" lon="-2.4880080">
        <ele>960.7</ele>
        <time>2019-11-01T12:33:52Z</time>
      </trkpt>
      <trkpt lat="38.4456780" lon="-2.4879340">
        <ele>960.7</ele>
        <time>2019-11-01T12:33:54Z</time>
      </trkpt>
      <trkpt lat="38.4457160" lon="-2.4878590">
        <ele>960.7</ele>
        <time>2019-11-01T12:33:56Z</time>
      </trkpt>
      <trkpt lat="38.4457520" lon="-2.4877900">
        <ele>960.7</ele>
        <time>2019-11-01T12:33:58Z</time>
      </trkpt>
      <trkpt lat="38.4457880" lon="-2.4877240">
        <ele>960.7</ele>
        <time>2019-11-01T12:34:00Z</time>
      </trkpt>
      <trkpt lat="38.4458340" lon="-2.4876580">
        <ele>960.7</ele>
        <time>2019-11-01T12:34:02Z</time>
      </trkpt>
      <trkpt lat="38.4458780" lon="-2.4875940">
        <ele>960.7</ele>
        <time>2019-11-01T12:34:04Z</time>
      </trkpt>
      <trkpt lat="38.4459190" lon="-2.4875320">
        <ele>961.9</ele>
        <time>2019-11-01T12:34:06Z</time>
      </trkpt>
      <trkpt lat="38.4459620" lon="-2.4874740">
        <ele>961.9</ele>
        <time>2019-11-01T12:34:08Z</time>
      </trkpt>
      <trkpt lat="38.4460030" lon="-2.4874160">
        <ele>961.9</ele>
        <time>2019-11-01T12:34:10Z</time>
      </trkpt>
      <trkpt lat="38.4460440" lon="-2.4873580">
        <ele>961.9</ele>
        <time>2019-11-01T12:34:12Z</time>
      </trkpt>
      <trkpt lat="38.4460880" lon="-2.4873030">
        <ele>961.9</ele>
        <time>2019-11-01T12:34:14Z</time>
      </trkpt>
      <trkpt lat="38.4461360" lon="-2.4872400">
        <ele>961.9</ele>
        <time>2019-11-01T12:34:16Z</time>
      </trkpt>
      <trkpt lat="38.4462130" lon="-2.4871510">
        <ele>963.0</ele>
        <time>2019-11-01T12:34:19Z</time>
      </trkpt>
      <trkpt lat="38.4462590" lon="-2.4870940">
        <ele>963.0</ele>
        <time>2019-11-01T12:34:21Z</time>
      </trkpt>
      <trkpt lat="38.4463080" lon="-2.4870370">
        <ele>963.0</ele>
        <time>2019-11-01T12:34:23Z</time>
      </trkpt>
      <trkpt lat="38.4463540" lon="-2.4869820">
        <ele>964.2</ele>
        <time>2019-11-01T12:34:25Z</time>
      </trkpt>
      <trkpt lat="38.4464030" lon="-2.4869240">
        <ele>964.2</ele>
        <time>2019-11-01T12:34:27Z</time>
      </trkpt>
      <trkpt lat="38.4464540" lon="-2.4868640">
        <ele>964.2</ele>
        <time>2019-11-01T12:34:29Z</time>
      </trkpt>
      <trkpt lat="38.4465080" lon="-2.4868030">
        <ele>964.2</ele>
        <time>2019-11-01T12:34:31Z</time>
      </trkpt>
      <trkpt lat="38.4465560" lon="-2.4867430">
        <ele>965.4</ele>
        <time>2019-11-01T12:34:33Z</time>
      </trkpt>
      <trkpt lat="38.4466100" lon="-2.4866870">
        <ele>965.4</ele>
        <time>2019-11-01T12:34:35Z</time>
      </trkpt>
      <trkpt lat="38.4466560" lon="-2.4866310">
        <ele>965.4</ele>
        <time>2019-11-01T12:34:37Z</time>
      </trkpt>
      <trkpt lat="38.4467020" lon="-2.4865780">
        <ele>965.4</ele>
        <time>2019-11-01T12:34:39Z</time>
      </trkpt>
      <trkpt lat="38.4467460" lon="-2.4865290">
        <ele>966.6</ele>
        <time>2019-11-01T12:34:41Z</time>
      </trkpt>
      <trkpt lat="38.4467890" lon="-2.4864790">
        <ele>966.6</ele>
        <time>2019-11-01T12:34:43Z</time>
      </trkpt>
      <trkpt lat="38.4468380" lon="-2.4864210">
        <ele>966.6</ele>
        <time>2019-11-01T12:34:45Z</time>
      </trkpt>
      <trkpt lat="38.4468920" lon="-2.4863650">
        <ele>966.6</ele>
        <time>2019-11-01T12:34:47Z</time>
      </trkpt>
      <trkpt lat="38.4469400" lon="-2.4863110">
        <ele>966.6</ele>
        <time>2019-11-01T12:34:49Z</time>
      </trkpt>
      <trkpt lat="38.4469860" lon="-2.4862550">
        <ele>967.8</ele>
        <time>2019-11-01T12:34:51Z</time>
      </trkpt>
      <trkpt lat="38.4470320" lon="-2.4861980">
        <ele>967.8</ele>
        <time>2019-11-01T12:34:53Z</time>
      </trkpt>
      <trkpt lat="38.4470840" lon="-2.4861380">
        <ele>967.8</ele>
        <time>2019-11-01T12:34:55Z</time>
      </trkpt>
      <trkpt lat="38.4471270" lon="-2.4860750">
        <ele>967.8</ele>
        <time>2019-11-01T12:34:57Z</time>
      </trkpt>
      <trkpt lat="38.4471710" lon="-2.4860080">
        <ele>967.8</ele>
        <time>2019-11-01T12:34:59Z</time>
      </trkpt>
      <trkpt lat="38.4472040" lon="-2.4859360">
        <ele>967.8</ele>
        <time>2019-11-01T12:35:01Z</time>
      </trkpt>
      <trkpt lat="38.4472400" lon="-2.4858610">
        <ele>967.8</ele>
        <time>2019-11-01T12:35:03Z</time>
      </trkpt>
      <trkpt lat="38.4472650" lon="-2.4857820">
        <ele>967.8</ele>
        <time>2019-11-01T12:35:05Z</time>
      </trkpt>
      <trkpt lat="38.4472880" lon="-2.4856980">
        <ele>967.8</ele>
        <time>2019-11-01T12:35:07Z</time>
      </trkpt>
      <trkpt lat="38.4473090" lon="-2.4856160">
        <ele>967.8</ele>
        <time>2019-11-01T12:35:09Z</time>
      </trkpt>
      <trkpt lat="38.4473190" lon="-2.4855320">
        <ele>967.8</ele>
        <time>2019-11-01T12:35:11Z</time>
      </trkpt>
      <trkpt lat="38.4473340" lon="-2.4854510">
        <ele>967.8</ele>
        <time>2019-11-01T12:35:13Z</time>
      </trkpt>
      <trkpt lat="38.4473500" lon="-2.4853710">
        <ele>967.8</ele>
        <time>2019-11-01T12:35:15Z</time>
      </trkpt>
      <trkpt lat="38.4473680" lon="-2.4852850">
        <ele>967.8</ele>
        <time>2019-11-01T12:35:17Z</time>
      </trkpt>
      <trkpt lat="38.4473880" lon="-2.4852070">
        <ele>967.8</ele>
        <time>2019-11-01T12:35:19Z</time>
      </trkpt>
      <trkpt lat="38.4474190" lon="-2.4851280">
        <ele>967.8</ele>
        <time>2019-11-01T12:35:21Z</time>
      </trkpt>
      <trkpt lat="38.4474520" lon="-2.4850550">
        <ele>967.8</ele>
        <time>2019-11-01T12:35:23Z</time>
      </trkpt>
      <trkpt lat="38.4474960" lon="-2.4849860">
        <ele>967.8</ele>
        <time>2019-11-01T12:35:25Z</time>
      </trkpt>
      <trkpt lat="38.4475370" lon="-2.4849180">
        <ele>967.8</ele>
        <time>2019-11-01T12:35:27Z</time>
      </trkpt>
      <trkpt lat="38.4475780" lon="-2.4848550">
        <ele>967.8</ele>
        <time>2019-11-01T12:35:29Z</time>
      </trkpt>
      <trkpt lat="38.4476290" lon="-2.4847980">
        <ele>967.8</ele>
        <time>2019-11-01T12:35:31Z</time>
      </trkpt>
      <trkpt lat="38.4476750" lon="-2.4847480">
        <ele>967.8</ele>
        <time>2019-11-01T12:35:33Z</time>
      </trkpt>
      <trkpt lat="38.4477180" lon="-2.4847010">
        <ele>967.8</ele>
        <time>2019-11-01T12:35:35Z</time>
      </trkpt>
      <trkpt lat="38.4477700" lon="-2.4846520">
        <ele>967.8</ele>
        <time>2019-11-01T12:35:37Z</time>
      </trkpt>
      <trkpt lat="38.4478160" lon="-2.4846030">
        <ele>967.8</ele>
        <time>2019-11-01T12:35:39Z</time>
      </trkpt>
      <trkpt lat="38.4478540" lon="-2.4845540">
        <ele>967.8</ele>
        <time>2019-11-01T12:35:41Z</time>
      </trkpt>
      <trkpt lat="38.4478950" lon="-2.4844940">
        <ele>967.8</ele>
        <time>2019-11-01T12:35:43Z</time>
      </trkpt>
      <trkpt lat="38.4479260" lon="-2.4844360">
        <ele>959.0</ele>
        <time>2019-11-01T12:35:45Z</time>
      </trkpt>
      <trkpt lat="38.4479410" lon="-2.4844070">
        <ele>959.0</ele>
        <time>2019-11-01T12:35:46Z</time>
      </trkpt>
      <trkpt lat="38.4479670" lon="-2.4843450">
        <ele>959.0</ele>
        <time>2019-11-01T12:35:48Z</time>
      </trkpt>
      <trkpt lat="38.4479900" lon="-2.4842800">
        <ele>959.0</ele>
        <time>2019-11-01T12:35:50Z</time>
      </trkpt>
      <trkpt lat="38.4480050" lon="-2.4842120">
        <ele>959.0</ele>
        <time>2019-11-01T12:35:52Z</time>
      </trkpt>
      <trkpt lat="38.4480180" lon="-2.4841480">
        <ele>959.0</ele>
        <time>2019-11-01T12:35:54Z</time>
      </trkpt>
      <trkpt lat="38.4480260" lon="-2.4840810">
        <ele>959.0</ele>
        <time>2019-11-01T12:35:56Z</time>
      </trkpt>
      <trkpt lat="38.4480330" lon="-2.4840120">
        <ele>959.0</ele>
        <time>2019-11-01T12:35:58Z</time>
      </trkpt>
      <trkpt lat="38.4480440" lon="-2.4839160">
        <ele>959.0</ele>
        <time>2019-11-01T12:36:01Z</time>
      </trkpt>
      <trkpt lat="38.4480560" lon="-2.4838520">
        <ele>959.0</ele>
        <time>2019-11-01T12:36:03Z</time>
      </trkpt>
      <trkpt lat="38.4480670" lon="-2.4837650">
        <ele>959.0</ele>
        <time>2019-11-01T12:36:06Z</time>
      </trkpt>
      <trkpt lat="38.4480790" lon="-2.4836780">
        <ele>959.0</ele>
        <time>2019-11-01T12:36:09Z</time>
      </trkpt>
      <trkpt lat="38.4480970" lon="-2.4835960">
        <ele>959.0</ele>
        <time>2019-11-01T12:36:12Z</time>
      </trkpt>
      <trkpt lat="38.4481200" lon="-2.4835120">
        <ele>959.0</ele>
        <time>2019-11-01T12:36:15Z</time>
      </trkpt>
      <trkpt lat="38.4481510" lon="-2.4834270">
        <ele>959.0</ele>
        <time>2019-11-01T12:36:18Z</time>
      </trkpt>
      <trkpt lat="38.4481690" lon="-2.4833680">
        <ele>959.0</ele>
        <time>2019-11-01T12:36:20Z</time>
      </trkpt>
      <trkpt lat="38.4482050" lon="-2.4832730">
        <ele>959.0</ele>
        <time>2019-11-01T12:36:23Z</time>
      </trkpt>
      <trkpt lat="38.4482360" lon="-2.4832130">
        <ele>959.0</ele>
        <time>2019-11-01T12:36:25Z</time>
      </trkpt>
      <trkpt lat="38.4482660" lon="-2.4831540">
        <ele>959.0</ele>
        <time>2019-11-01T12:36:27Z</time>
      </trkpt>
      <trkpt lat="38.4483000" lon="-2.4830960">
        <ele>959.0</ele>
        <time>2019-11-01T12:36:29Z</time>
      </trkpt>
      <trkpt lat="38.4483300" lon="-2.4830410">
        <ele>959.0</ele>
        <time>2019-11-01T12:36:31Z</time>
      </trkpt>
      <trkpt lat="38.4483690" lon="-2.4829860">
        <ele>959.0</ele>
        <time>2019-11-01T12:36:33Z</time>
      </trkpt>
      <trkpt lat="38.4484020" lon="-2.4829340">
        <ele>959.0</ele>
        <time>2019-11-01T12:36:35Z</time>
      </trkpt>
      <trkpt lat="38.4484330" lon="-2.4828810">
        <ele>959.0</ele>
        <time>2019-11-01T12:36:37Z</time>
      </trkpt>
      <trkpt lat="38.4484680" lon="-2.4828310">
        <ele>959.0</ele>
        <time>2019-11-01T12:36:39Z</time>
      </trkpt>
      <trkpt lat="38.4484970" lon="-2.4827790">
        <ele>959.0</ele>
        <time>2019-11-01T12:36:41Z</time>
      </trkpt>
      <trkpt lat="38.4485480" lon="-2.4826990">
        <ele>959.0</ele>
        <time>2019-11-01T12:36:44Z</time>
      </trkpt>
      <trkpt lat="38.4485810" lon="-2.4826440">
        <ele>959.0</ele>
        <time>2019-11-01T12:36:46Z</time>
      </trkpt>
      <trkpt lat="38.4486120" lon="-2.4825930">
        <ele>961.1</ele>
        <time>2019-11-01T12:36:48Z</time>
      </trkpt>
      <trkpt lat="38.4486430" lon="-2.4825370">
        <ele>961.1</ele>
        <time>2019-11-01T12:36:50Z</time>
      </trkpt>
      <trkpt lat="38.4486760" lon="-2.4824780">
        <ele>961.1</ele>
        <time>2019-11-01T12:36:52Z</time>
      </trkpt>
      <trkpt lat="38.4487120" lon="-2.4824210">
        <ele>961.1</ele>
        <time>2019-11-01T12:36:54Z</time>
      </trkpt>
      <trkpt lat="38.4487500" lon="-2.4823650">
        <ele>961.1</ele>
        <time>2019-11-01T12:36:56Z</time>
      </trkpt>
      <trkpt lat="38.4487830" lon="-2.4823110">
        <ele>961.1</ele>
        <time>2019-11-01T12:36:58Z</time>
      </trkpt>
      <trkpt lat="38.4488190" lon="-2.4822540">
        <ele>961.1</ele>
        <time>2019-11-01T12:37:00Z</time>
      </trkpt>
      <trkpt lat="38.4488450" lon="-2.4821980">
        <ele>961.1</ele>
        <time>2019-11-01T12:37:02Z</time>
      </trkpt>
      <trkpt lat="38.4488700" lon="-2.4821350">
        <ele>961.1</ele>
        <time>2019-11-01T12:37:04Z</time>
      </trkpt>
      <trkpt lat="38.4488990" lon="-2.4820670">
        <ele>961.1</ele>
        <time>2019-11-01T12:37:06Z</time>
      </trkpt>
      <trkpt lat="38.4489220" lon="-2.4819960">
        <ele>963.2</ele>
        <time>2019-11-01T12:37:08Z</time>
      </trkpt>
      <trkpt lat="38.4489450" lon="-2.4819180">
        <ele>963.2</ele>
        <time>2019-11-01T12:37:10Z</time>
      </trkpt>
      <trkpt lat="38.4489630" lon="-2.4818400">
        <ele>963.2</ele>
        <time>2019-11-01T12:37:12Z</time>
      </trkpt>
      <trkpt lat="38.4489780" lon="-2.4817640">
        <ele>963.2</ele>
        <time>2019-11-01T12:37:14Z</time>
      </trkpt>
      <trkpt lat="38.4489930" lon="-2.4816960">
        <ele>963.2</ele>
        <time>2019-11-01T12:37:16Z</time>
      </trkpt>
      <trkpt lat="38.4490090" lon="-2.4816230">
        <ele>963.2</ele>
        <time>2019-11-01T12:37:18Z</time>
      </trkpt>
      <trkpt lat="38.4490210" lon="-2.4815590">
        <ele>963.2</ele>
        <time>2019-11-01T12:37:20Z</time>
      </trkpt>
      <trkpt lat="38.4490370" lon="-2.4814940">
        <ele>963.2</ele>
        <time>2019-11-01T12:37:22Z</time>
      </trkpt>
      <trkpt lat="38.4490570" lon="-2.4814260">
        <ele>965.2</ele>
        <time>2019-11-01T12:37:24Z</time>
      </trkpt>
      <trkpt lat="38.4490800" lon="-2.4813630">
        <ele>965.2</ele>
        <time>2019-11-01T12:37:26Z</time>
      </trkpt>
      <trkpt lat="38.4491110" lon="-2.4812970">
        <ele>965.2</ele>
        <time>2019-11-01T12:37:28Z</time>
      </trkpt>
      <trkpt lat="38.4491490" lon="-2.4812330">
        <ele>965.2</ele>
        <time>2019-11-01T12:37:30Z</time>
      </trkpt>
      <trkpt lat="38.4491850" lon="-2.4811700">
        <ele>965.2</ele>
        <time>2019-11-01T12:37:32Z</time>
      </trkpt>
      <trkpt lat="38.4492260" lon="-2.4811040">
        <ele>965.2</ele>
        <time>2019-11-01T12:37:34Z</time>
      </trkpt>
      <trkpt lat="38.4492670" lon="-2.4810360">
        <ele>965.2</ele>
        <time>2019-11-01T12:37:36Z</time>
      </trkpt>
      <trkpt lat="38.4493060" lon="-2.4809610">
        <ele>967.2</ele>
        <time>2019-11-01T12:37:38Z</time>
      </trkpt>
      <trkpt lat="38.4493490" lon="-2.4808840">
        <ele>967.2</ele>
        <time>2019-11-01T12:37:40Z</time>
      </trkpt>
      <trkpt lat="38.4493880" lon="-2.4808080">
        <ele>967.2</ele>
        <time>2019-11-01T12:37:42Z</time>
      </trkpt>
      <trkpt lat="38.4494260" lon="-2.4807260">
        <ele>967.2</ele>
        <time>2019-11-01T12:37:44Z</time>
      </trkpt>
      <trkpt lat="38.4494540" lon="-2.4806460">
        <ele>967.2</ele>
        <time>2019-11-01T12:37:46Z</time>
      </trkpt>
      <trkpt lat="38.4494850" lon="-2.4805610">
        <ele>967.2</ele>
        <time>2019-11-01T12:37:48Z</time>
      </trkpt>
      <trkpt lat="38.4495080" lon="-2.4804720">
        <ele>969.3</ele>
        <time>2019-11-01T12:37:50Z</time>
      </trkpt>
      <trkpt lat="38.4495310" lon="-2.4803800">
        <ele>969.3</ele>
        <time>2019-11-01T12:37:52Z</time>
      </trkpt>
      <trkpt lat="38.4495510" lon="-2.4802890">
        <ele>969.3</ele>
        <time>2019-11-01T12:37:54Z</time>
      </trkpt>
      <trkpt lat="38.4495620" lon="-2.4801950">
        <ele>969.3</ele>
        <time>2019-11-01T12:37:56Z</time>
      </trkpt>
      <trkpt lat="38.4495690" lon="-2.4800990">
        <ele>969.3</ele>
        <time>2019-11-01T12:37:58Z</time>
      </trkpt>
      <trkpt lat="38.4495740" lon="-2.4800070">
        <ele>969.3</ele>
        <time>2019-11-01T12:38:00Z</time>
      </trkpt>
      <trkpt lat="38.4495770" lon="-2.4799120">
        <ele>971.4</ele>
        <time>2019-11-01T12:38:02Z</time>
      </trkpt>
      <trkpt lat="38.4495770" lon="-2.4798140">
        <ele>971.4</ele>
        <time>2019-11-01T12:38:04Z</time>
      </trkpt>
      <trkpt lat="38.4495820" lon="-2.4797230">
        <ele>971.4</ele>
        <time>2019-11-01T12:38:06Z</time>
      </trkpt>
      <trkpt lat="38.4495850" lon="-2.4796260">
        <ele>971.4</ele>
        <time>2019-11-01T12:38:08Z</time>
      </trkpt>
      <trkpt lat="38.4495920" lon="-2.4795340">
        <ele>971.4</ele>
        <time>2019-11-01T12:38:10Z</time>
      </trkpt>
      <trkpt lat="38.4496080" lon="-2.4794410">
        <ele>971.4</ele>
        <time>2019-11-01T12:38:12Z</time>
      </trkpt>
      <trkpt lat="38.4496200" lon="-2.4793430">
        <ele>971.4</ele>
        <time>2019-11-01T12:38:14Z</time>
      </trkpt>
      <trkpt lat="38.4496330" lon="-2.4792510">
        <ele>973.5</ele>
        <time>2019-11-01T12:38:16Z</time>
      </trkpt>
      <trkpt lat="38.4496490" lon="-2.4791510">
        <ele>973.5</ele>
        <time>2019-11-01T12:38:18Z</time>
      </trkpt>
      <trkpt lat="38.4496640" lon="-2.4790480">
        <ele>973.5</ele>
        <time>2019-11-01T12:38:20Z</time>
      </trkpt>
      <trkpt lat="38.4496720" lon="-2.4789540">
        <ele>973.5</ele>
        <time>2019-11-01T12:38:22Z</time>
      </trkpt>
      <trkpt lat="38.4496840" lon="-2.4788490">
        <ele>973.5</ele>
        <time>2019-11-01T12:38:24Z</time>
      </trkpt>
      <trkpt lat="38.4497020" lon="-2.4787480">
        <ele>973.5</ele>
        <time>2019-11-01T12:38:26Z</time>
      </trkpt>
      <trkpt lat="38.4497180" lon="-2.4786480">
        <ele>973.5</ele>
        <time>2019-11-01T12:38:28Z</time>
      </trkpt>
      <trkpt lat="38.4497330" lon="-2.4785550">
        <ele>973.5</ele>
        <time>2019-11-01T12:38:30Z</time>
      </trkpt>
      <trkpt lat="38.4497540" lon="-2.4784620">
        <ele>976.0</ele>
        <time>2019-11-01T12:38:32Z</time>
      </trkpt>
      <trkpt lat="38.4497770" lon="-2.4783300">
        <ele>976.0</ele>
        <time>2019-11-01T12:38:35Z</time>
      </trkpt>
      <trkpt lat="38.4497950" lon="-2.4782400">
        <ele>976.0</ele>
        <time>2019-11-01T12:38:37Z</time>
      </trkpt>
      <trkpt lat="38.4498100" lon="-2.4781470">
        <ele>976.0</ele>
        <time>2019-11-01T12:38:39Z</time>
      </trkpt>
      <trkpt lat="38.4498250" lon="-2.4780560">
        <ele>976.0</ele>
        <time>2019-11-01T12:38:41Z</time>
      </trkpt>
      <trkpt lat="38.4498430" lon="-2.4779650">
        <ele>976.0</ele>
        <time>2019-11-01T12:38:43Z</time>
      </trkpt>
      <trkpt lat="38.4498590" lon="-2.4778770">
        <ele>976.0</ele>
        <time>2019-11-01T12:38:45Z</time>
      </trkpt>
      <trkpt lat="38.4498740" lon="-2.4777940">
        <ele>976.0</ele>
        <time>2019-11-01T12:38:47Z</time>
      </trkpt>
      <trkpt lat="38.4498870" lon="-2.4777160">
        <ele>978.5</ele>
        <time>2019-11-01T12:38:49Z</time>
      </trkpt>
      <trkpt lat="38.4498970" lon="-2.4776350">
        <ele>978.5</ele>
        <time>2019-11-01T12:38:51Z</time>
      </trkpt>
      <trkpt lat="38.4499120" lon="-2.4775560">
        <ele>978.5</ele>
        <time>2019-11-01T12:38:53Z</time>
      </trkpt>
      <trkpt lat="38.4499330" lon="-2.4774790">
        <ele>978.5</ele>
        <time>2019-11-01T12:38:55Z</time>
      </trkpt>
      <trkpt lat="38.4499430" lon="-2.4774030">
        <ele>978.5</ele>
        <time>2019-11-01T12:38:57Z</time>
      </trkpt>
      <trkpt lat="38.4499580" lon="-2.4773320">
        <ele>978.5</ele>
        <time>2019-11-01T12:38:59Z</time>
      </trkpt>
      <trkpt lat="38.4499710" lon="-2.4772650">
        <ele>978.5</ele>
        <time>2019-11-01T12:39:01Z</time>
      </trkpt>
      <trkpt lat="38.4499810" lon="-2.4771960">
        <ele>978.5</ele>
        <time>2019-11-01T12:39:03Z</time>
      </trkpt>
      <trkpt lat="38.4499970" lon="-2.4771230">
        <ele>981.1</ele>
        <time>2019-11-01T12:39:05Z</time>
      </trkpt>
      <trkpt lat="38.4500200" lon="-2.4770480">
        <ele>981.1</ele>
        <time>2019-11-01T12:39:07Z</time>
      </trkpt>
      <trkpt lat="38.4500380" lon="-2.4769780">
        <ele>981.1</ele>
        <time>2019-11-01T12:39:09Z</time>
      </trkpt>
      <trkpt lat="38.4500660" lon="-2.4769000">
        <ele>981.1</ele>
        <time>2019-11-01T12:39:11Z</time>
      </trkpt>
      <trkpt lat="38.4500920" lon="-2.4768280">
        <ele>981.1</ele>
        <time>2019-11-01T12:39:13Z</time>
      </trkpt>
      <trkpt lat="38.4501200" lon="-2.4767540">
        <ele>981.1</ele>
        <time>2019-11-01T12:39:15Z</time>
      </trkpt>
      <trkpt lat="38.4501500" lon="-2.4766770">
        <ele>981.1</ele>
        <time>2019-11-01T12:39:17Z</time>
      </trkpt>
      <trkpt lat="38.4501810" lon="-2.4766030">
        <ele>981.1</ele>
        <time>2019-11-01T12:39:19Z</time>
      </trkpt>
      <trkpt lat="38.4502140" lon="-2.4765350">
        <ele>983.6</ele>
        <time>2019-11-01T12:39:21Z</time>
      </trkpt>
      <trkpt lat="38.4502450" lon="-2.4764640">
        <ele>983.6</ele>
        <time>2019-11-01T12:39:23Z</time>
      </trkpt>
      <trkpt lat="38.4502710" lon="-2.4763930">
        <ele>983.6</ele>
        <time>2019-11-01T12:39:25Z</time>
      </trkpt>
      <trkpt lat="38.4502990" lon="-2.4763220">
        <ele>983.6</ele>
        <time>2019-11-01T12:39:27Z</time>
      </trkpt>
      <trkpt lat="38.4503240" lon="-2.4762490">
        <ele>983.6</ele>
        <time>2019-11-01T12:39:29Z</time>
      </trkpt>
      <trkpt lat="38.4503450" lon="-2.4761750">
        <ele>983.6</ele>
        <time>2019-11-01T12:39:31Z</time>
      </trkpt>
      <trkpt lat="38.4503630" lon="-2.4760990">
        <ele>983.6</ele>
        <time>2019-11-01T12:39:33Z</time>
      </trkpt>
      <trkpt lat="38.4503760" lon="-2.4760280">
        <ele>983.6</ele>
        <time>2019-11-01T12:39:35Z</time>
      </trkpt>
      <trkpt lat="38.4503910" lon="-2.4759220">
        <ele>986.3</ele>
        <time>2019-11-01T12:39:38Z</time>
      </trkpt>
      <trkpt lat="38.4504010" lon="-2.4758120">
        <ele>986.3</ele>
        <time>2019-11-01T12:39:41Z</time>
      </trkpt>
      <trkpt lat="38.4504090" lon="-2.4757360">
        <ele>986.3</ele>
        <time>2019-11-01T12:39:43Z</time>
      </trkpt>
      <trkpt lat="38.4504170" lon="-2.4756630">
        <ele>986.3</ele>
        <time>2019-11-01T12:39:45Z</time>
      </trkpt>
      <trkpt lat="38.4504190" lon="-2.4755930">
        <ele>986.3</ele>
        <time>2019-11-01T12:39:47Z</time>
      </trkpt>
      <trkpt lat="38.4504270" lon="-2.4755220">
        <ele>986.3</ele>
        <time>2019-11-01T12:39:49Z</time>
      </trkpt>
      <trkpt lat="38.4504320" lon="-2.4754500">
        <ele>986.3</ele>
        <time>2019-11-01T12:39:51Z</time>
      </trkpt>
      <trkpt lat="38.4504350" lon="-2.4753800">
        <ele>988.8</ele>
        <time>2019-11-01T12:39:53Z</time>
      </trkpt>
      <trkpt lat="38.4504400" lon="-2.4753070">
        <ele>988.8</ele>
        <time>2019-11-01T12:39:55Z</time>
      </trkpt>
      <trkpt lat="38.4504470" lon="-2.4752390">
        <ele>988.8</ele>
        <time>2019-11-01T12:39:57Z</time>
      </trkpt>
      <trkpt lat="38.4504550" lon="-2.4751650">
        <ele>988.8</ele>
        <time>2019-11-01T12:39:59Z</time>
      </trkpt>
      <trkpt lat="38.4504580" lon="-2.4750950">
        <ele>988.8</ele>
        <time>2019-11-01T12:40:01Z</time>
      </trkpt>
      <trkpt lat="38.4504650" lon="-2.4750220">
        <ele>988.8</ele>
        <time>2019-11-01T12:40:03Z</time>
      </trkpt>
      <trkpt lat="38.4504700" lon="-2.4749510">
        <ele>988.8</ele>
        <time>2019-11-01T12:40:05Z</time>
      </trkpt>
      <trkpt lat="38.4504780" lon="-2.4748780">
        <ele>988.8</ele>
        <time>2019-11-01T12:40:07Z</time>
      </trkpt>
      <trkpt lat="38.4504810" lon="-2.4748040">
        <ele>991.5</ele>
        <time>2019-11-01T12:40:09Z</time>
      </trkpt>
      <trkpt lat="38.4504880" lon="-2.4747360">
        <ele>991.5</ele>
        <time>2019-11-01T12:40:11Z</time>
      </trkpt>
      <trkpt lat="38.4504960" lon="-2.4746640">
        <ele>991.5</ele>
        <time>2019-11-01T12:40:13Z</time>
      </trkpt>
      <trkpt lat="38.4505010" lon="-2.4745900">
        <ele>991.5</ele>
        <time>2019-11-01T12:40:15Z</time>
      </trkpt>
      <trkpt lat="38.4505090" lon="-2.4745210">
        <ele>991.5</ele>
        <time>2019-11-01T12:40:17Z</time>
      </trkpt>
      <trkpt lat="38.4505110" lon="-2.4744480">
        <ele>991.5</ele>
        <time>2019-11-01T12:40:19Z</time>
      </trkpt>
      <trkpt lat="38.4505160" lon="-2.4743790">
        <ele>991.5</ele>
        <time>2019-11-01T12:40:21Z</time>
      </trkpt>
      <trkpt lat="38.4505190" lon="-2.4743080">
        <ele>991.5</ele>
        <time>2019-11-01T12:40:23Z</time>
      </trkpt>
      <trkpt lat="38.4505270" lon="-2.4742340">
        <ele>997.5</ele>
        <time>2019-11-01T12:40:25Z</time>
      </trkpt>
      <trkpt lat="38.4505340" lon="-2.4741610">
        <ele>997.5</ele>
        <time>2019-11-01T12:40:27Z</time>
      </trkpt>
      <trkpt lat="38.4505420" lon="-2.4740810">
        <ele>997.5</ele>
        <time>2019-11-01T12:40:29Z</time>
      </trkpt>
      <trkpt lat="38.4505500" lon="-2.4740070">
        <ele>997.5</ele>
        <time>2019-11-01T12:40:31Z</time>
      </trkpt>
      <trkpt lat="38.4505630" lon="-2.4739290">
        <ele>997.5</ele>
        <time>2019-11-01T12:40:33Z</time>
      </trkpt>
      <trkpt lat="38.4505730" lon="-2.4738600">
        <ele>997.5</ele>
        <time>2019-11-01T12:40:35Z</time>
      </trkpt>
      <trkpt lat="38.4505860" lon="-2.4737850">
        <ele>997.5</ele>
        <time>2019-11-01T12:40:37Z</time>
      </trkpt>
      <trkpt lat="38.4505980" lon="-2.4737110">
        <ele>997.5</ele>
        <time>2019-11-01T12:40:39Z</time>
      </trkpt>
      <trkpt lat="38.4506140" lon="-2.4736300">
        <ele>1000.0</ele>
        <time>2019-11-01T12:40:41Z</time>
      </trkpt>
      <trkpt lat="38.4506290" lon="-2.4735510">
        <ele>1000.0</ele>
        <time>2019-11-01T12:40:43Z</time>
      </trkpt>
      <trkpt lat="38.4506500" lon="-2.4734770">
        <ele>1000.0</ele>
        <time>2019-11-01T12:40:45Z</time>
      </trkpt>
      <trkpt lat="38.4506650" lon="-2.4734000">
        <ele>1000.0</ele>
        <time>2019-11-01T12:40:47Z</time>
      </trkpt>
      <trkpt lat="38.4506830" lon="-2.4733250">
        <ele>1000.0</ele>
        <time>2019-11-01T12:40:49Z</time>
      </trkpt>
      <trkpt lat="38.4507030" lon="-2.4732570">
        <ele>1000.0</ele>
        <time>2019-11-01T12:40:51Z</time>
      </trkpt>
      <trkpt lat="38.4507260" lon="-2.4731880">
        <ele>1000.0</ele>
        <time>2019-11-01T12:40:53Z</time>
      </trkpt>
      <trkpt lat="38.4507440" lon="-2.4731170">
        <ele>1000.0</ele>
        <time>2019-11-01T12:40:55Z</time>
      </trkpt>
      <trkpt lat="38.4507650" lon="-2.4730480">
        <ele>1002.5</ele>
        <time>2019-11-01T12:40:57Z</time>
      </trkpt>
      <trkpt lat="38.4507880" lon="-2.4729770">
        <ele>1002.5</ele>
        <time>2019-11-01T12:40:59Z</time>
      </trkpt>
      <trkpt lat="38.4508080" lon="-2.4729070">
        <ele>1002.5</ele>
        <time>2019-11-01T12:41:01Z</time>
      </trkpt>
      <trkpt lat="38.4508360" lon="-2.4728330">
        <ele>1002.5</ele>
        <time>2019-11-01T12:41:03Z</time>
      </trkpt>
      <trkpt lat="38.4508600" lon="-2.4727610">
        <ele>1002.5</ele>
        <time>2019-11-01T12:41:05Z</time>
      </trkpt>
      <trkpt lat="38.4508770" lon="-2.4726920">
        <ele>1002.5</ele>
        <time>2019-11-01T12:41:07Z</time>
      </trkpt>
      <trkpt lat="38.4509060" lon="-2.4726170">
        <ele>1002.5</ele>
        <time>2019-11-01T12:41:09Z</time>
      </trkpt>
      <trkpt lat="38.4509290" lon="-2.4725460">
        <ele>1002.5</ele>
        <time>2019-11-01T12:41:11Z</time>
      </trkpt>
      <trkpt lat="38.4509520" lon="-2.4724740">
        <ele>1005.2</ele>
        <time>2019-11-01T12:41:13Z</time>
      </trkpt>
      <trkpt lat="38.4509770" lon="-2.4724040">
        <ele>1005.2</ele>
        <time>2019-11-01T12:41:15Z</time>
      </trkpt>
      <trkpt lat="38.4510080" lon="-2.4723330">
        <ele>1005.2</ele>
        <time>2019-11-01T12:41:17Z</time>
      </trkpt>
      <trkpt lat="38.4510340" lon="-2.4722640">
        <ele>1005.2</ele>
        <time>2019-11-01T12:41:19Z</time>
      </trkpt>
      <trkpt lat="38.4510640" lon="-2.4721970">
        <ele>1005.2</ele>
        <time>2019-11-01T12:41:21Z</time>
      </trkpt>
      <trkpt lat="38.4511000" lon="-2.4721290">
        <ele>1005.2</ele>
        <time>2019-11-01T12:41:23Z</time>
      </trkpt>
      <trkpt lat="38.4511330" lon="-2.4720700">
        <ele>1005.2</ele>
        <time>2019-11-01T12:41:25Z</time>
      </trkpt>
      <trkpt lat="38.4511770" lon="-2.4720170">
        <ele>1005.2</ele>
        <time>2019-11-01T12:41:27Z</time>
      </trkpt>
      <trkpt lat="38.4512200" lon="-2.4719690">
        <ele>1007.8</ele>
        <time>2019-11-01T12:41:29Z</time>
      </trkpt>
      <trkpt lat="38.4512720" lon="-2.4719250">
        <ele>1007.8</ele>
        <time>2019-11-01T12:41:31Z</time>
      </trkpt>
      <trkpt lat="38.4513200" lon="-2.4718900">
        <ele>1007.8</ele>
        <time>2019-11-01T12:41:33Z</time>
      </trkpt>
      <trkpt lat="38.4513740" lon="-2.4718590">
        <ele>1007.8</ele>
        <time>2019-11-01T12:41:35Z</time>
      </trkpt>
      <trkpt lat="38.4514300" lon="-2.4718320">
        <ele>1007.8</ele>
        <time>2019-11-01T12:41:37Z</time>
      </trkpt>
      <trkpt lat="38.4514920" lon="-2.4718120">
        <ele>1007.8</ele>
        <time>2019-11-01T12:41:39Z</time>
      </trkpt>
      <trkpt lat="38.4515510" lon="-2.4717950">
        <ele>1007.8</ele>
        <time>2019-11-01T12:41:41Z</time>
      </trkpt>
      <trkpt lat="38.4516070" lon="-2.4717780">
        <ele>1007.8</ele>
        <time>2019-11-01T12:41:43Z</time>
      </trkpt>
      <trkpt lat="38.4516680" lon="-2.4717610">
        <ele>1010.2</ele>
        <time>2019-11-01T12:41:45Z</time>
      </trkpt>
      <trkpt lat="38.4517250" lon="-2.4717410">
        <ele>1010.2</ele>
        <time>2019-11-01T12:41:47Z</time>
      </trkpt>
      <trkpt lat="38.4517810" lon="-2.4717170">
        <ele>1010.2</ele>
        <time>2019-11-01T12:41:49Z</time>
      </trkpt>
      <trkpt lat="38.4518350" lon="-2.4716860">
        <ele>1010.2</ele>
        <time>2019-11-01T12:41:51Z</time>
      </trkpt>
      <trkpt lat="38.4518860" lon="-2.4716510">
        <ele>1010.2</ele>
        <time>2019-11-01T12:41:53Z</time>
      </trkpt>
      <trkpt lat="38.4519580" lon="-2.4715850">
        <ele>1010.2</ele>
        <time>2019-11-01T12:41:56Z</time>
      </trkpt>
      <trkpt lat="38.4519990" lon="-2.4715320">
        <ele>1010.2</ele>
        <time>2019-11-01T12:41:58Z</time>
      </trkpt>
      <trkpt lat="38.4520350" lon="-2.4714710">
        <ele>1012.4</ele>
        <time>2019-11-01T12:42:00Z</time>
      </trkpt>
      <trkpt lat="38.4520600" lon="-2.4714060">
        <ele>1012.4</ele>
        <time>2019-11-01T12:42:02Z</time>
      </trkpt>
      <trkpt lat="38.4520830" lon="-2.4713400">
        <ele>1012.4</ele>
        <time>2019-11-01T12:42:04Z</time>
      </trkpt>
      <trkpt lat="38.4521040" lon="-2.4712670">
        <ele>1012.4</ele>
        <time>2019-11-01T12:42:06Z</time>
      </trkpt>
      <trkpt lat="38.4521190" lon="-2.4711960">
        <ele>1012.4</ele>
        <time>2019-11-01T12:42:08Z</time>
      </trkpt>
      <trkpt lat="38.4521340" lon="-2.4711240">
        <ele>1012.4</ele>
        <time>2019-11-01T12:42:10Z</time>
      </trkpt>
      <trkpt lat="38.4521450" lon="-2.4710570">
        <ele>1012.4</ele>
        <time>2019-11-01T12:42:12Z</time>
      </trkpt>
      <trkpt lat="38.4521550" lon="-2.4709910">
        <ele>1012.4</ele>
        <time>2019-11-01T12:42:14Z</time>
      </trkpt>
      <trkpt lat="38.4521680" lon="-2.4709230">
        <ele>1015.0</ele>
        <time>2019-11-01T12:42:16Z</time>
      </trkpt>
      <trkpt lat="38.4521750" lon="-2.4708500">
        <ele>1015.0</ele>
        <time>2019-11-01T12:42:18Z</time>
      </trkpt>
      <trkpt lat="38.4521860" lon="-2.4707780">
        <ele>1015.0</ele>
        <time>2019-11-01T12:42:20Z</time>
      </trkpt>
      <trkpt lat="38.4521980" lon="-2.4707090">
        <ele>1015.0</ele>
        <time>2019-11-01T12:42:22Z</time>
      </trkpt>
      <trkpt lat="38.4522090" lon="-2.4706410">
        <ele>1015.0</ele>
        <time>2019-11-01T12:42:24Z</time>
      </trkpt>
      <trkpt lat="38.4522210" lon="-2.4705720">
        <ele>1015.0</ele>
        <time>2019-11-01T12:42:26Z</time>
      </trkpt>
      <trkpt lat="38.4522320" lon="-2.4705070">
        <ele>1015.0</ele>
        <time>2019-11-01T12:42:28Z</time>
      </trkpt>
      <trkpt lat="38.4522440" lon="-2.4704380">
        <ele>1015.0</ele>
        <time>2019-11-01T12:42:30Z</time>
      </trkpt>
      <trkpt lat="38.4522470" lon="-2.4703730">
        <ele>1017.5</ele>
        <time>2019-11-01T12:42:32Z</time>
      </trkpt>
      <trkpt lat="38.4522550" lon="-2.4703100">
        <ele>1017.5</ele>
        <time>2019-11-01T12:42:34Z</time>
      </trkpt>
      <trkpt lat="38.4522680" lon="-2.4702090">
        <ele>1017.5</ele>
        <time>2019-11-01T12:42:37Z</time>
      </trkpt>
      <trkpt lat="38.4522780" lon="-2.4701390">
        <ele>1017.5</ele>
        <time>2019-11-01T12:42:39Z</time>
      </trkpt>
      <trkpt lat="38.4522850" lon="-2.4700700">
        <ele>1017.5</ele>
        <time>2019-11-01T12:42:41Z</time>
      </trkpt>
      <trkpt lat="38.4522930" lon="-2.4699990">
        <ele>1017.5</ele>
        <time>2019-11-01T12:42:43Z</time>
      </trkpt>
      <trkpt lat="38.4523060" lon="-2.4699280">
        <ele>1017.5</ele>
        <time>2019-11-01T12:42:45Z</time>
      </trkpt>
      <trkpt lat="38.4523140" lon="-2.4698580">
        <ele>1017.5</ele>
        <time>2019-11-01T12:42:47Z</time>
      </trkpt>
      <trkpt lat="38.4523210" lon="-2.4697850">
        <ele>1020.0</ele>
        <time>2019-11-01T12:42:49Z</time>
      </trkpt>
      <trkpt lat="38.4523240" lon="-2.4697110">
        <ele>1020.0</ele>
        <time>2019-11-01T12:42:51Z</time>
      </trkpt>
      <trkpt lat="38.4523290" lon="-2.4696390">
        <ele>1020.0</ele>
        <time>2019-11-01T12:42:53Z</time>
      </trkpt>
      <trkpt lat="38.4523240" lon="-2.4695640">
        <ele>1020.0</ele>
        <time>2019-11-01T12:42:55Z</time>
      </trkpt>
      <trkpt lat="38.4523210" lon="-2.4694920">
        <ele>1020.0</ele>
        <time>2019-11-01T12:42:57Z</time>
      </trkpt>
      <trkpt lat="38.4523080" lon="-2.4694200">
        <ele>1020.0</ele>
        <time>2019-11-01T12:42:59Z</time>
      </trkpt>
      <trkpt lat="38.4522930" lon="-2.4693470">
        <ele>1020.0</ele>
        <time>2019-11-01T12:43:01Z</time>
      </trkpt>
      <trkpt lat="38.4522750" lon="-2.4692730">
        <ele>1020.0</ele>
        <time>2019-11-01T12:43:03Z</time>
      </trkpt>
      <trkpt lat="38.4522520" lon="-2.4691960">
        <ele>1022.5</ele>
        <time>2019-11-01T12:43:05Z</time>
      </trkpt>
      <trkpt lat="38.4522210" lon="-2.4691210">
        <ele>1022.5</ele>
        <time>2019-11-01T12:43:07Z</time>
      </trkpt>
      <trkpt lat="38.4521910" lon="-2.4690520">
        <ele>1022.5</ele>
        <time>2019-11-01T12:43:09Z</time>
      </trkpt>
      <trkpt lat="38.4521470" lon="-2.4689830">
        <ele>1022.5</ele>
        <time>2019-11-01T12:43:11Z</time>
      </trkpt>
      <trkpt lat="38.4521040" lon="-2.4689190">
        <ele>1022.5</ele>
        <time>2019-11-01T12:43:13Z</time>
      </trkpt>
      <trkpt lat="38.4520600" lon="-2.4688560">
        <ele>1022.5</ele>
        <time>2019-11-01T12:43:15Z</time>
      </trkpt>
      <trkpt lat="38.4520060" lon="-2.4687960">
        <ele>1022.5</ele>
        <time>2019-11-01T12:43:17Z</time>
      </trkpt>
      <trkpt lat="38.4519530" lon="-2.4687390">
        <ele>1022.5</ele>
        <time>2019-11-01T12:43:19Z</time>
      </trkpt>
      <trkpt lat="38.4519010" lon="-2.4686800">
        <ele>1024.8</ele>
        <time>2019-11-01T12:43:21Z</time>
      </trkpt>
      <trkpt lat="38.4518480" lon="-2.4686250">
        <ele>1024.8</ele>
        <time>2019-11-01T12:43:23Z</time>
      </trkpt>
      <trkpt lat="38.4517860" lon="-2.4685660">
        <ele>1024.8</ele>
        <time>2019-11-01T12:43:25Z</time>
      </trkpt>
      <trkpt lat="38.4517300" lon="-2.4685090">
        <ele>1024.8</ele>
        <time>2019-11-01T12:43:27Z</time>
      </trkpt>
      <trkpt lat="38.4516760" lon="-2.4684510">
        <ele>1024.8</ele>
        <time>2019-11-01T12:43:29Z</time>
      </trkpt>
      <trkpt lat="38.4516250" lon="-2.4683950">
        <ele>1024.8</ele>
        <time>2019-11-01T12:43:31Z</time>
      </trkpt>
      <trkpt lat="38.4515840" lon="-2.4683440">
        <ele>1024.8</ele>
        <time>2019-11-01T12:43:33Z</time>
      </trkpt>
      <trkpt lat="38.4515460" lon="-2.4682910">
        <ele>1024.8</ele>
        <time>2019-11-01T12:43:35Z</time>
      </trkpt>
      <trkpt lat="38.4515150" lon="-2.4682330">
        <ele>1027.1</ele>
        <time>2019-11-01T12:43:37Z</time>
      </trkpt>
      <trkpt lat="38.4514820" lon="-2.4681740">
        <ele>1027.1</ele>
        <time>2019-11-01T12:43:39Z</time>
      </trkpt>
      <trkpt lat="38.4514530" lon="-2.4681150">
        <ele>1027.1</ele>
        <time>2019-11-01T12:43:41Z</time>
      </trkpt>
      <trkpt lat="38.4514280" lon="-2.4680570">
        <ele>1027.1</ele>
        <time>2019-11-01T12:43:43Z</time>
      </trkpt>
      <trkpt lat="38.4513970" lon="-2.4679720">
        <ele>1027.1</ele>
        <time>2019-11-01T12:43:46Z</time>
      </trkpt>
      <trkpt lat="38.4513510" lon="-2.4679100">
        <ele>1027.1</ele>
        <time>2019-11-01T12:43:49Z</time>
      </trkpt>
      <trkpt lat="38.4512950" lon="-2.4678690">
        <ele>1029.4</ele>
        <time>2019-11-01T12:43:52Z</time>
      </trkpt>
      <trkpt lat="38.4512590" lon="-2.4678530">
        <ele>1029.4</ele>
        <time>2019-11-01T12:43:54Z</time>
      </trkpt>
      <trkpt lat="38.4512050" lon="-2.4678280">
        <ele>1029.4</ele>
        <time>2019-11-01T12:43:58Z</time>
      </trkpt>
      <trkpt lat="38.4511620" lon="-2.4677940">
        <ele>1029.4</ele>
        <time>2019-11-01T12:44:01Z</time>
      </trkpt>
      <trkpt lat="38.4511160" lon="-2.4677540">
        <ele>1029.4</ele>
        <time>2019-11-01T12:44:04Z</time>
      </trkpt>
      <trkpt lat="38.4510690" lon="-2.4677150">
        <ele>1029.4</ele>
        <time>2019-11-01T12:44:07Z</time>
      </trkpt>
      <trkpt lat="38.4510160" lon="-2.4676790">
        <ele>1031.7</ele>
        <time>2019-11-01T12:44:10Z</time>
      </trkpt>
      <trkpt lat="38.4509670" lon="-2.4676510">
        <ele>1031.7</ele>
        <time>2019-11-01T12:44:13Z</time>
      </trkpt>
      <trkpt lat="38.4508980" lon="-2.4676270">
        <ele>1031.7</ele>
        <time>2019-11-01T12:44:17Z</time>
      </trkpt>
      <trkpt lat="38.4508390" lon="-2.4676100">
        <ele>1031.7</ele>
        <time>2019-11-01T12:44:20Z</time>
      </trkpt>
      <trkpt lat="38.4507830" lon="-2.4675930">
        <ele>1031.7</ele>
        <time>2019-11-01T12:44:23Z</time>
      </trkpt>
      <trkpt lat="38.4507440" lon="-2.4675820">
        <ele>1033.8</ele>
        <time>2019-11-01T12:44:25Z</time>
      </trkpt>
      <trkpt lat="38.4506910" lon="-2.4675700">
        <ele>1033.8</ele>
        <time>2019-11-01T12:44:28Z</time>
      </trkpt>
      <trkpt lat="38.4506340" lon="-2.4675620">
        <ele>1033.8</ele>
        <time>2019-11-01T12:44:31Z</time>
      </trkpt>
      <trkpt lat="38.4505780" lon="-2.4675580">
        <ele>1033.8</ele>
        <time>2019-11-01T12:44:34Z</time>
      </trkpt>
      <trkpt lat="38.4505240" lon="-2.4675640">
        <ele>1033.8</ele>
        <time>2019-11-01T12:44:37Z</time>
      </trkpt>
      <trkpt lat="38.4504700" lon="-2.4675710">
        <ele>1035.8</ele>
        <time>2019-11-01T12:44:40Z</time>
      </trkpt>
      <trkpt lat="38.4504190" lon="-2.4675790">
        <ele>1035.8</ele>
        <time>2019-11-01T12:44:43Z</time>
      </trkpt>
      <trkpt lat="38.4503550" lon="-2.4675910">
        <ele>1035.8</ele>
        <time>2019-11-01T12:44:47Z</time>
      </trkpt>
      <trkpt lat="38.4503010" lon="-2.4676010">
        <ele>1035.8</ele>
        <time>2019-11-01T12:44:50Z</time>
      </trkpt>
      <trkpt lat="38.4502530" lon="-2.4676100">
        <ele>1035.8</ele>
        <time>2019-11-01T12:44:53Z</time>
      </trkpt>
      <trkpt lat="38.4501760" lon="-2.4676360">
        <ele>1035.8</ele>
        <time>2019-11-01T12:44:58Z</time>
      </trkpt>
      <trkpt lat="38.4501300" lon="-2.4676520">
        <ele>1037.9</ele>
        <time>2019-11-01T12:45:01Z</time>
      </trkpt>
      <trkpt lat="38.4500740" lon="-2.4676670">
        <ele>1037.9</ele>
        <time>2019-11-01T12:45:05Z</time>
      </trkpt>
      <trkpt lat="38.4500200" lon="-2.4676830">
        <ele>1037.9</ele>
        <time>2019-11-01T12:45:09Z</time>
      </trkpt>
      <trkpt lat="38.4499580" lon="-2.4677000">
        <ele>1037.9</ele>
        <time>2019-11-01T12:45:13Z</time>
      </trkpt>
      <trkpt lat="38.4499120" lon="-2.4677160">
        <ele>1039.9</ele>
        <time>2019-11-01T12:45:16Z</time>
      </trkpt>
      <trkpt lat="38.4498560" lon="-2.4677320">
        <ele>1039.9</ele>
        <time>2019-11-01T12:45:20Z</time>
      </trkpt>
      <trkpt lat="38.4497950" lon="-2.4677420">
        <ele>1039.9</ele>
        <time>2019-11-01T12:45:24Z</time>
      </trkpt>
      <trkpt lat="38.4497310" lon="-2.4677440">
        <ele>1039.9</ele>
        <time>2019-11-01T12:45:28Z</time>
      </trkpt>
      <trkpt lat="38.4496690" lon="-2.4677580">
        <ele>1041.9</ele>
        <time>2019-11-01T12:45:32Z</time>
      </trkpt>
      <trkpt lat="38.4496130" lon="-2.4677810">
        <ele>1041.9</ele>
        <time>2019-11-01T12:45:36Z</time>
      </trkpt>
      <trkpt lat="38.4495590" lon="-2.4678030">
        <ele>1041.9</ele>
        <time>2019-11-01T12:45:40Z</time>
      </trkpt>
      <trkpt lat="38.4495000" lon="-2.4678360">
        <ele>1041.9</ele>
        <time>2019-11-01T12:45:44Z</time>
      </trkpt>
      <trkpt lat="38.4494540" lon="-2.4678740">
        <ele>1043.9</ele>
        <time>2019-11-01T12:45:48Z</time>
      </trkpt>
      <trkpt lat="38.4494050" lon="-2.4679120">
        <ele>1043.9</ele>
        <time>2019-11-01T12:45:52Z</time>
      </trkpt>
      <trkpt lat="38.4493640" lon="-2.4679600">
        <ele>1043.9</ele>
        <time>2019-11-01T12:45:56Z</time>
      </trkpt>
      <trkpt lat="38.4493180" lon="-2.4680010">
        <ele>1045.9</ele>
        <time>2019-11-01T12:46:00Z</time>
      </trkpt>
      <trkpt lat="38.4492720" lon="-2.4680420">
        <ele>1045.9</ele>
        <time>2019-11-01T12:46:04Z</time>
      </trkpt>
      <trkpt lat="38.4492310" lon="-2.4680840">
        <ele>1045.9</ele>
        <time>2019-11-01T12:46:08Z</time>
      </trkpt>
      <trkpt lat="38.4491800" lon="-2.4681270">
        <ele>1045.9</ele>
        <time>2019-11-01T12:46:12Z</time>
      </trkpt>
      <trkpt lat="38.4491320" lon="-2.4681720">
        <ele>1048.0</ele>
        <time>2019-11-01T12:46:16Z</time>
      </trkpt>
      <trkpt lat="38.4491010" lon="-2.4682090">
        <ele>1048.0</ele>
        <time>2019-11-01T12:46:19Z</time>
      </trkpt>
      <trkpt lat="38.4490550" lon="-2.4682600">
        <ele>1048.0</ele>
        <time>2019-11-01T12:46:23Z</time>
      </trkpt>
      <trkpt lat="38.4490140" lon="-2.4683110">
        <ele>1048.0</ele>
        <time>2019-11-01T12:46:27Z</time>
      </trkpt>
      <trkpt lat="38.4489680" lon="-2.4683640">
        <ele>1048.0</ele>
        <time>2019-11-01T12:46:31Z</time>
      </trkpt>
      <trkpt lat="38.4489370" lon="-2.4684010">
        <ele>1050.3</ele>
        <time>2019-11-01T12:46:34Z</time>
      </trkpt>
      <trkpt lat="38.4488990" lon="-2.4684560">
        <ele>1050.3</ele>
        <time>2019-11-01T12:46:38Z</time>
      </trkpt>
      <trkpt lat="38.4488520" lon="-2.4685070">
        <ele>1050.3</ele>
        <time>2019-11-01T12:46:42Z</time>
      </trkpt>
      <trkpt lat="38.4488120" lon="-2.4685690">
        <ele>1050.3</ele>
        <time>2019-11-01T12:46:46Z</time>
      </trkpt>
      <trkpt lat="38.4487760" lon="-2.4686120">
        <ele>1052.4</ele>
        <time>2019-11-01T12:46:49Z</time>
      </trkpt>
      <trkpt lat="38.4487420" lon="-2.4686570">
        <ele>1052.4</ele>
        <time>2019-11-01T12:46:52Z</time>
      </trkpt>
      <trkpt lat="38.4486990" lon="-2.4687100">
        <ele>1052.4</ele>
        <time>2019-11-01T12:46:56Z</time>
      </trkpt>
      <trkpt lat="38.4486630" lon="-2.4687450">
        <ele>1052.4</ele>
        <time>2019-11-01T12:46:59Z</time>
      </trkpt>
      <trkpt lat="38.4486040" lon="-2.4687880">
        <ele>1052.4</ele>
        <time>2019-11-01T12:47:03Z</time>
      </trkpt>
      <trkpt lat="38.4485630" lon="-2.4688220">
        <ele>1054.7</ele>
        <time>2019-11-01T12:47:06Z</time>
      </trkpt>
      <trkpt lat="38.4485200" lon="-2.4688550">
        <ele>1054.7</ele>
        <time>2019-11-01T12:47:09Z</time>
      </trkpt>
      <trkpt lat="38.4484680" lon="-2.4689000">
        <ele>1054.7</ele>
        <time>2019-11-01T12:47:13Z</time>
      </trkpt>
      <trkpt lat="38.4484100" lon="-2.4689330">
        <ele>1054.7</ele>
        <time>2019-11-01T12:47:17Z</time>
      </trkpt>
      <trkpt lat="38.4483530" lon="-2.4689610">
        <ele>1057.1</ele>
        <time>2019-11-01T12:47:21Z</time>
      </trkpt>
      <trkpt lat="38.4482920" lon="-2.4689940">
        <ele>1057.1</ele>
        <time>2019-11-01T12:47:25Z</time>
      </trkpt>
      <trkpt lat="38.4482380" lon="-2.4690270">
        <ele>1057.1</ele>
        <time>2019-11-01T12:47:29Z</time>
      </trkpt>
      <trkpt lat="38.4481770" lon="-2.4690570">
        <ele>1057.1</ele>
        <time>2019-11-01T12:47:33Z</time>
      </trkpt>
      <trkpt lat="38.4481200" lon="-2.4690920">
        <ele>1059.2</ele>
        <time>2019-11-01T12:47:37Z</time>
      </trkpt>
      <trkpt lat="38.4480640" lon="-2.4691200">
        <ele>1059.2</ele>
        <time>2019-11-01T12:47:41Z</time>
      </trkpt>
      <trkpt lat="38.4479820" lon="-2.4691310">
        <ele>1059.2</ele>
        <time>2019-11-01T12:47:46Z</time>
      </trkpt>
      <trkpt lat="38.4479180" lon="-2.4691250">
        <ele>1059.2</ele>
        <time>2019-11-01T12:47:50Z</time>
      </trkpt>
      <trkpt lat="38.4478800" lon="-2.4691160">
        <ele>1061.3</ele>
        <time>2019-11-01T12:47:53Z</time>
      </trkpt>
      <trkpt lat="38.4478230" lon="-2.4690900">
        <ele>1061.3</ele>
        <time>2019-11-01T12:47:57Z</time>
      </trkpt>
      <trkpt lat="38.4477800" lon="-2.4690630">
        <ele>1061.3</ele>
        <time>2019-11-01T12:48:00Z</time>
      </trkpt>
      <trkpt lat="38.4477310" lon="-2.4690210">
        <ele>1061.3</ele>
        <time>2019-11-01T12:48:04Z</time>
      </trkpt>
      <trkpt lat="38.4476900" lon="-2.4689770">
        <ele>1063.6</ele>
        <time>2019-11-01T12:48:08Z</time>
      </trkpt>
      <trkpt lat="38.4476540" lon="-2.4689430">
        <ele>1063.6</ele>
        <time>2019-11-01T12:48:11Z</time>
      </trkpt>
      <trkpt lat="38.4476130" lon="-2.4688970">
        <ele>1063.6</ele>
        <time>2019-11-01T12:48:15Z</time>
      </trkpt>
      <trkpt lat="38.4475780" lon="-2.4688480">
        <ele>1063.6</ele>
        <time>2019-11-01T12:48:19Z</time>
      </trkpt>
      <trkpt lat="38.4475390" lon="-2.4687970">
        <ele>1063.6</ele>
        <time>2019-11-01T12:48:23Z</time>
      </trkpt>
      <trkpt lat="38.4475110" lon="-2.4687550">
        <ele>1066.0</ele>
        <time>2019-11-01T12:48:26Z</time>
      </trkpt>
      <trkpt lat="38.4474750" lon="-2.4687130">
        <ele>1066.0</ele>
        <time>2019-11-01T12:48:29Z</time>
      </trkpt>
      <trkpt lat="38.4474270" lon="-2.4686640">
        <ele>1066.0</ele>
        <time>2019-11-01T12:48:33Z</time>
      </trkpt>
      <trkpt lat="38.4473650" lon="-2.4686380">
        <ele>1066.0</ele>
        <time>2019-11-01T12:48:37Z</time>
      </trkpt>
      <trkpt lat="38.4473010" lon="-2.4686220">
        <ele>1068.4</ele>
        <time>2019-11-01T12:48:41Z</time>
      </trkpt>
      <trkpt lat="38.4472470" lon="-2.4686120">
        <ele>1068.4</ele>
        <time>2019-11-01T12:48:44Z</time>
      </trkpt>
      <trkpt lat="38.4471960" lon="-2.4686020">
        <ele>1068.4</ele>
        <time>2019-11-01T12:48:47Z</time>
      </trkpt>
      <trkpt lat="38.4471420" lon="-2.4685890">
        <ele>1068.4</ele>
        <time>2019-11-01T12:48:50Z</time>
      </trkpt>
      <trkpt lat="38.4470780" lon="-2.4685680">
        <ele>1068.4</ele>
        <time>2019-11-01T12:48:54Z</time>
      </trkpt>
      <trkpt lat="38.4470320" lon="-2.4685520">
        <ele>1070.8</ele>
        <time>2019-11-01T12:48:57Z</time>
      </trkpt>
      <trkpt lat="38.4469680" lon="-2.4685260">
        <ele>1070.8</ele>
        <time>2019-11-01T12:49:01Z</time>
      </trkpt>
      <trkpt lat="38.4469200" lon="-2.4685010">
        <ele>1070.8</ele>
        <time>2019-11-01T12:49:04Z</time>
      </trkpt>
      <trkpt lat="38.4468680" lon="-2.4684750">
        <ele>1070.8</ele>
        <time>2019-11-01T12:49:07Z</time>
      </trkpt>
      <trkpt lat="38.4468200" lon="-2.4684490">
        <ele>1070.8</ele>
        <time>2019-11-01T12:49:10Z</time>
      </trkpt>
      <trkpt lat="38.4467690" lon="-2.4684240">
        <ele>1073.5</ele>
        <time>2019-11-01T12:49:13Z</time>
      </trkpt>
      <trkpt lat="38.4467250" lon="-2.4683960">
        <ele>1073.5</ele>
        <time>2019-11-01T12:49:16Z</time>
      </trkpt>
      <trkpt lat="38.4466640" lon="-2.4683540">
        <ele>1073.5</ele>
        <time>2019-11-01T12:49:20Z</time>
      </trkpt>
      <trkpt lat="38.4466120" lon="-2.4683210">
        <ele>1073.5</ele>
        <time>2019-11-01T12:49:23Z</time>
      </trkpt>
      <trkpt lat="38.4465640" lon="-2.4682860">
        <ele>1073.5</ele>
        <time>2019-11-01T12:49:26Z</time>
      </trkpt>
      <trkpt lat="38.4465180" lon="-2.4682440">
        <ele>1075.8</ele>
        <time>2019-11-01T12:49:29Z</time>
      </trkpt>
      <trkpt lat="38.4464770" lon="-2.4682010">
        <ele>1075.8</ele>
        <time>2019-11-01T12:49:32Z</time>
      </trkpt>
      <trkpt lat="38.4464260" lon="-2.4681590">
        <ele>1075.8</ele>
        <time>2019-11-01T12:49:35Z</time>
      </trkpt>
      <trkpt lat="38.4463850" lon="-2.4681130">
        <ele>1075.8</ele>
        <time>2019-11-01T12:49:38Z</time>
      </trkpt>
      <trkpt lat="38.4463440" lon="-2.4680630">
        <ele>1075.8</ele>
        <time>2019-11-01T12:49:41Z</time>
      </trkpt>
      <trkpt lat="38.4463130" lon="-2.4680060">
        <ele>1078.4</ele>
        <time>2019-11-01T12:49:44Z</time>
      </trkpt>
      <trkpt lat="38.4462920" lon="-2.4679320">
        <ele>1078.4</ele>
        <time>2019-11-01T12:49:47Z</time>
      </trkpt>
      <trkpt lat="38.4462850" lon="-2.4678590">
        <ele>1078.4</ele>
        <time>2019-11-01T12:49:50Z</time>
      </trkpt>
      <trkpt lat="38.4462770" lon="-2.4677860">
        <ele>1078.4</ele>
        <time>2019-11-01T12:49:53Z</time>
      </trkpt>
      <trkpt lat="38.4462820" lon="-2.4677270">
        <ele>1078.4</ele>
        <time>2019-11-01T12:49:57Z</time>
      </trkpt>
      <trkpt lat="38.4462920" lon="-2.4676320">
        <ele>1081.1</ele>
        <time>2019-11-01T12:50:21Z</time>
      </trkpt>
      <trkpt lat="38.4462310" lon="-2.4675710">
        <ele>1081.1</ele>
        <time>2019-11-01T12:50:26Z</time>
      </trkpt>
      <trkpt lat="38.4461750" lon="-2.4675160">
        <ele>1081.1</ele>
        <time>2019-11-01T12:50:29Z</time>
      </trkpt>
      <trkpt lat="38.4461340" lon="-2.4674790">
        <ele>1083.8</ele>
        <time>2019-11-01T12:50:31Z</time>
      </trkpt>
      <trkpt lat="38.4460950" lon="-2.4674410">
        <ele>1083.8</ele>
        <time>2019-11-01T12:50:33Z</time>
      </trkpt>
      <trkpt lat="38.4460360" lon="-2.4673750">
        <ele>1083.8</ele>
        <time>2019-11-01T12:50:36Z</time>
      </trkpt>
      <trkpt lat="38.4459880" lon="-2.4673100">
        <ele>1083.8</ele>
        <time>2019-11-01T12:50:39Z</time>
      </trkpt>
      <trkpt lat="38.4459340" lon="-2.4672550">
        <ele>1083.8</ele>
        <time>2019-11-01T12:50:42Z</time>
      </trkpt>
      <trkpt lat="38.4458850" lon="-2.4672000">
        <ele>1083.8</ele>
        <time>2019-11-01T12:50:45Z</time>
      </trkpt>
      <trkpt lat="38.4458470" lon="-2.4671640">
        <ele>1086.7</ele>
        <time>2019-11-01T12:50:47Z</time>
      </trkpt>
      <trkpt lat="38.4457930" lon="-2.4671200">
        <ele>1086.7</ele>
        <time>2019-11-01T12:50:50Z</time>
      </trkpt>
      <trkpt lat="38.4457370" lon="-2.4670820">
        <ele>1086.7</ele>
        <time>2019-11-01T12:50:53Z</time>
      </trkpt>
      <trkpt lat="38.4456700" lon="-2.4670530">
        <ele>1086.7</ele>
        <time>2019-11-01T12:50:56Z</time>
      </trkpt>
      <trkpt lat="38.4456290" lon="-2.4670350">
        <ele>1086.7</ele>
        <time>2019-11-01T12:50:58Z</time>
      </trkpt>
      <trkpt lat="38.4455650" lon="-2.4670150">
        <ele>1086.7</ele>
        <time>2019-11-01T12:51:01Z</time>
      </trkpt>
      <trkpt lat="38.4455190" lon="-2.4670030">
        <ele>1089.3</ele>
        <time>2019-11-01T12:51:03Z</time>
      </trkpt>
      <trkpt lat="38.4454530" lon="-2.4669850">
        <ele>1089.3</ele>
        <time>2019-11-01T12:51:06Z</time>
      </trkpt>
      <trkpt lat="38.4453890" lon="-2.4669610">
        <ele>1089.3</ele>
        <time>2019-11-01T12:51:09Z</time>
      </trkpt>
      <trkpt lat="38.4453250" lon="-2.4669360">
        <ele>1089.3</ele>
        <time>2019-11-01T12:51:12Z</time>
      </trkpt>
      <trkpt lat="38.4452660" lon="-2.4669040">
        <ele>1089.3</ele>
        <time>2019-11-01T12:51:15Z</time>
      </trkpt>
      <trkpt lat="38.4452100" lon="-2.4668700">
        <ele>1092.0</ele>
        <time>2019-11-01T12:51:18Z</time>
      </trkpt>
      <trkpt lat="38.4451760" lon="-2.4668500">
        <ele>1092.0</ele>
        <time>2019-11-01T12:51:20Z</time>
      </trkpt>
      <trkpt lat="38.4451150" lon="-2.4668190">
        <ele>1092.0</ele>
        <time>2019-11-01T12:51:23Z</time>
      </trkpt>
      <trkpt lat="38.4450610" lon="-2.4667950">
        <ele>1092.0</ele>
        <time>2019-11-01T12:51:26Z</time>
      </trkpt>
      <trkpt lat="38.4450020" lon="-2.4667720">
        <ele>1092.0</ele>
        <time>2019-11-01T12:51:29Z</time>
      </trkpt>
      <trkpt lat="38.4449510" lon="-2.4667460">
        <ele>1092.0</ele>
        <time>2019-11-01T12:51:32Z</time>
      </trkpt>
      <trkpt lat="38.4448970" lon="-2.4667100">
        <ele>1094.7</ele>
        <time>2019-11-01T12:51:35Z</time>
      </trkpt>
      <trkpt lat="38.4448440" lon="-2.4666790">
        <ele>1094.7</ele>
        <time>2019-11-01T12:51:38Z</time>
      </trkpt>
      <trkpt lat="38.4447900" lon="-2.4666480">
        <ele>1094.7</ele>
        <time>2019-11-01T12:51:41Z</time>
      </trkpt>
      <trkpt lat="38.4447280" lon="-2.4666140">
        <ele>1094.7</ele>
        <time>2019-11-01T12:51:44Z</time>
      </trkpt>
      <trkpt lat="38.4446640" lon="-2.4665780">
        <ele>1094.7</ele>
        <time>2019-11-01T12:51:47Z</time>
      </trkpt>
      <trkpt lat="38.4446180" lon="-2.4665530">
        <ele>1094.7</ele>
        <time>2019-11-01T12:51:49Z</time>
      </trkpt>
      <trkpt lat="38.4445720" lon="-2.4665330">
        <ele>1097.3</ele>
        <time>2019-11-01T12:51:51Z</time>
      </trkpt>
      <trkpt lat="38.4445030" lon="-2.4665080">
        <ele>1097.3</ele>
        <time>2019-11-01T12:51:54Z</time>
      </trkpt>
      <trkpt lat="38.4444490" lon="-2.4664920">
        <ele>1097.3</ele>
        <time>2019-11-01T12:51:56Z</time>
      </trkpt>
      <trkpt lat="38.4443830" lon="-2.4664660">
        <ele>1097.3</ele>
        <time>2019-11-01T12:51:59Z</time>
      </trkpt>
      <trkpt lat="38.4443160" lon="-2.4664370">
        <ele>1097.3</ele>
        <time>2019-11-01T12:52:02Z</time>
      </trkpt>
      <trkpt lat="38.4442520" lon="-2.4664090">
        <ele>1097.3</ele>
        <time>2019-11-01T12:52:05Z</time>
      </trkpt>
      <trkpt lat="38.4442060" lon="-2.4663900">
        <ele>1099.7</ele>
        <time>2019-11-01T12:52:07Z</time>
      </trkpt>
      <trkpt lat="38.4441370" lon="-2.4663590">
        <ele>1099.7</ele>
        <time>2019-11-01T12:52:10Z</time>
      </trkpt>
      <trkpt lat="38.4440760" lon="-2.4663250">
        <ele>1099.7</ele>
        <time>2019-11-01T12:52:13Z</time>
      </trkpt>
      <trkpt lat="38.4440170" lon="-2.4662920">
        <ele>1099.7</ele>
        <time>2019-11-01T12:52:16Z</time>
      </trkpt>
      <trkpt lat="38.4439480" lon="-2.4662610">
        <ele>1099.7</ele>
        <time>2019-11-01T12:52:19Z</time>
      </trkpt>
      <trkpt lat="38.4439010" lon="-2.4662390">
        <ele>1099.7</ele>
        <time>2019-11-01T12:52:21Z</time>
      </trkpt>
      <trkpt lat="38.4438500" lon="-2.4662160">
        <ele>1102.1</ele>
        <time>2019-11-01T12:52:23Z</time>
      </trkpt>
      <trkpt lat="38.4438070" lon="-2.4661920">
        <ele>1102.1</ele>
        <time>2019-11-01T12:52:25Z</time>
      </trkpt>
      <trkpt lat="38.4437400" lon="-2.4661570">
        <ele>1102.1</ele>
        <time>2019-11-01T12:52:28Z</time>
      </trkpt>
      <trkpt lat="38.4436920" lon="-2.4661350">
        <ele>1102.1</ele>
        <time>2019-11-01T12:52:30Z</time>
      </trkpt>
      <trkpt lat="38.4436300" lon="-2.4661010">
        <ele>1102.1</ele>
        <time>2019-11-01T12:52:33Z</time>
      </trkpt>
      <trkpt lat="38.4435690" lon="-2.4660800">
        <ele>1102.1</ele>
        <time>2019-11-01T12:52:36Z</time>
      </trkpt>
      <trkpt lat="38.4435000" lon="-2.4660700">
        <ele>1104.7</ele>
        <time>2019-11-01T12:52:39Z</time>
      </trkpt>
      <trkpt lat="38.4434430" lon="-2.4660780">
        <ele>1104.7</ele>
        <time>2019-11-01T12:52:41Z</time>
      </trkpt>
      <trkpt lat="38.4433870" lon="-2.4661020">
        <ele>1104.7</ele>
        <time>2019-11-01T12:52:43Z</time>
      </trkpt>
      <trkpt lat="38.4433130" lon="-2.4661360">
        <ele>1104.7</ele>
        <time>2019-11-01T12:52:45Z</time>
      </trkpt>
      <trkpt lat="38.4432380" lon="-2.4661780">
        <ele>1104.7</ele>
        <time>2019-11-01T12:52:47Z</time>
      </trkpt>
      <trkpt lat="38.4431540" lon="-2.4662150">
        <ele>1104.7</ele>
        <time>2019-11-01T12:52:49Z</time>
      </trkpt>
      <trkpt lat="38.4430620" lon="-2.4662330">
        <ele>1104.7</ele>
        <time>2019-11-01T12:52:51Z</time>
      </trkpt>
      <trkpt lat="38.4429590" lon="-2.4662350">
        <ele>1104.7</ele>
        <time>2019-11-01T12:52:53Z</time>
      </trkpt>
      <trkpt lat="38.4429060" lon="-2.4662300">
        <ele>1107.1</ele>
        <time>2019-11-01T12:52:54Z</time>
      </trkpt>
      <trkpt lat="38.4428600" lon="-2.4662240">
        <ele>1107.1</ele>
        <time>2019-11-01T12:52:55Z</time>
      </trkpt>
      <trkpt lat="38.4427520" lon="-2.4662090">
        <ele>1107.1</ele>
        <time>2019-11-01T12:52:57Z</time>
      </trkpt>
      <trkpt lat="38.4426980" lon="-2.4662040">
        <ele>1107.1</ele>
        <time>2019-11-01T12:52:58Z</time>
      </trkpt>
      <trkpt lat="38.4426470" lon="-2.4661980">
        <ele>1107.1</ele>
        <time>2019-11-01T12:52:59Z</time>
      </trkpt>
      <trkpt lat="38.4425930" lon="-2.4661910">
        <ele>1107.1</ele>
        <time>2019-11-01T12:53:00Z</time>
      </trkpt>
      <trkpt lat="38.4425400" lon="-2.4661800">
        <ele>1107.1</ele>
        <time>2019-11-01T12:53:01Z</time>
      </trkpt>
      <trkpt lat="38.4424910" lon="-2.4661650">
        <ele>1107.1</ele>
        <time>2019-11-01T12:53:02Z</time>
      </trkpt>
      <trkpt lat="38.4424400" lon="-2.4661440">
        <ele>1107.1</ele>
        <time>2019-11-01T12:53:03Z</time>
      </trkpt>
      <trkpt lat="38.4423480" lon="-2.4660880">
        <ele>1107.1</ele>
        <time>2019-11-01T12:53:05Z</time>
      </trkpt>
      <trkpt lat="38.4422580" lon="-2.4660220">
        <ele>1107.1</ele>
        <time>2019-11-01T12:53:07Z</time>
      </trkpt>
      <trkpt lat="38.4422120" lon="-2.4659880">
        <ele>1107.1</ele>
        <time>2019-11-01T12:53:08Z</time>
      </trkpt>
      <trkpt lat="38.4421220" lon="-2.4659110">
        <ele>1109.2</ele>
        <time>2019-11-01T12:53:10Z</time>
      </trkpt>
      <trkpt lat="38.4420790" lon="-2.4658710">
        <ele>1109.2</ele>
        <time>2019-11-01T12:53:11Z</time>
      </trkpt>
      <trkpt lat="38.4420400" lon="-2.4658310">
        <ele>1109.2</ele>
        <time>2019-11-01T12:53:12Z</time>
      </trkpt>
      <trkpt lat="38.4419710" lon="-2.4657480">
        <ele>1109.2</ele>
        <time>2019-11-01T12:53:14Z</time>
      </trkpt>
      <trkpt lat="38.4419100" lon="-2.4656640">
        <ele>1109.2</ele>
        <time>2019-11-01T12:53:16Z</time>
      </trkpt>
      <trkpt lat="38.4418530" lon="-2.4655730">
        <ele>1109.2</ele>
        <time>2019-11-01T12:53:18Z</time>
      </trkpt>
      <trkpt lat="38.4418000" lon="-2.4654820">
        <ele>1109.2</ele>
        <time>2019-11-01T12:53:20Z</time>
      </trkpt>
      <trkpt lat="38.4417460" lon="-2.4654010">
        <ele>1109.2</ele>
        <time>2019-11-01T12:53:22Z</time>
      </trkpt>
      <trkpt lat="38.4416900" lon="-2.4653260">
        <ele>1109.2</ele>
        <time>2019-11-01T12:53:24Z</time>
      </trkpt>
      <trkpt lat="38.4416360" lon="-2.4652610">
        <ele>1109.2</ele>
        <time>2019-11-01T12:53:26Z</time>
      </trkpt>
      <trkpt lat="38.4415820" lon="-2.4652060">
        <ele>1109.2</ele>
        <time>2019-11-01T12:53:28Z</time>
      </trkpt>
      <trkpt lat="38.4415280" lon="-2.4651630">
        <ele>1111.2</ele>
        <time>2019-11-01T12:53:30Z</time>
      </trkpt>
      <trkpt lat="38.4414800" lon="-2.4651330">
        <ele>1111.2</ele>
        <time>2019-11-01T12:53:32Z</time>
      </trkpt>
      <trkpt lat="38.4414280" lon="-2.4651050">
        <ele>1111.2</ele>
        <time>2019-11-01T12:53:34Z</time>
      </trkpt>
      <trkpt lat="38.4413800" lon="-2.4650790">
        <ele>1111.2</ele>
        <time>2019-11-01T12:53:36Z</time>
      </trkpt>
      <trkpt lat="38.4413030" lon="-2.4650390">
        <ele>1111.2</ele>
        <time>2019-11-01T12:53:39Z</time>
      </trkpt>
      <trkpt lat="38.4412470" lon="-2.4650120">
        <ele>1111.2</ele>
        <time>2019-11-01T12:53:41Z</time>
      </trkpt>
      <trkpt lat="38.4411850" lon="-2.4649910">
        <ele>1111.2</ele>
        <time>2019-11-01T12:53:43Z</time>
      </trkpt>
      <trkpt lat="38.4411320" lon="-2.4649760">
        <ele>1111.2</ele>
        <time>2019-11-01T12:53:45Z</time>
      </trkpt>
      <trkpt lat="38.4410750" lon="-2.4649610">
        <ele>1111.2</ele>
        <time>2019-11-01T12:53:47Z</time>
      </trkpt>
      <trkpt lat="38.4410140" lon="-2.4649450">
        <ele>1113.2</ele>
        <time>2019-11-01T12:53:49Z</time>
      </trkpt>
      <trkpt lat="38.4409550" lon="-2.4649270">
        <ele>1113.2</ele>
        <time>2019-11-01T12:53:51Z</time>
      </trkpt>
      <trkpt lat="38.4408990" lon="-2.4649100">
        <ele>1113.2</ele>
        <time>2019-11-01T12:53:53Z</time>
      </trkpt>
      <trkpt lat="38.4408220" lon="-2.4648810">
        <ele>1113.2</ele>
        <time>2019-11-01T12:53:56Z</time>
      </trkpt>
      <trkpt lat="38.4407580" lon="-2.4648470">
        <ele>1113.2</ele>
        <time>2019-11-01T12:53:59Z</time>
      </trkpt>
      <trkpt lat="38.4406960" lon="-2.4648040">
        <ele>1113.2</ele>
        <time>2019-11-01T12:54:02Z</time>
      </trkpt>
      <trkpt lat="38.4406400" lon="-2.4647500">
        <ele>1113.2</ele>
        <time>2019-11-01T12:54:05Z</time>
      </trkpt>
      <trkpt lat="38.4405960" lon="-2.4647120">
        <ele>1113.2</ele>
        <time>2019-11-01T12:54:07Z</time>
      </trkpt>
      <trkpt lat="38.4405530" lon="-2.4646690">
        <ele>1115.2</ele>
        <time>2019-11-01T12:54:10Z</time>
      </trkpt>
      <trkpt lat="38.4404920" lon="-2.4646250">
        <ele>1115.2</ele>
        <time>2019-11-01T12:54:13Z</time>
      </trkpt>
      <trkpt lat="38.4404250" lon="-2.4645870">
        <ele>1115.2</ele>
        <time>2019-11-01T12:54:16Z</time>
      </trkpt>
      <trkpt lat="38.4403790" lon="-2.4645660">
        <ele>1115.2</ele>
        <time>2019-11-01T12:54:18Z</time>
      </trkpt>
      <trkpt lat="38.4403120" lon="-2.4645360">
        <ele>1115.2</ele>
        <time>2019-11-01T12:54:21Z</time>
      </trkpt>
      <trkpt lat="38.4402430" lon="-2.4645110">
        <ele>1115.2</ele>
        <time>2019-11-01T12:54:24Z</time>
      </trkpt>
      <trkpt lat="38.4401660" lon="-2.4644950">
        <ele>1115.2</ele>
        <time>2019-11-01T12:54:27Z</time>
      </trkpt>
      <trkpt lat="38.4401180" lon="-2.4644890">
        <ele>1117.3</ele>
        <time>2019-11-01T12:54:29Z</time>
      </trkpt>
      <trkpt lat="38.4400640" lon="-2.4644890">
        <ele>1117.3</ele>
        <time>2019-11-01T12:54:31Z</time>
      </trkpt>
      <trkpt lat="38.4400030" lon="-2.4644850">
        <ele>1117.3</ele>
        <time>2019-11-01T12:54:34Z</time>
      </trkpt>
      <trkpt lat="38.4399460" lon="-2.4644910">
        <ele>1117.3</ele>
        <time>2019-11-01T12:54:37Z</time>
      </trkpt>
      <trkpt lat="38.4398850" lon="-2.4645070">
        <ele>1117.3</ele>
        <time>2019-11-01T12:54:40Z</time>
      </trkpt>
      <trkpt lat="38.4398260" lon="-2.4645430">
        <ele>1117.3</ele>
        <time>2019-11-01T12:54:43Z</time>
      </trkpt>
      <trkpt lat="38.4397700" lon="-2.4645870">
        <ele>1119.3</ele>
        <time>2019-11-01T12:54:46Z</time>
      </trkpt>
      <trkpt lat="38.4397160" lon="-2.4646370">
        <ele>1119.3</ele>
        <time>2019-11-01T12:54:49Z</time>
      </trkpt>
      <trkpt lat="38.4396620" lon="-2.4646990">
        <ele>1119.3</ele>
        <time>2019-11-01T12:54:52Z</time>
      </trkpt>
      <trkpt lat="38.4396160" lon="-2.4647720">
        <ele>1119.3</ele>
        <time>2019-11-01T12:54:55Z</time>
      </trkpt>
      <trkpt lat="38.4395720" lon="-2.4648380">
        <ele>1119.3</ele>
        <time>2019-11-01T12:54:58Z</time>
      </trkpt>
      <trkpt lat="38.4395290" lon="-2.4649030">
        <ele>1119.3</ele>
        <time>2019-11-01T12:55:01Z</time>
      </trkpt>
      <trkpt lat="38.4394980" lon="-2.4649390">
        <ele>1122.3</ele>
        <time>2019-11-01T12:55:03Z</time>
      </trkpt>
      <trkpt lat="38.4394500" lon="-2.4649960">
        <ele>1122.3</ele>
        <time>2019-11-01T12:55:06Z</time>
      </trkpt>
      <trkpt lat="38.4394010" lon="-2.4650510">
        <ele>1122.3</ele>
        <time>2019-11-01T12:55:09Z</time>
      </trkpt>
      <trkpt lat="38.4393420" lon="-2.4651020">
        <ele>1122.3</ele>
        <time>2019-11-01T12:55:12Z</time>
      </trkpt>
      <trkpt lat="38.4392880" lon="-2.4651410">
        <ele>1122.3</ele>
        <time>2019-11-01T12:55:15Z</time>
      </trkpt>
      <trkpt lat="38.4392400" lon="-2.4651740">
        <ele>1122.3</ele>
        <time>2019-11-01T12:55:18Z</time>
      </trkpt>
      <trkpt lat="38.4391910" lon="-2.4651880">
        <ele>1124.3</ele>
        <time>2019-11-01T12:55:21Z</time>
      </trkpt>
      <trkpt lat="38.4391450" lon="-2.4651950">
        <ele>1124.3</ele>
        <time>2019-11-01T12:55:24Z</time>
      </trkpt>
      <trkpt lat="38.4390860" lon="-2.4652110">
        <ele>1124.3</ele>
        <time>2019-11-01T12:55:28Z</time>
      </trkpt>
      <trkpt lat="38.4390250" lon="-2.4652230">
        <ele>1124.3</ele>
        <time>2019-11-01T12:55:32Z</time>
      </trkpt>
      <trkpt lat="38.4389680" lon="-2.4652430">
        <ele>1126.3</ele>
        <time>2019-11-01T12:55:36Z</time>
      </trkpt>
      <trkpt lat="38.4389120" lon="-2.4652460">
        <ele>1126.3</ele>
        <time>2019-11-01T12:55:40Z</time>
      </trkpt>
      <trkpt lat="38.4388430" lon="-2.4652690">
        <ele>1126.3</ele>
        <time>2019-11-01T12:55:44Z</time>
      </trkpt>
      <trkpt lat="38.4387940" lon="-2.4652970">
        <ele>1126.3</ele>
        <time>2019-11-01T12:55:47Z</time>
      </trkpt>
      <trkpt lat="38.4387430" lon="-2.4653240">
        <ele>1128.4</ele>
        <time>2019-11-01T12:55:50Z</time>
      </trkpt>
      <trkpt lat="38.4387050" lon="-2.4653420">
        <ele>1128.4</ele>
        <time>2019-11-01T12:55:52Z</time>
      </trkpt>
      <trkpt lat="38.4386560" lon="-2.4653730">
        <ele>1128.4</ele>
        <time>2019-11-01T12:55:55Z</time>
      </trkpt>
      <trkpt lat="38.4386070" lon="-2.4653970">
        <ele>1128.4</ele>
        <time>2019-11-01T12:55:58Z</time>
      </trkpt>
      <trkpt lat="38.4385540" lon="-2.4654170">
        <ele>1128.4</ele>
        <time>2019-11-01T12:56:01Z</time>
      </trkpt>
      <trkpt lat="38.4385000" lon="-2.4654370">
        <ele>1128.4</ele>
        <time>2019-11-01T12:56:04Z</time>
      </trkpt>
      <trkpt lat="38.4384460" lon="-2.4654540">
        <ele>1130.7</ele>
        <time>2019-11-01T12:56:07Z</time>
      </trkpt>
      <trkpt lat="38.4383900" lon="-2.4654710">
        <ele>1130.7</ele>
        <time>2019-11-01T12:56:10Z</time>
      </trkpt>
      <trkpt lat="38.4383310" lon="-2.4654800">
        <ele>1130.7</ele>
        <time>2019-11-01T12:56:13Z</time>
      </trkpt>
      <trkpt lat="38.4382750" lon="-2.4655010">
        <ele>1130.7</ele>
        <time>2019-11-01T12:56:16Z</time>
      </trkpt>
      <trkpt lat="38.4382210" lon="-2.4655280">
        <ele>1130.7</ele>
        <time>2019-11-01T12:56:19Z</time>
      </trkpt>
      <trkpt lat="38.4381640" lon="-2.4655530">
        <ele>1132.8</ele>
        <time>2019-11-01T12:56:22Z</time>
      </trkpt>
      <trkpt lat="38.4380980" lon="-2.4655780">
        <ele>1132.8</ele>
        <time>2019-11-01T12:56:25Z</time>
      </trkpt>
      <trkpt lat="38.4380390" lon="-2.4656050">
        <ele>1132.8</ele>
        <time>2019-11-01T12:56:28Z</time>
      </trkpt>
      <trkpt lat="38.4379800" lon="-2.4656310">
        <ele>1132.8</ele>
        <time>2019-11-01T12:56:31Z</time>
      </trkpt>
      <trkpt lat="38.4379190" lon="-2.4656580">
        <ele>1132.8</ele>
        <time>2019-11-01T12:56:34Z</time>
      </trkpt>
      <trkpt lat="38.4378620" lon="-2.4656830">
        <ele>1132.8</ele>
        <time>2019-11-01T12:56:37Z</time>
      </trkpt>
      <trkpt lat="38.4378010" lon="-2.4657150">
        <ele>1134.8</ele>
        <time>2019-11-01T12:56:40Z</time>
      </trkpt>
      <trkpt lat="38.4377450" lon="-2.4657490">
        <ele>1134.8</ele>
        <time>2019-11-01T12:56:43Z</time>
      </trkpt>
      <trkpt lat="38.4376860" lon="-2.4657890">
        <ele>1134.8</ele>
        <time>2019-11-01T12:56:46Z</time>
      </trkpt>
      <trkpt lat="38.4376220" lon="-2.4658260">
        <ele>1134.8</ele>
        <time>2019-11-01T12:56:49Z</time>
      </trkpt>
      <trkpt lat="38.4375600" lon="-2.4658550">
        <ele>1134.8</ele>
        <time>2019-11-01T12:56:52Z</time>
      </trkpt>
      <trkpt lat="38.4375040" lon="-2.4658780">
        <ele>1134.8</ele>
        <time>2019-11-01T12:56:55Z</time>
      </trkpt>
      <trkpt lat="38.4374430" lon="-2.4659050">
        <ele>1136.9</ele>
        <time>2019-11-01T12:56:58Z</time>
      </trkpt>
      <trkpt lat="38.4373810" lon="-2.4659320">
        <ele>1136.9</ele>
        <time>2019-11-01T12:57:01Z</time>
      </trkpt>
      <trkpt lat="38.4373250" lon="-2.4659520">
        <ele>1136.9</ele>
        <time>2019-11-01T12:57:04Z</time>
      </trkpt>
      <trkpt lat="38.4372630" lon="-2.4659640">
        <ele>1136.9</ele>
        <time>2019-11-01T12:57:07Z</time>
      </trkpt>
      <trkpt lat="38.4372070" lon="-2.4659680">
        <ele>1138.9</ele>
        <time>2019-11-01T12:57:10Z</time>
      </trkpt>
      <trkpt lat="38.4371400" lon="-2.4659610">
        <ele>1138.9</ele>
        <time>2019-11-01T12:57:13Z</time>
      </trkpt>
      <trkpt lat="38.4370840" lon="-2.4659530">
        <ele>1138.9</ele>
        <time>2019-11-01T12:57:16Z</time>
      </trkpt>
      <trkpt lat="38.4370120" lon="-2.4659380">
        <ele>1138.9</ele>
        <time>2019-11-01T12:57:19Z</time>
      </trkpt>
      <trkpt lat="38.4369430" lon="-2.4659220">
        <ele>1138.9</ele>
        <time>2019-11-01T12:57:22Z</time>
      </trkpt>
      <trkpt lat="38.4368740" lon="-2.4659070">
        <ele>1138.9</ele>
        <time>2019-11-01T12:57:25Z</time>
      </trkpt>
      <trkpt lat="38.4368030" lon="-2.4658880">
        <ele>1140.9</ele>
        <time>2019-11-01T12:57:28Z</time>
      </trkpt>
      <trkpt lat="38.4367510" lon="-2.4658760">
        <ele>1140.9</ele>
        <time>2019-11-01T12:57:30Z</time>
      </trkpt>
      <trkpt lat="38.4366850" lon="-2.4658470">
        <ele>1140.9</ele>
        <time>2019-11-01T12:57:33Z</time>
      </trkpt>
      <trkpt lat="38.4366180" lon="-2.4658220">
        <ele>1140.9</ele>
        <time>2019-11-01T12:57:36Z</time>
      </trkpt>
      <trkpt lat="38.4365700" lon="-2.4657870">
        <ele>1140.9</ele>
        <time>2019-11-01T12:57:39Z</time>
      </trkpt>
      <trkpt lat="38.4365390" lon="-2.4657370">
        <ele>1143.0</ele>
        <time>2019-11-01T12:57:43Z</time>
      </trkpt>
      <trkpt lat="38.4365000" lon="-2.4656940">
        <ele>1145.0</ele>
        <time>2019-11-01T13:01:25Z</time>
      </trkpt>
      <trkpt lat="38.4364440" lon="-2.4656950">
        <ele>1147.0</ele>
        <time>2019-11-01T13:01:30Z</time>
      </trkpt>
      <trkpt lat="38.4363850" lon="-2.4656820">
        <ele>1147.0</ele>
        <time>2019-11-01T13:01:33Z</time>
      </trkpt>
      <trkpt lat="38.4363240" lon="-2.4656590">
        <ele>1147.0</ele>
        <time>2019-11-01T13:01:36Z</time>
      </trkpt>
      <trkpt lat="38.4362650" lon="-2.4656230">
        <ele>1147.0</ele>
        <time>2019-11-01T13:01:39Z</time>
      </trkpt>
      <trkpt lat="38.4362040" lon="-2.4655880">
        <ele>1147.0</ele>
        <time>2019-11-01T13:01:42Z</time>
      </trkpt>
      <trkpt lat="38.4361570" lon="-2.4655750">
        <ele>1149.1</ele>
        <time>2019-11-01T13:01:44Z</time>
      </trkpt>
      <trkpt lat="38.4360880" lon="-2.4655650">
        <ele>1149.1</ele>
        <time>2019-11-01T13:01:47Z</time>
      </trkpt>
      <trkpt lat="38.4360090" lon="-2.4655770">
        <ele>1149.1</ele>
        <time>2019-11-01T13:01:50Z</time>
      </trkpt>
      <trkpt lat="38.4359420" lon="-2.4655870">
        <ele>1149.1</ele>
        <time>2019-11-01T13:01:52Z</time>
      </trkpt>
      <trkpt lat="38.4358840" lon="-2.4656050">
        <ele>1149.1</ele>
        <time>2019-11-01T13:01:54Z</time>
      </trkpt>
      <trkpt lat="38.4358140" lon="-2.4656170">
        <ele>1149.1</ele>
        <time>2019-11-01T13:01:56Z</time>
      </trkpt>
      <trkpt lat="38.4357400" lon="-2.4656210">
        <ele>1149.1</ele>
        <time>2019-11-01T13:01:58Z</time>
      </trkpt>
      <trkpt lat="38.4356660" lon="-2.4656210">
        <ele>1149.1</ele>
        <time>2019-11-01T13:02:00Z</time>
      </trkpt>
      <trkpt lat="38.4355970" lon="-2.4656230">
        <ele>1149.1</ele>
        <time>2019-11-01T13:02:02Z</time>
      </trkpt>
      <trkpt lat="38.4355350" lon="-2.4656240">
        <ele>1149.1</ele>
        <time>2019-11-01T13:02:04Z</time>
      </trkpt>
      <trkpt lat="38.4354740" lon="-2.4656220">
        <ele>1149.1</ele>
        <time>2019-11-01T13:02:06Z</time>
      </trkpt>
      <trkpt lat="38.4354100" lon="-2.4656210">
        <ele>1149.1</ele>
        <time>2019-11-01T13:02:08Z</time>
      </trkpt>
      <trkpt lat="38.4353560" lon="-2.4656250">
        <ele>1149.1</ele>
        <time>2019-11-01T13:02:10Z</time>
      </trkpt>
      <trkpt lat="38.4353000" lon="-2.4656220">
        <ele>1150.3</ele>
        <time>2019-11-01T13:02:12Z</time>
      </trkpt>
      <trkpt lat="38.4352460" lon="-2.4656050">
        <ele>1150.3</ele>
        <time>2019-11-01T13:02:14Z</time>
      </trkpt>
      <trkpt lat="38.4351950" lon="-2.4655930">
        <ele>1150.3</ele>
        <time>2019-11-01T13:02:16Z</time>
      </trkpt>
      <trkpt lat="38.4351160" lon="-2.4655790">
        <ele>1151.5</ele>
        <time>2019-11-01T13:02:19Z</time>
      </trkpt>
      <trkpt lat="38.4350620" lon="-2.4655700">
        <ele>1151.5</ele>
        <time>2019-11-01T13:02:21Z</time>
      </trkpt>
      <trkpt lat="38.4350080" lon="-2.4655640">
        <ele>1151.5</ele>
        <time>2019-11-01T13:02:23Z</time>
      </trkpt>
      <trkpt lat="38.4349360" lon="-2.4655560">
        <ele>1152.7</ele>
        <time>2019-11-01T13:02:26Z</time>
      </trkpt>
      <trkpt lat="38.4348720" lon="-2.4655790">
        <ele>1152.7</ele>
        <time>2019-11-01T13:02:29Z</time>
      </trkpt>
      <trkpt lat="38.4348190" lon="-2.4656160">
        <ele>1152.7</ele>
        <time>2019-11-01T13:02:32Z</time>
      </trkpt>
      <trkpt lat="38.4347650" lon="-2.4656520">
        <ele>1152.7</ele>
        <time>2019-11-01T13:02:35Z</time>
      </trkpt>
      <trkpt lat="38.4347110" lon="-2.4656960">
        <ele>1154.1</ele>
        <time>2019-11-01T13:02:38Z</time>
      </trkpt>
      <trkpt lat="38.4346570" lon="-2.4657330">
        <ele>1155.2</ele>
        <time>2019-11-01T13:02:41Z</time>
      </trkpt>
      <trkpt lat="38.4346110" lon="-2.4657640">
        <ele>1155.2</ele>
        <time>2019-11-01T13:02:44Z</time>
      </trkpt>
      <trkpt lat="38.4345680" lon="-2.4657940">
        <ele>1155.2</ele>
        <time>2019-11-01T13:02:47Z</time>
      </trkpt>
      <trkpt lat="38.4345060" lon="-2.4658080">
        <ele>1155.2</ele>
        <time>2019-11-01T13:02:50Z</time>
      </trkpt>
      <trkpt lat="38.4344470" lon="-2.4658110">
        <ele>1155.2</ele>
        <time>2019-11-01T13:02:53Z</time>
      </trkpt>
      <trkpt lat="38.4343940" lon="-2.4658240">
        <ele>1155.2</ele>
        <time>2019-11-01T13:02:56Z</time>
      </trkpt>
      <trkpt lat="38.4343450" lon="-2.4658500">
        <ele>1155.2</ele>
        <time>2019-11-01T13:02:59Z</time>
      </trkpt>
      <trkpt lat="38.4342960" lon="-2.4658660">
        <ele>1155.2</ele>
        <time>2019-11-01T13:03:02Z</time>
      </trkpt>
      <trkpt lat="38.4342370" lon="-2.4658760">
        <ele>1155.2</ele>
        <time>2019-11-01T13:03:05Z</time>
      </trkpt>
      <trkpt lat="38.4341790" lon="-2.4658790">
        <ele>1155.2</ele>
        <time>2019-11-01T13:03:08Z</time>
      </trkpt>
      <trkpt lat="38.4341170" lon="-2.4658880">
        <ele>1155.2</ele>
        <time>2019-11-01T13:03:11Z</time>
      </trkpt>
      <trkpt lat="38.4340710" lon="-2.4658980">
        <ele>1157.1</ele>
        <time>2019-11-01T13:03:13Z</time>
      </trkpt>
      <trkpt lat="38.4340100" lon="-2.4659100">
        <ele>1158.6</ele>
        <time>2019-11-01T13:03:16Z</time>
      </trkpt>
      <trkpt lat="38.4339480" lon="-2.4659120">
        <ele>1160.1</ele>
        <time>2019-11-01T13:03:19Z</time>
      </trkpt>
      <trkpt lat="38.4338870" lon="-2.4659050">
        <ele>1160.1</ele>
        <time>2019-11-01T13:03:22Z</time>
      </trkpt>
      <trkpt lat="38.4338330" lon="-2.4658860">
        <ele>1161.3</ele>
        <time>2019-11-01T13:03:25Z</time>
      </trkpt>
      <trkpt lat="38.4337920" lon="-2.4658610">
        <ele>1161.3</ele>
        <time>2019-11-01T13:03:28Z</time>
      </trkpt>
      <trkpt lat="38.4337310" lon="-2.4658230">
        <ele>1161.3</ele>
        <time>2019-11-01T13:03:33Z</time>
      </trkpt>
      <trkpt lat="38.4336820" lon="-2.4657860">
        <ele>1162.5</ele>
        <time>2019-11-01T13:03:37Z</time>
      </trkpt>
      <trkpt lat="38.4336310" lon="-2.4657480">
        <ele>1162.5</ele>
        <time>2019-11-01T13:03:41Z</time>
      </trkpt>
      <trkpt lat="38.4335870" lon="-2.4657110">
        <ele>1162.5</ele>
        <time>2019-11-01T13:03:45Z</time>
      </trkpt>
      <trkpt lat="38.4335360" lon="-2.4656750">
        <ele>1163.7</ele>
        <time>2019-11-01T13:03:49Z</time>
      </trkpt>
      <trkpt lat="38.4334870" lon="-2.4656430">
        <ele>1163.7</ele>
        <time>2019-11-01T13:03:53Z</time>
      </trkpt>
      <trkpt lat="38.4334410" lon="-2.4656100">
        <ele>1164.9</ele>
        <time>2019-11-01T13:03:57Z</time>
      </trkpt>
      <trkpt lat="38.4333950" lon="-2.4655660">
        <ele>1164.9</ele>
        <time>2019-11-01T13:04:01Z</time>
      </trkpt>
      <trkpt lat="38.4333490" lon="-2.4655150">
        <ele>1164.9</ele>
        <time>2019-11-01T13:04:05Z</time>
      </trkpt>
      <trkpt lat="38.4333000" lon="-2.4654760">
        <ele>1166.1</ele>
        <time>2019-11-01T13:04:09Z</time>
      </trkpt>
      <trkpt lat="38.4332420" lon="-2.4654460">
        <ele>1166.1</ele>
        <time>2019-11-01T13:04:13Z</time>
      </trkpt>
      <trkpt lat="38.4331900" lon="-2.4654160">
        <ele>1166.1</ele>
        <time>2019-11-01T13:04:17Z</time>
      </trkpt>
      <trkpt lat="38.4331320" lon="-2.4653790">
        <ele>1167.2</ele>
        <time>2019-11-01T13:04:21Z</time>
      </trkpt>
      <trkpt lat="38.4330850" lon="-2.4653530">
        <ele>1167.2</ele>
        <time>2019-11-01T13:04:24Z</time>
      </trkpt>
      <trkpt lat="38.4330340" lon="-2.4653280">
        <ele>1167.2</ele>
        <time>2019-11-01T13:04:27Z</time>
      </trkpt>
      <trkpt lat="38.4329750" lon="-2.4652930">
        <ele>1168.4</ele>
        <time>2019-11-01T13:04:30Z</time>
      </trkpt>
      <trkpt lat="38.4329060" lon="-2.4652530">
        <ele>1168.4</ele>
        <time>2019-11-01T13:04:33Z</time>
      </trkpt>
      <trkpt lat="38.4328650" lon="-2.4652280">
        <ele>1168.4</ele>
        <time>2019-11-01T13:04:35Z</time>
      </trkpt>
      <trkpt lat="38.4327940" lon="-2.4652190">
        <ele>1169.7</ele>
        <time>2019-11-01T13:04:38Z</time>
      </trkpt>
      <trkpt lat="38.4327240" lon="-2.4652330">
        <ele>1169.7</ele>
        <time>2019-11-01T13:04:41Z</time>
      </trkpt>
      <trkpt lat="38.4326660" lon="-2.4652670">
        <ele>1169.7</ele>
        <time>2019-11-01T13:04:44Z</time>
      </trkpt>
      <trkpt lat="38.4326170" lon="-2.4652890">
        <ele>1169.7</ele>
        <time>2019-11-01T13:04:46Z</time>
      </trkpt>
      <trkpt lat="38.4325450" lon="-2.4653230">
        <ele>1169.7</ele>
        <time>2019-11-01T13:04:49Z</time>
      </trkpt>
      <trkpt lat="38.4325020" lon="-2.4653510">
        <ele>1169.7</ele>
        <time>2019-11-01T13:04:51Z</time>
      </trkpt>
      <trkpt lat="38.4324430" lon="-2.4654030">
        <ele>1169.7</ele>
        <time>2019-11-01T13:04:54Z</time>
      </trkpt>
      <trkpt lat="38.4323840" lon="-2.4654610">
        <ele>1169.7</ele>
        <time>2019-11-01T13:04:57Z</time>
      </trkpt>
      <trkpt lat="38.4323150" lon="-2.4655140">
        <ele>1169.7</ele>
        <time>2019-11-01T13:05:00Z</time>
      </trkpt>
      <trkpt lat="38.4322740" lon="-2.4655460">
        <ele>1169.7</ele>
        <time>2019-11-01T13:05:02Z</time>
      </trkpt>
      <trkpt lat="38.4322280" lon="-2.4655780">
        <ele>1169.7</ele>
        <time>2019-11-01T13:05:04Z</time>
      </trkpt>
      <trkpt lat="38.4321660" lon="-2.4656190">
        <ele>1169.7</ele>
        <time>2019-11-01T13:05:07Z</time>
      </trkpt>
      <trkpt lat="38.4321050" lon="-2.4656530">
        <ele>1169.7</ele>
        <time>2019-11-01T13:05:10Z</time>
      </trkpt>
      <trkpt lat="38.4320610" lon="-2.4656720">
        <ele>1169.7</ele>
        <time>2019-11-01T13:05:12Z</time>
      </trkpt>
      <trkpt lat="38.4320000" lon="-2.4657010">
        <ele>1169.7</ele>
        <time>2019-11-01T13:05:15Z</time>
      </trkpt>
      <trkpt lat="38.4319330" lon="-2.4657190">
        <ele>1169.7</ele>
        <time>2019-11-01T13:05:18Z</time>
      </trkpt>
      <trkpt lat="38.4318750" lon="-2.4657330">
        <ele>1169.7</ele>
        <time>2019-11-01T13:05:21Z</time>
      </trkpt>
      <trkpt lat="38.4318080" lon="-2.4657440">
        <ele>1169.7</ele>
        <time>2019-11-01T13:05:24Z</time>
      </trkpt>
      <trkpt lat="38.4317390" lon="-2.4657560">
        <ele>1169.7</ele>
        <time>2019-11-01T13:05:27Z</time>
      </trkpt>
      <trkpt lat="38.4316880" lon="-2.4657720">
        <ele>1169.7</ele>
        <time>2019-11-01T13:05:30Z</time>
      </trkpt>
      <trkpt lat="38.4316190" lon="-2.4657960">
        <ele>1169.7</ele>
        <time>2019-11-01T13:05:34Z</time>
      </trkpt>
      <trkpt lat="38.4315600" lon="-2.4658140">
        <ele>1169.7</ele>
        <time>2019-11-01T13:05:37Z</time>
      </trkpt>
      <trkpt lat="38.4314980" lon="-2.4658250">
        <ele>1169.7</ele>
        <time>2019-11-01T13:05:40Z</time>
      </trkpt>
      <trkpt lat="38.4314320" lon="-2.4658260">
        <ele>1169.7</ele>
        <time>2019-11-01T13:05:43Z</time>
      </trkpt>
      <trkpt lat="38.4313730" lon="-2.4658220">
        <ele>1177.3</ele>
        <time>2019-11-01T13:05:46Z</time>
      </trkpt>
      <trkpt lat="38.4313550" lon="-2.4658190">
        <ele>1177.3</ele>
        <time>2019-11-01T13:05:47Z</time>
      </trkpt>
      <trkpt lat="38.4312910" lon="-2.4658010">
        <ele>1177.3</ele>
        <time>2019-11-01T13:05:50Z</time>
      </trkpt>
      <trkpt lat="38.4312320" lon="-2.4657750">
        <ele>1177.3</ele>
        <time>2019-11-01T13:05:53Z</time>
      </trkpt>
      <trkpt lat="38.4311830" lon="-2.4657580">
        <ele>1177.3</ele>
        <time>2019-11-01T13:05:56Z</time>
      </trkpt>
      <trkpt lat="38.4311140" lon="-2.4657380">
        <ele>1177.3</ele>
        <time>2019-11-01T13:06:00Z</time>
      </trkpt>
      <trkpt lat="38.4310600" lon="-2.4657130">
        <ele>1179.4</ele>
        <time>2019-11-01T13:06:03Z</time>
      </trkpt>
      <trkpt lat="38.4309910" lon="-2.4656900">
        <ele>1179.4</ele>
        <time>2019-11-01T13:06:06Z</time>
      </trkpt>
      <trkpt lat="38.4309090" lon="-2.4656480">
        <ele>1179.4</ele>
        <time>2019-11-01T13:06:09Z</time>
      </trkpt>
      <trkpt lat="38.4308430" lon="-2.4656180">
        <ele>1179.4</ele>
        <time>2019-11-01T13:06:11Z</time>
      </trkpt>
      <trkpt lat="38.4307870" lon="-2.4656000">
        <ele>1179.4</ele>
        <time>2019-11-01T13:06:13Z</time>
      </trkpt>
      <trkpt lat="38.4307400" lon="-2.4655940">
        <ele>1179.4</ele>
        <time>2019-11-01T13:06:15Z</time>
      </trkpt>
      <trkpt lat="38.4306760" lon="-2.4656030">
        <ele>1181.8</ele>
        <time>2019-11-01T13:06:18Z</time>
      </trkpt>
      <trkpt lat="38.4306330" lon="-2.4656140">
        <ele>1181.8</ele>
        <time>2019-11-01T13:06:20Z</time>
      </trkpt>
      <trkpt lat="38.4305610" lon="-2.4656350">
        <ele>1181.8</ele>
        <time>2019-11-01T13:06:23Z</time>
      </trkpt>
      <trkpt lat="38.4305130" lon="-2.4656490">
        <ele>1181.8</ele>
        <time>2019-11-01T13:06:25Z</time>
      </trkpt>
      <trkpt lat="38.4304510" lon="-2.4656530">
        <ele>1181.8</ele>
        <time>2019-11-01T13:06:27Z</time>
      </trkpt>
      <trkpt lat="38.4303900" lon="-2.4656510">
        <ele>1181.8</ele>
        <time>2019-11-01T13:06:29Z</time>
      </trkpt>
      <trkpt lat="38.4303360" lon="-2.4656490">
        <ele>1181.8</ele>
        <time>2019-11-01T13:06:31Z</time>
      </trkpt>
      <trkpt lat="38.4302900" lon="-2.4656470">
        <ele>1181.8</ele>
        <time>2019-11-01T13:06:33Z</time>
      </trkpt>
      <trkpt lat="38.4302410" lon="-2.4656540">
        <ele>1184.4</ele>
        <time>2019-11-01T13:06:35Z</time>
      </trkpt>
      <trkpt lat="38.4301640" lon="-2.4656630">
        <ele>1184.4</ele>
        <time>2019-11-01T13:06:38Z</time>
      </trkpt>
      <trkpt lat="38.4301110" lon="-2.4656620">
        <ele>1184.4</ele>
        <time>2019-11-01T13:06:40Z</time>
      </trkpt>
      <trkpt lat="38.4300620" lon="-2.4656650">
        <ele>1184.4</ele>
        <time>2019-11-01T13:06:42Z</time>
      </trkpt>
      <trkpt lat="38.4299850" lon="-2.4656690">
        <ele>1184.4</ele>
        <time>2019-11-01T13:06:45Z</time>
      </trkpt>
      <trkpt lat="38.4299370" lon="-2.4656760">
        <ele>1184.4</ele>
        <time>2019-11-01T13:06:47Z</time>
      </trkpt>
      <trkpt lat="38.4298680" lon="-2.4656970">
        <ele>1187.1</ele>
        <time>2019-11-01T13:06:50Z</time>
      </trkpt>
      <trkpt lat="38.4298290" lon="-2.4657050">
        <ele>1187.1</ele>
        <time>2019-11-01T13:06:52Z</time>
      </trkpt>
      <trkpt lat="38.4297630" lon="-2.4657210">
        <ele>1187.1</ele>
        <time>2019-11-01T13:06:55Z</time>
      </trkpt>
      <trkpt lat="38.4296910" lon="-2.4657340">
        <ele>1187.1</ele>
        <time>2019-11-01T13:06:58Z</time>
      </trkpt>
      <trkpt lat="38.4296370" lon="-2.4657440">
        <ele>1187.1</ele>
        <time>2019-11-01T13:07:00Z</time>
      </trkpt>
      <trkpt lat="38.4295810" lon="-2.4657490">
        <ele>1187.1</ele>
        <time>2019-11-01T13:07:02Z</time>
      </trkpt>
      <trkpt lat="38.4295270" lon="-2.4657530">
        <ele>1187.1</ele>
        <time>2019-11-01T13:07:04Z</time>
      </trkpt>
      <trkpt lat="38.4294730" lon="-2.4657530">
        <ele>1189.8</ele>
        <time>2019-11-01T13:07:06Z</time>
      </trkpt>
      <trkpt lat="38.4294090" lon="-2.4657500">
        <ele>1189.8</ele>
        <time>2019-11-01T13:07:08Z</time>
      </trkpt>
      <trkpt lat="38.4293400" lon="-2.4657490">
        <ele>1189.8</ele>
        <time>2019-11-01T13:07:10Z</time>
      </trkpt>
      <trkpt lat="38.4292710" lon="-2.4657520">
        <ele>1189.8</ele>
        <time>2019-11-01T13:07:12Z</time>
      </trkpt>
      <trkpt lat="38.4291990" lon="-2.4657600">
        <ele>1189.8</ele>
        <time>2019-11-01T13:07:14Z</time>
      </trkpt>
      <trkpt lat="38.4291350" lon="-2.4657740">
        <ele>1189.8</ele>
        <time>2019-11-01T13:07:16Z</time>
      </trkpt>
      <trkpt lat="38.4290610" lon="-2.4657880">
        <ele>1189.8</ele>
        <time>2019-11-01T13:07:18Z</time>
      </trkpt>
      <trkpt lat="38.4289890" lon="-2.4657990">
        <ele>1189.8</ele>
        <time>2019-11-01T13:07:20Z</time>
      </trkpt>
      <trkpt lat="38.4289200" lon="-2.4658160">
        <ele>1192.6</ele>
        <time>2019-11-01T13:07:22Z</time>
      </trkpt>
      <trkpt lat="38.4288560" lon="-2.4658350">
        <ele>1192.6</ele>
        <time>2019-11-01T13:07:24Z</time>
      </trkpt>
      <trkpt lat="38.4287870" lon="-2.4658520">
        <ele>1192.6</ele>
        <time>2019-11-01T13:07:26Z</time>
      </trkpt>
      <trkpt lat="38.4287230" lon="-2.4658740">
        <ele>1192.6</ele>
        <time>2019-11-01T13:07:28Z</time>
      </trkpt>
      <trkpt lat="38.4286620" lon="-2.4658880">
        <ele>1192.6</ele>
        <time>2019-11-01T13:07:30Z</time>
      </trkpt>
      <trkpt lat="38.4286000" lon="-2.4658940">
        <ele>1192.6</ele>
        <time>2019-11-01T13:07:32Z</time>
      </trkpt>
      <trkpt lat="38.4285440" lon="-2.4658930">
        <ele>1192.6</ele>
        <time>2019-11-01T13:07:34Z</time>
      </trkpt>
      <trkpt lat="38.4284830" lon="-2.4658830">
        <ele>1192.6</ele>
        <time>2019-11-01T13:07:36Z</time>
      </trkpt>
      <trkpt lat="38.4284210" lon="-2.4658700">
        <ele>1195.6</ele>
        <time>2019-11-01T13:07:38Z</time>
      </trkpt>
      <trkpt lat="38.4283570" lon="-2.4658520">
        <ele>1195.6</ele>
        <time>2019-11-01T13:07:40Z</time>
      </trkpt>
      <trkpt lat="38.4282880" lon="-2.4658300">
        <ele>1195.6</ele>
        <time>2019-11-01T13:07:42Z</time>
      </trkpt>
      <trkpt lat="38.4282210" lon="-2.4658130">
        <ele>1195.6</ele>
        <time>2019-11-01T13:07:44Z</time>
      </trkpt>
      <trkpt lat="38.4281630" lon="-2.4658090">
        <ele>1195.6</ele>
        <time>2019-11-01T13:07:46Z</time>
      </trkpt>
      <trkpt lat="38.4281110" lon="-2.4658250">
        <ele>1195.6</ele>
        <time>2019-11-01T13:07:48Z</time>
      </trkpt>
      <trkpt lat="38.4280580" lon="-2.4658540">
        <ele>1195.6</ele>
        <time>2019-11-01T13:07:50Z</time>
      </trkpt>
      <trkpt lat="38.4280060" lon="-2.4658850">
        <ele>1195.6</ele>
        <time>2019-11-01T13:07:52Z</time>
      </trkpt>
      <trkpt lat="38.4279600" lon="-2.4659180">
        <ele>1198.2</ele>
        <time>2019-11-01T13:07:54Z</time>
      </trkpt>
      <trkpt lat="38.4279170" lon="-2.4659560">
        <ele>1198.2</ele>
        <time>2019-11-01T13:07:56Z</time>
      </trkpt>
      <trkpt lat="38.4278760" lon="-2.4659950">
        <ele>1198.2</ele>
        <time>2019-11-01T13:07:58Z</time>
      </trkpt>
      <trkpt lat="38.4278220" lon="-2.4660460">
        <ele>1198.2</ele>
        <time>2019-11-01T13:08:01Z</time>
      </trkpt>
      <trkpt lat="38.4277580" lon="-2.4660840">
        <ele>1198.2</ele>
        <time>2019-11-01T13:08:04Z</time>
      </trkpt>
      <trkpt lat="38.4276810" lon="-2.4661040">
        <ele>1198.2</ele>
        <time>2019-11-01T13:08:07Z</time>
      </trkpt>
      <trkpt lat="38.4276280" lon="-2.4661190">
        <ele>1198.2</ele>
        <time>2019-11-01T13:08:09Z</time>
      </trkpt>
      <trkpt lat="38.4275740" lon="-2.4661420">
        <ele>1198.2</ele>
        <time>2019-11-01T13:08:11Z</time>
      </trkpt>
      <trkpt lat="38.4275250" lon="-2.4661650">
        <ele>1198.2</ele>
        <time>2019-11-01T13:08:13Z</time>
      </trkpt>
      <trkpt lat="38.4274740" lon="-2.4661900">
        <ele>1200.2</ele>
        <time>2019-11-01T13:08:15Z</time>
      </trkpt>
      <trkpt lat="38.4274100" lon="-2.4662210">
        <ele>1200.2</ele>
        <time>2019-11-01T13:08:18Z</time>
      </trkpt>
      <trkpt lat="38.4273560" lon="-2.4662380">
        <ele>1200.2</ele>
        <time>2019-11-01T13:08:21Z</time>
      </trkpt>
      <trkpt lat="38.4273000" lon="-2.4662540">
        <ele>1200.2</ele>
        <time>2019-11-01T13:08:25Z</time>
      </trkpt>
      <trkpt lat="38.4272380" lon="-2.4662610">
        <ele>1202.2</ele>
        <time>2019-11-01T13:08:29Z</time>
      </trkpt>
      <trkpt lat="38.4271820" lon="-2.4662670">
        <ele>1202.2</ele>
        <time>2019-11-01T13:08:33Z</time>
      </trkpt>
      <trkpt lat="38.4271210" lon="-2.4662610">
        <ele>1202.2</ele>
        <time>2019-11-01T13:08:36Z</time>
      </trkpt>
      <trkpt lat="38.4270690" lon="-2.4662770">
        <ele>1202.2</ele>
        <time>2019-11-01T13:08:39Z</time>
      </trkpt>
      <trkpt lat="38.4270030" lon="-2.4663060">
        <ele>1204.6</ele>
        <time>2019-11-01T13:08:43Z</time>
      </trkpt>
      <trkpt lat="38.4269410" lon="-2.4663120">
        <ele>1204.6</ele>
        <time>2019-11-01T13:08:46Z</time>
      </trkpt>
      <trkpt lat="38.4268800" lon="-2.4663130">
        <ele>1204.6</ele>
        <time>2019-11-01T13:08:49Z</time>
      </trkpt>
      <trkpt lat="38.4268260" lon="-2.4663220">
        <ele>1204.6</ele>
        <time>2019-11-01T13:08:52Z</time>
      </trkpt>
      <trkpt lat="38.4267780" lon="-2.4663380">
        <ele>1204.6</ele>
        <time>2019-11-01T13:08:55Z</time>
      </trkpt>
      <trkpt lat="38.4267110" lon="-2.4663630">
        <ele>1207.1</ele>
        <time>2019-11-01T13:08:59Z</time>
      </trkpt>
      <trkpt lat="38.4266520" lon="-2.4663880">
        <ele>1207.1</ele>
        <time>2019-11-01T13:09:03Z</time>
      </trkpt>
      <trkpt lat="38.4265910" lon="-2.4664070">
        <ele>1207.1</ele>
        <time>2019-11-01T13:09:06Z</time>
      </trkpt>
      <trkpt lat="38.4265320" lon="-2.4664360">
        <ele>1207.1</ele>
        <time>2019-11-01T13:09:09Z</time>
      </trkpt>
      <trkpt lat="38.4264830" lon="-2.4664750">
        <ele>1207.1</ele>
        <time>2019-11-01T13:09:12Z</time>
      </trkpt>
      <trkpt lat="38.4264290" lon="-2.4665110">
        <ele>1209.3</ele>
        <time>2019-11-01T13:09:15Z</time>
      </trkpt>
      <trkpt lat="38.4263730" lon="-2.4665340">
        <ele>1209.3</ele>
        <time>2019-11-01T13:09:18Z</time>
      </trkpt>
      <trkpt lat="38.4263190" lon="-2.4665530">
        <ele>1209.3</ele>
        <time>2019-11-01T13:09:21Z</time>
      </trkpt>
      <trkpt lat="38.4262710" lon="-2.4665700">
        <ele>1209.3</ele>
        <time>2019-11-01T13:09:24Z</time>
      </trkpt>
      <trkpt lat="38.4262250" lon="-2.4665870">
        <ele>1209.3</ele>
        <time>2019-11-01T13:09:27Z</time>
      </trkpt>
      <trkpt lat="38.4261500" lon="-2.4665990">
        <ele>1211.6</ele>
        <time>2019-11-01T13:09:31Z</time>
      </trkpt>
      <trkpt lat="38.4261120" lon="-2.4665950">
        <ele>1211.6</ele>
        <time>2019-11-01T13:09:33Z</time>
      </trkpt>
      <trkpt lat="38.4260610" lon="-2.4665980">
        <ele>1211.6</ele>
        <time>2019-11-01T13:09:36Z</time>
      </trkpt>
      <trkpt lat="38.4260100" lon="-2.4666050">
        <ele>1211.6</ele>
        <time>2019-11-01T13:09:39Z</time>
      </trkpt>
      <trkpt lat="38.4259460" lon="-2.4666120">
        <ele>1211.6</ele>
        <time>2019-11-01T13:09:43Z</time>
      </trkpt>
      <trkpt lat="38.4258760" lon="-2.4666240">
        <ele>1214.3</ele>
        <time>2019-11-01T13:09:47Z</time>
      </trkpt>
      <trkpt lat="38.4258430" lon="-2.4666350">
        <ele>1214.3</ele>
        <time>2019-11-01T13:09:49Z</time>
      </trkpt>
      <trkpt lat="38.4257890" lon="-2.4666520">
        <ele>1214.3</ele>
        <time>2019-11-01T13:09:52Z</time>
      </trkpt>
      <trkpt lat="38.4257280" lon="-2.4666660">
        <ele>1214.3</ele>
        <time>2019-11-01T13:09:55Z</time>
      </trkpt>
      <trkpt lat="38.4256720" lon="-2.4666720">
        <ele>1214.3</ele>
        <time>2019-11-01T13:09:58Z</time>
      </trkpt>
      <trkpt lat="38.4256130" lon="-2.4666770">
        <ele>1214.3</ele>
        <time>2019-11-01T13:10:01Z</time>
      </trkpt>
      <trkpt lat="38.4255560" lon="-2.4666680">
        <ele>1216.9</ele>
        <time>2019-11-01T13:10:04Z</time>
      </trkpt>
      <trkpt lat="38.4255000" lon="-2.4666580">
        <ele>1216.9</ele>
        <time>2019-11-01T13:10:07Z</time>
      </trkpt>
      <trkpt lat="38.4254460" lon="-2.4666470">
        <ele>1216.9</ele>
        <time>2019-11-01T13:10:10Z</time>
      </trkpt>
      <trkpt lat="38.4253930" lon="-2.4666320">
        <ele>1216.9</ele>
        <time>2019-11-01T13:10:13Z</time>
      </trkpt>
      <trkpt lat="38.4253390" lon="-2.4666340">
        <ele>1216.9</ele>
        <time>2019-11-01T13:10:16Z</time>
      </trkpt>
      <trkpt lat="38.4252850" lon="-2.4666400">
        <ele>1219.3</ele>
        <time>2019-11-01T13:10:19Z</time>
      </trkpt>
      <trkpt lat="38.4252310" lon="-2.4666520">
        <ele>1219.3</ele>
        <time>2019-11-01T13:10:22Z</time>
      </trkpt>
      <trkpt lat="38.4251830" lon="-2.4666620">
        <ele>1219.3</ele>
        <time>2019-11-01T13:10:25Z</time>
      </trkpt>
      <trkpt lat="38.4251290" lon="-2.4666670">
        <ele>1219.3</ele>
        <time>2019-11-01T13:10:28Z</time>
      </trkpt>
      <trkpt lat="38.4250570" lon="-2.4666640">
        <ele>1219.3</ele>
        <time>2019-11-01T13:10:32Z</time>
      </trkpt>
      <trkpt lat="38.4249980" lon="-2.4666560">
        <ele>1219.3</ele>
        <time>2019-11-01T13:10:35Z</time>
      </trkpt>
      <trkpt lat="38.4249420" lon="-2.4666570">
        <ele>1219.3</ele>
        <time>2019-11-01T13:10:38Z</time>
      </trkpt>
      <trkpt lat="38.4248860" lon="-2.4666610">
        <ele>1219.3</ele>
        <time>2019-11-01T13:10:41Z</time>
      </trkpt>
      <trkpt lat="38.4248190" lon="-2.4666680">
        <ele>1219.3</ele>
        <time>2019-11-01T13:10:44Z</time>
      </trkpt>
      <trkpt lat="38.4247580" lon="-2.4666760">
        <ele>1219.3</ele>
        <time>2019-11-01T13:10:47Z</time>
      </trkpt>
      <trkpt lat="38.4247010" lon="-2.4666830">
        <ele>1219.3</ele>
        <time>2019-11-01T13:10:50Z</time>
      </trkpt>
      <trkpt lat="38.4246630" lon="-2.4666880">
        <ele>1222.2</ele>
        <time>2019-11-01T13:10:52Z</time>
      </trkpt>
      <trkpt lat="38.4246070" lon="-2.4666830">
        <ele>1222.2</ele>
        <time>2019-11-01T13:10:55Z</time>
      </trkpt>
      <trkpt lat="38.4245480" lon="-2.4666700">
        <ele>1222.2</ele>
        <time>2019-11-01T13:10:58Z</time>
      </trkpt>
      <trkpt lat="38.4244970" lon="-2.4666640">
        <ele>1222.2</ele>
        <time>2019-11-01T13:11:01Z</time>
      </trkpt>
      <trkpt lat="38.4244300" lon="-2.4666550">
        <ele>1222.2</ele>
        <time>2019-11-01T13:11:05Z</time>
      </trkpt>
      <trkpt lat="38.4243760" lon="-2.4666560">
        <ele>1222.2</ele>
        <time>2019-11-01T13:11:08Z</time>
      </trkpt>
      <trkpt lat="38.4243200" lon="-2.4666640">
        <ele>1222.2</ele>
        <time>2019-11-01T13:11:11Z</time>
      </trkpt>
      <trkpt lat="38.4242660" lon="-2.4666700">
        <ele>1222.2</ele>
        <time>2019-11-01T13:11:14Z</time>
      </trkpt>
      <trkpt lat="38.4242120" lon="-2.4666820">
        <ele>1222.2</ele>
        <time>2019-11-01T13:11:17Z</time>
      </trkpt>
      <trkpt lat="38.4241610" lon="-2.4666990">
        <ele>1222.2</ele>
        <time>2019-11-01T13:11:20Z</time>
      </trkpt>
      <trkpt lat="38.4241000" lon="-2.4667050">
        <ele>1224.3</ele>
        <time>2019-11-01T13:11:23Z</time>
      </trkpt>
      <trkpt lat="38.4240410" lon="-2.4667060">
        <ele>1224.3</ele>
        <time>2019-11-01T13:11:26Z</time>
      </trkpt>
      <trkpt lat="38.4239850" lon="-2.4666990">
        <ele>1224.3</ele>
        <time>2019-11-01T13:11:29Z</time>
      </trkpt>
      <trkpt lat="38.4239310" lon="-2.4666840">
        <ele>1224.3</ele>
        <time>2019-11-01T13:11:32Z</time>
      </trkpt>
      <trkpt lat="38.4238820" lon="-2.4666540">
        <ele>1224.3</ele>
        <time>2019-11-01T13:11:35Z</time>
      </trkpt>
      <trkpt lat="38.4238460" lon="-2.4665990">
        <ele>1224.3</ele>
        <time>2019-11-01T13:11:38Z</time>
      </trkpt>
      <trkpt lat="38.4238310" lon="-2.4665390">
        <ele>1224.3</ele>
        <time>2019-11-01T13:11:41Z</time>
      </trkpt>
      <trkpt lat="38.4238540" lon="-2.4664730">
        <ele>1224.3</ele>
        <time>2019-11-01T13:11:45Z</time>
      </trkpt>
      <trkpt lat="38.4239000" lon="-2.4664320">
        <ele>1224.3</ele>
        <time>2019-11-01T13:11:49Z</time>
      </trkpt>
      <trkpt lat="38.4239670" lon="-2.4664050">
        <ele>1224.3</ele>
        <time>2019-11-01T13:11:53Z</time>
      </trkpt>
      <trkpt lat="38.4240150" lon="-2.4663810">
        <ele>1226.4</ele>
        <time>2019-11-01T13:11:56Z</time>
      </trkpt>
      <trkpt lat="38.4240640" lon="-2.4663470">
        <ele>1226.4</ele>
        <time>2019-11-01T13:11:59Z</time>
      </trkpt>
      <trkpt lat="38.4241080" lon="-2.4663080">
        <ele>1226.4</ele>
        <time>2019-11-01T13:12:02Z</time>
      </trkpt>
      <trkpt lat="38.4241480" lon="-2.4662600">
        <ele>1226.4</ele>
        <time>2019-11-01T13:12:05Z</time>
      </trkpt>
      <trkpt lat="38.4241870" lon="-2.4662110">
        <ele>1226.4</ele>
        <time>2019-11-01T13:12:08Z</time>
      </trkpt>
      <trkpt lat="38.4242180" lon="-2.4661660">
        <ele>1226.4</ele>
        <time>2019-11-01T13:12:11Z</time>
      </trkpt>
      <trkpt lat="38.4242590" lon="-2.4660950">
        <ele>1226.4</ele>
        <time>2019-11-01T13:12:15Z</time>
      </trkpt>
      <trkpt lat="38.4242870" lon="-2.4660310">
        <ele>1226.4</ele>
        <time>2019-11-01T13:12:18Z</time>
      </trkpt>
      <trkpt lat="38.4243170" lon="-2.4659640">
        <ele>1226.4</ele>
        <time>2019-11-01T13:12:21Z</time>
      </trkpt>
      <trkpt lat="38.4243530" lon="-2.4658960">
        <ele>1226.4</ele>
        <time>2019-11-01T13:12:24Z</time>
      </trkpt>
      <trkpt lat="38.4243890" lon="-2.4658330">
        <ele>1228.8</ele>
        <time>2019-11-01T13:12:27Z</time>
      </trkpt>
      <trkpt lat="38.4244150" lon="-2.4657970">
        <ele>1228.8</ele>
        <time>2019-11-01T13:12:29Z</time>
      </trkpt>
      <trkpt lat="38.4244580" lon="-2.4657510">
        <ele>1228.8</ele>
        <time>2019-11-01T13:12:32Z</time>
      </trkpt>
      <trkpt lat="38.4245150" lon="-2.4657050">
        <ele>1228.8</ele>
        <time>2019-11-01T13:12:36Z</time>
      </trkpt>
      <trkpt lat="38.4245610" lon="-2.4656840">
        <ele>1228.8</ele>
        <time>2019-11-01T13:12:39Z</time>
      </trkpt>
      <trkpt lat="38.4246300" lon="-2.4656570">
        <ele>1228.8</ele>
        <time>2019-11-01T13:12:43Z</time>
      </trkpt>
      <trkpt lat="38.4246910" lon="-2.4656320">
        <ele>1228.8</ele>
        <time>2019-11-01T13:12:47Z</time>
      </trkpt>
      <trkpt lat="38.4247420" lon="-2.4656120">
        <ele>1228.8</ele>
        <time>2019-11-01T13:12:50Z</time>
      </trkpt>
      <trkpt lat="38.4248010" lon="-2.4655820">
        <ele>1228.8</ele>
        <time>2019-11-01T13:12:53Z</time>
      </trkpt>
      <trkpt lat="38.4248500" lon="-2.4655410">
        <ele>1228.8</ele>
        <time>2019-11-01T13:12:56Z</time>
      </trkpt>
      <trkpt lat="38.4248860" lon="-2.4655100">
        <ele>1230.9</ele>
        <time>2019-11-01T13:12:58Z</time>
      </trkpt>
      <trkpt lat="38.4249340" lon="-2.4654650">
        <ele>1230.9</ele>
        <time>2019-11-01T13:13:01Z</time>
      </trkpt>
      <trkpt lat="38.4249880" lon="-2.4654080">
        <ele>1230.9</ele>
        <time>2019-11-01T13:13:04Z</time>
      </trkpt>
      <trkpt lat="38.4250420" lon="-2.4653470">
        <ele>1230.9</ele>
        <time>2019-11-01T13:13:07Z</time>
      </trkpt>
      <trkpt lat="38.4250910" lon="-2.4652840">
        <ele>1230.9</ele>
        <time>2019-11-01T13:13:10Z</time>
      </trkpt>
      <trkpt lat="38.4251440" lon="-2.4652200">
        <ele>1230.9</ele>
        <time>2019-11-01T13:13:13Z</time>
      </trkpt>
      <trkpt lat="38.4251930" lon="-2.4651560">
        <ele>1230.9</ele>
        <time>2019-11-01T13:13:16Z</time>
      </trkpt>
      <trkpt lat="38.4252470" lon="-2.4650900">
        <ele>1230.9</ele>
        <time>2019-11-01T13:13:19Z</time>
      </trkpt>
      <trkpt lat="38.4252980" lon="-2.4650140">
        <ele>1230.9</ele>
        <time>2019-11-01T13:13:22Z</time>
      </trkpt>
      <trkpt lat="38.4253310" lon="-2.4649650">
        <ele>1230.9</ele>
        <time>2019-11-01T13:13:24Z</time>
      </trkpt>
      <trkpt lat="38.4253640" lon="-2.4649180">
        <ele>1232.9</ele>
        <time>2019-11-01T13:13:26Z</time>
      </trkpt>
      <trkpt lat="38.4253950" lon="-2.4648660">
        <ele>1232.9</ele>
        <time>2019-11-01T13:13:28Z</time>
      </trkpt>
      <trkpt lat="38.4254260" lon="-2.4648160">
        <ele>1232.9</ele>
        <time>2019-11-01T13:13:30Z</time>
      </trkpt>
      <trkpt lat="38.4254770" lon="-2.4647490">
        <ele>1232.9</ele>
        <time>2019-11-01T13:13:33Z</time>
      </trkpt>
      <trkpt lat="38.4255260" lon="-2.4646860">
        <ele>1232.9</ele>
        <time>2019-11-01T13:13:36Z</time>
      </trkpt>
      <trkpt lat="38.4255740" lon="-2.4646240">
        <ele>1232.9</ele>
        <time>2019-11-01T13:13:39Z</time>
      </trkpt>
      <trkpt lat="38.4256100" lon="-2.4645800">
        <ele>1232.9</ele>
        <time>2019-11-01T13:13:41Z</time>
      </trkpt>
      <trkpt lat="38.4256560" lon="-2.4645170">
        <ele>1232.9</ele>
        <time>2019-11-01T13:13:44Z</time>
      </trkpt>
      <trkpt lat="38.4256900" lon="-2.4644770">
        <ele>1234.9</ele>
        <time>2019-11-01T13:13:46Z</time>
      </trkpt>
      <trkpt lat="38.4257230" lon="-2.4644310">
        <ele>1234.9</ele>
        <time>2019-11-01T13:13:48Z</time>
      </trkpt>
      <trkpt lat="38.4257740" lon="-2.4643570">
        <ele>1234.9</ele>
        <time>2019-11-01T13:13:51Z</time>
      </trkpt>
      <trkpt lat="38.4258150" lon="-2.4642790">
        <ele>1234.9</ele>
        <time>2019-11-01T13:13:54Z</time>
      </trkpt>
      <trkpt lat="38.4258380" lon="-2.4642270">
        <ele>1234.9</ele>
        <time>2019-11-01T13:13:56Z</time>
      </trkpt>
      <trkpt lat="38.4258690" lon="-2.4641340">
        <ele>1234.9</ele>
        <time>2019-11-01T13:13:59Z</time>
      </trkpt>
      <trkpt lat="38.4258920" lon="-2.4640510">
        <ele>1234.9</ele>
        <time>2019-11-01T13:14:02Z</time>
      </trkpt>
      <trkpt lat="38.4259070" lon="-2.4639920">
        <ele>1237.0</ele>
        <time>2019-11-01T13:14:04Z</time>
      </trkpt>
      <trkpt lat="38.4259330" lon="-2.4639140">
        <ele>1237.0</ele>
        <time>2019-11-01T13:14:07Z</time>
      </trkpt>
      <trkpt lat="38.4259610" lon="-2.4638380">
        <ele>1237.0</ele>
        <time>2019-11-01T13:14:10Z</time>
      </trkpt>
      <trkpt lat="38.4259840" lon="-2.4637640">
        <ele>1237.0</ele>
        <time>2019-11-01T13:14:13Z</time>
      </trkpt>
      <trkpt lat="38.4260170" lon="-2.4636880">
        <ele>1237.0</ele>
        <time>2019-11-01T13:14:16Z</time>
      </trkpt>
      <trkpt lat="38.4260560" lon="-2.4636120">
        <ele>1237.0</ele>
        <time>2019-11-01T13:14:19Z</time>
      </trkpt>
      <trkpt lat="38.4260970" lon="-2.4635420">
        <ele>1237.0</ele>
        <time>2019-11-01T13:14:22Z</time>
      </trkpt>
      <trkpt lat="38.4261320" lon="-2.4634960">
        <ele>1239.0</ele>
        <time>2019-11-01T13:14:24Z</time>
      </trkpt>
      <trkpt lat="38.4261710" lon="-2.4634520">
        <ele>1239.0</ele>
        <time>2019-11-01T13:14:26Z</time>
      </trkpt>
      <trkpt lat="38.4262270" lon="-2.4633890">
        <ele>1239.0</ele>
        <time>2019-11-01T13:14:29Z</time>
      </trkpt>
      <trkpt lat="38.4262660" lon="-2.4633530">
        <ele>1239.0</ele>
        <time>2019-11-01T13:14:31Z</time>
      </trkpt>
      <trkpt lat="38.4263140" lon="-2.4632860">
        <ele>1239.0</ele>
        <time>2019-11-01T13:14:34Z</time>
      </trkpt>
      <trkpt lat="38.4263450" lon="-2.4632370">
        <ele>1239.0</ele>
        <time>2019-11-01T13:14:36Z</time>
      </trkpt>
      <trkpt lat="38.4263830" lon="-2.4631630">
        <ele>1239.0</ele>
        <time>2019-11-01T13:14:39Z</time>
      </trkpt>
      <trkpt lat="38.4264040" lon="-2.4631100">
        <ele>1241.0</ele>
        <time>2019-11-01T13:14:41Z</time>
      </trkpt>
      <trkpt lat="38.4264190" lon="-2.4630290">
        <ele>1241.0</ele>
        <time>2019-11-01T13:14:44Z</time>
      </trkpt>
      <trkpt lat="38.4264190" lon="-2.4629450">
        <ele>1241.0</ele>
        <time>2019-11-01T13:14:47Z</time>
      </trkpt>
      <trkpt lat="38.4264140" lon="-2.4628620">
        <ele>1241.0</ele>
        <time>2019-11-01T13:14:50Z</time>
      </trkpt>
      <trkpt lat="38.4264060" lon="-2.4627760">
        <ele>1241.0</ele>
        <time>2019-11-01T13:14:53Z</time>
      </trkpt>
      <trkpt lat="38.4263990" lon="-2.4627200">
        <ele>1243.1</ele>
        <time>2019-11-01T13:14:55Z</time>
      </trkpt>
      <trkpt lat="38.4263880" lon="-2.4626440">
        <ele>1243.1</ele>
        <time>2019-11-01T13:14:58Z</time>
      </trkpt>
      <trkpt lat="38.4263730" lon="-2.4625760">
        <ele>1243.1</ele>
        <time>2019-11-01T13:15:01Z</time>
      </trkpt>
      <trkpt lat="38.4263530" lon="-2.4625050">
        <ele>1243.1</ele>
        <time>2019-11-01T13:15:04Z</time>
      </trkpt>
      <trkpt lat="38.4263370" lon="-2.4624310">
        <ele>1243.1</ele>
        <time>2019-11-01T13:15:07Z</time>
      </trkpt>
      <trkpt lat="38.4263190" lon="-2.4623680">
        <ele>1243.1</ele>
        <time>2019-11-01T13:15:10Z</time>
      </trkpt>
      <trkpt lat="38.4262990" lon="-2.4622970">
        <ele>1245.1</ele>
        <time>2019-11-01T13:15:13Z</time>
      </trkpt>
      <trkpt lat="38.4262840" lon="-2.4622190">
        <ele>1245.1</ele>
        <time>2019-11-01T13:15:16Z</time>
      </trkpt>
      <trkpt lat="38.4262660" lon="-2.4621570">
        <ele>1245.1</ele>
        <time>2019-11-01T13:15:19Z</time>
      </trkpt>
      <trkpt lat="38.4262500" lon="-2.4620780">
        <ele>1245.1</ele>
        <time>2019-11-01T13:15:23Z</time>
      </trkpt>
      <trkpt lat="38.4262320" lon="-2.4620100">
        <ele>1245.1</ele>
        <time>2019-11-01T13:15:27Z</time>
      </trkpt>
      <trkpt lat="38.4262200" lon="-2.4619460">
        <ele>1247.1</ele>
        <time>2019-11-01T13:15:31Z</time>
      </trkpt>
      <trkpt lat="38.4262250" lon="-2.4618650">
        <ele>1247.1</ele>
        <time>2019-11-01T13:15:35Z</time>
      </trkpt>
      <trkpt lat="38.4262270" lon="-2.4617980">
        <ele>1247.1</ele>
        <time>2019-11-01T13:15:38Z</time>
      </trkpt>
      <trkpt lat="38.4262400" lon="-2.4617190">
        <ele>1247.1</ele>
        <time>2019-11-01T13:15:42Z</time>
      </trkpt>
      <trkpt lat="38.4262550" lon="-2.4616440">
        <ele>1247.1</ele>
        <time>2019-11-01T13:15:46Z</time>
      </trkpt>
      <trkpt lat="38.4262810" lon="-2.4615750">
        <ele>1249.2</ele>
        <time>2019-11-01T13:15:50Z</time>
      </trkpt>
      <trkpt lat="38.4263070" lon="-2.4615210">
        <ele>1249.2</ele>
        <time>2019-11-01T13:15:53Z</time>
      </trkpt>
      <trkpt lat="38.4263450" lon="-2.4614420">
        <ele>1249.2</ele>
        <time>2019-11-01T13:15:57Z</time>
      </trkpt>
      <trkpt lat="38.4263730" lon="-2.4613800">
        <ele>1249.2</ele>
        <time>2019-11-01T13:16:00Z</time>
      </trkpt>
      <trkpt lat="38.4263990" lon="-2.4613230">
        <ele>1251.2</ele>
        <time>2019-11-01T13:16:03Z</time>
      </trkpt>
      <trkpt lat="38.4264290" lon="-2.4612640">
        <ele>1251.2</ele>
        <time>2019-11-01T13:16:06Z</time>
      </trkpt>
      <trkpt lat="38.4264520" lon="-2.4612040">
        <ele>1251.2</ele>
        <time>2019-11-01T13:16:09Z</time>
      </trkpt>
      <trkpt lat="38.4264760" lon="-2.4611240">
        <ele>1251.2</ele>
        <time>2019-11-01T13:16:13Z</time>
      </trkpt>
      <trkpt lat="38.4265010" lon="-2.4610610">
        <ele>1253.3</ele>
        <time>2019-11-01T13:16:16Z</time>
      </trkpt>
      <trkpt lat="38.4265320" lon="-2.4609930">
        <ele>1253.3</ele>
        <time>2019-11-01T13:16:19Z</time>
      </trkpt>
      <trkpt lat="38.4265680" lon="-2.4609200">
        <ele>1253.3</ele>
        <time>2019-11-01T13:16:22Z</time>
      </trkpt>
      <trkpt lat="38.4266010" lon="-2.4608500">
        <ele>1253.3</ele>
        <time>2019-11-01T13:16:25Z</time>
      </trkpt>
      <trkpt lat="38.4266320" lon="-2.4607850">
        <ele>1255.8</ele>
        <time>2019-11-01T13:16:28Z</time>
      </trkpt>
      <trkpt lat="38.4266700" lon="-2.4607300">
        <ele>1255.8</ele>
        <time>2019-11-01T13:16:31Z</time>
      </trkpt>
      <trkpt lat="38.4267190" lon="-2.4606790">
        <ele>1255.8</ele>
        <time>2019-11-01T13:16:34Z</time>
      </trkpt>
      <trkpt lat="38.4267720" lon="-2.4606400">
        <ele>1255.8</ele>
        <time>2019-11-01T13:16:37Z</time>
      </trkpt>
      <trkpt lat="38.4268310" lon="-2.4606210">
        <ele>1255.8</ele>
        <time>2019-11-01T13:16:40Z</time>
      </trkpt>
      <trkpt lat="38.4268830" lon="-2.4606160">
        <ele>1258.6</ele>
        <time>2019-11-01T13:16:43Z</time>
      </trkpt>
      <trkpt lat="38.4269290" lon="-2.4606210">
        <ele>1258.6</ele>
        <time>2019-11-01T13:16:46Z</time>
      </trkpt>
      <trkpt lat="38.4269820" lon="-2.4606330">
        <ele>1258.6</ele>
        <time>2019-11-01T13:16:50Z</time>
      </trkpt>
      <trkpt lat="38.4270360" lon="-2.4606570">
        <ele>1258.6</ele>
        <time>2019-11-01T13:16:54Z</time>
      </trkpt>
      <trkpt lat="38.4270850" lon="-2.4606890">
        <ele>1258.6</ele>
        <time>2019-11-01T13:16:58Z</time>
      </trkpt>
      <trkpt lat="38.4271230" lon="-2.4607090">
        <ele>1261.2</ele>
        <time>2019-11-01T13:17:01Z</time>
      </trkpt>
      <trkpt lat="38.4271740" lon="-2.4607410">
        <ele>1261.2</ele>
        <time>2019-11-01T13:17:05Z</time>
      </trkpt>
      <trkpt lat="38.4272280" lon="-2.4607730">
        <ele>1261.2</ele>
        <time>2019-11-01T13:17:09Z</time>
      </trkpt>
      <trkpt lat="38.4272720" lon="-2.4608140">
        <ele>1261.2</ele>
        <time>2019-11-01T13:17:13Z</time>
      </trkpt>
      <trkpt lat="38.4273080" lon="-2.4608410">
        <ele>1264.2</ele>
        <time>2019-11-01T13:17:16Z</time>
      </trkpt>
      <trkpt lat="38.4273610" lon="-2.4608670">
        <ele>1264.2</ele>
        <time>2019-11-01T13:17:21Z</time>
      </trkpt>
      <trkpt lat="38.4274100" lon="-2.4608870">
        <ele>1264.2</ele>
        <time>2019-11-01T13:17:25Z</time>
      </trkpt>
      <trkpt lat="38.4274660" lon="-2.4608990">
        <ele>1264.2</ele>
        <time>2019-11-01T13:17:30Z</time>
      </trkpt>
      <trkpt lat="38.4274970" lon="-2.4608940">
        <ele>1267.1</ele>
        <time>2019-11-01T13:17:33Z</time>
      </trkpt>
      <trkpt lat="38.4275330" lon="-2.4608260">
        <ele>1267.1</ele>
        <time>2019-11-01T13:17:39Z</time>
      </trkpt>
      <trkpt lat="38.4275280" lon="-2.4607570">
        <ele>1267.1</ele>
        <time>2019-11-01T13:17:46Z</time>
      </trkpt>
      <trkpt lat="38.4275020" lon="-2.4607120">
        <ele>1269.9</ele>
        <time>2019-11-01T13:17:50Z</time>
      </trkpt>
      <trkpt lat="38.4274590" lon="-2.4606490">
        <ele>1269.9</ele>
        <time>2019-11-01T13:17:55Z</time>
      </trkpt>
      <trkpt lat="38.4274150" lon="-2.4605890">
        <ele>1269.9</ele>
        <time>2019-11-01T13:17:59Z</time>
      </trkpt>
      <trkpt lat="38.4273770" lon="-2.4605400">
        <ele>1269.9</ele>
        <time>2019-11-01T13:18:02Z</time>
      </trkpt>
      <trkpt lat="38.4273460" lon="-2.4605020">
        <ele>1272.3</ele>
        <time>2019-11-01T13:18:05Z</time>
      </trkpt>
      <trkpt lat="38.4273000" lon="-2.4604550">
        <ele>1272.3</ele>
        <time>2019-11-01T13:18:09Z</time>
      </trkpt>
      <trkpt lat="38.4272640" lon="-2.4604120">
        <ele>1272.3</ele>
        <time>2019-11-01T13:18:12Z</time>
      </trkpt>
      <trkpt lat="38.4272230" lon="-2.4603540">
        <ele>1272.3</ele>
        <time>2019-11-01T13:18:16Z</time>
      </trkpt>
      <trkpt lat="38.4271900" lon="-2.4603100">
        <ele>1275.1</ele>
        <time>2019-11-01T13:18:19Z</time>
      </trkpt>
      <trkpt lat="38.4271510" lon="-2.4602710">
        <ele>1275.1</ele>
        <time>2019-11-01T13:18:22Z</time>
      </trkpt>
      <trkpt lat="38.4270980" lon="-2.4602130">
        <ele>1275.1</ele>
        <time>2019-11-01T13:18:26Z</time>
      </trkpt>
      <trkpt lat="38.4270620" lon="-2.4601700">
        <ele>1275.1</ele>
        <time>2019-11-01T13:18:29Z</time>
      </trkpt>
      <trkpt lat="38.4270210" lon="-2.4601110">
        <ele>1275.1</ele>
        <time>2019-11-01T13:18:33Z</time>
      </trkpt>
      <trkpt lat="38.4269820" lon="-2.4600710">
        <ele>1277.8</ele>
        <time>2019-11-01T13:18:36Z</time>
      </trkpt>
      <trkpt lat="38.4269260" lon="-2.4600160">
        <ele>1277.8</ele>
        <time>2019-11-01T13:18:40Z</time>
      </trkpt>
      <trkpt lat="38.4268830" lon="-2.4599540">
        <ele>1277.8</ele>
        <time>2019-11-01T13:18:43Z</time>
      </trkpt>
      <trkpt lat="38.4268420" lon="-2.4598940">
        <ele>1277.8</ele>
        <time>2019-11-01T13:18:46Z</time>
      </trkpt>
      <trkpt lat="38.4268010" lon="-2.4598230">
        <ele>1277.8</ele>
        <time>2019-11-01T13:18:49Z</time>
      </trkpt>
      <trkpt lat="38.4267620" lon="-2.4597520">
        <ele>1280.4</ele>
        <time>2019-11-01T13:18:52Z</time>
      </trkpt>
      <trkpt lat="38.4267390" lon="-2.4596830">
        <ele>1280.4</ele>
        <time>2019-11-01T13:18:55Z</time>
      </trkpt>
      <trkpt lat="38.4267080" lon="-2.4595830">
        <ele>1280.4</ele>
        <time>2019-11-01T13:18:59Z</time>
      </trkpt>
      <trkpt lat="38.4266850" lon="-2.4595060">
        <ele>1280.4</ele>
        <time>2019-11-01T13:19:02Z</time>
      </trkpt>
      <trkpt lat="38.4266700" lon="-2.4594280">
        <ele>1280.4</ele>
        <time>2019-11-01T13:19:05Z</time>
      </trkpt>
      <trkpt lat="38.4266550" lon="-2.4593580">
        <ele>1283.0</ele>
        <time>2019-11-01T13:19:08Z</time>
      </trkpt>
      <trkpt lat="38.4266440" lon="-2.4592820">
        <ele>1283.0</ele>
        <time>2019-11-01T13:19:11Z</time>
      </trkpt>
      <trkpt lat="38.4266390" lon="-2.4592060">
        <ele>1283.0</ele>
        <time>2019-11-01T13:19:14Z</time>
      </trkpt>
      <trkpt lat="38.4266390" lon="-2.4591280">
        <ele>1283.0</ele>
        <time>2019-11-01T13:19:17Z</time>
      </trkpt>
      <trkpt lat="38.4266390" lon="-2.4590450">
        <ele>1283.0</ele>
        <time>2019-11-01T13:19:20Z</time>
      </trkpt>
      <trkpt lat="38.4266390" lon="-2.4589620">
        <ele>1285.9</ele>
        <time>2019-11-01T13:19:23Z</time>
      </trkpt>
      <trkpt lat="38.4266440" lon="-2.4589080">
        <ele>1285.9</ele>
        <time>2019-11-01T13:19:25Z</time>
      </trkpt>
      <trkpt lat="38.4266470" lon="-2.4588200">
        <ele>1285.9</ele>
        <time>2019-11-01T13:19:28Z</time>
      </trkpt>
      <trkpt lat="38.4266550" lon="-2.4587590">
        <ele>1285.9</ele>
        <time>2019-11-01T13:19:30Z</time>
      </trkpt>
      <trkpt lat="38.4266620" lon="-2.4586700">
        <ele>1285.9</ele>
        <time>2019-11-01T13:19:33Z</time>
      </trkpt>
      <trkpt lat="38.4266730" lon="-2.4585800">
        <ele>1285.9</ele>
        <time>2019-11-01T13:19:36Z</time>
      </trkpt>
      <trkpt lat="38.4266800" lon="-2.4585210">
        <ele>1285.9</ele>
        <time>2019-11-01T13:19:38Z</time>
      </trkpt>
      <trkpt lat="38.4266880" lon="-2.4584620">
        <ele>1288.4</ele>
        <time>2019-11-01T13:19:40Z</time>
      </trkpt>
      <trkpt lat="38.4266960" lon="-2.4583730">
        <ele>1288.4</ele>
        <time>2019-11-01T13:19:43Z</time>
      </trkpt>
      <trkpt lat="38.4267010" lon="-2.4582890">
        <ele>1288.4</ele>
        <time>2019-11-01T13:19:46Z</time>
      </trkpt>
      <trkpt lat="38.4267110" lon="-2.4582210">
        <ele>1288.4</ele>
        <time>2019-11-01T13:19:49Z</time>
      </trkpt>
      <trkpt lat="38.4267490" lon="-2.4578740">
        <ele>1293.6</ele>
        <time>2019-11-01T13:22:32Z</time>
      </trkpt>
      <trkpt lat="38.4267650" lon="-2.4577970">
        <ele>1293.6</ele>
        <time>2019-11-01T13:22:38Z</time>
      </trkpt>
      <trkpt lat="38.4267930" lon="-2.4577260">
        <ele>1295.8</ele>
        <time>2019-11-01T13:22:42Z</time>
      </trkpt>
      <trkpt lat="38.4268240" lon="-2.4576600">
        <ele>1295.8</ele>
        <time>2019-11-01T13:22:45Z</time>
      </trkpt>
      <trkpt lat="38.4268570" lon="-2.4575890">
        <ele>1295.8</ele>
        <time>2019-11-01T13:22:48Z</time>
      </trkpt>
      <trkpt lat="38.4268880" lon="-2.4575220">
        <ele>1295.8</ele>
        <time>2019-11-01T13:22:51Z</time>
      </trkpt>
      <trkpt lat="38.4269260" lon="-2.4574560">
        <ele>1295.8</ele>
        <time>2019-11-01T13:22:54Z</time>
      </trkpt>
      <trkpt lat="38.4269720" lon="-2.4573970">
        <ele>1295.8</ele>
        <time>2019-11-01T13:22:57Z</time>
      </trkpt>
      <trkpt lat="38.4270050" lon="-2.4573520">
        <ele>1297.9</ele>
        <time>2019-11-01T13:22:59Z</time>
      </trkpt>
      <trkpt lat="38.4270360" lon="-2.4573020">
        <ele>1297.9</ele>
        <time>2019-11-01T13:23:01Z</time>
      </trkpt>
      <trkpt lat="38.4270750" lon="-2.4572310">
        <ele>1297.9</ele>
        <time>2019-11-01T13:23:04Z</time>
      </trkpt>
      <trkpt lat="38.4271080" lon="-2.4571690">
        <ele>1297.9</ele>
        <time>2019-11-01T13:23:07Z</time>
      </trkpt>
      <trkpt lat="38.4271510" lon="-2.4571040">
        <ele>1297.9</ele>
        <time>2019-11-01T13:23:10Z</time>
      </trkpt>
      <trkpt lat="38.4272310" lon="-2.4570060">
        <ele>1300.0</ele>
        <time>2019-11-01T13:23:14Z</time>
      </trkpt>
      <trkpt lat="38.4272870" lon="-2.4569370">
        <ele>1300.0</ele>
        <time>2019-11-01T13:23:17Z</time>
      </trkpt>
      <trkpt lat="38.4273180" lon="-2.4568330">
        <ele>1300.0</ele>
        <time>2019-11-01T13:23:46Z</time>
      </trkpt>
      <trkpt lat="38.4273610" lon="-2.4567130">
        <ele>1300.0</ele>
        <time>2019-11-01T13:23:51Z</time>
      </trkpt>
      <trkpt lat="38.4274230" lon="-2.4566030">
        <ele>1300.0</ele>
        <time>2019-11-01T13:23:54Z</time>
      </trkpt>
      <trkpt lat="38.4274710" lon="-2.4565300">
        <ele>1300.0</ele>
        <time>2019-11-01T13:23:56Z</time>
      </trkpt>
      <trkpt lat="38.4275280" lon="-2.4564530">
        <ele>1302.0</ele>
        <time>2019-11-01T13:23:58Z</time>
      </trkpt>
      <trkpt lat="38.4275940" lon="-2.4563800">
        <ele>1302.0</ele>
        <time>2019-11-01T13:24:00Z</time>
      </trkpt>
      <trkpt lat="38.4276740" lon="-2.4563120">
        <ele>1302.0</ele>
        <time>2019-11-01T13:24:02Z</time>
      </trkpt>
      <trkpt lat="38.4277680" lon="-2.4562540">
        <ele>1302.0</ele>
        <time>2019-11-01T13:24:04Z</time>
      </trkpt>
      <trkpt lat="38.4278140" lon="-2.4562320">
        <ele>1302.0</ele>
        <time>2019-11-01T13:24:05Z</time>
      </trkpt>
      <trkpt lat="38.4278680" lon="-2.4562120">
        <ele>1302.0</ele>
        <time>2019-11-01T13:24:06Z</time>
      </trkpt>
      <trkpt lat="38.4279760" lon="-2.4561770">
        <ele>1302.0</ele>
        <time>2019-11-01T13:24:08Z</time>
      </trkpt>
      <trkpt lat="38.4280270" lon="-2.4561610">
        <ele>1302.0</ele>
        <time>2019-11-01T13:24:09Z</time>
      </trkpt>
      <trkpt lat="38.4280860" lon="-2.4561460">
        <ele>1302.0</ele>
        <time>2019-11-01T13:24:10Z</time>
      </trkpt>
      <trkpt lat="38.4281420" lon="-2.4561310">
        <ele>1302.0</ele>
        <time>2019-11-01T13:24:11Z</time>
      </trkpt>
      <trkpt lat="38.4282040" lon="-2.4561170">
        <ele>1302.0</ele>
        <time>2019-11-01T13:24:12Z</time>
      </trkpt>
      <trkpt lat="38.4282650" lon="-2.4561050">
        <ele>1302.0</ele>
        <time>2019-11-01T13:24:13Z</time>
      </trkpt>
      <trkpt lat="38.4283210" lon="-2.4560960">
        <ele>1302.0</ele>
        <time>2019-11-01T13:24:14Z</time>
      </trkpt>
      <trkpt lat="38.4283830" lon="-2.4560880">
        <ele>1302.0</ele>
        <time>2019-11-01T13:24:15Z</time>
      </trkpt>
      <trkpt lat="38.4284390" lon="-2.4560820">
        <ele>1302.0</ele>
        <time>2019-11-01T13:24:16Z</time>
      </trkpt>
      <trkpt lat="38.4285000" lon="-2.4560780">
        <ele>1302.0</ele>
        <time>2019-11-01T13:24:17Z</time>
      </trkpt>
      <trkpt lat="38.4285590" lon="-2.4560750">
        <ele>1302.0</ele>
        <time>2019-11-01T13:24:18Z</time>
      </trkpt>
      <trkpt lat="38.4286180" lon="-2.4560730">
        <ele>1302.0</ele>
        <time>2019-11-01T13:24:19Z</time>
      </trkpt>
      <trkpt lat="38.4286720" lon="-2.4560710">
        <ele>1302.0</ele>
        <time>2019-11-01T13:24:20Z</time>
      </trkpt>
      <trkpt lat="38.4287310" lon="-2.4560680">
        <ele>1304.9</ele>
        <time>2019-11-01T13:24:21Z</time>
      </trkpt>
      <trkpt lat="38.4287850" lon="-2.4560650">
        <ele>1304.9</ele>
        <time>2019-11-01T13:24:22Z</time>
      </trkpt>
      <trkpt lat="38.4288360" lon="-2.4560630">
        <ele>1304.9</ele>
        <time>2019-11-01T13:24:23Z</time>
      </trkpt>
      <trkpt lat="38.4288970" lon="-2.4560620">
        <ele>1304.9</ele>
        <time>2019-11-01T13:24:24Z</time>
      </trkpt>
      <trkpt lat="38.4289510" lon="-2.4560620">
        <ele>1304.9</ele>
        <time>2019-11-01T13:24:25Z</time>
      </trkpt>
      <trkpt lat="38.4290050" lon="-2.4560630">
        <ele>1304.9</ele>
        <time>2019-11-01T13:24:26Z</time>
      </trkpt>
      <trkpt lat="38.4290610" lon="-2.4560630">
        <ele>1304.9</ele>
        <time>2019-11-01T13:24:27Z</time>
      </trkpt>
      <trkpt lat="38.4291150" lon="-2.4560640">
        <ele>1304.9</ele>
        <time>2019-11-01T13:24:28Z</time>
      </trkpt>
      <trkpt lat="38.4291690" lon="-2.4560640">
        <ele>1304.9</ele>
        <time>2019-11-01T13:24:29Z</time>
      </trkpt>
      <trkpt lat="38.4292170" lon="-2.4560640">
        <ele>1304.9</ele>
        <time>2019-11-01T13:24:30Z</time>
      </trkpt>
      <trkpt lat="38.4293150" lon="-2.4560660">
        <ele>1304.9</ele>
        <time>2019-11-01T13:24:32Z</time>
      </trkpt>
      <trkpt lat="38.4294120" lon="-2.4560670">
        <ele>1304.9</ele>
        <time>2019-11-01T13:24:34Z</time>
      </trkpt>
      <trkpt lat="38.4294580" lon="-2.4560670">
        <ele>1304.9</ele>
        <time>2019-11-01T13:24:35Z</time>
      </trkpt>
      <trkpt lat="38.4295500" lon="-2.4560670">
        <ele>1304.9</ele>
        <time>2019-11-01T13:24:37Z</time>
      </trkpt>
      <trkpt lat="38.4296370" lon="-2.4560680">
        <ele>1304.9</ele>
        <time>2019-11-01T13:24:39Z</time>
      </trkpt>
      <trkpt lat="38.4297340" lon="-2.4560690">
        <ele>1304.9</ele>
        <time>2019-11-01T13:24:41Z</time>
      </trkpt>
      <trkpt lat="38.4298290" lon="-2.4560700">
        <ele>1304.9</ele>
        <time>2019-11-01T13:24:43Z</time>
      </trkpt>
      <trkpt lat="38.4299210" lon="-2.4560720">
        <ele>1304.9</ele>
        <time>2019-11-01T13:24:45Z</time>
      </trkpt>
      <trkpt lat="38.4300110" lon="-2.4560720">
        <ele>1304.9</ele>
        <time>2019-11-01T13:24:47Z</time>
      </trkpt>
      <trkpt lat="38.4301030" lon="-2.4560710">
        <ele>1304.9</ele>
        <time>2019-11-01T13:24:49Z</time>
      </trkpt>
      <trkpt lat="38.4301900" lon="-2.4560680">
        <ele>1304.9</ele>
        <time>2019-11-01T13:24:51Z</time>
      </trkpt>
      <trkpt lat="38.4302820" lon="-2.4560660">
        <ele>1307.0</ele>
        <time>2019-11-01T13:24:53Z</time>
      </trkpt>
      <trkpt lat="38.4303850" lon="-2.4560660">
        <ele>1307.0</ele>
        <time>2019-11-01T13:24:55Z</time>
      </trkpt>
      <trkpt lat="38.4304840" lon="-2.4560650">
        <ele>1307.0</ele>
        <time>2019-11-01T13:24:57Z</time>
      </trkpt>
      <trkpt lat="38.4305720" lon="-2.4560640">
        <ele>1307.0</ele>
        <time>2019-11-01T13:24:59Z</time>
      </trkpt>
      <trkpt lat="38.4306380" lon="-2.4560630">
        <ele>1307.0</ele>
        <time>2019-11-01T13:25:01Z</time>
      </trkpt>
      <trkpt lat="38.4306940" lon="-2.4560600">
        <ele>1307.0</ele>
        <time>2019-11-01T13:25:03Z</time>
      </trkpt>
      <trkpt lat="38.4307430" lon="-2.4560560">
        <ele>1307.0</ele>
        <time>2019-11-01T13:25:06Z</time>
      </trkpt>
      <trkpt lat="38.4307970" lon="-2.4560440">
        <ele>1307.0</ele>
        <time>2019-11-01T13:25:30Z</time>
      </trkpt>
      <trkpt lat="38.4308810" lon="-2.4560550">
        <ele>1307.0</ele>
        <time>2019-11-01T13:25:35Z</time>
      </trkpt>
      <trkpt lat="38.4309530" lon="-2.4560660">
        <ele>1307.0</ele>
        <time>2019-11-01T13:25:38Z</time>
      </trkpt>
      <trkpt lat="38.4309990" lon="-2.4560650">
        <ele>1307.0</ele>
        <time>2019-11-01T13:25:40Z</time>
      </trkpt>
      <trkpt lat="38.4310840" lon="-2.4560610">
        <ele>1307.0</ele>
        <time>2019-11-01T13:25:43Z</time>
      </trkpt>
      <trkpt lat="38.4311450" lon="-2.4560600">
        <ele>1307.0</ele>
        <time>2019-11-01T13:25:45Z</time>
      </trkpt>
      <trkpt lat="38.4312170" lon="-2.4560570">
        <ele>1307.0</ele>
        <time>2019-11-01T13:25:47Z</time>
      </trkpt>
      <trkpt lat="38.4312990" lon="-2.4560500">
        <ele>1307.0</ele>
        <time>2019-11-01T13:25:49Z</time>
      </trkpt>
      <trkpt lat="38.4313860" lon="-2.4560440">
        <ele>1307.0</ele>
        <time>2019-11-01T13:25:51Z</time>
      </trkpt>
      <trkpt lat="38.4314880" lon="-2.4560420">
        <ele>1307.0</ele>
        <time>2019-11-01T13:25:53Z</time>
      </trkpt>
      <trkpt lat="38.4315370" lon="-2.4560400">
        <ele>1307.0</ele>
        <time>2019-11-01T13:25:54Z</time>
      </trkpt>
      <trkpt lat="38.4316490" lon="-2.4560380">
        <ele>1307.0</ele>
        <time>2019-11-01T13:25:56Z</time>
      </trkpt>
      <trkpt lat="38.4317060" lon="-2.4560380">
        <ele>1307.0</ele>
        <time>2019-11-01T13:25:57Z</time>
      </trkpt>
      <trkpt lat="38.4317670" lon="-2.4560380">
        <ele>1307.0</ele>
        <time>2019-11-01T13:25:58Z</time>
      </trkpt>
      <trkpt lat="38.4318230" lon="-2.4560360">
        <ele>1307.0</ele>
        <time>2019-11-01T13:25:59Z</time>
      </trkpt>
      <trkpt lat="38.4318850" lon="-2.4560330">
        <ele>1307.0</ele>
        <time>2019-11-01T13:26:00Z</time>
      </trkpt>
      <trkpt lat="38.4319410" lon="-2.4560290">
        <ele>1307.0</ele>
        <time>2019-11-01T13:26:01Z</time>
      </trkpt>
      <trkpt lat="38.4320030" lon="-2.4560260">
        <ele>1307.0</ele>
        <time>2019-11-01T13:26:02Z</time>
      </trkpt>
      <trkpt lat="38.4320610" lon="-2.4560220">
        <ele>1307.0</ele>
        <time>2019-11-01T13:26:03Z</time>
      </trkpt>
      <trkpt lat="38.4321180" lon="-2.4560170">
        <ele>1307.0</ele>
        <time>2019-11-01T13:26:04Z</time>
      </trkpt>
      <trkpt lat="38.4321740" lon="-2.4560130">
        <ele>1307.0</ele>
        <time>2019-11-01T13:26:05Z</time>
      </trkpt>
      <trkpt lat="38.4322330" lon="-2.4560150">
        <ele>1307.0</ele>
        <time>2019-11-01T13:26:06Z</time>
      </trkpt>
      <trkpt lat="38.4322920" lon="-2.4560220">
        <ele>1307.0</ele>
        <time>2019-11-01T13:26:07Z</time>
      </trkpt>
      <trkpt lat="38.4323510" lon="-2.4560300">
        <ele>1307.0</ele>
        <time>2019-11-01T13:26:08Z</time>
      </trkpt>
      <trkpt lat="38.4324040" lon="-2.4560360">
        <ele>1307.0</ele>
        <time>2019-11-01T13:26:09Z</time>
      </trkpt>
      <trkpt lat="38.4324610" lon="-2.4560400">
        <ele>1307.0</ele>
        <time>2019-11-01T13:26:10Z</time>
      </trkpt>
      <trkpt lat="38.4325150" lon="-2.4560430">
        <ele>1307.0</ele>
        <time>2019-11-01T13:26:11Z</time>
      </trkpt>
      <trkpt lat="38.4325710" lon="-2.4560430">
        <ele>1307.0</ele>
        <time>2019-11-01T13:26:12Z</time>
      </trkpt>
      <trkpt lat="38.4326250" lon="-2.4560400">
        <ele>1307.0</ele>
        <time>2019-11-01T13:26:13Z</time>
      </trkpt>
      <trkpt lat="38.4326780" lon="-2.4560330">
        <ele>1307.0</ele>
        <time>2019-11-01T13:26:14Z</time>
      </trkpt>
      <trkpt lat="38.4327320" lon="-2.4560260">
        <ele>1307.0</ele>
        <time>2019-11-01T13:26:15Z</time>
      </trkpt>
      <trkpt lat="38.4327860" lon="-2.4560160">
        <ele>1307.0</ele>
        <time>2019-11-01T13:26:16Z</time>
      </trkpt>
      <trkpt lat="38.4328420" lon="-2.4560070">
        <ele>1307.0</ele>
        <time>2019-11-01T13:26:17Z</time>
      </trkpt>
      <trkpt lat="38.4328960" lon="-2.4560000">
        <ele>1307.0</ele>
        <time>2019-11-01T13:26:18Z</time>
      </trkpt>
      <trkpt lat="38.4329500" lon="-2.4559940">
        <ele>1307.0</ele>
        <time>2019-11-01T13:26:19Z</time>
      </trkpt>
      <trkpt lat="38.4330110" lon="-2.4559880">
        <ele>1307.0</ele>
        <time>2019-11-01T13:26:20Z</time>
      </trkpt>
      <trkpt lat="38.4330620" lon="-2.4559820">
        <ele>1307.0</ele>
        <time>2019-11-01T13:26:21Z</time>
      </trkpt>
      <trkpt lat="38.4331160" lon="-2.4559740">
        <ele>1307.0</ele>
        <time>2019-11-01T13:26:22Z</time>
      </trkpt>
      <trkpt lat="38.4331700" lon="-2.4559640">
        <ele>1307.0</ele>
        <time>2019-11-01T13:26:23Z</time>
      </trkpt>
      <trkpt lat="38.4332210" lon="-2.4559530">
        <ele>1307.0</ele>
        <time>2019-11-01T13:26:24Z</time>
      </trkpt>
      <trkpt lat="38.4333340" lon="-2.4559250">
        <ele>1307.0</ele>
        <time>2019-11-01T13:26:26Z</time>
      </trkpt>
      <trkpt lat="38.4333930" lon="-2.4559090">
        <ele>1307.0</ele>
        <time>2019-11-01T13:26:27Z</time>
      </trkpt>
      <trkpt lat="38.4334440" lon="-2.4558950">
        <ele>1307.0</ele>
        <time>2019-11-01T13:26:28Z</time>
      </trkpt>
      <trkpt lat="38.4334980" lon="-2.4558790">
        <ele>1307.0</ele>
        <time>2019-11-01T13:26:29Z</time>
      </trkpt>
      <trkpt lat="38.4335510" lon="-2.4558640">
        <ele>1307.0</ele>
        <time>2019-11-01T13:26:30Z</time>
      </trkpt>
      <trkpt lat="38.4336050" lon="-2.4558510">
        <ele>1307.0</ele>
        <time>2019-11-01T13:26:31Z</time>
      </trkpt>
      <trkpt lat="38.4336590" lon="-2.4558390">
        <ele>1307.0</ele>
        <time>2019-11-01T13:26:32Z</time>
      </trkpt>
      <trkpt lat="38.4337130" lon="-2.4558320">
        <ele>1307.0</ele>
        <time>2019-11-01T13:26:33Z</time>
      </trkpt>
      <trkpt lat="38.4337660" lon="-2.4558250">
        <ele>1307.0</ele>
        <time>2019-11-01T13:26:34Z</time>
      </trkpt>
      <trkpt lat="38.4338250" lon="-2.4558200">
        <ele>1307.0</ele>
        <time>2019-11-01T13:26:35Z</time>
      </trkpt>
      <trkpt lat="38.4338790" lon="-2.4558150">
        <ele>1305.8</ele>
        <time>2019-11-01T13:26:36Z</time>
      </trkpt>
      <trkpt lat="38.4339380" lon="-2.4558110">
        <ele>1305.8</ele>
        <time>2019-11-01T13:26:37Z</time>
      </trkpt>
      <trkpt lat="38.4339940" lon="-2.4558070">
        <ele>1305.8</ele>
        <time>2019-11-01T13:26:38Z</time>
      </trkpt>
      <trkpt lat="38.4340510" lon="-2.4558020">
        <ele>1305.8</ele>
        <time>2019-11-01T13:26:39Z</time>
      </trkpt>
      <trkpt lat="38.4341120" lon="-2.4557950">
        <ele>1305.8</ele>
        <time>2019-11-01T13:26:40Z</time>
      </trkpt>
      <trkpt lat="38.4341730" lon="-2.4557880">
        <ele>1305.8</ele>
        <time>2019-11-01T13:26:41Z</time>
      </trkpt>
      <trkpt lat="38.4342350" lon="-2.4557810">
        <ele>1305.8</ele>
        <time>2019-11-01T13:26:42Z</time>
      </trkpt>
      <trkpt lat="38.4342960" lon="-2.4557700">
        <ele>1305.8</ele>
        <time>2019-11-01T13:26:43Z</time>
      </trkpt>
      <trkpt lat="38.4343530" lon="-2.4557580">
        <ele>1305.8</ele>
        <time>2019-11-01T13:26:44Z</time>
      </trkpt>
      <trkpt lat="38.4344140" lon="-2.4557430">
        <ele>1305.8</ele>
        <time>2019-11-01T13:26:45Z</time>
      </trkpt>
      <trkpt lat="38.4344780" lon="-2.4557240">
        <ele>1305.8</ele>
        <time>2019-11-01T13:26:46Z</time>
      </trkpt>
      <trkpt lat="38.4345370" lon="-2.4557070">
        <ele>1305.8</ele>
        <time>2019-11-01T13:26:47Z</time>
      </trkpt>
      <trkpt lat="38.4345960" lon="-2.4556890">
        <ele>1305.8</ele>
        <time>2019-11-01T13:26:48Z</time>
      </trkpt>
      <trkpt lat="38.4346550" lon="-2.4556710">
        <ele>1304.7</ele>
        <time>2019-11-01T13:26:49Z</time>
      </trkpt>
      <trkpt lat="38.4347110" lon="-2.4556550">
        <ele>1304.7</ele>
        <time>2019-11-01T13:26:50Z</time>
      </trkpt>
      <trkpt lat="38.4347650" lon="-2.4556400">
        <ele>1304.7</ele>
        <time>2019-11-01T13:26:51Z</time>
      </trkpt>
      <trkpt lat="38.4348110" lon="-2.4556230">
        <ele>1304.7</ele>
        <time>2019-11-01T13:26:52Z</time>
      </trkpt>
      <trkpt lat="38.4349030" lon="-2.4555880">
        <ele>1304.7</ele>
        <time>2019-11-01T13:26:54Z</time>
      </trkpt>
      <trkpt lat="38.4349820" lon="-2.4555500">
        <ele>1304.7</ele>
        <time>2019-11-01T13:26:56Z</time>
      </trkpt>
      <trkpt lat="38.4350590" lon="-2.4555040">
        <ele>1304.7</ele>
        <time>2019-11-01T13:26:58Z</time>
      </trkpt>
      <trkpt lat="38.4351230" lon="-2.4554370">
        <ele>1304.7</ele>
        <time>2019-11-01T13:27:00Z</time>
      </trkpt>
      <trkpt lat="38.4351870" lon="-2.4553590">
        <ele>1304.7</ele>
        <time>2019-11-01T13:27:02Z</time>
      </trkpt>
      <trkpt lat="38.4352410" lon="-2.4552740">
        <ele>1304.7</ele>
        <time>2019-11-01T13:27:04Z</time>
      </trkpt>
      <trkpt lat="38.4352950" lon="-2.4551960">
        <ele>1304.7</ele>
        <time>2019-11-01T13:27:06Z</time>
      </trkpt>
      <trkpt lat="38.4353460" lon="-2.4551280">
        <ele>1304.7</ele>
        <time>2019-11-01T13:27:08Z</time>
      </trkpt>
      <trkpt lat="38.4354020" lon="-2.4550500">
        <ele>1303.5</ele>
        <time>2019-11-01T13:27:10Z</time>
      </trkpt>
      <trkpt lat="38.4354560" lon="-2.4549750">
        <ele>1303.5</ele>
        <time>2019-11-01T13:27:12Z</time>
      </trkpt>
      <trkpt lat="38.4355200" lon="-2.4548920">
        <ele>1303.5</ele>
        <time>2019-11-01T13:27:14Z</time>
      </trkpt>
      <trkpt lat="38.4355530" lon="-2.4548490">
        <ele>1303.5</ele>
        <time>2019-11-01T13:27:15Z</time>
      </trkpt>
      <trkpt lat="38.4355970" lon="-2.4548020">
        <ele>1303.5</ele>
        <time>2019-11-01T13:27:16Z</time>
      </trkpt>
      <trkpt lat="38.4356350" lon="-2.4547600">
        <ele>1303.5</ele>
        <time>2019-11-01T13:27:17Z</time>
      </trkpt>
      <trkpt lat="38.4357200" lon="-2.4546870">
        <ele>1303.5</ele>
        <time>2019-11-01T13:27:19Z</time>
      </trkpt>
      <trkpt lat="38.4357630" lon="-2.4546520">
        <ele>1303.5</ele>
        <time>2019-11-01T13:27:20Z</time>
      </trkpt>
      <trkpt lat="38.4358530" lon="-2.4545790">
        <ele>1303.5</ele>
        <time>2019-11-01T13:27:22Z</time>
      </trkpt>
      <trkpt lat="38.4359320" lon="-2.4545100">
        <ele>1303.5</ele>
        <time>2019-11-01T13:27:24Z</time>
      </trkpt>
      <trkpt lat="38.4359710" lon="-2.4544780">
        <ele>1303.5</ele>
        <time>2019-11-01T13:27:25Z</time>
      </trkpt>
      <trkpt lat="38.4360420" lon="-2.4544190">
        <ele>1303.5</ele>
        <time>2019-11-01T13:27:27Z</time>
      </trkpt>
      <trkpt lat="38.4361240" lon="-2.4543490">
        <ele>1302.1</ele>
        <time>2019-11-01T13:27:29Z</time>
      </trkpt>
      <trkpt lat="38.4361600" lon="-2.4543110">
        <ele>1302.1</ele>
        <time>2019-11-01T13:27:30Z</time>
      </trkpt>
      <trkpt lat="38.4362290" lon="-2.4542360">
        <ele>1302.1</ele>
        <time>2019-11-01T13:27:32Z</time>
      </trkpt>
      <trkpt lat="38.4362960" lon="-2.4541680">
        <ele>1302.1</ele>
        <time>2019-11-01T13:27:34Z</time>
      </trkpt>
      <trkpt lat="38.4363620" lon="-2.4540980">
        <ele>1300.9</ele>
        <time>2019-11-01T13:27:36Z</time>
      </trkpt>
      <trkpt lat="38.4364310" lon="-2.4540350">
        <ele>1300.9</ele>
        <time>2019-11-01T13:27:38Z</time>
      </trkpt>
      <trkpt lat="38.4365060" lon="-2.4539710">
        <ele>1299.3</ele>
        <time>2019-11-01T13:27:40Z</time>
      </trkpt>
      <trkpt lat="38.4365770" lon="-2.4539100">
        <ele>1298.1</ele>
        <time>2019-11-01T13:27:42Z</time>
      </trkpt>
      <trkpt lat="38.4366460" lon="-2.4538510">
        <ele>1298.1</ele>
        <time>2019-11-01T13:27:44Z</time>
      </trkpt>
      <trkpt lat="38.4367130" lon="-2.4537930">
        <ele>1298.1</ele>
        <time>2019-11-01T13:27:46Z</time>
      </trkpt>
      <trkpt lat="38.4367800" lon="-2.4537330">
        <ele>1298.1</ele>
        <time>2019-11-01T13:27:48Z</time>
      </trkpt>
      <trkpt lat="38.4368490" lon="-2.4536590">
        <ele>1298.1</ele>
        <time>2019-11-01T13:27:50Z</time>
      </trkpt>
      <trkpt lat="38.4369130" lon="-2.4535790">
        <ele>1298.1</ele>
        <time>2019-11-01T13:27:52Z</time>
      </trkpt>
      <trkpt lat="38.4369690" lon="-2.4535080">
        <ele>1298.1</ele>
        <time>2019-11-01T13:27:54Z</time>
      </trkpt>
      <trkpt lat="38.4370360" lon="-2.4534420">
        <ele>1298.1</ele>
        <time>2019-11-01T13:27:56Z</time>
      </trkpt>
      <trkpt lat="38.4370940" lon="-2.4533730">
        <ele>1298.1</ele>
        <time>2019-11-01T13:27:58Z</time>
      </trkpt>
      <trkpt lat="38.4371530" lon="-2.4533050">
        <ele>1298.1</ele>
        <time>2019-11-01T13:28:00Z</time>
      </trkpt>
      <trkpt lat="38.4371990" lon="-2.4532340">
        <ele>1298.1</ele>
        <time>2019-11-01T13:28:02Z</time>
      </trkpt>
      <trkpt lat="38.4372380" lon="-2.4531700">
        <ele>1299.3</ele>
        <time>2019-11-01T13:28:04Z</time>
      </trkpt>
      <trkpt lat="38.4372710" lon="-2.4531080">
        <ele>1299.3</ele>
        <time>2019-11-01T13:28:06Z</time>
      </trkpt>
      <trkpt lat="38.4373090" lon="-2.4530470">
        <ele>1300.5</ele>
        <time>2019-11-01T13:28:08Z</time>
      </trkpt>
      <trkpt lat="38.4373560" lon="-2.4529790">
        <ele>1300.5</ele>
        <time>2019-11-01T13:28:10Z</time>
      </trkpt>
      <trkpt lat="38.4374090" lon="-2.4529150">
        <ele>1300.5</ele>
        <time>2019-11-01T13:28:12Z</time>
      </trkpt>
      <trkpt lat="38.4374760" lon="-2.4528480">
        <ele>1300.5</ele>
        <time>2019-11-01T13:28:14Z</time>
      </trkpt>
      <trkpt lat="38.4375450" lon="-2.4527820">
        <ele>1300.5</ele>
        <time>2019-11-01T13:28:16Z</time>
      </trkpt>
      <trkpt lat="38.4376120" lon="-2.4527230">
        <ele>1300.5</ele>
        <time>2019-11-01T13:28:18Z</time>
      </trkpt>
      <trkpt lat="38.4376700" lon="-2.4526730">
        <ele>1300.5</ele>
        <time>2019-11-01T13:28:20Z</time>
      </trkpt>
      <trkpt lat="38.4377370" lon="-2.4526290">
        <ele>1300.5</ele>
        <time>2019-11-01T13:28:22Z</time>
      </trkpt>
      <trkpt lat="38.4378060" lon="-2.4525760">
        <ele>1300.5</ele>
        <time>2019-11-01T13:28:24Z</time>
      </trkpt>
      <trkpt lat="38.4378650" lon="-2.4525190">
        <ele>1300.5</ele>
        <time>2019-11-01T13:28:26Z</time>
      </trkpt>
      <trkpt lat="38.4379260" lon="-2.4524570">
        <ele>1300.5</ele>
        <time>2019-11-01T13:28:28Z</time>
      </trkpt>
      <trkpt lat="38.4379800" lon="-2.4524000">
        <ele>1300.5</ele>
        <time>2019-11-01T13:28:30Z</time>
      </trkpt>
      <trkpt lat="38.4380420" lon="-2.4523470">
        <ele>1300.5</ele>
        <time>2019-11-01T13:28:32Z</time>
      </trkpt>
      <trkpt lat="38.4381180" lon="-2.4523000">
        <ele>1300.5</ele>
        <time>2019-11-01T13:28:34Z</time>
      </trkpt>
      <trkpt lat="38.4381950" lon="-2.4522580">
        <ele>1300.5</ele>
        <time>2019-11-01T13:28:36Z</time>
      </trkpt>
      <trkpt lat="38.4382690" lon="-2.4522160">
        <ele>1300.5</ele>
        <time>2019-11-01T13:28:38Z</time>
      </trkpt>
      <trkpt lat="38.4383440" lon="-2.4521680">
        <ele>1300.5</ele>
        <time>2019-11-01T13:28:40Z</time>
      </trkpt>
      <trkpt lat="38.4384080" lon="-2.4521150">
        <ele>1300.5</ele>
        <time>2019-11-01T13:28:42Z</time>
      </trkpt>
      <trkpt lat="38.4384770" lon="-2.4520620">
        <ele>1300.5</ele>
        <time>2019-11-01T13:28:44Z</time>
      </trkpt>
      <trkpt lat="38.4385480" lon="-2.4520100">
        <ele>1300.5</ele>
        <time>2019-11-01T13:28:46Z</time>
      </trkpt>
      <trkpt lat="38.4386250" lon="-2.4519550">
        <ele>1300.5</ele>
        <time>2019-11-01T13:28:48Z</time>
      </trkpt>
      <trkpt lat="38.4387020" lon="-2.4519000">
        <ele>1300.5</ele>
        <time>2019-11-01T13:28:50Z</time>
      </trkpt>
      <trkpt lat="38.4387710" lon="-2.4518560">
        <ele>1299.3</ele>
        <time>2019-11-01T13:28:52Z</time>
      </trkpt>
      <trkpt lat="38.4388300" lon="-2.4518200">
        <ele>1299.3</ele>
        <time>2019-11-01T13:28:54Z</time>
      </trkpt>
      <trkpt lat="38.4388660" lon="-2.4517970">
        <ele>1299.3</ele>
        <time>2019-11-01T13:28:56Z</time>
      </trkpt>
      <trkpt lat="38.4389350" lon="-2.4517350">
        <ele>1299.3</ele>
        <time>2019-11-01T13:29:12Z</time>
      </trkpt>
      <trkpt lat="38.4389890" lon="-2.4516960">
        <ele>1298.0</ele>
        <time>2019-11-01T13:29:14Z</time>
      </trkpt>
      <trkpt lat="38.4390600" lon="-2.4516470">
        <ele>1298.0</ele>
        <time>2019-11-01T13:29:16Z</time>
      </trkpt>
      <trkpt lat="38.4391400" lon="-2.4515940">
        <ele>1298.0</ele>
        <time>2019-11-01T13:29:18Z</time>
      </trkpt>
      <trkpt lat="38.4392190" lon="-2.4515360">
        <ele>1298.0</ele>
        <time>2019-11-01T13:29:20Z</time>
      </trkpt>
      <trkpt lat="38.4393090" lon="-2.4514740">
        <ele>1298.0</ele>
        <time>2019-11-01T13:29:22Z</time>
      </trkpt>
      <trkpt lat="38.4393550" lon="-2.4514450">
        <ele>1298.0</ele>
        <time>2019-11-01T13:29:23Z</time>
      </trkpt>
      <trkpt lat="38.4394500" lon="-2.4513990">
        <ele>1298.0</ele>
        <time>2019-11-01T13:29:25Z</time>
      </trkpt>
      <trkpt lat="38.4395490" lon="-2.4513590">
        <ele>1298.0</ele>
        <time>2019-11-01T13:29:27Z</time>
      </trkpt>
      <trkpt lat="38.4396010" lon="-2.4513330">
        <ele>1298.0</ele>
        <time>2019-11-01T13:29:28Z</time>
      </trkpt>
      <trkpt lat="38.4396520" lon="-2.4513030">
        <ele>1298.0</ele>
        <time>2019-11-01T13:29:29Z</time>
      </trkpt>
      <trkpt lat="38.4397000" lon="-2.4512720">
        <ele>1298.0</ele>
        <time>2019-11-01T13:29:30Z</time>
      </trkpt>
      <trkpt lat="38.4397470" lon="-2.4512360">
        <ele>1298.0</ele>
        <time>2019-11-01T13:29:31Z</time>
      </trkpt>
      <trkpt lat="38.4397930" lon="-2.4511980">
        <ele>1298.0</ele>
        <time>2019-11-01T13:29:32Z</time>
      </trkpt>
      <trkpt lat="38.4398410" lon="-2.4511590">
        <ele>1298.0</ele>
        <time>2019-11-01T13:29:33Z</time>
      </trkpt>
      <trkpt lat="38.4398850" lon="-2.4511210">
        <ele>1298.0</ele>
        <time>2019-11-01T13:29:34Z</time>
      </trkpt>
      <trkpt lat="38.4399230" lon="-2.4510880">
        <ele>1298.0</ele>
        <time>2019-11-01T13:29:35Z</time>
      </trkpt>
      <trkpt lat="38.4399970" lon="-2.4510180">
        <ele>1298.0</ele>
        <time>2019-11-01T13:29:37Z</time>
      </trkpt>
      <trkpt lat="38.4400590" lon="-2.4509560">
        <ele>1298.0</ele>
        <time>2019-11-01T13:29:39Z</time>
      </trkpt>
      <trkpt lat="38.4401020" lon="-2.4509080">
        <ele>1298.0</ele>
        <time>2019-11-01T13:29:41Z</time>
      </trkpt>
      <trkpt lat="38.4401330" lon="-2.4508800">
        <ele>1296.8</ele>
        <time>2019-11-01T13:29:43Z</time>
      </trkpt>
      <trkpt lat="38.4402150" lon="-2.4508590">
        <ele>1296.8</ele>
        <time>2019-11-01T13:30:15Z</time>
      </trkpt>
      <trkpt lat="38.4402970" lon="-2.4508490">
        <ele>1296.8</ele>
        <time>2019-11-01T13:30:18Z</time>
      </trkpt>
      <trkpt lat="38.4403610" lon="-2.4508520">
        <ele>1296.8</ele>
        <time>2019-11-01T13:30:20Z</time>
      </trkpt>
      <trkpt lat="38.4404400" lon="-2.4508520">
        <ele>1296.8</ele>
        <time>2019-11-01T13:30:22Z</time>
      </trkpt>
      <trkpt lat="38.4405250" lon="-2.4508350">
        <ele>1295.5</ele>
        <time>2019-11-01T13:30:24Z</time>
      </trkpt>
      <trkpt lat="38.4406040" lon="-2.4508000">
        <ele>1295.5</ele>
        <time>2019-11-01T13:30:26Z</time>
      </trkpt>
      <trkpt lat="38.4406810" lon="-2.4507670">
        <ele>1295.5</ele>
        <time>2019-11-01T13:30:28Z</time>
      </trkpt>
      <trkpt lat="38.4407600" lon="-2.4507430">
        <ele>1296.8</ele>
        <time>2019-11-01T13:30:30Z</time>
      </trkpt>
      <trkpt lat="38.4408450" lon="-2.4507320">
        <ele>1296.8</ele>
        <time>2019-11-01T13:30:32Z</time>
      </trkpt>
      <trkpt lat="38.4409270" lon="-2.4507180">
        <ele>1298.1</ele>
        <time>2019-11-01T13:30:34Z</time>
      </trkpt>
      <trkpt lat="38.4410060" lon="-2.4506980">
        <ele>1298.1</ele>
        <time>2019-11-01T13:30:36Z</time>
      </trkpt>
      <trkpt lat="38.4410930" lon="-2.4506670">
        <ele>1299.4</ele>
        <time>2019-11-01T13:30:38Z</time>
      </trkpt>
      <trkpt lat="38.4411780" lon="-2.4506260">
        <ele>1299.4</ele>
        <time>2019-11-01T13:30:40Z</time>
      </trkpt>
      <trkpt lat="38.4412650" lon="-2.4505810">
        <ele>1299.4</ele>
        <time>2019-11-01T13:30:42Z</time>
      </trkpt>
      <trkpt lat="38.4413410" lon="-2.4505390">
        <ele>1299.4</ele>
        <time>2019-11-01T13:30:44Z</time>
      </trkpt>
      <trkpt lat="38.4414130" lon="-2.4504930">
        <ele>1299.4</ele>
        <time>2019-11-01T13:30:46Z</time>
      </trkpt>
      <trkpt lat="38.4414820" lon="-2.4504540">
        <ele>1299.4</ele>
        <time>2019-11-01T13:30:48Z</time>
      </trkpt>
      <trkpt lat="38.4415460" lon="-2.4504150">
        <ele>1299.4</ele>
        <time>2019-11-01T13:30:50Z</time>
      </trkpt>
      <trkpt lat="38.4416200" lon="-2.4503710">
        <ele>1299.4</ele>
        <time>2019-11-01T13:30:52Z</time>
      </trkpt>
      <trkpt lat="38.4416970" lon="-2.4503190">
        <ele>1299.4</ele>
        <time>2019-11-01T13:30:54Z</time>
      </trkpt>
      <trkpt lat="38.4417770" lon="-2.4502670">
        <ele>1298.2</ele>
        <time>2019-11-01T13:30:56Z</time>
      </trkpt>
      <trkpt lat="38.4418690" lon="-2.4502140">
        <ele>1298.2</ele>
        <time>2019-11-01T13:30:58Z</time>
      </trkpt>
      <trkpt lat="38.4419170" lon="-2.4501890">
        <ele>1298.2</ele>
        <time>2019-11-01T13:30:59Z</time>
      </trkpt>
      <trkpt lat="38.4420120" lon="-2.4501490">
        <ele>1298.2</ele>
        <time>2019-11-01T13:31:01Z</time>
      </trkpt>
      <trkpt lat="38.4420630" lon="-2.4501310">
        <ele>1298.2</ele>
        <time>2019-11-01T13:31:02Z</time>
      </trkpt>
      <trkpt lat="38.4421070" lon="-2.4501130">
        <ele>1298.2</ele>
        <time>2019-11-01T13:31:03Z</time>
      </trkpt>
      <trkpt lat="38.4422040" lon="-2.4500700">
        <ele>1298.2</ele>
        <time>2019-11-01T13:31:05Z</time>
      </trkpt>
      <trkpt lat="38.4422530" lon="-2.4500440">
        <ele>1298.2</ele>
        <time>2019-11-01T13:31:06Z</time>
      </trkpt>
      <trkpt lat="38.4422960" lon="-2.4500150">
        <ele>1298.2</ele>
        <time>2019-11-01T13:31:07Z</time>
      </trkpt>
      <trkpt lat="38.4423370" lon="-2.4499870">
        <ele>1298.2</ele>
        <time>2019-11-01T13:31:08Z</time>
      </trkpt>
      <trkpt lat="38.4424220" lon="-2.4499260">
        <ele>1298.2</ele>
        <time>2019-11-01T13:31:10Z</time>
      </trkpt>
      <trkpt lat="38.4425010" lon="-2.4498540">
        <ele>1298.2</ele>
        <time>2019-11-01T13:31:12Z</time>
      </trkpt>
      <trkpt lat="38.4425930" lon="-2.4497670">
        <ele>1298.2</ele>
        <time>2019-11-01T13:31:14Z</time>
      </trkpt>
      <trkpt lat="38.4426390" lon="-2.4497220">
        <ele>1298.2</ele>
        <time>2019-11-01T13:31:15Z</time>
      </trkpt>
      <trkpt lat="38.4426800" lon="-2.4496770">
        <ele>1298.2</ele>
        <time>2019-11-01T13:31:16Z</time>
      </trkpt>
      <trkpt lat="38.4427210" lon="-2.4496300">
        <ele>1298.2</ele>
        <time>2019-11-01T13:31:17Z</time>
      </trkpt>
      <trkpt lat="38.4427670" lon="-2.4495740">
        <ele>1298.2</ele>
        <time>2019-11-01T13:31:18Z</time>
      </trkpt>
      <trkpt lat="38.4428110" lon="-2.4495160">
        <ele>1298.2</ele>
        <time>2019-11-01T13:31:19Z</time>
      </trkpt>
      <trkpt lat="38.4428520" lon="-2.4494560">
        <ele>1298.2</ele>
        <time>2019-11-01T13:31:20Z</time>
      </trkpt>
      <trkpt lat="38.4428930" lon="-2.4493950">
        <ele>1298.2</ele>
        <time>2019-11-01T13:31:21Z</time>
      </trkpt>
      <trkpt lat="38.4429290" lon="-2.4493390">
        <ele>1298.2</ele>
        <time>2019-11-01T13:31:22Z</time>
      </trkpt>
      <trkpt lat="38.4429620" lon="-2.4492870">
        <ele>1298.2</ele>
        <time>2019-11-01T13:31:23Z</time>
      </trkpt>
      <trkpt lat="38.4429980" lon="-2.4492270">
        <ele>1296.9</ele>
        <time>2019-11-01T13:31:24Z</time>
      </trkpt>
      <trkpt lat="38.4430360" lon="-2.4491680">
        <ele>1296.9</ele>
        <time>2019-11-01T13:31:25Z</time>
      </trkpt>
      <trkpt lat="38.4430720" lon="-2.4491110">
        <ele>1296.9</ele>
        <time>2019-11-01T13:31:26Z</time>
      </trkpt>
      <trkpt lat="38.4431100" lon="-2.4490590">
        <ele>1296.9</ele>
        <time>2019-11-01T13:31:27Z</time>
      </trkpt>
      <trkpt lat="38.4431540" lon="-2.4490030">
        <ele>1296.9</ele>
        <time>2019-11-01T13:31:28Z</time>
      </trkpt>
      <trkpt lat="38.4432000" lon="-2.4489480">
        <ele>1296.9</ele>
        <time>2019-11-01T13:31:29Z</time>
      </trkpt>
      <trkpt lat="38.4432410" lon="-2.4488990">
        <ele>1296.9</ele>
        <time>2019-11-01T13:31:30Z</time>
      </trkpt>
      <trkpt lat="38.4432870" lon="-2.4488550">
        <ele>1296.9</ele>
        <time>2019-11-01T13:31:31Z</time>
      </trkpt>
      <trkpt lat="38.4433280" lon="-2.4488140">
        <ele>1296.9</ele>
        <time>2019-11-01T13:31:32Z</time>
      </trkpt>
      <trkpt lat="38.4433740" lon="-2.4487730">
        <ele>1296.9</ele>
        <time>2019-11-01T13:31:33Z</time>
      </trkpt>
      <trkpt lat="38.4434250" lon="-2.4487350">
        <ele>1296.9</ele>
        <time>2019-11-01T13:31:34Z</time>
      </trkpt>
      <trkpt lat="38.4434740" lon="-2.4486980">
        <ele>1296.9</ele>
        <time>2019-11-01T13:31:35Z</time>
      </trkpt>
      <trkpt lat="38.4435230" lon="-2.4486620">
        <ele>1296.9</ele>
        <time>2019-11-01T13:31:36Z</time>
      </trkpt>
      <trkpt lat="38.4435760" lon="-2.4486290">
        <ele>1296.9</ele>
        <time>2019-11-01T13:31:37Z</time>
      </trkpt>
      <trkpt lat="38.4436220" lon="-2.4485960">
        <ele>1296.9</ele>
        <time>2019-11-01T13:31:38Z</time>
      </trkpt>
      <trkpt lat="38.4436790" lon="-2.4485590">
        <ele>1296.9</ele>
        <time>2019-11-01T13:31:39Z</time>
      </trkpt>
      <trkpt lat="38.4437300" lon="-2.4485220">
        <ele>1296.9</ele>
        <time>2019-11-01T13:31:40Z</time>
      </trkpt>
      <trkpt lat="38.4437760" lon="-2.4484860">
        <ele>1296.9</ele>
        <time>2019-11-01T13:31:41Z</time>
      </trkpt>
      <trkpt lat="38.4438220" lon="-2.4484470">
        <ele>1296.9</ele>
        <time>2019-11-01T13:31:42Z</time>
      </trkpt>
      <trkpt lat="38.4438580" lon="-2.4484130">
        <ele>1296.9</ele>
        <time>2019-11-01T13:31:43Z</time>
      </trkpt>
      <trkpt lat="38.4439010" lon="-2.4483770">
        <ele>1296.9</ele>
        <time>2019-11-01T13:31:44Z</time>
      </trkpt>
      <trkpt lat="38.4439730" lon="-2.4483170">
        <ele>1296.9</ele>
        <time>2019-11-01T13:31:46Z</time>
      </trkpt>
      <trkpt lat="38.4440450" lon="-2.4482650">
        <ele>1296.9</ele>
        <time>2019-11-01T13:31:48Z</time>
      </trkpt>
      <trkpt lat="38.4441220" lon="-2.4482220">
        <ele>1296.9</ele>
        <time>2019-11-01T13:31:50Z</time>
      </trkpt>
      <trkpt lat="38.4441910" lon="-2.4481910">
        <ele>1298.1</ele>
        <time>2019-11-01T13:31:52Z</time>
      </trkpt>
      <trkpt lat="38.4442600" lon="-2.4481590">
        <ele>1298.1</ele>
        <time>2019-11-01T13:31:54Z</time>
      </trkpt>
      <trkpt lat="38.4443210" lon="-2.4481240">
        <ele>1298.1</ele>
        <time>2019-11-01T13:31:56Z</time>
      </trkpt>
      <trkpt lat="38.4443700" lon="-2.4480850">
        <ele>1298.1</ele>
        <time>2019-11-01T13:31:58Z</time>
      </trkpt>
      <trkpt lat="38.4444160" lon="-2.4480410">
        <ele>1298.1</ele>
        <time>2019-11-01T13:32:00Z</time>
      </trkpt>
      <trkpt lat="38.4444650" lon="-2.4479910">
        <ele>1298.1</ele>
        <time>2019-11-01T13:32:02Z</time>
      </trkpt>
      <trkpt lat="38.4445260" lon="-2.4479380">
        <ele>1299.4</ele>
        <time>2019-11-01T13:32:04Z</time>
      </trkpt>
      <trkpt lat="38.4445880" lon="-2.4478880">
        <ele>1299.4</ele>
        <time>2019-11-01T13:32:06Z</time>
      </trkpt>
      <trkpt lat="38.4446570" lon="-2.4478340">
        <ele>1299.4</ele>
        <time>2019-11-01T13:32:08Z</time>
      </trkpt>
      <trkpt lat="38.4447260" lon="-2.4477790">
        <ele>1299.4</ele>
        <time>2019-11-01T13:32:10Z</time>
      </trkpt>
      <trkpt lat="38.4447820" lon="-2.4477340">
        <ele>1299.4</ele>
        <time>2019-11-01T13:32:12Z</time>
      </trkpt>
      <trkpt lat="38.4448380" lon="-2.4476910">
        <ele>1300.6</ele>
        <time>2019-11-01T13:32:14Z</time>
      </trkpt>
      <trkpt lat="38.4448970" lon="-2.4476520">
        <ele>1300.6</ele>
        <time>2019-11-01T13:32:16Z</time>
      </trkpt>
      <trkpt lat="38.4449590" lon="-2.4476140">
        <ele>1300.6</ele>
        <time>2019-11-01T13:32:18Z</time>
      </trkpt>
      <trkpt lat="38.4450180" lon="-2.4475660">
        <ele>1300.6</ele>
        <time>2019-11-01T13:32:20Z</time>
      </trkpt>
      <trkpt lat="38.4450760" lon="-2.4475110">
        <ele>1301.8</ele>
        <time>2019-11-01T13:32:22Z</time>
      </trkpt>
      <trkpt lat="38.4451250" lon="-2.4474570">
        <ele>1301.8</ele>
        <time>2019-11-01T13:32:24Z</time>
      </trkpt>
      <trkpt lat="38.4451690" lon="-2.4474070">
        <ele>1301.8</ele>
        <time>2019-11-01T13:32:26Z</time>
      </trkpt>
      <trkpt lat="38.4452020" lon="-2.4473640">
        <ele>1301.8</ele>
        <time>2019-11-01T13:32:28Z</time>
      </trkpt>
      <trkpt lat="38.4452400" lon="-2.4473250">
        <ele>1303.0</ele>
        <time>2019-11-01T13:32:30Z</time>
      </trkpt>
      <trkpt lat="38.4452970" lon="-2.4472690">
        <ele>1303.0</ele>
        <time>2019-11-01T13:32:33Z</time>
      </trkpt>
      <trkpt lat="38.4453560" lon="-2.4472200">
        <ele>1303.0</ele>
        <time>2019-11-01T13:32:36Z</time>
      </trkpt>
      <trkpt lat="38.4454040" lon="-2.4471690">
        <ele>1303.0</ele>
        <time>2019-11-01T13:32:39Z</time>
      </trkpt>
      <trkpt lat="38.4454660" lon="-2.4471000">
        <ele>1303.0</ele>
        <time>2019-11-01T13:32:42Z</time>
      </trkpt>
      <trkpt lat="38.4455190" lon="-2.4470290">
        <ele>1303.0</ele>
        <time>2019-11-01T13:32:44Z</time>
      </trkpt>
      <trkpt lat="38.4455760" lon="-2.4469490">
        <ele>1303.0</ele>
        <time>2019-11-01T13:32:46Z</time>
      </trkpt>
      <trkpt lat="38.4456400" lon="-2.4468630">
        <ele>1301.6</ele>
        <time>2019-11-01T13:32:48Z</time>
      </trkpt>
      <trkpt lat="38.4457010" lon="-2.4467880">
        <ele>1301.6</ele>
        <time>2019-11-01T13:32:50Z</time>
      </trkpt>
      <trkpt lat="38.4457780" lon="-2.4466980">
        <ele>1300.1</ele>
        <time>2019-11-01T13:32:53Z</time>
      </trkpt>
      <trkpt lat="38.4458190" lon="-2.4466530">
        <ele>1300.1</ele>
        <time>2019-11-01T13:32:54Z</time>
      </trkpt>
      <trkpt lat="38.4458570" lon="-2.4466130">
        <ele>1300.1</ele>
        <time>2019-11-01T13:32:55Z</time>
      </trkpt>
      <trkpt lat="38.4459010" lon="-2.4465740">
        <ele>1298.9</ele>
        <time>2019-11-01T13:32:56Z</time>
      </trkpt>
      <trkpt lat="38.4459720" lon="-2.4465100">
        <ele>1298.9</ele>
        <time>2019-11-01T13:32:58Z</time>
      </trkpt>
      <trkpt lat="38.4460360" lon="-2.4464510">
        <ele>1298.9</ele>
        <time>2019-11-01T13:33:00Z</time>
      </trkpt>
      <trkpt lat="38.4460980" lon="-2.4463900">
        <ele>1298.9</ele>
        <time>2019-11-01T13:33:02Z</time>
      </trkpt>
      <trkpt lat="38.4461520" lon="-2.4463270">
        <ele>1298.9</ele>
        <time>2019-11-01T13:33:04Z</time>
      </trkpt>
      <trkpt lat="38.4462050" lon="-2.4462690">
        <ele>1298.9</ele>
        <time>2019-11-01T13:33:06Z</time>
      </trkpt>
      <trkpt lat="38.4462620" lon="-2.4462140">
        <ele>1300.1</ele>
        <time>2019-11-01T13:33:08Z</time>
      </trkpt>
      <trkpt lat="38.4463230" lon="-2.4461600">
        <ele>1300.1</ele>
        <time>2019-11-01T13:33:10Z</time>
      </trkpt>
      <trkpt lat="38.4463870" lon="-2.4460990">
        <ele>1300.1</ele>
        <time>2019-11-01T13:33:12Z</time>
      </trkpt>
      <trkpt lat="38.4464560" lon="-2.4460470">
        <ele>1300.1</ele>
        <time>2019-11-01T13:33:14Z</time>
      </trkpt>
      <trkpt lat="38.4465310" lon="-2.4460020">
        <ele>1300.1</ele>
        <time>2019-11-01T13:33:16Z</time>
      </trkpt>
      <trkpt lat="38.4465970" lon="-2.4459600">
        <ele>1300.1</ele>
        <time>2019-11-01T13:33:18Z</time>
      </trkpt>
      <trkpt lat="38.4466640" lon="-2.4459170">
        <ele>1300.1</ele>
        <time>2019-11-01T13:33:20Z</time>
      </trkpt>
      <trkpt lat="38.4467170" lon="-2.4458790">
        <ele>1300.1</ele>
        <time>2019-11-01T13:33:22Z</time>
      </trkpt>
      <trkpt lat="38.4467740" lon="-2.4458510">
        <ele>1300.1</ele>
        <time>2019-11-01T13:33:24Z</time>
      </trkpt>
      <trkpt lat="38.4468300" lon="-2.4458340">
        <ele>1300.1</ele>
        <time>2019-11-01T13:33:26Z</time>
      </trkpt>
      <trkpt lat="38.4468840" lon="-2.4458170">
        <ele>1300.1</ele>
        <time>2019-11-01T13:33:28Z</time>
      </trkpt>
      <trkpt lat="38.4469610" lon="-2.4457730">
        <ele>1301.3</ele>
        <time>2019-11-01T13:33:31Z</time>
      </trkpt>
      <trkpt lat="38.4470070" lon="-2.4457300">
        <ele>1301.3</ele>
        <time>2019-11-01T13:33:33Z</time>
      </trkpt>
      <trkpt lat="38.4470450" lon="-2.4456800">
        <ele>1301.3</ele>
        <time>2019-11-01T13:33:35Z</time>
      </trkpt>
      <trkpt lat="38.4470840" lon="-2.4456290">
        <ele>1302.5</ele>
        <time>2019-11-01T13:33:37Z</time>
      </trkpt>
      <trkpt lat="38.4471220" lon="-2.4455720">
        <ele>1302.5</ele>
        <time>2019-11-01T13:33:39Z</time>
      </trkpt>
      <trkpt lat="38.4471550" lon="-2.4455190">
        <ele>1303.8</ele>
        <time>2019-11-01T13:33:41Z</time>
      </trkpt>
      <trkpt lat="38.4471880" lon="-2.4454720">
        <ele>1303.8</ele>
        <time>2019-11-01T13:33:43Z</time>
      </trkpt>
      <trkpt lat="38.4472270" lon="-2.4454300">
        <ele>1303.8</ele>
        <time>2019-11-01T13:33:45Z</time>
      </trkpt>
      <trkpt lat="38.4472700" lon="-2.4453750">
        <ele>1302.5</ele>
        <time>2019-11-01T13:33:48Z</time>
      </trkpt>
      <trkpt lat="38.4473190" lon="-2.4453230">
        <ele>1302.5</ele>
        <time>2019-11-01T13:33:51Z</time>
      </trkpt>
      <trkpt lat="38.4473800" lon="-2.4452830">
        <ele>1302.5</ele>
        <time>2019-11-01T13:33:54Z</time>
      </trkpt>
      <trkpt lat="38.4474290" lon="-2.4452460">
        <ele>1302.5</ele>
        <time>2019-11-01T13:33:57Z</time>
      </trkpt>
      <trkpt lat="38.4474750" lon="-2.4452080">
        <ele>1302.5</ele>
        <time>2019-11-01T13:34:00Z</time>
      </trkpt>
      <trkpt lat="38.4475110" lon="-2.4451640">
        <ele>1303.8</ele>
        <time>2019-11-01T13:34:03Z</time>
      </trkpt>
      <trkpt lat="38.4475390" lon="-2.4451140">
        <ele>1303.8</ele>
        <time>2019-11-01T13:34:06Z</time>
      </trkpt>
      <trkpt lat="38.4475620" lon="-2.4450540">
        <ele>1305.0</ele>
        <time>2019-11-01T13:34:09Z</time>
      </trkpt>
      <trkpt lat="38.4475830" lon="-2.4449970">
        <ele>1305.0</ele>
        <time>2019-11-01T13:34:12Z</time>
      </trkpt>
      <trkpt lat="38.4476010" lon="-2.4449260">
        <ele>1305.0</ele>
        <time>2019-11-01T13:34:17Z</time>
      </trkpt>
      <trkpt lat="38.4476060" lon="-2.4448570">
        <ele>1306.2</ele>
        <time>2019-11-01T13:34:22Z</time>
      </trkpt>
      <trkpt lat="38.4476080" lon="-2.4447930">
        <ele>1307.4</ele>
        <time>2019-11-01T13:34:27Z</time>
      </trkpt>
      <trkpt lat="38.4476210" lon="-2.4447290">
        <ele>1307.4</ele>
        <time>2019-11-01T13:34:32Z</time>
      </trkpt>
      <trkpt lat="38.4476360" lon="-2.4446640">
        <ele>1307.4</ele>
        <time>2019-11-01T13:34:37Z</time>
      </trkpt>
      <trkpt lat="38.4476700" lon="-2.4446000">
        <ele>1307.4</ele>
        <time>2019-11-01T13:34:42Z</time>
      </trkpt>
      <trkpt lat="38.4477030" lon="-2.4445450">
        <ele>1309.9</ele>
        <time>2019-11-01T13:34:47Z</time>
      </trkpt>
      <trkpt lat="38.4477390" lon="-2.4444850">
        <ele>1309.9</ele>
        <time>2019-11-01T13:34:52Z</time>
      </trkpt>
      <trkpt lat="38.4477640" lon="-2.4444260">
        <ele>1311.1</ele>
        <time>2019-11-01T13:34:57Z</time>
      </trkpt>
      <trkpt lat="38.4477880" lon="-2.4443580">
        <ele>1311.1</ele>
        <time>2019-11-01T13:35:02Z</time>
      </trkpt>
      <trkpt lat="38.4477950" lon="-2.4443010">
        <ele>1312.8</ele>
        <time>2019-11-01T13:35:06Z</time>
      </trkpt>
      <trkpt lat="38.4478000" lon="-2.4442470">
        <ele>1315.6</ele>
        <time>2019-11-01T13:35:10Z</time>
      </trkpt>
      <trkpt lat="38.4477930" lon="-2.4441910">
        <ele>1315.6</ele>
        <time>2019-11-01T13:35:15Z</time>
      </trkpt>
      <trkpt lat="38.4478160" lon="-2.4441310">
        <ele>1316.8</ele>
        <time>2019-11-01T13:35:20Z</time>
      </trkpt>
      <trkpt lat="38.4478460" lon="-2.4440750">
        <ele>1318.0</ele>
        <time>2019-11-01T13:35:25Z</time>
      </trkpt>
      <trkpt lat="38.4478770" lon="-2.4440240">
        <ele>1319.2</ele>
        <time>2019-11-01T13:35:29Z</time>
      </trkpt>
      <trkpt lat="38.4479130" lon="-2.4439740">
        <ele>1319.2</ele>
        <time>2019-11-01T13:35:33Z</time>
      </trkpt>
      <trkpt lat="38.4479440" lon="-2.4439210">
        <ele>1319.2</ele>
        <time>2019-11-01T13:35:37Z</time>
      </trkpt>
      <trkpt lat="38.4479720" lon="-2.4438690">
        <ele>1319.2</ele>
        <time>2019-11-01T13:35:41Z</time>
      </trkpt>
      <trkpt lat="38.4480050" lon="-2.4438130">
        <ele>1319.2</ele>
        <time>2019-11-01T13:35:46Z</time>
      </trkpt>
      <trkpt lat="38.4480330" lon="-2.4437450">
        <ele>1319.2</ele>
        <time>2019-11-01T13:35:52Z</time>
      </trkpt>
      <trkpt lat="38.4480490" lon="-2.4436780">
        <ele>1320.4</ele>
        <time>2019-11-01T13:35:56Z</time>
      </trkpt>
      <trkpt lat="38.4480560" lon="-2.4436090">
        <ele>1320.4</ele>
        <time>2019-11-01T13:36:00Z</time>
      </trkpt>
      <trkpt lat="38.4480720" lon="-2.4435470">
        <ele>1320.4</ele>
        <time>2019-11-01T13:36:04Z</time>
      </trkpt>
      <trkpt lat="38.4480970" lon="-2.4434790">
        <ele>1320.4</ele>
        <time>2019-11-01T13:36:09Z</time>
      </trkpt>
      <trkpt lat="38.4481460" lon="-2.4433280">
        <ele>1320.4</ele>
        <time>2019-11-01T13:36:38Z</time>
      </trkpt>
      <trkpt lat="38.4481540" lon="-2.4433020">
        <ele>1325.0</ele>
        <time>2019-11-01T13:36:41Z</time>
      </trkpt>
      <trkpt lat="38.4481510" lon="-2.4432340">
        <ele>1325.0</ele>
        <time>2019-11-01T13:36:48Z</time>
      </trkpt>
      <trkpt lat="38.4481380" lon="-2.4431630">
        <ele>1325.0</ele>
        <time>2019-11-01T13:36:52Z</time>
      </trkpt>
      <trkpt lat="38.4481360" lon="-2.4430800">
        <ele>1325.0</ele>
        <time>2019-11-01T13:36:56Z</time>
      </trkpt>
      <trkpt lat="38.4481310" lon="-2.4430120">
        <ele>1327.1</ele>
        <time>2019-11-01T13:36:59Z</time>
      </trkpt>
      <trkpt lat="38.4481360" lon="-2.4429470">
        <ele>1327.1</ele>
        <time>2019-11-01T13:37:02Z</time>
      </trkpt>
      <trkpt lat="38.4481380" lon="-2.4428880">
        <ele>1327.1</ele>
        <time>2019-11-01T13:37:05Z</time>
      </trkpt>
      <trkpt lat="38.4481430" lon="-2.4428230">
        <ele>1327.1</ele>
        <time>2019-11-01T13:37:09Z</time>
      </trkpt>
      <trkpt lat="38.4481540" lon="-2.4427540">
        <ele>1327.1</ele>
        <time>2019-11-01T13:37:14Z</time>
      </trkpt>
      <trkpt lat="38.4481510" lon="-2.4426950">
        <ele>1329.6</ele>
        <time>2019-11-01T13:37:18Z</time>
      </trkpt>
      <trkpt lat="38.4483000" lon="-2.4421310">
        <ele>1333.7</ele>
        <time>2019-11-01T13:38:19Z</time>
      </trkpt>
      <trkpt lat="38.4483000" lon="-2.4420830">
        <ele>1336.1</ele>
        <time>2019-11-01T13:38:23Z</time>
      </trkpt>
      <trkpt lat="38.4483000" lon="-2.4420170">
        <ele>1336.1</ele>
        <time>2019-11-01T13:38:28Z</time>
      </trkpt>
      <trkpt lat="38.4483100" lon="-2.4419450">
        <ele>1336.1</ele>
        <time>2019-11-01T13:38:33Z</time>
      </trkpt>
      <trkpt lat="38.4483250" lon="-2.4418660">
        <ele>1336.1</ele>
        <time>2019-11-01T13:38:38Z</time>
      </trkpt>
      <trkpt lat="38.4483530" lon="-2.4418100">
        <ele>1338.2</ele>
        <time>2019-11-01T13:38:41Z</time>
      </trkpt>
      <trkpt lat="38.4483710" lon="-2.4417510">
        <ele>1338.2</ele>
        <time>2019-11-01T13:38:44Z</time>
      </trkpt>
      <trkpt lat="38.4483920" lon="-2.4416810">
        <ele>1338.2</ele>
        <time>2019-11-01T13:38:47Z</time>
      </trkpt>
      <trkpt lat="38.4484100" lon="-2.4416100">
        <ele>1338.2</ele>
        <time>2019-11-01T13:38:50Z</time>
      </trkpt>
      <trkpt lat="38.4484250" lon="-2.4415440">
        <ele>1340.2</ele>
        <time>2019-11-01T13:38:53Z</time>
      </trkpt>
      <trkpt lat="38.4484530" lon="-2.4414830">
        <ele>1340.2</ele>
        <time>2019-11-01T13:38:56Z</time>
      </trkpt>
      <trkpt lat="38.4484760" lon="-2.4414230">
        <ele>1340.2</ele>
        <time>2019-11-01T13:38:59Z</time>
      </trkpt>
      <trkpt lat="38.4484860" lon="-2.4413490">
        <ele>1340.2</ele>
        <time>2019-11-01T13:39:03Z</time>
      </trkpt>
      <trkpt lat="38.4485170" lon="-2.4412760">
        <ele>1340.2</ele>
        <time>2019-11-01T13:39:07Z</time>
      </trkpt>
      <trkpt lat="38.4485350" lon="-2.4412180">
        <ele>1342.2</ele>
        <time>2019-11-01T13:39:10Z</time>
      </trkpt>
      <trkpt lat="38.4485560" lon="-2.4411410">
        <ele>1342.2</ele>
        <time>2019-11-01T13:39:14Z</time>
      </trkpt>
      <trkpt lat="38.4485710" lon="-2.4410680">
        <ele>1342.2</ele>
        <time>2019-11-01T13:39:18Z</time>
      </trkpt>
      <trkpt lat="38.4485860" lon="-2.4410100">
        <ele>1342.2</ele>
        <time>2019-11-01T13:39:21Z</time>
      </trkpt>
      <trkpt lat="38.4486040" lon="-2.4409240">
        <ele>1342.2</ele>
        <time>2019-11-01T13:39:25Z</time>
      </trkpt>
      <trkpt lat="38.4486040" lon="-2.4408610">
        <ele>1344.2</ele>
        <time>2019-11-01T13:39:28Z</time>
      </trkpt>
      <trkpt lat="38.4486040" lon="-2.4408020">
        <ele>1344.2</ele>
        <time>2019-11-01T13:39:31Z</time>
      </trkpt>
      <trkpt lat="38.4486020" lon="-2.4407220">
        <ele>1344.2</ele>
        <time>2019-11-01T13:39:35Z</time>
      </trkpt>
      <trkpt lat="38.4486170" lon="-2.4406470">
        <ele>1344.2</ele>
        <time>2019-11-01T13:39:39Z</time>
      </trkpt>
      <trkpt lat="38.4486430" lon="-2.4405780">
        <ele>1344.2</ele>
        <time>2019-11-01T13:39:43Z</time>
      </trkpt>
      <trkpt lat="38.4486660" lon="-2.4405040">
        <ele>1344.2</ele>
        <time>2019-11-01T13:39:47Z</time>
      </trkpt>
      <trkpt lat="38.4486730" lon="-2.4404330">
        <ele>1346.3</ele>
        <time>2019-11-01T13:39:51Z</time>
      </trkpt>
      <trkpt lat="38.4486840" lon="-2.4403620">
        <ele>1346.3</ele>
        <time>2019-11-01T13:39:55Z</time>
      </trkpt>
      <trkpt lat="38.4486960" lon="-2.4402950">
        <ele>1346.3</ele>
        <time>2019-11-01T13:39:59Z</time>
      </trkpt>
      <trkpt lat="38.4486990" lon="-2.4402300">
        <ele>1346.3</ele>
        <time>2019-11-01T13:40:03Z</time>
      </trkpt>
      <trkpt lat="38.4486990" lon="-2.4401620">
        <ele>1348.3</ele>
        <time>2019-11-01T13:40:07Z</time>
      </trkpt>
      <trkpt lat="38.4487040" lon="-2.4400960">
        <ele>1348.3</ele>
        <time>2019-11-01T13:40:11Z</time>
      </trkpt>
      <trkpt lat="38.4487120" lon="-2.4400240">
        <ele>1348.3</ele>
        <time>2019-11-01T13:40:15Z</time>
      </trkpt>
      <trkpt lat="38.4487190" lon="-2.4399380">
        <ele>1348.3</ele>
        <time>2019-11-01T13:40:19Z</time>
      </trkpt>
      <trkpt lat="38.4487300" lon="-2.4398680">
        <ele>1348.3</ele>
        <time>2019-11-01T13:40:22Z</time>
      </trkpt>
      <trkpt lat="38.4487300" lon="-2.4397820">
        <ele>1348.3</ele>
        <time>2019-11-01T13:40:25Z</time>
      </trkpt>
      <trkpt lat="38.4487300" lon="-2.4397000">
        <ele>1350.3</ele>
        <time>2019-11-01T13:40:28Z</time>
      </trkpt>
      <trkpt lat="38.4487370" lon="-2.4396200">
        <ele>1350.3</ele>
        <time>2019-11-01T13:40:31Z</time>
      </trkpt>
      <trkpt lat="38.4487500" lon="-2.4395440">
        <ele>1350.3</ele>
        <time>2019-11-01T13:40:34Z</time>
      </trkpt>
      <trkpt lat="38.4487600" lon="-2.4394710">
        <ele>1350.3</ele>
        <time>2019-11-01T13:40:37Z</time>
      </trkpt>
      <trkpt lat="38.4487680" lon="-2.4394110">
        <ele>1350.3</ele>
        <time>2019-11-01T13:40:40Z</time>
      </trkpt>
      <trkpt lat="38.4487910" lon="-2.4393290">
        <ele>1350.3</ele>
        <time>2019-11-01T13:40:44Z</time>
      </trkpt>
      <trkpt lat="38.4488040" lon="-2.4392840">
        <ele>1353.3</ele>
        <time>2019-11-01T13:40:46Z</time>
      </trkpt>
      <trkpt lat="38.4488190" lon="-2.4392000">
        <ele>1353.3</ele>
        <time>2019-11-01T13:40:50Z</time>
      </trkpt>
      <trkpt lat="38.4488420" lon="-2.4391380">
        <ele>1353.3</ele>
        <time>2019-11-01T13:40:53Z</time>
      </trkpt>
      <trkpt lat="38.4488600" lon="-2.4390780">
        <ele>1353.3</ele>
        <time>2019-11-01T13:40:56Z</time>
      </trkpt>
      <trkpt lat="38.4488830" lon="-2.4390050">
        <ele>1353.3</ele>
        <time>2019-11-01T13:41:00Z</time>
      </trkpt>
      <trkpt lat="38.4488910" lon="-2.4389370">
        <ele>1353.3</ele>
        <time>2019-11-01T13:41:04Z</time>
      </trkpt>
      <trkpt lat="38.4488990" lon="-2.4388760">
        <ele>1353.3</ele>
        <time>2019-11-01T13:41:08Z</time>
      </trkpt>
      <trkpt lat="38.4489240" lon="-2.4388130">
        <ele>1353.3</ele>
        <time>2019-11-01T13:41:13Z</time>
      </trkpt>
      <trkpt lat="38.4489320" lon="-2.4387550">
        <ele>1355.3</ele>
        <time>2019-11-01T13:41:17Z</time>
      </trkpt>
      <trkpt lat="38.4489400" lon="-2.4386830">
        <ele>1355.3</ele>
        <time>2019-11-01T13:41:23Z</time>
      </trkpt>
      <trkpt lat="38.4488370" lon="-2.4380150">
        <ele>1363.6</ele>
        <time>2019-11-01T13:43:00Z</time>
      </trkpt>
      <trkpt lat="38.4488290" lon="-2.4379240">
        <ele>1363.6</ele>
        <time>2019-11-01T13:43:07Z</time>
      </trkpt>
      <trkpt lat="38.4488270" lon="-2.4378700">
        <ele>1365.8</ele>
        <time>2019-11-01T13:43:10Z</time>
      </trkpt>
      <trkpt lat="38.4488060" lon="-2.4378000">
        <ele>1365.8</ele>
        <time>2019-11-01T13:43:14Z</time>
      </trkpt>
      <trkpt lat="38.4487960" lon="-2.4377340">
        <ele>1365.8</ele>
        <time>2019-11-01T13:43:17Z</time>
      </trkpt>
      <trkpt lat="38.4487880" lon="-2.4376540">
        <ele>1365.8</ele>
        <time>2019-11-01T13:43:20Z</time>
      </trkpt>
      <trkpt lat="38.4487990" lon="-2.4375710">
        <ele>1365.8</ele>
        <time>2019-11-01T13:43:24Z</time>
      </trkpt>
      <trkpt lat="38.4488220" lon="-2.4375060">
        <ele>1365.8</ele>
        <time>2019-11-01T13:43:28Z</time>
      </trkpt>
      <trkpt lat="38.4488350" lon="-2.4374500">
        <ele>1367.8</ele>
        <time>2019-11-01T13:43:32Z</time>
      </trkpt>
      <trkpt lat="38.4488520" lon="-2.4373800">
        <ele>1367.8</ele>
        <time>2019-11-01T13:43:37Z</time>
      </trkpt>
      <trkpt lat="38.4488680" lon="-2.4373190">
        <ele>1367.8</ele>
        <time>2019-11-01T13:43:42Z</time>
      </trkpt>
      <trkpt lat="38.4488990" lon="-2.4371820">
        <ele>1369.9</ele>
        <time>2019-11-01T13:44:01Z</time>
      </trkpt>
      <trkpt lat="38.4489090" lon="-2.4371170">
        <ele>1369.9</ele>
        <time>2019-11-01T13:44:06Z</time>
      </trkpt>
      <trkpt lat="38.4489700" lon="-2.4369590">
        <ele>1372.6</ele>
        <time>2019-11-01T13:44:21Z</time>
      </trkpt>
      <trkpt lat="38.4489860" lon="-2.4368940">
        <ele>1372.6</ele>
        <time>2019-11-01T13:44:26Z</time>
      </trkpt>
      <trkpt lat="38.4489930" lon="-2.4368320">
        <ele>1372.6</ele>
        <time>2019-11-01T13:44:31Z</time>
      </trkpt>
      <trkpt lat="38.4490140" lon="-2.4367580">
        <ele>1372.6</ele>
        <time>2019-11-01T13:44:37Z</time>
      </trkpt>
      <trkpt lat="38.4490240" lon="-2.4367050">
        <ele>1374.7</ele>
        <time>2019-11-01T13:44:41Z</time>
      </trkpt>
      <trkpt lat="38.4490440" lon="-2.4366320">
        <ele>1374.7</ele>
        <time>2019-11-01T13:44:47Z</time>
      </trkpt>
      <trkpt lat="38.4490620" lon="-2.4365740">
        <ele>1374.7</ele>
        <time>2019-11-01T13:44:52Z</time>
      </trkpt>
      <trkpt lat="38.4490880" lon="-2.4365060">
        <ele>1374.7</ele>
        <time>2019-11-01T13:44:58Z</time>
      </trkpt>
      <trkpt lat="38.4491160" lon="-2.4364530">
        <ele>1377.6</ele>
        <time>2019-11-01T13:45:03Z</time>
      </trkpt>
      <trkpt lat="38.4491570" lon="-2.4363600">
        <ele>1377.6</ele>
        <time>2019-11-01T13:45:12Z</time>
      </trkpt>
      <trkpt lat="38.4491880" lon="-2.4363010">
        <ele>1377.6</ele>
        <time>2019-11-01T13:45:17Z</time>
      </trkpt>
      <trkpt lat="38.4498020" lon="-2.4354790">
        <ele>1402.5</ele>
        <time>2019-11-01T13:53:27Z</time>
      </trkpt>
      <trkpt lat="38.4497950" lon="-2.4355340">
        <ele>1404.6</ele>
        <time>2019-11-01T13:53:32Z</time>
      </trkpt>
      <trkpt lat="38.4497870" lon="-2.4355920">
        <ele>1404.6</ele>
        <time>2019-11-01T13:53:38Z</time>
      </trkpt>
      <trkpt lat="38.4497770" lon="-2.4356170">
        <ele>1403.4</ele>
        <time>2019-11-01T14:00:57Z</time>
      </trkpt>
      <trkpt lat="38.4497950" lon="-2.4355530">
        <ele>1403.4</ele>
        <time>2019-11-01T14:01:03Z</time>
      </trkpt>
      <trkpt lat="38.4497480" lon="-2.4353210">
        <ele>1403.4</ele>
        <time>2019-11-01T14:01:29Z</time>
      </trkpt>
      <trkpt lat="38.4497480" lon="-2.4352540">
        <ele>1403.4</ele>
        <time>2019-11-01T14:01:35Z</time>
      </trkpt>
      <trkpt lat="38.4497460" lon="-2.4351970">
        <ele>1407.4</ele>
        <time>2019-11-01T14:01:39Z</time>
      </trkpt>
      <trkpt lat="38.4497460" lon="-2.4351300">
        <ele>1408.7</ele>
        <time>2019-11-01T14:01:44Z</time>
      </trkpt>
      <trkpt lat="38.4497560" lon="-2.4350610">
        <ele>1408.7</ele>
        <time>2019-11-01T14:01:50Z</time>
      </trkpt>
      <trkpt lat="38.4497560" lon="-2.4350100">
        <ele>1409.9</ele>
        <time>2019-11-01T14:01:55Z</time>
      </trkpt>
      <trkpt lat="38.4496230" lon="-2.4350150">
        <ele>1408.7</ele>
        <time>2019-11-01T14:04:03Z</time>
      </trkpt>
      <trkpt lat="38.4495540" lon="-2.4350940">
        <ele>1408.7</ele>
        <time>2019-11-01T14:04:21Z</time>
      </trkpt>
      <trkpt lat="38.4495230" lon="-2.4351360">
        <ele>1403.5</ele>
        <time>2019-11-01T14:04:27Z</time>
      </trkpt>
      <trkpt lat="38.4494920" lon="-2.4351840">
        <ele>1402.2</ele>
        <time>2019-11-01T14:04:34Z</time>
      </trkpt>
      <trkpt lat="38.4494620" lon="-2.4352570">
        <ele>1402.2</ele>
        <time>2019-11-01T14:04:45Z</time>
      </trkpt>
      <trkpt lat="38.4494410" lon="-2.4353250">
        <ele>1401.0</ele>
        <time>2019-11-01T14:04:51Z</time>
      </trkpt>
      <trkpt lat="38.4494180" lon="-2.4353760">
        <ele>1401.0</ele>
        <time>2019-11-01T14:04:57Z</time>
      </trkpt>
      <trkpt lat="38.4494110" lon="-2.4354330">
        <ele>1399.8</ele>
        <time>2019-11-01T14:05:03Z</time>
      </trkpt>
      <trkpt lat="38.4493950" lon="-2.4354990">
        <ele>1398.4</ele>
        <time>2019-11-01T14:05:09Z</time>
      </trkpt>
      <trkpt lat="38.4493750" lon="-2.4355580">
        <ele>1397.3</ele>
        <time>2019-11-01T14:05:14Z</time>
      </trkpt>
      <trkpt lat="38.4493570" lon="-2.4356440">
        <ele>1397.3</ele>
        <time>2019-11-01T14:05:23Z</time>
      </trkpt>
      <trkpt lat="38.4492420" lon="-2.4361560">
        <ele>1390.7</ele>
        <time>2019-11-01T14:06:09Z</time>
      </trkpt>
      <trkpt lat="38.4492340" lon="-2.4362370">
        <ele>1390.7</ele>
        <time>2019-11-01T14:06:14Z</time>
      </trkpt>
      <trkpt lat="38.4492190" lon="-2.4362890">
        <ele>1389.4</ele>
        <time>2019-11-01T14:06:18Z</time>
      </trkpt>
      <trkpt lat="38.4491960" lon="-2.4363550">
        <ele>1389.4</ele>
        <time>2019-11-01T14:06:24Z</time>
      </trkpt>
      <trkpt lat="38.4491800" lon="-2.4364110">
        <ele>1388.2</ele>
        <time>2019-11-01T14:06:29Z</time>
      </trkpt>
      <trkpt lat="38.4491490" lon="-2.4364720">
        <ele>1388.2</ele>
        <time>2019-11-01T14:06:34Z</time>
      </trkpt>
      <trkpt lat="38.4491190" lon="-2.4365360">
        <ele>1387.0</ele>
        <time>2019-11-01T14:06:39Z</time>
      </trkpt>
      <trkpt lat="38.4491010" lon="-2.4366120">
        <ele>1385.5</ele>
        <time>2019-11-01T14:06:44Z</time>
      </trkpt>
      <trkpt lat="38.4490780" lon="-2.4366690">
        <ele>1384.3</ele>
        <time>2019-11-01T14:06:48Z</time>
      </trkpt>
      <trkpt lat="38.4490520" lon="-2.4367350">
        <ele>1384.3</ele>
        <time>2019-11-01T14:06:53Z</time>
      </trkpt>
      <trkpt lat="38.4490370" lon="-2.4368080">
        <ele>1384.3</ele>
        <time>2019-11-01T14:06:56Z</time>
      </trkpt>
      <trkpt lat="38.4490140" lon="-2.4368970">
        <ele>1383.0</ele>
        <time>2019-11-01T14:06:59Z</time>
      </trkpt>
      <trkpt lat="38.4489930" lon="-2.4369570">
        <ele>1383.0</ele>
        <time>2019-11-01T14:07:01Z</time>
      </trkpt>
      <trkpt lat="38.4489780" lon="-2.4370130">
        <ele>1381.7</ele>
        <time>2019-11-01T14:07:03Z</time>
      </trkpt>
      <trkpt lat="38.4489600" lon="-2.4370910">
        <ele>1381.7</ele>
        <time>2019-11-01T14:07:06Z</time>
      </trkpt>
      <trkpt lat="38.4489290" lon="-2.4371560">
        <ele>1380.5</ele>
        <time>2019-11-01T14:07:09Z</time>
      </trkpt>
      <trkpt lat="38.4488990" lon="-2.4372090">
        <ele>1380.5</ele>
        <time>2019-11-01T14:07:13Z</time>
      </trkpt>
      <trkpt lat="38.4488580" lon="-2.4372740">
        <ele>1380.5</ele>
        <time>2019-11-01T14:07:21Z</time>
      </trkpt>
      <trkpt lat="38.4488500" lon="-2.4374510">
        <ele>1378.1</ele>
        <time>2019-11-01T14:07:38Z</time>
      </trkpt>
      <trkpt lat="38.4488350" lon="-2.4375250">
        <ele>1378.1</ele>
        <time>2019-11-01T14:07:42Z</time>
      </trkpt>
      <trkpt lat="38.4488290" lon="-2.4376010">
        <ele>1378.1</ele>
        <time>2019-11-01T14:07:45Z</time>
      </trkpt>
      <trkpt lat="38.4488290" lon="-2.4376750">
        <ele>1378.1</ele>
        <time>2019-11-01T14:07:48Z</time>
      </trkpt>
      <trkpt lat="38.4488420" lon="-2.4377530">
        <ele>1378.1</ele>
        <time>2019-11-01T14:07:51Z</time>
      </trkpt>
      <trkpt lat="38.4488450" lon="-2.4378210">
        <ele>1378.1</ele>
        <time>2019-11-01T14:07:54Z</time>
      </trkpt>
      <trkpt lat="38.4488450" lon="-2.4378850">
        <ele>1378.1</ele>
        <time>2019-11-01T14:07:57Z</time>
      </trkpt>
      <trkpt lat="38.4488830" lon="-2.4382230">
        <ele>1375.6</ele>
        <time>2019-11-01T14:08:38Z</time>
      </trkpt>
      <trkpt lat="38.4488910" lon="-2.4382900">
        <ele>1374.4</ele>
        <time>2019-11-01T14:08:44Z</time>
      </trkpt>
      <trkpt lat="38.4489060" lon="-2.4383510">
        <ele>1373.2</ele>
        <time>2019-11-01T14:08:50Z</time>
      </trkpt>
      <trkpt lat="38.4489290" lon="-2.4384040">
        <ele>1371.8</ele>
        <time>2019-11-01T14:08:55Z</time>
      </trkpt>
      <trkpt lat="38.4489400" lon="-2.4384640">
        <ele>1370.6</ele>
        <time>2019-11-01T14:09:00Z</time>
      </trkpt>
      <trkpt lat="38.4489550" lon="-2.4385170">
        <ele>1369.3</ele>
        <time>2019-11-01T14:09:05Z</time>
      </trkpt>
      <trkpt lat="38.4489600" lon="-2.4386080">
        <ele>1368.1</ele>
        <time>2019-11-01T14:09:16Z</time>
      </trkpt>
      <trkpt lat="38.4489470" lon="-2.4386800">
        <ele>1366.9</ele>
        <time>2019-11-01T14:09:21Z</time>
      </trkpt>
      <trkpt lat="38.4489400" lon="-2.4387470">
        <ele>1366.9</ele>
        <time>2019-11-01T14:09:25Z</time>
      </trkpt>
      <trkpt lat="38.4489240" lon="-2.4388070">
        <ele>1365.7</ele>
        <time>2019-11-01T14:09:29Z</time>
      </trkpt>
      <trkpt lat="38.4489160" lon="-2.4388760">
        <ele>1364.5</ele>
        <time>2019-11-01T14:09:34Z</time>
      </trkpt>
      <trkpt lat="38.4489060" lon="-2.4389540">
        <ele>1364.5</ele>
        <time>2019-11-01T14:09:40Z</time>
      </trkpt>
      <trkpt lat="38.4488860" lon="-2.4390300">
        <ele>1363.3</ele>
        <time>2019-11-01T14:09:43Z</time>
      </trkpt>
      <trkpt lat="38.4488630" lon="-2.4391010">
        <ele>1363.3</ele>
        <time>2019-11-01T14:09:46Z</time>
      </trkpt>
      <trkpt lat="38.4488450" lon="-2.4391750">
        <ele>1362.2</ele>
        <time>2019-11-01T14:09:49Z</time>
      </trkpt>
      <trkpt lat="38.4488140" lon="-2.4392590">
        <ele>1361.0</ele>
        <time>2019-11-01T14:09:52Z</time>
      </trkpt>
      <trkpt lat="38.4487960" lon="-2.4393260">
        <ele>1361.0</ele>
        <time>2019-11-01T14:09:54Z</time>
      </trkpt>
      <trkpt lat="38.4487810" lon="-2.4394040">
        <ele>1361.0</ele>
        <time>2019-11-01T14:09:56Z</time>
      </trkpt>
      <trkpt lat="38.4487650" lon="-2.4394830">
        <ele>1361.0</ele>
        <time>2019-11-01T14:09:58Z</time>
      </trkpt>
      <trkpt lat="38.4487530" lon="-2.4395560">
        <ele>1361.0</ele>
        <time>2019-11-01T14:10:00Z</time>
      </trkpt>
      <trkpt lat="38.4487450" lon="-2.4396180">
        <ele>1361.0</ele>
        <time>2019-11-01T14:10:02Z</time>
      </trkpt>
      <trkpt lat="38.4487370" lon="-2.4396860">
        <ele>1359.8</ele>
        <time>2019-11-01T14:10:05Z</time>
      </trkpt>
      <trkpt lat="38.4487370" lon="-2.4397530">
        <ele>1359.8</ele>
        <time>2019-11-01T14:10:08Z</time>
      </trkpt>
      <trkpt lat="38.4487300" lon="-2.4398320">
        <ele>1359.8</ele>
        <time>2019-11-01T14:10:11Z</time>
      </trkpt>
      <trkpt lat="38.4487190" lon="-2.4399220">
        <ele>1359.8</ele>
        <time>2019-11-01T14:10:14Z</time>
      </trkpt>
      <trkpt lat="38.4487070" lon="-2.4400300">
        <ele>1359.8</ele>
        <time>2019-11-01T14:10:17Z</time>
      </trkpt>
      <trkpt lat="38.4487040" lon="-2.4401110">
        <ele>1359.8</ele>
        <time>2019-11-01T14:10:19Z</time>
      </trkpt>
      <trkpt lat="38.4486910" lon="-2.4402090">
        <ele>1358.4</ele>
        <time>2019-11-01T14:10:21Z</time>
      </trkpt>
      <trkpt lat="38.4486810" lon="-2.4403140">
        <ele>1358.4</ele>
        <time>2019-11-01T14:10:23Z</time>
      </trkpt>
      <trkpt lat="38.4486660" lon="-2.4404150">
        <ele>1358.4</ele>
        <time>2019-11-01T14:10:25Z</time>
      </trkpt>
      <trkpt lat="38.4486500" lon="-2.4405070">
        <ele>1358.4</ele>
        <time>2019-11-01T14:10:27Z</time>
      </trkpt>
      <trkpt lat="38.4486480" lon="-2.4405990">
        <ele>1357.3</ele>
        <time>2019-11-01T14:10:29Z</time>
      </trkpt>
      <trkpt lat="38.4486500" lon="-2.4407000">
        <ele>1356.1</ele>
        <time>2019-11-01T14:10:31Z</time>
      </trkpt>
      <trkpt lat="38.4486480" lon="-2.4408010">
        <ele>1356.1</ele>
        <time>2019-11-01T14:10:33Z</time>
      </trkpt>
      <trkpt lat="38.4486400" lon="-2.4409040">
        <ele>1354.6</ele>
        <time>2019-11-01T14:10:35Z</time>
      </trkpt>
      <trkpt lat="38.4486250" lon="-2.4409990">
        <ele>1354.6</ele>
        <time>2019-11-01T14:10:37Z</time>
      </trkpt>
      <trkpt lat="38.4486090" lon="-2.4410710">
        <ele>1353.2</ele>
        <time>2019-11-01T14:10:39Z</time>
      </trkpt>
      <trkpt lat="38.4485890" lon="-2.4411280">
        <ele>1353.2</ele>
        <time>2019-11-01T14:10:41Z</time>
      </trkpt>
      <trkpt lat="38.4485730" lon="-2.4412200">
        <ele>1353.2</ele>
        <time>2019-11-01T14:10:44Z</time>
      </trkpt>
      <trkpt lat="38.4485630" lon="-2.4412910">
        <ele>1353.2</ele>
        <time>2019-11-01T14:10:46Z</time>
      </trkpt>
      <trkpt lat="38.4485430" lon="-2.4413650">
        <ele>1352.0</ele>
        <time>2019-11-01T14:10:48Z</time>
      </trkpt>
      <trkpt lat="38.4485090" lon="-2.4414400">
        <ele>1352.0</ele>
        <time>2019-11-01T14:10:50Z</time>
      </trkpt>
      <trkpt lat="38.4484790" lon="-2.4415200">
        <ele>1352.0</ele>
        <time>2019-11-01T14:10:52Z</time>
      </trkpt>
      <trkpt lat="38.4484450" lon="-2.4416010">
        <ele>1350.4</ele>
        <time>2019-11-01T14:10:54Z</time>
      </trkpt>
      <trkpt lat="38.4484150" lon="-2.4416820">
        <ele>1350.4</ele>
        <time>2019-11-01T14:10:56Z</time>
      </trkpt>
      <trkpt lat="38.4483870" lon="-2.4417540">
        <ele>1349.2</ele>
        <time>2019-11-01T14:10:58Z</time>
      </trkpt>
      <trkpt lat="38.4483690" lon="-2.4418230">
        <ele>1349.2</ele>
        <time>2019-11-01T14:11:00Z</time>
      </trkpt>
      <trkpt lat="38.4483480" lon="-2.4418940">
        <ele>1348.0</ele>
        <time>2019-11-01T14:11:02Z</time>
      </trkpt>
      <trkpt lat="38.4483380" lon="-2.4419610">
        <ele>1348.0</ele>
        <time>2019-11-01T14:11:04Z</time>
      </trkpt>
      <trkpt lat="38.4483230" lon="-2.4420260">
        <ele>1346.6</ele>
        <time>2019-11-01T14:11:06Z</time>
      </trkpt>
      <trkpt lat="38.4483000" lon="-2.4420930">
        <ele>1346.6</ele>
        <time>2019-11-01T14:11:08Z</time>
      </trkpt>
      <trkpt lat="38.4482820" lon="-2.4421680">
        <ele>1345.2</ele>
        <time>2019-11-01T14:11:10Z</time>
      </trkpt>
      <trkpt lat="38.4482660" lon="-2.4422400">
        <ele>1345.2</ele>
        <time>2019-11-01T14:11:12Z</time>
      </trkpt>
      <trkpt lat="38.4482530" lon="-2.4423050">
        <ele>1343.9</ele>
        <time>2019-11-01T14:11:14Z</time>
      </trkpt>
      <trkpt lat="38.4482360" lon="-2.4423760">
        <ele>1342.7</ele>
        <time>2019-11-01T14:11:17Z</time>
      </trkpt>
      <trkpt lat="38.4482150" lon="-2.4424300">
        <ele>1342.7</ele>
        <time>2019-11-01T14:11:21Z</time>
      </trkpt>
      <trkpt lat="38.4482000" lon="-2.4425410">
        <ele>1341.5</ele>
        <time>2019-11-01T14:11:35Z</time>
      </trkpt>
      <trkpt lat="38.4482120" lon="-2.4426350">
        <ele>1340.3</ele>
        <time>2019-11-01T14:11:39Z</time>
      </trkpt>
      <trkpt lat="38.4482120" lon="-2.4427160">
        <ele>1339.0</ele>
        <time>2019-11-01T14:11:42Z</time>
      </trkpt>
      <trkpt lat="38.4482120" lon="-2.4427990">
        <ele>1339.0</ele>
        <time>2019-11-01T14:11:45Z</time>
      </trkpt>
      <trkpt lat="38.4482070" lon="-2.4428860">
        <ele>1339.0</ele>
        <time>2019-11-01T14:11:48Z</time>
      </trkpt>
      <trkpt lat="38.4482120" lon="-2.4429790">
        <ele>1337.8</ele>
        <time>2019-11-01T14:11:51Z</time>
      </trkpt>
      <trkpt lat="38.4482070" lon="-2.4430610">
        <ele>1337.8</ele>
        <time>2019-11-01T14:11:54Z</time>
      </trkpt>
      <trkpt lat="38.4482050" lon="-2.4431430">
        <ele>1337.8</ele>
        <time>2019-11-01T14:11:57Z</time>
      </trkpt>
      <trkpt lat="38.4481920" lon="-2.4432050">
        <ele>1336.5</ele>
        <time>2019-11-01T14:11:59Z</time>
      </trkpt>
      <trkpt lat="38.4481770" lon="-2.4432690">
        <ele>1336.5</ele>
        <time>2019-11-01T14:12:01Z</time>
      </trkpt>
      <trkpt lat="38.4481540" lon="-2.4433300">
        <ele>1336.5</ele>
        <time>2019-11-01T14:12:03Z</time>
      </trkpt>
      <trkpt lat="38.4481150" lon="-2.4434180">
        <ele>1336.5</ele>
        <time>2019-11-01T14:12:06Z</time>
      </trkpt>
      <trkpt lat="38.4481050" lon="-2.4434870">
        <ele>1335.2</ele>
        <time>2019-11-01T14:12:08Z</time>
      </trkpt>
      <trkpt lat="38.4481000" lon="-2.4435570">
        <ele>1335.2</ele>
        <time>2019-11-01T14:12:10Z</time>
      </trkpt>
      <trkpt lat="38.4480920" lon="-2.4436210">
        <ele>1335.2</ele>
        <time>2019-11-01T14:12:12Z</time>
      </trkpt>
      <trkpt lat="38.4480640" lon="-2.4437160">
        <ele>1335.2</ele>
        <time>2019-11-01T14:12:15Z</time>
      </trkpt>
      <trkpt lat="38.4480360" lon="-2.4437750">
        <ele>1334.0</ele>
        <time>2019-11-01T14:12:17Z</time>
      </trkpt>
      <trkpt lat="38.4480100" lon="-2.4438320">
        <ele>1334.0</ele>
        <time>2019-11-01T14:12:19Z</time>
      </trkpt>
      <trkpt lat="38.4479590" lon="-2.4438970">
        <ele>1334.0</ele>
        <time>2019-11-01T14:12:22Z</time>
      </trkpt>
      <trkpt lat="38.4479130" lon="-2.4439720">
        <ele>1332.7</ele>
        <time>2019-11-01T14:12:25Z</time>
      </trkpt>
      <trkpt lat="38.4478850" lon="-2.4440300">
        <ele>1332.7</ele>
        <time>2019-11-01T14:12:27Z</time>
      </trkpt>
      <trkpt lat="38.4478490" lon="-2.4440940">
        <ele>1332.7</ele>
        <time>2019-11-01T14:12:29Z</time>
      </trkpt>
      <trkpt lat="38.4478180" lon="-2.4441590">
        <ele>1332.7</ele>
        <time>2019-11-01T14:12:31Z</time>
      </trkpt>
      <trkpt lat="38.4477880" lon="-2.4442170">
        <ele>1331.5</ele>
        <time>2019-11-01T14:12:33Z</time>
      </trkpt>
      <trkpt lat="38.4477540" lon="-2.4442740">
        <ele>1331.5</ele>
        <time>2019-11-01T14:12:35Z</time>
      </trkpt>
      <trkpt lat="38.4477180" lon="-2.4443270">
        <ele>1330.3</ele>
        <time>2019-11-01T14:12:37Z</time>
      </trkpt>
      <trkpt lat="38.4476770" lon="-2.4443840">
        <ele>1328.9</ele>
        <time>2019-11-01T14:12:39Z</time>
      </trkpt>
      <trkpt lat="38.4476360" lon="-2.4444440">
        <ele>1327.3</ele>
        <time>2019-11-01T14:12:41Z</time>
      </trkpt>
      <trkpt lat="38.4475930" lon="-2.4445040">
        <ele>1327.3</ele>
        <time>2019-11-01T14:12:43Z</time>
      </trkpt>
      <trkpt lat="38.4475440" lon="-2.4445780">
        <ele>1325.9</ele>
        <time>2019-11-01T14:12:45Z</time>
      </trkpt>
      <trkpt lat="38.4475030" lon="-2.4446580">
        <ele>1324.5</ele>
        <time>2019-11-01T14:12:47Z</time>
      </trkpt>
      <trkpt lat="38.4474650" lon="-2.4447390">
        <ele>1324.5</ele>
        <time>2019-11-01T14:12:49Z</time>
      </trkpt>
      <trkpt lat="38.4474140" lon="-2.4448310">
        <ele>1323.3</ele>
        <time>2019-11-01T14:12:51Z</time>
      </trkpt>
      <trkpt lat="38.4473370" lon="-2.4449810">
        <ele>1321.6</ele>
        <time>2019-11-01T14:12:54Z</time>
      </trkpt>
      <trkpt lat="38.4472960" lon="-2.4450630">
        <ele>1320.3</ele>
        <time>2019-11-01T14:12:56Z</time>
      </trkpt>
      <trkpt lat="38.4472500" lon="-2.4451280">
        <ele>1320.3</ele>
        <time>2019-11-01T14:12:58Z</time>
      </trkpt>
      <trkpt lat="38.4472190" lon="-2.4451740">
        <ele>1320.3</ele>
        <time>2019-11-01T14:13:00Z</time>
      </trkpt>
      <trkpt lat="38.4471940" lon="-2.4452340">
        <ele>1319.0</ele>
        <time>2019-11-01T14:13:03Z</time>
      </trkpt>
      <trkpt lat="38.4471960" lon="-2.4452930">
        <ele>1319.0</ele>
        <time>2019-11-01T14:13:06Z</time>
      </trkpt>
      <trkpt lat="38.4472400" lon="-2.4453390">
        <ele>1317.7</ele>
        <time>2019-11-01T14:13:10Z</time>
      </trkpt>
      <trkpt lat="38.4472930" lon="-2.4453140">
        <ele>1317.7</ele>
        <time>2019-11-01T14:13:15Z</time>
      </trkpt>
      <trkpt lat="38.4473450" lon="-2.4453080">
        <ele>1316.5</ele>
        <time>2019-11-01T14:13:19Z</time>
      </trkpt>
      <trkpt lat="38.4473750" lon="-2.4453560">
        <ele>1316.5</ele>
        <time>2019-11-01T14:13:35Z</time>
      </trkpt>
      <trkpt lat="38.4473830" lon="-2.4454630">
        <ele>1316.5</ele>
        <time>2019-11-01T14:13:46Z</time>
      </trkpt>
      <trkpt lat="38.4473830" lon="-2.4455250">
        <ele>1316.5</ele>
        <time>2019-11-01T14:13:49Z</time>
      </trkpt>
      <trkpt lat="38.4473880" lon="-2.4456190">
        <ele>1316.5</ele>
        <time>2019-11-01T14:13:53Z</time>
      </trkpt>
      <trkpt lat="38.4473800" lon="-2.4456940">
        <ele>1316.5</ele>
        <time>2019-11-01T14:13:56Z</time>
      </trkpt>
      <trkpt lat="38.4473730" lon="-2.4457880">
        <ele>1316.5</ele>
        <time>2019-11-01T14:13:59Z</time>
      </trkpt>
      <trkpt lat="38.4473650" lon="-2.4458580">
        <ele>1315.3</ele>
        <time>2019-11-01T14:14:01Z</time>
      </trkpt>
      <trkpt lat="38.4473520" lon="-2.4459360">
        <ele>1315.3</ele>
        <time>2019-11-01T14:14:03Z</time>
      </trkpt>
      <trkpt lat="38.4473500" lon="-2.4460100">
        <ele>1315.3</ele>
        <time>2019-11-01T14:14:05Z</time>
      </trkpt>
      <trkpt lat="38.4473500" lon="-2.4460840">
        <ele>1315.3</ele>
        <time>2019-11-01T14:14:07Z</time>
      </trkpt>
      <trkpt lat="38.4473570" lon="-2.4461530">
        <ele>1315.3</ele>
        <time>2019-11-01T14:14:09Z</time>
      </trkpt>
      <trkpt lat="38.4473680" lon="-2.4462150">
        <ele>1314.0</ele>
        <time>2019-11-01T14:14:11Z</time>
      </trkpt>
      <trkpt lat="38.4473830" lon="-2.4462970">
        <ele>1314.0</ele>
        <time>2019-11-01T14:14:14Z</time>
      </trkpt>
      <trkpt lat="38.4474750" lon="-2.4464640">
        <ele>1314.0</ele>
        <time>2019-11-01T14:14:59Z</time>
      </trkpt>
      <trkpt lat="38.4475390" lon="-2.4464650">
        <ele>1314.0</ele>
        <time>2019-11-01T14:15:04Z</time>
      </trkpt>
      <trkpt lat="38.4476010" lon="-2.4464740">
        <ele>1314.0</ele>
        <time>2019-11-01T14:15:07Z</time>
      </trkpt>
      <trkpt lat="38.4476470" lon="-2.4464880">
        <ele>1314.0</ele>
        <time>2019-11-01T14:15:10Z</time>
      </trkpt>
      <trkpt lat="38.4477030" lon="-2.4465130">
        <ele>1314.0</ele>
        <time>2019-11-01T14:15:14Z</time>
      </trkpt>
      <trkpt lat="38.4477540" lon="-2.4465480">
        <ele>1314.0</ele>
        <time>2019-11-01T14:15:18Z</time>
      </trkpt>
      <trkpt lat="38.4478080" lon="-2.4466060">
        <ele>1314.0</ele>
        <time>2019-11-01T14:15:22Z</time>
      </trkpt>
      <trkpt lat="38.4478460" lon="-2.4466610">
        <ele>1314.0</ele>
        <time>2019-11-01T14:15:25Z</time>
      </trkpt>
      <trkpt lat="38.4478870" lon="-2.4467210">
        <ele>1314.0</ele>
        <time>2019-11-01T14:15:28Z</time>
      </trkpt>
      <trkpt lat="38.4479280" lon="-2.4467730">
        <ele>1314.0</ele>
        <time>2019-11-01T14:15:31Z</time>
      </trkpt>
      <trkpt lat="38.4479670" lon="-2.4468180">
        <ele>1314.0</ele>
        <time>2019-11-01T14:15:34Z</time>
      </trkpt>
      <trkpt lat="38.4479970" lon="-2.4468560">
        <ele>1315.2</ele>
        <time>2019-11-01T14:15:37Z</time>
      </trkpt>
      <trkpt lat="38.4480410" lon="-2.4469210">
        <ele>1315.2</ele>
        <time>2019-11-01T14:15:41Z</time>
      </trkpt>
      <trkpt lat="38.4480670" lon="-2.4469880">
        <ele>1315.2</ele>
        <time>2019-11-01T14:15:44Z</time>
      </trkpt>
      <trkpt lat="38.4480870" lon="-2.4470660">
        <ele>1315.2</ele>
        <time>2019-11-01T14:16:31Z</time>
      </trkpt>
      <trkpt lat="38.4481460" lon="-2.4471580">
        <ele>1315.2</ele>
        <time>2019-11-01T14:17:32Z</time>
      </trkpt>
      <trkpt lat="38.4482070" lon="-2.4472100">
        <ele>1315.2</ele>
        <time>2019-11-01T14:17:38Z</time>
      </trkpt>
      <trkpt lat="38.4482530" lon="-2.4472480">
        <ele>1315.2</ele>
        <time>2019-11-01T14:17:41Z</time>
      </trkpt>
      <trkpt lat="38.4483230" lon="-2.4472980">
        <ele>1315.2</ele>
        <time>2019-11-01T14:17:44Z</time>
      </trkpt>
      <trkpt lat="38.4483710" lon="-2.4473330">
        <ele>1315.2</ele>
        <time>2019-11-01T14:17:46Z</time>
      </trkpt>
      <trkpt lat="38.4484330" lon="-2.4473640">
        <ele>1315.2</ele>
        <time>2019-11-01T14:17:48Z</time>
      </trkpt>
      <trkpt lat="38.4484940" lon="-2.4473890">
        <ele>1315.2</ele>
        <time>2019-11-01T14:17:50Z</time>
      </trkpt>
      <trkpt lat="38.4485500" lon="-2.4474140">
        <ele>1315.2</ele>
        <time>2019-11-01T14:17:52Z</time>
      </trkpt>
      <trkpt lat="38.4486020" lon="-2.4474390">
        <ele>1315.2</ele>
        <time>2019-11-01T14:17:54Z</time>
      </trkpt>
      <trkpt lat="38.4486550" lon="-2.4474710">
        <ele>1315.2</ele>
        <time>2019-11-01T14:17:56Z</time>
      </trkpt>
      <trkpt lat="38.4487140" lon="-2.4475080">
        <ele>1315.2</ele>
        <time>2019-11-01T14:17:58Z</time>
      </trkpt>
      <trkpt lat="38.4487760" lon="-2.4475430">
        <ele>1315.2</ele>
        <time>2019-11-01T14:18:00Z</time>
      </trkpt>
      <trkpt lat="38.4488420" lon="-2.4475870">
        <ele>1315.2</ele>
        <time>2019-11-01T14:18:02Z</time>
      </trkpt>
      <trkpt lat="38.4488990" lon="-2.4476460">
        <ele>1315.2</ele>
        <time>2019-11-01T14:18:04Z</time>
      </trkpt>
      <trkpt lat="38.4489520" lon="-2.4477130">
        <ele>1315.2</ele>
        <time>2019-11-01T14:18:06Z</time>
      </trkpt>
      <trkpt lat="38.4489980" lon="-2.4477820">
        <ele>1315.2</ele>
        <time>2019-11-01T14:18:08Z</time>
      </trkpt>
      <trkpt lat="38.4490370" lon="-2.4478510">
        <ele>1315.2</ele>
        <time>2019-11-01T14:18:10Z</time>
      </trkpt>
      <trkpt lat="38.4490780" lon="-2.4479140">
        <ele>1316.3</ele>
        <time>2019-11-01T14:18:12Z</time>
      </trkpt>
      <trkpt lat="38.4491160" lon="-2.4479730">
        <ele>1316.3</ele>
        <time>2019-11-01T14:18:14Z</time>
      </trkpt>
      <trkpt lat="38.4491490" lon="-2.4480300">
        <ele>1316.3</ele>
        <time>2019-11-01T14:18:16Z</time>
      </trkpt>
      <trkpt lat="38.4491880" lon="-2.4481220">
        <ele>1316.3</ele>
        <time>2019-11-01T14:18:19Z</time>
      </trkpt>
      <trkpt lat="38.4492110" lon="-2.4481790">
        <ele>1316.3</ele>
        <time>2019-11-01T14:18:21Z</time>
      </trkpt>
      <trkpt lat="38.4492470" lon="-2.4482590">
        <ele>1316.3</ele>
        <time>2019-11-01T14:18:24Z</time>
      </trkpt>
      <trkpt lat="38.4492800" lon="-2.4483370">
        <ele>1317.7</ele>
        <time>2019-11-01T14:18:27Z</time>
      </trkpt>
      <trkpt lat="38.4492980" lon="-2.4484110">
        <ele>1317.7</ele>
        <time>2019-11-01T14:18:30Z</time>
      </trkpt>
      <trkpt lat="38.4493210" lon="-2.4484840">
        <ele>1318.9</ele>
        <time>2019-11-01T14:18:33Z</time>
      </trkpt>
      <trkpt lat="38.4493360" lon="-2.4485540">
        <ele>1320.1</ele>
        <time>2019-11-01T14:18:36Z</time>
      </trkpt>
      <trkpt lat="38.4493520" lon="-2.4486300">
        <ele>1320.1</ele>
        <time>2019-11-01T14:18:39Z</time>
      </trkpt>
      <trkpt lat="38.4493670" lon="-2.4487000">
        <ele>1320.1</ele>
        <time>2019-11-01T14:18:42Z</time>
      </trkpt>
      <trkpt lat="38.4493750" lon="-2.4487600">
        <ele>1320.1</ele>
        <time>2019-11-01T14:18:45Z</time>
      </trkpt>
      <trkpt lat="38.4493820" lon="-2.4488250">
        <ele>1320.1</ele>
        <time>2019-11-01T14:18:49Z</time>
      </trkpt>
      <trkpt lat="38.4493880" lon="-2.4489050">
        <ele>1321.6</ele>
        <time>2019-11-01T14:18:53Z</time>
      </trkpt>
      <trkpt lat="38.4493900" lon="-2.4489760">
        <ele>1322.8</ele>
        <time>2019-11-01T14:18:57Z</time>
      </trkpt>
      <trkpt lat="38.4494050" lon="-2.4490390">
        <ele>1324.0</ele>
        <time>2019-11-01T14:19:01Z</time>
      </trkpt>
      <trkpt lat="38.4494260" lon="-2.4491120">
        <ele>1324.0</ele>
        <time>2019-11-01T14:19:05Z</time>
      </trkpt>
      <trkpt lat="38.4494260" lon="-2.4491860">
        <ele>1324.0</ele>
        <time>2019-11-01T14:19:09Z</time>
      </trkpt>
      <trkpt lat="38.4494210" lon="-2.4492520">
        <ele>1324.0</ele>
        <time>2019-11-01T14:19:13Z</time>
      </trkpt>
      <trkpt lat="38.4494130" lon="-2.4493160">
        <ele>1325.2</ele>
        <time>2019-11-01T14:19:17Z</time>
      </trkpt>
      <trkpt lat="38.4494050" lon="-2.4493860">
        <ele>1325.2</ele>
        <time>2019-11-01T14:19:21Z</time>
      </trkpt>
      <trkpt lat="38.4494030" lon="-2.4494650">
        <ele>1325.2</ele>
        <time>2019-11-01T14:19:25Z</time>
      </trkpt>
      <trkpt lat="38.4493800" lon="-2.4495520">
        <ele>1325.2</ele>
        <time>2019-11-01T14:19:30Z</time>
      </trkpt>
      <trkpt lat="38.4493570" lon="-2.4496210">
        <ele>1326.3</ele>
        <time>2019-11-01T14:19:34Z</time>
      </trkpt>
      <trkpt lat="38.4493440" lon="-2.4496950">
        <ele>1326.3</ele>
        <time>2019-11-01T14:19:38Z</time>
      </trkpt>
      <trkpt lat="38.4493440" lon="-2.4497720">
        <ele>1326.3</ele>
        <time>2019-11-01T14:19:42Z</time>
      </trkpt>
      <trkpt lat="38.4493440" lon="-2.4498410">
        <ele>1327.5</ele>
        <time>2019-11-01T14:19:46Z</time>
      </trkpt>
      <trkpt lat="38.4493440" lon="-2.4499150">
        <ele>1327.5</ele>
        <time>2019-11-01T14:19:50Z</time>
      </trkpt>
      <trkpt lat="38.4493590" lon="-2.4499910">
        <ele>1327.5</ele>
        <time>2019-11-01T14:19:54Z</time>
      </trkpt>
      <trkpt lat="38.4493750" lon="-2.4500450">
        <ele>1328.8</ele>
        <time>2019-11-01T14:19:57Z</time>
      </trkpt>
      <trkpt lat="38.4493880" lon="-2.4501190">
        <ele>1328.8</ele>
        <time>2019-11-01T14:20:01Z</time>
      </trkpt>
      <trkpt lat="38.4493880" lon="-2.4501860">
        <ele>1328.8</ele>
        <time>2019-11-01T14:20:05Z</time>
      </trkpt>
      <trkpt lat="38.4493800" lon="-2.4502580">
        <ele>1328.8</ele>
        <time>2019-11-01T14:20:09Z</time>
      </trkpt>
      <trkpt lat="38.4493720" lon="-2.4503280">
        <ele>1328.8</ele>
        <time>2019-11-01T14:20:13Z</time>
      </trkpt>
      <trkpt lat="38.4493720" lon="-2.4504000">
        <ele>1330.1</ele>
        <time>2019-11-01T14:20:17Z</time>
      </trkpt>
      <trkpt lat="38.4493750" lon="-2.4504710">
        <ele>1330.1</ele>
        <time>2019-11-01T14:20:21Z</time>
      </trkpt>
      <trkpt lat="38.4493820" lon="-2.4505440">
        <ele>1330.1</ele>
        <time>2019-11-01T14:20:25Z</time>
      </trkpt>
      <trkpt lat="38.4494130" lon="-2.4506060">
        <ele>1330.1</ele>
        <time>2019-11-01T14:20:29Z</time>
      </trkpt>
      <trkpt lat="38.4494410" lon="-2.4506550">
        <ele>1330.1</ele>
        <time>2019-11-01T14:20:33Z</time>
      </trkpt>
      <trkpt lat="38.4494750" lon="-2.4507280">
        <ele>1330.1</ele>
        <time>2019-11-01T14:20:38Z</time>
      </trkpt>
      <trkpt lat="38.4495050" lon="-2.4507820">
        <ele>1331.3</ele>
        <time>2019-11-01T14:20:42Z</time>
      </trkpt>
      <trkpt lat="38.4495360" lon="-2.4508310">
        <ele>1331.3</ele>
        <time>2019-11-01T14:20:46Z</time>
      </trkpt>
      <trkpt lat="38.4495740" lon="-2.4508910">
        <ele>1331.3</ele>
        <time>2019-11-01T14:20:51Z</time>
      </trkpt>
      <trkpt lat="38.4496080" lon="-2.4509420">
        <ele>1332.5</ele>
        <time>2019-11-01T14:20:55Z</time>
      </trkpt>
      <trkpt lat="38.4496460" lon="-2.4509870">
        <ele>1333.7</ele>
        <time>2019-11-01T14:20:59Z</time>
      </trkpt>
      <trkpt lat="38.4496920" lon="-2.4510230">
        <ele>1333.7</ele>
        <time>2019-11-01T14:21:03Z</time>
      </trkpt>
      <trkpt lat="38.4497310" lon="-2.4510560">
        <ele>1335.1</ele>
        <time>2019-11-01T14:21:07Z</time>
      </trkpt>
      <trkpt lat="38.4497790" lon="-2.4510870">
        <ele>1336.3</ele>
        <time>2019-11-01T14:21:12Z</time>
      </trkpt>
      <trkpt lat="38.4498180" lon="-2.4511210">
        <ele>1336.3</ele>
        <time>2019-11-01T14:21:17Z</time>
      </trkpt>
      <trkpt lat="38.4498590" lon="-2.4511630">
        <ele>1336.3</ele>
        <time>2019-11-01T14:21:23Z</time>
      </trkpt>
      <trkpt lat="38.4499020" lon="-2.4511960">
        <ele>1337.5</ele>
        <time>2019-11-01T14:21:28Z</time>
      </trkpt>
      <trkpt lat="38.4499350" lon="-2.4512390">
        <ele>1338.8</ele>
        <time>2019-11-01T14:21:33Z</time>
      </trkpt>
      <trkpt lat="38.4500100" lon="-2.4513080">
        <ele>1340.0</ele>
        <time>2019-11-01T14:22:08Z</time>
      </trkpt>
      <trkpt lat="38.4500450" lon="-2.4513440">
        <ele>1340.0</ele>
        <time>2019-11-01T14:22:14Z</time>
      </trkpt>
      <trkpt lat="38.4500920" lon="-2.4513860">
        <ele>1340.0</ele>
        <time>2019-11-01T14:22:19Z</time>
      </trkpt>
      <trkpt lat="38.4501450" lon="-2.4514230">
        <ele>1341.7</ele>
        <time>2019-11-01T14:22:23Z</time>
      </trkpt>
      <trkpt lat="38.4501960" lon="-2.4514580">
        <ele>1341.7</ele>
        <time>2019-11-01T14:22:27Z</time>
      </trkpt>
      <trkpt lat="38.4502400" lon="-2.4514910">
        <ele>1341.7</ele>
        <time>2019-11-01T14:22:31Z</time>
      </trkpt>
      <trkpt lat="38.4502940" lon="-2.4515300">
        <ele>1341.7</ele>
        <time>2019-11-01T14:22:36Z</time>
      </trkpt>
      <trkpt lat="38.4503530" lon="-2.4515450">
        <ele>1341.7</ele>
        <time>2019-11-01T14:22:41Z</time>
      </trkpt>
      <trkpt lat="38.4503990" lon="-2.4515420">
        <ele>1342.9</ele>
        <time>2019-11-01T14:22:45Z</time>
      </trkpt>
      <trkpt lat="38.4504500" lon="-2.4515500">
        <ele>1342.9</ele>
        <time>2019-11-01T14:22:49Z</time>
      </trkpt>
      <trkpt lat="38.4505090" lon="-2.4515670">
        <ele>1342.9</ele>
        <time>2019-11-01T14:22:53Z</time>
      </trkpt>
      <trkpt lat="38.4505630" lon="-2.4515950">
        <ele>1344.2</ele>
        <time>2019-11-01T14:22:57Z</time>
      </trkpt>
      <trkpt lat="38.4506060" lon="-2.4516230">
        <ele>1344.2</ele>
        <time>2019-11-01T14:23:01Z</time>
      </trkpt>
      <trkpt lat="38.4506600" lon="-2.4516560">
        <ele>1344.2</ele>
        <time>2019-11-01T14:23:06Z</time>
      </trkpt>
      <trkpt lat="38.4507140" lon="-2.4516820">
        <ele>1344.2</ele>
        <time>2019-11-01T14:23:11Z</time>
      </trkpt>
      <trkpt lat="38.4507670" lon="-2.4517150">
        <ele>1344.2</ele>
        <time>2019-11-01T14:23:15Z</time>
      </trkpt>
      <trkpt lat="38.4508240" lon="-2.4517460">
        <ele>1344.2</ele>
        <time>2019-11-01T14:23:19Z</time>
      </trkpt>
      <trkpt lat="38.4508770" lon="-2.4517720">
        <ele>1349.8</ele>
        <time>2019-11-01T14:23:23Z</time>
      </trkpt>
      <trkpt lat="38.4509290" lon="-2.4517900">
        <ele>1349.8</ele>
        <time>2019-11-01T14:23:27Z</time>
      </trkpt>
      <trkpt lat="38.4509770" lon="-2.4518150">
        <ele>1349.8</ele>
        <time>2019-11-01T14:23:31Z</time>
      </trkpt>
      <trkpt lat="38.4510260" lon="-2.4518400">
        <ele>1349.8</ele>
        <time>2019-11-01T14:23:35Z</time>
      </trkpt>
      <trkpt lat="38.4510770" lon="-2.4518730">
        <ele>1349.8</ele>
        <time>2019-11-01T14:23:39Z</time>
      </trkpt>
      <trkpt lat="38.4511260" lon="-2.4519020">
        <ele>1349.8</ele>
        <time>2019-11-01T14:23:43Z</time>
      </trkpt>
      <trkpt lat="38.4511720" lon="-2.4519290">
        <ele>1351.8</ele>
        <time>2019-11-01T14:23:47Z</time>
      </trkpt>
      <trkpt lat="38.4512260" lon="-2.4519450">
        <ele>1351.8</ele>
        <time>2019-11-01T14:23:51Z</time>
      </trkpt>
      <trkpt lat="38.4512790" lon="-2.4519510">
        <ele>1351.8</ele>
        <time>2019-11-01T14:23:56Z</time>
      </trkpt>
      <trkpt lat="38.4513330" lon="-2.4519600">
        <ele>1353.8</ele>
        <time>2019-11-01T14:24:00Z</time>
      </trkpt>
      <trkpt lat="38.4513820" lon="-2.4519740">
        <ele>1353.8</ele>
        <time>2019-11-01T14:24:05Z</time>
      </trkpt>
      <trkpt lat="38.4514380" lon="-2.4519840">
        <ele>1353.8</ele>
        <time>2019-11-01T14:24:10Z</time>
      </trkpt>
      <trkpt lat="38.4516100" lon="-2.4519720">
        <ele>1355.9</ele>
        <time>2019-11-01T14:26:27Z</time>
      </trkpt>
      <trkpt lat="38.4516680" lon="-2.4519400">
        <ele>1355.9</ele>
        <time>2019-11-01T14:26:31Z</time>
      </trkpt>
      <trkpt lat="38.4517220" lon="-2.4519160">
        <ele>1355.9</ele>
        <time>2019-11-01T14:26:33Z</time>
      </trkpt>
      <trkpt lat="38.4517940" lon="-2.4518910">
        <ele>1355.9</ele>
        <time>2019-11-01T14:26:35Z</time>
      </trkpt>
      <trkpt lat="38.4518730" lon="-2.4518880">
        <ele>1355.9</ele>
        <time>2019-11-01T14:26:37Z</time>
      </trkpt>
      <trkpt lat="38.4519580" lon="-2.4518960">
        <ele>1355.9</ele>
        <time>2019-11-01T14:26:39Z</time>
      </trkpt>
      <trkpt lat="38.4520520" lon="-2.4518890">
        <ele>1355.9</ele>
        <time>2019-11-01T14:26:41Z</time>
      </trkpt>
      <trkpt lat="38.4521550" lon="-2.4518560">
        <ele>1355.9</ele>
        <time>2019-11-01T14:26:43Z</time>
      </trkpt>
      <trkpt lat="38.4522060" lon="-2.4518360">
        <ele>1355.9</ele>
        <time>2019-11-01T14:26:44Z</time>
      </trkpt>
      <trkpt lat="38.4522550" lon="-2.4518160">
        <ele>1358.1</ele>
        <time>2019-11-01T14:26:45Z</time>
      </trkpt>
      <trkpt lat="38.4523060" lon="-2.4517990">
        <ele>1358.1</ele>
        <time>2019-11-01T14:26:46Z</time>
      </trkpt>
      <trkpt lat="38.4523490" lon="-2.4517840">
        <ele>1358.1</ele>
        <time>2019-11-01T14:26:47Z</time>
      </trkpt>
      <trkpt lat="38.4524390" lon="-2.4517650">
        <ele>1358.1</ele>
        <time>2019-11-01T14:26:49Z</time>
      </trkpt>
      <trkpt lat="38.4525180" lon="-2.4517700">
        <ele>1358.1</ele>
        <time>2019-11-01T14:26:51Z</time>
      </trkpt>
      <trkpt lat="38.4526030" lon="-2.4517820">
        <ele>1358.1</ele>
        <time>2019-11-01T14:26:53Z</time>
      </trkpt>
      <trkpt lat="38.4526870" lon="-2.4517860">
        <ele>1358.1</ele>
        <time>2019-11-01T14:26:55Z</time>
      </trkpt>
      <trkpt lat="38.4527740" lon="-2.4517960">
        <ele>1358.1</ele>
        <time>2019-11-01T14:26:57Z</time>
      </trkpt>
      <trkpt lat="38.4528590" lon="-2.4518100">
        <ele>1358.1</ele>
        <time>2019-11-01T14:26:59Z</time>
      </trkpt>
      <trkpt lat="38.4529410" lon="-2.4518160">
        <ele>1358.1</ele>
        <time>2019-11-01T14:27:01Z</time>
      </trkpt>
      <trkpt lat="38.4530250" lon="-2.4518140">
        <ele>1358.1</ele>
        <time>2019-11-01T14:27:03Z</time>
      </trkpt>
      <trkpt lat="38.4531000" lon="-2.4518290">
        <ele>1358.1</ele>
        <time>2019-11-01T14:27:05Z</time>
      </trkpt>
      <trkpt lat="38.4531710" lon="-2.4518560">
        <ele>1358.1</ele>
        <time>2019-11-01T14:27:07Z</time>
      </trkpt>
      <trkpt lat="38.4532560" lon="-2.4518910">
        <ele>1358.1</ele>
        <time>2019-11-01T14:27:09Z</time>
      </trkpt>
      <trkpt lat="38.4533040" lon="-2.4519110">
        <ele>1358.1</ele>
        <time>2019-11-01T14:27:10Z</time>
      </trkpt>
      <trkpt lat="38.4533990" lon="-2.4519630">
        <ele>1358.1</ele>
        <time>2019-11-01T14:27:12Z</time>
      </trkpt>
      <trkpt lat="38.4534500" lon="-2.4519990">
        <ele>1358.1</ele>
        <time>2019-11-01T14:27:13Z</time>
      </trkpt>
      <trkpt lat="38.4534940" lon="-2.4520400">
        <ele>1358.1</ele>
        <time>2019-11-01T14:27:14Z</time>
      </trkpt>
      <trkpt lat="38.4535370" lon="-2.4520840">
        <ele>1358.1</ele>
        <time>2019-11-01T14:27:15Z</time>
      </trkpt>
      <trkpt lat="38.4535760" lon="-2.4521300">
        <ele>1358.1</ele>
        <time>2019-11-01T14:27:16Z</time>
      </trkpt>
      <trkpt lat="38.4536290" lon="-2.4522250">
        <ele>1358.1</ele>
        <time>2019-11-01T14:27:18Z</time>
      </trkpt>
      <trkpt lat="38.4536680" lon="-2.4523050">
        <ele>1358.1</ele>
        <time>2019-11-01T14:27:20Z</time>
      </trkpt>
      <trkpt lat="38.4536930" lon="-2.4523660">
        <ele>1358.1</ele>
        <time>2019-11-01T14:27:22Z</time>
      </trkpt>
      <trkpt lat="38.4537160" lon="-2.4524350">
        <ele>1358.1</ele>
        <time>2019-11-01T14:27:25Z</time>
      </trkpt>
      <trkpt lat="38.4537420" lon="-2.4525070">
        <ele>1358.1</ele>
        <time>2019-11-01T14:27:29Z</time>
      </trkpt>
      <trkpt lat="38.4537700" lon="-2.4525730">
        <ele>1358.1</ele>
        <time>2019-11-01T14:27:33Z</time>
      </trkpt>
      <trkpt lat="38.4538040" lon="-2.4526380">
        <ele>1358.1</ele>
        <time>2019-11-01T14:27:38Z</time>
      </trkpt>
      <trkpt lat="38.4538470" lon="-2.4526960">
        <ele>1358.1</ele>
        <time>2019-11-01T14:27:41Z</time>
      </trkpt>
      <trkpt lat="38.4538910" lon="-2.4527360">
        <ele>1358.1</ele>
        <time>2019-11-01T14:27:43Z</time>
      </trkpt>
      <trkpt lat="38.4539340" lon="-2.4527720">
        <ele>1358.1</ele>
        <time>2019-11-01T14:27:45Z</time>
      </trkpt>
      <trkpt lat="38.4539750" lon="-2.4528050">
        <ele>1358.1</ele>
        <time>2019-11-01T14:27:47Z</time>
      </trkpt>
      <trkpt lat="38.4540420" lon="-2.4528540">
        <ele>1358.1</ele>
        <time>2019-11-01T14:27:50Z</time>
      </trkpt>
      <trkpt lat="38.4541000" lon="-2.4528950">
        <ele>1358.1</ele>
        <time>2019-11-01T14:27:53Z</time>
      </trkpt>
      <trkpt lat="38.4541470" lon="-2.4529160">
        <ele>1358.1</ele>
        <time>2019-11-01T14:27:55Z</time>
      </trkpt>
      <trkpt lat="38.4542160" lon="-2.4529420">
        <ele>1358.1</ele>
        <time>2019-11-01T14:27:58Z</time>
      </trkpt>
      <trkpt lat="38.4542720" lon="-2.4529560">
        <ele>1358.1</ele>
        <time>2019-11-01T14:28:01Z</time>
      </trkpt>
      <trkpt lat="38.4543310" lon="-2.4529640">
        <ele>1358.1</ele>
        <time>2019-11-01T14:28:04Z</time>
      </trkpt>
      <trkpt lat="38.4543920" lon="-2.4529650">
        <ele>1358.1</ele>
        <time>2019-11-01T14:28:08Z</time>
      </trkpt>
      <trkpt lat="38.4544490" lon="-2.4529570">
        <ele>1358.1</ele>
        <time>2019-11-01T14:28:12Z</time>
      </trkpt>
      <trkpt lat="38.4545020" lon="-2.4529520">
        <ele>1358.1</ele>
        <time>2019-11-01T14:28:16Z</time>
      </trkpt>
      <trkpt lat="38.4545480" lon="-2.4529340">
        <ele>1358.1</ele>
        <time>2019-11-01T14:28:20Z</time>
      </trkpt>
      <trkpt lat="38.4546020" lon="-2.4529080">
        <ele>1358.1</ele>
        <time>2019-11-01T14:28:26Z</time>
      </trkpt>
      <trkpt lat="38.4546410" lon="-2.4528770">
        <ele>1358.1</ele>
        <time>2019-11-01T14:28:31Z</time>
      </trkpt>
      <trkpt lat="38.4550630" lon="-2.4524630">
        <ele>1353.1</ele>
        <time>2019-11-01T14:30:22Z</time>
      </trkpt>
      <trkpt lat="38.4551240" lon="-2.4524410">
        <ele>1350.3</ele>
        <time>2019-11-01T14:30:27Z</time>
      </trkpt>
      <trkpt lat="38.4551880" lon="-2.4524480">
        <ele>1350.3</ele>
        <time>2019-11-01T14:30:30Z</time>
      </trkpt>
      <trkpt lat="38.4552520" lon="-2.4524600">
        <ele>1348.9</ele>
        <time>2019-11-01T14:30:32Z</time>
      </trkpt>
      <trkpt lat="38.4553140" lon="-2.4524770">
        <ele>1348.9</ele>
        <time>2019-11-01T14:30:34Z</time>
      </trkpt>
      <trkpt lat="38.4553830" lon="-2.4525120">
        <ele>1348.9</ele>
        <time>2019-11-01T14:30:36Z</time>
      </trkpt>
      <trkpt lat="38.4554470" lon="-2.4525570">
        <ele>1348.9</ele>
        <time>2019-11-01T14:30:38Z</time>
      </trkpt>
      <trkpt lat="38.4555060" lon="-2.4525990">
        <ele>1348.9</ele>
        <time>2019-11-01T14:30:40Z</time>
      </trkpt>
      <trkpt lat="38.4555520" lon="-2.4526340">
        <ele>1348.9</ele>
        <time>2019-11-01T14:30:42Z</time>
      </trkpt>
      <trkpt lat="38.4556080" lon="-2.4526700">
        <ele>1348.9</ele>
        <time>2019-11-01T14:30:45Z</time>
      </trkpt>
      <trkpt lat="38.4556620" lon="-2.4526950">
        <ele>1348.9</ele>
        <time>2019-11-01T14:30:48Z</time>
      </trkpt>
      <trkpt lat="38.4557110" lon="-2.4527180">
        <ele>1348.9</ele>
        <time>2019-11-01T14:30:51Z</time>
      </trkpt>
      <trkpt lat="38.4557620" lon="-2.4527440">
        <ele>1348.7</ele>
        <time>2019-11-01T14:30:54Z</time>
      </trkpt>
      <trkpt lat="38.4558000" lon="-2.4527790">
        <ele>1348.7</ele>
        <time>2019-11-01T14:30:57Z</time>
      </trkpt>
      <trkpt lat="38.4558440" lon="-2.4528260">
        <ele>1348.7</ele>
        <time>2019-11-01T14:31:01Z</time>
      </trkpt>
      <trkpt lat="38.4558900" lon="-2.4528820">
        <ele>1348.7</ele>
        <time>2019-11-01T14:31:05Z</time>
      </trkpt>
      <trkpt lat="38.4559210" lon="-2.4529190">
        <ele>1348.7</ele>
        <time>2019-11-01T14:31:08Z</time>
      </trkpt>
      <trkpt lat="38.4559590" lon="-2.4529700">
        <ele>1348.7</ele>
        <time>2019-11-01T14:31:12Z</time>
      </trkpt>
      <trkpt lat="38.4559950" lon="-2.4530170">
        <ele>1350.0</ele>
        <time>2019-11-01T14:31:16Z</time>
      </trkpt>
      <trkpt lat="38.4560310" lon="-2.4530640">
        <ele>1351.2</ele>
        <time>2019-11-01T14:31:20Z</time>
      </trkpt>
      <trkpt lat="38.4560740" lon="-2.4531040">
        <ele>1352.6</ele>
        <time>2019-11-01T14:31:24Z</time>
      </trkpt>
      <trkpt lat="38.4561080" lon="-2.4531590">
        <ele>1352.6</ele>
        <time>2019-11-01T14:31:28Z</time>
      </trkpt>
      <trkpt lat="38.4561430" lon="-2.4532090">
        <ele>1352.6</ele>
        <time>2019-11-01T14:31:32Z</time>
      </trkpt>
      <trkpt lat="38.4561920" lon="-2.4532530">
        <ele>1354.0</ele>
        <time>2019-11-01T14:31:36Z</time>
      </trkpt>
      <trkpt lat="38.4562480" lon="-2.4532760">
        <ele>1355.3</ele>
        <time>2019-11-01T14:31:40Z</time>
      </trkpt>
      <trkpt lat="38.4563100" lon="-2.4533020">
        <ele>1355.3</ele>
        <time>2019-11-01T14:31:44Z</time>
      </trkpt>
      <trkpt lat="38.4563610" lon="-2.4533350">
        <ele>1356.5</ele>
        <time>2019-11-01T14:31:47Z</time>
      </trkpt>
      <trkpt lat="38.4564120" lon="-2.4533800">
        <ele>1356.5</ele>
        <time>2019-11-01T14:31:50Z</time>
      </trkpt>
      <trkpt lat="38.4564580" lon="-2.4534410">
        <ele>1356.5</ele>
        <time>2019-11-01T14:31:53Z</time>
      </trkpt>
      <trkpt lat="38.4564970" lon="-2.4535250">
        <ele>1356.5</ele>
        <time>2019-11-01T14:31:56Z</time>
      </trkpt>
      <trkpt lat="38.4565320" lon="-2.4535900">
        <ele>1356.5</ele>
        <time>2019-11-01T14:31:58Z</time>
      </trkpt>
      <trkpt lat="38.4565810" lon="-2.4536380">
        <ele>1356.5</ele>
        <time>2019-11-01T14:32:00Z</time>
      </trkpt>
      <trkpt lat="38.4566500" lon="-2.4536600">
        <ele>1356.5</ele>
        <time>2019-11-01T14:32:02Z</time>
      </trkpt>
      <trkpt lat="38.4567220" lon="-2.4536760">
        <ele>1356.5</ele>
        <time>2019-11-01T14:32:04Z</time>
      </trkpt>
      <trkpt lat="38.4567910" lon="-2.4537090">
        <ele>1356.5</ele>
        <time>2019-11-01T14:32:06Z</time>
      </trkpt>
      <trkpt lat="38.4568400" lon="-2.4537580">
        <ele>1356.5</ele>
        <time>2019-11-01T14:32:08Z</time>
      </trkpt>
      <trkpt lat="38.4568760" lon="-2.4538140">
        <ele>1356.5</ele>
        <time>2019-11-01T14:32:10Z</time>
      </trkpt>
      <trkpt lat="38.4569090" lon="-2.4538770">
        <ele>1356.5</ele>
        <time>2019-11-01T14:32:12Z</time>
      </trkpt>
      <trkpt lat="38.4569450" lon="-2.4539380">
        <ele>1356.5</ele>
        <time>2019-11-01T14:32:14Z</time>
      </trkpt>
      <trkpt lat="38.4569860" lon="-2.4540000">
        <ele>1356.5</ele>
        <time>2019-11-01T14:32:16Z</time>
      </trkpt>
      <trkpt lat="38.4570270" lon="-2.4540690">
        <ele>1356.5</ele>
        <time>2019-11-01T14:32:18Z</time>
      </trkpt>
      <trkpt lat="38.4570780" lon="-2.4541570">
        <ele>1356.5</ele>
        <time>2019-11-01T14:32:20Z</time>
      </trkpt>
      <trkpt lat="38.4571240" lon="-2.4542500">
        <ele>1356.5</ele>
        <time>2019-11-01T14:32:22Z</time>
      </trkpt>
      <trkpt lat="38.4571570" lon="-2.4543480">
        <ele>1356.5</ele>
        <time>2019-11-01T14:32:24Z</time>
      </trkpt>
      <trkpt lat="38.4571900" lon="-2.4544430">
        <ele>1356.5</ele>
        <time>2019-11-01T14:32:26Z</time>
      </trkpt>
      <trkpt lat="38.4572210" lon="-2.4545350">
        <ele>1356.5</ele>
        <time>2019-11-01T14:32:28Z</time>
      </trkpt>
      <trkpt lat="38.4572360" lon="-2.4546160">
        <ele>1356.5</ele>
        <time>2019-11-01T14:32:30Z</time>
      </trkpt>
      <trkpt lat="38.4572420" lon="-2.4546880">
        <ele>1356.5</ele>
        <time>2019-11-01T14:32:32Z</time>
      </trkpt>
      <trkpt lat="38.4572440" lon="-2.4547540">
        <ele>1356.5</ele>
        <time>2019-11-01T14:32:34Z</time>
      </trkpt>
      <trkpt lat="38.4572440" lon="-2.4548330">
        <ele>1352.6</ele>
        <time>2019-11-01T14:32:36Z</time>
      </trkpt>
      <trkpt lat="38.4572440" lon="-2.4549100">
        <ele>1352.6</ele>
        <time>2019-11-01T14:32:38Z</time>
      </trkpt>
      <trkpt lat="38.4572490" lon="-2.4549830">
        <ele>1352.6</ele>
        <time>2019-11-01T14:32:40Z</time>
      </trkpt>
      <trkpt lat="38.4572520" lon="-2.4550490">
        <ele>1352.6</ele>
        <time>2019-11-01T14:32:42Z</time>
      </trkpt>
      <trkpt lat="38.4572650" lon="-2.4551160">
        <ele>1352.6</ele>
        <time>2019-11-01T14:32:44Z</time>
      </trkpt>
      <trkpt lat="38.4572900" lon="-2.4551910">
        <ele>1352.6</ele>
        <time>2019-11-01T14:32:46Z</time>
      </trkpt>
      <trkpt lat="38.4573440" lon="-2.4552640">
        <ele>1352.6</ele>
        <time>2019-11-01T14:32:48Z</time>
      </trkpt>
      <trkpt lat="38.4574130" lon="-2.4553180">
        <ele>1352.6</ele>
        <time>2019-11-01T14:32:50Z</time>
      </trkpt>
      <trkpt lat="38.4574850" lon="-2.4553600">
        <ele>1352.6</ele>
        <time>2019-11-01T14:32:52Z</time>
      </trkpt>
      <trkpt lat="38.4575690" lon="-2.4553920">
        <ele>1352.6</ele>
        <time>2019-11-01T14:32:54Z</time>
      </trkpt>
      <trkpt lat="38.4576540" lon="-2.4554290">
        <ele>1352.6</ele>
        <time>2019-11-01T14:32:56Z</time>
      </trkpt>
      <trkpt lat="38.4577380" lon="-2.4554650">
        <ele>1352.6</ele>
        <time>2019-11-01T14:32:58Z</time>
      </trkpt>
      <trkpt lat="38.4578180" lon="-2.4555090">
        <ele>1352.6</ele>
        <time>2019-11-01T14:33:00Z</time>
      </trkpt>
      <trkpt lat="38.4579120" lon="-2.4555600">
        <ele>1352.6</ele>
        <time>2019-11-01T14:33:02Z</time>
      </trkpt>
      <trkpt lat="38.4579660" lon="-2.4555880">
        <ele>1352.6</ele>
        <time>2019-11-01T14:33:03Z</time>
      </trkpt>
      <trkpt lat="38.4580150" lon="-2.4556150">
        <ele>1352.6</ele>
        <time>2019-11-01T14:33:04Z</time>
      </trkpt>
      <trkpt lat="38.4581250" lon="-2.4556680">
        <ele>1352.6</ele>
        <time>2019-11-01T14:33:06Z</time>
      </trkpt>
      <trkpt lat="38.4581790" lon="-2.4556920">
        <ele>1352.6</ele>
        <time>2019-11-01T14:33:07Z</time>
      </trkpt>
      <trkpt lat="38.4582320" lon="-2.4557150">
        <ele>1352.6</ele>
        <time>2019-11-01T14:33:08Z</time>
      </trkpt>
      <trkpt lat="38.4582860" lon="-2.4557370">
        <ele>1352.6</ele>
        <time>2019-11-01T14:33:09Z</time>
      </trkpt>
      <trkpt lat="38.4583320" lon="-2.4557570">
        <ele>1352.6</ele>
        <time>2019-11-01T14:33:10Z</time>
      </trkpt>
      <trkpt lat="38.4583810" lon="-2.4557790">
        <ele>1352.6</ele>
        <time>2019-11-01T14:33:11Z</time>
      </trkpt>
      <trkpt lat="38.4584270" lon="-2.4558040">
        <ele>1352.6</ele>
        <time>2019-11-01T14:33:12Z</time>
      </trkpt>
      <trkpt lat="38.4585190" lon="-2.4558530">
        <ele>1352.6</ele>
        <time>2019-11-01T14:33:14Z</time>
      </trkpt>
      <trkpt lat="38.4585960" lon="-2.4559020">
        <ele>1352.6</ele>
        <time>2019-11-01T14:33:16Z</time>
      </trkpt>
      <trkpt lat="38.4586800" lon="-2.4559440">
        <ele>1352.6</ele>
        <time>2019-11-01T14:33:18Z</time>
      </trkpt>
      <trkpt lat="38.4587520" lon="-2.4559790">
        <ele>1352.6</ele>
        <time>2019-11-01T14:33:20Z</time>
      </trkpt>
      <trkpt lat="38.4588160" lon="-2.4560030">
        <ele>1352.6</ele>
        <time>2019-11-01T14:33:22Z</time>
      </trkpt>
      <trkpt lat="38.4588670" lon="-2.4560210">
        <ele>1352.6</ele>
        <time>2019-11-01T14:33:24Z</time>
      </trkpt>
      <trkpt lat="38.4589160" lon="-2.4560390">
        <ele>1352.6</ele>
        <time>2019-11-01T14:33:26Z</time>
      </trkpt>
      <trkpt lat="38.4589700" lon="-2.4560690">
        <ele>1352.6</ele>
        <time>2019-11-01T14:33:29Z</time>
      </trkpt>
      <trkpt lat="38.4590160" lon="-2.4561400">
        <ele>1352.6</ele>
        <time>2019-11-01T14:33:34Z</time>
      </trkpt>
      <trkpt lat="38.4590540" lon="-2.4562040">
        <ele>1352.6</ele>
        <time>2019-11-01T14:33:37Z</time>
      </trkpt>
      <trkpt lat="38.4590950" lon="-2.4562550">
        <ele>1352.6</ele>
        <time>2019-11-01T14:33:40Z</time>
      </trkpt>
      <trkpt lat="38.4591330" lon="-2.4563110">
        <ele>1350.6</ele>
        <time>2019-11-01T14:33:44Z</time>
      </trkpt>
      <trkpt lat="38.4591800" lon="-2.4563910">
        <ele>1350.6</ele>
        <time>2019-11-01T14:33:47Z</time>
      </trkpt>
      <trkpt lat="38.4592260" lon="-2.4564530">
        <ele>1350.6</ele>
        <time>2019-11-01T14:33:49Z</time>
      </trkpt>
      <trkpt lat="38.4592920" lon="-2.4565000">
        <ele>1350.6</ele>
        <time>2019-11-01T14:33:51Z</time>
      </trkpt>
      <trkpt lat="38.4593820" lon="-2.4565230">
        <ele>1350.6</ele>
        <time>2019-11-01T14:33:53Z</time>
      </trkpt>
      <trkpt lat="38.4594870" lon="-2.4565210">
        <ele>1350.6</ele>
        <time>2019-11-01T14:33:55Z</time>
      </trkpt>
      <trkpt lat="38.4595400" lon="-2.4565140">
        <ele>1350.6</ele>
        <time>2019-11-01T14:33:56Z</time>
      </trkpt>
      <trkpt lat="38.4595990" lon="-2.4565050">
        <ele>1350.6</ele>
        <time>2019-11-01T14:33:57Z</time>
      </trkpt>
      <trkpt lat="38.4596530" lon="-2.4564950">
        <ele>1350.6</ele>
        <time>2019-11-01T14:33:58Z</time>
      </trkpt>
      <trkpt lat="38.4597580" lon="-2.4564760">
        <ele>1350.6</ele>
        <time>2019-11-01T14:34:00Z</time>
      </trkpt>
      <trkpt lat="38.4598090" lon="-2.4564690">
        <ele>1350.6</ele>
        <time>2019-11-01T14:34:01Z</time>
      </trkpt>
      <trkpt lat="38.4598660" lon="-2.4564690">
        <ele>1350.6</ele>
        <time>2019-11-01T14:34:02Z</time>
      </trkpt>
      <trkpt lat="38.4599140" lon="-2.4564790">
        <ele>1350.6</ele>
        <time>2019-11-01T14:34:03Z</time>
      </trkpt>
      <trkpt lat="38.4599600" lon="-2.4564950">
        <ele>1350.6</ele>
        <time>2019-11-01T14:34:04Z</time>
      </trkpt>
      <trkpt lat="38.4600500" lon="-2.4565470">
        <ele>1348.6</ele>
        <time>2019-11-01T14:34:06Z</time>
      </trkpt>
      <trkpt lat="38.4601450" lon="-2.4566290">
        <ele>1348.6</ele>
        <time>2019-11-01T14:34:08Z</time>
      </trkpt>
      <trkpt lat="38.4601910" lon="-2.4566750">
        <ele>1348.6</ele>
        <time>2019-11-01T14:34:09Z</time>
      </trkpt>
      <trkpt lat="38.4602370" lon="-2.4567170">
        <ele>1348.6</ele>
        <time>2019-11-01T14:34:10Z</time>
      </trkpt>
      <trkpt lat="38.4602850" lon="-2.4567630">
        <ele>1348.6</ele>
        <time>2019-11-01T14:34:11Z</time>
      </trkpt>
      <trkpt lat="38.4603390" lon="-2.4568060">
        <ele>1348.6</ele>
        <time>2019-11-01T14:34:12Z</time>
      </trkpt>
      <trkpt lat="38.4603930" lon="-2.4568440">
        <ele>1348.6</ele>
        <time>2019-11-01T14:34:13Z</time>
      </trkpt>
      <trkpt lat="38.4604390" lon="-2.4568790">
        <ele>1348.6</ele>
        <time>2019-11-01T14:34:14Z</time>
      </trkpt>
      <trkpt lat="38.4604800" lon="-2.4569130">
        <ele>1348.6</ele>
        <time>2019-11-01T14:34:15Z</time>
      </trkpt>
      <trkpt lat="38.4605180" lon="-2.4569490">
        <ele>1348.6</ele>
        <time>2019-11-01T14:34:16Z</time>
      </trkpt>
      <trkpt lat="38.4605720" lon="-2.4570400">
        <ele>1348.6</ele>
        <time>2019-11-01T14:34:18Z</time>
      </trkpt>
      <trkpt lat="38.4606180" lon="-2.4571600">
        <ele>1348.6</ele>
        <time>2019-11-01T14:34:20Z</time>
      </trkpt>
      <trkpt lat="38.4606390" lon="-2.4572310">
        <ele>1348.6</ele>
        <time>2019-11-01T14:34:21Z</time>
      </trkpt>
      <trkpt lat="38.4606670" lon="-2.4573070">
        <ele>1348.6</ele>
        <time>2019-11-01T14:34:22Z</time>
      </trkpt>
      <trkpt lat="38.4606980" lon="-2.4573820">
        <ele>1348.6</ele>
        <time>2019-11-01T14:34:23Z</time>
      </trkpt>
      <trkpt lat="38.4607280" lon="-2.4574500">
        <ele>1346.6</ele>
        <time>2019-11-01T14:34:24Z</time>
      </trkpt>
      <trkpt lat="38.4607670" lon="-2.4575220">
        <ele>1346.6</ele>
        <time>2019-11-01T14:34:25Z</time>
      </trkpt>
      <trkpt lat="38.4608080" lon="-2.4575880">
        <ele>1346.6</ele>
        <time>2019-11-01T14:34:26Z</time>
      </trkpt>
      <trkpt lat="38.4608490" lon="-2.4576450">
        <ele>1346.6</ele>
        <time>2019-11-01T14:34:27Z</time>
      </trkpt>
      <trkpt lat="38.4608950" lon="-2.4576920">
        <ele>1346.6</ele>
        <time>2019-11-01T14:34:28Z</time>
      </trkpt>
      <trkpt lat="38.4609410" lon="-2.4577290">
        <ele>1346.6</ele>
        <time>2019-11-01T14:34:29Z</time>
      </trkpt>
      <trkpt lat="38.4609870" lon="-2.4577550">
        <ele>1346.6</ele>
        <time>2019-11-01T14:34:30Z</time>
      </trkpt>
      <trkpt lat="38.4610430" lon="-2.4577760">
        <ele>1346.6</ele>
        <time>2019-11-01T14:34:31Z</time>
      </trkpt>
      <trkpt lat="38.4611020" lon="-2.4577930">
        <ele>1346.6</ele>
        <time>2019-11-01T14:34:32Z</time>
      </trkpt>
      <trkpt lat="38.4611580" lon="-2.4578050">
        <ele>1346.6</ele>
        <time>2019-11-01T14:34:33Z</time>
      </trkpt>
      <trkpt lat="38.4612200" lon="-2.4578140">
        <ele>1346.6</ele>
        <time>2019-11-01T14:34:34Z</time>
      </trkpt>
      <trkpt lat="38.4612840" lon="-2.4578190">
        <ele>1346.6</ele>
        <time>2019-11-01T14:34:35Z</time>
      </trkpt>
      <trkpt lat="38.4613500" lon="-2.4578240">
        <ele>1346.6</ele>
        <time>2019-11-01T14:34:36Z</time>
      </trkpt>
      <trkpt lat="38.4614090" lon="-2.4578280">
        <ele>1344.5</ele>
        <time>2019-11-01T14:34:37Z</time>
      </trkpt>
      <trkpt lat="38.4614680" lon="-2.4578320">
        <ele>1344.5</ele>
        <time>2019-11-01T14:34:38Z</time>
      </trkpt>
      <trkpt lat="38.4615220" lon="-2.4578390">
        <ele>1344.5</ele>
        <time>2019-11-01T14:34:39Z</time>
      </trkpt>
      <trkpt lat="38.4615760" lon="-2.4578460">
        <ele>1344.5</ele>
        <time>2019-11-01T14:34:40Z</time>
      </trkpt>
      <trkpt lat="38.4616240" lon="-2.4578560">
        <ele>1344.5</ele>
        <time>2019-11-01T14:34:41Z</time>
      </trkpt>
      <trkpt lat="38.4616780" lon="-2.4578640">
        <ele>1344.5</ele>
        <time>2019-11-01T14:34:42Z</time>
      </trkpt>
      <trkpt lat="38.4617270" lon="-2.4578700">
        <ele>1344.5</ele>
        <time>2019-11-01T14:34:43Z</time>
      </trkpt>
      <trkpt lat="38.4618210" lon="-2.4578700">
        <ele>1344.5</ele>
        <time>2019-11-01T14:34:45Z</time>
      </trkpt>
      <trkpt lat="38.4619060" lon="-2.4578550">
        <ele>1344.5</ele>
        <time>2019-11-01T14:34:47Z</time>
      </trkpt>
      <trkpt lat="38.4619800" lon="-2.4578240">
        <ele>1342.4</ele>
        <time>2019-11-01T14:34:49Z</time>
      </trkpt>
      <trkpt lat="38.4620360" lon="-2.4577770">
        <ele>1342.4</ele>
        <time>2019-11-01T14:34:51Z</time>
      </trkpt>
      <trkpt lat="38.4620850" lon="-2.4577180">
        <ele>1342.4</ele>
        <time>2019-11-01T14:34:53Z</time>
      </trkpt>
      <trkpt lat="38.4621390" lon="-2.4576580">
        <ele>1342.4</ele>
        <time>2019-11-01T14:34:55Z</time>
      </trkpt>
      <trkpt lat="38.4621950" lon="-2.4575940">
        <ele>1342.4</ele>
        <time>2019-11-01T14:34:57Z</time>
      </trkpt>
      <trkpt lat="38.4622690" lon="-2.4575300">
        <ele>1342.4</ele>
        <time>2019-11-01T14:34:59Z</time>
      </trkpt>
      <trkpt lat="38.4623540" lon="-2.4574870">
        <ele>1340.4</ele>
        <time>2019-11-01T14:35:01Z</time>
      </trkpt>
      <trkpt lat="38.4624440" lon="-2.4574770">
        <ele>1340.4</ele>
        <time>2019-11-01T14:35:03Z</time>
      </trkpt>
      <trkpt lat="38.4624950" lon="-2.4574770">
        <ele>1340.4</ele>
        <time>2019-11-01T14:35:04Z</time>
      </trkpt>
      <trkpt lat="38.4625920" lon="-2.4574900">
        <ele>1340.4</ele>
        <time>2019-11-01T14:35:06Z</time>
      </trkpt>
      <trkpt lat="38.4626460" lon="-2.4574990">
        <ele>1338.4</ele>
        <time>2019-11-01T14:35:07Z</time>
      </trkpt>
      <trkpt lat="38.4627000" lon="-2.4575070">
        <ele>1338.4</ele>
        <time>2019-11-01T14:35:08Z</time>
      </trkpt>
      <trkpt lat="38.4627560" lon="-2.4575110">
        <ele>1338.4</ele>
        <time>2019-11-01T14:35:09Z</time>
      </trkpt>
      <trkpt lat="38.4628150" lon="-2.4575110">
        <ele>1338.4</ele>
        <time>2019-11-01T14:35:10Z</time>
      </trkpt>
      <trkpt lat="38.4628710" lon="-2.4575050">
        <ele>1338.4</ele>
        <time>2019-11-01T14:35:11Z</time>
      </trkpt>
      <trkpt lat="38.4629300" lon="-2.4574970">
        <ele>1338.4</ele>
        <time>2019-11-01T14:35:12Z</time>
      </trkpt>
      <trkpt lat="38.4629860" lon="-2.4574880">
        <ele>1338.4</ele>
        <time>2019-11-01T14:35:13Z</time>
      </trkpt>
      <trkpt lat="38.4630400" lon="-2.4574800">
        <ele>1338.4</ele>
        <time>2019-11-01T14:35:14Z</time>
      </trkpt>
      <trkpt lat="38.4630940" lon="-2.4574730">
        <ele>1338.4</ele>
        <time>2019-11-01T14:35:15Z</time>
      </trkpt>
      <trkpt lat="38.4631450" lon="-2.4574700">
        <ele>1338.4</ele>
        <time>2019-11-01T14:35:16Z</time>
      </trkpt>
      <trkpt lat="38.4631960" lon="-2.4574710">
        <ele>1338.4</ele>
        <time>2019-11-01T14:35:17Z</time>
      </trkpt>
      <trkpt lat="38.4632880" lon="-2.4574860">
        <ele>1336.4</ele>
        <time>2019-11-01T14:35:19Z</time>
      </trkpt>
      <trkpt lat="38.4633830" lon="-2.4575220">
        <ele>1336.4</ele>
        <time>2019-11-01T14:35:21Z</time>
      </trkpt>
      <trkpt lat="38.4634780" lon="-2.4575780">
        <ele>1336.4</ele>
        <time>2019-11-01T14:35:23Z</time>
      </trkpt>
      <trkpt lat="38.4635240" lon="-2.4576100">
        <ele>1336.4</ele>
        <time>2019-11-01T14:35:24Z</time>
      </trkpt>
      <trkpt lat="38.4635650" lon="-2.4576370">
        <ele>1334.2</ele>
        <time>2019-11-01T14:35:25Z</time>
      </trkpt>
      <trkpt lat="38.4636160" lon="-2.4576640">
        <ele>1334.2</ele>
        <time>2019-11-01T14:35:26Z</time>
      </trkpt>
      <trkpt lat="38.4636650" lon="-2.4576870">
        <ele>1334.2</ele>
        <time>2019-11-01T14:35:27Z</time>
      </trkpt>
      <trkpt lat="38.4637570" lon="-2.4577130">
        <ele>1334.2</ele>
        <time>2019-11-01T14:35:29Z</time>
      </trkpt>
      <trkpt lat="38.4638410" lon="-2.4577100">
        <ele>1334.2</ele>
        <time>2019-11-01T14:35:31Z</time>
      </trkpt>
      <trkpt lat="38.4639210" lon="-2.4576820">
        <ele>1334.2</ele>
        <time>2019-11-01T14:35:33Z</time>
      </trkpt>
      <trkpt lat="38.4640000" lon="-2.4576440">
        <ele>1332.0</ele>
        <time>2019-11-01T14:35:35Z</time>
      </trkpt>
      <trkpt lat="38.4640970" lon="-2.4576040">
        <ele>1332.0</ele>
        <time>2019-11-01T14:35:37Z</time>
      </trkpt>
      <trkpt lat="38.4642070" lon="-2.4575630">
        <ele>1332.0</ele>
        <time>2019-11-01T14:35:39Z</time>
      </trkpt>
      <trkpt lat="38.4642690" lon="-2.4575410">
        <ele>1330.0</ele>
        <time>2019-11-01T14:35:40Z</time>
      </trkpt>
      <trkpt lat="38.4643330" lon="-2.4575130">
        <ele>1330.0</ele>
        <time>2019-11-01T14:35:41Z</time>
      </trkpt>
      <trkpt lat="38.4644020" lon="-2.4574800">
        <ele>1330.0</ele>
        <time>2019-11-01T14:35:42Z</time>
      </trkpt>
      <trkpt lat="38.4644630" lon="-2.4574450">
        <ele>1330.0</ele>
        <time>2019-11-01T14:35:43Z</time>
      </trkpt>
      <trkpt lat="38.4645270" lon="-2.4574090">
        <ele>1330.0</ele>
        <time>2019-11-01T14:35:44Z</time>
      </trkpt>
      <trkpt lat="38.4645910" lon="-2.4573720">
        <ele>1330.0</ele>
        <time>2019-11-01T14:35:45Z</time>
      </trkpt>
      <trkpt lat="38.4647140" lon="-2.4572940">
        <ele>1330.0</ele>
        <time>2019-11-01T14:35:47Z</time>
      </trkpt>
      <trkpt lat="38.4647680" lon="-2.4572580">
        <ele>1330.0</ele>
        <time>2019-11-01T14:35:48Z</time>
      </trkpt>
      <trkpt lat="38.4648680" lon="-2.4571980">
        <ele>1327.8</ele>
        <time>2019-11-01T14:35:50Z</time>
      </trkpt>
      <trkpt lat="38.4649160" lon="-2.4571730">
        <ele>1327.8</ele>
        <time>2019-11-01T14:35:51Z</time>
      </trkpt>
      <trkpt lat="38.4649630" lon="-2.4571510">
        <ele>1327.8</ele>
        <time>2019-11-01T14:35:52Z</time>
      </trkpt>
      <trkpt lat="38.4650570" lon="-2.4571130">
        <ele>1325.8</ele>
        <time>2019-11-01T14:35:54Z</time>
      </trkpt>
      <trkpt lat="38.4651030" lon="-2.4570970">
        <ele>1325.8</ele>
        <time>2019-11-01T14:35:55Z</time>
      </trkpt>
      <trkpt lat="38.4651880" lon="-2.4570750">
        <ele>1325.8</ele>
        <time>2019-11-01T14:35:57Z</time>
      </trkpt>
      <trkpt lat="38.4652670" lon="-2.4570570">
        <ele>1325.8</ele>
        <time>2019-11-01T14:35:59Z</time>
      </trkpt>
      <trkpt lat="38.4653290" lon="-2.4570470">
        <ele>1325.8</ele>
        <time>2019-11-01T14:36:01Z</time>
      </trkpt>
      <trkpt lat="38.4653850" lon="-2.4570380">
        <ele>1323.6</ele>
        <time>2019-11-01T14:36:03Z</time>
      </trkpt>
      <trkpt lat="38.4654620" lon="-2.4570290">
        <ele>1323.6</ele>
        <time>2019-11-01T14:36:05Z</time>
      </trkpt>
      <trkpt lat="38.4655460" lon="-2.4570130">
        <ele>1323.6</ele>
        <time>2019-11-01T14:36:07Z</time>
      </trkpt>
      <trkpt lat="38.4656330" lon="-2.4569960">
        <ele>1321.4</ele>
        <time>2019-11-01T14:36:09Z</time>
      </trkpt>
      <trkpt lat="38.4657330" lon="-2.4569830">
        <ele>1321.4</ele>
        <time>2019-11-01T14:36:11Z</time>
      </trkpt>
      <trkpt lat="38.4657820" lon="-2.4569800">
        <ele>1321.4</ele>
        <time>2019-11-01T14:36:12Z</time>
      </trkpt>
      <trkpt lat="38.4658330" lon="-2.4569780">
        <ele>1321.4</ele>
        <time>2019-11-01T14:36:13Z</time>
      </trkpt>
      <trkpt lat="38.4659230" lon="-2.4569800">
        <ele>1321.4</ele>
        <time>2019-11-01T14:36:15Z</time>
      </trkpt>
      <trkpt lat="38.4660070" lon="-2.4569860">
        <ele>1319.4</ele>
        <time>2019-11-01T14:36:17Z</time>
      </trkpt>
      <trkpt lat="38.4660990" lon="-2.4569930">
        <ele>1319.4</ele>
        <time>2019-11-01T14:36:19Z</time>
      </trkpt>
      <trkpt lat="38.4661940" lon="-2.4569920">
        <ele>1319.4</ele>
        <time>2019-11-01T14:36:21Z</time>
      </trkpt>
      <trkpt lat="38.4662400" lon="-2.4569860">
        <ele>1319.4</ele>
        <time>2019-11-01T14:36:22Z</time>
      </trkpt>
      <trkpt lat="38.4663270" lon="-2.4569710">
        <ele>1316.1</ele>
        <time>2019-11-01T14:36:24Z</time>
      </trkpt>
      <trkpt lat="38.4663710" lon="-2.4569620">
        <ele>1316.1</ele>
        <time>2019-11-01T14:36:25Z</time>
      </trkpt>
      <trkpt lat="38.4664580" lon="-2.4569450">
        <ele>1316.1</ele>
        <time>2019-11-01T14:36:27Z</time>
      </trkpt>
      <trkpt lat="38.4665370" lon="-2.4569260">
        <ele>1316.1</ele>
        <time>2019-11-01T14:36:29Z</time>
      </trkpt>
      <trkpt lat="38.4666110" lon="-2.4568960">
        <ele>1316.1</ele>
        <time>2019-11-01T14:36:31Z</time>
      </trkpt>
      <trkpt lat="38.4666850" lon="-2.4568600">
        <ele>1313.8</ele>
        <time>2019-11-01T14:36:33Z</time>
      </trkpt>
      <trkpt lat="38.4667670" lon="-2.4568160">
        <ele>1313.8</ele>
        <time>2019-11-01T14:36:35Z</time>
      </trkpt>
      <trkpt lat="38.4668490" lon="-2.4567670">
        <ele>1313.8</ele>
        <time>2019-11-01T14:36:37Z</time>
      </trkpt>
      <trkpt lat="38.4669390" lon="-2.4567160">
        <ele>1311.8</ele>
        <time>2019-11-01T14:36:39Z</time>
      </trkpt>
      <trkpt lat="38.4670130" lon="-2.4566790">
        <ele>1309.6</ele>
        <time>2019-11-01T14:36:41Z</time>
      </trkpt>
      <trkpt lat="38.4670980" lon="-2.4566480">
        <ele>1309.6</ele>
        <time>2019-11-01T14:36:43Z</time>
      </trkpt>
      <trkpt lat="38.4671720" lon="-2.4566140">
        <ele>1309.6</ele>
        <time>2019-11-01T14:36:45Z</time>
      </trkpt>
      <trkpt lat="38.4672440" lon="-2.4565690">
        <ele>1309.6</ele>
        <time>2019-11-01T14:36:47Z</time>
      </trkpt>
      <trkpt lat="38.4673200" lon="-2.4565260">
        <ele>1307.5</ele>
        <time>2019-11-01T14:36:49Z</time>
      </trkpt>
      <trkpt lat="38.4674020" lon="-2.4564930">
        <ele>1307.5</ele>
        <time>2019-11-01T14:36:51Z</time>
      </trkpt>
      <trkpt lat="38.4674920" lon="-2.4564600">
        <ele>1307.5</ele>
        <time>2019-11-01T14:36:53Z</time>
      </trkpt>
      <trkpt lat="38.4675610" lon="-2.4564200">
        <ele>1305.3</ele>
        <time>2019-11-01T14:36:55Z</time>
      </trkpt>
      <trkpt lat="38.4675970" lon="-2.4563910">
        <ele>1303.2</ele>
        <time>2019-11-01T14:36:57Z</time>
      </trkpt>
      <trkpt lat="38.4677200" lon="-2.4563290">
        <ele>1299.0</ele>
        <time>2019-11-01T14:41:04Z</time>
      </trkpt>
      <trkpt lat="38.4677400" lon="-2.4562950">
        <ele>1296.0</ele>
        <time>2019-11-01T14:41:06Z</time>
      </trkpt>
      <trkpt lat="38.4677400" lon="-2.4562320">
        <ele>1296.0</ele>
        <time>2019-11-01T14:41:09Z</time>
      </trkpt>
      <trkpt lat="38.4677040" lon="-2.4561630">
        <ele>1293.9</ele>
        <time>2019-11-01T14:41:13Z</time>
      </trkpt>
      <trkpt lat="38.4676740" lon="-2.4561090">
        <ele>1293.9</ele>
        <time>2019-11-01T14:41:16Z</time>
      </trkpt>
      <trkpt lat="38.4676480" lon="-2.4560320">
        <ele>1293.9</ele>
        <time>2019-11-01T14:41:20Z</time>
      </trkpt>
      <trkpt lat="38.4676330" lon="-2.4559890">
        <ele>1288.8</ele>
        <time>2019-11-01T14:41:22Z</time>
      </trkpt>
      <trkpt lat="38.4676200" lon="-2.4559290">
        <ele>1288.8</ele>
        <time>2019-11-01T14:41:25Z</time>
      </trkpt>
      <trkpt lat="38.4676120" lon="-2.4558570">
        <ele>1288.8</ele>
        <time>2019-11-01T14:41:29Z</time>
      </trkpt>
      <trkpt lat="38.4676200" lon="-2.4558000">
        <ele>1286.7</ele>
        <time>2019-11-01T14:41:32Z</time>
      </trkpt>
      <trkpt lat="38.4676400" lon="-2.4557440">
        <ele>1286.7</ele>
        <time>2019-11-01T14:41:35Z</time>
      </trkpt>
      <trkpt lat="38.4676740" lon="-2.4556910">
        <ele>1282.5</ele>
        <time>2019-11-01T14:41:38Z</time>
      </trkpt>
      <trkpt lat="38.4677170" lon="-2.4556210">
        <ele>1282.5</ele>
        <time>2019-11-01T14:41:41Z</time>
      </trkpt>
      <trkpt lat="38.4677430" lon="-2.4555710">
        <ele>1282.5</ele>
        <time>2019-11-01T14:41:43Z</time>
      </trkpt>
      <trkpt lat="38.4677810" lon="-2.4554920">
        <ele>1282.5</ele>
        <time>2019-11-01T14:41:46Z</time>
      </trkpt>
      <trkpt lat="38.4678120" lon="-2.4554210">
        <ele>1280.5</ele>
        <time>2019-11-01T14:41:49Z</time>
      </trkpt>
      <trkpt lat="38.4678350" lon="-2.4553450">
        <ele>1280.5</ele>
        <time>2019-11-01T14:41:52Z</time>
      </trkpt>
      <trkpt lat="38.4678500" lon="-2.4552900">
        <ele>1276.1</ele>
        <time>2019-11-01T14:41:54Z</time>
      </trkpt>
      <trkpt lat="38.4678680" lon="-2.4552330">
        <ele>1276.1</ele>
        <time>2019-11-01T14:41:56Z</time>
      </trkpt>
      <trkpt lat="38.4678910" lon="-2.4551590">
        <ele>1276.1</ele>
        <time>2019-11-01T14:41:59Z</time>
      </trkpt>
      <trkpt lat="38.4679190" lon="-2.4550870">
        <ele>1276.1</ele>
        <time>2019-11-01T14:42:02Z</time>
      </trkpt>
      <trkpt lat="38.4679450" lon="-2.4550200">
        <ele>1274.1</ele>
        <time>2019-11-01T14:42:05Z</time>
      </trkpt>
      <trkpt lat="38.4679760" lon="-2.4549600">
        <ele>1274.1</ele>
        <time>2019-11-01T14:42:08Z</time>
      </trkpt>
      <trkpt lat="38.4679990" lon="-2.4549090">
        <ele>1269.5</ele>
        <time>2019-11-01T14:42:10Z</time>
      </trkpt>
      <trkpt lat="38.4680290" lon="-2.4548510">
        <ele>1269.5</ele>
        <time>2019-11-01T14:42:12Z</time>
      </trkpt>
      <trkpt lat="38.4680550" lon="-2.4547820">
        <ele>1269.5</ele>
        <time>2019-11-01T14:42:14Z</time>
      </trkpt>
      <trkpt lat="38.4680780" lon="-2.4546970">
        <ele>1269.5</ele>
        <time>2019-11-01T14:42:16Z</time>
      </trkpt>
      <trkpt lat="38.4681010" lon="-2.4546120">
        <ele>1269.5</ele>
        <time>2019-11-01T14:42:18Z</time>
      </trkpt>
      <trkpt lat="38.4681240" lon="-2.4545360">
        <ele>1269.5</ele>
        <time>2019-11-01T14:42:20Z</time>
      </trkpt>
      <trkpt lat="38.4681450" lon="-2.4544740">
        <ele>1269.5</ele>
        <time>2019-11-01T14:42:22Z</time>
      </trkpt>
      <trkpt lat="38.4681630" lon="-2.4544120">
        <ele>1269.5</ele>
        <time>2019-11-01T14:42:24Z</time>
      </trkpt>
      <trkpt lat="38.4681780" lon="-2.4543570">
        <ele>1269.5</ele>
        <time>2019-11-01T14:42:26Z</time>
      </trkpt>
      <trkpt lat="38.4681780" lon="-2.4542730">
        <ele>1269.5</ele>
        <time>2019-11-01T14:42:29Z</time>
      </trkpt>
      <trkpt lat="38.4681470" lon="-2.4541700">
        <ele>1268.3</ele>
        <time>2019-11-01T14:42:32Z</time>
      </trkpt>
      <trkpt lat="38.4681290" lon="-2.4540880">
        <ele>1267.1</ele>
        <time>2019-11-01T14:42:34Z</time>
      </trkpt>
      <trkpt lat="38.4681140" lon="-2.4540080">
        <ele>1267.1</ele>
        <time>2019-11-01T14:42:36Z</time>
      </trkpt>
      <trkpt lat="38.4680990" lon="-2.4539310">
        <ele>1267.1</ele>
        <time>2019-11-01T14:42:38Z</time>
      </trkpt>
      <trkpt lat="38.4680780" lon="-2.4538630">
        <ele>1268.6</ele>
        <time>2019-11-01T14:42:40Z</time>
      </trkpt>
      <trkpt lat="38.4680550" lon="-2.4538020">
        <ele>1268.6</ele>
        <time>2019-11-01T14:42:42Z</time>
      </trkpt>
      <trkpt lat="38.4680320" lon="-2.4537410">
        <ele>1268.6</ele>
        <time>2019-11-01T14:42:44Z</time>
      </trkpt>
      <trkpt lat="38.4680060" lon="-2.4536870">
        <ele>1269.8</ele>
        <time>2019-11-01T14:42:46Z</time>
      </trkpt>
      <trkpt lat="38.4679860" lon="-2.4536280">
        <ele>1269.8</ele>
        <time>2019-11-01T14:42:48Z</time>
      </trkpt>
      <trkpt lat="38.4679580" lon="-2.4535550">
        <ele>1269.8</ele>
        <time>2019-11-01T14:42:51Z</time>
      </trkpt>
      <trkpt lat="38.4679190" lon="-2.4534930">
        <ele>1269.8</ele>
        <time>2019-11-01T14:42:54Z</time>
      </trkpt>
      <trkpt lat="38.4678810" lon="-2.4534440">
        <ele>1271.0</ele>
        <time>2019-11-01T14:42:57Z</time>
      </trkpt>
      <trkpt lat="38.4678430" lon="-2.4534020">
        <ele>1271.0</ele>
        <time>2019-11-01T14:43:00Z</time>
      </trkpt>
      <trkpt lat="38.4677990" lon="-2.4533550">
        <ele>1271.0</ele>
        <time>2019-11-01T14:43:03Z</time>
      </trkpt>
      <trkpt lat="38.4677560" lon="-2.4533070">
        <ele>1271.0</ele>
        <time>2019-11-01T14:43:06Z</time>
      </trkpt>
      <trkpt lat="38.4677120" lon="-2.4532550">
        <ele>1272.2</ele>
        <time>2019-11-01T14:43:09Z</time>
      </trkpt>
      <trkpt lat="38.4676740" lon="-2.4532020">
        <ele>1272.2</ele>
        <time>2019-11-01T14:43:12Z</time>
      </trkpt>
      <trkpt lat="38.4676400" lon="-2.4531420">
        <ele>1273.5</ele>
        <time>2019-11-01T14:43:15Z</time>
      </trkpt>
      <trkpt lat="38.4676040" lon="-2.4530810">
        <ele>1273.5</ele>
        <time>2019-11-01T14:43:18Z</time>
      </trkpt>
      <trkpt lat="38.4675790" lon="-2.4530200">
        <ele>1273.5</ele>
        <time>2019-11-01T14:43:21Z</time>
      </trkpt>
      <trkpt lat="38.4675560" lon="-2.4529630">
        <ele>1274.9</ele>
        <time>2019-11-01T14:43:24Z</time>
      </trkpt>
      <trkpt lat="38.4675380" lon="-2.4529010">
        <ele>1276.3</ele>
        <time>2019-11-01T14:43:28Z</time>
      </trkpt>
      <trkpt lat="38.4675170" lon="-2.4528370">
        <ele>1277.5</ele>
        <time>2019-11-01T14:43:32Z</time>
      </trkpt>
      <trkpt lat="38.4674940" lon="-2.4527750">
        <ele>1277.5</ele>
        <time>2019-11-01T14:43:35Z</time>
      </trkpt>
      <trkpt lat="38.4674760" lon="-2.4527060">
        <ele>1277.5</ele>
        <time>2019-11-01T14:43:38Z</time>
      </trkpt>
      <trkpt lat="38.4674690" lon="-2.4526350">
        <ele>1278.8</ele>
        <time>2019-11-01T14:43:41Z</time>
      </trkpt>
      <trkpt lat="38.4674610" lon="-2.4525610">
        <ele>1278.8</ele>
        <time>2019-11-01T14:43:44Z</time>
      </trkpt>
      <trkpt lat="38.4674410" lon="-2.4524910">
        <ele>1278.8</ele>
        <time>2019-11-01T14:43:47Z</time>
      </trkpt>
      <trkpt lat="38.4674250" lon="-2.4524260">
        <ele>1280.0</ele>
        <time>2019-11-01T14:43:50Z</time>
      </trkpt>
      <trkpt lat="38.4674100" lon="-2.4523400">
        <ele>1280.0</ele>
        <time>2019-11-01T14:43:54Z</time>
      </trkpt>
      <trkpt lat="38.4673920" lon="-2.4522610">
        <ele>1280.0</ele>
        <time>2019-11-01T14:43:57Z</time>
      </trkpt>
      <trkpt lat="38.4673820" lon="-2.4521930">
        <ele>1280.0</ele>
        <time>2019-11-01T14:43:59Z</time>
      </trkpt>
      <trkpt lat="38.4673690" lon="-2.4521210">
        <ele>1278.6</ele>
        <time>2019-11-01T14:44:01Z</time>
      </trkpt>
      <trkpt lat="38.4673610" lon="-2.4520470">
        <ele>1278.6</ele>
        <time>2019-11-01T14:44:03Z</time>
      </trkpt>
      <trkpt lat="38.4673590" lon="-2.4519710">
        <ele>1277.0</ele>
        <time>2019-11-01T14:44:05Z</time>
      </trkpt>
      <trkpt lat="38.4673590" lon="-2.4518940">
        <ele>1275.8</ele>
        <time>2019-11-01T14:44:07Z</time>
      </trkpt>
      <trkpt lat="38.4673660" lon="-2.4518170">
        <ele>1274.3</ele>
        <time>2019-11-01T14:44:09Z</time>
      </trkpt>
      <trkpt lat="38.4673820" lon="-2.4517470">
        <ele>1273.2</ele>
        <time>2019-11-01T14:44:11Z</time>
      </trkpt>
      <trkpt lat="38.4673950" lon="-2.4516810">
        <ele>1273.2</ele>
        <time>2019-11-01T14:44:13Z</time>
      </trkpt>
      <trkpt lat="38.4674070" lon="-2.4516090">
        <ele>1271.9</ele>
        <time>2019-11-01T14:44:15Z</time>
      </trkpt>
      <trkpt lat="38.4674180" lon="-2.4515430">
        <ele>1271.9</ele>
        <time>2019-11-01T14:44:17Z</time>
      </trkpt>
      <trkpt lat="38.4674250" lon="-2.4514840">
        <ele>1270.6</ele>
        <time>2019-11-01T14:44:19Z</time>
      </trkpt>
      <trkpt lat="38.4674690" lon="-2.4513140">
        <ele>1269.4</ele>
        <time>2019-11-01T14:44:39Z</time>
      </trkpt>
      <trkpt lat="38.4677320" lon="-2.4510840">
        <ele>1269.4</ele>
        <time>2019-11-01T14:45:25Z</time>
      </trkpt>
      <trkpt lat="38.4677810" lon="-2.4510430">
        <ele>1269.4</ele>
        <time>2019-11-01T14:45:30Z</time>
      </trkpt>
      <trkpt lat="38.4678300" lon="-2.4510060">
        <ele>1269.4</ele>
        <time>2019-11-01T14:45:36Z</time>
      </trkpt>
      <trkpt lat="38.4678730" lon="-2.4509640">
        <ele>1269.4</ele>
        <time>2019-11-01T14:45:40Z</time>
      </trkpt>
      <trkpt lat="38.4679530" lon="-2.4508340">
        <ele>1269.4</ele>
        <time>2019-11-01T14:46:09Z</time>
      </trkpt>
      <trkpt lat="38.4679990" lon="-2.4507860">
        <ele>1263.8</ele>
        <time>2019-11-01T14:46:14Z</time>
      </trkpt>
      <trkpt lat="38.4680600" lon="-2.4507150">
        <ele>1263.8</ele>
        <time>2019-11-01T14:46:23Z</time>
      </trkpt>
      <trkpt lat="38.4681090" lon="-2.4506540">
        <ele>1263.8</ele>
        <time>2019-11-01T14:46:28Z</time>
      </trkpt>
      <trkpt lat="38.4681450" lon="-2.4506060">
        <ele>1263.8</ele>
        <time>2019-11-01T14:46:31Z</time>
      </trkpt>
      <trkpt lat="38.4681880" lon="-2.4505530">
        <ele>1263.8</ele>
        <time>2019-11-01T14:46:34Z</time>
      </trkpt>
      <trkpt lat="38.4682190" lon="-2.4505060">
        <ele>1263.8</ele>
        <time>2019-11-01T14:46:35Z</time>
      </trkpt>
      <trkpt lat="38.4682500" lon="-2.4504380">
        <ele>1263.8</ele>
        <time>2019-11-01T14:46:39Z</time>
      </trkpt>
      <trkpt lat="38.4682700" lon="-2.4503790">
        <ele>1263.8</ele>
        <time>2019-11-01T14:46:41Z</time>
      </trkpt>
      <trkpt lat="38.4682930" lon="-2.4503070">
        <ele>1263.8</ele>
        <time>2019-11-01T14:46:45Z</time>
      </trkpt>
      <trkpt lat="38.4683980" lon="-2.4500600">
        <ele>1263.8</ele>
        <time>2019-11-01T14:47:11Z</time>
      </trkpt>
      <trkpt lat="38.4684030" lon="-2.4499810">
        <ele>1263.8</ele>
        <time>2019-11-01T14:47:14Z</time>
      </trkpt>
      <trkpt lat="38.4684110" lon="-2.4499150">
        <ele>1263.8</ele>
        <time>2019-11-01T14:47:16Z</time>
      </trkpt>
      <trkpt lat="38.4684110" lon="-2.4498380">
        <ele>1263.8</ele>
        <time>2019-11-01T14:47:18Z</time>
      </trkpt>
      <trkpt lat="38.4684060" lon="-2.4497700">
        <ele>1263.8</ele>
        <time>2019-11-01T14:47:20Z</time>
      </trkpt>
      <trkpt lat="38.4684030" lon="-2.4497070">
        <ele>1263.8</ele>
        <time>2019-11-01T14:47:23Z</time>
      </trkpt>
      <trkpt lat="38.4684750" lon="-2.4495680">
        <ele>1261.8</ele>
        <time>2019-11-01T14:47:41Z</time>
      </trkpt>
      <trkpt lat="38.4685340" lon="-2.4495090">
        <ele>1261.8</ele>
        <time>2019-11-01T14:47:44Z</time>
      </trkpt>
      <trkpt lat="38.4685850" lon="-2.4494690">
        <ele>1261.8</ele>
        <time>2019-11-01T14:47:47Z</time>
      </trkpt>
      <trkpt lat="38.4686280" lon="-2.4494390">
        <ele>1261.8</ele>
        <time>2019-11-01T14:47:50Z</time>
      </trkpt>
      <trkpt lat="38.4686690" lon="-2.4494030">
        <ele>1261.8</ele>
        <time>2019-11-01T14:47:53Z</time>
      </trkpt>
      <trkpt lat="38.4687210" lon="-2.4493650">
        <ele>1261.8</ele>
        <time>2019-11-01T14:47:56Z</time>
      </trkpt>
      <trkpt lat="38.4687720" lon="-2.4493190">
        <ele>1261.8</ele>
        <time>2019-11-01T14:47:59Z</time>
      </trkpt>
      <trkpt lat="38.4688150" lon="-2.4492780">
        <ele>1261.8</ele>
        <time>2019-11-01T14:48:02Z</time>
      </trkpt>
      <trkpt lat="38.4688490" lon="-2.4492350">
        <ele>1261.8</ele>
        <time>2019-11-01T14:48:05Z</time>
      </trkpt>
      <trkpt lat="38.4689000" lon="-2.4491700">
        <ele>1261.8</ele>
        <time>2019-11-01T14:48:09Z</time>
      </trkpt>
      <trkpt lat="38.4689430" lon="-2.4491170">
        <ele>1261.8</ele>
        <time>2019-11-01T14:48:13Z</time>
      </trkpt>
      <trkpt lat="38.4689870" lon="-2.4490560">
        <ele>1259.7</ele>
        <time>2019-11-01T14:48:15Z</time>
      </trkpt>
      <trkpt lat="38.4690200" lon="-2.4489950">
        <ele>1259.7</ele>
        <time>2019-11-01T14:48:18Z</time>
      </trkpt>
      <trkpt lat="38.4690590" lon="-2.4489450">
        <ele>1259.7</ele>
        <time>2019-11-01T14:48:22Z</time>
      </trkpt>
      <trkpt lat="38.4690970" lon="-2.4488740">
        <ele>1259.7</ele>
        <time>2019-11-01T14:48:24Z</time>
      </trkpt>
      <trkpt lat="38.4691280" lon="-2.4488060">
        <ele>1259.7</ele>
        <time>2019-11-01T14:48:27Z</time>
      </trkpt>
      <trkpt lat="38.4692280" lon="-2.4486540">
        <ele>1259.7</ele>
        <time>2019-11-01T14:48:44Z</time>
      </trkpt>
      <trkpt lat="38.4692760" lon="-2.4486060">
        <ele>1259.7</ele>
        <time>2019-11-01T14:48:47Z</time>
      </trkpt>
      <trkpt lat="38.4693170" lon="-2.4485520">
        <ele>1259.7</ele>
        <time>2019-11-01T14:48:49Z</time>
      </trkpt>
      <trkpt lat="38.4693610" lon="-2.4484780">
        <ele>1259.7</ele>
        <time>2019-11-01T14:48:51Z</time>
      </trkpt>
      <trkpt lat="38.4694020" lon="-2.4483890">
        <ele>1259.7</ele>
        <time>2019-11-01T14:48:54Z</time>
      </trkpt>
      <trkpt lat="38.4694480" lon="-2.4482870">
        <ele>1257.7</ele>
        <time>2019-11-01T14:48:55Z</time>
      </trkpt>
      <trkpt lat="38.4694710" lon="-2.4482350">
        <ele>1257.7</ele>
        <time>2019-11-01T14:48:57Z</time>
      </trkpt>
      <trkpt lat="38.4695170" lon="-2.4481330">
        <ele>1257.7</ele>
        <time>2019-11-01T14:48:58Z</time>
      </trkpt>
      <trkpt lat="38.4695630" lon="-2.4480340">
        <ele>1257.7</ele>
        <time>2019-11-01T14:49:00Z</time>
      </trkpt>
      <trkpt lat="38.4696090" lon="-2.4479460">
        <ele>1257.7</ele>
        <time>2019-11-01T14:49:03Z</time>
      </trkpt>
      <trkpt lat="38.4696420" lon="-2.4478700">
        <ele>1257.7</ele>
        <time>2019-11-01T14:49:04Z</time>
      </trkpt>
      <trkpt lat="38.4696730" lon="-2.4478030">
        <ele>1257.7</ele>
        <time>2019-11-01T14:49:07Z</time>
      </trkpt>
      <trkpt lat="38.4696960" lon="-2.4477500">
        <ele>1257.7</ele>
        <time>2019-11-01T14:49:09Z</time>
      </trkpt>
      <trkpt lat="38.4697220" lon="-2.4476940">
        <ele>1257.7</ele>
        <time>2019-11-01T14:49:12Z</time>
      </trkpt>
      <trkpt lat="38.4697520" lon="-2.4476280">
        <ele>1255.3</ele>
        <time>2019-11-01T14:49:16Z</time>
      </trkpt>
      <trkpt lat="38.4697570" lon="-2.4475520">
        <ele>1255.3</ele>
        <time>2019-11-01T14:49:19Z</time>
      </trkpt>
      <trkpt lat="38.4697340" lon="-2.4474690">
        <ele>1255.3</ele>
        <time>2019-11-01T14:49:22Z</time>
      </trkpt>
      <trkpt lat="38.4697190" lon="-2.4474050">
        <ele>1255.3</ele>
        <time>2019-11-01T14:49:24Z</time>
      </trkpt>
      <trkpt lat="38.4697010" lon="-2.4473440">
        <ele>1255.3</ele>
        <time>2019-11-01T14:49:29Z</time>
      </trkpt>
      <trkpt lat="38.4696630" lon="-2.4472650">
        <ele>1255.3</ele>
        <time>2019-11-01T14:49:32Z</time>
      </trkpt>
      <trkpt lat="38.4696320" lon="-2.4472040">
        <ele>1255.3</ele>
        <time>2019-11-01T14:49:34Z</time>
      </trkpt>
      <trkpt lat="38.4696010" lon="-2.4471540">
        <ele>1253.2</ele>
        <time>2019-11-01T14:49:36Z</time>
      </trkpt>
      <trkpt lat="38.4695780" lon="-2.4471170">
        <ele>1253.2</ele>
        <time>2019-11-01T14:49:39Z</time>
      </trkpt>
      <trkpt lat="38.4695320" lon="-2.4470480">
        <ele>1253.2</ele>
        <time>2019-11-01T14:49:42Z</time>
      </trkpt>
      <trkpt lat="38.4695090" lon="-2.4469870">
        <ele>1253.2</ele>
        <time>2019-11-01T14:49:46Z</time>
      </trkpt>
      <trkpt lat="38.4694860" lon="-2.4468950">
        <ele>1251.2</ele>
        <time>2019-11-01T14:49:50Z</time>
      </trkpt>
      <trkpt lat="38.4694530" lon="-2.4468360">
        <ele>1251.2</ele>
        <time>2019-11-01T14:49:52Z</time>
      </trkpt>
      <trkpt lat="38.4694090" lon="-2.4467730">
        <ele>1251.2</ele>
        <time>2019-11-01T14:49:54Z</time>
      </trkpt>
      <trkpt lat="38.4693630" lon="-2.4467110">
        <ele>1251.2</ele>
        <time>2019-11-01T14:49:56Z</time>
      </trkpt>
      <trkpt lat="38.4693150" lon="-2.4466520">
        <ele>1251.2</ele>
        <time>2019-11-01T14:49:58Z</time>
      </trkpt>
      <trkpt lat="38.4692610" lon="-2.4465850">
        <ele>1251.2</ele>
        <time>2019-11-01T14:50:00Z</time>
      </trkpt>
      <trkpt lat="38.4692070" lon="-2.4465250">
        <ele>1249.1</ele>
        <time>2019-11-01T14:50:02Z</time>
      </trkpt>
      <trkpt lat="38.4691510" lon="-2.4464590">
        <ele>1249.1</ele>
        <time>2019-11-01T14:50:04Z</time>
      </trkpt>
      <trkpt lat="38.4690820" lon="-2.4463900">
        <ele>1249.1</ele>
        <time>2019-11-01T14:50:07Z</time>
      </trkpt>
      <trkpt lat="38.4690120" lon="-2.4463280">
        <ele>1249.1</ele>
        <time>2019-11-01T14:50:08Z</time>
      </trkpt>
      <trkpt lat="38.4689360" lon="-2.4462710">
        <ele>1249.1</ele>
        <time>2019-11-01T14:50:10Z</time>
      </trkpt>
      <trkpt lat="38.4688560" lon="-2.4462220">
        <ele>1249.1</ele>
        <time>2019-11-01T14:50:13Z</time>
      </trkpt>
      <trkpt lat="38.4687850" lon="-2.4461840">
        <ele>1249.1</ele>
        <time>2019-11-01T14:50:15Z</time>
      </trkpt>
      <trkpt lat="38.4687050" lon="-2.4461590">
        <ele>1247.0</ele>
        <time>2019-11-01T14:50:16Z</time>
      </trkpt>
      <trkpt lat="38.4686230" lon="-2.4461610">
        <ele>1247.0</ele>
        <time>2019-11-01T14:50:18Z</time>
      </trkpt>
      <trkpt lat="38.4685470" lon="-2.4461890">
        <ele>1247.0</ele>
        <time>2019-11-01T14:50:20Z</time>
      </trkpt>
      <trkpt lat="38.4684750" lon="-2.4462460">
        <ele>1247.0</ele>
        <time>2019-11-01T14:50:22Z</time>
      </trkpt>
      <trkpt lat="38.4684060" lon="-2.4463070">
        <ele>1247.0</ele>
        <time>2019-11-01T14:50:24Z</time>
      </trkpt>
      <trkpt lat="38.4683320" lon="-2.4463690">
        <ele>1247.0</ele>
        <time>2019-11-01T14:50:27Z</time>
      </trkpt>
      <trkpt lat="38.4682960" lon="-2.4463970">
        <ele>1247.0</ele>
        <time>2019-11-01T14:50:28Z</time>
      </trkpt>
      <trkpt lat="38.4682110" lon="-2.4464510">
        <ele>1245.0</ele>
        <time>2019-11-01T14:50:30Z</time>
      </trkpt>
      <trkpt lat="38.4681320" lon="-2.4464960">
        <ele>1245.0</ele>
        <time>2019-11-01T14:50:32Z</time>
      </trkpt>
      <trkpt lat="38.4680470" lon="-2.4465320">
        <ele>1245.0</ele>
        <time>2019-11-01T14:50:34Z</time>
      </trkpt>
      <trkpt lat="38.4679710" lon="-2.4465630">
        <ele>1245.0</ele>
        <time>2019-11-01T14:50:36Z</time>
      </trkpt>
      <trkpt lat="38.4679070" lon="-2.4465950">
        <ele>1245.0</ele>
        <time>2019-11-01T14:50:38Z</time>
      </trkpt>
      <trkpt lat="38.4678450" lon="-2.4466180">
        <ele>1245.0</ele>
        <time>2019-11-01T14:50:40Z</time>
      </trkpt>
      <trkpt lat="38.4677760" lon="-2.4466500">
        <ele>1242.9</ele>
        <time>2019-11-01T14:50:43Z</time>
      </trkpt>
      <trkpt lat="38.4677120" lon="-2.4466460">
        <ele>1242.9</ele>
        <time>2019-11-01T14:50:45Z</time>
      </trkpt>
      <trkpt lat="38.4676330" lon="-2.4466240">
        <ele>1242.9</ele>
        <time>2019-11-01T14:50:47Z</time>
      </trkpt>
      <trkpt lat="38.4675480" lon="-2.4465950">
        <ele>1242.9</ele>
        <time>2019-11-01T14:50:49Z</time>
      </trkpt>
      <trkpt lat="38.4674460" lon="-2.4465660">
        <ele>1240.8</ele>
        <time>2019-11-01T14:50:50Z</time>
      </trkpt>
      <trkpt lat="38.4673950" lon="-2.4465520">
        <ele>1240.8</ele>
        <time>2019-11-01T14:50:52Z</time>
      </trkpt>
      <trkpt lat="38.4673460" lon="-2.4465410">
        <ele>1240.8</ele>
        <time>2019-11-01T14:50:53Z</time>
      </trkpt>
      <trkpt lat="38.4672380" lon="-2.4465260">
        <ele>1240.8</ele>
        <time>2019-11-01T14:50:55Z</time>
      </trkpt>
      <trkpt lat="38.4671870" lon="-2.4465240">
        <ele>1240.8</ele>
        <time>2019-11-01T14:50:56Z</time>
      </trkpt>
      <trkpt lat="38.4671280" lon="-2.4465250">
        <ele>1240.8</ele>
        <time>2019-11-01T14:50:57Z</time>
      </trkpt>
      <trkpt lat="38.4670670" lon="-2.4465290">
        <ele>1240.8</ele>
        <time>2019-11-01T14:50:58Z</time>
      </trkpt>
      <trkpt lat="38.4670030" lon="-2.4465310">
        <ele>1240.8</ele>
        <time>2019-11-01T14:50:59Z</time>
      </trkpt>
      <trkpt lat="38.4669390" lon="-2.4465240">
        <ele>1240.8</ele>
        <time>2019-11-01T14:51:00Z</time>
      </trkpt>
      <trkpt lat="38.4668720" lon="-2.4465140">
        <ele>1240.8</ele>
        <time>2019-11-01T14:51:01Z</time>
      </trkpt>
      <trkpt lat="38.4668080" lon="-2.4464940">
        <ele>1240.8</ele>
        <time>2019-11-01T14:51:02Z</time>
      </trkpt>
      <trkpt lat="38.4667470" lon="-2.4464640">
        <ele>1240.8</ele>
        <time>2019-11-01T14:51:03Z</time>
      </trkpt>
      <trkpt lat="38.4666850" lon="-2.4464270">
        <ele>1240.8</ele>
        <time>2019-11-01T14:51:04Z</time>
      </trkpt>
      <trkpt lat="38.4666290" lon="-2.4463880">
        <ele>1240.8</ele>
        <time>2019-11-01T14:51:05Z</time>
      </trkpt>
      <trkpt lat="38.4665680" lon="-2.4463490">
        <ele>1240.8</ele>
        <time>2019-11-01T14:51:06Z</time>
      </trkpt>
      <trkpt lat="38.4665040" lon="-2.4463160">
        <ele>1238.3</ele>
        <time>2019-11-01T14:51:07Z</time>
      </trkpt>
      <trkpt lat="38.4664420" lon="-2.4462920">
        <ele>1238.3</ele>
        <time>2019-11-01T14:51:08Z</time>
      </trkpt>
      <trkpt lat="38.4663810" lon="-2.4462770">
        <ele>1238.3</ele>
        <time>2019-11-01T14:51:09Z</time>
      </trkpt>
      <trkpt lat="38.4663190" lon="-2.4462690">
        <ele>1238.3</ele>
        <time>2019-11-01T14:51:10Z</time>
      </trkpt>
      <trkpt lat="38.4662660" lon="-2.4462680">
        <ele>1238.3</ele>
        <time>2019-11-01T14:51:11Z</time>
      </trkpt>
      <trkpt lat="38.4662090" lon="-2.4462730">
        <ele>1238.3</ele>
        <time>2019-11-01T14:51:11Z</time>
      </trkpt>
      <trkpt lat="38.4661530" lon="-2.4462820">
        <ele>1238.3</ele>
        <time>2019-11-01T14:51:13Z</time>
      </trkpt>
      <trkpt lat="38.4660940" lon="-2.4462980">
        <ele>1238.3</ele>
        <time>2019-11-01T14:51:14Z</time>
      </trkpt>
      <trkpt lat="38.4660400" lon="-2.4463210">
        <ele>1238.3</ele>
        <time>2019-11-01T14:51:15Z</time>
      </trkpt>
      <trkpt lat="38.4659840" lon="-2.4463490">
        <ele>1238.3</ele>
        <time>2019-11-01T14:51:16Z</time>
      </trkpt>
      <trkpt lat="38.4659350" lon="-2.4463760">
        <ele>1238.3</ele>
        <time>2019-11-01T14:51:16Z</time>
      </trkpt>
      <trkpt lat="38.4658760" lon="-2.4464080">
        <ele>1238.3</ele>
        <time>2019-11-01T14:51:17Z</time>
      </trkpt>
      <trkpt lat="38.4658250" lon="-2.4464360">
        <ele>1238.3</ele>
        <time>2019-11-01T14:51:18Z</time>
      </trkpt>
      <trkpt lat="38.4657720" lon="-2.4464610">
        <ele>1238.3</ele>
        <time>2019-11-01T14:51:20Z</time>
      </trkpt>
      <trkpt lat="38.4657200" lon="-2.4464780">
        <ele>1238.3</ele>
        <time>2019-11-01T14:51:20Z</time>
      </trkpt>
      <trkpt lat="38.4656740" lon="-2.4464900">
        <ele>1238.3</ele>
        <time>2019-11-01T14:51:22Z</time>
      </trkpt>
      <trkpt lat="38.4655950" lon="-2.4464870">
        <ele>1235.2</ele>
        <time>2019-11-01T14:51:23Z</time>
      </trkpt>
      <trkpt lat="38.4655230" lon="-2.4464460">
        <ele>1235.2</ele>
        <time>2019-11-01T14:51:25Z</time>
      </trkpt>
      <trkpt lat="38.4654520" lon="-2.4463830">
        <ele>1235.2</ele>
        <time>2019-11-01T14:51:28Z</time>
      </trkpt>
      <trkpt lat="38.4653750" lon="-2.4463100">
        <ele>1235.2</ele>
        <time>2019-11-01T14:51:29Z</time>
      </trkpt>
      <trkpt lat="38.4653390" lon="-2.4462720">
        <ele>1235.2</ele>
        <time>2019-11-01T14:51:31Z</time>
      </trkpt>
      <trkpt lat="38.4652650" lon="-2.4461910">
        <ele>1235.2</ele>
        <time>2019-11-01T14:51:33Z</time>
      </trkpt>
      <trkpt lat="38.4652340" lon="-2.4461490">
        <ele>1235.2</ele>
        <time>2019-11-01T14:51:34Z</time>
      </trkpt>
      <trkpt lat="38.4651750" lon="-2.4460630">
        <ele>1235.2</ele>
        <time>2019-11-01T14:51:35Z</time>
      </trkpt>
      <trkpt lat="38.4651340" lon="-2.4459740">
        <ele>1235.2</ele>
        <time>2019-11-01T14:51:38Z</time>
      </trkpt>
      <trkpt lat="38.4651140" lon="-2.4458830">
        <ele>1232.9</ele>
        <time>2019-11-01T14:51:40Z</time>
      </trkpt>
      <trkpt lat="38.4651110" lon="-2.4457920">
        <ele>1232.9</ele>
        <time>2019-11-01T14:51:42Z</time>
      </trkpt>
      <trkpt lat="38.4651190" lon="-2.4457010">
        <ele>1232.9</ele>
        <time>2019-11-01T14:51:43Z</time>
      </trkpt>
      <trkpt lat="38.4651290" lon="-2.4456050">
        <ele>1232.9</ele>
        <time>2019-11-01T14:51:45Z</time>
      </trkpt>
      <trkpt lat="38.4651340" lon="-2.4455120">
        <ele>1232.9</ele>
        <time>2019-11-01T14:51:48Z</time>
      </trkpt>
      <trkpt lat="38.4651440" lon="-2.4454130">
        <ele>1232.9</ele>
        <time>2019-11-01T14:51:50Z</time>
      </trkpt>
      <trkpt lat="38.4651570" lon="-2.4453250">
        <ele>1232.9</ele>
        <time>2019-11-01T14:51:51Z</time>
      </trkpt>
      <trkpt lat="38.4651570" lon="-2.4452430">
        <ele>1232.9</ele>
        <time>2019-11-01T14:51:54Z</time>
      </trkpt>
      <trkpt lat="38.4651520" lon="-2.4451710">
        <ele>1229.9</ele>
        <time>2019-11-01T14:51:56Z</time>
      </trkpt>
      <trkpt lat="38.4651440" lon="-2.4450930">
        <ele>1229.9</ele>
        <time>2019-11-01T14:51:58Z</time>
      </trkpt>
      <trkpt lat="38.4651340" lon="-2.4450150">
        <ele>1229.9</ele>
        <time>2019-11-01T14:52:00Z</time>
      </trkpt>
      <trkpt lat="38.4651140" lon="-2.4449300">
        <ele>1229.9</ele>
        <time>2019-11-01T14:52:02Z</time>
      </trkpt>
      <trkpt lat="38.4650880" lon="-2.4448370">
        <ele>1229.9</ele>
        <time>2019-11-01T14:52:04Z</time>
      </trkpt>
      <trkpt lat="38.4650650" lon="-2.4447530">
        <ele>1229.9</ele>
        <time>2019-11-01T14:52:06Z</time>
      </trkpt>
      <trkpt lat="38.4650420" lon="-2.4446860">
        <ele>1229.9</ele>
        <time>2019-11-01T14:52:08Z</time>
      </trkpt>
      <trkpt lat="38.4650190" lon="-2.4446450">
        <ele>1229.9</ele>
        <time>2019-11-01T14:52:10Z</time>
      </trkpt>
      <trkpt lat="38.4649190" lon="-2.4445580">
        <ele>1222.1</ele>
        <time>2019-11-01T14:54:50Z</time>
      </trkpt>
      <trkpt lat="38.4648700" lon="-2.4445110">
        <ele>1222.1</ele>
        <time>2019-11-01T14:54:54Z</time>
      </trkpt>
      <trkpt lat="38.4648290" lon="-2.4444560">
        <ele>1222.1</ele>
        <time>2019-11-01T14:54:56Z</time>
      </trkpt>
      <trkpt lat="38.4647780" lon="-2.4443800">
        <ele>1222.1</ele>
        <time>2019-11-01T14:54:58Z</time>
      </trkpt>
      <trkpt lat="38.4647480" lon="-2.4442860">
        <ele>1222.1</ele>
        <time>2019-11-01T14:55:00Z</time>
      </trkpt>
      <trkpt lat="38.4647320" lon="-2.4441790">
        <ele>1222.1</ele>
        <time>2019-11-01T14:55:02Z</time>
      </trkpt>
      <trkpt lat="38.4647240" lon="-2.4440580">
        <ele>1222.1</ele>
        <time>2019-11-01T14:55:04Z</time>
      </trkpt>
      <trkpt lat="38.4647220" lon="-2.4440010">
        <ele>1222.1</ele>
        <time>2019-11-01T14:55:05Z</time>
      </trkpt>
      <trkpt lat="38.4646940" lon="-2.4438940">
        <ele>1219.2</ele>
        <time>2019-11-01T14:55:06Z</time>
      </trkpt>
      <trkpt lat="38.4646370" lon="-2.4438160">
        <ele>1219.2</ele>
        <time>2019-11-01T14:55:08Z</time>
      </trkpt>
      <trkpt lat="38.4645660" lon="-2.4437770">
        <ele>1219.2</ele>
        <time>2019-11-01T14:55:10Z</time>
      </trkpt>
      <trkpt lat="38.4644890" lon="-2.4437650">
        <ele>1219.2</ele>
        <time>2019-11-01T14:55:13Z</time>
      </trkpt>
      <trkpt lat="38.4644120" lon="-2.4437660">
        <ele>1219.2</ele>
        <time>2019-11-01T14:55:15Z</time>
      </trkpt>
      <trkpt lat="38.4643250" lon="-2.4437750">
        <ele>1219.2</ele>
        <time>2019-11-01T14:55:17Z</time>
      </trkpt>
      <trkpt lat="38.4642410" lon="-2.4437800">
        <ele>1219.2</ele>
        <time>2019-11-01T14:55:19Z</time>
      </trkpt>
      <trkpt lat="38.4641560" lon="-2.4437690">
        <ele>1219.2</ele>
        <time>2019-11-01T14:55:20Z</time>
      </trkpt>
      <trkpt lat="38.4640770" lon="-2.4437430">
        <ele>1215.6</ele>
        <time>2019-11-01T14:55:23Z</time>
      </trkpt>
      <trkpt lat="38.4640380" lon="-2.4437270">
        <ele>1215.6</ele>
        <time>2019-11-01T14:55:24Z</time>
      </trkpt>
      <trkpt lat="38.4639690" lon="-2.4436880">
        <ele>1215.6</ele>
        <time>2019-11-01T14:55:26Z</time>
      </trkpt>
      <trkpt lat="38.4638980" lon="-2.4436350">
        <ele>1215.6</ele>
        <time>2019-11-01T14:55:28Z</time>
      </trkpt>
      <trkpt lat="38.4638280" lon="-2.4435790">
        <ele>1215.6</ele>
        <time>2019-11-01T14:55:30Z</time>
      </trkpt>
      <trkpt lat="38.4637570" lon="-2.4435140">
        <ele>1215.6</ele>
        <time>2019-11-01T14:55:32Z</time>
      </trkpt>
      <trkpt lat="38.4636800" lon="-2.4434430">
        <ele>1214.4</ele>
        <time>2019-11-01T14:55:34Z</time>
      </trkpt>
      <trkpt lat="38.4636420" lon="-2.4434070">
        <ele>1214.4</ele>
        <time>2019-11-01T14:55:35Z</time>
      </trkpt>
      <trkpt lat="38.4635720" lon="-2.4433400">
        <ele>1213.0</ele>
        <time>2019-11-01T14:55:36Z</time>
      </trkpt>
      <trkpt lat="38.4635010" lon="-2.4432730">
        <ele>1213.0</ele>
        <time>2019-11-01T14:55:39Z</time>
      </trkpt>
      <trkpt lat="38.4634320" lon="-2.4432150">
        <ele>1211.5</ele>
        <time>2019-11-01T14:55:41Z</time>
      </trkpt>
      <trkpt lat="38.4633700" lon="-2.4431700">
        <ele>1211.5</ele>
        <time>2019-11-01T14:55:43Z</time>
      </trkpt>
      <trkpt lat="38.4633110" lon="-2.4431320">
        <ele>1211.5</ele>
        <time>2019-11-01T14:55:45Z</time>
      </trkpt>
      <trkpt lat="38.4632500" lon="-2.4431020">
        <ele>1210.3</ele>
        <time>2019-11-01T14:55:47Z</time>
      </trkpt>
      <trkpt lat="38.4631910" lon="-2.4430790">
        <ele>1210.3</ele>
        <time>2019-11-01T14:55:48Z</time>
      </trkpt>
      <trkpt lat="38.4631400" lon="-2.4430600">
        <ele>1210.3</ele>
        <time>2019-11-01T14:55:51Z</time>
      </trkpt>
      <trkpt lat="38.4630780" lon="-2.4430490">
        <ele>1210.3</ele>
        <time>2019-11-01T14:55:53Z</time>
      </trkpt>
      <trkpt lat="38.4630170" lon="-2.4430440">
        <ele>1210.3</ele>
        <time>2019-11-01T14:55:54Z</time>
      </trkpt>
      <trkpt lat="38.4629480" lon="-2.4430430">
        <ele>1210.3</ele>
        <time>2019-11-01T14:55:56Z</time>
      </trkpt>
      <trkpt lat="38.4628790" lon="-2.4430440">
        <ele>1210.3</ele>
        <time>2019-11-01T14:55:59Z</time>
      </trkpt>
      <trkpt lat="38.4628020" lon="-2.4430430">
        <ele>1210.3</ele>
        <time>2019-11-01T14:56:01Z</time>
      </trkpt>
      <trkpt lat="38.4627300" lon="-2.4430460">
        <ele>1210.3</ele>
        <time>2019-11-01T14:56:03Z</time>
      </trkpt>
      <trkpt lat="38.4626590" lon="-2.4430530">
        <ele>1210.3</ele>
        <time>2019-11-01T14:56:04Z</time>
      </trkpt>
      <trkpt lat="38.4625890" lon="-2.4430610">
        <ele>1210.3</ele>
        <time>2019-11-01T14:56:07Z</time>
      </trkpt>
      <trkpt lat="38.4625280" lon="-2.4430630">
        <ele>1210.3</ele>
        <time>2019-11-01T14:56:09Z</time>
      </trkpt>
      <trkpt lat="38.4624640" lon="-2.4430620">
        <ele>1210.3</ele>
        <time>2019-11-01T14:56:11Z</time>
      </trkpt>
      <trkpt lat="38.4623970" lon="-2.4430560">
        <ele>1210.3</ele>
        <time>2019-11-01T14:56:12Z</time>
      </trkpt>
      <trkpt lat="38.4623330" lon="-2.4430450">
        <ele>1211.5</ele>
        <time>2019-11-01T14:56:15Z</time>
      </trkpt>
      <trkpt lat="38.4622640" lon="-2.4430330">
        <ele>1211.5</ele>
        <time>2019-11-01T14:56:16Z</time>
      </trkpt>
      <trkpt lat="38.4622030" lon="-2.4430210">
        <ele>1211.5</ele>
        <time>2019-11-01T14:56:19Z</time>
      </trkpt>
      <trkpt lat="38.4621440" lon="-2.4429990">
        <ele>1211.5</ele>
        <time>2019-11-01T14:56:20Z</time>
      </trkpt>
      <trkpt lat="38.4620750" lon="-2.4429640">
        <ele>1211.5</ele>
        <time>2019-11-01T14:56:23Z</time>
      </trkpt>
      <trkpt lat="38.4620080" lon="-2.4429130">
        <ele>1211.5</ele>
        <time>2019-11-01T14:56:25Z</time>
      </trkpt>
      <trkpt lat="38.4619490" lon="-2.4428540">
        <ele>1211.5</ele>
        <time>2019-11-01T14:56:27Z</time>
      </trkpt>
      <trkpt lat="38.4618880" lon="-2.4427930">
        <ele>1211.5</ele>
        <time>2019-11-01T14:56:29Z</time>
      </trkpt>
      <trkpt lat="38.4618210" lon="-2.4427370">
        <ele>1211.5</ele>
        <time>2019-11-01T14:56:31Z</time>
      </trkpt>
      <trkpt lat="38.4617630" lon="-2.4426950">
        <ele>1211.5</ele>
        <time>2019-11-01T14:56:33Z</time>
      </trkpt>
      <trkpt lat="38.4616930" lon="-2.4426660">
        <ele>1211.5</ele>
        <time>2019-11-01T14:56:35Z</time>
      </trkpt>
      <trkpt lat="38.4616270" lon="-2.4426400">
        <ele>1211.5</ele>
        <time>2019-11-01T14:56:37Z</time>
      </trkpt>
      <trkpt lat="38.4615760" lon="-2.4425980">
        <ele>1211.5</ele>
        <time>2019-11-01T14:56:39Z</time>
      </trkpt>
      <trkpt lat="38.4615370" lon="-2.4425340">
        <ele>1211.5</ele>
        <time>2019-11-01T14:56:41Z</time>
      </trkpt>
      <trkpt lat="38.4615320" lon="-2.4424480">
        <ele>1211.5</ele>
        <time>2019-11-01T14:56:43Z</time>
      </trkpt>
      <trkpt lat="38.4615530" lon="-2.4423580">
        <ele>1211.5</ele>
        <time>2019-11-01T14:56:45Z</time>
      </trkpt>
      <trkpt lat="38.4615830" lon="-2.4422770">
        <ele>1211.5</ele>
        <time>2019-11-01T14:56:46Z</time>
      </trkpt>
      <trkpt lat="38.4616170" lon="-2.4421950">
        <ele>1211.5</ele>
        <time>2019-11-01T14:56:49Z</time>
      </trkpt>
      <trkpt lat="38.4616500" lon="-2.4421110">
        <ele>1211.5</ele>
        <time>2019-11-01T14:56:51Z</time>
      </trkpt>
      <trkpt lat="38.4616880" lon="-2.4420290">
        <ele>1211.5</ele>
        <time>2019-11-01T14:56:53Z</time>
      </trkpt>
      <trkpt lat="38.4617240" lon="-2.4419420">
        <ele>1211.5</ele>
        <time>2019-11-01T14:56:55Z</time>
      </trkpt>
      <trkpt lat="38.4617570" lon="-2.4418570">
        <ele>1211.5</ele>
        <time>2019-11-01T14:56:57Z</time>
      </trkpt>
      <trkpt lat="38.4617860" lon="-2.4417750">
        <ele>1211.5</ele>
        <time>2019-11-01T14:56:59Z</time>
      </trkpt>
      <trkpt lat="38.4618110" lon="-2.4416900">
        <ele>1211.5</ele>
        <time>2019-11-01T14:57:00Z</time>
      </trkpt>
      <trkpt lat="38.4618370" lon="-2.4416070">
        <ele>1211.5</ele>
        <time>2019-11-01T14:57:03Z</time>
      </trkpt>
      <trkpt lat="38.4618570" lon="-2.4415250">
        <ele>1210.3</ele>
        <time>2019-11-01T14:57:05Z</time>
      </trkpt>
      <trkpt lat="38.4618650" lon="-2.4414410">
        <ele>1210.3</ele>
        <time>2019-11-01T14:57:06Z</time>
      </trkpt>
      <trkpt lat="38.4618500" lon="-2.4413560">
        <ele>1210.3</ele>
        <time>2019-11-01T14:57:09Z</time>
      </trkpt>
      <trkpt lat="38.4618060" lon="-2.4412850">
        <ele>1210.3</ele>
        <time>2019-11-01T14:57:11Z</time>
      </trkpt>
      <trkpt lat="38.4617470" lon="-2.4412460">
        <ele>1209.2</ele>
        <time>2019-11-01T14:57:12Z</time>
      </trkpt>
      <trkpt lat="38.4616780" lon="-2.4412400">
        <ele>1209.2</ele>
        <time>2019-11-01T14:57:15Z</time>
      </trkpt>
      <trkpt lat="38.4616090" lon="-2.4412500">
        <ele>1209.2</ele>
        <time>2019-11-01T14:57:17Z</time>
      </trkpt>
      <trkpt lat="38.4615450" lon="-2.4412680">
        <ele>1209.2</ele>
        <time>2019-11-01T14:57:19Z</time>
      </trkpt>
      <trkpt lat="38.4614860" lon="-2.4412850">
        <ele>1209.2</ele>
        <time>2019-11-01T14:57:20Z</time>
      </trkpt>
      <trkpt lat="38.4614370" lon="-2.4412960">
        <ele>1209.2</ele>
        <time>2019-11-01T14:57:23Z</time>
      </trkpt>
      <trkpt lat="38.4613580" lon="-2.4412960">
        <ele>1209.2</ele>
        <time>2019-11-01T14:57:26Z</time>
      </trkpt>
      <trkpt lat="38.4613070" lon="-2.4412810">
        <ele>1210.3</ele>
        <time>2019-11-01T14:57:28Z</time>
      </trkpt>
      <trkpt lat="38.4612610" lon="-2.4412620">
        <ele>1210.3</ele>
        <time>2019-11-01T14:57:30Z</time>
      </trkpt>
      <trkpt lat="38.4611970" lon="-2.4412100">
        <ele>1210.3</ele>
        <time>2019-11-01T14:57:32Z</time>
      </trkpt>
      <trkpt lat="38.4611640" lon="-2.4411590">
        <ele>1210.3</ele>
        <time>2019-11-01T14:57:35Z</time>
      </trkpt>
      <trkpt lat="38.4611330" lon="-2.4410970">
        <ele>1210.3</ele>
        <time>2019-11-01T14:57:37Z</time>
      </trkpt>
      <trkpt lat="38.4611020" lon="-2.4410320">
        <ele>1210.3</ele>
        <time>2019-11-01T14:57:38Z</time>
      </trkpt>
      <trkpt lat="38.4610640" lon="-2.4409680">
        <ele>1210.3</ele>
        <time>2019-11-01T14:57:40Z</time>
      </trkpt>
      <trkpt lat="38.4610250" lon="-2.4409090">
        <ele>1212.2</ele>
        <time>2019-11-01T14:57:42Z</time>
      </trkpt>
      <trkpt lat="38.4609870" lon="-2.4408560">
        <ele>1213.8</ele>
        <time>2019-11-01T14:57:45Z</time>
      </trkpt>
      <trkpt lat="38.4609460" lon="-2.4408100">
        <ele>1213.8</ele>
        <time>2019-11-01T14:57:47Z</time>
      </trkpt>
      <trkpt lat="38.4609000" lon="-2.4407710">
        <ele>1215.1</ele>
        <time>2019-11-01T14:57:48Z</time>
      </trkpt>
      <trkpt lat="38.4608540" lon="-2.4407380">
        <ele>1215.1</ele>
        <time>2019-11-01T14:57:51Z</time>
      </trkpt>
      <trkpt lat="38.4607850" lon="-2.4406980">
        <ele>1216.3</ele>
        <time>2019-11-01T14:57:54Z</time>
      </trkpt>
      <trkpt lat="38.4607440" lon="-2.4406740">
        <ele>1216.3</ele>
        <time>2019-11-01T14:57:55Z</time>
      </trkpt>
      <trkpt lat="38.4606820" lon="-2.4406430">
        <ele>1216.3</ele>
        <time>2019-11-01T14:57:59Z</time>
      </trkpt>
      <trkpt lat="38.4606110" lon="-2.4406120">
        <ele>1217.5</ele>
        <time>2019-11-01T14:58:01Z</time>
      </trkpt>
      <trkpt lat="38.4605570" lon="-2.4405920">
        <ele>1217.5</ele>
        <time>2019-11-01T14:58:04Z</time>
      </trkpt>
      <trkpt lat="38.4605030" lon="-2.4405730">
        <ele>1217.5</ele>
        <time>2019-11-01T14:58:05Z</time>
      </trkpt>
      <trkpt lat="38.4604570" lon="-2.4405580">
        <ele>1217.5</ele>
        <time>2019-11-01T14:58:08Z</time>
      </trkpt>
      <trkpt lat="38.4604010" lon="-2.4405430">
        <ele>1218.9</ele>
        <time>2019-11-01T14:58:11Z</time>
      </trkpt>
      <trkpt lat="38.4603340" lon="-2.4405270">
        <ele>1218.9</ele>
        <time>2019-11-01T14:58:13Z</time>
      </trkpt>
      <trkpt lat="38.4602620" lon="-2.4405150">
        <ele>1220.3</ele>
        <time>2019-11-01T14:58:16Z</time>
      </trkpt>
      <trkpt lat="38.4601910" lon="-2.4405100">
        <ele>1220.3</ele>
        <time>2019-11-01T14:58:20Z</time>
      </trkpt>
      <trkpt lat="38.4601220" lon="-2.4405190">
        <ele>1220.3</ele>
        <time>2019-11-01T14:58:22Z</time>
      </trkpt>
      <trkpt lat="38.4600550" lon="-2.4405340">
        <ele>1221.6</ele>
        <time>2019-11-01T14:58:25Z</time>
      </trkpt>
      <trkpt lat="38.4599880" lon="-2.4405430">
        <ele>1221.6</ele>
        <time>2019-11-01T14:58:29Z</time>
      </trkpt>
      <trkpt lat="38.4599370" lon="-2.4405410">
        <ele>1221.6</ele>
        <time>2019-11-01T14:58:30Z</time>
      </trkpt>
      <trkpt lat="38.4598730" lon="-2.4405310">
        <ele>1221.6</ele>
        <time>2019-11-01T14:58:34Z</time>
      </trkpt>
      <trkpt lat="38.4598020" lon="-2.4405000">
        <ele>1223.0</ele>
        <time>2019-11-01T14:58:37Z</time>
      </trkpt>
      <trkpt lat="38.4597400" lon="-2.4404710">
        <ele>1224.3</ele>
        <time>2019-11-01T14:58:40Z</time>
      </trkpt>
      <trkpt lat="38.4596890" lon="-2.4404380">
        <ele>1224.3</ele>
        <time>2019-11-01T14:58:43Z</time>
      </trkpt>
      <trkpt lat="38.4596380" lon="-2.4404080">
        <ele>1225.4</ele>
        <time>2019-11-01T14:58:47Z</time>
      </trkpt>
      <trkpt lat="38.4595840" lon="-2.4403810">
        <ele>1225.4</ele>
        <time>2019-11-01T14:58:49Z</time>
      </trkpt>
      <trkpt lat="38.4595250" lon="-2.4403710">
        <ele>1225.4</ele>
        <time>2019-11-01T14:58:53Z</time>
      </trkpt>
      <trkpt lat="38.4594740" lon="-2.4403790">
        <ele>1226.6</ele>
        <time>2019-11-01T14:58:56Z</time>
      </trkpt>
      <trkpt lat="38.4594200" lon="-2.4403940">
        <ele>1228.0</ele>
        <time>2019-11-01T14:58:59Z</time>
      </trkpt>
      <trkpt lat="38.4593610" lon="-2.4404200">
        <ele>1228.0</ele>
        <time>2019-11-01T14:59:02Z</time>
      </trkpt>
      <trkpt lat="38.4593130" lon="-2.4404540">
        <ele>1228.0</ele>
        <time>2019-11-01T14:59:05Z</time>
      </trkpt>
      <trkpt lat="38.4592640" lon="-2.4404860">
        <ele>1228.0</ele>
        <time>2019-11-01T14:59:08Z</time>
      </trkpt>
      <trkpt lat="38.4592130" lon="-2.4405120">
        <ele>1228.0</ele>
        <time>2019-11-01T14:59:11Z</time>
      </trkpt>
      <trkpt lat="38.4591590" lon="-2.4405310">
        <ele>1229.2</ele>
        <time>2019-11-01T14:59:13Z</time>
      </trkpt>
      <trkpt lat="38.4591050" lon="-2.4405570">
        <ele>1229.2</ele>
        <time>2019-11-01T14:59:17Z</time>
      </trkpt>
      <trkpt lat="38.4590340" lon="-2.4405680">
        <ele>1229.2</ele>
        <time>2019-11-01T14:59:21Z</time>
      </trkpt>
      <trkpt lat="38.4589470" lon="-2.4405210">
        <ele>1229.2</ele>
        <time>2019-11-01T14:59:25Z</time>
      </trkpt>
      <trkpt lat="38.4588670" lon="-2.4404470">
        <ele>1229.2</ele>
        <time>2019-11-01T14:59:26Z</time>
      </trkpt>
      <trkpt lat="38.4588310" lon="-2.4403990">
        <ele>1229.2</ele>
        <time>2019-11-01T14:59:28Z</time>
      </trkpt>
      <trkpt lat="38.4587930" lon="-2.4403390">
        <ele>1229.2</ele>
        <time>2019-11-01T14:59:29Z</time>
      </trkpt>
      <trkpt lat="38.4587550" lon="-2.4402710">
        <ele>1229.2</ele>
        <time>2019-11-01T14:59:29Z</time>
      </trkpt>
      <trkpt lat="38.4587210" lon="-2.4401990">
        <ele>1229.2</ele>
        <time>2019-11-01T14:59:31Z</time>
      </trkpt>
      <trkpt lat="38.4586880" lon="-2.4401250">
        <ele>1229.2</ele>
        <time>2019-11-01T14:59:31Z</time>
      </trkpt>
      <trkpt lat="38.4586500" lon="-2.4400520">
        <ele>1229.2</ele>
        <time>2019-11-01T14:59:32Z</time>
      </trkpt>
      <trkpt lat="38.4586040" lon="-2.4399830">
        <ele>1229.2</ele>
        <time>2019-11-01T14:59:34Z</time>
      </trkpt>
      <trkpt lat="38.4585520" lon="-2.4399170">
        <ele>1229.2</ele>
        <time>2019-11-01T14:59:35Z</time>
      </trkpt>
      <trkpt lat="38.4585010" lon="-2.4398600">
        <ele>1229.2</ele>
        <time>2019-11-01T14:59:35Z</time>
      </trkpt>
      <trkpt lat="38.4584420" lon="-2.4398100">
        <ele>1229.2</ele>
        <time>2019-11-01T14:59:36Z</time>
      </trkpt>
      <trkpt lat="38.4583710" lon="-2.4397670">
        <ele>1229.2</ele>
        <time>2019-11-01T14:59:37Z</time>
      </trkpt>
      <trkpt lat="38.4583070" lon="-2.4397340">
        <ele>1226.3</ele>
        <time>2019-11-01T14:59:38Z</time>
      </trkpt>
      <trkpt lat="38.4582220" lon="-2.4397070">
        <ele>1224.1</ele>
        <time>2019-11-01T14:59:39Z</time>
      </trkpt>
      <trkpt lat="38.4581450" lon="-2.4396850">
        <ele>1222.2</ele>
        <time>2019-11-01T14:59:41Z</time>
      </trkpt>
      <trkpt lat="38.4580680" lon="-2.4396670">
        <ele>1220.8</ele>
        <time>2019-11-01T14:59:41Z</time>
      </trkpt>
      <trkpt lat="38.4579890" lon="-2.4396520">
        <ele>1219.6</ele>
        <time>2019-11-01T14:59:42Z</time>
      </trkpt>
      <trkpt lat="38.4579120" lon="-2.4396360">
        <ele>1219.6</ele>
        <time>2019-11-01T14:59:43Z</time>
      </trkpt>
      <trkpt lat="38.4578360" lon="-2.4396200">
        <ele>1217.9</ele>
        <time>2019-11-01T14:59:45Z</time>
      </trkpt>
      <trkpt lat="38.4577640" lon="-2.4396040">
        <ele>1217.9</ele>
        <time>2019-11-01T14:59:46Z</time>
      </trkpt>
      <trkpt lat="38.4576870" lon="-2.4395880">
        <ele>1216.3</ele>
        <time>2019-11-01T14:59:46Z</time>
      </trkpt>
      <trkpt lat="38.4576150" lon="-2.4395710">
        <ele>1216.3</ele>
        <time>2019-11-01T14:59:47Z</time>
      </trkpt>
      <trkpt lat="38.4575490" lon="-2.4395580">
        <ele>1215.1</ele>
        <time>2019-11-01T14:59:48Z</time>
      </trkpt>
      <trkpt lat="38.4574850" lon="-2.4395460">
        <ele>1215.1</ele>
        <time>2019-11-01T14:59:49Z</time>
      </trkpt>
      <trkpt lat="38.4574280" lon="-2.4395310">
        <ele>1215.1</ele>
        <time>2019-11-01T14:59:50Z</time>
      </trkpt>
      <trkpt lat="38.4573770" lon="-2.4395110">
        <ele>1213.4</ele>
        <time>2019-11-01T14:59:52Z</time>
      </trkpt>
      <trkpt lat="38.4573360" lon="-2.4394820">
        <ele>1213.4</ele>
        <time>2019-11-01T14:59:52Z</time>
      </trkpt>
      <trkpt lat="38.4572720" lon="-2.4393950">
        <ele>1212.2</ele>
        <time>2019-11-01T14:59:54Z</time>
      </trkpt>
      <trkpt lat="38.4572440" lon="-2.4392720">
        <ele>1212.2</ele>
        <time>2019-11-01T14:59:56Z</time>
      </trkpt>
      <trkpt lat="38.4572440" lon="-2.4392040">
        <ele>1211.0</ele>
        <time>2019-11-01T14:59:57Z</time>
      </trkpt>
      <trkpt lat="38.4572490" lon="-2.4391320">
        <ele>1211.0</ele>
        <time>2019-11-01T14:59:59Z</time>
      </trkpt>
      <trkpt lat="38.4572490" lon="-2.4390570">
        <ele>1211.0</ele>
        <time>2019-11-01T14:59:59Z</time>
      </trkpt>
      <trkpt lat="38.4572420" lon="-2.4389800">
        <ele>1211.0</ele>
        <time>2019-11-01T15:00:00Z</time>
      </trkpt>
      <trkpt lat="38.4572260" lon="-2.4389040">
        <ele>1209.6</ele>
        <time>2019-11-01T15:00:01Z</time>
      </trkpt>
      <trkpt lat="38.4571980" lon="-2.4388360">
        <ele>1209.6</ele>
        <time>2019-11-01T15:00:02Z</time>
      </trkpt>
      <trkpt lat="38.4571650" lon="-2.4387700">
        <ele>1209.6</ele>
        <time>2019-11-01T15:00:03Z</time>
      </trkpt>
      <trkpt lat="38.4571190" lon="-2.4387120">
        <ele>1208.3</ele>
        <time>2019-11-01T15:00:04Z</time>
      </trkpt>
      <trkpt lat="38.4570700" lon="-2.4386610">
        <ele>1208.3</ele>
        <time>2019-11-01T15:00:05Z</time>
      </trkpt>
      <trkpt lat="38.4570110" lon="-2.4386180">
        <ele>1208.3</ele>
        <time>2019-11-01T15:00:06Z</time>
      </trkpt>
      <trkpt lat="38.4569520" lon="-2.4385780">
        <ele>1208.3</ele>
        <time>2019-11-01T15:00:07Z</time>
      </trkpt>
      <trkpt lat="38.4568910" lon="-2.4385420">
        <ele>1206.9</ele>
        <time>2019-11-01T15:00:08Z</time>
      </trkpt>
      <trkpt lat="38.4568220" lon="-2.4385100">
        <ele>1206.9</ele>
        <time>2019-11-01T15:00:09Z</time>
      </trkpt>
      <trkpt lat="38.4567580" lon="-2.4384860">
        <ele>1206.9</ele>
        <time>2019-11-01T15:00:10Z</time>
      </trkpt>
      <trkpt lat="38.4566910" lon="-2.4384690">
        <ele>1206.9</ele>
        <time>2019-11-01T15:00:11Z</time>
      </trkpt>
      <trkpt lat="38.4566270" lon="-2.4384580">
        <ele>1205.6</ele>
        <time>2019-11-01T15:00:12Z</time>
      </trkpt>
      <trkpt lat="38.4565580" lon="-2.4384550">
        <ele>1205.6</ele>
        <time>2019-11-01T15:00:13Z</time>
      </trkpt>
      <trkpt lat="38.4564890" lon="-2.4384650">
        <ele>1205.6</ele>
        <time>2019-11-01T15:00:15Z</time>
      </trkpt>
      <trkpt lat="38.4564350" lon="-2.4384860">
        <ele>1205.6</ele>
        <time>2019-11-01T15:00:15Z</time>
      </trkpt>
      <trkpt lat="38.4563870" lon="-2.4385190">
        <ele>1205.6</ele>
        <time>2019-11-01T15:00:16Z</time>
      </trkpt>
      <trkpt lat="38.4563530" lon="-2.4385580">
        <ele>1204.3</ele>
        <time>2019-11-01T15:00:17Z</time>
      </trkpt>
      <trkpt lat="38.4563000" lon="-2.4386460">
        <ele>1204.3</ele>
        <time>2019-11-01T15:00:19Z</time>
      </trkpt>
      <trkpt lat="38.4562460" lon="-2.4387240">
        <ele>1204.3</ele>
        <time>2019-11-01T15:00:21Z</time>
      </trkpt>
      <trkpt lat="38.4561920" lon="-2.4387770">
        <ele>1203.0</ele>
        <time>2019-11-01T15:00:23Z</time>
      </trkpt>
      <trkpt lat="38.4561280" lon="-2.4387850">
        <ele>1203.0</ele>
        <time>2019-11-01T15:00:25Z</time>
      </trkpt>
      <trkpt lat="38.4560540" lon="-2.4387470">
        <ele>1203.0</ele>
        <time>2019-11-01T15:00:27Z</time>
      </trkpt>
      <trkpt lat="38.4559670" lon="-2.4386900">
        <ele>1203.0</ele>
        <time>2019-11-01T15:00:29Z</time>
      </trkpt>
      <trkpt lat="38.4558750" lon="-2.4386500">
        <ele>1203.0</ele>
        <time>2019-11-01T15:00:32Z</time>
      </trkpt>
      <trkpt lat="38.4557800" lon="-2.4386370">
        <ele>1201.8</ele>
        <time>2019-11-01T15:00:33Z</time>
      </trkpt>
      <trkpt lat="38.4557390" lon="-2.4386380">
        <ele>1201.8</ele>
        <time>2019-11-01T15:00:34Z</time>
      </trkpt>
      <trkpt lat="38.4556570" lon="-2.4386440">
        <ele>1201.8</ele>
        <time>2019-11-01T15:00:36Z</time>
      </trkpt>
      <trkpt lat="38.4555830" lon="-2.4386460">
        <ele>1201.8</ele>
        <time>2019-11-01T15:00:38Z</time>
      </trkpt>
      <trkpt lat="38.4555140" lon="-2.4386410">
        <ele>1201.8</ele>
        <time>2019-11-01T15:00:40Z</time>
      </trkpt>
      <trkpt lat="38.4554600" lon="-2.4386340">
        <ele>1201.8</ele>
        <time>2019-11-01T15:00:42Z</time>
      </trkpt>
      <trkpt lat="38.4553960" lon="-2.4386250">
        <ele>1201.8</ele>
        <time>2019-11-01T15:00:45Z</time>
      </trkpt>
      <trkpt lat="38.4553340" lon="-2.4386090">
        <ele>1201.8</ele>
        <time>2019-11-01T15:00:48Z</time>
      </trkpt>
      <trkpt lat="38.4552680" lon="-2.4386070">
        <ele>1201.8</ele>
        <time>2019-11-01T15:00:52Z</time>
      </trkpt>
      <trkpt lat="38.4551960" lon="-2.4386070">
        <ele>1201.8</ele>
        <time>2019-11-01T15:00:54Z</time>
      </trkpt>
      <trkpt lat="38.4551420" lon="-2.4386060">
        <ele>1201.8</ele>
        <time>2019-11-01T15:00:56Z</time>
      </trkpt>
      <trkpt lat="38.4550730" lon="-2.4386040">
        <ele>1201.8</ele>
        <time>2019-11-01T15:00:59Z</time>
      </trkpt>
      <trkpt lat="38.4550070" lon="-2.4385960">
        <ele>1201.8</ele>
        <time>2019-11-01T15:01:02Z</time>
      </trkpt>
      <trkpt lat="38.4549480" lon="-2.4385850">
        <ele>1201.8</ele>
        <time>2019-11-01T15:01:06Z</time>
      </trkpt>
      <trkpt lat="38.4547300" lon="-2.4385990">
        <ele>1199.3</ele>
        <time>2019-11-01T15:01:34Z</time>
      </trkpt>
      <trkpt lat="38.4546660" lon="-2.4386010">
        <ele>1199.3</ele>
        <time>2019-11-01T15:01:37Z</time>
      </trkpt>
      <trkpt lat="38.4545870" lon="-2.4386090">
        <ele>1199.3</ele>
        <time>2019-11-01T15:01:40Z</time>
      </trkpt>
      <trkpt lat="38.4545280" lon="-2.4386230">
        <ele>1199.3</ele>
        <time>2019-11-01T15:01:42Z</time>
      </trkpt>
      <trkpt lat="38.4544740" lon="-2.4386390">
        <ele>1199.3</ele>
        <time>2019-11-01T15:01:44Z</time>
      </trkpt>
      <trkpt lat="38.4544150" lon="-2.4386530">
        <ele>1199.3</ele>
        <time>2019-11-01T15:01:47Z</time>
      </trkpt>
      <trkpt lat="38.4543560" lon="-2.4386600">
        <ele>1199.3</ele>
        <time>2019-11-01T15:01:50Z</time>
      </trkpt>
      <trkpt lat="38.4542920" lon="-2.4386430">
        <ele>1199.3</ele>
        <time>2019-11-01T15:01:53Z</time>
      </trkpt>
      <trkpt lat="38.4542280" lon="-2.4386050">
        <ele>1199.3</ele>
        <time>2019-11-01T15:01:56Z</time>
      </trkpt>
      <trkpt lat="38.4541770" lon="-2.4385580">
        <ele>1199.3</ele>
        <time>2019-11-01T15:01:59Z</time>
      </trkpt>
      <trkpt lat="38.4541310" lon="-2.4385060">
        <ele>1199.3</ele>
        <time>2019-11-01T15:02:02Z</time>
      </trkpt>
      <trkpt lat="38.4540900" lon="-2.4384510">
        <ele>1199.3</ele>
        <time>2019-11-01T15:02:05Z</time>
      </trkpt>
      <trkpt lat="38.4540520" lon="-2.4384020">
        <ele>1199.3</ele>
        <time>2019-11-01T15:02:08Z</time>
      </trkpt>
      <trkpt lat="38.4540110" lon="-2.4383470">
        <ele>1199.3</ele>
        <time>2019-11-01T15:02:11Z</time>
      </trkpt>
      <trkpt lat="38.4539720" lon="-2.4382980">
        <ele>1199.3</ele>
        <time>2019-11-01T15:02:14Z</time>
      </trkpt>
      <trkpt lat="38.4539190" lon="-2.4382380">
        <ele>1199.3</ele>
        <time>2019-11-01T15:02:18Z</time>
      </trkpt>
      <trkpt lat="38.4538650" lon="-2.4381790">
        <ele>1199.3</ele>
        <time>2019-11-01T15:02:21Z</time>
      </trkpt>
      <trkpt lat="38.4538010" lon="-2.4381160">
        <ele>1199.3</ele>
        <time>2019-11-01T15:02:24Z</time>
      </trkpt>
      <trkpt lat="38.4537400" lon="-2.4380610">
        <ele>1199.3</ele>
        <time>2019-11-01T15:02:27Z</time>
      </trkpt>
      <trkpt lat="38.4536960" lon="-2.4380050">
        <ele>1199.3</ele>
        <time>2019-11-01T15:02:31Z</time>
      </trkpt>
      <trkpt lat="38.4536470" lon="-2.4379190">
        <ele>1199.3</ele>
        <time>2019-11-01T15:02:33Z</time>
      </trkpt>
      <trkpt lat="38.4536010" lon="-2.4378600">
        <ele>1199.3</ele>
        <time>2019-11-01T15:02:35Z</time>
      </trkpt>
      <trkpt lat="38.4535550" lon="-2.4377980">
        <ele>1199.3</ele>
        <time>2019-11-01T15:02:38Z</time>
      </trkpt>
      <trkpt lat="38.4535220" lon="-2.4377390">
        <ele>1199.3</ele>
        <time>2019-11-01T15:02:39Z</time>
      </trkpt>
      <trkpt lat="38.4534910" lon="-2.4376900">
        <ele>1199.3</ele>
        <time>2019-11-01T15:02:41Z</time>
      </trkpt>
      <trkpt lat="38.4534270" lon="-2.4376400">
        <ele>1199.3</ele>
        <time>2019-11-01T15:02:44Z</time>
      </trkpt>
      <trkpt lat="38.4533660" lon="-2.4376040">
        <ele>1199.3</ele>
        <time>2019-11-01T15:02:47Z</time>
      </trkpt>
      <trkpt lat="38.4532940" lon="-2.4375650">
        <ele>1199.3</ele>
        <time>2019-11-01T15:02:50Z</time>
      </trkpt>
      <trkpt lat="38.4532350" lon="-2.4375290">
        <ele>1199.3</ele>
        <time>2019-11-01T15:02:53Z</time>
      </trkpt>
      <trkpt lat="38.4531940" lon="-2.4375030">
        <ele>1199.3</ele>
        <time>2019-11-01T15:02:55Z</time>
      </trkpt>
      <trkpt lat="38.4531400" lon="-2.4374640">
        <ele>1199.3</ele>
        <time>2019-11-01T15:02:58Z</time>
      </trkpt>
      <trkpt lat="38.4530790" lon="-2.4374340">
        <ele>1199.3</ele>
        <time>2019-11-01T15:03:01Z</time>
      </trkpt>
      <trkpt lat="38.4530180" lon="-2.4374080">
        <ele>1199.3</ele>
        <time>2019-11-01T15:03:04Z</time>
      </trkpt>
      <trkpt lat="38.4529560" lon="-2.4373760">
        <ele>1199.3</ele>
        <time>2019-11-01T15:03:07Z</time>
      </trkpt>
      <trkpt lat="38.4529050" lon="-2.4373480">
        <ele>1199.3</ele>
        <time>2019-11-01T15:03:10Z</time>
      </trkpt>
      <trkpt lat="38.4528360" lon="-2.4373350">
        <ele>1199.3</ele>
        <time>2019-11-01T15:03:13Z</time>
      </trkpt>
      <trkpt lat="38.4527770" lon="-2.4373440">
        <ele>1199.3</ele>
        <time>2019-11-01T15:03:16Z</time>
      </trkpt>
      <trkpt lat="38.4527280" lon="-2.4373520">
        <ele>1199.3</ele>
        <time>2019-11-01T15:03:20Z</time>
      </trkpt>
      <trkpt lat="38.4526670" lon="-2.4373750">
        <ele>1199.3</ele>
        <time>2019-11-01T15:03:24Z</time>
      </trkpt>
      <trkpt lat="38.4526210" lon="-2.4374170">
        <ele>1199.3</ele>
        <time>2019-11-01T15:03:27Z</time>
      </trkpt>
      <trkpt lat="38.4525750" lon="-2.4374660">
        <ele>1199.3</ele>
        <time>2019-11-01T15:03:31Z</time>
      </trkpt>
      <trkpt lat="38.4525490" lon="-2.4375200">
        <ele>1199.3</ele>
        <time>2019-11-01T15:03:35Z</time>
      </trkpt>
      <trkpt lat="38.4525180" lon="-2.4375760">
        <ele>1199.3</ele>
        <time>2019-11-01T15:03:41Z</time>
      </trkpt>
      <trkpt lat="38.4525080" lon="-2.4376360">
        <ele>1199.3</ele>
        <time>2019-11-01T15:03:45Z</time>
      </trkpt>
      <trkpt lat="38.4523620" lon="-2.4375120">
        <ele>1199.4</ele>
        <time>2019-11-01T15:04:43Z</time>
      </trkpt>
      <trkpt lat="38.4523240" lon="-2.4374850">
        <ele>1199.4</ele>
        <time>2019-11-01T15:04:54Z</time>
      </trkpt>
      <trkpt lat="38.4522910" lon="-2.4374490">
        <ele>1201.4</ele>
        <time>2019-11-01T15:05:00Z</time>
      </trkpt>
      <trkpt lat="38.4522370" lon="-2.4374260">
        <ele>1201.4</ele>
        <time>2019-11-01T15:05:05Z</time>
      </trkpt>
      <trkpt lat="38.4522290" lon="-2.4373910">
        <ele>1201.4</ele>
        <time>2019-11-01T15:05:10Z</time>
      </trkpt>
      <trkpt lat="38.4522370" lon="-2.4373530">
        <ele>1203.5</ele>
        <time>2019-11-01T15:05:16Z</time>
      </trkpt>
      <trkpt lat="38.4516170" lon="-2.4368420">
        <ele>1155.1</ele>
        <time>2019-11-01T15:09:23Z</time>
      </trkpt>
      <trkpt lat="38.4515070" lon="-2.4368820">
        <ele>1161.0</ele>
        <time>2019-11-01T15:10:11Z</time>
      </trkpt>
      <trkpt lat="38.4514590" lon="-2.4368840">
        <ele>1162.2</ele>
        <time>2019-11-01T15:10:17Z</time>
      </trkpt>
      <trkpt lat="38.4514070" lon="-2.4368740">
        <ele>1163.4</ele>
        <time>2019-11-01T15:10:25Z</time>
      </trkpt>
      <trkpt lat="38.4513660" lon="-2.4368610">
        <ele>1164.7</ele>
        <time>2019-11-01T15:10:34Z</time>
      </trkpt>
      <trkpt lat="38.4512820" lon="-2.4368010">
        <ele>1191.6</ele>
        <time>2019-11-01T15:14:29Z</time>
      </trkpt>
      <trkpt lat="38.4513410" lon="-2.4368180">
        <ele>1191.6</ele>
        <time>2019-11-01T15:15:12Z</time>
      </trkpt>
      <trkpt lat="38.4512440" lon="-2.4368470">
        <ele>1191.6</ele>
        <time>2019-11-01T15:15:23Z</time>
      </trkpt>
      <trkpt lat="38.4513820" lon="-2.4368750">
        <ele>1191.6</ele>
        <time>2019-11-01T15:15:49Z</time>
      </trkpt>
      <trkpt lat="38.4521110" lon="-2.4368270">
        <ele>1193.6</ele>
        <time>2019-11-01T15:18:01Z</time>
      </trkpt>
      <trkpt lat="38.4521110" lon="-2.4368270">
        <ele>1193.6</ele>
        <time>2019-11-01T15:18:02Z</time>
      </trkpt>
      <trkpt lat="38.4520810" lon="-2.4371340">
        <ele>1183.2</ele>
        <time>2019-11-01T15:20:27Z</time>
      </trkpt>
      <trkpt lat="38.4521190" lon="-2.4371680">
        <ele>1183.2</ele>
        <time>2019-11-01T15:20:33Z</time>
      </trkpt>
      <trkpt lat="38.4521750" lon="-2.4372150">
        <ele>1183.2</ele>
        <time>2019-11-01T15:20:50Z</time>
      </trkpt>
      <trkpt lat="38.4523780" lon="-2.4375170">
        <ele>1176.1</ele>
        <time>2019-11-01T15:21:42Z</time>
      </trkpt>
      <trkpt lat="38.4524010" lon="-2.4375660">
        <ele>1176.1</ele>
        <time>2019-11-01T15:21:46Z</time>
      </trkpt>
      <trkpt lat="38.4524240" lon="-2.4376250">
        <ele>1176.1</ele>
        <time>2019-11-01T15:21:51Z</time>
      </trkpt>
      <trkpt lat="38.4524490" lon="-2.4376650">
        <ele>1174.7</ele>
        <time>2019-11-01T15:21:57Z</time>
      </trkpt>
      <trkpt lat="38.4526180" lon="-2.4374510">
        <ele>1169.7</ele>
        <time>2019-11-01T15:22:51Z</time>
      </trkpt>
      <trkpt lat="38.4526340" lon="-2.4373820">
        <ele>1168.5</ele>
        <time>2019-11-01T15:22:55Z</time>
      </trkpt>
      <trkpt lat="38.4526590" lon="-2.4373170">
        <ele>1167.2</ele>
        <time>2019-11-01T15:22:59Z</time>
      </trkpt>
      <trkpt lat="38.4526800" lon="-2.4372610">
        <ele>1167.2</ele>
        <time>2019-11-01T15:23:04Z</time>
      </trkpt>
      <trkpt lat="38.4527390" lon="-2.4371870">
        <ele>1166.0</ele>
        <time>2019-11-01T15:25:16Z</time>
      </trkpt>
      <trkpt lat="38.4527280" lon="-2.4372400">
        <ele>1166.0</ele>
        <time>2019-11-01T15:26:25Z</time>
      </trkpt>
      <trkpt lat="38.4527130" lon="-2.4372550">
        <ele>1166.0</ele>
        <time>2019-11-01T15:27:24Z</time>
      </trkpt>
      <trkpt lat="38.4527690" lon="-2.4372680">
        <ele>1166.0</ele>
        <time>2019-11-01T15:27:30Z</time>
      </trkpt>
      <trkpt lat="38.4528280" lon="-2.4372770">
        <ele>1166.0</ele>
        <time>2019-11-01T15:27:35Z</time>
      </trkpt>
      <trkpt lat="38.4528820" lon="-2.4372960">
        <ele>1166.0</ele>
        <time>2019-11-01T15:27:40Z</time>
      </trkpt>
      <trkpt lat="38.4529410" lon="-2.4373250">
        <ele>1166.0</ele>
        <time>2019-11-01T15:27:45Z</time>
      </trkpt>
      <trkpt lat="38.4529920" lon="-2.4373620">
        <ele>1166.0</ele>
        <time>2019-11-01T15:27:48Z</time>
      </trkpt>
      <trkpt lat="38.4530480" lon="-2.4374060">
        <ele>1166.0</ele>
        <time>2019-11-01T15:27:51Z</time>
      </trkpt>
      <trkpt lat="38.4531330" lon="-2.4374510">
        <ele>1166.0</ele>
        <time>2019-11-01T15:27:54Z</time>
      </trkpt>
      <trkpt lat="38.4531970" lon="-2.4374820">
        <ele>1166.0</ele>
        <time>2019-11-01T15:27:56Z</time>
      </trkpt>
      <trkpt lat="38.4532630" lon="-2.4375120">
        <ele>1166.0</ele>
        <time>2019-11-01T15:27:58Z</time>
      </trkpt>
      <trkpt lat="38.4533150" lon="-2.4375430">
        <ele>1164.7</ele>
        <time>2019-11-01T15:28:00Z</time>
      </trkpt>
      <trkpt lat="38.4533660" lon="-2.4375800">
        <ele>1164.7</ele>
        <time>2019-11-01T15:28:02Z</time>
      </trkpt>
      <trkpt lat="38.4534040" lon="-2.4376220">
        <ele>1164.7</ele>
        <time>2019-11-01T15:28:04Z</time>
      </trkpt>
      <trkpt lat="38.4534450" lon="-2.4376760">
        <ele>1164.7</ele>
        <time>2019-11-01T15:28:06Z</time>
      </trkpt>
      <trkpt lat="38.4534840" lon="-2.4377310">
        <ele>1164.7</ele>
        <time>2019-11-01T15:28:08Z</time>
      </trkpt>
      <trkpt lat="38.4535370" lon="-2.4377940">
        <ele>1164.7</ele>
        <time>2019-11-01T15:28:11Z</time>
      </trkpt>
      <trkpt lat="38.4535760" lon="-2.4378360">
        <ele>1163.6</ele>
        <time>2019-11-01T15:28:13Z</time>
      </trkpt>
      <trkpt lat="38.4536290" lon="-2.4379020">
        <ele>1163.6</ele>
        <time>2019-11-01T15:28:16Z</time>
      </trkpt>
      <trkpt lat="38.4536760" lon="-2.4379650">
        <ele>1163.6</ele>
        <time>2019-11-01T15:28:19Z</time>
      </trkpt>
      <trkpt lat="38.4537090" lon="-2.4380240">
        <ele>1163.6</ele>
        <time>2019-11-01T15:28:22Z</time>
      </trkpt>
      <trkpt lat="38.4537470" lon="-2.4380710">
        <ele>1163.6</ele>
        <time>2019-11-01T15:28:26Z</time>
      </trkpt>
      <trkpt lat="38.4537960" lon="-2.4381220">
        <ele>1164.7</ele>
        <time>2019-11-01T15:28:30Z</time>
      </trkpt>
      <trkpt lat="38.4538470" lon="-2.4381750">
        <ele>1164.7</ele>
        <time>2019-11-01T15:28:33Z</time>
      </trkpt>
      <trkpt lat="38.4538800" lon="-2.4382010">
        <ele>1164.7</ele>
        <time>2019-11-01T15:28:36Z</time>
      </trkpt>
      <trkpt lat="38.4539520" lon="-2.4382410">
        <ele>1164.7</ele>
        <time>2019-11-01T15:28:41Z</time>
      </trkpt>
      <trkpt lat="38.4540030" lon="-2.4382810">
        <ele>1164.7</ele>
        <time>2019-11-01T15:28:43Z</time>
      </trkpt>
      <trkpt lat="38.4540600" lon="-2.4383230">
        <ele>1164.7</ele>
        <time>2019-11-01T15:28:45Z</time>
      </trkpt>
      <trkpt lat="38.4541080" lon="-2.4383600">
        <ele>1164.7</ele>
        <time>2019-11-01T15:28:47Z</time>
      </trkpt>
      <trkpt lat="38.4541470" lon="-2.4383840">
        <ele>1164.7</ele>
        <time>2019-11-01T15:28:49Z</time>
      </trkpt>
      <trkpt lat="38.4542000" lon="-2.4384040">
        <ele>1164.7</ele>
        <time>2019-11-01T15:28:52Z</time>
      </trkpt>
      <trkpt lat="38.4542540" lon="-2.4384200">
        <ele>1164.7</ele>
        <time>2019-11-01T15:28:55Z</time>
      </trkpt>
      <trkpt lat="38.4543520" lon="-2.4384220">
        <ele>1164.7</ele>
        <time>2019-11-01T15:28:59Z</time>
      </trkpt>
      <trkpt lat="38.4543800" lon="-2.4384210">
        <ele>1164.7</ele>
        <time>2019-11-01T15:29:00Z</time>
      </trkpt>
      <trkpt lat="38.4544310" lon="-2.4384170">
        <ele>1163.6</ele>
        <time>2019-11-01T15:29:02Z</time>
      </trkpt>
      <trkpt lat="38.4544870" lon="-2.4384170">
        <ele>1163.6</ele>
        <time>2019-11-01T15:29:05Z</time>
      </trkpt>
      <trkpt lat="38.4545330" lon="-2.4384270">
        <ele>1163.6</ele>
        <time>2019-11-01T15:29:08Z</time>
      </trkpt>
      <trkpt lat="38.4545820" lon="-2.4384450">
        <ele>1163.6</ele>
        <time>2019-11-01T15:29:12Z</time>
      </trkpt>
      <trkpt lat="38.4546360" lon="-2.4384440">
        <ele>1163.6</ele>
        <time>2019-11-01T15:29:16Z</time>
      </trkpt>
      <trkpt lat="38.4547150" lon="-2.4384460">
        <ele>1163.6</ele>
        <time>2019-11-01T15:29:20Z</time>
      </trkpt>
      <trkpt lat="38.4547760" lon="-2.4384540">
        <ele>1163.6</ele>
        <time>2019-11-01T15:29:23Z</time>
      </trkpt>
      <trkpt lat="38.4548300" lon="-2.4384640">
        <ele>1163.6</ele>
        <time>2019-11-01T15:29:26Z</time>
      </trkpt>
      <trkpt lat="38.4548990" lon="-2.4384740">
        <ele>1163.6</ele>
        <time>2019-11-01T15:29:29Z</time>
      </trkpt>
      <trkpt lat="38.4549610" lon="-2.4384790">
        <ele>1163.6</ele>
        <time>2019-11-01T15:29:31Z</time>
      </trkpt>
      <trkpt lat="38.4550370" lon="-2.4384720">
        <ele>1163.6</ele>
        <time>2019-11-01T15:29:33Z</time>
      </trkpt>
      <trkpt lat="38.4551170" lon="-2.4384620">
        <ele>1163.6</ele>
        <time>2019-11-01T15:29:35Z</time>
      </trkpt>
      <trkpt lat="38.4551860" lon="-2.4384680">
        <ele>1163.6</ele>
        <time>2019-11-01T15:29:37Z</time>
      </trkpt>
      <trkpt lat="38.4552500" lon="-2.4384920">
        <ele>1162.4</ele>
        <time>2019-11-01T15:29:39Z</time>
      </trkpt>
      <trkpt lat="38.4553110" lon="-2.4385230">
        <ele>1162.4</ele>
        <time>2019-11-01T15:29:41Z</time>
      </trkpt>
      <trkpt lat="38.4553730" lon="-2.4385540">
        <ele>1162.4</ele>
        <time>2019-11-01T15:29:43Z</time>
      </trkpt>
      <trkpt lat="38.4554290" lon="-2.4385750">
        <ele>1162.4</ele>
        <time>2019-11-01T15:29:45Z</time>
      </trkpt>
      <trkpt lat="38.4554850" lon="-2.4385830">
        <ele>1162.4</ele>
        <time>2019-11-01T15:29:47Z</time>
      </trkpt>
      <trkpt lat="38.4555390" lon="-2.4385750">
        <ele>1162.4</ele>
        <time>2019-11-01T15:29:49Z</time>
      </trkpt>
      <trkpt lat="38.4555900" lon="-2.4385530">
        <ele>1162.4</ele>
        <time>2019-11-01T15:29:51Z</time>
      </trkpt>
      <trkpt lat="38.4556340" lon="-2.4385230">
        <ele>1162.4</ele>
        <time>2019-11-01T15:29:53Z</time>
      </trkpt>
      <trkpt lat="38.4556800" lon="-2.4384840">
        <ele>1162.4</ele>
        <time>2019-11-01T15:29:55Z</time>
      </trkpt>
      <trkpt lat="38.4557240" lon="-2.4384430">
        <ele>1162.4</ele>
        <time>2019-11-01T15:29:57Z</time>
      </trkpt>
      <trkpt lat="38.4557700" lon="-2.4384030">
        <ele>1162.4</ele>
        <time>2019-11-01T15:29:59Z</time>
      </trkpt>
      <trkpt lat="38.4558130" lon="-2.4383660">
        <ele>1162.4</ele>
        <time>2019-11-01T15:30:01Z</time>
      </trkpt>
      <trkpt lat="38.4558720" lon="-2.4383120">
        <ele>1162.4</ele>
        <time>2019-11-01T15:30:04Z</time>
      </trkpt>
      <trkpt lat="38.4559330" lon="-2.4382530">
        <ele>1162.4</ele>
        <time>2019-11-01T15:30:07Z</time>
      </trkpt>
      <trkpt lat="38.4559740" lon="-2.4382100">
        <ele>1162.4</ele>
        <time>2019-11-01T15:30:09Z</time>
      </trkpt>
      <trkpt lat="38.4560150" lon="-2.4381710">
        <ele>1162.4</ele>
        <time>2019-11-01T15:30:11Z</time>
      </trkpt>
      <trkpt lat="38.4560740" lon="-2.4381310">
        <ele>1162.4</ele>
        <time>2019-11-01T15:30:14Z</time>
      </trkpt>
      <trkpt lat="38.4561200" lon="-2.4381040">
        <ele>1162.4</ele>
        <time>2019-11-01T15:30:17Z</time>
      </trkpt>
      <trkpt lat="38.4561590" lon="-2.4380650">
        <ele>1162.4</ele>
        <time>2019-11-01T15:30:22Z</time>
      </trkpt>
      <trkpt lat="38.4562000" lon="-2.4380380">
        <ele>1161.2</ele>
        <time>2019-11-01T15:30:27Z</time>
      </trkpt>
      <trkpt lat="38.4562530" lon="-2.4380080">
        <ele>1161.2</ele>
        <time>2019-11-01T15:30:30Z</time>
      </trkpt>
      <trkpt lat="38.4563070" lon="-2.4379770">
        <ele>1161.2</ele>
        <time>2019-11-01T15:30:34Z</time>
      </trkpt>
      <trkpt lat="38.4563530" lon="-2.4379400">
        <ele>1161.2</ele>
        <time>2019-11-01T15:30:38Z</time>
      </trkpt>
      <trkpt lat="38.4563940" lon="-2.4378870">
        <ele>1161.2</ele>
        <time>2019-11-01T15:30:43Z</time>
      </trkpt>
      <trkpt lat="38.4564280" lon="-2.4378310">
        <ele>1161.2</ele>
        <time>2019-11-01T15:30:48Z</time>
      </trkpt>
      <trkpt lat="38.4564890" lon="-2.4378370">
        <ele>1161.2</ele>
        <time>2019-11-01T15:30:53Z</time>
      </trkpt>
      <trkpt lat="38.4565480" lon="-2.4378500">
        <ele>1161.2</ele>
        <time>2019-11-01T15:30:56Z</time>
      </trkpt>
      <trkpt lat="38.4565960" lon="-2.4378540">
        <ele>1161.2</ele>
        <time>2019-11-01T15:30:59Z</time>
      </trkpt>
      <trkpt lat="38.4566450" lon="-2.4378570">
        <ele>1161.2</ele>
        <time>2019-11-01T15:31:02Z</time>
      </trkpt>
      <trkpt lat="38.4567040" lon="-2.4378440">
        <ele>1161.2</ele>
        <time>2019-11-01T15:31:06Z</time>
      </trkpt>
      <trkpt lat="38.4570470" lon="-2.4378660">
        <ele>1160.0</ele>
        <time>2019-11-01T15:32:39Z</time>
      </trkpt>
      <trkpt lat="38.4571240" lon="-2.4379080">
        <ele>1161.7</ele>
        <time>2019-11-01T15:32:49Z</time>
      </trkpt>
      <trkpt lat="38.4571830" lon="-2.4379060">
        <ele>1161.7</ele>
        <time>2019-11-01T15:32:56Z</time>
      </trkpt>
      <trkpt lat="38.4576460" lon="-2.4371390">
        <ele>1171.3</ele>
        <time>2019-11-01T15:36:16Z</time>
      </trkpt>
      <trkpt lat="38.4577230" lon="-2.4370140">
        <ele>1171.3</ele>
        <time>2019-11-01T15:36:55Z</time>
      </trkpt>
      <trkpt lat="38.4577740" lon="-2.4370010">
        <ele>1174.3</ele>
        <time>2019-11-01T15:36:59Z</time>
      </trkpt>
      <trkpt lat="38.4578410" lon="-2.4369960">
        <ele>1174.3</ele>
        <time>2019-11-01T15:37:02Z</time>
      </trkpt>
      <trkpt lat="38.4579120" lon="-2.4369930">
        <ele>1174.3</ele>
        <time>2019-11-01T15:37:05Z</time>
      </trkpt>
      <trkpt lat="38.4579810" lon="-2.4369860">
        <ele>1175.5</ele>
        <time>2019-11-01T15:37:08Z</time>
      </trkpt>
      <trkpt lat="38.4580530" lon="-2.4369560">
        <ele>1175.5</ele>
        <time>2019-11-01T15:37:11Z</time>
      </trkpt>
      <trkpt lat="38.4581040" lon="-2.4369230">
        <ele>1174.3</ele>
        <time>2019-11-01T15:37:13Z</time>
      </trkpt>
      <trkpt lat="38.4581530" lon="-2.4368970">
        <ele>1174.3</ele>
        <time>2019-11-01T15:37:15Z</time>
      </trkpt>
      <trkpt lat="38.4582090" lon="-2.4368800">
        <ele>1172.7</ele>
        <time>2019-11-01T15:37:17Z</time>
      </trkpt>
      <trkpt lat="38.4582710" lon="-2.4368700">
        <ele>1172.7</ele>
        <time>2019-11-01T15:37:19Z</time>
      </trkpt>
      <trkpt lat="38.4583270" lon="-2.4368570">
        <ele>1171.6</ele>
        <time>2019-11-01T15:37:21Z</time>
      </trkpt>
      <trkpt lat="38.4583810" lon="-2.4368370">
        <ele>1170.3</ele>
        <time>2019-11-01T15:37:23Z</time>
      </trkpt>
      <trkpt lat="38.4584270" lon="-2.4368070">
        <ele>1169.1</ele>
        <time>2019-11-01T15:37:25Z</time>
      </trkpt>
      <trkpt lat="38.4584730" lon="-2.4367600">
        <ele>1167.4</ele>
        <time>2019-11-01T15:37:27Z</time>
      </trkpt>
      <trkpt lat="38.4585220" lon="-2.4367050">
        <ele>1166.0</ele>
        <time>2019-11-01T15:37:29Z</time>
      </trkpt>
      <trkpt lat="38.4585650" lon="-2.4366520">
        <ele>1164.7</ele>
        <time>2019-11-01T15:37:31Z</time>
      </trkpt>
      <trkpt lat="38.4586040" lon="-2.4366060">
        <ele>1164.7</ele>
        <time>2019-11-01T15:37:33Z</time>
      </trkpt>
      <trkpt lat="38.4586520" lon="-2.4365630">
        <ele>1163.4</ele>
        <time>2019-11-01T15:37:35Z</time>
      </trkpt>
      <trkpt lat="38.4587030" lon="-2.4365230">
        <ele>1162.1</ele>
        <time>2019-11-01T15:37:37Z</time>
      </trkpt>
      <trkpt lat="38.4587370" lon="-2.4364890">
        <ele>1162.1</ele>
        <time>2019-11-01T15:37:39Z</time>
      </trkpt>
      <trkpt lat="38.4587670" lon="-2.4364240">
        <ele>1160.6</ele>
        <time>2019-11-01T15:37:42Z</time>
      </trkpt>
      <trkpt lat="38.4588010" lon="-2.4363310">
        <ele>1158.7</ele>
        <time>2019-11-01T15:37:45Z</time>
      </trkpt>
      <trkpt lat="38.4588310" lon="-2.4362620">
        <ele>1157.2</ele>
        <time>2019-11-01T15:37:47Z</time>
      </trkpt>
      <trkpt lat="38.4588600" lon="-2.4361890">
        <ele>1155.7</ele>
        <time>2019-11-01T15:37:49Z</time>
      </trkpt>
      <trkpt lat="38.4588850" lon="-2.4361130">
        <ele>1155.7</ele>
        <time>2019-11-01T15:37:51Z</time>
      </trkpt>
      <trkpt lat="38.4589110" lon="-2.4360500">
        <ele>1154.4</ele>
        <time>2019-11-01T15:37:53Z</time>
      </trkpt>
      <trkpt lat="38.4589410" lon="-2.4360000">
        <ele>1154.4</ele>
        <time>2019-11-01T15:37:55Z</time>
      </trkpt>
      <trkpt lat="38.4589850" lon="-2.4359420">
        <ele>1153.2</ele>
        <time>2019-11-01T15:37:58Z</time>
      </trkpt>
      <trkpt lat="38.4590180" lon="-2.4359060">
        <ele>1153.2</ele>
        <time>2019-11-01T15:38:01Z</time>
      </trkpt>
      <trkpt lat="38.4591870" lon="-2.4357750">
        <ele>1153.2</ele>
        <time>2019-11-01T15:38:41Z</time>
      </trkpt>
      <trkpt lat="38.4592720" lon="-2.4357550">
        <ele>1151.2</ele>
        <time>2019-11-01T15:38:46Z</time>
      </trkpt>
      <trkpt lat="38.4593150" lon="-2.4357280">
        <ele>1151.2</ele>
        <time>2019-11-01T15:38:48Z</time>
      </trkpt>
      <trkpt lat="38.4593690" lon="-2.4356930">
        <ele>1151.2</ele>
        <time>2019-11-01T15:38:50Z</time>
      </trkpt>
      <trkpt lat="38.4594150" lon="-2.4356510">
        <ele>1149.8</ele>
        <time>2019-11-01T15:38:52Z</time>
      </trkpt>
      <trkpt lat="38.4594690" lon="-2.4356040">
        <ele>1149.8</ele>
        <time>2019-11-01T15:38:54Z</time>
      </trkpt>
      <trkpt lat="38.4595380" lon="-2.4355600">
        <ele>1148.3</ele>
        <time>2019-11-01T15:38:56Z</time>
      </trkpt>
      <trkpt lat="38.4596070" lon="-2.4355320">
        <ele>1147.1</ele>
        <time>2019-11-01T15:38:58Z</time>
      </trkpt>
      <trkpt lat="38.4596710" lon="-2.4355220">
        <ele>1145.8</ele>
        <time>2019-11-01T15:39:00Z</time>
      </trkpt>
      <trkpt lat="38.4597320" lon="-2.4355140">
        <ele>1144.3</ele>
        <time>2019-11-01T15:39:02Z</time>
      </trkpt>
      <trkpt lat="38.4597810" lon="-2.4355020">
        <ele>1143.0</ele>
        <time>2019-11-01T15:39:04Z</time>
      </trkpt>
      <trkpt lat="38.4598270" lon="-2.4354920">
        <ele>1141.8</ele>
        <time>2019-11-01T15:39:06Z</time>
      </trkpt>
      <trkpt lat="38.4599070" lon="-2.4354800">
        <ele>1140.0</ele>
        <time>2019-11-01T15:39:09Z</time>
      </trkpt>
      <trkpt lat="38.4599730" lon="-2.4354730">
        <ele>1138.6</ele>
        <time>2019-11-01T15:39:11Z</time>
      </trkpt>
      <trkpt lat="38.4600420" lon="-2.4354650">
        <ele>1137.4</ele>
        <time>2019-11-01T15:39:13Z</time>
      </trkpt>
      <trkpt lat="38.4601010" lon="-2.4354600">
        <ele>1136.1</ele>
        <time>2019-11-01T15:39:15Z</time>
      </trkpt>
      <trkpt lat="38.4601550" lon="-2.4354610">
        <ele>1134.8</ele>
        <time>2019-11-01T15:39:17Z</time>
      </trkpt>
      <trkpt lat="38.4602090" lon="-2.4354720">
        <ele>1134.8</ele>
        <time>2019-11-01T15:39:19Z</time>
      </trkpt>
      <trkpt lat="38.4602570" lon="-2.4354910">
        <ele>1133.2</ele>
        <time>2019-11-01T15:39:21Z</time>
      </trkpt>
      <trkpt lat="38.4603260" lon="-2.4355320">
        <ele>1132.0</ele>
        <time>2019-11-01T15:39:24Z</time>
      </trkpt>
      <trkpt lat="38.4603720" lon="-2.4355680">
        <ele>1130.8</ele>
        <time>2019-11-01T15:39:26Z</time>
      </trkpt>
      <trkpt lat="38.4604310" lon="-2.4356210">
        <ele>1130.8</ele>
        <time>2019-11-01T15:39:29Z</time>
      </trkpt>
      <trkpt lat="38.4604830" lon="-2.4356490">
        <ele>1129.5</ele>
        <time>2019-11-01T15:39:32Z</time>
      </trkpt>
      <trkpt lat="38.4605670" lon="-2.4356750">
        <ele>1128.3</ele>
        <time>2019-11-01T15:39:41Z</time>
      </trkpt>
      <trkpt lat="38.4606110" lon="-2.4357000">
        <ele>1127.0</ele>
        <time>2019-11-01T15:39:46Z</time>
      </trkpt>
      <trkpt lat="38.4606520" lon="-2.4357230">
        <ele>1127.0</ele>
        <time>2019-11-01T15:39:52Z</time>
      </trkpt>
      <trkpt lat="38.4607230" lon="-2.4357620">
        <ele>1125.8</ele>
        <time>2019-11-01T15:40:00Z</time>
      </trkpt>
      <trkpt lat="38.4607690" lon="-2.4357860">
        <ele>1123.0</ele>
        <time>2019-11-01T15:40:04Z</time>
      </trkpt>
      <trkpt lat="38.4610660" lon="-2.4359130">
        <ele>1114.3</ele>
        <time>2019-11-01T15:40:55Z</time>
      </trkpt>
      <trkpt lat="38.4611020" lon="-2.4359530">
        <ele>1112.9</ele>
        <time>2019-11-01T15:41:00Z</time>
      </trkpt>
      <trkpt lat="38.4611890" lon="-2.4360620">
        <ele>1110.3</ele>
        <time>2019-11-01T15:41:15Z</time>
      </trkpt>
      <trkpt lat="38.4612890" lon="-2.4361800">
        <ele>1107.8</ele>
        <time>2019-11-01T15:41:34Z</time>
      </trkpt>
      <trkpt lat="38.4613350" lon="-2.4362260">
        <ele>1106.7</ele>
        <time>2019-11-01T15:41:38Z</time>
      </trkpt>
      <trkpt lat="38.4613960" lon="-2.4362600">
        <ele>1105.3</ele>
        <time>2019-11-01T15:41:41Z</time>
      </trkpt>
      <trkpt lat="38.4614480" lon="-2.4362940">
        <ele>1105.3</ele>
        <time>2019-11-01T15:41:43Z</time>
      </trkpt>
      <trkpt lat="38.4615070" lon="-2.4363350">
        <ele>1104.1</ele>
        <time>2019-11-01T15:41:45Z</time>
      </trkpt>
      <trkpt lat="38.4615550" lon="-2.4363780">
        <ele>1102.9</ele>
        <time>2019-11-01T15:41:47Z</time>
      </trkpt>
      <trkpt lat="38.4616090" lon="-2.4364250">
        <ele>1102.9</ele>
        <time>2019-11-01T15:41:49Z</time>
      </trkpt>
      <trkpt lat="38.4616500" lon="-2.4364740">
        <ele>1101.5</ele>
        <time>2019-11-01T15:41:51Z</time>
      </trkpt>
      <trkpt lat="38.4617010" lon="-2.4365260">
        <ele>1101.5</ele>
        <time>2019-11-01T15:41:53Z</time>
      </trkpt>
      <trkpt lat="38.4617630" lon="-2.4365810">
        <ele>1101.5</ele>
        <time>2019-11-01T15:41:55Z</time>
      </trkpt>
      <trkpt lat="38.4618190" lon="-2.4366360">
        <ele>1100.2</ele>
        <time>2019-11-01T15:41:57Z</time>
      </trkpt>
      <trkpt lat="38.4618800" lon="-2.4366870">
        <ele>1100.2</ele>
        <time>2019-11-01T15:41:59Z</time>
      </trkpt>
      <trkpt lat="38.4619370" lon="-2.4367230">
        <ele>1098.7</ele>
        <time>2019-11-01T15:42:01Z</time>
      </trkpt>
      <trkpt lat="38.4619930" lon="-2.4367420">
        <ele>1097.5</ele>
        <time>2019-11-01T15:42:03Z</time>
      </trkpt>
      <trkpt lat="38.4620600" lon="-2.4367460">
        <ele>1097.5</ele>
        <time>2019-11-01T15:42:05Z</time>
      </trkpt>
      <trkpt lat="38.4621240" lon="-2.4367260">
        <ele>1096.3</ele>
        <time>2019-11-01T15:42:07Z</time>
      </trkpt>
      <trkpt lat="38.4621880" lon="-2.4366880">
        <ele>1096.3</ele>
        <time>2019-11-01T15:42:09Z</time>
      </trkpt>
      <trkpt lat="38.4622490" lon="-2.4366470">
        <ele>1096.3</ele>
        <time>2019-11-01T15:42:11Z</time>
      </trkpt>
      <trkpt lat="38.4623080" lon="-2.4366130">
        <ele>1095.0</ele>
        <time>2019-11-01T15:42:13Z</time>
      </trkpt>
      <trkpt lat="38.4623740" lon="-2.4365880">
        <ele>1095.0</ele>
        <time>2019-11-01T15:42:15Z</time>
      </trkpt>
      <trkpt lat="38.4624440" lon="-2.4365770">
        <ele>1095.0</ele>
        <time>2019-11-01T15:42:17Z</time>
      </trkpt>
      <trkpt lat="38.4625020" lon="-2.4365700">
        <ele>1095.0</ele>
        <time>2019-11-01T15:42:19Z</time>
      </trkpt>
      <trkpt lat="38.4625560" lon="-2.4365700">
        <ele>1095.0</ele>
        <time>2019-11-01T15:42:21Z</time>
      </trkpt>
      <trkpt lat="38.4626050" lon="-2.4365740">
        <ele>1095.0</ele>
        <time>2019-11-01T15:42:23Z</time>
      </trkpt>
      <trkpt lat="38.4626760" lon="-2.4365790">
        <ele>1095.0</ele>
        <time>2019-11-01T15:42:26Z</time>
      </trkpt>
      <trkpt lat="38.4627510" lon="-2.4366080">
        <ele>1093.8</ele>
        <time>2019-11-01T15:42:29Z</time>
      </trkpt>
      <trkpt lat="38.4627990" lon="-2.4366480">
        <ele>1093.8</ele>
        <time>2019-11-01T15:42:31Z</time>
      </trkpt>
      <trkpt lat="38.4628480" lon="-2.4367060">
        <ele>1093.8</ele>
        <time>2019-11-01T15:42:33Z</time>
      </trkpt>
      <trkpt lat="38.4629070" lon="-2.4367740">
        <ele>1093.8</ele>
        <time>2019-11-01T15:42:35Z</time>
      </trkpt>
      <trkpt lat="38.4629630" lon="-2.4368350">
        <ele>1093.8</ele>
        <time>2019-11-01T15:42:37Z</time>
      </trkpt>
      <trkpt lat="38.4630200" lon="-2.4368870">
        <ele>1092.6</ele>
        <time>2019-11-01T15:42:39Z</time>
      </trkpt>
      <trkpt lat="38.4630860" lon="-2.4369220">
        <ele>1092.6</ele>
        <time>2019-11-01T15:42:41Z</time>
      </trkpt>
      <trkpt lat="38.4631500" lon="-2.4369290">
        <ele>1092.6</ele>
        <time>2019-11-01T15:42:43Z</time>
      </trkpt>
      <trkpt lat="38.4632060" lon="-2.4369050">
        <ele>1092.6</ele>
        <time>2019-11-01T15:42:45Z</time>
      </trkpt>
      <trkpt lat="38.4632580" lon="-2.4368650">
        <ele>1091.3</ele>
        <time>2019-11-01T15:42:47Z</time>
      </trkpt>
      <trkpt lat="38.4633190" lon="-2.4368140">
        <ele>1091.3</ele>
        <time>2019-11-01T15:42:49Z</time>
      </trkpt>
      <trkpt lat="38.4633700" lon="-2.4367630">
        <ele>1091.3</ele>
        <time>2019-11-01T15:42:51Z</time>
      </trkpt>
      <trkpt lat="38.4634210" lon="-2.4367090">
        <ele>1091.3</ele>
        <time>2019-11-01T15:42:53Z</time>
      </trkpt>
      <trkpt lat="38.4634680" lon="-2.4366590">
        <ele>1091.3</ele>
        <time>2019-11-01T15:42:55Z</time>
      </trkpt>
      <trkpt lat="38.4635260" lon="-2.4366160">
        <ele>1091.3</ele>
        <time>2019-11-01T15:42:57Z</time>
      </trkpt>
      <trkpt lat="38.4635880" lon="-2.4365690">
        <ele>1091.3</ele>
        <time>2019-11-01T15:42:59Z</time>
      </trkpt>
      <trkpt lat="38.4636470" lon="-2.4365200">
        <ele>1091.3</ele>
        <time>2019-11-01T15:43:01Z</time>
      </trkpt>
      <trkpt lat="38.4637080" lon="-2.4364830">
        <ele>1091.3</ele>
        <time>2019-11-01T15:43:03Z</time>
      </trkpt>
      <trkpt lat="38.4637670" lon="-2.4364650">
        <ele>1091.3</ele>
        <time>2019-11-01T15:43:05Z</time>
      </trkpt>
      <trkpt lat="38.4638360" lon="-2.4364540">
        <ele>1091.3</ele>
        <time>2019-11-01T15:43:07Z</time>
      </trkpt>
      <trkpt lat="38.4639050" lon="-2.4364450">
        <ele>1091.3</ele>
        <time>2019-11-01T15:43:09Z</time>
      </trkpt>
      <trkpt lat="38.4639690" lon="-2.4364440">
        <ele>1090.1</ele>
        <time>2019-11-01T15:43:11Z</time>
      </trkpt>
      <trkpt lat="38.4640280" lon="-2.4364490">
        <ele>1090.1</ele>
        <time>2019-11-01T15:43:13Z</time>
      </trkpt>
      <trkpt lat="38.4640840" lon="-2.4364550">
        <ele>1090.1</ele>
        <time>2019-11-01T15:43:15Z</time>
      </trkpt>
      <trkpt lat="38.4641410" lon="-2.4364640">
        <ele>1090.1</ele>
        <time>2019-11-01T15:43:17Z</time>
      </trkpt>
      <trkpt lat="38.4642100" lon="-2.4364770">
        <ele>1090.1</ele>
        <time>2019-11-01T15:43:19Z</time>
      </trkpt>
      <trkpt lat="38.4642840" lon="-2.4364950">
        <ele>1090.1</ele>
        <time>2019-11-01T15:43:21Z</time>
      </trkpt>
      <trkpt lat="38.4643640" lon="-2.4365190">
        <ele>1090.1</ele>
        <time>2019-11-01T15:43:23Z</time>
      </trkpt>
      <trkpt lat="38.4644480" lon="-2.4365310">
        <ele>1090.1</ele>
        <time>2019-11-01T15:43:25Z</time>
      </trkpt>
      <trkpt lat="38.4645300" lon="-2.4365210">
        <ele>1090.1</ele>
        <time>2019-11-01T15:43:27Z</time>
      </trkpt>
      <trkpt lat="38.4646070" lon="-2.4365030">
        <ele>1090.1</ele>
        <time>2019-11-01T15:43:29Z</time>
      </trkpt>
      <trkpt lat="38.4646760" lon="-2.4364870">
        <ele>1088.9</ele>
        <time>2019-11-01T15:43:31Z</time>
      </trkpt>
      <trkpt lat="38.4647300" lon="-2.4364710">
        <ele>1088.9</ele>
        <time>2019-11-01T15:43:33Z</time>
      </trkpt>
      <trkpt lat="38.4647910" lon="-2.4364500">
        <ele>1088.9</ele>
        <time>2019-11-01T15:43:36Z</time>
      </trkpt>
      <trkpt lat="38.4648400" lon="-2.4364270">
        <ele>1088.9</ele>
        <time>2019-11-01T15:43:39Z</time>
      </trkpt>
      <trkpt lat="38.4648960" lon="-2.4364050">
        <ele>1087.7</ele>
        <time>2019-11-01T15:43:42Z</time>
      </trkpt>
      <trkpt lat="38.4649570" lon="-2.4363680">
        <ele>1087.7</ele>
        <time>2019-11-01T15:43:45Z</time>
      </trkpt>
      <trkpt lat="38.4650090" lon="-2.4363420">
        <ele>1087.7</ele>
        <time>2019-11-01T15:43:47Z</time>
      </trkpt>
      <trkpt lat="38.4650650" lon="-2.4363020">
        <ele>1087.7</ele>
        <time>2019-11-01T15:43:49Z</time>
      </trkpt>
      <trkpt lat="38.4651260" lon="-2.4362480">
        <ele>1087.7</ele>
        <time>2019-11-01T15:43:51Z</time>
      </trkpt>
      <trkpt lat="38.4651880" lon="-2.4361850">
        <ele>1087.7</ele>
        <time>2019-11-01T15:43:53Z</time>
      </trkpt>
      <trkpt lat="38.4652440" lon="-2.4361100">
        <ele>1087.7</ele>
        <time>2019-11-01T15:43:55Z</time>
      </trkpt>
      <trkpt lat="38.4653000" lon="-2.4360360">
        <ele>1087.7</ele>
        <time>2019-11-01T15:43:57Z</time>
      </trkpt>
      <trkpt lat="38.4653540" lon="-2.4359620">
        <ele>1087.7</ele>
        <time>2019-11-01T15:43:59Z</time>
      </trkpt>
      <trkpt lat="38.4654460" lon="-2.4358490">
        <ele>1087.7</ele>
        <time>2019-11-01T15:44:02Z</time>
      </trkpt>
      <trkpt lat="38.4655030" lon="-2.4357890">
        <ele>1087.7</ele>
        <time>2019-11-01T15:44:04Z</time>
      </trkpt>
      <trkpt lat="38.4655640" lon="-2.4357470">
        <ele>1087.7</ele>
        <time>2019-11-01T15:44:06Z</time>
      </trkpt>
      <trkpt lat="38.4656180" lon="-2.4357090">
        <ele>1087.7</ele>
        <time>2019-11-01T15:44:08Z</time>
      </trkpt>
      <trkpt lat="38.4656720" lon="-2.4356720">
        <ele>1087.7</ele>
        <time>2019-11-01T15:44:10Z</time>
      </trkpt>
      <trkpt lat="38.4657200" lon="-2.4356330">
        <ele>1087.7</ele>
        <time>2019-11-01T15:44:12Z</time>
      </trkpt>
      <trkpt lat="38.4657640" lon="-2.4355940">
        <ele>1087.7</ele>
        <time>2019-11-01T15:44:14Z</time>
      </trkpt>
      <trkpt lat="38.4658100" lon="-2.4355550">
        <ele>1087.7</ele>
        <time>2019-11-01T15:44:16Z</time>
      </trkpt>
      <trkpt lat="38.4658460" lon="-2.4355210">
        <ele>1087.7</ele>
        <time>2019-11-01T15:44:18Z</time>
      </trkpt>
      <trkpt lat="38.4659000" lon="-2.4354760">
        <ele>1087.7</ele>
        <time>2019-11-01T15:44:21Z</time>
      </trkpt>
      <trkpt lat="38.4659510" lon="-2.4354520">
        <ele>1087.7</ele>
        <time>2019-11-01T15:44:24Z</time>
      </trkpt>
      <trkpt lat="38.4659990" lon="-2.4354410">
        <ele>1089.0</ele>
        <time>2019-11-01T15:44:27Z</time>
      </trkpt>
      <trkpt lat="38.4660560" lon="-2.4354340">
        <ele>1090.3</ele>
        <time>2019-11-01T15:44:30Z</time>
      </trkpt>
      <trkpt lat="38.4661300" lon="-2.4354320">
        <ele>1090.3</ele>
        <time>2019-11-01T15:44:33Z</time>
      </trkpt>
      <trkpt lat="38.4661790" lon="-2.4354390">
        <ele>1090.3</ele>
        <time>2019-11-01T15:44:35Z</time>
      </trkpt>
      <trkpt lat="38.4662550" lon="-2.4354580">
        <ele>1090.3</ele>
        <time>2019-11-01T15:44:38Z</time>
      </trkpt>
      <trkpt lat="38.4663190" lon="-2.4354860">
        <ele>1090.3</ele>
        <time>2019-11-01T15:44:40Z</time>
      </trkpt>
      <trkpt lat="38.4663860" lon="-2.4355150">
        <ele>1090.3</ele>
        <time>2019-11-01T15:44:42Z</time>
      </trkpt>
      <trkpt lat="38.4664500" lon="-2.4355370">
        <ele>1089.1</ele>
        <time>2019-11-01T15:44:44Z</time>
      </trkpt>
      <trkpt lat="38.4665190" lon="-2.4355630">
        <ele>1089.1</ele>
        <time>2019-11-01T15:44:46Z</time>
      </trkpt>
      <trkpt lat="38.4665980" lon="-2.4356000">
        <ele>1087.5</ele>
        <time>2019-11-01T15:44:48Z</time>
      </trkpt>
      <trkpt lat="38.4666750" lon="-2.4356370">
        <ele>1086.2</ele>
        <time>2019-11-01T15:44:50Z</time>
      </trkpt>
      <trkpt lat="38.4667520" lon="-2.4356650">
        <ele>1086.2</ele>
        <time>2019-11-01T15:44:52Z</time>
      </trkpt>
      <trkpt lat="38.4668160" lon="-2.4356790">
        <ele>1084.8</ele>
        <time>2019-11-01T15:44:54Z</time>
      </trkpt>
      <trkpt lat="38.4668620" lon="-2.4356770">
        <ele>1084.8</ele>
        <time>2019-11-01T15:44:56Z</time>
      </trkpt>
      <trkpt lat="38.4669180" lon="-2.4356540">
        <ele>1083.7</ele>
        <time>2019-11-01T15:44:59Z</time>
      </trkpt>
      <trkpt lat="38.4669800" lon="-2.4356060">
        <ele>1083.7</ele>
        <time>2019-11-01T15:45:02Z</time>
      </trkpt>
      <trkpt lat="38.4670180" lon="-2.4355610">
        <ele>1083.7</ele>
        <time>2019-11-01T15:45:04Z</time>
      </trkpt>
      <trkpt lat="38.4670570" lon="-2.4355090">
        <ele>1083.7</ele>
        <time>2019-11-01T15:45:06Z</time>
      </trkpt>
      <trkpt lat="38.4670950" lon="-2.4354580">
        <ele>1083.7</ele>
        <time>2019-11-01T15:45:08Z</time>
      </trkpt>
      <trkpt lat="38.4671410" lon="-2.4354060">
        <ele>1083.7</ele>
        <time>2019-11-01T15:45:10Z</time>
      </trkpt>
      <trkpt lat="38.4671950" lon="-2.4353620">
        <ele>1083.7</ele>
        <time>2019-11-01T15:45:12Z</time>
      </trkpt>
      <trkpt lat="38.4672590" lon="-2.4353260">
        <ele>1083.7</ele>
        <time>2019-11-01T15:45:14Z</time>
      </trkpt>
      <trkpt lat="38.4673200" lon="-2.4352860">
        <ele>1083.7</ele>
        <time>2019-11-01T15:45:16Z</time>
      </trkpt>
      <trkpt lat="38.4673820" lon="-2.4352540">
        <ele>1083.7</ele>
        <time>2019-11-01T15:45:18Z</time>
      </trkpt>
      <trkpt lat="38.4674330" lon="-2.4352310">
        <ele>1083.7</ele>
        <time>2019-11-01T15:45:20Z</time>
      </trkpt>
      <trkpt lat="38.4674840" lon="-2.4352080">
        <ele>1083.7</ele>
        <time>2019-11-01T15:45:22Z</time>
      </trkpt>
      <trkpt lat="38.4675330" lon="-2.4351750">
        <ele>1083.7</ele>
        <time>2019-11-01T15:45:24Z</time>
      </trkpt>
      <trkpt lat="38.4675790" lon="-2.4351240">
        <ele>1083.7</ele>
        <time>2019-11-01T15:45:26Z</time>
      </trkpt>
      <trkpt lat="38.4676170" lon="-2.4350660">
        <ele>1083.7</ele>
        <time>2019-11-01T15:45:28Z</time>
      </trkpt>
      <trkpt lat="38.4676580" lon="-2.4350060">
        <ele>1083.7</ele>
        <time>2019-11-01T15:45:30Z</time>
      </trkpt>
      <trkpt lat="38.4677020" lon="-2.4349450">
        <ele>1083.7</ele>
        <time>2019-11-01T15:45:32Z</time>
      </trkpt>
      <trkpt lat="38.4677480" lon="-2.4348780">
        <ele>1083.7</ele>
        <time>2019-11-01T15:45:34Z</time>
      </trkpt>
      <trkpt lat="38.4677990" lon="-2.4348110">
        <ele>1083.7</ele>
        <time>2019-11-01T15:45:36Z</time>
      </trkpt>
      <trkpt lat="38.4678580" lon="-2.4347520">
        <ele>1083.7</ele>
        <time>2019-11-01T15:45:38Z</time>
      </trkpt>
      <trkpt lat="38.4679220" lon="-2.4346900">
        <ele>1083.7</ele>
        <time>2019-11-01T15:45:40Z</time>
      </trkpt>
      <trkpt lat="38.4679910" lon="-2.4346200">
        <ele>1083.7</ele>
        <time>2019-11-01T15:45:42Z</time>
      </trkpt>
      <trkpt lat="38.4680520" lon="-2.4345430">
        <ele>1082.3</ele>
        <time>2019-11-01T15:45:44Z</time>
      </trkpt>
      <trkpt lat="38.4681060" lon="-2.4344470">
        <ele>1082.3</ele>
        <time>2019-11-01T15:45:46Z</time>
      </trkpt>
      <trkpt lat="38.4681290" lon="-2.4343870">
        <ele>1082.3</ele>
        <time>2019-11-01T15:45:47Z</time>
      </trkpt>
      <trkpt lat="38.4681700" lon="-2.4342820">
        <ele>1082.3</ele>
        <time>2019-11-01T15:45:49Z</time>
      </trkpt>
      <trkpt lat="38.4682190" lon="-2.4341930">
        <ele>1082.3</ele>
        <time>2019-11-01T15:45:51Z</time>
      </trkpt>
      <trkpt lat="38.4682780" lon="-2.4341130">
        <ele>1082.3</ele>
        <time>2019-11-01T15:45:53Z</time>
      </trkpt>
      <trkpt lat="38.4683470" lon="-2.4340440">
        <ele>1081.0</ele>
        <time>2019-11-01T15:45:55Z</time>
      </trkpt>
      <trkpt lat="38.4684210" lon="-2.4339790">
        <ele>1081.0</ele>
        <time>2019-11-01T15:45:57Z</time>
      </trkpt>
      <trkpt lat="38.4684980" lon="-2.4339180">
        <ele>1081.0</ele>
        <time>2019-11-01T15:45:59Z</time>
      </trkpt>
      <trkpt lat="38.4685750" lon="-2.4338630">
        <ele>1081.0</ele>
        <time>2019-11-01T15:46:01Z</time>
      </trkpt>
      <trkpt lat="38.4686540" lon="-2.4338140">
        <ele>1081.0</ele>
        <time>2019-11-01T15:46:03Z</time>
      </trkpt>
      <trkpt lat="38.4687310" lon="-2.4337680">
        <ele>1081.0</ele>
        <time>2019-11-01T15:46:05Z</time>
      </trkpt>
      <trkpt lat="38.4688030" lon="-2.4337220">
        <ele>1081.0</ele>
        <time>2019-11-01T15:46:07Z</time>
      </trkpt>
      <trkpt lat="38.4688770" lon="-2.4336810">
        <ele>1081.0</ele>
        <time>2019-11-01T15:46:09Z</time>
      </trkpt>
      <trkpt lat="38.4689480" lon="-2.4336480">
        <ele>1081.0</ele>
        <time>2019-11-01T15:46:11Z</time>
      </trkpt>
      <trkpt lat="38.4690250" lon="-2.4336190">
        <ele>1081.0</ele>
        <time>2019-11-01T15:46:13Z</time>
      </trkpt>
      <trkpt lat="38.4690970" lon="-2.4335880">
        <ele>1081.0</ele>
        <time>2019-11-01T15:46:15Z</time>
      </trkpt>
      <trkpt lat="38.4691660" lon="-2.4335500">
        <ele>1081.0</ele>
        <time>2019-11-01T15:46:17Z</time>
      </trkpt>
      <trkpt lat="38.4692200" lon="-2.4335150">
        <ele>1081.0</ele>
        <time>2019-11-01T15:46:19Z</time>
      </trkpt>
      <trkpt lat="38.4692680" lon="-2.4334740">
        <ele>1081.0</ele>
        <time>2019-11-01T15:46:21Z</time>
      </trkpt>
      <trkpt lat="38.4693250" lon="-2.4334170">
        <ele>1081.0</ele>
        <time>2019-11-01T15:46:23Z</time>
      </trkpt>
      <trkpt lat="38.4693860" lon="-2.4333430">
        <ele>1081.0</ele>
        <time>2019-11-01T15:46:25Z</time>
      </trkpt>
      <trkpt lat="38.4694530" lon="-2.4332540">
        <ele>1081.0</ele>
        <time>2019-11-01T15:46:27Z</time>
      </trkpt>
      <trkpt lat="38.4695090" lon="-2.4331540">
        <ele>1081.0</ele>
        <time>2019-11-01T15:46:29Z</time>
      </trkpt>
      <trkpt lat="38.4695550" lon="-2.4330550">
        <ele>1081.0</ele>
        <time>2019-11-01T15:46:31Z</time>
      </trkpt>
      <trkpt lat="38.4695860" lon="-2.4329530">
        <ele>1081.0</ele>
        <time>2019-11-01T15:46:33Z</time>
      </trkpt>
      <trkpt lat="38.4696090" lon="-2.4328540">
        <ele>1081.0</ele>
        <time>2019-11-01T15:46:35Z</time>
      </trkpt>
      <trkpt lat="38.4696120" lon="-2.4327570">
        <ele>1081.0</ele>
        <time>2019-11-01T15:46:37Z</time>
      </trkpt>
      <trkpt lat="38.4696120" lon="-2.4326670">
        <ele>1081.0</ele>
        <time>2019-11-01T15:46:39Z</time>
      </trkpt>
      <trkpt lat="38.4696090" lon="-2.4325990">
        <ele>1081.0</ele>
        <time>2019-11-01T15:46:41Z</time>
      </trkpt>
      <trkpt lat="38.4697500" lon="-2.4323860">
        <ele>1081.0</ele>
        <time>2019-11-01T15:47:55Z</time>
      </trkpt>
      <trkpt lat="38.4697500" lon="-2.4323050">
        <ele>1081.0</ele>
        <time>2019-11-01T15:48:00Z</time>
      </trkpt>
      <trkpt lat="38.4697650" lon="-2.4322380">
        <ele>1081.0</ele>
        <time>2019-11-01T15:48:03Z</time>
      </trkpt>
      <trkpt lat="38.4697880" lon="-2.4321440">
        <ele>1081.0</ele>
        <time>2019-11-01T15:48:06Z</time>
      </trkpt>
      <trkpt lat="38.4697980" lon="-2.4320680">
        <ele>1082.2</ele>
        <time>2019-11-01T15:48:08Z</time>
      </trkpt>
      <trkpt lat="38.4697980" lon="-2.4319920">
        <ele>1082.2</ele>
        <time>2019-11-01T15:48:10Z</time>
      </trkpt>
      <trkpt lat="38.4698040" lon="-2.4319130">
        <ele>1082.2</ele>
        <time>2019-11-01T15:48:12Z</time>
      </trkpt>
      <trkpt lat="38.4698060" lon="-2.4318330">
        <ele>1082.2</ele>
        <time>2019-11-01T15:48:14Z</time>
      </trkpt>
      <trkpt lat="38.4698110" lon="-2.4317480">
        <ele>1082.2</ele>
        <time>2019-11-01T15:48:16Z</time>
      </trkpt>
      <trkpt lat="38.4698110" lon="-2.4316630">
        <ele>1082.2</ele>
        <time>2019-11-01T15:48:18Z</time>
      </trkpt>
      <trkpt lat="38.4698110" lon="-2.4315820">
        <ele>1082.2</ele>
        <time>2019-11-01T15:48:20Z</time>
      </trkpt>
      <trkpt lat="38.4698190" lon="-2.4314980">
        <ele>1082.2</ele>
        <time>2019-11-01T15:48:22Z</time>
      </trkpt>
      <trkpt lat="38.4698270" lon="-2.4314130">
        <ele>1082.2</ele>
        <time>2019-11-01T15:48:24Z</time>
      </trkpt>
      <trkpt lat="38.4698420" lon="-2.4313340">
        <ele>1082.2</ele>
        <time>2019-11-01T15:48:26Z</time>
      </trkpt>
      <trkpt lat="38.4698650" lon="-2.4312620">
        <ele>1082.2</ele>
        <time>2019-11-01T15:48:28Z</time>
      </trkpt>
      <trkpt lat="38.4698910" lon="-2.4312020">
        <ele>1082.2</ele>
        <time>2019-11-01T15:48:30Z</time>
      </trkpt>
      <trkpt lat="38.4699140" lon="-2.4311370">
        <ele>1082.2</ele>
        <time>2019-11-01T15:48:32Z</time>
      </trkpt>
      <trkpt lat="38.4699440" lon="-2.4310670">
        <ele>1082.2</ele>
        <time>2019-11-01T15:48:34Z</time>
      </trkpt>
      <trkpt lat="38.4699780" lon="-2.4309980">
        <ele>1082.2</ele>
        <time>2019-11-01T15:48:36Z</time>
      </trkpt>
      <trkpt lat="38.4700130" lon="-2.4309280">
        <ele>1082.2</ele>
        <time>2019-11-01T15:48:38Z</time>
      </trkpt>
      <trkpt lat="38.4700600" lon="-2.4308550">
        <ele>1082.2</ele>
        <time>2019-11-01T15:48:40Z</time>
      </trkpt>
      <trkpt lat="38.4701080" lon="-2.4307800">
        <ele>1082.2</ele>
        <time>2019-11-01T15:48:42Z</time>
      </trkpt>
      <trkpt lat="38.4701640" lon="-2.4307050">
        <ele>1082.2</ele>
        <time>2019-11-01T15:48:44Z</time>
      </trkpt>
      <trkpt lat="38.4702260" lon="-2.4306330">
        <ele>1082.2</ele>
        <time>2019-11-01T15:48:46Z</time>
      </trkpt>
      <trkpt lat="38.4702870" lon="-2.4305590">
        <ele>1082.2</ele>
        <time>2019-11-01T15:48:48Z</time>
      </trkpt>
      <trkpt lat="38.4703490" lon="-2.4304890">
        <ele>1082.2</ele>
        <time>2019-11-01T15:48:50Z</time>
      </trkpt>
      <trkpt lat="38.4704330" lon="-2.4303780">
        <ele>1082.2</ele>
        <time>2019-11-01T15:48:53Z</time>
      </trkpt>
      <trkpt lat="38.4704770" lon="-2.4302980">
        <ele>1082.2</ele>
        <time>2019-11-01T15:48:55Z</time>
      </trkpt>
      <trkpt lat="38.4705150" lon="-2.4302130">
        <ele>1082.2</ele>
        <time>2019-11-01T15:48:57Z</time>
      </trkpt>
      <trkpt lat="38.4705590" lon="-2.4301220">
        <ele>1082.2</ele>
        <time>2019-11-01T15:48:59Z</time>
      </trkpt>
      <trkpt lat="38.4706000" lon="-2.4300320">
        <ele>1082.2</ele>
        <time>2019-11-01T15:49:01Z</time>
      </trkpt>
      <trkpt lat="38.4706430" lon="-2.4299380">
        <ele>1082.2</ele>
        <time>2019-11-01T15:49:03Z</time>
      </trkpt>
      <trkpt lat="38.4706790" lon="-2.4298410">
        <ele>1082.2</ele>
        <time>2019-11-01T15:49:05Z</time>
      </trkpt>
      <trkpt lat="38.4707150" lon="-2.4297560">
        <ele>1082.2</ele>
        <time>2019-11-01T15:49:07Z</time>
      </trkpt>
      <trkpt lat="38.4707380" lon="-2.4296710">
        <ele>1082.2</ele>
        <time>2019-11-01T15:49:09Z</time>
      </trkpt>
      <trkpt lat="38.4707530" lon="-2.4295880">
        <ele>1083.6</ele>
        <time>2019-11-01T15:49:11Z</time>
      </trkpt>
      <trkpt lat="38.4707690" lon="-2.4295120">
        <ele>1083.6</ele>
        <time>2019-11-01T15:49:13Z</time>
      </trkpt>
      <trkpt lat="38.4707790" lon="-2.4294360">
        <ele>1083.6</ele>
        <time>2019-11-01T15:49:15Z</time>
      </trkpt>
      <trkpt lat="38.4707840" lon="-2.4293630">
        <ele>1083.6</ele>
        <time>2019-11-01T15:49:17Z</time>
      </trkpt>
      <trkpt lat="38.4707920" lon="-2.4292930">
        <ele>1083.6</ele>
        <time>2019-11-01T15:49:19Z</time>
      </trkpt>
      <trkpt lat="38.4708100" lon="-2.4292260">
        <ele>1083.6</ele>
        <time>2019-11-01T15:49:21Z</time>
      </trkpt>
      <trkpt lat="38.4708300" lon="-2.4291600">
        <ele>1084.7</ele>
        <time>2019-11-01T15:49:23Z</time>
      </trkpt>
      <trkpt lat="38.4708480" lon="-2.4290910">
        <ele>1084.7</ele>
        <time>2019-11-01T15:49:25Z</time>
      </trkpt>
      <trkpt lat="38.4708660" lon="-2.4290230">
        <ele>1084.7</ele>
        <time>2019-11-01T15:49:27Z</time>
      </trkpt>
      <trkpt lat="38.4708810" lon="-2.4289520">
        <ele>1084.7</ele>
        <time>2019-11-01T15:49:29Z</time>
      </trkpt>
      <trkpt lat="38.4708970" lon="-2.4288760">
        <ele>1084.7</ele>
        <time>2019-11-01T15:49:31Z</time>
      </trkpt>
      <trkpt lat="38.4709120" lon="-2.4288050">
        <ele>1084.7</ele>
        <time>2019-11-01T15:49:33Z</time>
      </trkpt>
      <trkpt lat="38.4709200" lon="-2.4287420">
        <ele>1084.7</ele>
        <time>2019-11-01T15:49:35Z</time>
      </trkpt>
      <trkpt lat="38.4709320" lon="-2.4286530">
        <ele>1085.9</ele>
        <time>2019-11-01T15:49:38Z</time>
      </trkpt>
      <trkpt lat="38.4709580" lon="-2.4285750">
        <ele>1085.9</ele>
        <time>2019-11-01T15:49:41Z</time>
      </trkpt>
      <trkpt lat="38.4710040" lon="-2.4285120">
        <ele>1085.9</ele>
        <time>2019-11-01T15:49:44Z</time>
      </trkpt>
      <trkpt lat="38.4710680" lon="-2.4284610">
        <ele>1085.9</ele>
        <time>2019-11-01T15:49:47Z</time>
      </trkpt>
      <trkpt lat="38.4711140" lon="-2.4284180">
        <ele>1085.9</ele>
        <time>2019-11-01T15:49:49Z</time>
      </trkpt>
      <trkpt lat="38.4711500" lon="-2.4283720">
        <ele>1085.9</ele>
        <time>2019-11-01T15:49:51Z</time>
      </trkpt>
      <trkpt lat="38.4711830" lon="-2.4282940">
        <ele>1085.9</ele>
        <time>2019-11-01T15:49:54Z</time>
      </trkpt>
      <trkpt lat="38.4712190" lon="-2.4282000">
        <ele>1085.9</ele>
        <time>2019-11-01T15:49:57Z</time>
      </trkpt>
      <trkpt lat="38.4712450" lon="-2.4281400">
        <ele>1084.7</ele>
        <time>2019-11-01T15:49:59Z</time>
      </trkpt>
      <trkpt lat="38.4712780" lon="-2.4280830">
        <ele>1084.7</ele>
        <time>2019-11-01T15:50:01Z</time>
      </trkpt>
      <trkpt lat="38.4713240" lon="-2.4280390">
        <ele>1084.7</ele>
        <time>2019-11-01T15:50:03Z</time>
      </trkpt>
      <trkpt lat="38.4713930" lon="-2.4279950">
        <ele>1084.7</ele>
        <time>2019-11-01T15:50:05Z</time>
      </trkpt>
      <trkpt lat="38.4714650" lon="-2.4279460">
        <ele>1084.7</ele>
        <time>2019-11-01T15:50:07Z</time>
      </trkpt>
      <trkpt lat="38.4715390" lon="-2.4278940">
        <ele>1083.5</ele>
        <time>2019-11-01T15:50:09Z</time>
      </trkpt>
      <trkpt lat="38.4716080" lon="-2.4278390">
        <ele>1083.5</ele>
        <time>2019-11-01T15:50:11Z</time>
      </trkpt>
      <trkpt lat="38.4716800" lon="-2.4277850">
        <ele>1083.5</ele>
        <time>2019-11-01T15:50:13Z</time>
      </trkpt>
      <trkpt lat="38.4717490" lon="-2.4277340">
        <ele>1083.5</ele>
        <time>2019-11-01T15:50:15Z</time>
      </trkpt>
      <trkpt lat="38.4718310" lon="-2.4276840">
        <ele>1083.5</ele>
        <time>2019-11-01T15:50:17Z</time>
      </trkpt>
      <trkpt lat="38.4719160" lon="-2.4276420">
        <ele>1082.3</ele>
        <time>2019-11-01T15:50:19Z</time>
      </trkpt>
      <trkpt lat="38.4720000" lon="-2.4276140">
        <ele>1082.3</ele>
        <time>2019-11-01T15:50:21Z</time>
      </trkpt>
      <trkpt lat="38.4720720" lon="-2.4275930">
        <ele>1082.3</ele>
        <time>2019-11-01T15:50:23Z</time>
      </trkpt>
      <trkpt lat="38.4721460" lon="-2.4275770">
        <ele>1082.3</ele>
        <time>2019-11-01T15:50:25Z</time>
      </trkpt>
      <trkpt lat="38.4722100" lon="-2.4275620">
        <ele>1082.3</ele>
        <time>2019-11-01T15:50:27Z</time>
      </trkpt>
      <trkpt lat="38.4722870" lon="-2.4275410">
        <ele>1081.1</ele>
        <time>2019-11-01T15:50:29Z</time>
      </trkpt>
      <trkpt lat="38.4723710" lon="-2.4275120">
        <ele>1081.1</ele>
        <time>2019-11-01T15:50:31Z</time>
      </trkpt>
      <trkpt lat="38.4724380" lon="-2.4274870">
        <ele>1081.1</ele>
        <time>2019-11-01T15:50:33Z</time>
      </trkpt>
      <trkpt lat="38.4724890" lon="-2.4274720">
        <ele>1079.8</ele>
        <time>2019-11-01T15:50:35Z</time>
      </trkpt>
      <trkpt lat="38.4727960" lon="-2.4273730">
        <ele>1079.8</ele>
        <time>2019-11-01T15:52:19Z</time>
      </trkpt>
      <trkpt lat="38.4728550" lon="-2.4273260">
        <ele>1079.8</ele>
        <time>2019-11-01T15:52:23Z</time>
      </trkpt>
      <trkpt lat="38.4729090" lon="-2.4272670">
        <ele>1078.5</ele>
        <time>2019-11-01T15:52:26Z</time>
      </trkpt>
      <trkpt lat="38.4729420" lon="-2.4272190">
        <ele>1078.5</ele>
        <time>2019-11-01T15:52:28Z</time>
      </trkpt>
      <trkpt lat="38.4729730" lon="-2.4271550">
        <ele>1078.5</ele>
        <time>2019-11-01T15:52:30Z</time>
      </trkpt>
      <trkpt lat="38.4729980" lon="-2.4270830">
        <ele>1078.5</ele>
        <time>2019-11-01T15:52:32Z</time>
      </trkpt>
      <trkpt lat="38.4730140" lon="-2.4269960">
        <ele>1078.5</ele>
        <time>2019-11-01T15:52:34Z</time>
      </trkpt>
      <trkpt lat="38.4730210" lon="-2.4269030">
        <ele>1078.5</ele>
        <time>2019-11-01T15:52:36Z</time>
      </trkpt>
      <trkpt lat="38.4730340" lon="-2.4268090">
        <ele>1078.5</ele>
        <time>2019-11-01T15:52:38Z</time>
      </trkpt>
      <trkpt lat="38.4730440" lon="-2.4267210">
        <ele>1078.5</ele>
        <time>2019-11-01T15:52:40Z</time>
      </trkpt>
      <trkpt lat="38.4730600" lon="-2.4266180">
        <ele>1078.5</ele>
        <time>2019-11-01T15:52:42Z</time>
      </trkpt>
      <trkpt lat="38.4730730" lon="-2.4265150">
        <ele>1078.5</ele>
        <time>2019-11-01T15:52:44Z</time>
      </trkpt>
      <trkpt lat="38.4730910" lon="-2.4264190">
        <ele>1078.5</ele>
        <time>2019-11-01T15:52:46Z</time>
      </trkpt>
      <trkpt lat="38.4731190" lon="-2.4263290">
        <ele>1078.5</ele>
        <time>2019-11-01T15:52:48Z</time>
      </trkpt>
      <trkpt lat="38.4731440" lon="-2.4262370">
        <ele>1078.5</ele>
        <time>2019-11-01T15:52:50Z</time>
      </trkpt>
      <trkpt lat="38.4731780" lon="-2.4261480">
        <ele>1078.5</ele>
        <time>2019-11-01T15:52:52Z</time>
      </trkpt>
      <trkpt lat="38.4732290" lon="-2.4260540">
        <ele>1078.5</ele>
        <time>2019-11-01T15:52:54Z</time>
      </trkpt>
      <trkpt lat="38.4732900" lon="-2.4259460">
        <ele>1078.5</ele>
        <time>2019-11-01T15:52:56Z</time>
      </trkpt>
      <trkpt lat="38.4733210" lon="-2.4258870">
        <ele>1078.5</ele>
        <time>2019-11-01T15:52:57Z</time>
      </trkpt>
      <trkpt lat="38.4733470" lon="-2.4258250">
        <ele>1078.5</ele>
        <time>2019-11-01T15:52:58Z</time>
      </trkpt>
      <trkpt lat="38.4733720" lon="-2.4257600">
        <ele>1078.5</ele>
        <time>2019-11-01T15:52:59Z</time>
      </trkpt>
      <trkpt lat="38.4734000" lon="-2.4256970">
        <ele>1078.5</ele>
        <time>2019-11-01T15:53:00Z</time>
      </trkpt>
      <trkpt lat="38.4734260" lon="-2.4256350">
        <ele>1078.5</ele>
        <time>2019-11-01T15:53:01Z</time>
      </trkpt>
      <trkpt lat="38.4734540" lon="-2.4255750">
        <ele>1078.5</ele>
        <time>2019-11-01T15:53:02Z</time>
      </trkpt>
      <trkpt lat="38.4734800" lon="-2.4255170">
        <ele>1078.5</ele>
        <time>2019-11-01T15:53:03Z</time>
      </trkpt>
      <trkpt lat="38.4735030" lon="-2.4254620">
        <ele>1078.5</ele>
        <time>2019-11-01T15:53:04Z</time>
      </trkpt>
      <trkpt lat="38.4735490" lon="-2.4253570">
        <ele>1078.5</ele>
        <time>2019-11-01T15:53:06Z</time>
      </trkpt>
      <trkpt lat="38.4735720" lon="-2.4253080">
        <ele>1078.5</ele>
        <time>2019-11-01T15:53:07Z</time>
      </trkpt>
      <trkpt lat="38.4736260" lon="-2.4252110">
        <ele>1078.5</ele>
        <time>2019-11-01T15:53:09Z</time>
      </trkpt>
      <trkpt lat="38.4736740" lon="-2.4251150">
        <ele>1078.5</ele>
        <time>2019-11-01T15:53:11Z</time>
      </trkpt>
      <trkpt lat="38.4737280" lon="-2.4250180">
        <ele>1078.5</ele>
        <time>2019-11-01T15:53:13Z</time>
      </trkpt>
      <trkpt lat="38.4737820" lon="-2.4249260">
        <ele>1078.5</ele>
        <time>2019-11-01T15:53:15Z</time>
      </trkpt>
      <trkpt lat="38.4738380" lon="-2.4248340">
        <ele>1078.5</ele>
        <time>2019-11-01T15:53:17Z</time>
      </trkpt>
      <trkpt lat="38.4739050" lon="-2.4247430">
        <ele>1078.5</ele>
        <time>2019-11-01T15:53:19Z</time>
      </trkpt>
      <trkpt lat="38.4739760" lon="-2.4246580">
        <ele>1078.5</ele>
        <time>2019-11-01T15:53:21Z</time>
      </trkpt>
      <trkpt lat="38.4740480" lon="-2.4245800">
        <ele>1078.5</ele>
        <time>2019-11-01T15:53:23Z</time>
      </trkpt>
      <trkpt lat="38.4740860" lon="-2.4245370">
        <ele>1078.5</ele>
        <time>2019-11-01T15:53:24Z</time>
      </trkpt>
      <trkpt lat="38.4741580" lon="-2.4244430">
        <ele>1078.5</ele>
        <time>2019-11-01T15:53:26Z</time>
      </trkpt>
      <trkpt lat="38.4741940" lon="-2.4243970">
        <ele>1078.5</ele>
        <time>2019-11-01T15:53:27Z</time>
      </trkpt>
      <trkpt lat="38.4742250" lon="-2.4243450">
        <ele>1078.5</ele>
        <time>2019-11-01T15:53:28Z</time>
      </trkpt>
      <trkpt lat="38.4742810" lon="-2.4242330">
        <ele>1078.5</ele>
        <time>2019-11-01T15:53:30Z</time>
      </trkpt>
      <trkpt lat="38.4743040" lon="-2.4241840">
        <ele>1078.5</ele>
        <time>2019-11-01T15:53:31Z</time>
      </trkpt>
      <trkpt lat="38.4743530" lon="-2.4240750">
        <ele>1078.5</ele>
        <time>2019-11-01T15:53:33Z</time>
      </trkpt>
      <trkpt lat="38.4743730" lon="-2.4240140">
        <ele>1078.5</ele>
        <time>2019-11-01T15:53:34Z</time>
      </trkpt>
      <trkpt lat="38.4743960" lon="-2.4239570">
        <ele>1078.5</ele>
        <time>2019-11-01T15:53:35Z</time>
      </trkpt>
      <trkpt lat="38.4744370" lon="-2.4238360">
        <ele>1078.5</ele>
        <time>2019-11-01T15:53:37Z</time>
      </trkpt>
      <trkpt lat="38.4744580" lon="-2.4237820">
        <ele>1078.5</ele>
        <time>2019-11-01T15:53:38Z</time>
      </trkpt>
      <trkpt lat="38.4744880" lon="-2.4236690">
        <ele>1078.5</ele>
        <time>2019-11-01T15:53:40Z</time>
      </trkpt>
      <trkpt lat="38.4745060" lon="-2.4235640">
        <ele>1078.5</ele>
        <time>2019-11-01T15:53:42Z</time>
      </trkpt>
      <trkpt lat="38.4745270" lon="-2.4234590">
        <ele>1078.5</ele>
        <time>2019-11-01T15:53:44Z</time>
      </trkpt>
      <trkpt lat="38.4745600" lon="-2.4233580">
        <ele>1079.7</ele>
        <time>2019-11-01T15:53:46Z</time>
      </trkpt>
      <trkpt lat="38.4746010" lon="-2.4232610">
        <ele>1079.7</ele>
        <time>2019-11-01T15:53:48Z</time>
      </trkpt>
      <trkpt lat="38.4746440" lon="-2.4231720">
        <ele>1079.7</ele>
        <time>2019-11-01T15:53:50Z</time>
      </trkpt>
      <trkpt lat="38.4746830" lon="-2.4230750">
        <ele>1079.7</ele>
        <time>2019-11-01T15:53:52Z</time>
      </trkpt>
      <trkpt lat="38.4747160" lon="-2.4229790">
        <ele>1079.7</ele>
        <time>2019-11-01T15:53:54Z</time>
      </trkpt>
      <trkpt lat="38.4747490" lon="-2.4228810">
        <ele>1079.7</ele>
        <time>2019-11-01T15:53:56Z</time>
      </trkpt>
      <trkpt lat="38.4747960" lon="-2.4227780">
        <ele>1079.7</ele>
        <time>2019-11-01T15:53:58Z</time>
      </trkpt>
      <trkpt lat="38.4748390" lon="-2.4226680">
        <ele>1079.7</ele>
        <time>2019-11-01T15:54:00Z</time>
      </trkpt>
      <trkpt lat="38.4748620" lon="-2.4226090">
        <ele>1079.7</ele>
        <time>2019-11-01T15:54:01Z</time>
      </trkpt>
      <trkpt lat="38.4748950" lon="-2.4224870">
        <ele>1079.7</ele>
        <time>2019-11-01T15:54:03Z</time>
      </trkpt>
      <trkpt lat="38.4749130" lon="-2.4224200">
        <ele>1079.7</ele>
        <time>2019-11-01T15:54:04Z</time>
      </trkpt>
      <trkpt lat="38.4749290" lon="-2.4223550">
        <ele>1078.6</ele>
        <time>2019-11-01T15:54:05Z</time>
      </trkpt>
      <trkpt lat="38.4749360" lon="-2.4222870">
        <ele>1078.6</ele>
        <time>2019-11-01T15:54:06Z</time>
      </trkpt>
      <trkpt lat="38.4749410" lon="-2.4222130">
        <ele>1078.6</ele>
        <time>2019-11-01T15:54:07Z</time>
      </trkpt>
      <trkpt lat="38.4749360" lon="-2.4221430">
        <ele>1078.6</ele>
        <time>2019-11-01T15:54:08Z</time>
      </trkpt>
      <trkpt lat="38.4749290" lon="-2.4220720">
        <ele>1077.3</ele>
        <time>2019-11-01T15:54:09Z</time>
      </trkpt>
      <trkpt lat="38.4749260" lon="-2.4219950">
        <ele>1077.3</ele>
        <time>2019-11-01T15:54:10Z</time>
      </trkpt>
      <trkpt lat="38.4749130" lon="-2.4219260">
        <ele>1077.3</ele>
        <time>2019-11-01T15:54:11Z</time>
      </trkpt>
      <trkpt lat="38.4749110" lon="-2.4218580">
        <ele>1077.3</ele>
        <time>2019-11-01T15:54:12Z</time>
      </trkpt>
      <trkpt lat="38.4749080" lon="-2.4217890">
        <ele>1077.3</ele>
        <time>2019-11-01T15:54:13Z</time>
      </trkpt>
      <trkpt lat="38.4749080" lon="-2.4217210">
        <ele>1077.3</ele>
        <time>2019-11-01T15:54:14Z</time>
      </trkpt>
      <trkpt lat="38.4749110" lon="-2.4216510">
        <ele>1077.3</ele>
        <time>2019-11-01T15:54:15Z</time>
      </trkpt>
      <trkpt lat="38.4749130" lon="-2.4215830">
        <ele>1077.3</ele>
        <time>2019-11-01T15:54:16Z</time>
      </trkpt>
      <trkpt lat="38.4749180" lon="-2.4215100">
        <ele>1077.3</ele>
        <time>2019-11-01T15:54:17Z</time>
      </trkpt>
      <trkpt lat="38.4749260" lon="-2.4214290">
        <ele>1075.9</ele>
        <time>2019-11-01T15:54:18Z</time>
      </trkpt>
      <trkpt lat="38.4749360" lon="-2.4213510">
        <ele>1075.9</ele>
        <time>2019-11-01T15:54:19Z</time>
      </trkpt>
      <trkpt lat="38.4749440" lon="-2.4212640">
        <ele>1075.9</ele>
        <time>2019-11-01T15:54:20Z</time>
      </trkpt>
      <trkpt lat="38.4749520" lon="-2.4211770">
        <ele>1075.9</ele>
        <time>2019-11-01T15:54:21Z</time>
      </trkpt>
      <trkpt lat="38.4749570" lon="-2.4210910">
        <ele>1075.9</ele>
        <time>2019-11-01T15:54:22Z</time>
      </trkpt>
      <trkpt lat="38.4749590" lon="-2.4210030">
        <ele>1074.5</ele>
        <time>2019-11-01T15:54:23Z</time>
      </trkpt>
      <trkpt lat="38.4749640" lon="-2.4209160">
        <ele>1074.5</ele>
        <time>2019-11-01T15:54:24Z</time>
      </trkpt>
      <trkpt lat="38.4749720" lon="-2.4208280">
        <ele>1074.5</ele>
        <time>2019-11-01T15:54:25Z</time>
      </trkpt>
      <trkpt lat="38.4749800" lon="-2.4207570">
        <ele>1074.5</ele>
        <time>2019-11-01T15:54:26Z</time>
      </trkpt>
      <trkpt lat="38.4749820" lon="-2.4206890">
        <ele>1074.5</ele>
        <time>2019-11-01T15:54:27Z</time>
      </trkpt>
      <trkpt lat="38.4749820" lon="-2.4206300">
        <ele>1073.2</ele>
        <time>2019-11-01T15:54:28Z</time>
      </trkpt>
      <trkpt lat="38.4749800" lon="-2.4205820">
        <ele>1073.2</ele>
        <time>2019-11-01T15:54:29Z</time>
      </trkpt>
      <trkpt lat="38.4749720" lon="-2.4205140">
        <ele>1073.2</ele>
        <time>2019-11-01T15:54:31Z</time>
      </trkpt>
      <trkpt lat="38.4749590" lon="-2.4204660">
        <ele>1073.2</ele>
        <time>2019-11-01T15:54:34Z</time>
      </trkpt>
      <trkpt lat="38.4751030" lon="-2.4204040">
        <ele>1073.2</ele>
        <time>2019-11-01T15:55:53Z</time>
      </trkpt>
      <trkpt lat="38.4751360" lon="-2.4203320">
        <ele>1073.2</ele>
        <time>2019-11-01T15:57:38Z</time>
      </trkpt>
      <trkpt lat="38.4751130" lon="-2.4202760">
        <ele>1073.2</ele>
        <time>2019-11-01T15:57:47Z</time>
      </trkpt>
      <trkpt lat="38.4750870" lon="-2.4201470">
        <ele>1073.2</ele>
        <time>2019-11-01T15:58:09Z</time>
      </trkpt>
      <trkpt lat="38.4750720" lon="-2.4198520">
        <ele>1069.1</ele>
        <time>2019-11-01T15:58:48Z</time>
      </trkpt>
      <trkpt lat="38.4749800" lon="-2.4196750">
        <ele>1070.3</ele>
        <time>2019-11-01T15:59:11Z</time>
      </trkpt>
      <trkpt lat="38.4749750" lon="-2.4195910">
        <ele>1070.3</ele>
        <time>2019-11-01T15:59:16Z</time>
      </trkpt>
      <trkpt lat="38.4749800" lon="-2.4195240">
        <ele>1070.3</ele>
        <time>2019-11-01T15:59:20Z</time>
      </trkpt>
      <trkpt lat="38.4749800" lon="-2.4194460">
        <ele>1069.0</ele>
        <time>2019-11-01T15:59:24Z</time>
      </trkpt>
      <trkpt lat="38.4749820" lon="-2.4193680">
        <ele>1069.0</ele>
        <time>2019-11-01T15:59:28Z</time>
      </trkpt>
      <trkpt lat="38.4749900" lon="-2.4193190">
        <ele>1067.7</ele>
        <time>2019-11-01T15:59:31Z</time>
      </trkpt>
      <trkpt lat="38.4749980" lon="-2.4192360">
        <ele>1067.7</ele>
        <time>2019-11-01T15:59:36Z</time>
      </trkpt>
      <trkpt lat="38.4749800" lon="-2.4191680">
        <ele>1066.6</ele>
        <time>2019-11-01T15:59:40Z</time>
      </trkpt>
      <trkpt lat="38.4749570" lon="-2.4191040">
        <ele>1066.6</ele>
        <time>2019-11-01T15:59:44Z</time>
      </trkpt>
      <trkpt lat="38.4749260" lon="-2.4190500">
        <ele>1066.6</ele>
        <time>2019-11-01T15:59:49Z</time>
      </trkpt>
      <trkpt lat="38.4748770" lon="-2.4189880">
        <ele>1072.7</ele>
        <time>2019-11-01T16:00:18Z</time>
      </trkpt>
      <trkpt lat="38.4748340" lon="-2.4190870">
        <ele>1076.5</ele>
        <time>2019-11-01T16:00:45Z</time>
      </trkpt>
      <trkpt lat="38.4748650" lon="-2.4191560">
        <ele>1076.5</ele>
        <time>2019-11-01T16:00:50Z</time>
      </trkpt>
      <trkpt lat="38.4748850" lon="-2.4192180">
        <ele>1076.5</ele>
        <time>2019-11-01T16:00:54Z</time>
      </trkpt>
      <trkpt lat="38.4749080" lon="-2.4192760">
        <ele>1076.5</ele>
        <time>2019-11-01T16:00:58Z</time>
      </trkpt>
      <trkpt lat="38.4749290" lon="-2.4193470">
        <ele>1075.2</ele>
        <time>2019-11-01T16:01:03Z</time>
      </trkpt>
      <trkpt lat="38.4749570" lon="-2.4194050">
        <ele>1075.2</ele>
        <time>2019-11-01T16:01:07Z</time>
      </trkpt>
      <trkpt lat="38.4749720" lon="-2.4194770">
        <ele>1075.2</ele>
        <time>2019-11-01T16:01:11Z</time>
      </trkpt>
      <trkpt lat="38.4749800" lon="-2.4195400">
        <ele>1073.9</ele>
        <time>2019-11-01T16:01:14Z</time>
      </trkpt>
      <trkpt lat="38.4749900" lon="-2.4196110">
        <ele>1073.9</ele>
        <time>2019-11-01T16:01:18Z</time>
      </trkpt>
      <trkpt lat="38.4750030" lon="-2.4196760">
        <ele>1072.7</ele>
        <time>2019-11-01T16:01:22Z</time>
      </trkpt>
      <trkpt lat="38.4749950" lon="-2.4197430">
        <ele>1072.7</ele>
        <time>2019-11-01T16:01:26Z</time>
      </trkpt>
      <trkpt lat="38.4750110" lon="-2.4198160">
        <ele>1072.7</ele>
        <time>2019-11-01T16:01:30Z</time>
      </trkpt>
      <trkpt lat="38.4750340" lon="-2.4198740">
        <ele>1072.7</ele>
        <time>2019-11-01T16:01:33Z</time>
      </trkpt>
      <trkpt lat="38.4750590" lon="-2.4199510">
        <ele>1071.5</ele>
        <time>2019-11-01T16:01:37Z</time>
      </trkpt>
      <trkpt lat="38.4750750" lon="-2.4200070">
        <ele>1071.5</ele>
        <time>2019-11-01T16:01:40Z</time>
      </trkpt>
      <trkpt lat="38.4750980" lon="-2.4200790">
        <ele>1071.5</ele>
        <time>2019-11-01T16:01:44Z</time>
      </trkpt>
      <trkpt lat="38.4751230" lon="-2.4201440">
        <ele>1071.5</ele>
        <time>2019-11-01T16:01:48Z</time>
      </trkpt>
      <trkpt lat="38.4751460" lon="-2.4202030">
        <ele>1071.5</ele>
        <time>2019-11-01T16:01:52Z</time>
      </trkpt>
      <trkpt lat="38.4751620" lon="-2.4202580">
        <ele>1071.5</ele>
        <time>2019-11-01T16:01:56Z</time>
      </trkpt>
      <trkpt lat="38.4751920" lon="-2.4203330">
        <ele>1071.5</ele>
        <time>2019-11-01T16:02:02Z</time>
      </trkpt>
      <trkpt lat="38.4752200" lon="-2.4204090">
        <ele>1071.5</ele>
        <time>2019-11-01T16:02:07Z</time>
      </trkpt>
      <trkpt lat="38.4752150" lon="-2.4204790">
        <ele>1071.5</ele>
        <time>2019-11-01T16:02:12Z</time>
      </trkpt>
      <trkpt lat="38.4752280" lon="-2.4205420">
        <ele>1072.7</ele>
        <time>2019-11-01T16:02:16Z</time>
      </trkpt>
      <trkpt lat="38.4752360" lon="-2.4205940">
        <ele>1072.7</ele>
        <time>2019-11-01T16:02:20Z</time>
      </trkpt>
      <trkpt lat="38.4751690" lon="-2.4206020">
        <ele>1072.7</ele>
        <time>2019-11-01T16:04:50Z</time>
      </trkpt>
      <trkpt lat="38.4751510" lon="-2.4205370">
        <ele>1072.7</ele>
        <time>2019-11-01T16:04:56Z</time>
      </trkpt>
      <trkpt lat="38.4751310" lon="-2.4204710">
        <ele>1072.7</ele>
        <time>2019-11-01T16:05:03Z</time>
      </trkpt>
      <trkpt lat="38.4751160" lon="-2.4203960">
        <ele>1072.7</ele>
        <time>2019-11-01T16:05:09Z</time>
      </trkpt>
      <trkpt lat="38.4750900" lon="-2.4203110">
        <ele>1072.7</ele>
        <time>2019-11-01T16:05:12Z</time>
      </trkpt>
      <trkpt lat="38.4750520" lon="-2.4202280">
        <ele>1072.7</ele>
        <time>2019-11-01T16:05:14Z</time>
      </trkpt>
      <trkpt lat="38.4750180" lon="-2.4201390">
        <ele>1071.1</ele>
        <time>2019-11-01T16:05:16Z</time>
      </trkpt>
      <trkpt lat="38.4749900" lon="-2.4200570">
        <ele>1071.1</ele>
        <time>2019-11-01T16:05:18Z</time>
      </trkpt>
      <trkpt lat="38.4749670" lon="-2.4199810">
        <ele>1071.1</ele>
        <time>2019-11-01T16:05:20Z</time>
      </trkpt>
      <trkpt lat="38.4749570" lon="-2.4199050">
        <ele>1071.1</ele>
        <time>2019-11-01T16:05:22Z</time>
      </trkpt>
      <trkpt lat="38.4749490" lon="-2.4198240">
        <ele>1071.1</ele>
        <time>2019-11-01T16:05:24Z</time>
      </trkpt>
      <trkpt lat="38.4749410" lon="-2.4197590">
        <ele>1071.1</ele>
        <time>2019-11-01T16:05:26Z</time>
      </trkpt>
      <trkpt lat="38.4749290" lon="-2.4196950">
        <ele>1072.3</ele>
        <time>2019-11-01T16:05:28Z</time>
      </trkpt>
      <trkpt lat="38.4749210" lon="-2.4196330">
        <ele>1072.3</ele>
        <time>2019-11-01T16:05:30Z</time>
      </trkpt>
      <trkpt lat="38.4749080" lon="-2.4195470">
        <ele>1072.3</ele>
        <time>2019-11-01T16:05:33Z</time>
      </trkpt>
      <trkpt lat="38.4748880" lon="-2.4194740">
        <ele>1073.5</ele>
        <time>2019-11-01T16:05:36Z</time>
      </trkpt>
      <trkpt lat="38.4748720" lon="-2.4194080">
        <ele>1073.5</ele>
        <time>2019-11-01T16:05:39Z</time>
      </trkpt>
      <trkpt lat="38.4748490" lon="-2.4193430">
        <ele>1074.7</ele>
        <time>2019-11-01T16:05:42Z</time>
      </trkpt>
      <trkpt lat="38.4748340" lon="-2.4192760">
        <ele>1074.7</ele>
        <time>2019-11-01T16:05:45Z</time>
      </trkpt>
      <trkpt lat="38.4748110" lon="-2.4192190">
        <ele>1074.7</ele>
        <time>2019-11-01T16:05:48Z</time>
      </trkpt>
      <trkpt lat="38.4747850" lon="-2.4191650">
        <ele>1075.9</ele>
        <time>2019-11-01T16:05:51Z</time>
      </trkpt>
      <trkpt lat="38.4747420" lon="-2.4190990">
        <ele>1075.9</ele>
        <time>2019-11-01T16:05:55Z</time>
      </trkpt>
      <trkpt lat="38.4747080" lon="-2.4190440">
        <ele>1077.2</ele>
        <time>2019-11-01T16:05:58Z</time>
      </trkpt>
      <trkpt lat="38.4746780" lon="-2.4189900">
        <ele>1077.2</ele>
        <time>2019-11-01T16:06:01Z</time>
      </trkpt>
      <trkpt lat="38.4746620" lon="-2.4189280">
        <ele>1078.5</ele>
        <time>2019-11-01T16:06:04Z</time>
      </trkpt>
      <trkpt lat="38.4746620" lon="-2.4188600">
        <ele>1078.5</ele>
        <time>2019-11-01T16:06:07Z</time>
      </trkpt>
      <trkpt lat="38.4746750" lon="-2.4187910">
        <ele>1078.5</ele>
        <time>2019-11-01T16:06:10Z</time>
      </trkpt>
      <trkpt lat="38.4746930" lon="-2.4187200">
        <ele>1078.5</ele>
        <time>2019-11-01T16:06:13Z</time>
      </trkpt>
      <trkpt lat="38.4747260" lon="-2.4186530">
        <ele>1078.5</ele>
        <time>2019-11-01T16:06:16Z</time>
      </trkpt>
      <trkpt lat="38.4747700" lon="-2.4185690">
        <ele>1078.5</ele>
        <time>2019-11-01T16:06:19Z</time>
      </trkpt>
      <trkpt lat="38.4748030" lon="-2.4184900">
        <ele>1078.5</ele>
        <time>2019-11-01T16:06:21Z</time>
      </trkpt>
      <trkpt lat="38.4748240" lon="-2.4183900">
        <ele>1078.5</ele>
        <time>2019-11-01T16:06:23Z</time>
      </trkpt>
      <trkpt lat="38.4748390" lon="-2.4182630">
        <ele>1078.5</ele>
        <time>2019-11-01T16:06:25Z</time>
      </trkpt>
      <trkpt lat="38.4748700" lon="-2.4181310">
        <ele>1077.2</ele>
        <time>2019-11-01T16:06:27Z</time>
      </trkpt>
      <trkpt lat="38.4748950" lon="-2.4180630">
        <ele>1077.2</ele>
        <time>2019-11-01T16:06:28Z</time>
      </trkpt>
      <trkpt lat="38.4749260" lon="-2.4180000">
        <ele>1077.2</ele>
        <time>2019-11-01T16:06:29Z</time>
      </trkpt>
      <trkpt lat="38.4749520" lon="-2.4179400">
        <ele>1075.7</ele>
        <time>2019-11-01T16:06:30Z</time>
      </trkpt>
      <trkpt lat="38.4749820" lon="-2.4178890">
        <ele>1075.7</ele>
        <time>2019-11-01T16:06:31Z</time>
      </trkpt>
      <trkpt lat="38.4750520" lon="-2.4177830">
        <ele>1074.5</ele>
        <time>2019-11-01T16:06:33Z</time>
      </trkpt>
      <trkpt lat="38.4750950" lon="-2.4177270">
        <ele>1074.5</ele>
        <time>2019-11-01T16:06:34Z</time>
      </trkpt>
      <trkpt lat="38.4751360" lon="-2.4176660">
        <ele>1074.5</ele>
        <time>2019-11-01T16:06:35Z</time>
      </trkpt>
      <trkpt lat="38.4751770" lon="-2.4176020">
        <ele>1073.0</ele>
        <time>2019-11-01T16:06:36Z</time>
      </trkpt>
      <trkpt lat="38.4752150" lon="-2.4175340">
        <ele>1073.0</ele>
        <time>2019-11-01T16:06:37Z</time>
      </trkpt>
      <trkpt lat="38.4752540" lon="-2.4174630">
        <ele>1073.0</ele>
        <time>2019-11-01T16:06:38Z</time>
      </trkpt>
      <trkpt lat="38.4752900" lon="-2.4173970">
        <ele>1071.5</ele>
        <time>2019-11-01T16:06:39Z</time>
      </trkpt>
      <trkpt lat="38.4753330" lon="-2.4173300">
        <ele>1071.5</ele>
        <time>2019-11-01T16:06:40Z</time>
      </trkpt>
      <trkpt lat="38.4753770" lon="-2.4172700">
        <ele>1071.5</ele>
        <time>2019-11-01T16:06:41Z</time>
      </trkpt>
      <trkpt lat="38.4754250" lon="-2.4172130">
        <ele>1071.5</ele>
        <time>2019-11-01T16:06:42Z</time>
      </trkpt>
      <trkpt lat="38.4754790" lon="-2.4171600">
        <ele>1070.1</ele>
        <time>2019-11-01T16:06:43Z</time>
      </trkpt>
      <trkpt lat="38.4755350" lon="-2.4171090">
        <ele>1070.1</ele>
        <time>2019-11-01T16:06:44Z</time>
      </trkpt>
      <trkpt lat="38.4755890" lon="-2.4170620">
        <ele>1070.1</ele>
        <time>2019-11-01T16:06:45Z</time>
      </trkpt>
      <trkpt lat="38.4756480" lon="-2.4170080">
        <ele>1070.1</ele>
        <time>2019-11-01T16:06:46Z</time>
      </trkpt>
      <trkpt lat="38.4756990" lon="-2.4169520">
        <ele>1070.1</ele>
        <time>2019-11-01T16:06:47Z</time>
      </trkpt>
      <trkpt lat="38.4757450" lon="-2.4168930">
        <ele>1070.1</ele>
        <time>2019-11-01T16:06:48Z</time>
      </trkpt>
      <trkpt lat="38.4757910" lon="-2.4168350">
        <ele>1068.8</ele>
        <time>2019-11-01T16:06:49Z</time>
      </trkpt>
      <trkpt lat="38.4758350" lon="-2.4167740">
        <ele>1068.8</ele>
        <time>2019-11-01T16:06:50Z</time>
      </trkpt>
      <trkpt lat="38.4758730" lon="-2.4167110">
        <ele>1068.8</ele>
        <time>2019-11-01T16:06:51Z</time>
      </trkpt>
      <trkpt lat="38.4759070" lon="-2.4166440">
        <ele>1068.8</ele>
        <time>2019-11-01T16:06:52Z</time>
      </trkpt>
      <trkpt lat="38.4759320" lon="-2.4165800">
        <ele>1068.8</ele>
        <time>2019-11-01T16:06:53Z</time>
      </trkpt>
      <trkpt lat="38.4759600" lon="-2.4165190">
        <ele>1068.8</ele>
        <time>2019-11-01T16:06:54Z</time>
      </trkpt>
      <trkpt lat="38.4759780" lon="-2.4164610">
        <ele>1068.8</ele>
        <time>2019-11-01T16:06:55Z</time>
      </trkpt>
      <trkpt lat="38.4760140" lon="-2.4163440">
        <ele>1068.8</ele>
        <time>2019-11-01T16:06:57Z</time>
      </trkpt>
      <trkpt lat="38.4760370" lon="-2.4162210">
        <ele>1067.5</ele>
        <time>2019-11-01T16:06:59Z</time>
      </trkpt>
      <trkpt lat="38.4760400" lon="-2.4160980">
        <ele>1067.5</ele>
        <time>2019-11-01T16:07:01Z</time>
      </trkpt>
      <trkpt lat="38.4760290" lon="-2.4159880">
        <ele>1066.3</ele>
        <time>2019-11-01T16:07:03Z</time>
      </trkpt>
      <trkpt lat="38.4760140" lon="-2.4159030">
        <ele>1066.3</ele>
        <time>2019-11-01T16:07:05Z</time>
      </trkpt>
      <trkpt lat="38.4759990" lon="-2.4158320">
        <ele>1065.1</ele>
        <time>2019-11-01T16:07:07Z</time>
      </trkpt>
      <trkpt lat="38.4759990" lon="-2.4157770">
        <ele>1065.1</ele>
        <time>2019-11-01T16:07:09Z</time>
      </trkpt>
      <trkpt lat="38.4760240" lon="-2.4157080">
        <ele>1065.1</ele>
        <time>2019-11-01T16:07:12Z</time>
      </trkpt>
      <trkpt lat="38.4760810" lon="-2.4156560">
        <ele>1065.1</ele>
        <time>2019-11-01T16:07:15Z</time>
      </trkpt>
      <trkpt lat="38.4761470" lon="-2.4156160">
        <ele>1065.1</ele>
        <time>2019-11-01T16:07:18Z</time>
      </trkpt>
      <trkpt lat="38.4762090" lon="-2.4155850">
        <ele>1065.1</ele>
        <time>2019-11-01T16:07:21Z</time>
      </trkpt>
      <trkpt lat="38.4762730" lon="-2.4155590">
        <ele>1065.1</ele>
        <time>2019-11-01T16:07:24Z</time>
      </trkpt>
      <trkpt lat="38.4763340" lon="-2.4155230">
        <ele>1065.1</ele>
        <time>2019-11-01T16:07:27Z</time>
      </trkpt>
      <trkpt lat="38.4763800" lon="-2.4155010">
        <ele>1065.1</ele>
        <time>2019-11-01T16:07:29Z</time>
      </trkpt>
      <trkpt lat="38.4764420" lon="-2.4154580">
        <ele>1065.1</ele>
        <time>2019-11-01T16:07:32Z</time>
      </trkpt>
      <trkpt lat="38.4764930" lon="-2.4154130">
        <ele>1066.3</ele>
        <time>2019-11-01T16:07:35Z</time>
      </trkpt>
      <trkpt lat="38.4765620" lon="-2.4153760">
        <ele>1066.3</ele>
        <time>2019-11-01T16:07:38Z</time>
      </trkpt>
      <trkpt lat="38.4766050" lon="-2.4153520">
        <ele>1066.3</ele>
        <time>2019-11-01T16:07:40Z</time>
      </trkpt>
      <trkpt lat="38.4766720" lon="-2.4153110">
        <ele>1066.3</ele>
        <time>2019-11-01T16:07:43Z</time>
      </trkpt>
      <trkpt lat="38.4767230" lon="-2.4152820">
        <ele>1066.3</ele>
        <time>2019-11-01T16:07:45Z</time>
      </trkpt>
      <trkpt lat="38.4767720" lon="-2.4152550">
        <ele>1066.3</ele>
        <time>2019-11-01T16:07:47Z</time>
      </trkpt>
      <trkpt lat="38.4768310" lon="-2.4152360">
        <ele>1066.3</ele>
        <time>2019-11-01T16:07:49Z</time>
      </trkpt>
      <trkpt lat="38.4768900" lon="-2.4152130">
        <ele>1066.3</ele>
        <time>2019-11-01T16:07:51Z</time>
      </trkpt>
      <trkpt lat="38.4769590" lon="-2.4151950">
        <ele>1064.9</ele>
        <time>2019-11-01T16:07:53Z</time>
      </trkpt>
      <trkpt lat="38.4770380" lon="-2.4151880">
        <ele>1064.9</ele>
        <time>2019-11-01T16:07:55Z</time>
      </trkpt>
      <trkpt lat="38.4771300" lon="-2.4151910">
        <ele>1063.6</ele>
        <time>2019-11-01T16:07:57Z</time>
      </trkpt>
      <trkpt lat="38.4771760" lon="-2.4151930">
        <ele>1063.6</ele>
        <time>2019-11-01T16:07:58Z</time>
      </trkpt>
      <trkpt lat="38.4772680" lon="-2.4151930">
        <ele>1063.6</ele>
        <time>2019-11-01T16:08:00Z</time>
      </trkpt>
      <trkpt lat="38.4773560" lon="-2.4151860">
        <ele>1063.6</ele>
        <time>2019-11-01T16:08:02Z</time>
      </trkpt>
      <trkpt lat="38.4774430" lon="-2.4151710">
        <ele>1063.6</ele>
        <time>2019-11-01T16:08:04Z</time>
      </trkpt>
      <trkpt lat="38.4775240" lon="-2.4151460">
        <ele>1063.6</ele>
        <time>2019-11-01T16:08:06Z</time>
      </trkpt>
      <trkpt lat="38.4776040" lon="-2.4151150">
        <ele>1062.4</ele>
        <time>2019-11-01T16:08:08Z</time>
      </trkpt>
      <trkpt lat="38.4776810" lon="-2.4150720">
        <ele>1062.4</ele>
        <time>2019-11-01T16:08:10Z</time>
      </trkpt>
      <trkpt lat="38.4777520" lon="-2.4150220">
        <ele>1062.4</ele>
        <time>2019-11-01T16:08:12Z</time>
      </trkpt>
      <trkpt lat="38.4778240" lon="-2.4149710">
        <ele>1062.4</ele>
        <time>2019-11-01T16:08:14Z</time>
      </trkpt>
      <trkpt lat="38.4778850" lon="-2.4149160">
        <ele>1062.4</ele>
        <time>2019-11-01T16:08:16Z</time>
      </trkpt>
      <trkpt lat="38.4779390" lon="-2.4148580">
        <ele>1062.4</ele>
        <time>2019-11-01T16:08:18Z</time>
      </trkpt>
      <trkpt lat="38.4779900" lon="-2.4147910">
        <ele>1060.9</ele>
        <time>2019-11-01T16:08:20Z</time>
      </trkpt>
      <trkpt lat="38.4780390" lon="-2.4147150">
        <ele>1060.9</ele>
        <time>2019-11-01T16:08:22Z</time>
      </trkpt>
      <trkpt lat="38.4780800" lon="-2.4146480">
        <ele>1060.9</ele>
        <time>2019-11-01T16:08:24Z</time>
      </trkpt>
      <trkpt lat="38.4781180" lon="-2.4145780">
        <ele>1059.6</ele>
        <time>2019-11-01T16:08:26Z</time>
      </trkpt>
      <trkpt lat="38.4781470" lon="-2.4145120">
        <ele>1059.6</ele>
        <time>2019-11-01T16:08:28Z</time>
      </trkpt>
      <trkpt lat="38.4781640" lon="-2.4144460">
        <ele>1059.6</ele>
        <time>2019-11-01T16:08:30Z</time>
      </trkpt>
      <trkpt lat="38.4781930" lon="-2.4143640">
        <ele>1059.6</ele>
        <time>2019-11-01T16:08:33Z</time>
      </trkpt>
      <trkpt lat="38.4782050" lon="-2.4142830">
        <ele>1059.6</ele>
        <time>2019-11-01T16:08:36Z</time>
      </trkpt>
      <trkpt lat="38.4782260" lon="-2.4142210">
        <ele>1059.6</ele>
        <time>2019-11-01T16:08:39Z</time>
      </trkpt>
      <trkpt lat="38.4782640" lon="-2.4141510">
        <ele>1059.6</ele>
        <time>2019-11-01T16:08:42Z</time>
      </trkpt>
      <trkpt lat="38.4782980" lon="-2.4140680">
        <ele>1059.6</ele>
        <time>2019-11-01T16:08:45Z</time>
      </trkpt>
      <trkpt lat="38.4783210" lon="-2.4140060">
        <ele>1059.6</ele>
        <time>2019-11-01T16:08:47Z</time>
      </trkpt>
      <trkpt lat="38.4783410" lon="-2.4139440">
        <ele>1059.6</ele>
        <time>2019-11-01T16:08:49Z</time>
      </trkpt>
      <trkpt lat="38.4783510" lon="-2.4138850">
        <ele>1059.6</ele>
        <time>2019-11-01T16:08:51Z</time>
      </trkpt>
      <trkpt lat="38.4783740" lon="-2.4138000">
        <ele>1059.6</ele>
        <time>2019-11-01T16:08:54Z</time>
      </trkpt>
      <trkpt lat="38.4783920" lon="-2.4137480">
        <ele>1059.6</ele>
        <time>2019-11-01T16:08:56Z</time>
      </trkpt>
      <trkpt lat="38.4784310" lon="-2.4136850">
        <ele>1059.6</ele>
        <time>2019-11-01T16:08:59Z</time>
      </trkpt>
      <trkpt lat="38.4784610" lon="-2.4136280">
        <ele>1059.6</ele>
        <time>2019-11-01T16:09:03Z</time>
      </trkpt>
      <trkpt lat="38.4786480" lon="-2.4135840">
        <ele>1059.6</ele>
        <time>2019-11-01T16:09:46Z</time>
      </trkpt>
      <trkpt lat="38.4787150" lon="-2.4136360">
        <ele>1059.6</ele>
        <time>2019-11-01T16:09:49Z</time>
      </trkpt>
      <trkpt lat="38.4787710" lon="-2.4136710">
        <ele>1059.6</ele>
        <time>2019-11-01T16:09:51Z</time>
      </trkpt>
      <trkpt lat="38.4788100" lon="-2.4136740">
        <ele>1059.6</ele>
        <time>2019-11-01T16:09:53Z</time>
      </trkpt>
      <trkpt lat="38.4788510" lon="-2.4136390">
        <ele>1059.6</ele>
        <time>2019-11-01T16:09:56Z</time>
      </trkpt>
      <trkpt lat="38.4788970" lon="-2.4135720">
        <ele>1060.7</ele>
        <time>2019-11-01T16:10:00Z</time>
      </trkpt>
      <trkpt lat="38.4789400" lon="-2.4135020">
        <ele>1060.7</ele>
        <time>2019-11-01T16:10:03Z</time>
      </trkpt>
      <trkpt lat="38.4789840" lon="-2.4134280">
        <ele>1060.7</ele>
        <time>2019-11-01T16:10:06Z</time>
      </trkpt>
      <trkpt lat="38.4790140" lon="-2.4133800">
        <ele>1060.7</ele>
        <time>2019-11-01T16:10:08Z</time>
      </trkpt>
      <trkpt lat="38.4790660" lon="-2.4133080">
        <ele>1061.9</ele>
        <time>2019-11-01T16:10:11Z</time>
      </trkpt>
      <trkpt lat="38.4791040" lon="-2.4132630">
        <ele>1061.9</ele>
        <time>2019-11-01T16:10:13Z</time>
      </trkpt>
      <trkpt lat="38.4791500" lon="-2.4132220">
        <ele>1061.9</ele>
        <time>2019-11-01T16:10:15Z</time>
      </trkpt>
      <trkpt lat="38.4791940" lon="-2.4131880">
        <ele>1061.9</ele>
        <time>2019-11-01T16:10:17Z</time>
      </trkpt>
      <trkpt lat="38.4792450" lon="-2.4131510">
        <ele>1061.9</ele>
        <time>2019-11-01T16:10:19Z</time>
      </trkpt>
      <trkpt lat="38.4792930" lon="-2.4131140">
        <ele>1063.1</ele>
        <time>2019-11-01T16:10:21Z</time>
      </trkpt>
      <trkpt lat="38.4793470" lon="-2.4130780">
        <ele>1063.1</ele>
        <time>2019-11-01T16:10:23Z</time>
      </trkpt>
      <trkpt lat="38.4794040" lon="-2.4130470">
        <ele>1063.1</ele>
        <time>2019-11-01T16:10:25Z</time>
      </trkpt>
      <trkpt lat="38.4794700" lon="-2.4130170">
        <ele>1063.1</ele>
        <time>2019-11-01T16:10:27Z</time>
      </trkpt>
      <trkpt lat="38.4795320" lon="-2.4129880">
        <ele>1063.1</ele>
        <time>2019-11-01T16:10:29Z</time>
      </trkpt>
      <trkpt lat="38.4795980" lon="-2.4129630">
        <ele>1063.1</ele>
        <time>2019-11-01T16:10:31Z</time>
      </trkpt>
      <trkpt lat="38.4796800" lon="-2.4129450">
        <ele>1063.1</ele>
        <time>2019-11-01T16:10:33Z</time>
      </trkpt>
      <trkpt lat="38.4798130" lon="-2.4129290">
        <ele>1063.1</ele>
        <time>2019-11-01T16:10:36Z</time>
      </trkpt>
      <trkpt lat="38.4799160" lon="-2.4129280">
        <ele>1063.1</ele>
        <time>2019-11-01T16:10:38Z</time>
      </trkpt>
      <trkpt lat="38.4800150" lon="-2.4129370">
        <ele>1063.1</ele>
        <time>2019-11-01T16:10:40Z</time>
      </trkpt>
      <trkpt lat="38.4800610" lon="-2.4129440">
        <ele>1061.9</ele>
        <time>2019-11-01T16:10:41Z</time>
      </trkpt>
      <trkpt lat="38.4801430" lon="-2.4129590">
        <ele>1061.9</ele>
        <time>2019-11-01T16:10:43Z</time>
      </trkpt>
      <trkpt lat="38.4802100" lon="-2.4129700">
        <ele>1061.9</ele>
        <time>2019-11-01T16:10:45Z</time>
      </trkpt>
      <trkpt lat="38.4802640" lon="-2.4129790">
        <ele>1061.9</ele>
        <time>2019-11-01T16:10:47Z</time>
      </trkpt>
      <trkpt lat="38.4803230" lon="-2.4129920">
        <ele>1061.9</ele>
        <time>2019-11-01T16:10:49Z</time>
      </trkpt>
      <trkpt lat="38.4803890" lon="-2.4130060">
        <ele>1060.7</ele>
        <time>2019-11-01T16:10:51Z</time>
      </trkpt>
      <trkpt lat="38.4804660" lon="-2.4130170">
        <ele>1060.7</ele>
        <time>2019-11-01T16:10:53Z</time>
      </trkpt>
      <trkpt lat="38.4805480" lon="-2.4130340">
        <ele>1060.7</ele>
        <time>2019-11-01T16:10:55Z</time>
      </trkpt>
      <trkpt lat="38.4806400" lon="-2.4130520">
        <ele>1060.7</ele>
        <time>2019-11-01T16:10:57Z</time>
      </trkpt>
      <trkpt lat="38.4807350" lon="-2.4130670">
        <ele>1060.7</ele>
        <time>2019-11-01T16:10:59Z</time>
      </trkpt>
      <trkpt lat="38.4807880" lon="-2.4130730">
        <ele>1060.7</ele>
        <time>2019-11-01T16:11:00Z</time>
      </trkpt>
      <trkpt lat="38.4808400" lon="-2.4130770">
        <ele>1060.7</ele>
        <time>2019-11-01T16:11:01Z</time>
      </trkpt>
      <trkpt lat="38.4809370" lon="-2.4130790">
        <ele>1060.7</ele>
        <time>2019-11-01T16:11:03Z</time>
      </trkpt>
      <trkpt lat="38.4810600" lon="-2.4130570">
        <ele>1060.7</ele>
        <time>2019-11-01T16:11:06Z</time>
      </trkpt>
      <trkpt lat="38.4811140" lon="-2.4130360">
        <ele>1060.7</ele>
        <time>2019-11-01T16:11:07Z</time>
      </trkpt>
      <trkpt lat="38.4811600" lon="-2.4130110">
        <ele>1060.7</ele>
        <time>2019-11-01T16:11:08Z</time>
      </trkpt>
      <trkpt lat="38.4812010" lon="-2.4129740">
        <ele>1060.7</ele>
        <time>2019-11-01T16:11:09Z</time>
      </trkpt>
      <trkpt lat="38.4812670" lon="-2.4128880">
        <ele>1060.7</ele>
        <time>2019-11-01T16:11:11Z</time>
      </trkpt>
      <trkpt lat="38.4813180" lon="-2.4127870">
        <ele>1059.6</ele>
        <time>2019-11-01T16:11:13Z</time>
      </trkpt>
      <trkpt lat="38.4813470" lon="-2.4127370">
        <ele>1059.6</ele>
        <time>2019-11-01T16:11:14Z</time>
      </trkpt>
      <trkpt lat="38.4813880" lon="-2.4126320">
        <ele>1059.6</ele>
        <time>2019-11-01T16:11:16Z</time>
      </trkpt>
      <trkpt lat="38.4814260" lon="-2.4125290">
        <ele>1059.6</ele>
        <time>2019-11-01T16:11:18Z</time>
      </trkpt>
      <trkpt lat="38.4814640" lon="-2.4124300">
        <ele>1059.6</ele>
        <time>2019-11-01T16:11:20Z</time>
      </trkpt>
      <trkpt lat="38.4815100" lon="-2.4123330">
        <ele>1059.6</ele>
        <time>2019-11-01T16:11:22Z</time>
      </trkpt>
      <trkpt lat="38.4815510" lon="-2.4122360">
        <ele>1059.6</ele>
        <time>2019-11-01T16:11:24Z</time>
      </trkpt>
      <trkpt lat="38.4815950" lon="-2.4121470">
        <ele>1059.6</ele>
        <time>2019-11-01T16:11:26Z</time>
      </trkpt>
      <trkpt lat="38.4816330" lon="-2.4120580">
        <ele>1059.6</ele>
        <time>2019-11-01T16:11:28Z</time>
      </trkpt>
      <trkpt lat="38.4816770" lon="-2.4119690">
        <ele>1059.6</ele>
        <time>2019-11-01T16:11:30Z</time>
      </trkpt>
      <trkpt lat="38.4817230" lon="-2.4118840">
        <ele>1059.6</ele>
        <time>2019-11-01T16:11:32Z</time>
      </trkpt>
      <trkpt lat="38.4817740" lon="-2.4118020">
        <ele>1059.6</ele>
        <time>2019-11-01T16:11:34Z</time>
      </trkpt>
      <trkpt lat="38.4818280" lon="-2.4117190">
        <ele>1059.6</ele>
        <time>2019-11-01T16:11:36Z</time>
      </trkpt>
      <trkpt lat="38.4818760" lon="-2.4116410">
        <ele>1059.6</ele>
        <time>2019-11-01T16:11:38Z</time>
      </trkpt>
      <trkpt lat="38.4819300" lon="-2.4115610">
        <ele>1059.6</ele>
        <time>2019-11-01T16:11:40Z</time>
      </trkpt>
      <trkpt lat="38.4819840" lon="-2.4114810">
        <ele>1059.6</ele>
        <time>2019-11-01T16:11:42Z</time>
      </trkpt>
      <trkpt lat="38.4820380" lon="-2.4113980">
        <ele>1059.6</ele>
        <time>2019-11-01T16:11:44Z</time>
      </trkpt>
      <trkpt lat="38.4820890" lon="-2.4113130">
        <ele>1060.7</ele>
        <time>2019-11-01T16:11:46Z</time>
      </trkpt>
      <trkpt lat="38.4821400" lon="-2.4112260">
        <ele>1060.7</ele>
        <time>2019-11-01T16:11:48Z</time>
      </trkpt>
      <trkpt lat="38.4821890" lon="-2.4111410">
        <ele>1060.7</ele>
        <time>2019-11-01T16:11:50Z</time>
      </trkpt>
      <trkpt lat="38.4822350" lon="-2.4110530">
        <ele>1060.7</ele>
        <time>2019-11-01T16:11:52Z</time>
      </trkpt>
      <trkpt lat="38.4822840" lon="-2.4109640">
        <ele>1060.7</ele>
        <time>2019-11-01T16:11:54Z</time>
      </trkpt>
      <trkpt lat="38.4823300" lon="-2.4108740">
        <ele>1060.7</ele>
        <time>2019-11-01T16:11:56Z</time>
      </trkpt>
      <trkpt lat="38.4823760" lon="-2.4107830">
        <ele>1061.9</ele>
        <time>2019-11-01T16:11:58Z</time>
      </trkpt>
      <trkpt lat="38.4824270" lon="-2.4106870">
        <ele>1061.9</ele>
        <time>2019-11-01T16:12:00Z</time>
      </trkpt>
      <trkpt lat="38.4824760" lon="-2.4105970">
        <ele>1061.9</ele>
        <time>2019-11-01T16:12:02Z</time>
      </trkpt>
      <trkpt lat="38.4825290" lon="-2.4105000">
        <ele>1061.9</ele>
        <time>2019-11-01T16:12:04Z</time>
      </trkpt>
      <trkpt lat="38.4825830" lon="-2.4104060">
        <ele>1061.9</ele>
        <time>2019-11-01T16:12:06Z</time>
      </trkpt>
      <trkpt lat="38.4826340" lon="-2.4103100">
        <ele>1061.9</ele>
        <time>2019-11-01T16:12:08Z</time>
      </trkpt>
      <trkpt lat="38.4826620" lon="-2.4102620">
        <ele>1061.9</ele>
        <time>2019-11-01T16:12:09Z</time>
      </trkpt>
      <trkpt lat="38.4827160" lon="-2.4101700">
        <ele>1061.9</ele>
        <time>2019-11-01T16:12:11Z</time>
      </trkpt>
      <trkpt lat="38.4827960" lon="-2.4100330">
        <ele>1063.1</ele>
        <time>2019-11-01T16:12:14Z</time>
      </trkpt>
      <trkpt lat="38.4828490" lon="-2.4099420">
        <ele>1063.1</ele>
        <time>2019-11-01T16:12:16Z</time>
      </trkpt>
      <trkpt lat="38.4829030" lon="-2.4098450">
        <ele>1063.1</ele>
        <time>2019-11-01T16:12:18Z</time>
      </trkpt>
      <trkpt lat="38.4829520" lon="-2.4097450">
        <ele>1063.1</ele>
        <time>2019-11-01T16:12:20Z</time>
      </trkpt>
      <trkpt lat="38.4829980" lon="-2.4096470">
        <ele>1063.1</ele>
        <time>2019-11-01T16:12:22Z</time>
      </trkpt>
      <trkpt lat="38.4830360" lon="-2.4095530">
        <ele>1064.3</ele>
        <time>2019-11-01T16:12:24Z</time>
      </trkpt>
      <trkpt lat="38.4830750" lon="-2.4094650">
        <ele>1064.3</ele>
        <time>2019-11-01T16:12:26Z</time>
      </trkpt>
      <trkpt lat="38.4831160" lon="-2.4093800">
        <ele>1064.3</ele>
        <time>2019-11-01T16:12:28Z</time>
      </trkpt>
      <trkpt lat="38.4831540" lon="-2.4092990">
        <ele>1064.3</ele>
        <time>2019-11-01T16:12:30Z</time>
      </trkpt>
      <trkpt lat="38.4831920" lon="-2.4092210">
        <ele>1064.3</ele>
        <time>2019-11-01T16:12:32Z</time>
      </trkpt>
      <trkpt lat="38.4832260" lon="-2.4091400">
        <ele>1064.3</ele>
        <time>2019-11-01T16:12:34Z</time>
      </trkpt>
      <trkpt lat="38.4832640" lon="-2.4090560">
        <ele>1065.5</ele>
        <time>2019-11-01T16:12:36Z</time>
      </trkpt>
      <trkpt lat="38.4833080" lon="-2.4089750">
        <ele>1065.5</ele>
        <time>2019-11-01T16:12:38Z</time>
      </trkpt>
      <trkpt lat="38.4833540" lon="-2.4088950">
        <ele>1065.5</ele>
        <time>2019-11-01T16:12:40Z</time>
      </trkpt>
      <trkpt lat="38.4834050" lon="-2.4088130">
        <ele>1065.5</ele>
        <time>2019-11-01T16:12:42Z</time>
      </trkpt>
      <trkpt lat="38.4834560" lon="-2.4087360">
        <ele>1065.5</ele>
        <time>2019-11-01T16:12:44Z</time>
      </trkpt>
      <trkpt lat="38.4835050" lon="-2.4086670">
        <ele>1065.5</ele>
        <time>2019-11-01T16:12:46Z</time>
      </trkpt>
      <trkpt lat="38.4835580" lon="-2.4086040">
        <ele>1066.7</ele>
        <time>2019-11-01T16:12:48Z</time>
      </trkpt>
      <trkpt lat="38.4836120" lon="-2.4085460">
        <ele>1066.7</ele>
        <time>2019-11-01T16:12:50Z</time>
      </trkpt>
      <trkpt lat="38.4836680" lon="-2.4084910">
        <ele>1066.7</ele>
        <time>2019-11-01T16:12:52Z</time>
      </trkpt>
      <trkpt lat="38.4837270" lon="-2.4084470">
        <ele>1068.1</ele>
        <time>2019-11-01T16:12:54Z</time>
      </trkpt>
      <trkpt lat="38.4837940" lon="-2.4084110">
        <ele>1068.1</ele>
        <time>2019-11-01T16:12:56Z</time>
      </trkpt>
      <trkpt lat="38.4838680" lon="-2.4083800">
        <ele>1069.3</ele>
        <time>2019-11-01T16:12:58Z</time>
      </trkpt>
      <trkpt lat="38.4839450" lon="-2.4083520">
        <ele>1069.3</ele>
        <time>2019-11-01T16:13:00Z</time>
      </trkpt>
      <trkpt lat="38.4840190" lon="-2.4083280">
        <ele>1069.3</ele>
        <time>2019-11-01T16:13:02Z</time>
      </trkpt>
      <trkpt lat="38.4841010" lon="-2.4083090">
        <ele>1070.5</ele>
        <time>2019-11-01T16:13:04Z</time>
      </trkpt>
      <trkpt lat="38.4841750" lon="-2.4082900">
        <ele>1070.5</ele>
        <time>2019-11-01T16:13:06Z</time>
      </trkpt>
      <trkpt lat="38.4842500" lon="-2.4082740">
        <ele>1070.5</ele>
        <time>2019-11-01T16:13:08Z</time>
      </trkpt>
      <trkpt lat="38.4843210" lon="-2.4082680">
        <ele>1070.5</ele>
        <time>2019-11-01T16:13:10Z</time>
      </trkpt>
      <trkpt lat="38.4843930" lon="-2.4082710">
        <ele>1071.7</ele>
        <time>2019-11-01T16:13:12Z</time>
      </trkpt>
      <trkpt lat="38.4844620" lon="-2.4082800">
        <ele>1071.7</ele>
        <time>2019-11-01T16:13:14Z</time>
      </trkpt>
      <trkpt lat="38.4845360" lon="-2.4082940">
        <ele>1071.7</ele>
        <time>2019-11-01T16:13:16Z</time>
      </trkpt>
      <trkpt lat="38.4846080" lon="-2.4083110">
        <ele>1071.7</ele>
        <time>2019-11-01T16:13:18Z</time>
      </trkpt>
      <trkpt lat="38.4846800" lon="-2.4083230">
        <ele>1071.7</ele>
        <time>2019-11-01T16:13:20Z</time>
      </trkpt>
      <trkpt lat="38.4847540" lon="-2.4083290">
        <ele>1071.7</ele>
        <time>2019-11-01T16:13:22Z</time>
      </trkpt>
      <trkpt lat="38.4848280" lon="-2.4083310">
        <ele>1071.7</ele>
        <time>2019-11-01T16:13:24Z</time>
      </trkpt>
      <trkpt lat="38.4849020" lon="-2.4083270">
        <ele>1071.7</ele>
        <time>2019-11-01T16:13:26Z</time>
      </trkpt>
      <trkpt lat="38.4849690" lon="-2.4083170">
        <ele>1071.7</ele>
        <time>2019-11-01T16:13:28Z</time>
      </trkpt>
      <trkpt lat="38.4850300" lon="-2.4082990">
        <ele>1073.1</ele>
        <time>2019-11-01T16:13:30Z</time>
      </trkpt>
      <trkpt lat="38.4850890" lon="-2.4082750">
        <ele>1073.1</ele>
        <time>2019-11-01T16:13:32Z</time>
      </trkpt>
      <trkpt lat="38.4851610" lon="-2.4082530">
        <ele>1073.1</ele>
        <time>2019-11-01T16:13:34Z</time>
      </trkpt>
      <trkpt lat="38.4852380" lon="-2.4082390">
        <ele>1073.1</ele>
        <time>2019-11-01T16:13:36Z</time>
      </trkpt>
      <trkpt lat="38.4853220" lon="-2.4082310">
        <ele>1073.1</ele>
        <time>2019-11-01T16:13:38Z</time>
      </trkpt>
      <trkpt lat="38.4854040" lon="-2.4082250">
        <ele>1073.1</ele>
        <time>2019-11-01T16:13:40Z</time>
      </trkpt>
      <trkpt lat="38.4854890" lon="-2.4082210">
        <ele>1073.1</ele>
        <time>2019-11-01T16:13:42Z</time>
      </trkpt>
      <trkpt lat="38.4855730" lon="-2.4082170">
        <ele>1073.1</ele>
        <time>2019-11-01T16:13:44Z</time>
      </trkpt>
      <trkpt lat="38.4856680" lon="-2.4082170">
        <ele>1073.1</ele>
        <time>2019-11-01T16:13:46Z</time>
      </trkpt>
      <trkpt lat="38.4857630" lon="-2.4082150">
        <ele>1073.1</ele>
        <time>2019-11-01T16:13:48Z</time>
      </trkpt>
      <trkpt lat="38.4858090" lon="-2.4082150">
        <ele>1073.1</ele>
        <time>2019-11-01T16:13:49Z</time>
      </trkpt>
      <trkpt lat="38.4858980" lon="-2.4082160">
        <ele>1073.1</ele>
        <time>2019-11-01T16:13:51Z</time>
      </trkpt>
      <trkpt lat="38.4859720" lon="-2.4082120">
        <ele>1073.1</ele>
        <time>2019-11-01T16:13:53Z</time>
      </trkpt>
      <trkpt lat="38.4860390" lon="-2.4082040">
        <ele>1074.3</ele>
        <time>2019-11-01T16:13:55Z</time>
      </trkpt>
      <trkpt lat="38.4861000" lon="-2.4081940">
        <ele>1074.3</ele>
        <time>2019-11-01T16:13:57Z</time>
      </trkpt>
      <trkpt lat="38.4861900" lon="-2.4081880">
        <ele>1074.3</ele>
        <time>2019-11-01T16:14:00Z</time>
      </trkpt>
      <trkpt lat="38.4862520" lon="-2.4081880">
        <ele>1074.3</ele>
        <time>2019-11-01T16:14:02Z</time>
      </trkpt>
      <trkpt lat="38.4863080" lon="-2.4081920">
        <ele>1074.3</ele>
        <time>2019-11-01T16:14:04Z</time>
      </trkpt>
      <trkpt lat="38.4863590" lon="-2.4082020">
        <ele>1075.5</ele>
        <time>2019-11-01T16:14:06Z</time>
      </trkpt>
      <trkpt lat="38.4864150" lon="-2.4082140">
        <ele>1075.5</ele>
        <time>2019-11-01T16:14:09Z</time>
      </trkpt>
      <trkpt lat="38.4864610" lon="-2.4082260">
        <ele>1075.5</ele>
        <time>2019-11-01T16:14:12Z</time>
      </trkpt>
      <trkpt lat="38.4865180" lon="-2.4082500">
        <ele>1075.5</ele>
        <time>2019-11-01T16:14:16Z</time>
      </trkpt>
      <trkpt lat="38.4865690" lon="-2.4082750">
        <ele>1075.5</ele>
        <time>2019-11-01T16:14:19Z</time>
      </trkpt>
      <trkpt lat="38.4866330" lon="-2.4083100">
        <ele>1075.5</ele>
        <time>2019-11-01T16:14:22Z</time>
      </trkpt>
      <trkpt lat="38.4866940" lon="-2.4083320">
        <ele>1075.5</ele>
        <time>2019-11-01T16:14:24Z</time>
      </trkpt>
      <trkpt lat="38.4867660" lon="-2.4083570">
        <ele>1075.5</ele>
        <time>2019-11-01T16:14:26Z</time>
      </trkpt>
      <trkpt lat="38.4868510" lon="-2.4083840">
        <ele>1075.5</ele>
        <time>2019-11-01T16:14:28Z</time>
      </trkpt>
      <trkpt lat="38.4869450" lon="-2.4084160">
        <ele>1075.5</ele>
        <time>2019-11-01T16:14:30Z</time>
      </trkpt>
      <trkpt lat="38.4869990" lon="-2.4084340">
        <ele>1075.5</ele>
        <time>2019-11-01T16:14:31Z</time>
      </trkpt>
      <trkpt lat="38.4870600" lon="-2.4084560">
        <ele>1075.5</ele>
        <time>2019-11-01T16:14:32Z</time>
      </trkpt>
      <trkpt lat="38.4871170" lon="-2.4084780">
        <ele>1074.3</ele>
        <time>2019-11-01T16:14:33Z</time>
      </trkpt>
      <trkpt lat="38.4871830" lon="-2.4085030">
        <ele>1074.3</ele>
        <time>2019-11-01T16:14:34Z</time>
      </trkpt>
      <trkpt lat="38.4872600" lon="-2.4085210">
        <ele>1074.3</ele>
        <time>2019-11-01T16:14:35Z</time>
      </trkpt>
      <trkpt lat="38.4873270" lon="-2.4085430">
        <ele>1074.3</ele>
        <time>2019-11-01T16:14:36Z</time>
      </trkpt>
      <trkpt lat="38.4874010" lon="-2.4085690">
        <ele>1072.7</ele>
        <time>2019-11-01T16:14:37Z</time>
      </trkpt>
      <trkpt lat="38.4874680" lon="-2.4086010">
        <ele>1072.7</ele>
        <time>2019-11-01T16:14:38Z</time>
      </trkpt>
      <trkpt lat="38.4875490" lon="-2.4086360">
        <ele>1071.5</ele>
        <time>2019-11-01T16:14:39Z</time>
      </trkpt>
      <trkpt lat="38.4876210" lon="-2.4086670">
        <ele>1071.5</ele>
        <time>2019-11-01T16:14:40Z</time>
      </trkpt>
      <trkpt lat="38.4876980" lon="-2.4086980">
        <ele>1070.3</ele>
        <time>2019-11-01T16:14:41Z</time>
      </trkpt>
      <trkpt lat="38.4877750" lon="-2.4087290">
        <ele>1070.3</ele>
        <time>2019-11-01T16:14:42Z</time>
      </trkpt>
      <trkpt lat="38.4878570" lon="-2.4087640">
        <ele>1070.3</ele>
        <time>2019-11-01T16:14:43Z</time>
      </trkpt>
      <trkpt lat="38.4879390" lon="-2.4088030">
        <ele>1068.7</ele>
        <time>2019-11-01T16:14:44Z</time>
      </trkpt>
      <trkpt lat="38.4880180" lon="-2.4088420">
        <ele>1068.7</ele>
        <time>2019-11-01T16:14:45Z</time>
      </trkpt>
      <trkpt lat="38.4880950" lon="-2.4088810">
        <ele>1068.7</ele>
        <time>2019-11-01T16:14:46Z</time>
      </trkpt>
      <trkpt lat="38.4881740" lon="-2.4089240">
        <ele>1068.7</ele>
        <time>2019-11-01T16:14:47Z</time>
      </trkpt>
      <trkpt lat="38.4882460" lon="-2.4089680">
        <ele>1068.7</ele>
        <time>2019-11-01T16:14:48Z</time>
      </trkpt>
      <trkpt lat="38.4883350" lon="-2.4090210">
        <ele>1068.7</ele>
        <time>2019-11-01T16:14:49Z</time>
      </trkpt>
      <trkpt lat="38.4884220" lon="-2.4090790">
        <ele>1068.7</ele>
        <time>2019-11-01T16:14:50Z</time>
      </trkpt>
      <trkpt lat="38.4885020" lon="-2.4091390">
        <ele>1068.7</ele>
        <time>2019-11-01T16:14:51Z</time>
      </trkpt>
      <trkpt lat="38.4885790" lon="-2.4091960">
        <ele>1068.7</ele>
        <time>2019-11-01T16:14:52Z</time>
      </trkpt>
      <trkpt lat="38.4886580" lon="-2.4092550">
        <ele>1067.6</ele>
        <time>2019-11-01T16:14:53Z</time>
      </trkpt>
      <trkpt lat="38.4887350" lon="-2.4093150">
        <ele>1067.6</ele>
        <time>2019-11-01T16:14:54Z</time>
      </trkpt>
      <trkpt lat="38.4888120" lon="-2.4093760">
        <ele>1067.6</ele>
        <time>2019-11-01T16:14:55Z</time>
      </trkpt>
      <trkpt lat="38.4888880" lon="-2.4094370">
        <ele>1067.6</ele>
        <time>2019-11-01T16:14:56Z</time>
      </trkpt>
      <trkpt lat="38.4889650" lon="-2.4094980">
        <ele>1067.6</ele>
        <time>2019-11-01T16:14:57Z</time>
      </trkpt>
      <trkpt lat="38.4890290" lon="-2.4095570">
        <ele>1067.6</ele>
        <time>2019-11-01T16:14:58Z</time>
      </trkpt>
      <trkpt lat="38.4891010" lon="-2.4096280">
        <ele>1067.6</ele>
        <time>2019-11-01T16:14:59Z</time>
      </trkpt>
      <trkpt lat="38.4891670" lon="-2.4096980">
        <ele>1067.6</ele>
        <time>2019-11-01T16:15:00Z</time>
      </trkpt>
      <trkpt lat="38.4892340" lon="-2.4097700">
        <ele>1067.6</ele>
        <time>2019-11-01T16:15:01Z</time>
      </trkpt>
      <trkpt lat="38.4892950" lon="-2.4098390">
        <ele>1067.6</ele>
        <time>2019-11-01T16:15:02Z</time>
      </trkpt>
      <trkpt lat="38.4893570" lon="-2.4099100">
        <ele>1067.6</ele>
        <time>2019-11-01T16:15:03Z</time>
      </trkpt>
      <trkpt lat="38.4894130" lon="-2.4099840">
        <ele>1067.6</ele>
        <time>2019-11-01T16:15:04Z</time>
      </trkpt>
      <trkpt lat="38.4894670" lon="-2.4100600">
        <ele>1067.6</ele>
        <time>2019-11-01T16:15:05Z</time>
      </trkpt>
      <trkpt lat="38.4895260" lon="-2.4101340">
        <ele>1067.6</ele>
        <time>2019-11-01T16:15:06Z</time>
      </trkpt>
      <trkpt lat="38.4895820" lon="-2.4102070">
        <ele>1067.6</ele>
        <time>2019-11-01T16:15:07Z</time>
      </trkpt>
      <trkpt lat="38.4896360" lon="-2.4102760">
        <ele>1067.6</ele>
        <time>2019-11-01T16:15:08Z</time>
      </trkpt>
      <trkpt lat="38.4896920" lon="-2.4103470">
        <ele>1067.6</ele>
        <time>2019-11-01T16:15:09Z</time>
      </trkpt>
      <trkpt lat="38.4897460" lon="-2.4104190">
        <ele>1067.6</ele>
        <time>2019-11-01T16:15:10Z</time>
      </trkpt>
      <trkpt lat="38.4898000" lon="-2.4105000">
        <ele>1067.6</ele>
        <time>2019-11-01T16:15:11Z</time>
      </trkpt>
      <trkpt lat="38.4898530" lon="-2.4105740">
        <ele>1067.6</ele>
        <time>2019-11-01T16:15:12Z</time>
      </trkpt>
      <trkpt lat="38.4899070" lon="-2.4106490">
        <ele>1067.6</ele>
        <time>2019-11-01T16:15:13Z</time>
      </trkpt>
      <trkpt lat="38.4899640" lon="-2.4107300">
        <ele>1066.2</ele>
        <time>2019-11-01T16:15:14Z</time>
      </trkpt>
      <trkpt lat="38.4900120" lon="-2.4108040">
        <ele>1066.2</ele>
        <time>2019-11-01T16:15:15Z</time>
      </trkpt>
      <trkpt lat="38.4900630" lon="-2.4108770">
        <ele>1066.2</ele>
        <time>2019-11-01T16:15:16Z</time>
      </trkpt>
      <trkpt lat="38.4901170" lon="-2.4109500">
        <ele>1066.2</ele>
        <time>2019-11-01T16:15:17Z</time>
      </trkpt>
      <trkpt lat="38.4901680" lon="-2.4110270">
        <ele>1066.2</ele>
        <time>2019-11-01T16:15:18Z</time>
      </trkpt>
      <trkpt lat="38.4902220" lon="-2.4111080">
        <ele>1065.0</ele>
        <time>2019-11-01T16:15:19Z</time>
      </trkpt>
      <trkpt lat="38.4902810" lon="-2.4111880">
        <ele>1065.0</ele>
        <time>2019-11-01T16:15:20Z</time>
      </trkpt>
      <trkpt lat="38.4903300" lon="-2.4112610">
        <ele>1065.0</ele>
        <time>2019-11-01T16:15:21Z</time>
      </trkpt>
      <trkpt lat="38.4903860" lon="-2.4113400">
        <ele>1065.0</ele>
        <time>2019-11-01T16:15:22Z</time>
      </trkpt>
      <trkpt lat="38.4904450" lon="-2.4114190">
        <ele>1065.0</ele>
        <time>2019-11-01T16:15:23Z</time>
      </trkpt>
      <trkpt lat="38.4905010" lon="-2.4114990">
        <ele>1065.0</ele>
        <time>2019-11-01T16:15:24Z</time>
      </trkpt>
      <trkpt lat="38.4905570" lon="-2.4115790">
        <ele>1065.0</ele>
        <time>2019-11-01T16:15:25Z</time>
      </trkpt>
      <trkpt lat="38.4906160" lon="-2.4116580">
        <ele>1065.0</ele>
        <time>2019-11-01T16:15:26Z</time>
      </trkpt>
      <trkpt lat="38.4906730" lon="-2.4117360">
        <ele>1065.0</ele>
        <time>2019-11-01T16:15:27Z</time>
      </trkpt>
      <trkpt lat="38.4907260" lon="-2.4118110">
        <ele>1065.0</ele>
        <time>2019-11-01T16:15:28Z</time>
      </trkpt>
      <trkpt lat="38.4907750" lon="-2.4118880">
        <ele>1063.8</ele>
        <time>2019-11-01T16:15:29Z</time>
      </trkpt>
      <trkpt lat="38.4908260" lon="-2.4119620">
        <ele>1063.8</ele>
        <time>2019-11-01T16:15:30Z</time>
      </trkpt>
      <trkpt lat="38.4908720" lon="-2.4120330">
        <ele>1063.8</ele>
        <time>2019-11-01T16:15:31Z</time>
      </trkpt>
      <trkpt lat="38.4909260" lon="-2.4121010">
        <ele>1063.8</ele>
        <time>2019-11-01T16:15:32Z</time>
      </trkpt>
      <trkpt lat="38.4909770" lon="-2.4121680">
        <ele>1063.8</ele>
        <time>2019-11-01T16:15:33Z</time>
      </trkpt>
      <trkpt lat="38.4910390" lon="-2.4122360">
        <ele>1063.8</ele>
        <time>2019-11-01T16:15:34Z</time>
      </trkpt>
      <trkpt lat="38.4911050" lon="-2.4122970">
        <ele>1063.8</ele>
        <time>2019-11-01T16:15:35Z</time>
      </trkpt>
      <trkpt lat="38.4911690" lon="-2.4123550">
        <ele>1063.8</ele>
        <time>2019-11-01T16:15:36Z</time>
      </trkpt>
      <trkpt lat="38.4912410" lon="-2.4124090">
        <ele>1063.8</ele>
        <time>2019-11-01T16:15:37Z</time>
      </trkpt>
      <trkpt lat="38.4913100" lon="-2.4124530">
        <ele>1063.8</ele>
        <time>2019-11-01T16:15:38Z</time>
      </trkpt>
      <trkpt lat="38.4913820" lon="-2.4124900">
        <ele>1063.8</ele>
        <time>2019-11-01T16:15:39Z</time>
      </trkpt>
      <trkpt lat="38.4914640" lon="-2.4125220">
        <ele>1063.8</ele>
        <time>2019-11-01T16:15:40Z</time>
      </trkpt>
      <trkpt lat="38.4915430" lon="-2.4125420">
        <ele>1063.8</ele>
        <time>2019-11-01T16:15:41Z</time>
      </trkpt>
      <trkpt lat="38.4916280" lon="-2.4125560">
        <ele>1063.8</ele>
        <time>2019-11-01T16:15:42Z</time>
      </trkpt>
      <trkpt lat="38.4917090" lon="-2.4125640">
        <ele>1063.8</ele>
        <time>2019-11-01T16:15:43Z</time>
      </trkpt>
      <trkpt lat="38.4917910" lon="-2.4125640">
        <ele>1063.8</ele>
        <time>2019-11-01T16:15:44Z</time>
      </trkpt>
      <trkpt lat="38.4918760" lon="-2.4125560">
        <ele>1063.8</ele>
        <time>2019-11-01T16:15:45Z</time>
      </trkpt>
      <trkpt lat="38.4919550" lon="-2.4125410">
        <ele>1063.8</ele>
        <time>2019-11-01T16:15:46Z</time>
      </trkpt>
      <trkpt lat="38.4920320" lon="-2.4125200">
        <ele>1063.8</ele>
        <time>2019-11-01T16:15:47Z</time>
      </trkpt>
      <trkpt lat="38.4921110" lon="-2.4124910">
        <ele>1063.8</ele>
        <time>2019-11-01T16:15:48Z</time>
      </trkpt>
      <trkpt lat="38.4921830" lon="-2.4124610">
        <ele>1063.8</ele>
        <time>2019-11-01T16:15:49Z</time>
      </trkpt>
      <trkpt lat="38.4922570" lon="-2.4124270">
        <ele>1062.6</ele>
        <time>2019-11-01T16:15:50Z</time>
      </trkpt>
      <trkpt lat="38.4923290" lon="-2.4123880">
        <ele>1062.6</ele>
        <time>2019-11-01T16:15:51Z</time>
      </trkpt>
      <trkpt lat="38.4923980" lon="-2.4123480">
        <ele>1062.6</ele>
        <time>2019-11-01T16:15:52Z</time>
      </trkpt>
      <trkpt lat="38.4924520" lon="-2.4122940">
        <ele>1062.6</ele>
        <time>2019-11-01T16:15:53Z</time>
      </trkpt>
      <trkpt lat="38.4925160" lon="-2.4122460">
        <ele>1062.6</ele>
        <time>2019-11-01T16:15:54Z</time>
      </trkpt>
      <trkpt lat="38.4925770" lon="-2.4122070">
        <ele>1062.6</ele>
        <time>2019-11-01T16:15:55Z</time>
      </trkpt>
      <trkpt lat="38.4926390" lon="-2.4121690">
        <ele>1062.6</ele>
        <time>2019-11-01T16:15:56Z</time>
      </trkpt>
      <trkpt lat="38.4926980" lon="-2.4121300">
        <ele>1062.6</ele>
        <time>2019-11-01T16:15:57Z</time>
      </trkpt>
      <trkpt lat="38.4927560" lon="-2.4120930">
        <ele>1061.3</ele>
        <time>2019-11-01T16:15:58Z</time>
      </trkpt>
      <trkpt lat="38.4928100" lon="-2.4120510">
        <ele>1061.3</ele>
        <time>2019-11-01T16:15:59Z</time>
      </trkpt>
      <trkpt lat="38.4928690" lon="-2.4120040">
        <ele>1061.3</ele>
        <time>2019-11-01T16:16:00Z</time>
      </trkpt>
      <trkpt lat="38.4929280" lon="-2.4119590">
        <ele>1061.3</ele>
        <time>2019-11-01T16:16:01Z</time>
      </trkpt>
      <trkpt lat="38.4929840" lon="-2.4119220">
        <ele>1061.3</ele>
        <time>2019-11-01T16:16:02Z</time>
      </trkpt>
      <trkpt lat="38.4930460" lon="-2.4118830">
        <ele>1061.3</ele>
        <time>2019-11-01T16:16:03Z</time>
      </trkpt>
      <trkpt lat="38.4931020" lon="-2.4118460">
        <ele>1061.3</ele>
        <time>2019-11-01T16:16:04Z</time>
      </trkpt>
      <trkpt lat="38.4931560" lon="-2.4118110">
        <ele>1061.3</ele>
        <time>2019-11-01T16:16:05Z</time>
      </trkpt>
      <trkpt lat="38.4932070" lon="-2.4117840">
        <ele>1061.3</ele>
        <time>2019-11-01T16:16:06Z</time>
      </trkpt>
      <trkpt lat="38.4932560" lon="-2.4117660">
        <ele>1061.3</ele>
        <time>2019-11-01T16:16:07Z</time>
      </trkpt>
      <trkpt lat="38.4933020" lon="-2.4117530">
        <ele>1060.1</ele>
        <time>2019-11-01T16:16:08Z</time>
      </trkpt>
      <trkpt lat="38.4933660" lon="-2.4117460">
        <ele>1060.1</ele>
        <time>2019-11-01T16:16:10Z</time>
      </trkpt>
      <trkpt lat="38.4934040" lon="-2.4117540">
        <ele>1060.1</ele>
        <time>2019-11-01T16:16:12Z</time>
      </trkpt>
      <trkpt lat="38.493255637586117" lon="-2.412004033103585">
        <ele>940.5999755859375</ele>
        <time>2019-11-02T08:14:08Z</time>
      </trkpt>
      <trkpt lat="38.493242310360074" lon="-2.411985341459513">
        <ele>937</ele>
        <time>2019-11-02T08:14:10Z</time>
      </trkpt>
      <trkpt lat="38.493239460512996" lon="-2.411983581259847">
        <ele>939.20001220703125</ele>
        <time>2019-11-02T08:14:11Z</time>
      </trkpt>
      <trkpt lat="38.493237365037203" lon="-2.411981234326959">
        <ele>940.4000244140625</ele>
        <time>2019-11-02T08:14:12Z</time>
      </trkpt>
      <trkpt lat="38.493193443864584" lon="-2.412037560716271">
        <ele>940.5999755859375</ele>
        <time>2019-11-02T08:14:22Z</time>
      </trkpt>
      <trkpt lat="38.493185229599476" lon="-2.412036471068859">
        <ele>941.4000244140625</ele>
        <time>2019-11-02T08:14:32Z</time>
      </trkpt>
      <trkpt lat="38.493194198235869" lon="-2.412039991468191">
        <ele>941.4000244140625</ele>
        <time>2019-11-02T08:14:35Z</time>
      </trkpt>
      <trkpt lat="38.493248596787453" lon="-2.412042422220111">
        <ele>941.20001220703125</ele>
        <time>2019-11-02T08:14:44Z</time>
      </trkpt>
      <trkpt lat="38.49326410330832" lon="-2.412009397521615">
        <ele>941.4000244140625</ele>
        <time>2019-11-02T08:14:47Z</time>
      </trkpt>
      <trkpt lat="38.493297379463911" lon="-2.41199498064816">
        <ele>941.79998779296875</ele>
        <time>2019-11-02T08:14:50Z</time>
      </trkpt>
      <trkpt lat="38.493314227089286" lon="-2.411990035325289">
        <ele>942.4000244140625</ele>
        <time>2019-11-02T08:14:55Z</time>
      </trkpt>
      <trkpt lat="38.493313975632191" lon="-2.411981485784054">
        <ele>942.20001220703125</ele>
        <time>2019-11-02T08:14:57Z</time>
      </trkpt>
      <trkpt lat="38.493310287594795" lon="-2.411947790533304">
        <ele>941.4000244140625</ele>
        <time>2019-11-02T08:15:01Z</time>
      </trkpt>
      <trkpt lat="38.493279442191124" lon="-2.411938067525625">
        <ele>940.79998779296875</ele>
        <time>2019-11-02T08:15:05Z</time>
      </trkpt>
      <trkpt lat="38.493190594017506" lon="-2.411962458863854">
        <ele>940.4000244140625</ele>
        <time>2019-11-02T08:15:14Z</time>
      </trkpt>
      <trkpt lat="38.493180954828858" lon="-2.411972349509597">
        <ele>940.20001220703125</ele>
        <time>2019-11-02T08:15:15Z</time>
      </trkpt>
      <trkpt lat="38.493142062798142" lon="-2.412032028660178">
        <ele>940.5999755859375</ele>
        <time>2019-11-02T08:15:21Z</time>
      </trkpt>
      <trkpt lat="38.493151869624853" lon="-2.412070585414767">
        <ele>940.79998779296875</ele>
        <time>2019-11-02T08:15:29Z</time>
      </trkpt>
      <trkpt lat="38.493164274841547" lon="-2.412112159654498">
        <ele>940.79998779296875</ele>
        <time>2019-11-02T08:15:34Z</time>
      </trkpt>
      <trkpt lat="38.493221942335367" lon="-2.412262698635459">
        <ele>940.79998779296875</ele>
        <time>2019-11-02T08:15:40Z</time>
      </trkpt>
      <trkpt lat="38.493342557922006" lon="-2.412549192085862">
        <ele>940.4000244140625</ele>
        <time>2019-11-02T08:15:49Z</time>
      </trkpt>
      <trkpt lat="38.493455965071917" lon="-2.412839876487851">
        <ele>939.79998779296875</ele>
        <time>2019-11-02T08:15:58Z</time>
      </trkpt>
      <trkpt lat="38.493606587871909" lon="-2.41323072463274">
        <ele>941</ele>
        <time>2019-11-02T08:16:10Z</time>
      </trkpt>
      <trkpt lat="38.493686886504292" lon="-2.41343792527914">
        <ele>941.4000244140625</ele>
        <time>2019-11-02T08:16:17Z</time>
      </trkpt>
      <trkpt lat="38.493723599240184" lon="-2.413535239174962">
        <ele>941.5999755859375</ele>
        <time>2019-11-02T08:16:20Z</time>
      </trkpt>
      <trkpt lat="38.493857122957706" lon="-2.413874119520187">
        <ele>941.79998779296875</ele>
        <time>2019-11-02T08:16:30Z</time>
      </trkpt>
      <trkpt lat="38.493987377732992" lon="-2.41419673897326">
        <ele>942.20001220703125</ele>
        <time>2019-11-02T08:16:40Z</time>
      </trkpt>
      <trkpt lat="38.494056947529316" lon="-2.414363203570247">
        <ele>942.4000244140625</ele>
        <time>2019-11-02T08:16:45Z</time>
      </trkpt>
      <trkpt lat="38.494101287797093" lon="-2.414461355656385">
        <ele>942.5999755859375</ele>
        <time>2019-11-02T08:16:48Z</time>
      </trkpt>
      <trkpt lat="38.494208576157689" lon="-2.414728486910462">
        <ele>943.20001220703125</ele>
        <time>2019-11-02T08:16:57Z</time>
      </trkpt>
      <trkpt lat="38.494263729080558" lon="-2.414874834939837">
        <ele>943.5999755859375</ele>
        <time>2019-11-02T08:17:02Z</time>
      </trkpt>
      <trkpt lat="38.494293401017785" lon="-2.414964940398932">
        <ele>943.79998779296875</ele>
        <time>2019-11-02T08:17:05Z</time>
      </trkpt>
      <trkpt lat="38.494327263906598" lon="-2.41504842415452">
        <ele>944.5999755859375</ele>
        <time>2019-11-02T08:17:08Z</time>
      </trkpt>
      <trkpt lat="38.49441091530025" lon="-2.415244057774544">
        <ele>945.5999755859375</ele>
        <time>2019-11-02T08:17:15Z</time>
      </trkpt>
      <trkpt lat="38.494456009939313" lon="-2.415368109941483">
        <ele>945.79998779296875</ele>
        <time>2019-11-02T08:17:21Z</time>
      </trkpt>
      <trkpt lat="38.494464391842484" lon="-2.415396524593234">
        <ele>946</ele>
        <time>2019-11-02T08:17:23Z</time>
      </trkpt>
      <trkpt lat="38.494473109021783" lon="-2.415416557341814">
        <ele>945.79998779296875</ele>
        <time>2019-11-02T08:17:29Z</time>
      </trkpt>
      <trkpt lat="38.494475372135639" lon="-2.415398536249995">
        <ele>946.20001220703125</ele>
        <time>2019-11-02T08:17:40Z</time>
      </trkpt>
      <trkpt lat="38.494464391842484" lon="-2.415400883182883">
        <ele>946</ele>
        <time>2019-11-02T08:17:55Z</time>
      </trkpt>
      <trkpt lat="38.494462044909596" lon="-2.415391160175204">
        <ele>946</ele>
        <time>2019-11-02T08:18:28Z</time>
      </trkpt>
      <trkpt lat="38.494459530338645" lon="-2.41538068279624">
        <ele>945.79998779296875</ele>
        <time>2019-11-02T08:19:00Z</time>
      </trkpt>
      <trkpt lat="38.494460703805089" lon="-2.415365343913436">
        <ele>945.79998779296875</ele>
        <time>2019-11-02T08:19:01Z</time>
      </trkpt>
      <trkpt lat="38.494447208940983" lon="-2.41531178355217">
        <ele>945.5999755859375</ele>
        <time>2019-11-02T08:19:05Z</time>
      </trkpt>
      <trkpt lat="38.494419129565358" lon="-2.415340030565858">
        <ele>945.5999755859375</ele>
        <time>2019-11-02T08:19:07Z</time>
      </trkpt>
      <trkpt lat="38.494372945278883" lon="-2.415382275357842">
        <ele>945.20001220703125</ele>
        <time>2019-11-02T08:19:09Z</time>
      </trkpt>
      <trkpt lat="38.49415484815836" lon="-2.415542453527451">
        <ele>944.79998779296875</ele>
        <time>2019-11-02T08:19:16Z</time>
      </trkpt>
      <trkpt lat="38.494124924764037" lon="-2.415563073009253">
        <ele>944.79998779296875</ele>
        <time>2019-11-02T08:19:17Z</time>
      </trkpt>
      <trkpt lat="38.494082763791084" lon="-2.415599701926112">
        <ele>944.5999755859375</ele>
        <time>2019-11-02T08:19:19Z</time>
      </trkpt>
      <trkpt lat="38.494077483192086" lon="-2.415626859292388">
        <ele>944.5999755859375</ele>
        <time>2019-11-02T08:19:20Z</time>
      </trkpt>
      <trkpt lat="38.494112519547343" lon="-2.415740266442299">
        <ele>944.5999755859375</ele>
        <time>2019-11-02T08:19:24Z</time>
      </trkpt>
      <trkpt lat="38.494125092402101" lon="-2.415767842903733">
        <ele>944.5999755859375</ele>
        <time>2019-11-02T08:19:25Z</time>
      </trkpt>
      <trkpt lat="38.494181334972382" lon="-2.415936570614576">
        <ele>945.4000244140625</ele>
        <time>2019-11-02T08:19:31Z</time>
      </trkpt>
      <trkpt lat="38.494145041331649" lon="-2.416096497327089">
        <ele>945.79998779296875</ele>
        <time>2019-11-02T08:19:36Z</time>
      </trkpt>
      <trkpt lat="38.494004560634494" lon="-2.41629883646965">
        <ele>945.20001220703125</ele>
        <time>2019-11-02T08:19:43Z</time>
      </trkpt>
      <trkpt lat="38.493961310014129" lon="-2.416467480361462">
        <ele>944.5999755859375</ele>
        <time>2019-11-02T08:19:48Z</time>
      </trkpt>
      <trkpt lat="38.493968434631824" lon="-2.416700245812535">
        <ele>944.79998779296875</ele>
        <time>2019-11-02T08:19:55Z</time>
      </trkpt>
      <trkpt lat="38.493953011929989" lon="-2.416867800056934">
        <ele>946</ele>
        <time>2019-11-02T08:20:00Z</time>
      </trkpt>
      <trkpt lat="38.493942199274898" lon="-2.416927143931389">
        <ele>946.5999755859375</ele>
        <time>2019-11-02T08:20:02Z</time>
      </trkpt>
      <trkpt lat="38.493925267830491" lon="-2.417016075924039">
        <ele>947</ele>
        <time>2019-11-02T08:20:05Z</time>
      </trkpt>
      <trkpt lat="38.493915209546685" lon="-2.417143145576119">
        <ele>947.20001220703125</ele>
        <time>2019-11-02T08:20:09Z</time>
      </trkpt>
      <trkpt lat="38.493901547044516" lon="-2.417300054803491">
        <ele>948.20001220703125</ele>
        <time>2019-11-02T08:20:14Z</time>
      </trkpt>
      <trkpt lat="38.493888135999441" lon="-2.417360739782453">
        <ele>948.5999755859375</ele>
        <time>2019-11-02T08:20:16Z</time>
      </trkpt>
      <trkpt lat="38.49386659450829" lon="-2.417619405314326">
        <ele>948.79998779296875</ele>
        <time>2019-11-02T08:20:24Z</time>
      </trkpt>
      <trkpt lat="38.493864247575402" lon="-2.417680257931352">
        <ele>949.20001220703125</ele>
        <time>2019-11-02T08:20:26Z</time>
      </trkpt>
      <trkpt lat="38.493848154321313" lon="-2.417799113318324">
        <ele>950.4000244140625</ele>
        <time>2019-11-02T08:20:30Z</time>
      </trkpt>
      <trkpt lat="38.493836335837841" lon="-2.417894080281258">
        <ele>950.79998779296875</ele>
        <time>2019-11-02T08:20:33Z</time>
      </trkpt>
      <trkpt lat="38.493806747719646" lon="-2.418088456615806">
        <ele>951.4000244140625</ele>
        <time>2019-11-02T08:20:39Z</time>
      </trkpt>
      <trkpt lat="38.493797359988093" lon="-2.418152997270226">
        <ele>951.5999755859375</ele>
        <time>2019-11-02T08:20:41Z</time>
      </trkpt>
      <trkpt lat="38.49378545768559" lon="-2.41827579215169">
        <ele>952.5999755859375</ele>
        <time>2019-11-02T08:20:45Z</time>
      </trkpt>
      <trkpt lat="38.493765844032168" lon="-2.418395904824138">
        <ele>953.79998779296875</ele>
        <time>2019-11-02T08:20:49Z</time>
      </trkpt>
      <trkpt lat="38.493762658908963" lon="-2.418426414951682">
        <ele>953.79998779296875</ele>
        <time>2019-11-02T08:20:50Z</time>
      </trkpt>
      <trkpt lat="38.493743129074574" lon="-2.418598076328635">
        <ele>954.79998779296875</ele>
        <time>2019-11-02T08:20:56Z</time>
      </trkpt>
      <trkpt lat="38.493735417723656" lon="-2.418632358312607">
        <ele>954.79998779296875</ele>
        <time>2019-11-02T08:20:57Z</time>
      </trkpt>
      <trkpt lat="38.493717228993773" lon="-2.418947517871857">
        <ele>955.79998779296875</ele>
        <time>2019-11-02T08:21:06Z</time>
      </trkpt>
      <trkpt lat="38.493834994733334" lon="-2.419043574482203">
        <ele>954.79998779296875</ele>
        <time>2019-11-02T08:21:11Z</time>
      </trkpt>
      <trkpt lat="38.493864247575402" lon="-2.419056398794055">
        <ele>954.5999755859375</ele>
        <time>2019-11-02T08:21:12Z</time>
      </trkpt>
      <trkpt lat="38.493984024971724" lon="-2.419116580858827">
        <ele>953.79998779296875</ele>
        <time>2019-11-02T08:21:16Z</time>
      </trkpt>
      <trkpt lat="38.49407035857439" lon="-2.419164357706904">
        <ele>953.5999755859375</ele>
        <time>2019-11-02T08:21:19Z</time>
      </trkpt>
      <trkpt lat="38.49428242072463" lon="-2.419262006878853">
        <ele>953</ele>
        <time>2019-11-02T08:21:26Z</time>
      </trkpt>
      <trkpt lat="38.494406640529633" lon="-2.419328056275845">
        <ele>952.5999755859375</ele>
        <time>2019-11-02T08:21:30Z</time>
      </trkpt>
      <trkpt lat="38.494541086256504" lon="-2.419401062652469">
        <ele>952.20001220703125</ele>
        <time>2019-11-02T08:21:34Z</time>
      </trkpt>
      <trkpt lat="38.494816347956657" lon="-2.419549254700541">
        <ele>952</ele>
        <time>2019-11-02T08:21:42Z</time>
      </trkpt>
      <trkpt lat="38.495057327672839" lon="-2.419671211391687">
        <ele>951.5999755859375</ele>
        <time>2019-11-02T08:21:49Z</time>
      </trkpt>
      <trkpt lat="38.495131591334939" lon="-2.419713540002704">
        <ele>951.4000244140625</ele>
        <time>2019-11-02T08:21:51Z</time>
      </trkpt>
      <trkpt lat="38.495472483336926" lon="-2.41995963267982">
        <ele>951.20001220703125</ele>
        <time>2019-11-02T08:22:01Z</time>
      </trkpt>
      <trkpt lat="38.495710110291839" lon="-2.420162810012698">
        <ele>950.5999755859375</ele>
        <time>2019-11-02T08:22:09Z</time>
      </trkpt>
      <trkpt lat="38.495770124718547" lon="-2.420240258798003">
        <ele>950.4000244140625</ele>
        <time>2019-11-02T08:22:12Z</time>
      </trkpt>
      <trkpt lat="38.495798707008362" lon="-2.420277306810021">
        <ele>950</ele>
        <time>2019-11-02T08:22:14Z</time>
      </trkpt>
      <trkpt lat="38.495819997042418" lon="-2.420320892706513">
        <ele>950</ele>
        <time>2019-11-02T08:22:16Z</time>
      </trkpt>
      <trkpt lat="38.495810860767961" lon="-2.420365819707513">
        <ele>949.79998779296875</ele>
        <time>2019-11-02T08:22:18Z</time>
      </trkpt>
      <trkpt lat="38.495765011757612" lon="-2.420421307906508">
        <ele>949.4000244140625</ele>
        <time>2019-11-02T08:22:21Z</time>
      </trkpt>
      <trkpt lat="38.495720084756613" lon="-2.42049808613956">
        <ele>949.20001220703125</ele>
        <time>2019-11-02T08:22:24Z</time>
      </trkpt>
      <trkpt lat="38.495627716183662" lon="-2.420638734474778">
        <ele>948.79998779296875</ele>
        <time>2019-11-02T08:22:30Z</time>
      </trkpt>
      <trkpt lat="38.495510369539261" lon="-2.420772342011333">
        <ele>948.20001220703125</ele>
        <time>2019-11-02T08:22:35Z</time>
      </trkpt>
      <trkpt lat="38.495333092287183" lon="-2.421022038906813">
        <ele>948</ele>
        <time>2019-11-02T08:22:42Z</time>
      </trkpt>
      <trkpt lat="38.495118515565991" lon="-2.421373659744859">
        <ele>947.20001220703125</ele>
        <time>2019-11-02T08:22:51Z</time>
      </trkpt>
      <trkpt lat="38.494965042918921" lon="-2.42160533554852">
        <ele>947</ele>
        <time>2019-11-02T08:22:58Z</time>
      </trkpt>
      <trkpt lat="38.494910979643464" lon="-2.421738356351852">
        <ele>947</ele>
        <time>2019-11-02T08:23:04Z</time>
      </trkpt>
      <trkpt lat="38.494919780641794" lon="-2.421856708824635">
        <ele>946</ele>
        <time>2019-11-02T08:23:09Z</time>
      </trkpt>
      <trkpt lat="38.494958505034447" lon="-2.421909347176552">
        <ele>945.5999755859375</ele>
        <time>2019-11-02T08:23:14Z</time>
      </trkpt>
      <trkpt lat="38.494986332952976" lon="-2.421936504542828">
        <ele>945.4000244140625</ele>
        <time>2019-11-02T08:23:22Z</time>
      </trkpt>
      <trkpt lat="38.494995050132275" lon="-2.421951675787568">
        <ele>945.4000244140625</ele>
        <time>2019-11-02T08:23:23Z</time>
      </trkpt>
      <trkpt lat="38.495079288259149" lon="-2.422080002725124">
        <ele>945.5999755859375</ele>
        <time>2019-11-02T08:23:30Z</time>
      </trkpt>
      <trkpt lat="38.495125472545624" lon="-2.422254765406251">
        <ele>945.79998779296875</ele>
        <time>2019-11-02T08:23:36Z</time>
      </trkpt>
      <trkpt lat="38.495132764801383" lon="-2.422481747344136">
        <ele>946.20001220703125</ele>
        <time>2019-11-02T08:23:44Z</time>
      </trkpt>
      <trkpt lat="38.495127651840448" lon="-2.422676039859653">
        <ele>945.5999755859375</ele>
        <time>2019-11-02T08:23:51Z</time>
      </trkpt>
      <trkpt lat="38.495091861113906" lon="-2.422872511669993">
        <ele>945.79998779296875</ele>
        <time>2019-11-02T08:23:58Z</time>
      </trkpt>
      <trkpt lat="38.495043832808733" lon="-2.422919785603881">
        <ele>946.4000244140625</ele>
        <time>2019-11-02T08:24:03Z</time>
      </trkpt>
      <trkpt lat="38.495065290480852" lon="-2.42291584610939">
        <ele>947</ele>
        <time>2019-11-02T08:24:14Z</time>
      </trkpt>
      <trkpt lat="38.495097141712904" lon="-2.422902267426252">
        <ele>946.79998779296875</ele>
        <time>2019-11-02T08:24:17Z</time>
      </trkpt>
      <trkpt lat="38.495128490030766" lon="-2.422926239669323">
        <ele>947</ele>
        <time>2019-11-02T08:24:19Z</time>
      </trkpt>
      <trkpt lat="38.495136871933937" lon="-2.422965383157134">
        <ele>947</ele>
        <time>2019-11-02T08:24:21Z</time>
      </trkpt>
      <trkpt lat="38.495137877762318" lon="-2.423021793365479">
        <ele>946.79998779296875</ele>
        <time>2019-11-02T08:24:24Z</time>
      </trkpt>
      <trkpt lat="38.49514827132225" lon="-2.423079712316394">
        <ele>946.5999755859375</ele>
        <time>2019-11-02T08:24:28Z</time>
      </trkpt>
      <trkpt lat="38.495156988501549" lon="-2.423090944066644">
        <ele>946.5999755859375</ele>
        <time>2019-11-02T08:24:29Z</time>
      </trkpt>
      <trkpt lat="38.495221110060811" lon="-2.423157496377826">
        <ele>946.79998779296875</ele>
        <time>2019-11-02T08:24:35Z</time>
      </trkpt>
      <trkpt lat="38.495293110609055" lon="-2.423239555209875">
        <ele>947.20001220703125</ele>
        <time>2019-11-02T08:24:40Z</time>
      </trkpt>
      <trkpt lat="38.495307695120573" lon="-2.423256319016218">
        <ele>947.20001220703125</ele>
        <time>2019-11-02T08:24:41Z</time>
      </trkpt>
      <trkpt lat="38.495425460860133" lon="-2.423353297635913">
        <ele>947.79998779296875</ele>
        <time>2019-11-02T08:24:48Z</time>
      </trkpt>
      <trkpt lat="38.495483715087175" lon="-2.423391016200185">
        <ele>948.20001220703125</ele>
        <time>2019-11-02T08:24:51Z</time>
      </trkpt>
      <trkpt lat="38.495564600452781" lon="-2.423445163294673">
        <ele>948.5999755859375</ele>
        <time>2019-11-02T08:24:55Z</time>
      </trkpt>
      <trkpt lat="38.495683372020721" lon="-2.423521019518375">
        <ele>948</ele>
        <time>2019-11-02T08:25:03Z</time>
      </trkpt>
      <trkpt lat="38.495689742267132" lon="-2.423516996204853">
        <ele>948</ele>
        <time>2019-11-02T08:25:04Z</time>
      </trkpt>
      <trkpt lat="38.49570382386446" lon="-2.423470392823219">
        <ele>948.20001220703125</ele>
        <time>2019-11-02T08:25:07Z</time>
      </trkpt>
      <trkpt lat="38.495726371183991" lon="-2.423388669267297">
        <ele>948.20001220703125</ele>
        <time>2019-11-02T08:25:10Z</time>
      </trkpt>
      <trkpt lat="38.495760234072804" lon="-2.423324631527066">
        <ele>947.79998779296875</ele>
        <time>2019-11-02T08:25:13Z</time>
      </trkpt>
      <trkpt lat="38.49580985493958" lon="-2.423265958204865">
        <ele>947.20001220703125</ele>
        <time>2019-11-02T08:25:17Z</time>
      </trkpt>
      <trkpt lat="38.495840700343251" lon="-2.423242824152112">
        <ele>947</ele>
        <time>2019-11-02T08:25:19Z</time>
      </trkpt>
      <trkpt lat="38.495940947905183" lon="-2.423246763646603">
        <ele>947</ele>
        <time>2019-11-02T08:25:24Z</time>
      </trkpt>
      <trkpt lat="38.495960393920541" lon="-2.423251792788506">
        <ele>947</ele>
        <time>2019-11-02T08:25:25Z</time>
      </trkpt>
      <trkpt lat="38.49611671641469" lon="-2.423288505524397">
        <ele>947.5999755859375</ele>
        <time>2019-11-02T08:25:33Z</time>
      </trkpt>
      <trkpt lat="38.496172707527876" lon="-2.423299737274647">
        <ele>947.79998779296875</ele>
        <time>2019-11-02T08:25:36Z</time>
      </trkpt>
      <trkpt lat="38.496196428313851" lon="-2.423333348706365">
        <ele>947.79998779296875</ele>
        <time>2019-11-02T08:25:38Z</time>
      </trkpt>
      <trkpt lat="38.496172875165939" lon="-2.42342546582222">
        <ele>948</ele>
        <time>2019-11-02T08:25:43Z</time>
      </trkpt>
      <trkpt lat="38.496138760820031" lon="-2.423448013141751">
        <ele>948.20001220703125</ele>
        <time>2019-11-02T08:25:45Z</time>
      </trkpt>
      <trkpt lat="38.496025940403342" lon="-2.423521857708693">
        <ele>949</ele>
        <time>2019-11-02T08:25:51Z</time>
      </trkpt>
      <trkpt lat="38.495926195755601" lon="-2.423658482730389">
        <ele>948.20001220703125</ele>
        <time>2019-11-02T08:25:58Z</time>
      </trkpt>
      <trkpt lat="38.495908258482814" lon="-2.423797035589814">
        <ele>948.4000244140625</ele>
        <time>2019-11-02T08:26:04Z</time>
      </trkpt>
      <trkpt lat="38.49593248218298" lon="-2.423935336992145">
        <ele>948.4000244140625</ele>
        <time>2019-11-02T08:26:10Z</time>
      </trkpt>
      <trkpt lat="38.495980845764279" lon="-2.424075733870268">
        <ele>948.5999755859375</ele>
        <time>2019-11-02T08:26:16Z</time>
      </trkpt>
      <trkpt lat="38.496060557663441" lon="-2.424257202073932">
        <ele>948.4000244140625</ele>
        <time>2019-11-02T08:26:24Z</time>
      </trkpt>
      <trkpt lat="38.49613088183105" lon="-2.424431797116995">
        <ele>948.5999755859375</ele>
        <time>2019-11-02T08:26:31Z</time>
      </trkpt>
      <trkpt lat="38.496201289817691" lon="-2.424624161794782">
        <ele>948.79998779296875</ele>
        <time>2019-11-02T08:26:39Z</time>
      </trkpt>
      <trkpt lat="38.496294328942895" lon="-2.424824070185423">
        <ele>949</ele>
        <time>2019-11-02T08:26:48Z</time>
      </trkpt>
      <trkpt lat="38.496340597048402" lon="-2.424923731014132">
        <ele>949.20001220703125</ele>
        <time>2019-11-02T08:26:53Z</time>
      </trkpt>
      <trkpt lat="38.496365072205663" lon="-2.424956252798438">
        <ele>949.4000244140625</ele>
        <time>2019-11-02T08:26:55Z</time>
      </trkpt>
      <trkpt lat="38.496377058327198" lon="-2.424967400729656">
        <ele>949.4000244140625</ele>
        <time>2019-11-02T08:26:56Z</time>
      </trkpt>
      <trkpt lat="38.496379991993308" lon="-2.424971843138337">
        <ele>949.4000244140625</ele>
        <time>2019-11-02T08:26:59Z</time>
      </trkpt>
      <trkpt lat="38.49638007581234" lon="-2.424976285547018">
        <ele>949.79998779296875</ele>
        <time>2019-11-02T08:27:10Z</time>
      </trkpt>
      <trkpt lat="38.49638300947845" lon="-2.424981063231826">
        <ele>949.5999755859375</ele>
        <time>2019-11-02T08:27:14Z</time>
      </trkpt>
      <trkpt lat="38.496398096904159" lon="-2.425020458176732">
        <ele>949.4000244140625</ele>
        <time>2019-11-02T08:27:17Z</time>
      </trkpt>
      <trkpt lat="38.49641234613955" lon="-2.425049291923642">
        <ele>949</ele>
        <time>2019-11-02T08:27:23Z</time>
      </trkpt>
      <trkpt lat="38.4964201413095" lon="-2.425049711018801">
        <ele>949.5999755859375</ele>
        <time>2019-11-02T08:27:41Z</time>
      </trkpt>
      <trkpt lat="38.496440844610333" lon="-2.42508877068758">
        <ele>950</ele>
        <time>2019-11-02T08:27:52Z</time>
      </trkpt>
      <trkpt lat="38.496458195149899" lon="-2.425198154523969">
        <ele>950</ele>
        <time>2019-11-02T08:27:58Z</time>
      </trkpt>
      <trkpt lat="38.496475629508495" lon="-2.425285410135984">
        <ele>950.4000244140625</ele>
        <time>2019-11-02T08:28:04Z</time>
      </trkpt>
      <trkpt lat="38.496536398306489" lon="-2.425364954397082">
        <ele>950.5999755859375</ele>
        <time>2019-11-02T08:28:10Z</time>
      </trkpt>
      <trkpt lat="38.496610913425684" lon="-2.425583135336637">
        <ele>950.20001220703125</ele>
        <time>2019-11-02T08:28:18Z</time>
      </trkpt>
      <trkpt lat="38.496664306148887" lon="-2.425788324326277">
        <ele>950.5999755859375</ele>
        <time>2019-11-02T08:28:25Z</time>
      </trkpt>
      <trkpt lat="38.496732283383608" lon="-2.426004661247134">
        <ele>950.20001220703125</ele>
        <time>2019-11-02T08:28:32Z</time>
      </trkpt>
      <trkpt lat="38.496741084381938" lon="-2.426084708422422">
        <ele>950.5999755859375</ele>
        <time>2019-11-02T08:28:36Z</time>
      </trkpt>
      <trkpt lat="38.49673924036324" lon="-2.426101723685861">
        <ele>950.5999755859375</ele>
        <time>2019-11-02T08:28:38Z</time>
      </trkpt>
      <trkpt lat="38.496742006391287" lon="-2.426101639866829">
        <ele>951.20001220703125</ele>
        <time>2019-11-02T08:28:50Z</time>
      </trkpt>
      <trkpt lat="38.49674217402935" lon="-2.426102897152305">
        <ele>951.20001220703125</ele>
        <time>2019-11-02T08:29:15Z</time>
      </trkpt>
      <trkpt lat="38.496741754934192" lon="-2.426107507199049">
        <ele>951.4000244140625</ele>
        <time>2019-11-02T08:29:48Z</time>
      </trkpt>
      <trkpt lat="38.496767403557897" lon="-2.426158217713237">
        <ele>951</ele>
        <time>2019-11-02T08:29:55Z</time>
      </trkpt>
      <trkpt lat="38.496779138222337" lon="-2.426292663440108">
        <ele>951.20001220703125</ele>
        <time>2019-11-02T08:30:02Z</time>
      </trkpt>
      <trkpt lat="38.496754160150886" lon="-2.426432725042105">
        <ele>951.4000244140625</ele>
        <time>2019-11-02T08:30:10Z</time>
      </trkpt>
      <trkpt lat="38.496737228706479" lon="-2.426484860479832">
        <ele>951.4000244140625</ele>
        <time>2019-11-02T08:30:18Z</time>
      </trkpt>
      <trkpt lat="38.496728679165244" lon="-2.426502881571651">
        <ele>951</ele>
        <time>2019-11-02T08:30:23Z</time>
      </trkpt>
      <trkpt lat="38.496706215664744" lon="-2.42655610665679">
        <ele>950.5999755859375</ele>
        <time>2019-11-02T08:30:28Z</time>
      </trkpt>
      <trkpt lat="38.496608315035701" lon="-2.426750063896179">
        <ele>951.20001220703125</ele>
        <time>2019-11-02T08:30:35Z</time>
      </trkpt>
      <trkpt lat="38.496492141857743" lon="-2.426943769678473">
        <ele>951.20001220703125</ele>
        <time>2019-11-02T08:30:42Z</time>
      </trkpt>
      <trkpt lat="38.496392145752907" lon="-2.42711266502738">
        <ele>951.5999755859375</ele>
        <time>2019-11-02T08:30:49Z</time>
      </trkpt>
      <trkpt lat="38.49638644605875" lon="-2.427225150167942">
        <ele>951.79998779296875</ele>
        <time>2019-11-02T08:30:53Z</time>
      </trkpt>
      <trkpt lat="38.496394408866763" lon="-2.427294636145234">
        <ele>951.79998779296875</ele>
        <time>2019-11-02T08:30:56Z</time>
      </trkpt>
      <trkpt lat="38.496400527656078" lon="-2.427319781854749">
        <ele>952.4000244140625</ele>
        <time>2019-11-02T08:30:59Z</time>
      </trkpt>
      <trkpt lat="38.496401030570269" lon="-2.427320117130876">
        <ele>952.5999755859375</ele>
        <time>2019-11-02T08:31:15Z</time>
      </trkpt>
      <trkpt lat="38.496399354189634" lon="-2.427330343052745">
        <ele>952.5999755859375</ele>
        <time>2019-11-02T08:31:22Z</time>
      </trkpt>
      <trkpt lat="38.496399186551571" lon="-2.427330175414681">
        <ele>952.79998779296875</ele>
        <time>2019-11-02T08:31:25Z</time>
      </trkpt>
      <trkpt lat="38.496391139924526" lon="-2.427334114909172">
        <ele>952.4000244140625</ele>
        <time>2019-11-02T08:31:34Z</time>
      </trkpt>
      <trkpt lat="38.496371358633041" lon="-2.427357751876116">
        <ele>952.4000244140625</ele>
        <time>2019-11-02T08:31:36Z</time>
      </trkpt>
      <trkpt lat="38.496371861547232" lon="-2.427473841235042">
        <ele>952.5999755859375</ele>
        <time>2019-11-02T08:31:41Z</time>
      </trkpt>
      <trkpt lat="38.496393235400319" lon="-2.427618931978941">
        <ele>952</ele>
        <time>2019-11-02T08:31:46Z</time>
      </trkpt>
      <trkpt lat="38.496398515999317" lon="-2.427843986079097">
        <ele>952.4000244140625</ele>
        <time>2019-11-02T08:31:55Z</time>
      </trkpt>
      <trkpt lat="38.496394576504827" lon="-2.427895199507475">
        <ele>952.5999755859375</ele>
        <time>2019-11-02T08:31:58Z</time>
      </trkpt>
      <trkpt lat="38.496379489079118" lon="-2.427908442914486">
        <ele>952.79998779296875</ele>
        <time>2019-11-02T08:32:00Z</time>
      </trkpt>
      <trkpt lat="38.496357025578618" lon="-2.427935684099793">
        <ele>953</ele>
        <time>2019-11-02T08:32:02Z</time>
      </trkpt>
      <trkpt lat="38.496364569291472" lon="-2.42798144929111">
        <ele>952.79998779296875</ele>
        <time>2019-11-02T08:32:04Z</time>
      </trkpt>
      <trkpt lat="38.496381584554911" lon="-2.428060239180923">
        <ele>952.4000244140625</ele>
        <time>2019-11-02T08:32:08Z</time>
      </trkpt>
      <trkpt lat="38.496395079419017" lon="-2.428104495629668">
        <ele>952.4000244140625</ele>
        <time>2019-11-02T08:32:10Z</time>
      </trkpt>
      <trkpt lat="38.496456015855074" lon="-2.428283030167222">
        <ele>953</ele>
        <time>2019-11-02T08:32:19Z</time>
      </trkpt>
      <trkpt lat="38.496508151292801" lon="-2.428485788404942">
        <ele>953.20001220703125</ele>
        <time>2019-11-02T08:32:28Z</time>
      </trkpt>
      <trkpt lat="38.49655450321734" lon="-2.428630208596587">
        <ele>953.4000244140625</ele>
        <time>2019-11-02T08:32:34Z</time>
      </trkpt>
      <trkpt lat="38.496616194024682" lon="-2.428842186927795">
        <ele>953.4000244140625</ele>
        <time>2019-11-02T08:32:42Z</time>
      </trkpt>
      <trkpt lat="38.49669087678194" lon="-2.429095404222608">
        <ele>953.4000244140625</ele>
        <time>2019-11-02T08:32:51Z</time>
      </trkpt>
      <trkpt lat="38.49675826728344" lon="-2.429248122498393">
        <ele>953.5999755859375</ele>
        <time>2019-11-02T08:32:57Z</time>
      </trkpt>
      <trkpt lat="38.496817778795958" lon="-2.429435877129436">
        <ele>953.5999755859375</ele>
        <time>2019-11-02T08:33:04Z</time>
      </trkpt>
      <trkpt lat="38.496842505410314" lon="-2.429604521021247">
        <ele>954.20001220703125</ele>
        <time>2019-11-02T08:33:10Z</time>
      </trkpt>
      <trkpt lat="38.496844433248043" lon="-2.429662942886353">
        <ele>954.20001220703125</ele>
        <time>2019-11-02T08:33:12Z</time>
      </trkpt>
      <trkpt lat="38.496826244518161" lon="-2.429897803813219">
        <ele>954.5999755859375</ele>
        <time>2019-11-02T08:33:20Z</time>
      </trkpt>
      <trkpt lat="38.496768828481436" lon="-2.430129731073976">
        <ele>954.79998779296875</ele>
        <time>2019-11-02T08:33:28Z</time>
      </trkpt>
      <trkpt lat="38.496707556769252" lon="-2.430287310853601">
        <ele>955.20001220703125</ele>
        <time>2019-11-02T08:33:34Z</time>
      </trkpt>
      <trkpt lat="38.496704623103142" lon="-2.430315222591162">
        <ele>955.20001220703125</ele>
        <time>2019-11-02T08:33:35Z</time>
      </trkpt>
      <trkpt lat="38.496729349717498" lon="-2.430402897298336">
        <ele>955</ele>
        <time>2019-11-02T08:33:38Z</time>
      </trkpt>
      <trkpt lat="38.496735049411654" lon="-2.430546144023538">
        <ele>954.79998779296875</ele>
        <time>2019-11-02T08:33:43Z</time>
      </trkpt>
      <trkpt lat="38.496669586747885" lon="-2.43065963499248">
        <ele>954.5999755859375</ele>
        <time>2019-11-02T08:33:50Z</time>
      </trkpt>
      <trkpt lat="38.496664725244045" lon="-2.43082819506526">
        <ele>955</ele>
        <time>2019-11-02T08:33:57Z</time>
      </trkpt>
      <trkpt lat="38.49666933529079" lon="-2.430883683264256">
        <ele>955</ele>
        <time>2019-11-02T08:33:59Z</time>
      </trkpt>
      <trkpt lat="38.4966463688761" lon="-2.430969765409827">
        <ele>955</ele>
        <time>2019-11-02T08:34:02Z</time>
      </trkpt>
      <trkpt lat="38.496586857363582" lon="-2.431176966056228">
        <ele>954.79998779296875</ele>
        <time>2019-11-02T08:34:09Z</time>
      </trkpt>
      <trkpt lat="38.496529022231698" lon="-2.431369163095951">
        <ele>954.5999755859375</ele>
        <time>2019-11-02T08:34:15Z</time>
      </trkpt>
      <trkpt lat="38.496493399143219" lon="-2.431531017646194">
        <ele>955.4000244140625</ele>
        <time>2019-11-02T08:34:20Z</time>
      </trkpt>
      <trkpt lat="38.496495075523853" lon="-2.431569071486592">
        <ele>955.5999755859375</ele>
        <time>2019-11-02T08:34:21Z</time>
      </trkpt>
      <trkpt lat="38.496481580659747" lon="-2.431805524975061">
        <ele>955.4000244140625</ele>
        <time>2019-11-02T08:34:28Z</time>
      </trkpt>
      <trkpt lat="38.496501026675105" lon="-2.432037955150008">
        <ele>955.20001220703125</ele>
        <time>2019-11-02T08:34:35Z</time>
      </trkpt>
      <trkpt lat="38.496533213183284" lon="-2.43235420435667">
        <ele>955.79998779296875</ele>
        <time>2019-11-02T08:34:44Z</time>
      </trkpt>
      <trkpt lat="38.496523657813668" lon="-2.432657545432448">
        <ele>955.79998779296875</ele>
        <time>2019-11-02T08:34:53Z</time>
      </trkpt>
      <trkpt lat="38.496502367779613" lon="-2.432941105216742">
        <ele>955.5999755859375</ele>
        <time>2019-11-02T08:35:02Z</time>
      </trkpt>
      <trkpt lat="38.496516700834036" lon="-2.433118047192693">
        <ele>956</ele>
        <time>2019-11-02T08:35:08Z</time>
      </trkpt>
      <trkpt lat="38.496506810188293" lon="-2.433282919228077">
        <ele>955.4000244140625</ele>
        <time>2019-11-02T08:35:13Z</time>
      </trkpt>
      <trkpt lat="38.496460793539882" lon="-2.433527838438749">
        <ele>955.5999755859375</ele>
        <time>2019-11-02T08:35:21Z</time>
      </trkpt>
      <trkpt lat="38.496432714164257" lon="-2.433675359934568">
        <ele>956</ele>
        <time>2019-11-02T08:35:27Z</time>
      </trkpt>
      <trkpt lat="38.496500691398978" lon="-2.433731351047754">
        <ele>956.20001220703125</ele>
        <time>2019-11-02T08:35:32Z</time>
      </trkpt>
      <trkpt lat="38.496532877907157" lon="-2.43374484591186">
        <ele>956.4000244140625</ele>
        <time>2019-11-02T08:35:34Z</time>
      </trkpt>
      <trkpt lat="38.496650811284781" lon="-2.43382103741169">
        <ele>956.5999755859375</ele>
        <time>2019-11-02T08:35:40Z</time>
      </trkpt>
      <trkpt lat="38.496846025809646" lon="-2.433914244174957">
        <ele>956.5999755859375</ele>
        <time>2019-11-02T08:35:48Z</time>
      </trkpt>
      <trkpt lat="38.497041910886765" lon="-2.434013905003667">
        <ele>956.5999755859375</ele>
        <time>2019-11-02T08:35:57Z</time>
      </trkpt>
      <trkpt lat="38.497175350785255" lon="-2.434076685458422">
        <ele>957.5999755859375</ele>
        <time>2019-11-02T08:36:03Z</time>
      </trkpt>
      <trkpt lat="38.497265372425318" lon="-2.434120858088136">
        <ele>958.5999755859375</ele>
        <time>2019-11-02T08:36:07Z</time>
      </trkpt>
      <trkpt lat="38.497404679656029" lon="-2.43416553363204">
        <ele>958.79998779296875</ele>
        <time>2019-11-02T08:36:13Z</time>
      </trkpt>
      <trkpt lat="38.497429322451353" lon="-2.434174921363592">
        <ele>958.79998779296875</ele>
        <time>2019-11-02T08:36:14Z</time>
      </trkpt>
      <trkpt lat="38.497659405693412" lon="-2.434239378198981">
        <ele>959.20001220703125</ele>
        <time>2019-11-02T08:36:23Z</time>
      </trkpt>
      <trkpt lat="38.497808016836643" lon="-2.434267373755574">
        <ele>960</ele>
        <time>2019-11-02T08:36:29Z</time>
      </trkpt>
      <trkpt lat="38.497832659631968" lon="-2.434275252744555">
        <ele>960.20001220703125</ele>
        <time>2019-11-02T08:36:30Z</time>
      </trkpt>
      <trkpt lat="38.498081853613257" lon="-2.434333171695471">
        <ele>960.5999755859375</ele>
        <time>2019-11-02T08:36:40Z</time>
      </trkpt>
      <trkpt lat="38.498150501400232" lon="-2.434348175302148">
        <ele>961.20001220703125</ele>
        <time>2019-11-02T08:36:43Z</time>
      </trkpt>
      <trkpt lat="38.498221915215254" lon="-2.434370554983616">
        <ele>961.5999755859375</ele>
        <time>2019-11-02T08:36:46Z</time>
      </trkpt>
      <trkpt lat="38.498396845534444" lon="-2.434403328225017">
        <ele>962</ele>
        <time>2019-11-02T08:36:53Z</time>
      </trkpt>
      <trkpt lat="38.498478904366493" lon="-2.434422941878438">
        <ele>962.20001220703125</ele>
        <time>2019-11-02T08:36:56Z</time>
      </trkpt>
      <trkpt lat="38.498634723946452" lon="-2.434456301853061">
        <ele>963</ele>
        <time>2019-11-02T08:37:02Z</time>
      </trkpt>
      <trkpt lat="38.498679399490356" lon="-2.43446703068912">
        <ele>963.20001220703125</ele>
        <time>2019-11-02T08:37:04Z</time>
      </trkpt>
      <trkpt lat="38.498730612918735" lon="-2.434477005153894">
        <ele>963.79998779296875</ele>
        <time>2019-11-02T08:37:08Z</time>
      </trkpt>
      <trkpt lat="38.498730612918735" lon="-2.434477591887116">
        <ele>964.20001220703125</ele>
        <time>2019-11-02T08:37:19Z</time>
      </trkpt>
      <trkpt lat="38.498730612918735" lon="-2.434477675706148">
        <ele>964.4000244140625</ele>
        <time>2019-11-02T08:37:21Z</time>
      </trkpt>
      <trkpt lat="38.498730361461639" lon="-2.434477591887116">
        <ele>964.79998779296875</ele>
        <time>2019-11-02T08:37:45Z</time>
      </trkpt>
      <trkpt lat="38.498730193823576" lon="-2.434475915506482">
        <ele>964.4000244140625</ele>
        <time>2019-11-02T08:38:13Z</time>
      </trkpt>
      <trkpt lat="38.498730361461639" lon="-2.434474909678102">
        <ele>964.79998779296875</ele>
        <time>2019-11-02T08:38:46Z</time>
      </trkpt>
      <trkpt lat="38.498730529099703" lon="-2.434474574401975">
        <ele>964.20001220703125</ele>
        <time>2019-11-02T08:39:18Z</time>
      </trkpt>
      <trkpt lat="38.498730529099703" lon="-2.434473233297467">
        <ele>964.4000244140625</ele>
        <time>2019-11-02T08:39:49Z</time>
      </trkpt>
      <trkpt lat="38.498730948194861" lon="-2.434472227469087">
        <ele>964.4000244140625</ele>
        <time>2019-11-02T08:40:39Z</time>
      </trkpt>
      <trkpt lat="38.49873086437583" lon="-2.434471724554896">
        <ele>963.79998779296875</ele>
        <time>2019-11-02T08:40:56Z</time>
      </trkpt>
      <trkpt lat="38.498730361461639" lon="-2.434471305459738">
        <ele>964.79998779296875</ele>
        <time>2019-11-02T08:41:10Z</time>
      </trkpt>
      <trkpt lat="38.498735390603542" lon="-2.434473903849721">
        <ele>964.4000244140625</ele>
        <time>2019-11-02T08:41:16Z</time>
      </trkpt>
      <trkpt lat="38.498732540756464" lon="-2.434471305459738">
        <ele>964.4000244140625</ele>
        <time>2019-11-02T08:41:28Z</time>
      </trkpt>
      <trkpt lat="38.498733881860971" lon="-2.43446895852685">
        <ele>964.20001220703125</ele>
        <time>2019-11-02T08:41:41Z</time>
      </trkpt>
      <trkpt lat="38.498733378946781" lon="-2.434469293802977">
        <ele>963.79998779296875</ele>
        <time>2019-11-02T08:42:05Z</time>
      </trkpt>
      <trkpt lat="38.498734133318067" lon="-2.434469293802977">
        <ele>964.20001220703125</ele>
        <time>2019-11-02T08:42:25Z</time>
      </trkpt>
      <trkpt lat="38.498733462765813" lon="-2.434470215812325">
        <ele>964</ele>
        <time>2019-11-02T08:42:35Z</time>
      </trkpt>
      <trkpt lat="38.498746789991856" lon="-2.434481447562575">
        <ele>964</ele>
        <time>2019-11-02T08:42:45Z</time>
      </trkpt>
      <trkpt lat="38.498747628182173" lon="-2.434480106458068">
        <ele>964.79998779296875</ele>
        <time>2019-11-02T08:42:53Z</time>
      </trkpt>
      <trkpt lat="38.498790627345443" lon="-2.434492595493793">
        <ele>964.5999755859375</ele>
        <time>2019-11-02T08:43:00Z</time>
      </trkpt>
      <trkpt lat="38.498836727812886" lon="-2.434505503624678">
        <ele>964.5999755859375</ele>
        <time>2019-11-02T08:43:07Z</time>
      </trkpt>
      <trkpt lat="38.498873272910714" lon="-2.434512041509151">
        <ele>965</ele>
        <time>2019-11-02T08:43:14Z</time>
      </trkpt>
      <trkpt lat="38.498900011181831" lon="-2.434519585222006">
        <ele>965.20001220703125</ele>
        <time>2019-11-02T08:43:16Z</time>
      </trkpt>
      <trkpt lat="38.498936807736754" lon="-2.434561494737864">
        <ele>965.4000244140625</ele>
        <time>2019-11-02T08:43:19Z</time>
      </trkpt>
      <trkpt lat="38.499013669788837" lon="-2.434579012915492">
        <ele>966</ele>
        <time>2019-11-02T08:43:24Z</time>
      </trkpt>
      <trkpt lat="38.49902406334877" lon="-2.434577504172921">
        <ele>966.20001220703125</ele>
        <time>2019-11-02T08:43:25Z</time>
      </trkpt>
      <trkpt lat="38.499070666730404" lon="-2.434558309614658">
        <ele>967.4000244140625</ele>
        <time>2019-11-02T08:43:29Z</time>
      </trkpt>
      <trkpt lat="38.499091705307364" lon="-2.434545736759901">
        <ele>967.5999755859375</ele>
        <time>2019-11-02T08:43:31Z</time>
      </trkpt>
      <trkpt lat="38.499103272333741" lon="-2.434543976560235">
        <ele>967.79998779296875</ele>
        <time>2019-11-02T08:43:32Z</time>
      </trkpt>
      <trkpt lat="38.499164879322052" lon="-2.434540120884776">
        <ele>968.5999755859375</ele>
        <time>2019-11-02T08:43:37Z</time>
      </trkpt>
      <trkpt lat="38.499199161306024" lon="-2.434551184996963">
        <ele>969.79998779296875</ele>
        <time>2019-11-02T08:43:40Z</time>
      </trkpt>
      <trkpt lat="38.499254900962114" lon="-2.43459602817893">
        <ele>970.79998779296875</ele>
        <time>2019-11-02T08:43:46Z</time>
      </trkpt>
      <trkpt lat="38.499286836013198" lon="-2.434612289071083">
        <ele>971.4000244140625</ele>
        <time>2019-11-02T08:43:49Z</time>
      </trkpt>
      <trkpt lat="38.49930846132338" lon="-2.434622347354889">
        <ele>972</ele>
        <time>2019-11-02T08:43:51Z</time>
      </trkpt>
      <trkpt lat="38.499362859874964" lon="-2.434648163616657">
        <ele>973</ele>
        <time>2019-11-02T08:43:56Z</time>
      </trkpt>
      <trkpt lat="38.499394124373794" lon="-2.434657802805305">
        <ele>973.5999755859375</ele>
        <time>2019-11-02T08:43:59Z</time>
      </trkpt>
      <trkpt lat="38.499469645321369" lon="-2.434686720371246">
        <ele>974.20001220703125</ele>
        <time>2019-11-02T08:44:06Z</time>
      </trkpt>
      <trkpt lat="38.499481296166778" lon="-2.434689737856388">
        <ele>974.4000244140625</ele>
        <time>2019-11-02T08:44:07Z</time>
      </trkpt>
      <trkpt lat="38.499517254531384" lon="-2.434699628502131">
        <ele>973.20001220703125</ele>
        <time>2019-11-02T08:44:10Z</time>
      </trkpt>
      <trkpt lat="38.499572239816189" lon="-2.434721672907472">
        <ele>976.4000244140625</ele>
        <time>2019-11-02T08:44:15Z</time>
      </trkpt>
      <trkpt lat="38.499585231766105" lon="-2.434724941849709">
        <ele>976.5999755859375</ele>
        <time>2019-11-02T08:44:16Z</time>
      </trkpt>
      <trkpt lat="38.499659243971109" lon="-2.434743130579591">
        <ele>977.5999755859375</ele>
        <time>2019-11-02T08:44:23Z</time>
      </trkpt>
      <trkpt lat="38.499669386073947" lon="-2.434745477512479">
        <ele>978</ele>
        <time>2019-11-02T08:44:24Z</time>
      </trkpt>
      <trkpt lat="38.499778266996145" lon="-2.434751931577921">
        <ele>978.79998779296875</ele>
        <time>2019-11-02T08:44:33Z</time>
      </trkpt>
      <trkpt lat="38.499792013317347" lon="-2.434751931577921">
        <ele>978.79998779296875</ele>
        <time>2019-11-02T08:44:34Z</time>
      </trkpt>
      <trkpt lat="38.499835850670934" lon="-2.434753943234682">
        <ele>979.79998779296875</ele>
        <time>2019-11-02T08:44:37Z</time>
      </trkpt>
      <trkpt lat="38.499886728823185" lon="-2.434758385643363">
        <ele>980.79998779296875</ele>
        <time>2019-11-02T08:44:41Z</time>
      </trkpt>
      <trkpt lat="38.499924447387457" lon="-2.434760984033346">
        <ele>981.20001220703125</ele>
        <time>2019-11-02T08:44:44Z</time>
      </trkpt>
      <trkpt lat="38.499991502612829" lon="-2.434765510261059">
        <ele>981.79998779296875</ele>
        <time>2019-11-02T08:44:49Z</time>
      </trkpt>
      <trkpt lat="38.500031903386116" lon="-2.434766935184598">
        <ele>982.20001220703125</ele>
        <time>2019-11-02T08:44:52Z</time>
      </trkpt>
      <trkpt lat="38.500099796801805" lon="-2.434759307652712">
        <ele>983</ele>
        <time>2019-11-02T08:44:57Z</time>
      </trkpt>
      <trkpt lat="38.500166181474924" lon="-2.434742543846369">
        <ele>983.5999755859375</ele>
        <time>2019-11-02T08:45:02Z</time>
      </trkpt>
      <trkpt lat="38.500275732949376" lon="-2.434709602966905">
        <ele>983.20001220703125</ele>
        <time>2019-11-02T08:45:10Z</time>
      </trkpt>
      <trkpt lat="38.500341698527336" lon="-2.434706082567573">
        <ele>984.20001220703125</ele>
        <time>2019-11-02T08:45:15Z</time>
      </trkpt>
      <trkpt lat="38.500390565022826" lon="-2.434715637937188">
        <ele>984.79998779296875</ele>
        <time>2019-11-02T08:45:19Z</time>
      </trkpt>
      <trkpt lat="38.500443203374743" lon="-2.434729216620326">
        <ele>985.20001220703125</ele>
        <time>2019-11-02T08:45:23Z</time>
      </trkpt>
      <trkpt lat="38.50049827247858" lon="-2.434733742848039">
        <ele>986.20001220703125</ele>
        <time>2019-11-02T08:45:27Z</time>
      </trkpt>
      <trkpt lat="38.500512102618814" lon="-2.434734329581261">
        <ele>986.4000244140625</ele>
        <time>2019-11-02T08:45:28Z</time>
      </trkpt>
      <trkpt lat="38.500643447041512" lon="-2.434738604351878">
        <ele>987.20001220703125</ele>
        <time>2019-11-02T08:45:38Z</time>
      </trkpt>
      <trkpt lat="38.500657361000776" lon="-2.434739358723164">
        <ele>987.4000244140625</ele>
        <time>2019-11-02T08:45:39Z</time>
      </trkpt>
      <trkpt lat="38.500763140618801" lon="-2.434749500826001">
        <ele>988.4000244140625</ele>
        <time>2019-11-02T08:45:46Z</time>
      </trkpt>
      <trkpt lat="38.500778144225478" lon="-2.434750003740191">
        <ele>988.5999755859375</ele>
        <time>2019-11-02T08:45:47Z</time>
      </trkpt>
      <trkpt lat="38.500882834196091" lon="-2.434745226055384">
        <ele>989.5999755859375</ele>
        <time>2019-11-02T08:45:54Z</time>
      </trkpt>
      <trkpt lat="38.500976208597422" lon="-2.434714129194617">
        <ele>990.5999755859375</ele>
        <time>2019-11-02T08:46:01Z</time>
      </trkpt>
      <trkpt lat="38.501003785058856" lon="-2.434704573825002">
        <ele>990.79998779296875</ele>
        <time>2019-11-02T08:46:03Z</time>
      </trkpt>
      <trkpt lat="38.501139488071203" lon="-2.434629471972585">
        <ele>991.4000244140625</ele>
        <time>2019-11-02T08:46:13Z</time>
      </trkpt>
      <trkpt lat="38.501183073967695" lon="-2.434605835005641">
        <ele>991.5999755859375</ele>
        <time>2019-11-02T08:46:16Z</time>
      </trkpt>
      <trkpt lat="38.501266809180379" lon="-2.434565434232354">
        <ele>992.20001220703125</ele>
        <time>2019-11-02T08:46:21Z</time>
      </trkpt>
      <trkpt lat="38.501445930451155" lon="-2.434520423412323">
        <ele>992.79998779296875</ele>
        <time>2019-11-02T08:46:30Z</time>
      </trkpt>
      <trkpt lat="38.501598564907908" lon="-2.43457306176424">
        <ele>993</ele>
        <time>2019-11-02T08:46:37Z</time>
      </trkpt>
      <trkpt lat="38.501725299283862" lon="-2.434643972665071">
        <ele>993.4000244140625</ele>
        <time>2019-11-02T08:46:44Z</time>
      </trkpt>
      <trkpt lat="38.501925794407725" lon="-2.434824267402291">
        <ele>993.4000244140625</ele>
        <time>2019-11-02T08:46:54Z</time>
      </trkpt>
      <trkpt lat="38.502048086374998" lon="-2.434974890202284">
        <ele>993.79998779296875</ele>
        <time>2019-11-02T08:47:02Z</time>
      </trkpt>
      <trkpt lat="38.502078764140606" lon="-2.435005819424987">
        <ele>993.79998779296875</ele>
        <time>2019-11-02T08:47:04Z</time>
      </trkpt>
      <trkpt lat="38.502216814085841" lon="-2.435089889913797">
        <ele>994.4000244140625</ele>
        <time>2019-11-02T08:47:12Z</time>
      </trkpt>
      <trkpt lat="38.502293759956956" lon="-2.435117466375232">
        <ele>994.79998779296875</ele>
        <time>2019-11-02T08:47:17Z</time>
      </trkpt>
      <trkpt lat="38.502362407743931" lon="-2.435147138312459">
        <ele>995</ele>
        <time>2019-11-02T08:47:21Z</time>
      </trkpt>
      <trkpt lat="38.502394845709205" lon="-2.435154933482409">
        <ele>995.20001220703125</ele>
        <time>2019-11-02T08:47:23Z</time>
      </trkpt>
      <trkpt lat="38.502524178475142" lon="-2.435178151354194">
        <ele>995.79998779296875</ele>
        <time>2019-11-02T08:47:30Z</time>
      </trkpt>
      <trkpt lat="38.502636412158608" lon="-2.435190975666046">
        <ele>995.4000244140625</ele>
        <time>2019-11-02T08:47:35Z</time>
      </trkpt>
      <trkpt lat="38.502747640013695" lon="-2.435249481350183">
        <ele>995.5999755859375</ele>
        <time>2019-11-02T08:47:40Z</time>
      </trkpt>
      <trkpt lat="38.502878397703171" lon="-2.435325505211949">
        <ele>995.20001220703125</ele>
        <time>2019-11-02T08:47:47Z</time>
      </trkpt>
      <trkpt lat="38.503010077401996" lon="-2.435375628992915">
        <ele>995.20001220703125</ele>
        <time>2019-11-02T08:47:56Z</time>
      </trkpt>
      <trkpt lat="38.503095991909504" lon="-2.435432206839323">
        <ele>995</ele>
        <time>2019-11-02T08:48:03Z</time>
      </trkpt>
      <trkpt lat="38.50318618118763" lon="-2.435466907918453">
        <ele>995.5999755859375</ele>
        <time>2019-11-02T08:48:09Z</time>
      </trkpt>
      <trkpt lat="38.503235215321183" lon="-2.435467159375548">
        <ele>996</ele>
        <time>2019-11-02T08:48:13Z</time>
      </trkpt>
      <trkpt lat="38.503308137878776" lon="-2.435430698096752">
        <ele>996.4000244140625</ele>
        <time>2019-11-02T08:48:18Z</time>
      </trkpt>
      <trkpt lat="38.503452306613326" lon="-2.435369594022632">
        <ele>996.4000244140625</ele>
        <time>2019-11-02T08:48:26Z</time>
      </trkpt>
      <trkpt lat="38.503543417900801" lon="-2.435350567102432">
        <ele>997.20001220703125</ele>
        <time>2019-11-02T08:48:31Z</time>
      </trkpt>
      <trkpt lat="38.503619441762567" lon="-2.435333887115121">
        <ele>997.5999755859375</ele>
        <time>2019-11-02T08:48:35Z</time>
      </trkpt>
      <trkpt lat="38.503667889162898" lon="-2.435327935963869">
        <ele>998.4000244140625</ele>
        <time>2019-11-02T08:48:38Z</time>
      </trkpt>
      <trkpt lat="38.503733351826668" lon="-2.435316201299429">
        <ele>998.5999755859375</ele>
        <time>2019-11-02T08:48:42Z</time>
      </trkpt>
      <trkpt lat="38.503838796168566" lon="-2.435291474685073">
        <ele>998.79998779296875</ele>
        <time>2019-11-02T08:48:49Z</time>
      </trkpt>
      <trkpt lat="38.503964859992266" lon="-2.435265490785241">
        <ele>999.20001220703125</ele>
        <time>2019-11-02T08:48:56Z</time>
      </trkpt>
      <trkpt lat="38.50405303761363" lon="-2.435257444158196">
        <ele>999.4000244140625</ele>
        <time>2019-11-02T08:49:01Z</time>
      </trkpt>
      <trkpt lat="38.504088157787919" lon="-2.435252834111452">
        <ele>999.4000244140625</ele>
        <time>2019-11-02T08:49:03Z</time>
      </trkpt>
      <trkpt lat="38.504226375371218" lon="-2.435254594311118">
        <ele>999.79998779296875</ele>
        <time>2019-11-02T08:49:11Z</time>
      </trkpt>
      <trkpt lat="38.50433936342597" lon="-2.435264568775892">
        <ele>1000.4000244140625</ele>
        <time>2019-11-02T08:49:18Z</time>
      </trkpt>
      <trkpt lat="38.504353947937489" lon="-2.435262305662036">
        <ele>1000.4000244140625</ele>
        <time>2019-11-02T08:49:19Z</time>
      </trkpt>
      <trkpt lat="38.504458637908101" lon="-2.43522291071713">
        <ele>1000.79998779296875</ele>
        <time>2019-11-02T08:49:26Z</time>
      </trkpt>
      <trkpt lat="38.504550000652671" lon="-2.435178905725479">
        <ele>1000.79998779296875</ele>
        <time>2019-11-02T08:49:32Z</time>
      </trkpt>
      <trkpt lat="38.504653181880713" lon="-2.435115287080407">
        <ele>1001</ele>
        <time>2019-11-02T08:49:39Z</time>
      </trkpt>
      <trkpt lat="38.504665670916438" lon="-2.435118472203612">
        <ele>1001.20001220703125</ele>
        <time>2019-11-02T08:49:40Z</time>
      </trkpt>
      <trkpt lat="38.504676315933466" lon="-2.435119394212961">
        <ele>1001.4000244140625</ele>
        <time>2019-11-02T08:49:42Z</time>
      </trkpt>
      <trkpt lat="38.504686122760177" lon="-2.435127021744847">
        <ele>1001.79998779296875</ele>
        <time>2019-11-02T08:49:45Z</time>
      </trkpt>
      <trkpt lat="38.504700371995568" lon="-2.4351173825562">
        <ele>1002.20001220703125</ele>
        <time>2019-11-02T08:49:54Z</time>
      </trkpt>
      <trkpt lat="38.504712609574199" lon="-2.435116125270724">
        <ele>1002.20001220703125</ele>
        <time>2019-11-02T08:49:55Z</time>
      </trkpt>
      <trkpt lat="38.504736246541142" lon="-2.435119478031993">
        <ele>1002.4000244140625</ele>
        <time>2019-11-02T08:49:57Z</time>
      </trkpt>
      <trkpt lat="38.504740102216601" lon="-2.435122663155198">
        <ele>1002.79998779296875</ele>
        <time>2019-11-02T08:50:01Z</time>
      </trkpt>
      <trkpt lat="38.504741610959172" lon="-2.43512324988842">
        <ele>1002.79998779296875</ele>
        <time>2019-11-02T08:50:03Z</time>
      </trkpt>
      <trkpt lat="38.504784442484379" lon="-2.435122914612293">
        <ele>1002.79998779296875</ele>
        <time>2019-11-02T08:50:07Z</time>
      </trkpt>
      <trkpt lat="38.504896508529782" lon="-2.435123417526484">
        <ele>1003.20001220703125</ele>
        <time>2019-11-02T08:50:14Z</time>
      </trkpt>
      <trkpt lat="38.505001198500395" lon="-2.435124171897769">
        <ele>1003.4000244140625</ele>
        <time>2019-11-02T08:50:20Z</time>
      </trkpt>
      <trkpt lat="38.505113264545798" lon="-2.435124674811959">
        <ele>1004.4000244140625</ele>
        <time>2019-11-02T08:50:26Z</time>
      </trkpt>
      <trkpt lat="38.505173111334443" lon="-2.435116376727819">
        <ele>1004.79998779296875</ele>
        <time>2019-11-02T08:50:29Z</time>
      </trkpt>
      <trkpt lat="38.505209656432271" lon="-2.435111263766885">
        <ele>1005.5999755859375</ele>
        <time>2019-11-02T08:50:31Z</time>
      </trkpt>
      <trkpt lat="38.505240082740784" lon="-2.43510321713984">
        <ele>1006.79998779296875</ele>
        <time>2019-11-02T08:50:33Z</time>
      </trkpt>
      <trkpt lat="38.5052858479321" lon="-2.435109838843346">
        <ele>1008</ele>
        <time>2019-11-02T08:50:36Z</time>
      </trkpt>
      <trkpt lat="38.505406128242612" lon="-2.435127776116133">
        <ele>1006.79998779296875</ele>
        <time>2019-11-02T08:50:44Z</time>
      </trkpt>
      <trkpt lat="38.505468824878335" lon="-2.435116963461041">
        <ele>1005.79998779296875</ele>
        <time>2019-11-02T08:50:48Z</time>
      </trkpt>
      <trkpt lat="38.505526995286345" lon="-2.435096427798271">
        <ele>1004.79998779296875</ele>
        <time>2019-11-02T08:50:51Z</time>
      </trkpt>
      <trkpt lat="38.505552727729082" lon="-2.43508905172348">
        <ele>1004.4000244140625</ele>
        <time>2019-11-02T08:50:52Z</time>
      </trkpt>
      <trkpt lat="38.505581142380834" lon="-2.435093326494098">
        <ele>1003.79998779296875</ele>
        <time>2019-11-02T08:50:53Z</time>
      </trkpt>
      <trkpt lat="38.505611987784505" lon="-2.435094751417637">
        <ele>1003.20001220703125</ele>
        <time>2019-11-02T08:50:54Z</time>
      </trkpt>
      <trkpt lat="38.505635792389512" lon="-2.435090560466051">
        <ele>1003</ele>
        <time>2019-11-02T08:50:55Z</time>
      </trkpt>
      <trkpt lat="38.505667392164469" lon="-2.435072371736169">
        <ele>1002.4000244140625</ele>
        <time>2019-11-02T08:50:57Z</time>
      </trkpt>
      <trkpt lat="38.505684323608875" lon="-2.435066169127822">
        <ele>1002.20001220703125</ele>
        <time>2019-11-02T08:50:58Z</time>
      </trkpt>
      <trkpt lat="38.505708714947104" lon="-2.435056446120143">
        <ele>1001.79998779296875</ele>
        <time>2019-11-02T08:51:00Z</time>
      </trkpt>
      <trkpt lat="38.505749702453613" lon="-2.435049321502447">
        <ele>1001</ele>
        <time>2019-11-02T08:51:06Z</time>
      </trkpt>
      <trkpt lat="38.505751546472311" lon="-2.435046639293432">
        <ele>1001</ele>
        <time>2019-11-02T08:51:07Z</time>
      </trkpt>
      <trkpt lat="38.505812399089336" lon="-2.435038676485419">
        <ele>1000.79998779296875</ele>
        <time>2019-11-02T08:51:14Z</time>
      </trkpt>
      <trkpt lat="38.505866378545761" lon="-2.435042532160878">
        <ele>1002</ele>
        <time>2019-11-02T08:51:20Z</time>
      </trkpt>
      <trkpt lat="38.505900325253606" lon="-2.435035323724151">
        <ele>1003.20001220703125</ele>
        <time>2019-11-02T08:51:25Z</time>
      </trkpt>
      <trkpt lat="38.505915999412537" lon="-2.435028618201613">
        <ele>1004.4000244140625</ele>
        <time>2019-11-02T08:51:29Z</time>
      </trkpt>
      <trkpt lat="38.505965620279312" lon="-2.435036078095436">
        <ele>1005.5999755859375</ele>
        <time>2019-11-02T08:51:35Z</time>
      </trkpt>
      <trkpt lat="38.505976181477308" lon="-2.435034904628992">
        <ele>1005.79998779296875</ele>
        <time>2019-11-02T08:51:36Z</time>
      </trkpt>
      <trkpt lat="38.506038710474968" lon="-2.435019565746188">
        <ele>1006.5999755859375</ele>
        <time>2019-11-02T08:51:43Z</time>
      </trkpt>
      <trkpt lat="38.506054216995835" lon="-2.435002382844687">
        <ele>1007</ele>
        <time>2019-11-02T08:51:45Z</time>
      </trkpt>
      <trkpt lat="38.506120853126049" lon="-2.43495318107307">
        <ele>1007.79998779296875</ele>
        <time>2019-11-02T08:51:53Z</time>
      </trkpt>
      <trkpt lat="38.506136443465948" lon="-2.4349395185709">
        <ele>1008</ele>
        <time>2019-11-02T08:51:55Z</time>
      </trkpt>
      <trkpt lat="38.506185226142406" lon="-2.434930969029665">
        <ele>1008.5999755859375</ele>
        <time>2019-11-02T08:52:01Z</time>
      </trkpt>
      <trkpt lat="38.506201822310686" lon="-2.434933399781585">
        <ele>1009</ele>
        <time>2019-11-02T08:52:03Z</time>
      </trkpt>
      <trkpt lat="38.506234092637897" lon="-2.434927029535174">
        <ele>1009.5999755859375</ele>
        <time>2019-11-02T08:52:08Z</time>
      </trkpt>
      <trkpt lat="38.506259322166443" lon="-2.434916468337178">
        <ele>1010.20001220703125</ele>
        <time>2019-11-02T08:52:12Z</time>
      </trkpt>
      <trkpt lat="38.506280025467277" lon="-2.434906745329499">
        <ele>1010.79998779296875</ele>
        <time>2019-11-02T08:52:15Z</time>
      </trkpt>
      <trkpt lat="38.506314642727375" lon="-2.434904146939516">
        <ele>1012</ele>
        <time>2019-11-02T08:52:20Z</time>
      </trkpt>
      <trkpt lat="38.506336268037558" lon="-2.434898028150201">
        <ele>1012.5999755859375</ele>
        <time>2019-11-02T08:52:23Z</time>
      </trkpt>
      <trkpt lat="38.506350265815854" lon="-2.43489014916122">
        <ele>1013.20001220703125</ele>
        <time>2019-11-02T08:52:25Z</time>
      </trkpt>
      <trkpt lat="38.506383039057255" lon="-2.434860644862056">
        <ele>1014.20001220703125</ele>
        <time>2019-11-02T08:52:32Z</time>
      </trkpt>
      <trkpt lat="38.50641748867929" lon="-2.434856202453375">
        <ele>1015.20001220703125</ele>
        <time>2019-11-02T08:52:38Z</time>
      </trkpt>
      <trkpt lat="38.506439784541726" lon="-2.43484178557992">
        <ele>1016</ele>
        <time>2019-11-02T08:52:42Z</time>
      </trkpt>
      <trkpt lat="38.506451100111008" lon="-2.434830721467733">
        <ele>1016.4000244140625</ele>
        <time>2019-11-02T08:52:44Z</time>
      </trkpt>
      <trkpt lat="38.506478760391474" lon="-2.434785710647702">
        <ele>1017.4000244140625</ele>
        <time>2019-11-02T08:52:52Z</time>
      </trkpt>
      <trkpt lat="38.50648052059114" lon="-2.43477632291615">
        <ele>1017.5999755859375</ele>
        <time>2019-11-02T08:52:53Z</time>
      </trkpt>
      <trkpt lat="38.506530560553074" lon="-2.434734916314483">
        <ele>1018.5999755859375</ele>
        <time>2019-11-02T08:53:02Z</time>
      </trkpt>
      <trkpt lat="38.506537014618516" lon="-2.434730222448707">
        <ele>1018.5999755859375</ele>
        <time>2019-11-02T08:53:03Z</time>
      </trkpt>
      <trkpt lat="38.506564758718014" lon="-2.434709770604968">
        <ele>1019.79998779296875</ele>
        <time>2019-11-02T08:53:09Z</time>
      </trkpt>
      <trkpt lat="38.506557885557413" lon="-2.434709938243032">
        <ele>1020.20001220703125</ele>
        <time>2019-11-02T08:53:12Z</time>
      </trkpt>
      <trkpt lat="38.506569117307663" lon="-2.434694431722164">
        <ele>1020.5999755859375</ele>
        <time>2019-11-02T08:53:20Z</time>
      </trkpt>
      <trkpt lat="38.506568446755409" lon="-2.434684792533517">
        <ele>1020.79998779296875</ele>
        <time>2019-11-02T08:53:22Z</time>
      </trkpt>
      <trkpt lat="38.506584959104657" lon="-2.434683032333851">
        <ele>1021</ele>
        <time>2019-11-02T08:53:30Z</time>
      </trkpt>
      <trkpt lat="38.506620163097978" lon="-2.43467029184103">
        <ele>1020.79998779296875</ele>
        <time>2019-11-02T08:53:37Z</time>
      </trkpt>
      <trkpt lat="38.506705490872264" lon="-2.434611702337861">
        <ele>1022</ele>
        <time>2019-11-02T08:53:45Z</time>
      </trkpt>
      <trkpt lat="38.506712196394801" lon="-2.434600973501801">
        <ele>1022</ele>
        <time>2019-11-02T08:53:46Z</time>
      </trkpt>
      <trkpt lat="38.506808253005147" lon="-2.434526458382607">
        <ele>1022.79998779296875</ele>
        <time>2019-11-02T08:53:53Z</time>
      </trkpt>
      <trkpt lat="38.506829626858234" lon="-2.43451732210815">
        <ele>1023.20001220703125</ele>
        <time>2019-11-02T08:53:54Z</time>
      </trkpt>
      <trkpt lat="38.506906572729349" lon="-2.434491338208318">
        <ele>1024.4000244140625</ele>
        <time>2019-11-02T08:53:59Z</time>
      </trkpt>
      <trkpt lat="38.506931802257895" lon="-2.4344801902771">
        <ele>1024.5999755859375</ele>
        <time>2019-11-02T08:54:01Z</time>
      </trkpt>
      <trkpt lat="38.506977315992117" lon="-2.434445405378938">
        <ele>1025.4000244140625</ele>
        <time>2019-11-02T08:54:05Z</time>
      </trkpt>
      <trkpt lat="38.506988044828176" lon="-2.434437023475766">
        <ele>1025.5999755859375</ele>
        <time>2019-11-02T08:54:06Z</time>
      </trkpt>
      <trkpt lat="38.507031882181764" lon="-2.434404501691461">
        <ele>1026</ele>
        <time>2019-11-02T08:54:10Z</time>
      </trkpt>
      <trkpt lat="38.507039677351713" lon="-2.434395952150226">
        <ele>1026.199951171875</ele>
        <time>2019-11-02T08:54:11Z</time>
      </trkpt>
      <trkpt lat="38.507057782262564" lon="-2.4343800265342">
        <ele>1026.5999755859375</ele>
        <time>2019-11-02T08:54:13Z</time>
      </trkpt>
      <trkpt lat="38.507100865244865" lon="-2.434363095089793">
        <ele>1027</ele>
        <time>2019-11-02T08:54:17Z</time>
      </trkpt>
      <trkpt lat="38.507126346230507" lon="-2.434351025149226">
        <ele>1027.199951171875</ele>
        <time>2019-11-02T08:54:19Z</time>
      </trkpt>
      <trkpt lat="38.507172362878919" lon="-2.434309283271432">
        <ele>1027.800048828125</ele>
        <time>2019-11-02T08:54:23Z</time>
      </trkpt>
      <trkpt lat="38.507184265181422" lon="-2.434300733730197">
        <ele>1027.800048828125</ele>
        <time>2019-11-02T08:54:24Z</time>
      </trkpt>
      <trkpt lat="38.507241010665894" lon="-2.434270391240716">
        <ele>1028.4000244140625</ele>
        <time>2019-11-02T08:54:29Z</time>
      </trkpt>
      <trkpt lat="38.507271520793438" lon="-2.43425790220499">
        <ele>1028.800048828125</ele>
        <time>2019-11-02T08:54:32Z</time>
      </trkpt>
      <trkpt lat="38.507291888818145" lon="-2.434240384027362">
        <ele>1029</ele>
        <time>2019-11-02T08:54:34Z</time>
      </trkpt>
      <trkpt lat="38.507347963750362" lon="-2.434186739847064">
        <ele>1029.5999755859375</ele>
        <time>2019-11-02T08:54:39Z</time>
      </trkpt>
      <trkpt lat="38.507360955700278" lon="-2.434180704876781">
        <ele>1029.800048828125</ele>
        <time>2019-11-02T08:54:40Z</time>
      </trkpt>
      <trkpt lat="38.507408564910293" lon="-2.43414550088346">
        <ele>1030.5999755859375</ele>
        <time>2019-11-02T08:54:44Z</time>
      </trkpt>
      <trkpt lat="38.507435889914632" lon="-2.434100825339556">
        <ele>1030.800048828125</ele>
        <time>2019-11-02T08:54:47Z</time>
      </trkpt>
      <trkpt lat="38.507469333708286" lon="-2.434069728478789">
        <ele>1031.5999755859375</ele>
        <time>2019-11-02T08:54:50Z</time>
      </trkpt>
      <trkpt lat="38.507491964846849" lon="-2.434052377939224">
        <ele>1032</ele>
        <time>2019-11-02T08:54:52Z</time>
      </trkpt>
      <trkpt lat="38.507537562400103" lon="-2.433995464816689">
        <ele>1033</ele>
        <time>2019-11-02T08:54:57Z</time>
      </trkpt>
      <trkpt lat="38.507588608190417" lon="-2.433921871706843">
        <ele>1033.800048828125</ele>
        <time>2019-11-02T08:55:02Z</time>
      </trkpt>
      <trkpt lat="38.507597073912621" lon="-2.43390410207212">
        <ele>1034</ele>
        <time>2019-11-02T08:55:03Z</time>
      </trkpt>
      <trkpt lat="38.50760436616838" lon="-2.433887254446745">
        <ele>1034.199951171875</ele>
        <time>2019-11-02T08:55:04Z</time>
      </trkpt>
      <trkpt lat="38.507639821618795" lon="-2.433801759034395">
        <ele>1035.4000244140625</ele>
        <time>2019-11-02T08:55:09Z</time>
      </trkpt>
      <trkpt lat="38.507670667022467" lon="-2.433751383796334">
        <ele>1036</ele>
        <time>2019-11-02T08:55:12Z</time>
      </trkpt>
      <trkpt lat="38.507691705599427" lon="-2.433689441531897">
        <ele>1036.5999755859375</ele>
        <time>2019-11-02T08:55:16Z</time>
      </trkpt>
      <trkpt lat="38.507696483284235" lon="-2.433657674118876">
        <ele>1036.800048828125</ele>
        <time>2019-11-02T08:55:18Z</time>
      </trkpt>
      <trkpt lat="38.507702434435487" lon="-2.433645101264119">
        <ele>1037</ele>
        <time>2019-11-02T08:55:19Z</time>
      </trkpt>
      <trkpt lat="38.507724730297923" lon="-2.43360654450953">
        <ele>1037.800048828125</ele>
        <time>2019-11-02T08:55:22Z</time>
      </trkpt>
      <trkpt lat="38.507729088887572" lon="-2.433572262525558">
        <ele>1038</ele>
        <time>2019-11-02T08:55:24Z</time>
      </trkpt>
      <trkpt lat="38.507755072787404" lon="-2.433487940579653">
        <ele>1038.800048828125</ele>
        <time>2019-11-02T08:55:29Z</time>
      </trkpt>
      <trkpt lat="38.507764376699924" lon="-2.433452904224396">
        <ele>1039</ele>
        <time>2019-11-02T08:55:31Z</time>
      </trkpt>
      <trkpt lat="38.507791953161359" lon="-2.433403702452779">
        <ele>1039.5999755859375</ele>
        <time>2019-11-02T08:55:35Z</time>
      </trkpt>
      <trkpt lat="38.507816260680556" lon="-2.433357601985335">
        <ele>1040.4000244140625</ele>
        <time>2019-11-02T08:55:39Z</time>
      </trkpt>
      <trkpt lat="38.507834197953343" lon="-2.433341927826405">
        <ele>1040.800048828125</ele>
        <time>2019-11-02T08:55:41Z</time>
      </trkpt>
      <trkpt lat="38.507872838526964" lon="-2.433312674984336">
        <ele>1041</ele>
        <time>2019-11-02T08:55:45Z</time>
      </trkpt>
      <trkpt lat="38.507953388616443" lon="-2.433247631415725">
        <ele>1041.800048828125</ele>
        <time>2019-11-02T08:55:53Z</time>
      </trkpt>
      <trkpt lat="38.508013235405087" lon="-2.433188622817397">
        <ele>1042.800048828125</ele>
        <time>2019-11-02T08:55:59Z</time>
      </trkpt>
      <trkpt lat="38.508023712784052" lon="-2.433180911466479">
        <ele>1042.800048828125</ele>
        <time>2019-11-02T08:56:00Z</time>
      </trkpt>
      <trkpt lat="38.508087750524282" lon="-2.433161130174994">
        <ele>1043.800048828125</ele>
        <time>2019-11-02T08:56:05Z</time>
      </trkpt>
      <trkpt lat="38.508166624233127" lon="-2.433156184852123">
        <ele>1044.800048828125</ele>
        <time>2019-11-02T08:56:10Z</time>
      </trkpt>
      <trkpt lat="38.508198140189052" lon="-2.43315115571022">
        <ele>1045.199951171875</ele>
        <time>2019-11-02T08:56:12Z</time>
      </trkpt>
      <trkpt lat="38.508240720257163" lon="-2.433136319741607">
        <ele>1045.800048828125</ele>
        <time>2019-11-02T08:56:15Z</time>
      </trkpt>
      <trkpt lat="38.508278271183372" lon="-2.433109497651458">
        <ele>1046.5999755859375</ele>
        <time>2019-11-02T08:56:19Z</time>
      </trkpt>
      <trkpt lat="38.508288078010082" lon="-2.433097679167986">
        <ele>1046.800048828125</ele>
        <time>2019-11-02T08:56:20Z</time>
      </trkpt>
      <trkpt lat="38.508297549560666" lon="-2.433085609227419">
        <ele>1047</ele>
        <time>2019-11-02T08:56:21Z</time>
      </trkpt>
      <trkpt lat="38.508322862908244" lon="-2.433051830157638">
        <ele>1047.5999755859375</ele>
        <time>2019-11-02T08:56:24Z</time>
      </trkpt>
      <trkpt lat="38.508347421884537" lon="-2.433006651699543">
        <ele>1047.800048828125</ele>
        <time>2019-11-02T08:56:28Z</time>
      </trkpt>
      <trkpt lat="38.508369298651814" lon="-2.432977734133601">
        <ele>1048.199951171875</ele>
        <time>2019-11-02T08:56:31Z</time>
      </trkpt>
      <trkpt lat="38.508376004174352" lon="-2.432964406907558">
        <ele>1048.4000244140625</ele>
        <time>2019-11-02T08:56:32Z</time>
      </trkpt>
      <trkpt lat="38.508412130177021" lon="-2.43287606164813">
        <ele>1049.199951171875</ele>
        <time>2019-11-02T08:56:38Z</time>
      </trkpt>
      <trkpt lat="38.508418835699558" lon="-2.43286969140172">
        <ele>1049.199951171875</ele>
        <time>2019-11-02T08:56:39Z</time>
      </trkpt>
      <trkpt lat="38.508434593677521" lon="-2.432822166010737">
        <ele>1049.5999755859375</ele>
        <time>2019-11-02T08:56:43Z</time>
      </trkpt>
      <trkpt lat="38.508473569527268" lon="-2.432763073593378">
        <ele>1050.4000244140625</ele>
        <time>2019-11-02T08:56:49Z</time>
      </trkpt>
      <trkpt lat="38.50849368609488" lon="-2.432745806872845">
        <ele>1050.5999755859375</ele>
        <time>2019-11-02T08:56:51Z</time>
      </trkpt>
      <trkpt lat="38.508538194000721" lon="-2.432784447446465">
        <ele>1051.199951171875</ele>
        <time>2019-11-02T08:56:56Z</time>
      </trkpt>
      <trkpt lat="38.508541295304894" lon="-2.432798277586699">
        <ele>1051.199951171875</ele>
        <time>2019-11-02T08:56:57Z</time>
      </trkpt>
      <trkpt lat="38.508541882038116" lon="-2.432807832956314">
        <ele>1051.199951171875</ele>
        <time>2019-11-02T08:56:58Z</time>
      </trkpt>
      <trkpt lat="38.50853911601007" lon="-2.432848401367664">
        <ele>1051.5999755859375</ele>
        <time>2019-11-02T08:57:01Z</time>
      </trkpt>
      <trkpt lat="38.508521765470505" lon="-2.432905733585358">
        <ele>1051.800048828125</ele>
        <time>2019-11-02T08:57:05Z</time>
      </trkpt>
      <trkpt lat="38.508463511243463" lon="-2.433015452697873">
        <ele>1052.199951171875</ele>
        <time>2019-11-02T08:57:11Z</time>
      </trkpt>
      <trkpt lat="38.508436186239123" lon="-2.43304998613894">
        <ele>1052.4000244140625</ele>
        <time>2019-11-02T08:57:13Z</time>
      </trkpt>
      <trkpt lat="38.508366197347641" lon="-2.433137828484178">
        <ele>1053</ele>
        <time>2019-11-02T08:57:18Z</time>
      </trkpt>
      <trkpt lat="38.508307440206409" lon="-2.433231454342604">
        <ele>1053.4000244140625</ele>
        <time>2019-11-02T08:57:23Z</time>
      </trkpt>
      <trkpt lat="38.508291766047478" lon="-2.433245871216059">
        <ele>1053.5999755859375</ele>
        <time>2019-11-02T08:57:24Z</time>
      </trkpt>
      <trkpt lat="38.508171988651156" lon="-2.43334318511188">
        <ele>1054</ele>
        <time>2019-11-02T08:57:32Z</time>
      </trkpt>
      <trkpt lat="38.508124630898237" lon="-2.433381574228406">
        <ele>1054.5999755859375</ele>
        <time>2019-11-02T08:57:35Z</time>
      </trkpt>
      <trkpt lat="38.508071321994066" lon="-2.433446114882827">
        <ele>1055.199951171875</ele>
        <time>2019-11-02T08:57:39Z</time>
      </trkpt>
      <trkpt lat="38.508045757189393" lon="-2.43347804993391">
        <ele>1055.5999755859375</ele>
        <time>2019-11-02T08:57:41Z</time>
      </trkpt>
      <trkpt lat="38.508002925664186" lon="-2.433598749339581">
        <ele>1056.4000244140625</ele>
        <time>2019-11-02T08:57:47Z</time>
      </trkpt>
      <trkpt lat="38.508028574287891" lon="-2.433717604726553">
        <ele>1056.800048828125</ele>
        <time>2019-11-02T08:57:52Z</time>
      </trkpt>
      <trkpt lat="38.508046511560678" lon="-2.433775775134563">
        <ele>1057.199951171875</ele>
        <time>2019-11-02T08:57:55Z</time>
      </trkpt>
      <trkpt lat="38.508069897070527" lon="-2.433850122615695">
        <ele>1057.800048828125</ele>
        <time>2019-11-02T08:57:59Z</time>
      </trkpt>
      <trkpt lat="38.508075680583715" lon="-2.433892535045743">
        <ele>1058.199951171875</ele>
        <time>2019-11-02T08:58:01Z</time>
      </trkpt>
      <trkpt lat="38.508075848221779" lon="-2.433978198096156">
        <ele>1059</ele>
        <time>2019-11-02T08:58:05Z</time>
      </trkpt>
      <trkpt lat="38.508077608421445" lon="-2.434022035449743">
        <ele>1059.4000244140625</ele>
        <time>2019-11-02T08:58:07Z</time>
      </trkpt>
      <trkpt lat="38.508073166012764" lon="-2.434104597195983">
        <ele>1059.800048828125</ele>
        <time>2019-11-02T08:58:11Z</time>
      </trkpt>
      <trkpt lat="38.508060593158007" lon="-2.434140052646399">
        <ele>1060</ele>
        <time>2019-11-02T08:58:13Z</time>
      </trkpt>
      <trkpt lat="38.508007032796741" lon="-2.43421976454556">
        <ele>1060.800048828125</ele>
        <time>2019-11-02T08:58:18Z</time>
      </trkpt>
      <trkpt lat="38.507968727499247" lon="-2.434262093156576">
        <ele>1061.4000244140625</ele>
        <time>2019-11-02T08:58:21Z</time>
      </trkpt>
      <trkpt lat="38.507905527949333" lon="-2.434348007664084">
        <ele>1061.5999755859375</ele>
        <time>2019-11-02T08:58:27Z</time>
      </trkpt>
      <trkpt lat="38.507881639525294" lon="-2.434379775077105">
        <ele>1062</ele>
        <time>2019-11-02T08:58:29Z</time>
      </trkpt>
      <trkpt lat="38.507832102477551" lon="-2.434454960748553">
        <ele>1062</ele>
        <time>2019-11-02T08:58:34Z</time>
      </trkpt>
      <trkpt lat="38.507752306759357" lon="-2.434589322656393">
        <ele>1062.5999755859375</ele>
        <time>2019-11-02T08:58:41Z</time>
      </trkpt>
      <trkpt lat="38.507735710591078" lon="-2.434631148353219">
        <ele>1063</ele>
        <time>2019-11-02T08:58:43Z</time>
      </trkpt>
      <trkpt lat="38.507703943178058" lon="-2.434730641543865">
        <ele>1063.800048828125</ele>
        <time>2019-11-02T08:58:48Z</time>
      </trkpt>
      <trkpt lat="38.507699919864535" lon="-2.434749333187938">
        <ele>1064</ele>
        <time>2019-11-02T08:58:49Z</time>
      </trkpt>
      <trkpt lat="38.507659854367375" lon="-2.434834996238351">
        <ele>1064.800048828125</ele>
        <time>2019-11-02T08:58:54Z</time>
      </trkpt>
      <trkpt lat="38.507632361724973" lon="-2.434887383133173">
        <ele>1065.199951171875</ele>
        <time>2019-11-02T08:58:57Z</time>
      </trkpt>
      <trkpt lat="38.507599253207445" lon="-2.434926107525826">
        <ele>1065.5999755859375</ele>
        <time>2019-11-02T08:59:00Z</time>
      </trkpt>
      <trkpt lat="38.507579723373055" lon="-2.434966675937176">
        <ele>1066.4000244140625</ele>
        <time>2019-11-02T08:59:03Z</time>
      </trkpt>
      <trkpt lat="38.50757846608758" lon="-2.434985199943185">
        <ele>1066.5999755859375</ele>
        <time>2019-11-02T08:59:04Z</time>
      </trkpt>
      <trkpt lat="38.507591709494591" lon="-2.43504261597991">
        <ele>1067.199951171875</ele>
        <time>2019-11-02T08:59:07Z</time>
      </trkpt>
      <trkpt lat="38.507611826062202" lon="-2.435091566294432">
        <ele>1067.4000244140625</ele>
        <time>2019-11-02T08:59:10Z</time>
      </trkpt>
      <trkpt lat="38.507651053369045" lon="-2.435164405032992">
        <ele>1068.5999755859375</ele>
        <time>2019-11-02T08:59:15Z</time>
      </trkpt>
      <trkpt lat="38.507665386423469" lon="-2.435208829119802">
        <ele>1069</ele>
        <time>2019-11-02T08:59:18Z</time>
      </trkpt>
      <trkpt lat="38.507675947621465" lon="-2.435241434723139">
        <ele>1069.5999755859375</ele>
        <time>2019-11-02T08:59:20Z</time>
      </trkpt>
      <trkpt lat="38.507700758054852" lon="-2.43530111387372">
        <ele>1070.5999755859375</ele>
        <time>2019-11-02T08:59:24Z</time>
      </trkpt>
      <trkpt lat="38.507711738348007" lon="-2.435313519090414">
        <ele>1070.800048828125</ele>
        <time>2019-11-02T08:59:25Z</time>
      </trkpt>
      <trkpt lat="38.507755743339658" lon="-2.435319973155856">
        <ele>1071.5999755859375</ele>
        <time>2019-11-02T08:59:29Z</time>
      </trkpt>
      <trkpt lat="38.507764963433146" lon="-2.435317374765873">
        <ele>1071.5999755859375</ele>
        <time>2019-11-02T08:59:30Z</time>
      </trkpt>
      <trkpt lat="38.50777736864984" lon="-2.435317961499095">
        <ele>1072</ele>
        <time>2019-11-02T08:59:35Z</time>
      </trkpt>
      <trkpt lat="38.50778759457171" lon="-2.43531284853816">
        <ele>1072</ele>
        <time>2019-11-02T08:59:45Z</time>
      </trkpt>
      <trkpt lat="38.507811231538653" lon="-2.435299437493086">
        <ele>1072.199951171875</ele>
        <time>2019-11-02T08:59:54Z</time>
      </trkpt>
      <trkpt lat="38.507832186296582" lon="-2.435270855203271">
        <ele>1073</ele>
        <time>2019-11-02T09:00:00Z</time>
      </trkpt>
      <trkpt lat="38.507840149104595" lon="-2.435255516320467">
        <ele>1073.800048828125</ele>
        <time>2019-11-02T09:00:05Z</time>
      </trkpt>
      <trkpt lat="38.507844256237149" lon="-2.435249648988247">
        <ele>1074</ele>
        <time>2019-11-02T09:00:07Z</time>
      </trkpt>
      <trkpt lat="38.507856158539653" lon="-2.435243278741837">
        <ele>1074.199951171875</ele>
        <time>2019-11-02T09:00:11Z</time>
      </trkpt>
      <trkpt lat="38.507860265672207" lon="-2.435239674523473">
        <ele>1074.199951171875</ele>
        <time>2019-11-02T09:00:23Z</time>
      </trkpt>
      <trkpt lat="38.50785993039608" lon="-2.435247972607613">
        <ele>1074.199951171875</ele>
        <time>2019-11-02T09:00:35Z</time>
      </trkpt>
      <trkpt lat="38.507860936224461" lon="-2.435245458036661">
        <ele>1074.199951171875</ele>
        <time>2019-11-02T09:00:50Z</time>
      </trkpt>
      <trkpt lat="38.507884908467531" lon="-2.43522634729743">
        <ele>1074</ele>
        <time>2019-11-02T09:01:01Z</time>
      </trkpt>
      <trkpt lat="38.507932601496577" lon="-2.435170356184244">
        <ele>1074.199951171875</ele>
        <time>2019-11-02T09:01:05Z</time>
      </trkpt>
      <trkpt lat="38.507974511012435" lon="-2.435143114998937">
        <ele>1074.800048828125</ele>
        <time>2019-11-02T09:01:08Z</time>
      </trkpt>
      <trkpt lat="38.507984485477209" lon="-2.435132889077067">
        <ele>1075</ele>
        <time>2019-11-02T09:01:09Z</time>
      </trkpt>
      <trkpt lat="38.508041063323617" lon="-2.43510958738625">
        <ele>1076</ele>
        <time>2019-11-02T09:01:13Z</time>
      </trkpt>
      <trkpt lat="38.50805246271193" lon="-2.43510665372014">
        <ele>1076.199951171875</ele>
        <time>2019-11-02T09:01:14Z</time>
      </trkpt>
      <trkpt lat="38.508084649220109" lon="-2.435115538537502">
        <ele>1076.800048828125</ele>
        <time>2019-11-02T09:01:20Z</time>
      </trkpt>
      <trkpt lat="38.508099149912596" lon="-2.435121322050691">
        <ele>1076.800048828125</ele>
        <time>2019-11-02T09:01:24Z</time>
      </trkpt>
      <trkpt lat="38.508124630898237" lon="-2.43514085188508">
        <ele>1077</ele>
        <time>2019-11-02T09:01:26Z</time>
      </trkpt>
      <trkpt lat="38.508149357512593" lon="-2.435165327042341">
        <ele>1077</ele>
        <time>2019-11-02T09:01:28Z</time>
      </trkpt>
      <trkpt lat="38.508185232058167" lon="-2.435193154960871">
        <ele>1077.5999755859375</ele>
        <time>2019-11-02T09:01:31Z</time>
      </trkpt>
      <trkpt lat="38.508194368332624" lon="-2.435204051434994">
        <ele>1077.800048828125</ele>
        <time>2019-11-02T09:01:32Z</time>
      </trkpt>
      <trkpt lat="38.508221609517932" lon="-2.43523171171546">
        <ele>1078.199951171875</ele>
        <time>2019-11-02T09:01:35Z</time>
      </trkpt>
      <trkpt lat="38.508266368880868" lon="-2.435282003134489">
        <ele>1079.199951171875</ele>
        <time>2019-11-02T09:01:39Z</time>
      </trkpt>
      <trkpt lat="38.508279528468847" lon="-2.435291558504105">
        <ele>1079.4000244140625</ele>
        <time>2019-11-02T09:01:40Z</time>
      </trkpt>
      <trkpt lat="38.508342308923602" lon="-2.43531284853816">
        <ele>1080.4000244140625</ele>
        <time>2019-11-02T09:01:45Z</time>
      </trkpt>
      <trkpt lat="38.508354714140296" lon="-2.435313602909446">
        <ele>1080.4000244140625</ele>
        <time>2019-11-02T09:01:46Z</time>
      </trkpt>
      <trkpt lat="38.508441634476185" lon="-2.435325169935822">
        <ele>1081.4000244140625</ele>
        <time>2019-11-02T09:01:52Z</time>
      </trkpt>
      <trkpt lat="38.508455045521259" lon="-2.435323493555188">
        <ele>1081.5999755859375</ele>
        <time>2019-11-02T09:01:53Z</time>
      </trkpt>
      <trkpt lat="38.508544145151973" lon="-2.435278818011284">
        <ele>1082.5999755859375</ele>
        <time>2019-11-02T09:01:59Z</time>
      </trkpt>
      <trkpt lat="38.508604159578681" lon="-2.435233807191253">
        <ele>1083.800048828125</ele>
        <time>2019-11-02T09:02:03Z</time>
      </trkpt>
      <trkpt lat="38.508618073537946" lon="-2.435228610411286">
        <ele>1084</ele>
        <time>2019-11-02T09:02:04Z</time>
      </trkpt>
      <trkpt lat="38.508646823465824" lon="-2.435224838554859">
        <ele>1084.5999755859375</ele>
        <time>2019-11-02T09:02:06Z</time>
      </trkpt>
      <trkpt lat="38.508675238117576" lon="-2.435213690623641">
        <ele>1085</ele>
        <time>2019-11-02T09:02:08Z</time>
      </trkpt>
      <trkpt lat="38.508697198703885" lon="-2.435205560177565">
        <ele>1085.4000244140625</ele>
        <time>2019-11-02T09:02:10Z</time>
      </trkpt>
      <trkpt lat="38.508711699396372" lon="-2.435208493843675">
        <ele>1085.800048828125</ele>
        <time>2019-11-02T09:02:12Z</time>
      </trkpt>
      <trkpt lat="38.508716896176338" lon="-2.435211343690753">
        <ele>1086</ele>
        <time>2019-11-02T09:02:13Z</time>
      </trkpt>
      <trkpt lat="38.50875754840672" lon="-2.435280829668045">
        <ele>1086.4000244140625</ele>
        <time>2019-11-02T09:02:20Z</time>
      </trkpt>
      <trkpt lat="38.508770205080509" lon="-2.435310585424304">
        <ele>1086.5999755859375</ele>
        <time>2019-11-02T09:02:22Z</time>
      </trkpt>
      <trkpt lat="38.508815299719572" lon="-2.435343191027641">
        <ele>1086.4000244140625</ele>
        <time>2019-11-02T09:02:26Z</time>
      </trkpt>
      <trkpt lat="38.508854862302542" lon="-2.435386776924133">
        <ele>1086.5999755859375</ele>
        <time>2019-11-02T09:02:30Z</time>
      </trkpt>
      <trkpt lat="38.508885120972991" lon="-2.435427764430642">
        <ele>1086.5999755859375</ele>
        <time>2019-11-02T09:02:33Z</time>
      </trkpt>
      <trkpt lat="38.508911523967981" lon="-2.435483671724796">
        <ele>1087.199951171875</ele>
        <time>2019-11-02T09:02:37Z</time>
      </trkpt>
      <trkpt lat="38.508925857022405" lon="-2.435520133003592">
        <ele>1087.5999755859375</ele>
        <time>2019-11-02T09:02:40Z</time>
      </trkpt>
      <trkpt lat="38.508936669677496" lon="-2.435554163530469">
        <ele>1088.199951171875</ele>
        <time>2019-11-02T09:02:45Z</time>
      </trkpt>
      <trkpt lat="38.508949829265475" lon="-2.435596995055676">
        <ele>1088.4000244140625</ele>
        <time>2019-11-02T09:02:49Z</time>
      </trkpt>
      <trkpt lat="38.508960055187345" lon="-2.435649046674371">
        <ele>1089.199951171875</ele>
        <time>2019-11-02T09:02:53Z</time>
      </trkpt>
      <trkpt lat="38.508984362706542" lon="-2.435709564015269">
        <ele>1090.199951171875</ele>
        <time>2019-11-02T09:03:01Z</time>
      </trkpt>
      <trkpt lat="38.508998109027743" lon="-2.435757089406252">
        <ele>1090.800048828125</ele>
        <time>2019-11-02T09:03:07Z</time>
      </trkpt>
      <trkpt lat="38.509014621376991" lon="-2.435835879296064">
        <ele>1091.4000244140625</ele>
        <time>2019-11-02T09:03:11Z</time>
      </trkpt>
      <trkpt lat="38.50901847705245" lon="-2.435871921479702">
        <ele>1092</ele>
        <time>2019-11-02T09:03:13Z</time>
      </trkpt>
      <trkpt lat="38.508994337171316" lon="-2.435913914814591">
        <ele>1092.4000244140625</ele>
        <time>2019-11-02T09:03:16Z</time>
      </trkpt>
      <trkpt lat="38.508969275280833" lon="-2.435934785753489">
        <ele>1092.5999755859375</ele>
        <time>2019-11-02T09:03:18Z</time>
      </trkpt>
      <trkpt lat="38.50892418064177" lon="-2.43599790148437">
        <ele>1093.4000244140625</ele>
        <time>2019-11-02T09:03:23Z</time>
      </trkpt>
      <trkpt lat="38.508916972205043" lon="-2.436011480167508">
        <ele>1093.5999755859375</ele>
        <time>2019-11-02T09:03:24Z</time>
      </trkpt>
      <trkpt lat="38.508876403793693" lon="-2.436072500422597">
        <ele>1094.5999755859375</ele>
        <time>2019-11-02T09:03:29Z</time>
      </trkpt>
      <trkpt lat="38.508862406015396" lon="-2.436092281714082">
        <ele>1094.800048828125</ele>
        <time>2019-11-02T09:03:31Z</time>
      </trkpt>
      <trkpt lat="38.508856287226081" lon="-2.436101920902729">
        <ele>1095.199951171875</ele>
        <time>2019-11-02T09:03:39Z</time>
      </trkpt>
      <trkpt lat="38.508858801797032" lon="-2.436114242300391">
        <ele>1095</ele>
        <time>2019-11-02T09:03:44Z</time>
      </trkpt>
      <trkpt lat="38.508871123194695" lon="-2.436149194836617">
        <ele>1095</ele>
        <time>2019-11-02T09:03:47Z</time>
      </trkpt>
      <trkpt lat="38.508920408785343" lon="-2.436184315010905">
        <ele>1095.4000244140625</ele>
        <time>2019-11-02T09:03:53Z</time>
      </trkpt>
      <trkpt lat="38.508933819830418" lon="-2.436182135716081">
        <ele>1095.5999755859375</ele>
        <time>2019-11-02T09:03:54Z</time>
      </trkpt>
      <trkpt lat="38.508975394070148" lon="-2.43616696447134">
        <ele>1096.199951171875</ele>
        <time>2019-11-02T09:03:57Z</time>
      </trkpt>
      <trkpt lat="38.509002048522234" lon="-2.436159839853644">
        <ele>1096.4000244140625</ele>
        <time>2019-11-02T09:03:59Z</time>
      </trkpt>
      <trkpt lat="38.50901554338634" lon="-2.436158079653978">
        <ele>1096.5999755859375</ele>
        <time>2019-11-02T09:04:00Z</time>
      </trkpt>
      <trkpt lat="38.50911277346313" lon="-2.436122875660658">
        <ele>1097.5999755859375</ele>
        <time>2019-11-02T09:04:08Z</time>
      </trkpt>
      <trkpt lat="38.509145965799689" lon="-2.436084151268005">
        <ele>1098.5999755859375</ele>
        <time>2019-11-02T09:04:12Z</time>
      </trkpt>
      <trkpt lat="38.509149989113212" lon="-2.436070069670677">
        <ele>1098.800048828125</ele>
        <time>2019-11-02T09:04:15Z</time>
      </trkpt>
      <trkpt lat="38.509177397936583" lon="-2.435974599793553">
        <ele>1099.199951171875</ele>
        <time>2019-11-02T09:04:21Z</time>
      </trkpt>
      <trkpt lat="38.509212015196681" lon="-2.435866389423609">
        <ele>1099.5999755859375</ele>
        <time>2019-11-02T09:04:26Z</time>
      </trkpt>
      <trkpt lat="38.509231796488166" lon="-2.435827748849988">
        <ele>1100</ele>
        <time>2019-11-02T09:04:28Z</time>
      </trkpt>
      <trkpt lat="38.509266916662455" lon="-2.435734793543816">
        <ele>1100.800048828125</ele>
        <time>2019-11-02T09:04:33Z</time>
      </trkpt>
      <trkpt lat="38.509272029623389" lon="-2.435716101899743">
        <ele>1100.800048828125</ele>
        <time>2019-11-02T09:04:34Z</time>
      </trkpt>
      <trkpt lat="38.509300611913204" lon="-2.435618536546826">
        <ele>1101.800048828125</ele>
        <time>2019-11-02T09:04:40Z</time>
      </trkpt>
      <trkpt lat="38.5093111731112" lon="-2.435609484091401">
        <ele>1102.199951171875</ele>
        <time>2019-11-02T09:04:41Z</time>
      </trkpt>
      <trkpt lat="38.509359201416373" lon="-2.435581153258681">
        <ele>1103</ele>
        <time>2019-11-02T09:04:44Z</time>
      </trkpt>
      <trkpt lat="38.509407984092832" lon="-2.435557851567864">
        <ele>1103.800048828125</ele>
        <time>2019-11-02T09:04:48Z</time>
      </trkpt>
      <trkpt lat="38.509419467300177" lon="-2.435551397502422">
        <ele>1104</ele>
        <time>2019-11-02T09:04:49Z</time>
      </trkpt>
      <trkpt lat="38.50948266685009" lon="-2.4355214741081">
        <ele>1104.4000244140625</ele>
        <time>2019-11-02T09:04:54Z</time>
      </trkpt>
      <trkpt lat="38.509516110643744" lon="-2.435501022264361">
        <ele>1104.5999755859375</ele>
        <time>2019-11-02T09:04:57Z</time>
      </trkpt>
      <trkpt lat="38.509536813944578" lon="-2.435484593734145">
        <ele>1105</ele>
        <time>2019-11-02T09:04:59Z</time>
      </trkpt>
      <trkpt lat="38.509559612721205" lon="-2.435469422489405">
        <ele>1105.4000244140625</ele>
        <time>2019-11-02T09:05:01Z</time>
      </trkpt>
      <trkpt lat="38.509572772309184" lon="-2.435468500480056">
        <ele>1105.4000244140625</ele>
        <time>2019-11-02T09:05:02Z</time>
      </trkpt>
      <trkpt lat="38.509626919403672" lon="-2.435427345335484">
        <ele>1105.800048828125</ele>
        <time>2019-11-02T09:05:06Z</time>
      </trkpt>
      <trkpt lat="38.509688610211015" lon="-2.435402451083064">
        <ele>1106</ele>
        <time>2019-11-02T09:05:11Z</time>
      </trkpt>
      <trkpt lat="38.509699255228043" lon="-2.435403121635318">
        <ele>1106</ele>
        <time>2019-11-02T09:05:12Z</time>
      </trkpt>
      <trkpt lat="38.50973823107779" lon="-2.435378395020962">
        <ele>1106.4000244140625</ele>
        <time>2019-11-02T09:05:15Z</time>
      </trkpt>
      <trkpt lat="38.509758599102497" lon="-2.43536020629108">
        <ele>1106.800048828125</ele>
        <time>2019-11-02T09:05:17Z</time>
      </trkpt>
      <trkpt lat="38.50980025716126" lon="-2.435339167714119">
        <ele>1107.199951171875</ele>
        <time>2019-11-02T09:05:21Z</time>
      </trkpt>
      <trkpt lat="38.509847950190306" lon="-2.435288373380899">
        <ele>1107.800048828125</ele>
        <time>2019-11-02T09:05:26Z</time>
      </trkpt>
      <trkpt lat="38.50987502373755" lon="-2.435267921537161">
        <ele>1108</ele>
        <time>2019-11-02T09:05:28Z</time>
      </trkpt>
      <trkpt lat="38.50989849306643" lon="-2.435241350904107">
        <ele>1108.199951171875</ele>
        <time>2019-11-02T09:05:30Z</time>
      </trkpt>
      <trkpt lat="38.509970577433705" lon="-2.435167673975229">
        <ele>1109.199951171875</ele>
        <time>2019-11-02T09:05:35Z</time>
      </trkpt>
      <trkpt lat="38.509980551898479" lon="-2.435147808864713">
        <ele>1109.199951171875</ele>
        <time>2019-11-02T09:05:36Z</time>
      </trkpt>
      <trkpt lat="38.509999243542552" lon="-2.43506315164268">
        <ele>1110.199951171875</ele>
        <time>2019-11-02T09:05:41Z</time>
      </trkpt>
      <trkpt lat="38.510000584647059" lon="-2.435048064216971">
        <ele>1110.4000244140625</ele>
        <time>2019-11-02T09:05:42Z</time>
      </trkpt>
      <trkpt lat="38.510040231049061" lon="-2.434932142496109">
        <ele>1111.4000244140625</ele>
        <time>2019-11-02T09:05:49Z</time>
      </trkpt>
      <trkpt lat="38.510055150836706" lon="-2.434918731451035">
        <ele>1111.4000244140625</ele>
        <time>2019-11-02T09:05:50Z</time>
      </trkpt>
      <trkpt lat="38.510119775310159" lon="-2.434809850528836">
        <ele>1112.4000244140625</ele>
        <time>2019-11-02T09:05:56Z</time>
      </trkpt>
      <trkpt lat="38.510133102536201" lon="-2.43479878641665">
        <ele>1112.800048828125</ele>
        <time>2019-11-02T09:05:57Z</time>
      </trkpt>
      <trkpt lat="38.510187417268753" lon="-2.434748411178589">
        <ele>1113.800048828125</ele>
        <time>2019-11-02T09:06:02Z</time>
      </trkpt>
      <trkpt lat="38.510194206610322" lon="-2.434735670685768">
        <ele>1113.800048828125</ele>
        <time>2019-11-02T09:06:03Z</time>
      </trkpt>
      <trkpt lat="38.51021314971149" lon="-2.434712368994951">
        <ele>1113.800048828125</ele>
        <time>2019-11-02T09:06:05Z</time>
      </trkpt>
      <trkpt lat="38.510241061449051" lon="-2.434690911322832">
        <ele>1114</ele>
        <time>2019-11-02T09:06:07Z</time>
      </trkpt>
      <trkpt lat="38.51030258461833" lon="-2.434659814462066">
        <ele>1114.199951171875</ele>
        <time>2019-11-02T09:06:11Z</time>
      </trkpt>
      <trkpt lat="38.510349271818995" lon="-2.434647576883435">
        <ele>1115.199951171875</ele>
        <time>2019-11-02T09:06:14Z</time>
      </trkpt>
      <trkpt lat="38.51039495319128" lon="-2.43463366292417">
        <ele>1116.199951171875</ele>
        <time>2019-11-02T09:06:17Z</time>
      </trkpt>
      <trkpt lat="38.510425044223666" lon="-2.434622179716825">
        <ele>1116.5999755859375</ele>
        <time>2019-11-02T09:06:19Z</time>
      </trkpt>
      <trkpt lat="38.51047994568944" lon="-2.434594603255391">
        <ele>1117.4000244140625</ele>
        <time>2019-11-02T09:06:23Z</time>
      </trkpt>
      <trkpt lat="38.510529147461057" lon="-2.434581695124507">
        <ele>1118</ele>
        <time>2019-11-02T09:06:27Z</time>
      </trkpt>
      <trkpt lat="38.51054985076189" lon="-2.434574821963906">
        <ele>1118.4000244140625</ele>
        <time>2019-11-02T09:06:29Z</time>
      </trkpt>
      <trkpt lat="38.510603746399283" lon="-2.434569457545877">
        <ele>1119</ele>
        <time>2019-11-02T09:06:34Z</time>
      </trkpt>
      <trkpt lat="38.510630149394274" lon="-2.43456719443202">
        <ele>1119.4000244140625</ele>
        <time>2019-11-02T09:06:36Z</time>
      </trkpt>
      <trkpt lat="38.510690247640014" lon="-2.434566607698798">
        <ele>1120.4000244140625</ele>
        <time>2019-11-02T09:06:41Z</time>
      </trkpt>
      <trkpt lat="38.510712962597609" lon="-2.434562835842371">
        <ele>1120.4000244140625</ele>
        <time>2019-11-02T09:06:43Z</time>
      </trkpt>
      <trkpt lat="38.510811366140842" lon="-2.434546491131186">
        <ele>1120.800048828125</ele>
        <time>2019-11-02T09:06:51Z</time>
      </trkpt>
      <trkpt lat="38.510872470214963" lon="-2.434532325714827">
        <ele>1121.5999755859375</ele>
        <time>2019-11-02T09:06:55Z</time>
      </trkpt>
      <trkpt lat="38.510920079424977" lon="-2.434520339593291">
        <ele>1122.4000244140625</ele>
        <time>2019-11-02T09:06:58Z</time>
      </trkpt>
      <trkpt lat="38.510934915393591" lon="-2.434516400098801">
        <ele>1122.5999755859375</ele>
        <time>2019-11-02T09:06:59Z</time>
      </trkpt>
      <trkpt lat="38.510947739705443" lon="-2.434510448947549">
        <ele>1123</ele>
        <time>2019-11-02T09:07:00Z</time>
      </trkpt>
      <trkpt lat="38.510990906506777" lon="-2.434494607150555">
        <ele>1123.800048828125</ele>
        <time>2019-11-02T09:07:03Z</time>
      </trkpt>
      <trkpt lat="38.511077491566539" lon="-2.434522937983274">
        <ele>1124.4000244140625</ele>
        <time>2019-11-02T09:07:10Z</time>
      </trkpt>
      <trkpt lat="38.511073552072048" lon="-2.434610947966576">
        <ele>1124</ele>
        <time>2019-11-02T09:07:15Z</time>
      </trkpt>
      <trkpt lat="38.511065756902099" lon="-2.434628047049046">
        <ele>1123.800048828125</ele>
        <time>2019-11-02T09:07:16Z</time>
      </trkpt>
      <trkpt lat="38.510987889021635" lon="-2.434777328744531">
        <ele>1124</ele>
        <time>2019-11-02T09:07:25Z</time>
      </trkpt>
      <trkpt lat="38.510973807424307" lon="-2.434832649305463">
        <ele>1124.5999755859375</ele>
        <time>2019-11-02T09:07:28Z</time>
      </trkpt>
      <trkpt lat="38.510968526825309" lon="-2.434894759207964">
        <ele>1125.5999755859375</ele>
        <time>2019-11-02T09:07:32Z</time>
      </trkpt>
      <trkpt lat="38.510970370844007" lon="-2.434906158596277">
        <ele>1125.5999755859375</ele>
        <time>2019-11-02T09:07:33Z</time>
      </trkpt>
      <trkpt lat="38.510985877364874" lon="-2.43493465706706">
        <ele>1126</ele>
        <time>2019-11-02T09:07:39Z</time>
      </trkpt>
      <trkpt lat="38.510983278974891" lon="-2.435032976791263">
        <ele>1126.5999755859375</ele>
        <time>2019-11-02T09:07:46Z</time>
      </trkpt>
      <trkpt lat="38.510984620079398" lon="-2.435042783617973">
        <ele>1126.800048828125</ele>
        <time>2019-11-02T09:07:47Z</time>
      </trkpt>
      <trkpt lat="38.510989062488079" lon="-2.435089470818639">
        <ele>1128.199951171875</ele>
        <time>2019-11-02T09:07:51Z</time>
      </trkpt>
      <trkpt lat="38.510993588715792" lon="-2.435100451111794">
        <ele>1129.4000244140625</ele>
        <time>2019-11-02T09:07:53Z</time>
      </trkpt>
      <trkpt lat="38.510994259268045" lon="-2.435107659548521">
        <ele>1129.800048828125</ele>
        <time>2019-11-02T09:07:54Z</time>
      </trkpt>
      <trkpt lat="38.510995768010616" lon="-2.435123166069388">
        <ele>1130.5999755859375</ele>
        <time>2019-11-02T09:07:56Z</time>
      </trkpt>
      <trkpt lat="38.511020159348845" lon="-2.435202626511455">
        <ele>1131.4000244140625</ele>
        <time>2019-11-02T09:08:05Z</time>
      </trkpt>
      <trkpt lat="38.511046897619963" lon="-2.435303376987576">
        <ele>1131</ele>
        <time>2019-11-02T09:08:15Z</time>
      </trkpt>
      <trkpt lat="38.511060392484069" lon="-2.435361631214619">
        <ele>1131.5999755859375</ele>
        <time>2019-11-02T09:08:20Z</time>
      </trkpt>
      <trkpt lat="38.511079670861363" lon="-2.435413934290409">
        <ele>1131.4000244140625</ele>
        <time>2019-11-02T09:08:26Z</time>
      </trkpt>
      <trkpt lat="38.511089729145169" lon="-2.435454670339823">
        <ele>1132.4000244140625</ele>
        <time>2019-11-02T09:08:34Z</time>
      </trkpt>
      <trkpt lat="38.511090399697423" lon="-2.435507392510772">
        <ele>1132.5999755859375</ele>
        <time>2019-11-02T09:08:40Z</time>
      </trkpt>
      <trkpt lat="38.51109366863966" lon="-2.435535220429301">
        <ele>1133</ele>
        <time>2019-11-02T09:08:43Z</time>
      </trkpt>
      <trkpt lat="38.511103307828307" lon="-2.435616943985224">
        <ele>1132.5999755859375</ele>
        <time>2019-11-02T09:08:50Z</time>
      </trkpt>
      <trkpt lat="38.511099703609943" lon="-2.435747031122446">
        <ele>1133.4000244140625</ele>
        <time>2019-11-02T09:08:56Z</time>
      </trkpt>
      <trkpt lat="38.511088471859694" lon="-2.43578240275383">
        <ele>1133.800048828125</ele>
        <time>2019-11-02T09:08:58Z</time>
      </trkpt>
      <trkpt lat="38.511079167947173" lon="-2.435797490179539">
        <ele>1133.800048828125</ele>
        <time>2019-11-02T09:08:59Z</time>
      </trkpt>
      <trkpt lat="38.511055698618293" lon="-2.435835124924779">
        <ele>1134.199951171875</ele>
        <time>2019-11-02T09:09:02Z</time>
      </trkpt>
      <trkpt lat="38.510987889021635" lon="-2.435933277010918">
        <ele>1134.4000244140625</ele>
        <time>2019-11-02T09:09:08Z</time>
      </trkpt>
      <trkpt lat="38.510930724442005" lon="-2.435980131849647">
        <ele>1134.800048828125</ele>
        <time>2019-11-02T09:09:12Z</time>
      </trkpt>
      <trkpt lat="38.510897196829319" lon="-2.435999158769846">
        <ele>1135</ele>
        <time>2019-11-02T09:09:14Z</time>
      </trkpt>
      <trkpt lat="38.510852437466383" lon="-2.436027824878693">
        <ele>1136</ele>
        <time>2019-11-02T09:09:17Z</time>
      </trkpt>
      <trkpt lat="38.510822681710124" lon="-2.43606680072844">
        <ele>1136.800048828125</ele>
        <time>2019-11-02T09:09:20Z</time>
      </trkpt>
      <trkpt lat="38.510811114683747" lon="-2.436080127954483">
        <ele>1137</ele>
        <time>2019-11-02T09:09:21Z</time>
      </trkpt>
      <trkpt lat="38.510736934840679" lon="-2.436160761862993">
        <ele>1137.800048828125</ele>
        <time>2019-11-02T09:09:27Z</time>
      </trkpt>
      <trkpt lat="38.510713716968894" lon="-2.436183225363493">
        <ele>1138</ele>
        <time>2019-11-02T09:09:29Z</time>
      </trkpt>
      <trkpt lat="38.510668706148863" lon="-2.436245502904058">
        <ele>1138.800048828125</ele>
        <time>2019-11-02T09:09:34Z</time>
      </trkpt>
      <trkpt lat="38.510631658136845" lon="-2.436292944476008">
        <ele>1139.199951171875</ele>
        <time>2019-11-02T09:09:38Z</time>
      </trkpt>
      <trkpt lat="38.510602992027998" lon="-2.436323622241616">
        <ele>1139.800048828125</ele>
        <time>2019-11-02T09:09:41Z</time>
      </trkpt>
      <trkpt lat="38.510579522699118" lon="-2.436343487352133">
        <ele>1140.4000244140625</ele>
        <time>2019-11-02T09:09:43Z</time>
      </trkpt>
      <trkpt lat="38.510511545464396" lon="-2.436371902003884">
        <ele>1140.5999755859375</ele>
        <time>2019-11-02T09:09:48Z</time>
      </trkpt>
      <trkpt lat="38.510432001203299" lon="-2.436373075470328">
        <ele>1141</ele>
        <time>2019-11-02T09:09:53Z</time>
      </trkpt>
      <trkpt lat="38.510382799431682" lon="-2.436385480687022">
        <ele>1141.199951171875</ele>
        <time>2019-11-02T09:09:56Z</time>
      </trkpt>
      <trkpt lat="38.510340387001634" lon="-2.43639268912375">
        <ele>1141.800048828125</ele>
        <time>2019-11-02T09:09:59Z</time>
      </trkpt>
      <trkpt lat="38.510314906015992" lon="-2.436401825398207">
        <ele>1142.4000244140625</ele>
        <time>2019-11-02T09:10:01Z</time>
      </trkpt>
      <trkpt lat="38.510259417816997" lon="-2.436423366889358">
        <ele>1143.199951171875</ele>
        <time>2019-11-02T09:10:06Z</time>
      </trkpt>
      <trkpt lat="38.510237960144877" lon="-2.436431832611561">
        <ele>1143.4000244140625</ele>
        <time>2019-11-02T09:10:08Z</time>
      </trkpt>
      <trkpt lat="38.510186327621341" lon="-2.436449434608221">
        <ele>1143.800048828125</ele>
        <time>2019-11-02T09:10:12Z</time>
      </trkpt>
      <trkpt lat="38.510167635977268" lon="-2.436469551175833">
        <ele>1144</ele>
        <time>2019-11-02T09:10:14Z</time>
      </trkpt>
      <trkpt lat="38.510166881605983" lon="-2.436517914757133">
        <ele>1144.199951171875</ele>
        <time>2019-11-02T09:10:17Z</time>
      </trkpt>
      <trkpt lat="38.510193452239037" lon="-2.436582706868649">
        <ele>1144.4000244140625</ele>
        <time>2019-11-02T09:10:21Z</time>
      </trkpt>
      <trkpt lat="38.5102195199579" lon="-2.43661061860621">
        <ele>1144.4000244140625</ele>
        <time>2019-11-02T09:10:23Z</time>
      </trkpt>
      <trkpt lat="38.510255143046379" lon="-2.436654875054955">
        <ele>1144.4000244140625</ele>
        <time>2019-11-02T09:10:26Z</time>
      </trkpt>
      <trkpt lat="38.510306105017662" lon="-2.436709692701697">
        <ele>1144.5999755859375</ele>
        <time>2019-11-02T09:10:30Z</time>
      </trkpt>
      <trkpt lat="38.510340973734856" lon="-2.436748081818223">
        <ele>1145.5999755859375</ele>
        <time>2019-11-02T09:10:33Z</time>
      </trkpt>
      <trkpt lat="38.510379530489445" lon="-2.436823518946767">
        <ele>1146.5999755859375</ele>
        <time>2019-11-02T09:10:37Z</time>
      </trkpt>
      <trkpt lat="38.510387158021331" lon="-2.436850257217884">
        <ele>1146.800048828125</ele>
        <time>2019-11-02T09:10:38Z</time>
      </trkpt>
      <trkpt lat="38.510423703119159" lon="-2.436977243050933">
        <ele>1146.800048828125</ele>
        <time>2019-11-02T09:10:44Z</time>
      </trkpt>
      <trkpt lat="38.510422110557556" lon="-2.437023594975471">
        <ele>1146.800048828125</ele>
        <time>2019-11-02T09:10:46Z</time>
      </trkpt>
      <trkpt lat="38.510412219911814" lon="-2.437084028497338">
        <ele>1147.199951171875</ele>
        <time>2019-11-02T09:10:49Z</time>
      </trkpt>
      <trkpt lat="38.510362431406975" lon="-2.437154771760106">
        <ele>1148</ele>
        <time>2019-11-02T09:10:53Z</time>
      </trkpt>
      <trkpt lat="38.510332927107811" lon="-2.437187964096665">
        <ele>1148.4000244140625</ele>
        <time>2019-11-02T09:10:55Z</time>
      </trkpt>
      <trkpt lat="38.510242905467749" lon="-2.43731327354908">
        <ele>1148.800048828125</ele>
        <time>2019-11-02T09:11:02Z</time>
      </trkpt>
      <trkpt lat="38.510199319571257" lon="-2.437387872487307">
        <ele>1149.199951171875</ele>
        <time>2019-11-02T09:11:06Z</time>
      </trkpt>
      <trkpt lat="38.510145759209991" lon="-2.43745056912303">
        <ele>1150</ele>
        <time>2019-11-02T09:11:10Z</time>
      </trkpt>
      <trkpt lat="38.510108375921845" lon="-2.437455430626869">
        <ele>1150.199951171875</ele>
        <time>2019-11-02T09:11:12Z</time>
      </trkpt>
      <trkpt lat="38.510086582973599" lon="-2.437447803094983">
        <ele>1150.5999755859375</ele>
        <time>2019-11-02T09:11:14Z</time>
      </trkpt>
      <trkpt lat="38.510076608508825" lon="-2.437447886914015">
        <ele>1151.4000244140625</ele>
        <time>2019-11-02T09:11:17Z</time>
      </trkpt>
      <trkpt lat="38.510072585195303" lon="-2.437447132542729">
        <ele>1151.5999755859375</ele>
        <time>2019-11-02T09:11:20Z</time>
      </trkpt>
      <trkpt lat="38.510056575760245" lon="-2.437421064823866">
        <ele>1151.5999755859375</ele>
        <time>2019-11-02T09:11:23Z</time>
      </trkpt>
      <trkpt lat="38.510027574375272" lon="-2.437393488362432">
        <ele>1151.199951171875</ele>
        <time>2019-11-02T09:11:26Z</time>
      </trkpt>
      <trkpt lat="38.509996896609664" lon="-2.437371276319027">
        <ele>1151</ele>
        <time>2019-11-02T09:11:28Z</time>
      </trkpt>
      <trkpt lat="38.509938977658749" lon="-2.437306148931384">
        <ele>1150.800048828125</ele>
        <time>2019-11-02T09:11:32Z</time>
      </trkpt>
      <trkpt lat="38.50987259298563" lon="-2.437280584126711">
        <ele>1150.4000244140625</ele>
        <time>2019-11-02T09:11:36Z</time>
      </trkpt>
      <trkpt lat="38.509835712611675" lon="-2.437277566641569">
        <ele>1150.199951171875</ele>
        <time>2019-11-02T09:11:38Z</time>
      </trkpt>
      <trkpt lat="38.509696656838059" lon="-2.437303299084306">
        <ele>1149</ele>
        <time>2019-11-02T09:11:44Z</time>
      </trkpt>
      <trkpt lat="38.509670672938228" lon="-2.437311010435224">
        <ele>1148.800048828125</ele>
        <time>2019-11-02T09:11:45Z</time>
      </trkpt>
      <trkpt lat="38.509576544165611" lon="-2.437337832525373">
        <ele>1147.5999755859375</ele>
        <time>2019-11-02T09:11:48Z</time>
      </trkpt>
      <trkpt lat="38.509512674063444" lon="-2.437362391501665">
        <ele>1146.5999755859375</ele>
        <time>2019-11-02T09:11:50Z</time>
      </trkpt>
      <trkpt lat="38.50948266685009" lon="-2.437378065660596">
        <ele>1146.199951171875</ele>
        <time>2019-11-02T09:11:51Z</time>
      </trkpt>
      <trkpt lat="38.509418126195669" lon="-2.437416287139058">
        <ele>1145.5999755859375</ele>
        <time>2019-11-02T09:11:53Z</time>
      </trkpt>
      <trkpt lat="38.509272783994675" lon="-2.437532208859921">
        <ele>1145</ele>
        <time>2019-11-02T09:11:57Z</time>
      </trkpt>
      <trkpt lat="38.509032810106874" lon="-2.437731195241213">
        <ele>1145.199951171875</ele>
        <time>2019-11-02T09:12:03Z</time>
      </trkpt>
      <trkpt lat="38.508986039087176" lon="-2.437761873006821">
        <ele>1145.199951171875</ele>
        <time>2019-11-02T09:12:04Z</time>
      </trkpt>
      <trkpt lat="38.508846312761307" lon="-2.437840327620506">
        <ele>1144.4000244140625</ele>
        <time>2019-11-02T09:12:07Z</time>
      </trkpt>
      <trkpt lat="38.508746819570661" lon="-2.437865138053894">
        <ele>1143.800048828125</ele>
        <time>2019-11-02T09:12:09Z</time>
      </trkpt>
      <trkpt lat="38.508572559803724" lon="-2.437884751707315">
        <ele>1143</ele>
        <time>2019-11-02T09:12:12Z</time>
      </trkpt>
      <trkpt lat="38.508448842912912" lon="-2.437905035912991">
        <ele>1141.800048828125</ele>
        <time>2019-11-02T09:12:14Z</time>
      </trkpt>
      <trkpt lat="38.508387235924602" lon="-2.437920961529016">
        <ele>1141.199951171875</ele>
        <time>2019-11-02T09:12:15Z</time>
      </trkpt>
      <trkpt lat="38.508327137678862" lon="-2.437942586839199">
        <ele>1140.5999755859375</ele>
        <time>2019-11-02T09:12:16Z</time>
      </trkpt>
      <trkpt lat="38.508061347529292" lon="-2.438038559630513">
        <ele>1139.5999755859375</ele>
        <time>2019-11-02T09:12:20Z</time>
      </trkpt>
      <trkpt lat="38.508000914007425" lon="-2.438076110556722">
        <ele>1138.800048828125</ele>
        <time>2019-11-02T09:12:21Z</time>
      </trkpt>
      <trkpt lat="38.507945174351335" lon="-2.438121540471911">
        <ele>1138.199951171875</ele>
        <time>2019-11-02T09:12:22Z</time>
      </trkpt>
      <trkpt lat="38.507801508530974" lon="-2.438302086666226">
        <ele>1136.800048828125</ele>
        <time>2019-11-02T09:12:25Z</time>
      </trkpt>
      <trkpt lat="38.507759850472212" lon="-2.438372494652867">
        <ele>1136.4000244140625</ele>
        <time>2019-11-02T09:12:26Z</time>
      </trkpt>
      <trkpt lat="38.507718276232481" lon="-2.438442902639508">
        <ele>1135.800048828125</ele>
        <time>2019-11-02T09:12:27Z</time>
      </trkpt>
      <trkpt lat="38.50760143250227" lon="-2.438645409420133">
        <ele>1134.5999755859375</ele>
        <time>2019-11-02T09:12:30Z</time>
      </trkpt>
      <trkpt lat="38.507568659260869" lon="-2.438698299229145">
        <ele>1134.4000244140625</ele>
        <time>2019-11-02T09:12:31Z</time>
      </trkpt>
      <trkpt lat="38.507498921826482" lon="-2.4388387799263">
        <ele>1134.4000244140625</ele>
        <time>2019-11-02T09:12:35Z</time>
      </trkpt>
      <trkpt lat="38.507498251274228" lon="-2.438851771876216">
        <ele>1134.199951171875</ele>
        <time>2019-11-02T09:12:39Z</time>
      </trkpt>
      <trkpt lat="38.507496993988752" lon="-2.438851939514279">
        <ele>1133.5999755859375</ele>
        <time>2019-11-02T09:12:49Z</time>
      </trkpt>
      <trkpt lat="38.507496574893594" lon="-2.438851688057184">
        <ele>1133.5999755859375</ele>
        <time>2019-11-02T09:12:54Z</time>
      </trkpt>
      <trkpt lat="38.507497329264879" lon="-2.438852777704597">
        <ele>1134.5999755859375</ele>
        <time>2019-11-02T09:13:20Z</time>
      </trkpt>
      <trkpt lat="38.507497161626816" lon="-2.438852777704597">
        <ele>1134.5999755859375</ele>
        <time>2019-11-02T09:13:21Z</time>
      </trkpt>
      <trkpt lat="38.507496491074562" lon="-2.438857723027468">
        <ele>1134.800048828125</ele>
        <time>2019-11-02T09:13:32Z</time>
      </trkpt>
      <trkpt lat="38.507498921826482" lon="-2.438862165436149">
        <ele>1134.800048828125</ele>
        <time>2019-11-02T09:13:44Z</time>
      </trkpt>
      <trkpt lat="38.507498754188418" lon="-2.438863506540656">
        <ele>1134</ele>
        <time>2019-11-02T09:13:53Z</time>
      </trkpt>
      <trkpt lat="38.507499005645514" lon="-2.438863171264529">
        <ele>1133.5999755859375</ele>
        <time>2019-11-02T09:14:01Z</time>
      </trkpt>
      <trkpt lat="38.507499843835831" lon="-2.438861411064863">
        <ele>1132.800048828125</ele>
        <time>2019-11-02T09:14:06Z</time>
      </trkpt>
      <trkpt lat="38.507500095292926" lon="-2.4388612434268">
        <ele>1134.5999755859375</ele>
        <time>2019-11-02T09:14:18Z</time>
      </trkpt>
      <trkpt lat="38.5075100697577" lon="-2.438873816281557">
        <ele>1134.199951171875</ele>
        <time>2019-11-02T09:14:26Z</time>
      </trkpt>
      <trkpt lat="38.507589446380734" lon="-2.438944475725293">
        <ele>1135</ele>
        <time>2019-11-02T09:14:31Z</time>
      </trkpt>
      <trkpt lat="38.507703524082899" lon="-2.439074730500579">
        <ele>1133.199951171875</ele>
        <time>2019-11-02T09:14:36Z</time>
      </trkpt>
      <trkpt lat="38.507761443033814" lon="-2.439137846231461">
        <ele>1132.4000244140625</ele>
        <time>2019-11-02T09:14:38Z</time>
      </trkpt>
      <trkpt lat="38.507793126627803" lon="-2.439170619472861">
        <ele>1132.199951171875</ele>
        <time>2019-11-02T09:14:39Z</time>
      </trkpt>
      <trkpt lat="38.507918352261186" lon="-2.439330630004406">
        <ele>1130.800048828125</ele>
        <time>2019-11-02T09:14:43Z</time>
      </trkpt>
      <trkpt lat="38.507945761084557" lon="-2.439377987757325">
        <ele>1130.4000244140625</ele>
        <time>2019-11-02T09:14:44Z</time>
      </trkpt>
      <trkpt lat="38.50798892788589" lon="-2.439479827880859">
        <ele>1129.5999755859375</ele>
        <time>2019-11-02T09:14:46Z</time>
      </trkpt>
      <trkpt lat="38.508014073595405" lon="-2.439657272771001">
        <ele>1128.800048828125</ele>
        <time>2019-11-02T09:14:49Z</time>
      </trkpt>
      <trkpt lat="38.508005943149328" lon="-2.439717203378677">
        <ele>1128.5999755859375</ele>
        <time>2019-11-02T09:14:50Z</time>
      </trkpt>
      <trkpt lat="38.507945341989398" lon="-2.439876291900873">
        <ele>1127.199951171875</ele>
        <time>2019-11-02T09:14:53Z</time>
      </trkpt>
      <trkpt lat="38.507925476878881" lon="-2.439927253872156">
        <ele>1127</ele>
        <time>2019-11-02T09:14:54Z</time>
      </trkpt>
      <trkpt lat="38.507886920124292" lon="-2.440044935792685">
        <ele>1127</ele>
        <time>2019-11-02T09:14:56Z</time>
      </trkpt>
      <trkpt lat="38.50785456597805" lon="-2.440230259671807">
        <ele>1126.5999755859375</ele>
        <time>2019-11-02T09:14:59Z</time>
      </trkpt>
      <trkpt lat="38.507825899869204" lon="-2.440344169735909">
        <ele>1125.800048828125</ele>
        <time>2019-11-02T09:15:01Z</time>
      </trkpt>
      <trkpt lat="38.507781559601426" lon="-2.440440896898508">
        <ele>1124.5999755859375</ele>
        <time>2019-11-02T09:15:03Z</time>
      </trkpt>
      <trkpt lat="38.507757587358356" lon="-2.440493367612362">
        <ele>1124</ele>
        <time>2019-11-02T09:15:04Z</time>
      </trkpt>
      <trkpt lat="38.507727161049843" lon="-2.440545586869121">
        <ele>1123.5999755859375</ele>
        <time>2019-11-02T09:15:05Z</time>
      </trkpt>
      <trkpt lat="38.507687849923968" lon="-2.440595040097833">
        <ele>1123.199951171875</ele>
        <time>2019-11-02T09:15:06Z</time>
      </trkpt>
      <trkpt lat="38.507604030892253" lon="-2.440685732290149">
        <ele>1122.800048828125</ele>
        <time>2019-11-02T09:15:08Z</time>
      </trkpt>
      <trkpt lat="38.507422814145684" lon="-2.440861668437719">
        <ele>1122.5999755859375</ele>
        <time>2019-11-02T09:15:12Z</time>
      </trkpt>
      <trkpt lat="38.507387023419142" lon="-2.440915480256081">
        <ele>1122.5999755859375</ele>
        <time>2019-11-02T09:15:13Z</time>
      </trkpt>
      <trkpt lat="38.507338911294937" lon="-2.441039448603988">
        <ele>1122</ele>
        <time>2019-11-02T09:15:15Z</time>
      </trkpt>
      <trkpt lat="38.507335809990764" lon="-2.441176744177938">
        <ele>1121.4000244140625</ele>
        <time>2019-11-02T09:15:17Z</time>
      </trkpt>
      <trkpt lat="38.507370846346021" lon="-2.441302305087447">
        <ele>1121</ele>
        <time>2019-11-02T09:15:19Z</time>
      </trkpt>
      <trkpt lat="38.507426669821143" lon="-2.441403390839696">
        <ele>1120.800048828125</ele>
        <time>2019-11-02T09:15:21Z</time>
      </trkpt>
      <trkpt lat="38.507457934319973" lon="-2.441448736935854">
        <ele>1120.800048828125</ele>
        <time>2019-11-02T09:15:22Z</time>
      </trkpt>
      <trkpt lat="38.507486851885915" lon="-2.44149693287909">
        <ele>1120.800048828125</ele>
        <time>2019-11-02T09:15:23Z</time>
      </trkpt>
      <trkpt lat="38.507554410025477" lon="-2.441660463809967">
        <ele>1120</ele>
        <time>2019-11-02T09:15:26Z</time>
      </trkpt>
      <trkpt lat="38.507563378661871" lon="-2.441717460751534">
        <ele>1120</ele>
        <time>2019-11-02T09:15:27Z</time>
      </trkpt>
      <trkpt lat="38.507555164396763" lon="-2.441885014995933">
        <ele>1118.5999755859375</ele>
        <time>2019-11-02T09:15:30Z</time>
      </trkpt>
      <trkpt lat="38.507537897676229" lon="-2.442006217315793">
        <ele>1118</ele>
        <time>2019-11-02T09:15:32Z</time>
      </trkpt>
      <trkpt lat="38.507534964010119" lon="-2.442073104903102">
        <ele>1117.5999755859375</ele>
        <time>2019-11-02T09:15:33Z</time>
      </trkpt>
      <trkpt lat="38.507565557956696" lon="-2.442213585600257">
        <ele>1116.5999755859375</ele>
        <time>2019-11-02T09:15:35Z</time>
      </trkpt>
      <trkpt lat="38.507589278742671" lon="-2.44228164665401">
        <ele>1116.199951171875</ele>
        <time>2019-11-02T09:15:36Z</time>
      </trkpt>
      <trkpt lat="38.507611742243171" lon="-2.44235054589808">
        <ele>1115.800048828125</ele>
        <time>2019-11-02T09:15:37Z</time>
      </trkpt>
      <trkpt lat="38.507632277905941" lon="-2.442420115694404">
        <ele>1115.4000244140625</ele>
        <time>2019-11-02T09:15:38Z</time>
      </trkpt>
      <trkpt lat="38.50769430398941" lon="-2.442694120109081">
        <ele>1114.199951171875</ele>
        <time>2019-11-02T09:15:42Z</time>
      </trkpt>
      <trkpt lat="38.507757671177387" lon="-2.442999556660652">
        <ele>1113.199951171875</ele>
        <time>2019-11-02T09:15:47Z</time>
      </trkpt>
      <trkpt lat="38.507797820493579" lon="-2.44310743175447">
        <ele>1112.199951171875</ele>
        <time>2019-11-02T09:15:49Z</time>
      </trkpt>
      <trkpt lat="38.50782330147922" lon="-2.443157890811563">
        <ele>1112</ele>
        <time>2019-11-02T09:15:50Z</time>
      </trkpt>
      <trkpt lat="38.507958082482219" lon="-2.443345980718732">
        <ele>1111.4000244140625</ele>
        <time>2019-11-02T09:15:54Z</time>
      </trkpt>
      <trkpt lat="38.508035866543651" lon="-2.44343239814043">
        <ele>1110.5999755859375</ele>
        <time>2019-11-02T09:15:56Z</time>
      </trkpt>
      <trkpt lat="38.508116500452161" lon="-2.443516049534082">
        <ele>1109.5999755859375</ele>
        <time>2019-11-02T09:15:58Z</time>
      </trkpt>
      <trkpt lat="38.508233428001404" lon="-2.443645633757114">
        <ele>1108.4000244140625</ele>
        <time>2019-11-02T09:16:01Z</time>
      </trkpt>
      <trkpt lat="38.5082733258605" lon="-2.443687878549099">
        <ele>1108.4000244140625</ele>
        <time>2019-11-02T09:16:02Z</time>
      </trkpt>
      <trkpt lat="38.508387571200728" lon="-2.443845123052597">
        <ele>1108.199951171875</ele>
        <time>2019-11-02T09:16:05Z</time>
      </trkpt>
      <trkpt lat="38.508450854569674" lon="-2.443978814408183">
        <ele>1107.800048828125</ele>
        <time>2019-11-02T09:16:07Z</time>
      </trkpt>
      <trkpt lat="38.508479855954647" lon="-2.444053329527378">
        <ele>1107.4000244140625</ele>
        <time>2019-11-02T09:16:08Z</time>
      </trkpt>
      <trkpt lat="38.508513467386365" lon="-2.444126419723034">
        <ele>1107.199951171875</ele>
        <time>2019-11-02T09:16:09Z</time>
      </trkpt>
      <trkpt lat="38.508599800989032" lon="-2.444260027259588">
        <ele>1106.199951171875</ele>
        <time>2019-11-02T09:16:11Z</time>
      </trkpt>
      <trkpt lat="38.508702479302883" lon="-2.444362454116344">
        <ele>1105.199951171875</ele>
        <time>2019-11-02T09:16:13Z</time>
      </trkpt>
      <trkpt lat="38.508827872574329" lon="-2.444446021690965">
        <ele>1103.800048828125</ele>
        <time>2019-11-02T09:16:15Z</time>
      </trkpt>
      <trkpt lat="38.508976986631751" lon="-2.444538809359074">
        <ele>1103</ele>
        <time>2019-11-02T09:16:17Z</time>
      </trkpt>
      <trkpt lat="38.50905317813158" lon="-2.444599578157067">
        <ele>1102</ele>
        <time>2019-11-02T09:16:18Z</time>
      </trkpt>
      <trkpt lat="38.509126603603363" lon="-2.444668645039201">
        <ele>1101.199951171875</ele>
        <time>2019-11-02T09:16:19Z</time>
      </trkpt>
      <trkpt lat="38.509195921942592" lon="-2.444738717749715">
        <ele>1100.199951171875</ele>
        <time>2019-11-02T09:16:20Z</time>
      </trkpt>
      <trkpt lat="38.509329613298178" lon="-2.444866457954049">
        <ele>1098.800048828125</ele>
        <time>2019-11-02T09:16:22Z</time>
      </trkpt>
      <trkpt lat="38.509458107873797" lon="-2.444988749921322">
        <ele>1097.5999755859375</ele>
        <time>2019-11-02T09:16:24Z</time>
      </trkpt>
      <trkpt lat="38.509513344615698" lon="-2.445062259212136">
        <ele>1097.199951171875</ele>
        <time>2019-11-02T09:16:25Z</time>
      </trkpt>
      <trkpt lat="38.509558774530888" lon="-2.445149766281247">
        <ele>1096.5999755859375</ele>
        <time>2019-11-02T09:16:26Z</time>
      </trkpt>
      <trkpt lat="38.509592888876796" lon="-2.44524909183383">
        <ele>1096.199951171875</ele>
        <time>2019-11-02T09:16:27Z</time>
      </trkpt>
      <trkpt lat="38.509610407054424" lon="-2.445352273061872">
        <ele>1095.5999755859375</ele>
        <time>2019-11-02T09:16:28Z</time>
      </trkpt>
      <trkpt lat="38.509585596621037" lon="-2.4455476552248">
        <ele>1094.199951171875</ele>
        <time>2019-11-02T09:16:30Z</time>
      </trkpt>
      <trkpt lat="38.50949046202004" lon="-2.445707833394408">
        <ele>1093</ele>
        <time>2019-11-02T09:16:32Z</time>
      </trkpt>
      <trkpt lat="38.509435728192329" lon="-2.445785365998745">
        <ele>1092.4000244140625</ele>
        <time>2019-11-02T09:16:33Z</time>
      </trkpt>
      <trkpt lat="38.509385185316205" lon="-2.445868514478207">
        <ele>1091.800048828125</ele>
        <time>2019-11-02T09:16:34Z</time>
      </trkpt>
      <trkpt lat="38.509265575557947" lon="-2.446148553863168">
        <ele>1090.800048828125</ele>
        <time>2019-11-02T09:16:37Z</time>
      </trkpt>
      <trkpt lat="38.509226683527231" lon="-2.446240838617086">
        <ele>1090.5999755859375</ele>
        <time>2019-11-02T09:16:38Z</time>
      </trkpt>
      <trkpt lat="38.509074049070477" lon="-2.446490284055471">
        <ele>1089.5999755859375</ele>
        <time>2019-11-02T09:16:41Z</time>
      </trkpt>
      <trkpt lat="38.508891239762306" lon="-2.446777867153287">
        <ele>1089.199951171875</ele>
        <time>2019-11-02T09:16:45Z</time>
      </trkpt>
      <trkpt lat="38.508816054090858" lon="-2.446868140250444">
        <ele>1090</ele>
        <time>2019-11-02T09:16:48Z</time>
      </trkpt>
      <trkpt lat="38.508785795420408" lon="-2.446896219626069">
        <ele>1090.5999755859375</ele>
        <time>2019-11-02T09:16:50Z</time>
      </trkpt>
      <trkpt lat="38.508741287514567" lon="-2.446947516873479">
        <ele>1091.800048828125</ele>
        <time>2019-11-02T09:16:54Z</time>
      </trkpt>
      <trkpt lat="38.508730558678508" lon="-2.446961347013712">
        <ele>1092.199951171875</ele>
        <time>2019-11-02T09:16:55Z</time>
      </trkpt>
      <trkpt lat="38.508698036894202" lon="-2.446999065577984">
        <ele>1092.800048828125</ele>
        <time>2019-11-02T09:16:58Z</time>
      </trkpt>
      <trkpt lat="38.508653193712234" lon="-2.447051201015711">
        <ele>1093.800048828125</ele>
        <time>2019-11-02T09:17:02Z</time>
      </trkpt>
      <trkpt lat="38.508633496239781" lon="-2.447078358381987">
        <ele>1094</ele>
        <time>2019-11-02T09:17:04Z</time>
      </trkpt>
      <trkpt lat="38.50858504883945" lon="-2.447177013382316">
        <ele>1095</ele>
        <time>2019-11-02T09:17:10Z</time>
      </trkpt>
      <trkpt lat="38.508579600602388" lon="-2.447195369750261">
        <ele>1095.199951171875</ele>
        <time>2019-11-02T09:17:11Z</time>
      </trkpt>
      <trkpt lat="38.508544396609068" lon="-2.447303244844079">
        <ele>1096</ele>
        <time>2019-11-02T09:17:17Z</time>
      </trkpt>
      <trkpt lat="38.508538445457816" lon="-2.447318164631724">
        <ele>1096.199951171875</ele>
        <time>2019-11-02T09:17:18Z</time>
      </trkpt>
      <trkpt lat="38.508522100746632" lon="-2.447383292019367">
        <ele>1096.800048828125</ele>
        <time>2019-11-02T09:17:22Z</time>
      </trkpt>
      <trkpt lat="38.508499385789037" lon="-2.447475744411349">
        <ele>1097.4000244140625</ele>
        <time>2019-11-02T09:17:27Z</time>
      </trkpt>
      <trkpt lat="38.508494440466166" lon="-2.447529891505837">
        <ele>1097.800048828125</ele>
        <time>2019-11-02T09:17:30Z</time>
      </trkpt>
      <trkpt lat="38.508473485708237" lon="-2.447625445201993">
        <ele>1098.4000244140625</ele>
        <time>2019-11-02T09:17:35Z</time>
      </trkpt>
      <trkpt lat="38.508466864004731" lon="-2.447665175423026">
        <ele>1099.199951171875</ele>
        <time>2019-11-02T09:17:37Z</time>
      </trkpt>
      <trkpt lat="38.508456302806735" lon="-2.447705492377281">
        <ele>1099.5999755859375</ele>
        <time>2019-11-02T09:17:39Z</time>
      </trkpt>
      <trkpt lat="38.50840182043612" lon="-2.447820072993636">
        <ele>1100</ele>
        <time>2019-11-02T09:17:45Z</time>
      </trkpt>
      <trkpt lat="38.508373154327273" lon="-2.447894671931863">
        <ele>1100.5999755859375</ele>
        <time>2019-11-02T09:17:49Z</time>
      </trkpt>
      <trkpt lat="38.508354295045137" lon="-2.447933815419674">
        <ele>1100.800048828125</ele>
        <time>2019-11-02T09:17:51Z</time>
      </trkpt>
      <trkpt lat="38.508316073566675" lon="-2.448099190369248">
        <ele>1101.4000244140625</ele>
        <time>2019-11-02T09:17:59Z</time>
      </trkpt>
      <trkpt lat="38.508317498490214" lon="-2.448162641376257">
        <ele>1101.5999755859375</ele>
        <time>2019-11-02T09:18:02Z</time>
      </trkpt>
      <trkpt lat="38.508318001404405" lon="-2.448267247527838">
        <ele>1102.5999755859375</ele>
        <time>2019-11-02T09:18:07Z</time>
      </trkpt>
      <trkpt lat="38.50831875577569" lon="-2.448286442086101">
        <ele>1102.5999755859375</ele>
        <time>2019-11-02T09:18:08Z</time>
      </trkpt>
      <trkpt lat="38.508322862908244" lon="-2.448366489261389">
        <ele>1103.800048828125</ele>
        <time>2019-11-02T09:18:12Z</time>
      </trkpt>
      <trkpt lat="38.508337866514921" lon="-2.448466988280416">
        <ele>1104.5999755859375</ele>
        <time>2019-11-02T09:18:17Z</time>
      </trkpt>
      <trkpt lat="38.508348595350981" lon="-2.448524152860045">
        <ele>1104.800048828125</ele>
        <time>2019-11-02T09:18:20Z</time>
      </trkpt>
      <trkpt lat="38.508367538452148" lon="-2.448642672970891">
        <ele>1105.800048828125</ele>
        <time>2019-11-02T09:18:26Z</time>
      </trkpt>
      <trkpt lat="38.508372651413083" lon="-2.448683073744178">
        <ele>1105.800048828125</ele>
        <time>2019-11-02T09:18:28Z</time>
      </trkpt>
      <trkpt lat="38.50837835110724" lon="-2.448822883889079">
        <ele>1106.4000244140625</ele>
        <time>2019-11-02T09:18:35Z</time>
      </trkpt>
      <trkpt lat="38.508373657241464" lon="-2.448885077610612">
        <ele>1106.800048828125</ele>
        <time>2019-11-02T09:18:38Z</time>
      </trkpt>
      <trkpt lat="38.508368292823434" lon="-2.44898708537221">
        <ele>1107.800048828125</ele>
        <time>2019-11-02T09:18:43Z</time>
      </trkpt>
      <trkpt lat="38.508364940062165" lon="-2.449008459225297">
        <ele>1107.800048828125</ele>
        <time>2019-11-02T09:18:44Z</time>
      </trkpt>
      <trkpt lat="38.508348679170012" lon="-2.449170313775539">
        <ele>1109</ele>
        <time>2019-11-02T09:18:52Z</time>
      </trkpt>
      <trkpt lat="38.508371477946639" lon="-2.449337113648653">
        <ele>1109.800048828125</ele>
        <time>2019-11-02T09:19:00Z</time>
      </trkpt>
      <trkpt lat="38.508374663069844" lon="-2.449357397854328">
        <ele>1110.199951171875</ele>
        <time>2019-11-02T09:19:01Z</time>
      </trkpt>
      <trkpt lat="38.508447166532278" lon="-2.449509613215923">
        <ele>1110.199951171875</ele>
        <time>2019-11-02T09:19:09Z</time>
      </trkpt>
      <trkpt lat="38.508500307798386" lon="-2.449615141376853">
        <ele>1110.800048828125</ele>
        <time>2019-11-02T09:19:15Z</time>
      </trkpt>
      <trkpt lat="38.508512461557984" lon="-2.449650345370173">
        <ele>1111.199951171875</ele>
        <time>2019-11-02T09:19:17Z</time>
      </trkpt>
      <trkpt lat="38.508532661944628" lon="-2.449701642617583">
        <ele>1111.800048828125</ele>
        <time>2019-11-02T09:19:20Z</time>
      </trkpt>
      <trkpt lat="38.508558729663491" lon="-2.449786383658648">
        <ele>1112.800048828125</ele>
        <time>2019-11-02T09:19:25Z</time>
      </trkpt>
      <trkpt lat="38.508564429357648" lon="-2.449807338416576">
        <ele>1113</ele>
        <time>2019-11-02T09:19:26Z</time>
      </trkpt>
      <trkpt lat="38.508612373843789" lon="-2.449983190745115">
        <ele>1113.800048828125</ele>
        <time>2019-11-02T09:19:35Z</time>
      </trkpt>
      <trkpt lat="38.508617822080851" lon="-2.450001882389188">
        <ele>1114</ele>
        <time>2019-11-02T09:19:36Z</time>
      </trkpt>
      <trkpt lat="38.508650427684188" lon="-2.45013490319252">
        <ele>1115.199951171875</ele>
        <time>2019-11-02T09:19:43Z</time>
      </trkpt>
      <trkpt lat="38.50865738466382" lon="-2.450155690312386">
        <ele>1115.199951171875</ele>
        <time>2019-11-02T09:19:44Z</time>
      </trkpt>
      <trkpt lat="38.50868328474462" lon="-2.450288040563464">
        <ele>1116.4000244140625</ele>
        <time>2019-11-02T09:19:51Z</time>
      </trkpt>
      <trkpt lat="38.508704071864486" lon="-2.450340762734413">
        <ele>1116.800048828125</ele>
        <time>2019-11-02T09:19:54Z</time>
      </trkpt>
      <trkpt lat="38.508745897561312" lon="-2.450400860980153">
        <ele>1117.4000244140625</ele>
        <time>2019-11-02T09:19:58Z</time>
      </trkpt>
      <trkpt lat="38.508794261142612" lon="-2.450451236218214">
        <ele>1118.199951171875</ele>
        <time>2019-11-02T09:20:02Z</time>
      </trkpt>
      <trkpt lat="38.50881764665246" lon="-2.450477723032236">
        <ele>1118.5999755859375</ele>
        <time>2019-11-02T09:20:04Z</time>
      </trkpt>
      <trkpt lat="38.50889241322875" lon="-2.450538408011198">
        <ele>1119.199951171875</ele>
        <time>2019-11-02T09:20:10Z</time>
      </trkpt>
      <trkpt lat="38.508928371593356" lon="-2.450568415224552">
        <ele>1119.5999755859375</ele>
        <time>2019-11-02T09:20:13Z</time>
      </trkpt>
      <trkpt lat="38.508991654962301" lon="-2.450608229264617">
        <ele>1119.800048828125</ele>
        <time>2019-11-02T09:20:18Z</time>
      </trkpt>
      <trkpt lat="38.509102631360292" lon="-2.450682912021875">
        <ele>1120.4000244140625</ele>
        <time>2019-11-02T09:20:27Z</time>
      </trkpt>
      <trkpt lat="38.50920514203608" lon="-2.450739154592156">
        <ele>1120.4000244140625</ele>
        <time>2019-11-02T09:20:35Z</time>
      </trkpt>
      <trkpt lat="38.509306311607361" lon="-2.450791206210852">
        <ele>1120.800048828125</ele>
        <time>2019-11-02T09:20:43Z</time>
      </trkpt>
      <trkpt lat="38.509317878633738" lon="-2.450797911733389">
        <ele>1120.800048828125</ele>
        <time>2019-11-02T09:20:44Z</time>
      </trkpt>
      <trkpt lat="38.509415192529559" lon="-2.450861362740397">
        <ele>1121.800048828125</ele>
        <time>2019-11-02T09:20:51Z</time>
      </trkpt>
      <trkpt lat="38.509436985477805" lon="-2.450876114889979">
        <ele>1122</ele>
        <time>2019-11-02T09:20:52Z</time>
      </trkpt>
      <trkpt lat="38.509558606892824" lon="-2.450900506228209">
        <ele>1122.800048828125</ele>
        <time>2019-11-02T09:20:58Z</time>
      </trkpt>
      <trkpt lat="38.509672097861767" lon="-2.450976362451911">
        <ele>1123.800048828125</ele>
        <time>2019-11-02T09:21:05Z</time>
      </trkpt>
      <trkpt lat="38.509684670716524" lon="-2.450993377715349">
        <ele>1124</ele>
        <time>2019-11-02T09:21:06Z</time>
      </trkpt>
      <trkpt lat="38.509698333218694" lon="-2.451034029945731">
        <ele>1125</ele>
        <time>2019-11-02T09:21:08Z</time>
      </trkpt>
      <trkpt lat="38.509719539433718" lon="-2.451096726581454">
        <ele>1125.800048828125</ele>
        <time>2019-11-02T09:21:11Z</time>
      </trkpt>
      <trkpt lat="38.509777626022696" lon="-2.451221281662583">
        <ele>1126</ele>
        <time>2019-11-02T09:21:18Z</time>
      </trkpt>
      <trkpt lat="38.509843004867435" lon="-2.451266627758741">
        <ele>1127.199951171875</ele>
        <time>2019-11-02T09:21:23Z</time>
      </trkpt>
      <trkpt lat="38.509872760623693" lon="-2.451274087652564">
        <ele>1128</ele>
        <time>2019-11-02T09:21:25Z</time>
      </trkpt>
      <trkpt lat="38.509888183325529" lon="-2.451276686042547">
        <ele>1128.4000244140625</ele>
        <time>2019-11-02T09:21:26Z</time>
      </trkpt>
      <trkpt lat="38.509952807798982" lon="-2.451279200613499">
        <ele>1129.5999755859375</ele>
        <time>2019-11-02T09:21:30Z</time>
      </trkpt>
      <trkpt lat="38.509968230500817" lon="-2.451279535889626">
        <ele>1129.800048828125</ele>
        <time>2019-11-02T09:21:31Z</time>
      </trkpt>
      <trkpt lat="38.510071327909827" lon="-2.451261933892965">
        <ele>1130.4000244140625</ele>
        <time>2019-11-02T09:21:38Z</time>
      </trkpt>
      <trkpt lat="38.510085241869092" lon="-2.451258162036538">
        <ele>1130.5999755859375</ele>
        <time>2019-11-02T09:21:39Z</time>
      </trkpt>
      <trkpt lat="38.510141400620341" lon="-2.451252127066255">
        <ele>1132</ele>
        <time>2019-11-02T09:21:43Z</time>
      </trkpt>
      <trkpt lat="38.510202672332525" lon="-2.451256988570094">
        <ele>1132.4000244140625</ele>
        <time>2019-11-02T09:21:47Z</time>
      </trkpt>
      <trkpt lat="38.510266542434692" lon="-2.451337035745382">
        <ele>1133.199951171875</ele>
        <time>2019-11-02T09:21:53Z</time>
      </trkpt>
      <trkpt lat="38.510331753641367" lon="-2.451424039900303">
        <ele>1134.4000244140625</ele>
        <time>2019-11-02T09:21:59Z</time>
      </trkpt>
      <trkpt lat="38.510373746976256" lon="-2.451449856162071">
        <ele>1135.199951171875</ele>
        <time>2019-11-02T09:22:02Z</time>
      </trkpt>
      <trkpt lat="38.510397970676422" lon="-2.45146444067359">
        <ele>1135.4000244140625</ele>
        <time>2019-11-02T09:22:04Z</time>
      </trkpt>
      <trkpt lat="38.510467205196619" lon="-2.451503919437528">
        <ele>1135.800048828125</ele>
        <time>2019-11-02T09:22:09Z</time>
      </trkpt>
      <trkpt lat="38.510522022843361" lon="-2.451537195593119">
        <ele>1136.4000244140625</ele>
        <time>2019-11-02T09:22:13Z</time>
      </trkpt>
      <trkpt lat="38.51057717576623" lon="-2.451581619679928">
        <ele>1136.800048828125</ele>
        <time>2019-11-02T09:22:17Z</time>
      </trkpt>
      <trkpt lat="38.510613217949867" lon="-2.451618248596787">
        <ele>1137.4000244140625</ele>
        <time>2019-11-02T09:22:20Z</time>
      </trkpt>
      <trkpt lat="38.510659988969564" lon="-2.451665941625834">
        <ele>1137.800048828125</ele>
        <time>2019-11-02T09:22:24Z</time>
      </trkpt>
      <trkpt lat="38.510762583464384" lon="-2.451782450079918">
        <ele>1138.4000244140625</ele>
        <time>2019-11-02T09:22:33Z</time>
      </trkpt>
      <trkpt lat="38.510774988681078" lon="-2.451791167259216">
        <ele>1138.5999755859375</ele>
        <time>2019-11-02T09:22:34Z</time>
      </trkpt>
      <trkpt lat="38.510848078876734" lon="-2.451850594952703">
        <ele>1139.5999755859375</ele>
        <time>2019-11-02T09:22:40Z</time>
      </trkpt>
      <trkpt lat="38.510922091081738" lon="-2.451886469498277">
        <ele>1140.4000244140625</ele>
        <time>2019-11-02T09:22:46Z</time>
      </trkpt>
      <trkpt lat="38.511018399149179" lon="-2.45189837180078">
        <ele>1140.4000244140625</ele>
        <time>2019-11-02T09:22:53Z</time>
      </trkpt>
      <trkpt lat="38.511138092726469" lon="-2.451898036524653">
        <ele>1140.800048828125</ele>
        <time>2019-11-02T09:23:00Z</time>
      </trkpt>
      <trkpt lat="38.511183522641659" lon="-2.451884290203452">
        <ele>1141.199951171875</ele>
        <time>2019-11-02T09:23:03Z</time>
      </trkpt>
      <trkpt lat="38.511266503483057" lon="-2.451842715963721">
        <ele>1142</ele>
        <time>2019-11-02T09:23:09Z</time>
      </trkpt>
      <trkpt lat="38.511301623657346" lon="-2.451833328232169">
        <ele>1142.199951171875</ele>
        <time>2019-11-02T09:23:11Z</time>
      </trkpt>
      <trkpt lat="38.511445792391896" lon="-2.45180943980813">
        <ele>1143</ele>
        <time>2019-11-02T09:23:20Z</time>
      </trkpt>
      <trkpt lat="38.51154369302094" lon="-2.451773816719651">
        <ele>1143.800048828125</ele>
        <time>2019-11-02T09:23:26Z</time>
      </trkpt>
      <trkpt lat="38.511579232290387" lon="-2.451767781749368">
        <ele>1143.800048828125</ele>
        <time>2019-11-02T09:23:28Z</time>
      </trkpt>
      <trkpt lat="38.511707223951817" lon="-2.451765099540353">
        <ele>1145</ele>
        <time>2019-11-02T09:23:36Z</time>
      </trkpt>
      <trkpt lat="38.511722395196557" lon="-2.451768033206463">
        <ele>1145</ele>
        <time>2019-11-02T09:23:37Z</time>
      </trkpt>
      <trkpt lat="38.511792132630944" lon="-2.451769541949034">
        <ele>1146</ele>
        <time>2019-11-02T09:23:42Z</time>
      </trkpt>
      <trkpt lat="38.511826330795884" lon="-2.451759232208133">
        <ele>1147</ele>
        <time>2019-11-02T09:23:45Z</time>
      </trkpt>
      <trkpt lat="38.511838400736451" lon="-2.451754370704293">
        <ele>1147.199951171875</ele>
        <time>2019-11-02T09:23:46Z</time>
      </trkpt>
      <trkpt lat="38.511915011331439" lon="-2.451716735959053">
        <ele>1148</ele>
        <time>2019-11-02T09:23:52Z</time>
      </trkpt>
      <trkpt lat="38.511952562257648" lon="-2.451686644926667">
        <ele>1148.199951171875</ele>
        <time>2019-11-02T09:23:55Z</time>
      </trkpt>
      <trkpt lat="38.512060940265656" lon="-2.451606513932347">
        <ele>1149.4000244140625</ele>
        <time>2019-11-02T09:24:03Z</time>
      </trkpt>
      <trkpt lat="38.51208558306098" lon="-2.451582793146372">
        <ele>1149.5999755859375</ele>
        <time>2019-11-02T09:24:05Z</time>
      </trkpt>
      <trkpt lat="38.512162948027253" lon="-2.451522862538695">
        <ele>1150.5999755859375</ele>
        <time>2019-11-02T09:24:11Z</time>
      </trkpt>
      <trkpt lat="38.512217681854963" lon="-2.451490089297295">
        <ele>1151</ele>
        <time>2019-11-02T09:24:15Z</time>
      </trkpt>
      <trkpt lat="38.512271326035261" lon="-2.45145714841783">
        <ele>1151.5999755859375</ele>
        <time>2019-11-02T09:24:19Z</time>
      </trkpt>
      <trkpt lat="38.512307787314057" lon="-2.451434349641204">
        <ele>1152.199951171875</ele>
        <time>2019-11-02T09:24:22Z</time>
      </trkpt>
      <trkpt lat="38.512345589697361" lon="-2.451418088749051">
        <ele>1152.800048828125</ele>
        <time>2019-11-02T09:24:25Z</time>
      </trkpt>
      <trkpt lat="38.512396803125739" lon="-2.451389087364078">
        <ele>1153.199951171875</ele>
        <time>2019-11-02T09:24:29Z</time>
      </trkpt>
      <trkpt lat="38.512439047917724" lon="-2.451361762359738">
        <ele>1154</ele>
        <time>2019-11-02T09:24:32Z</time>
      </trkpt>
      <trkpt lat="38.512517418712378" lon="-2.451315075159073">
        <ele>1155</ele>
        <time>2019-11-02T09:24:38Z</time>
      </trkpt>
      <trkpt lat="38.512631244957447" lon="-2.451281044632196">
        <ele>1156</ele>
        <time>2019-11-02T09:24:45Z</time>
      </trkpt>
      <trkpt lat="38.512645410373807" lon="-2.451276769861579">
        <ele>1156.199951171875</ele>
        <time>2019-11-02T09:24:46Z</time>
      </trkpt>
      <trkpt lat="38.512677345424891" lon="-2.451263945549726">
        <ele>1156.4000244140625</ele>
        <time>2019-11-02T09:24:49Z</time>
      </trkpt>
      <trkpt lat="38.512705005705357" lon="-2.451253719627857">
        <ele>1156.800048828125</ele>
        <time>2019-11-02T09:24:51Z</time>
      </trkpt>
      <trkpt lat="38.512735348194838" lon="-2.451248271390796">
        <ele>1157.199951171875</ele>
        <time>2019-11-02T09:24:53Z</time>
      </trkpt>
      <trkpt lat="38.512780107557774" lon="-2.451240308582783">
        <ele>1157.4000244140625</ele>
        <time>2019-11-02T09:24:56Z</time>
      </trkpt>
      <trkpt lat="38.512808354571462" lon="-2.45122748427093">
        <ele>1157.800048828125</ele>
        <time>2019-11-02T09:24:58Z</time>
      </trkpt>
      <trkpt lat="38.512840289622545" lon="-2.451220862567425">
        <ele>1158.4000244140625</ele>
        <time>2019-11-02T09:25:00Z</time>
      </trkpt>
      <trkpt lat="38.512886222451925" lon="-2.451200997456908">
        <ele>1158.800048828125</ele>
        <time>2019-11-02T09:25:03Z</time>
      </trkpt>
      <trkpt lat="38.512944644317031" lon="-2.451168978586793">
        <ele>1159.4000244140625</ele>
        <time>2019-11-02T09:25:07Z</time>
      </trkpt>
      <trkpt lat="38.512967191636562" lon="-2.451153891161084">
        <ele>1159.800048828125</ele>
        <time>2019-11-02T09:25:09Z</time>
      </trkpt>
      <trkpt lat="38.512980099767447" lon="-2.451146431267262">
        <ele>1160</ele>
        <time>2019-11-02T09:25:10Z</time>
      </trkpt>
      <trkpt lat="38.513037348166108" lon="-2.451115502044559">
        <ele>1160.5999755859375</ele>
        <time>2019-11-02T09:25:14Z</time>
      </trkpt>
      <trkpt lat="38.513048915192485" lon="-2.451106030493975">
        <ele>1160.800048828125</ele>
        <time>2019-11-02T09:25:15Z</time>
      </trkpt>
      <trkpt lat="38.513176823034883" lon="-2.450985666364431">
        <ele>1161</ele>
        <time>2019-11-02T09:25:25Z</time>
      </trkpt>
      <trkpt lat="38.513196185231209" lon="-2.450959095731378">
        <ele>1161.4000244140625</ele>
        <time>2019-11-02T09:25:27Z</time>
      </trkpt>
      <trkpt lat="38.513246811926365" lon="-2.450916767120361">
        <ele>1162</ele>
        <time>2019-11-02T09:25:31Z</time>
      </trkpt>
      <trkpt lat="38.513271035626531" lon="-2.450911151245236">
        <ele>1162.199951171875</ele>
        <time>2019-11-02T09:25:33Z</time>
      </trkpt>
      <trkpt lat="38.513300288468599" lon="-2.450906289741397">
        <ele>1162.4000244140625</ele>
        <time>2019-11-02T09:25:35Z</time>
      </trkpt>
      <trkpt lat="38.513359632343054" lon="-2.450904780998826">
        <ele>1163</ele>
        <time>2019-11-02T09:25:39Z</time>
      </trkpt>
      <trkpt lat="38.513385029509664" lon="-2.450914923101664">
        <ele>1163.5999755859375</ele>
        <time>2019-11-02T09:25:41Z</time>
      </trkpt>
      <trkpt lat="38.513398021459579" lon="-2.450921209529042">
        <ele>1163.5999755859375</ele>
        <time>2019-11-02T09:25:42Z</time>
      </trkpt>
      <trkpt lat="38.513469351455569" lon="-2.450960017740726">
        <ele>1164.199951171875</ele>
        <time>2019-11-02T09:25:47Z</time>
      </trkpt>
      <trkpt lat="38.513498771935701" lon="-2.450964208692312">
        <ele>1164.5999755859375</ele>
        <time>2019-11-02T09:25:49Z</time>
      </trkpt>
      <trkpt lat="38.513577897101641" lon="-2.450960772112012">
        <ele>1164.800048828125</ele>
        <time>2019-11-02T09:25:53Z</time>
      </trkpt>
      <trkpt lat="38.513649059459567" lon="-2.450955742970109">
        <ele>1165.5999755859375</ele>
        <time>2019-11-02T09:25:57Z</time>
      </trkpt>
      <trkpt lat="38.513685436919332" lon="-2.450952054932714">
        <ele>1166.800048828125</ele>
        <time>2019-11-02T09:25:59Z</time>
      </trkpt>
      <trkpt lat="38.513701949268579" lon="-2.450946941971779">
        <ele>1167</ele>
        <time>2019-11-02T09:26:00Z</time>
      </trkpt>
      <trkpt lat="38.513756766915321" lon="-2.450912073254585">
        <ele>1167.800048828125</ele>
        <time>2019-11-02T09:26:04Z</time>
      </trkpt>
      <trkpt lat="38.513809908181429" lon="-2.450859770178795">
        <ele>1168.800048828125</ele>
        <time>2019-11-02T09:26:08Z</time>
      </trkpt>
      <trkpt lat="38.513820804655552" lon="-2.450842335820198">
        <ele>1168.800048828125</ele>
        <time>2019-11-02T09:26:09Z</time>
      </trkpt>
      <trkpt lat="38.513861792162061" lon="-2.450730605050921">
        <ele>1169.5999755859375</ele>
        <time>2019-11-02T09:26:15Z</time>
      </trkpt>
      <trkpt lat="38.51388425566256" lon="-2.450671009719372">
        <ele>1170</ele>
        <time>2019-11-02T09:26:18Z</time>
      </trkpt>
      <trkpt lat="38.513922980055213" lon="-2.450551148504019">
        <ele>1171.199951171875</ele>
        <time>2019-11-02T09:26:24Z</time>
      </trkpt>
      <trkpt lat="38.513948544859886" lon="-2.450434137135744">
        <ele>1172</ele>
        <time>2019-11-02T09:26:31Z</time>
      </trkpt>
      <trkpt lat="38.513959692791104" lon="-2.450401112437248">
        <ele>1172.199951171875</ele>
        <time>2019-11-02T09:26:33Z</time>
      </trkpt>
      <trkpt lat="38.513988358899951" lon="-2.450333135202527">
        <ele>1172.5999755859375</ele>
        <time>2019-11-02T09:26:37Z</time>
      </trkpt>
      <trkpt lat="38.513995483517647" lon="-2.45031762868166">
        <ele>1172.800048828125</ele>
        <time>2019-11-02T09:26:38Z</time>
      </trkpt>
      <trkpt lat="38.514028340578079" lon="-2.450252082198858">
        <ele>1173.199951171875</ele>
        <time>2019-11-02T09:26:42Z</time>
      </trkpt>
      <trkpt lat="38.514056587591767" lon="-2.450207574293017">
        <ele>1173.800048828125</ele>
        <time>2019-11-02T09:26:45Z</time>
      </trkpt>
      <trkpt lat="38.51410654373467" lon="-2.450143117457628">
        <ele>1174.4000244140625</ele>
        <time>2019-11-02T09:26:50Z</time>
      </trkpt>
      <trkpt lat="38.514151051640511" lon="-2.450099447742105">
        <ele>1175.199951171875</ele>
        <time>2019-11-02T09:26:54Z</time>
      </trkpt>
      <trkpt lat="38.514162031933665" lon="-2.450089724734426">
        <ele>1175.4000244140625</ele>
        <time>2019-11-02T09:26:55Z</time>
      </trkpt>
      <trkpt lat="38.514248030260205" lon="-2.450003810226917">
        <ele>1176.5999755859375</ele>
        <time>2019-11-02T09:27:03Z</time>
      </trkpt>
      <trkpt lat="38.514329669997096" lon="-2.449933318421245">
        <ele>1177.800048828125</ele>
        <time>2019-11-02T09:27:10Z</time>
      </trkpt>
      <trkpt lat="38.514407705515623" lon="-2.449864083901048">
        <ele>1178.800048828125</ele>
        <time>2019-11-02T09:27:16Z</time>
      </trkpt>
      <trkpt lat="38.514422038570046" lon="-2.449851762503386">
        <ele>1179</ele>
        <time>2019-11-02T09:27:17Z</time>
      </trkpt>
      <trkpt lat="38.514489093795419" lon="-2.44979334063828">
        <ele>1179.800048828125</ele>
        <time>2019-11-02T09:27:22Z</time>
      </trkpt>
      <trkpt lat="38.514529913663864" lon="-2.449769536033273">
        <ele>1180.199951171875</ele>
        <time>2019-11-02T09:27:25Z</time>
      </trkpt>
      <trkpt lat="38.514587916433811" lon="-2.449731482192874">
        <ele>1180.800048828125</ele>
        <time>2019-11-02T09:27:30Z</time>
      </trkpt>
      <trkpt lat="38.514601662755013" lon="-2.449728045612574">
        <ele>1180.800048828125</ele>
        <time>2019-11-02T09:27:31Z</time>
      </trkpt>
      <trkpt lat="38.514626389369369" lon="-2.449709856882691">
        <ele>1181</ele>
        <time>2019-11-02T09:27:33Z</time>
      </trkpt>
      <trkpt lat="38.514693947508931" lon="-2.449677838012576">
        <ele>1181.4000244140625</ele>
        <time>2019-11-02T09:27:38Z</time>
      </trkpt>
      <trkpt lat="38.514738790690899" lon="-2.449672222137451">
        <ele>1182</ele>
        <time>2019-11-02T09:27:41Z</time>
      </trkpt>
      <trkpt lat="38.514753794297576" lon="-2.449668534100056">
        <ele>1182.199951171875</ele>
        <time>2019-11-02T09:27:42Z</time>
      </trkpt>
      <trkpt lat="38.514817580580711" lon="-2.449656380340457">
        <ele>1182.800048828125</ele>
        <time>2019-11-02T09:27:46Z</time>
      </trkpt>
      <trkpt lat="38.514867536723614" lon="-2.449642885476351">
        <ele>1183.199951171875</ele>
        <time>2019-11-02T09:27:49Z</time>
      </trkpt>
      <trkpt lat="38.514954457059503" lon="-2.449614387005568">
        <ele>1184.199951171875</ele>
        <time>2019-11-02T09:27:55Z</time>
      </trkpt>
      <trkpt lat="38.515037773177028" lon="-2.449582116678357">
        <ele>1185</ele>
        <time>2019-11-02T09:28:01Z</time>
      </trkpt>
      <trkpt lat="38.515083203092217" lon="-2.449557390064001">
        <ele>1185</ele>
        <time>2019-11-02T09:28:04Z</time>
      </trkpt>
      <trkpt lat="38.515153611078858" lon="-2.449523862451315">
        <ele>1185.800048828125</ele>
        <time>2019-11-02T09:28:09Z</time>
      </trkpt>
      <trkpt lat="38.515166938304901" lon="-2.449519336223602">
        <ele>1186</ele>
        <time>2019-11-02T09:28:10Z</time>
      </trkpt>
      <trkpt lat="38.515256121754646" lon="-2.449483713135123">
        <ele>1186.5999755859375</ele>
        <time>2019-11-02T09:28:16Z</time>
      </trkpt>
      <trkpt lat="38.515327284112573" lon="-2.449449514970183">
        <ele>1187.199951171875</ele>
        <time>2019-11-02T09:28:21Z</time>
      </trkpt>
      <trkpt lat="38.515370702371001" lon="-2.449429985135794">
        <ele>1187.4000244140625</ele>
        <time>2019-11-02T09:28:24Z</time>
      </trkpt>
      <trkpt lat="38.515437673777342" lon="-2.449411796405911">
        <ele>1188.199951171875</ele>
        <time>2019-11-02T09:28:29Z</time>
      </trkpt>
      <trkpt lat="38.515482265502214" lon="-2.449403665959835">
        <ele>1189</ele>
        <time>2019-11-02T09:28:32Z</time>
      </trkpt>
      <trkpt lat="38.515495592728257" lon="-2.449405342340469">
        <ele>1189</ele>
        <time>2019-11-02T09:28:33Z</time>
      </trkpt>
      <trkpt lat="38.515572119504213" lon="-2.449390338733792">
        <ele>1189.800048828125</ele>
        <time>2019-11-02T09:28:39Z</time>
      </trkpt>
      <trkpt lat="38.51560665294528" lon="-2.449381537735462">
        <ele>1190.199951171875</ele>
        <time>2019-11-02T09:28:42Z</time>
      </trkpt>
      <trkpt lat="38.515659291297197" lon="-2.449368461966515">
        <ele>1191</ele>
        <time>2019-11-02T09:28:46Z</time>
      </trkpt>
      <trkpt lat="38.515672450885177" lon="-2.449367204681039">
        <ele>1191.199951171875</ele>
        <time>2019-11-02T09:28:47Z</time>
      </trkpt>
      <trkpt lat="38.515778481960297" lon="-2.449327977374196">
        <ele>1192</ele>
        <time>2019-11-02T09:28:54Z</time>
      </trkpt>
      <trkpt lat="38.515811841934919" lon="-2.449316075071692">
        <ele>1192.199951171875</ele>
        <time>2019-11-02T09:28:56Z</time>
      </trkpt>
      <trkpt lat="38.51592231541872" lon="-2.449262849986553">
        <ele>1192.5999755859375</ele>
        <time>2019-11-02T09:29:03Z</time>
      </trkpt>
      <trkpt lat="38.516005715355277" lon="-2.449191771447659">
        <ele>1193</ele>
        <time>2019-11-02T09:29:09Z</time>
      </trkpt>
      <trkpt lat="38.516068663448095" lon="-2.449128152802587">
        <ele>1194.199951171875</ele>
        <time>2019-11-02T09:29:14Z</time>
      </trkpt>
      <trkpt lat="38.516125911846757" lon="-2.449067803099751">
        <ele>1195.199951171875</ele>
        <time>2019-11-02T09:29:19Z</time>
      </trkpt>
      <trkpt lat="38.516174023970962" lon="-2.449026564136147">
        <ele>1195.800048828125</ele>
        <time>2019-11-02T09:29:23Z</time>
      </trkpt>
      <trkpt lat="38.516232948750257" lon="-2.448970237746835">
        <ele>1196.4000244140625</ele>
        <time>2019-11-02T09:29:28Z</time>
      </trkpt>
      <trkpt lat="38.516267230734229" lon="-2.448938051238656">
        <ele>1196.800048828125</ele>
        <time>2019-11-02T09:29:31Z</time>
      </trkpt>
      <trkpt lat="38.516297405585647" lon="-2.448909971863031">
        <ele>1197.5999755859375</ele>
        <time>2019-11-02T09:29:34Z</time>
      </trkpt>
      <trkpt lat="38.516331017017365" lon="-2.448886251077056">
        <ele>1198.199951171875</ele>
        <time>2019-11-02T09:29:37Z</time>
      </trkpt>
      <trkpt lat="38.51635767146945" lon="-2.448874348774552">
        <ele>1198.4000244140625</ele>
        <time>2019-11-02T09:29:39Z</time>
      </trkpt>
      <trkpt lat="38.5163982398808" lon="-2.448853980749846">
        <ele>1199.5999755859375</ele>
        <time>2019-11-02T09:29:42Z</time>
      </trkpt>
      <trkpt lat="38.516425816342235" lon="-2.448841156437993">
        <ele>1200</ele>
        <time>2019-11-02T09:29:44Z</time>
      </trkpt>
      <trkpt lat="38.516451800242066" lon="-2.448830176144838">
        <ele>1200.800048828125</ele>
        <time>2019-11-02T09:29:46Z</time>
      </trkpt>
      <trkpt lat="38.516498990356922" lon="-2.448794133961201">
        <ele>1201.4000244140625</ele>
        <time>2019-11-02T09:29:50Z</time>
      </trkpt>
      <trkpt lat="38.516548275947571" lon="-2.448750967159867">
        <ele>1202</ele>
        <time>2019-11-02T09:29:54Z</time>
      </trkpt>
      <trkpt lat="38.516585743054748" lon="-2.448721127584577">
        <ele>1202.5999755859375</ele>
        <time>2019-11-02T09:29:57Z</time>
      </trkpt>
      <trkpt lat="38.516605105251074" lon="-2.448691707104445">
        <ele>1203</ele>
        <time>2019-11-02T09:29:59Z</time>
      </trkpt>
      <trkpt lat="38.516637878492475" lon="-2.448626914992929">
        <ele>1204.199951171875</ele>
        <time>2019-11-02T09:30:03Z</time>
      </trkpt>
      <trkpt lat="38.516645422205329" lon="-2.44860989972949">
        <ele>1204.4000244140625</ele>
        <time>2019-11-02T09:30:04Z</time>
      </trkpt>
      <trkpt lat="38.516660258173943" lon="-2.448579305782914">
        <ele>1205.5999755859375</ele>
        <time>2019-11-02T09:30:06Z</time>
      </trkpt>
      <trkpt lat="38.516678614541888" lon="-2.448537228628993">
        <ele>1206.800048828125</ele>
        <time>2019-11-02T09:30:09Z</time>
      </trkpt>
      <trkpt lat="38.516686828806996" lon="-2.448522141203284">
        <ele>1207.199951171875</ele>
        <time>2019-11-02T09:30:10Z</time>
      </trkpt>
      <trkpt lat="38.516696970909834" lon="-2.448509400710464">
        <ele>1207.5999755859375</ele>
        <time>2019-11-02T09:30:11Z</time>
      </trkpt>
      <trkpt lat="38.516705352813005" lon="-2.448497749865055">
        <ele>1207.800048828125</ele>
        <time>2019-11-02T09:30:12Z</time>
      </trkpt>
      <trkpt lat="38.516730833798647" lon="-2.448457013815641">
        <ele>1209</ele>
        <time>2019-11-02T09:30:15Z</time>
      </trkpt>
      <trkpt lat="38.516760757192969" lon="-2.448399933055043">
        <ele>1210.199951171875</ele>
        <time>2019-11-02T09:30:19Z</time>
      </trkpt>
      <trkpt lat="38.516770396381617" lon="-2.448388282209635">
        <ele>1210.4000244140625</ele>
        <time>2019-11-02T09:30:20Z</time>
      </trkpt>
      <trkpt lat="38.516807779669762" lon="-2.448349054902792">
        <ele>1211.4000244140625</ele>
        <time>2019-11-02T09:30:24Z</time>
      </trkpt>
      <trkpt lat="38.516847090795636" lon="-2.448310665786266">
        <ele>1212.5999755859375</ele>
        <time>2019-11-02T09:30:28Z</time>
      </trkpt>
      <trkpt lat="38.516858490183949" lon="-2.448303122073412">
        <ele>1212.800048828125</ele>
        <time>2019-11-02T09:30:29Z</time>
      </trkpt>
      <trkpt lat="38.516885228455067" lon="-2.448283340781927">
        <ele>1213.5999755859375</ele>
        <time>2019-11-02T09:30:31Z</time>
      </trkpt>
      <trkpt lat="38.516939040273428" lon="-2.448246041312814">
        <ele>1215</ele>
        <time>2019-11-02T09:30:35Z</time>
      </trkpt>
      <trkpt lat="38.516970220953226" lon="-2.448240173980594">
        <ele>1215.5999755859375</ele>
        <time>2019-11-02T09:30:37Z</time>
      </trkpt>
      <trkpt lat="38.517015567049384" lon="-2.448231959715486">
        <ele>1216.199951171875</ele>
        <time>2019-11-02T09:30:40Z</time>
      </trkpt>
      <trkpt lat="38.517060745507479" lon="-2.4482312053442">
        <ele>1217</ele>
        <time>2019-11-02T09:30:43Z</time>
      </trkpt>
      <trkpt lat="38.517076838761568" lon="-2.448229361325502">
        <ele>1217.4000244140625</ele>
        <time>2019-11-02T09:30:44Z</time>
      </trkpt>
      <trkpt lat="38.517114305868745" lon="-2.448226427659392">
        <ele>1218.5999755859375</ele>
        <time>2019-11-02T09:30:47Z</time>
      </trkpt>
      <trkpt lat="38.517153616994619" lon="-2.448227684944868">
        <ele>1219.4000244140625</ele>
        <time>2019-11-02T09:30:50Z</time>
      </trkpt>
      <trkpt lat="38.517167195677757" lon="-2.448230450972915">
        <ele>1219.5999755859375</ele>
        <time>2019-11-02T09:30:51Z</time>
      </trkpt>
      <trkpt lat="38.517234502360225" lon="-2.44824193418026">
        <ele>1220.5999755859375</ele>
        <time>2019-11-02T09:30:56Z</time>
      </trkpt>
      <trkpt lat="38.517250427976251" lon="-2.448237240314484">
        <ele>1220.800048828125</ele>
        <time>2019-11-02T09:30:57Z</time>
      </trkpt>
      <trkpt lat="38.517342209815979" lon="-2.448198851197958">
        <ele>1221.5999755859375</ele>
        <time>2019-11-02T09:31:04Z</time>
      </trkpt>
      <trkpt lat="38.517350591719151" lon="-2.448193319141865">
        <ele>1221.5999755859375</ele>
        <time>2019-11-02T09:31:05Z</time>
      </trkpt>
      <trkpt lat="38.517411779612303" lon="-2.448144033551216">
        <ele>1222.199951171875</ele>
        <time>2019-11-02T09:31:11Z</time>
      </trkpt>
      <trkpt lat="38.517482690513134" lon="-2.448073122650385">
        <ele>1222.800048828125</ele>
        <time>2019-11-02T09:31:17Z</time>
      </trkpt>
      <trkpt lat="38.517532059922814" lon="-2.448028195649385">
        <ele>1223.199951171875</ele>
        <time>2019-11-02T09:31:21Z</time>
      </trkpt>
      <trkpt lat="38.51760515011847" lon="-2.447954099625349">
        <ele>1223.800048828125</ele>
        <time>2019-11-02T09:31:27Z</time>
      </trkpt>
      <trkpt lat="38.517621913924813" lon="-2.44792627170682">
        <ele>1224.199951171875</ele>
        <time>2019-11-02T09:31:29Z</time>
      </trkpt>
      <trkpt lat="38.517672205343843" lon="-2.447863323614001">
        <ele>1224.800048828125</ele>
        <time>2019-11-02T09:31:34Z</time>
      </trkpt>
      <trkpt lat="38.517724592238665" lon="-2.447796436026692">
        <ele>1225.5999755859375</ele>
        <time>2019-11-02T09:31:39Z</time>
      </trkpt>
      <trkpt lat="38.517767004668713" lon="-2.44774698279798">
        <ele>1225.800048828125</ele>
        <time>2019-11-02T09:31:43Z</time>
      </trkpt>
      <trkpt lat="38.517806818708777" lon="-2.447695601731539">
        <ele>1226.199951171875</ele>
        <time>2019-11-02T09:31:47Z</time>
      </trkpt>
      <trkpt lat="38.517863396555185" lon="-2.447629552334547">
        <ele>1227</ele>
        <time>2019-11-02T09:31:52Z</time>
      </trkpt>
      <trkpt lat="38.517907904461026" lon="-2.44757984764874">
        <ele>1227.4000244140625</ele>
        <time>2019-11-02T09:31:56Z</time>
      </trkpt>
      <trkpt lat="38.517971187829971" lon="-2.447507595643401">
        <ele>1228</ele>
        <time>2019-11-02T09:32:02Z</time>
      </trkpt>
      <trkpt lat="38.517980994656682" lon="-2.447494938969612">
        <ele>1228.4000244140625</ele>
        <time>2019-11-02T09:32:03Z</time>
      </trkpt>
      <trkpt lat="38.518033549189568" lon="-2.447428638115525">
        <ele>1229.199951171875</ele>
        <time>2019-11-02T09:32:08Z</time>
      </trkpt>
      <trkpt lat="38.51806104183197" lon="-2.447389578446746">
        <ele>1229.4000244140625</ele>
        <time>2019-11-02T09:32:11Z</time>
      </trkpt>
      <trkpt lat="38.518100017681718" lon="-2.447348423302174">
        <ele>1230.199951171875</ele>
        <time>2019-11-02T09:32:15Z</time>
      </trkpt>
      <trkpt lat="38.518142849206924" lon="-2.447302741929889">
        <ele>1230.800048828125</ele>
        <time>2019-11-02T09:32:19Z</time>
      </trkpt>
      <trkpt lat="38.518242090940475" lon="-2.44723585434258">
        <ele>1231</ele>
        <time>2019-11-02T09:32:26Z</time>
      </trkpt>
      <trkpt lat="38.518287353217602" lon="-2.44721825234592">
        <ele>1231.4000244140625</ele>
        <time>2019-11-02T09:32:29Z</time>
      </trkpt>
      <trkpt lat="38.518350217491388" lon="-2.447199309244752">
        <ele>1231.5999755859375</ele>
        <time>2019-11-02T09:32:33Z</time>
      </trkpt>
      <trkpt lat="38.518378045409918" lon="-2.447194531559944">
        <ele>1231.5999755859375</ele>
        <time>2019-11-02T09:32:35Z</time>
      </trkpt>
      <trkpt lat="38.518431773409247" lon="-2.447191681712866">
        <ele>1231.4000244140625</ele>
        <time>2019-11-02T09:32:39Z</time>
      </trkpt>
      <trkpt lat="38.518512155860662" lon="-2.447183886542916">
        <ele>1230.800048828125</ele>
        <time>2019-11-02T09:32:45Z</time>
      </trkpt>
      <trkpt lat="38.518627909943461" lon="-2.447194783017039">
        <ele>1231.800048828125</ele>
        <time>2019-11-02T09:32:52Z</time>
      </trkpt>
      <trkpt lat="38.518679374828935" lon="-2.447214480489492">
        <ele>1232.4000244140625</ele>
        <time>2019-11-02T09:32:55Z</time>
      </trkpt>
      <trkpt lat="38.518725140020251" lon="-2.447229232639074">
        <ele>1233.199951171875</ele>
        <time>2019-11-02T09:32:58Z</time>
      </trkpt>
      <trkpt lat="38.518740897998214" lon="-2.447232501581311">
        <ele>1233.5999755859375</ele>
        <time>2019-11-02T09:32:59Z</time>
      </trkpt>
      <trkpt lat="38.51885698735714" lon="-2.447254210710526">
        <ele>1233.800048828125</ele>
        <time>2019-11-02T09:33:06Z</time>
      </trkpt>
      <trkpt lat="38.518943656235933" lon="-2.447272147983313">
        <ele>1234.5999755859375</ele>
        <time>2019-11-02T09:33:12Z</time>
      </trkpt>
      <trkpt lat="38.518959330394864" lon="-2.447274243459105">
        <ele>1235</ele>
        <time>2019-11-02T09:33:13Z</time>
      </trkpt>
      <trkpt lat="38.519005095586181" lon="-2.447258150205016">
        <ele>1235.5999755859375</ele>
        <time>2019-11-02T09:33:16Z</time>
      </trkpt>
      <trkpt lat="38.519043903797865" lon="-2.44723048992455">
        <ele>1236</ele>
        <time>2019-11-02T09:33:19Z</time>
      </trkpt>
      <trkpt lat="38.519094362854958" lon="-2.447163937613368">
        <ele>1236.4000244140625</ele>
        <time>2019-11-02T09:33:23Z</time>
      </trkpt>
      <trkpt lat="38.519122442230582" lon="-2.447105934843421">
        <ele>1236.4000244140625</ele>
        <time>2019-11-02T09:33:25Z</time>
      </trkpt>
      <trkpt lat="38.519173068925738" lon="-2.447031838819385">
        <ele>1236.199951171875</ele>
        <time>2019-11-02T09:33:27Z</time>
      </trkpt>
      <trkpt lat="38.519243476912379" lon="-2.446949779987335">
        <ele>1235.800048828125</ele>
        <time>2019-11-02T09:33:29Z</time>
      </trkpt>
      <trkpt lat="38.519336264580488" lon="-2.446825308725238">
        <ele>1235.5999755859375</ele>
        <time>2019-11-02T09:33:33Z</time>
      </trkpt>
      <trkpt lat="38.519360823556781" lon="-2.446754481643438">
        <ele>1236.4000244140625</ele>
        <time>2019-11-02T09:33:37Z</time>
      </trkpt>
      <trkpt lat="38.51935931481421" lon="-2.446715086698532">
        <ele>1236.5999755859375</ele>
        <time>2019-11-02T09:33:39Z</time>
      </trkpt>
      <trkpt lat="38.519354537129402" lon="-2.44669932872057">
        <ele>1236.800048828125</ele>
        <time>2019-11-02T09:33:40Z</time>
      </trkpt>
      <trkpt lat="38.519346909597516" lon="-2.446657083928585">
        <ele>1237</ele>
        <time>2019-11-02T09:33:42Z</time>
      </trkpt>
      <trkpt lat="38.519341545179486" lon="-2.446621628478169">
        <ele>1237</ele>
        <time>2019-11-02T09:33:44Z</time>
      </trkpt>
      <trkpt lat="38.519328385591507" lon="-2.446503024548292">
        <ele>1236.800048828125</ele>
        <time>2019-11-02T09:33:50Z</time>
      </trkpt>
      <trkpt lat="38.519300809130073" lon="-2.446345947682858">
        <ele>1237.4000244140625</ele>
        <time>2019-11-02T09:33:58Z</time>
      </trkpt>
      <trkpt lat="38.519293935969472" lon="-2.446306804195046">
        <ele>1237.800048828125</ele>
        <time>2019-11-02T09:34:00Z</time>
      </trkpt>
      <trkpt lat="38.519280776381493" lon="-2.446224829182029">
        <ele>1238.4000244140625</ele>
        <time>2019-11-02T09:34:04Z</time>
      </trkpt>
      <trkpt lat="38.519266527146101" lon="-2.446165736764669">
        <ele>1239</ele>
        <time>2019-11-02T09:34:07Z</time>
      </trkpt>
      <trkpt lat="38.519257642328739" lon="-2.44613598100841">
        <ele>1239.4000244140625</ele>
        <time>2019-11-02T09:34:09Z</time>
      </trkpt>
      <trkpt lat="38.519242471083999" lon="-2.446088455617428">
        <ele>1240</ele>
        <time>2019-11-02T09:34:12Z</time>
      </trkpt>
      <trkpt lat="38.519224282354116" lon="-2.445991225540638">
        <ele>1240.800048828125</ele>
        <time>2019-11-02T09:34:17Z</time>
      </trkpt>
      <trkpt lat="38.519219504669309" lon="-2.445964235812426">
        <ele>1241.199951171875</ele>
        <time>2019-11-02T09:34:19Z</time>
      </trkpt>
      <trkpt lat="38.519200142472982" lon="-2.445873124524951">
        <ele>1241.5999755859375</ele>
        <time>2019-11-02T09:34:24Z</time>
      </trkpt>
      <trkpt lat="38.519205674529076" lon="-2.445763992145658">
        <ele>1242.199951171875</ele>
        <time>2019-11-02T09:34:29Z</time>
      </trkpt>
      <trkpt lat="38.519210703670979" lon="-2.445743959397078">
        <ele>1242.4000244140625</ele>
        <time>2019-11-02T09:34:30Z</time>
      </trkpt>
      <trkpt lat="38.519232496619225" lon="-2.445652177557349">
        <ele>1243.199951171875</ele>
        <time>2019-11-02T09:34:36Z</time>
      </trkpt>
      <trkpt lat="38.519237861037254" lon="-2.445636335760355">
        <ele>1243.4000244140625</ele>
        <time>2019-11-02T09:34:37Z</time>
      </trkpt>
      <trkpt lat="38.519245740026236" lon="-2.445621164515615">
        <ele>1243.4000244140625</ele>
        <time>2019-11-02T09:34:38Z</time>
      </trkpt>
      <trkpt lat="38.519330145791173" lon="-2.445570454001427">
        <ele>1243.800048828125</ele>
        <time>2019-11-02T09:34:43Z</time>
      </trkpt>
      <trkpt lat="38.519437434151769" lon="-2.445542793720961">
        <ele>1243.5999755859375</ele>
        <time>2019-11-02T09:34:49Z</time>
      </trkpt>
      <trkpt lat="38.519545895978808" lon="-2.445524102076888">
        <ele>1244</ele>
        <time>2019-11-02T09:34:56Z</time>
      </trkpt>
      <trkpt lat="38.519589984789491" lon="-2.445501303300261">
        <ele>1244.4000244140625</ele>
        <time>2019-11-02T09:34:59Z</time>
      </trkpt>
      <trkpt lat="38.51965393871069" lon="-2.445455538108945">
        <ele>1245</ele>
        <time>2019-11-02T09:35:04Z</time>
      </trkpt>
      <trkpt lat="38.519682101905346" lon="-2.445427123457193">
        <ele>1245.4000244140625</ele>
        <time>2019-11-02T09:35:06Z</time>
      </trkpt>
      <trkpt lat="38.519724011421204" lon="-2.445371802896261">
        <ele>1246.4000244140625</ele>
        <time>2019-11-02T09:35:10Z</time>
      </trkpt>
      <trkpt lat="38.519730046391487" lon="-2.445356883108616">
        <ele>1246.5999755859375</ele>
        <time>2019-11-02T09:35:11Z</time>
      </trkpt>
      <trkpt lat="38.519732058048248" lon="-2.445275746285915">
        <ele>1247.199951171875</ele>
        <time>2019-11-02T09:35:15Z</time>
      </trkpt>
      <trkpt lat="38.519710013642907" lon="-2.44510643184185">
        <ele>1247</ele>
        <time>2019-11-02T09:35:21Z</time>
      </trkpt>
      <trkpt lat="38.519708756357431" lon="-2.445014901459217">
        <ele>1247.4000244140625</ele>
        <time>2019-11-02T09:35:25Z</time>
      </trkpt>
      <trkpt lat="38.519713869318366" lon="-2.444989588111639">
        <ele>1247.4000244140625</ele>
        <time>2019-11-02T09:35:26Z</time>
      </trkpt>
      <trkpt lat="38.519719233736396" lon="-2.444966118782759">
        <ele>1247.5999755859375</ele>
        <time>2019-11-02T09:35:27Z</time>
      </trkpt>
      <trkpt lat="38.519785199314356" lon="-2.444784818217158">
        <ele>1248</ele>
        <time>2019-11-02T09:35:34Z</time>
      </trkpt>
      <trkpt lat="38.519853260368109" lon="-2.444597566500306">
        <ele>1248.4000244140625</ele>
        <time>2019-11-02T09:35:41Z</time>
      </trkpt>
      <trkpt lat="38.519899696111679" lon="-2.444468317553401">
        <ele>1248.4000244140625</ele>
        <time>2019-11-02T09:35:46Z</time>
      </trkpt>
      <trkpt lat="38.519913023337722" lon="-2.444433281198144">
        <ele>1248.5999755859375</ele>
        <time>2019-11-02T09:35:48Z</time>
      </trkpt>
      <trkpt lat="38.519978737458587" lon="-2.44432901032269">
        <ele>1249</ele>
        <time>2019-11-02T09:35:53Z</time>
      </trkpt>
      <trkpt lat="38.520033722743392" lon="-2.444237060844898">
        <ele>1249.5999755859375</ele>
        <time>2019-11-02T09:35:58Z</time>
      </trkpt>
      <trkpt lat="38.520059455186129" lon="-2.444207053631544">
        <ele>1249.5999755859375</ele>
        <time>2019-11-02T09:36:00Z</time>
      </trkpt>
      <trkpt lat="38.520162887871265" lon="-2.444091970100999">
        <ele>1250</ele>
        <time>2019-11-02T09:36:07Z</time>
      </trkpt>
      <trkpt lat="38.520242180675268" lon="-2.443998428061604">
        <ele>1250.5999755859375</ele>
        <time>2019-11-02T09:36:13Z</time>
      </trkpt>
      <trkpt lat="38.520272606983781" lon="-2.443963140249252">
        <ele>1250.5999755859375</ele>
        <time>2019-11-02T09:36:15Z</time>
      </trkpt>
      <trkpt lat="38.52036246098578" lon="-2.44386088103056">
        <ele>1251</ele>
        <time>2019-11-02T09:36:21Z</time>
      </trkpt>
      <trkpt lat="38.520416775718331" lon="-2.443764237686992">
        <ele>1251.5999755859375</ele>
        <time>2019-11-02T09:36:26Z</time>
      </trkpt>
      <trkpt lat="38.520427588373423" lon="-2.443752335384488">
        <ele>1251.5999755859375</ele>
        <time>2019-11-02T09:36:27Z</time>
      </trkpt>
      <trkpt lat="38.520510653033853" lon="-2.443693913519382">
        <ele>1252.4000244140625</ele>
        <time>2019-11-02T09:36:33Z</time>
      </trkpt>
      <trkpt lat="38.520541414618492" lon="-2.443682095035911">
        <ele>1252.800048828125</ele>
        <time>2019-11-02T09:36:35Z</time>
      </trkpt>
      <trkpt lat="38.52058676071465" lon="-2.443639934062958">
        <ele>1253.800048828125</ele>
        <time>2019-11-02T09:36:39Z</time>
      </trkpt>
      <trkpt lat="38.5205979924649" lon="-2.443627445027232">
        <ele>1253.800048828125</ele>
        <time>2019-11-02T09:36:40Z</time>
      </trkpt>
      <trkpt lat="38.52067619562149" lon="-2.443547146394849">
        <ele>1254.4000244140625</ele>
        <time>2019-11-02T09:36:46Z</time>
      </trkpt>
      <trkpt lat="38.520685750991106" lon="-2.44354136288166">
        <ele>1254.800048828125</ele>
        <time>2019-11-02T09:36:50Z</time>
      </trkpt>
      <trkpt lat="38.520718608051538" lon="-2.443490400910378">
        <ele>1255.4000244140625</ele>
        <time>2019-11-02T09:36:57Z</time>
      </trkpt>
      <trkpt lat="38.520734114572406" lon="-2.443470787256956">
        <ele>1255.800048828125</ele>
        <time>2019-11-02T09:36:59Z</time>
      </trkpt>
      <trkpt lat="38.520740820094943" lon="-2.443462992087007">
        <ele>1256</ele>
        <time>2019-11-02T09:37:00Z</time>
      </trkpt>
      <trkpt lat="38.520775437355042" lon="-2.443442204967141">
        <ele>1257</ele>
        <time>2019-11-02T09:37:08Z</time>
      </trkpt>
      <trkpt lat="38.520804774016142" lon="-2.443438014015555">
        <ele>1258</ele>
        <time>2019-11-02T09:37:13Z</time>
      </trkpt>
      <trkpt lat="38.520836960524321" lon="-2.443438600748777">
        <ele>1259</ele>
        <time>2019-11-02T09:37:19Z</time>
      </trkpt>
      <trkpt lat="38.520876355469227" lon="-2.443423178046942">
        <ele>1260.5999755859375</ele>
        <time>2019-11-02T09:37:27Z</time>
      </trkpt>
      <trkpt lat="38.520881049335003" lon="-2.443421250209212">
        <ele>1261.5999755859375</ele>
        <time>2019-11-02T09:37:29Z</time>
      </trkpt>
      <trkpt lat="38.520887000486255" lon="-2.443419490009546">
        <ele>1261.800048828125</ele>
        <time>2019-11-02T09:37:30Z</time>
      </trkpt>
      <trkpt lat="38.520907368510962" lon="-2.443406414240599">
        <ele>1262.5999755859375</ele>
        <time>2019-11-02T09:37:37Z</time>
      </trkpt>
      <trkpt lat="38.520914828404784" lon="-2.443407000973821">
        <ele>1263</ele>
        <time>2019-11-02T09:37:39Z</time>
      </trkpt>
      <trkpt lat="38.520953049883246" lon="-2.443416891619563">
        <ele>1263.5999755859375</ele>
        <time>2019-11-02T09:37:48Z</time>
      </trkpt>
      <trkpt lat="38.520966544747353" lon="-2.443407336249948">
        <ele>1264</ele>
        <time>2019-11-02T09:37:50Z</time>
      </trkpt>
      <trkpt lat="38.521004598587751" lon="-2.44338646531105">
        <ele>1264.800048828125</ele>
        <time>2019-11-02T09:37:55Z</time>
      </trkpt>
      <trkpt lat="38.521034102886915" lon="-2.443369533866644">
        <ele>1265.800048828125</ele>
        <time>2019-11-02T09:38:00Z</time>
      </trkpt>
      <trkpt lat="38.521051369607449" lon="-2.443365510553122">
        <ele>1266.800048828125</ele>
        <time>2019-11-02T09:38:03Z</time>
      </trkpt>
      <trkpt lat="38.521055728197098" lon="-2.443362073972821">
        <ele>1267.199951171875</ele>
        <time>2019-11-02T09:38:04Z</time>
      </trkpt>
      <trkpt lat="38.521074838936329" lon="-2.443356122821569">
        <ele>1268.199951171875</ele>
        <time>2019-11-02T09:38:09Z</time>
      </trkpt>
      <trkpt lat="38.521103924140334" lon="-2.44333466514945">
        <ele>1269.199951171875</ele>
        <time>2019-11-02T09:38:15Z</time>
      </trkpt>
      <trkpt lat="38.521107444539666" lon="-2.443333994597197">
        <ele>1269.199951171875</ele>
        <time>2019-11-02T09:38:16Z</time>
      </trkpt>
      <trkpt lat="38.521133009344339" lon="-2.443339778110385">
        <ele>1270.4000244140625</ele>
        <time>2019-11-02T09:38:22Z</time>
      </trkpt>
      <trkpt lat="38.521164190024137" lon="-2.443340281024575">
        <ele>1271.4000244140625</ele>
        <time>2019-11-02T09:38:28Z</time>
      </trkpt>
      <trkpt lat="38.521175421774387" lon="-2.443342376500368">
        <ele>1271.800048828125</ele>
        <time>2019-11-02T09:38:30Z</time>
      </trkpt>
      <trkpt lat="38.521196795627475" lon="-2.443335838615894">
        <ele>1272.5999755859375</ele>
        <time>2019-11-02T09:38:33Z</time>
      </trkpt>
      <trkpt lat="38.521234262734652" lon="-2.443325780332088">
        <ele>1273.5999755859375</ele>
        <time>2019-11-02T09:38:38Z</time>
      </trkpt>
      <trkpt lat="38.521253960207105" lon="-2.443319661542773">
        <ele>1274</ele>
        <time>2019-11-02T09:38:41Z</time>
      </trkpt>
      <trkpt lat="38.52126644924283" lon="-2.443322092294693">
        <ele>1274.5999755859375</ele>
        <time>2019-11-02T09:38:47Z</time>
      </trkpt>
      <trkpt lat="38.521267455071211" lon="-2.443313123658299">
        <ele>1274.800048828125</ele>
        <time>2019-11-02T09:38:49Z</time>
      </trkpt>
      <trkpt lat="38.521291762590408" lon="-2.443284038454294">
        <ele>1275.4000244140625</ele>
        <time>2019-11-02T09:38:59Z</time>
      </trkpt>
      <trkpt lat="38.521308694034815" lon="-2.443254701793194">
        <ele>1275.800048828125</ele>
        <time>2019-11-02T09:39:03Z</time>
      </trkpt>
      <trkpt lat="38.521343981847167" lon="-2.443200219422579">
        <ele>1276.5999755859375</ele>
        <time>2019-11-02T09:39:08Z</time>
      </trkpt>
      <trkpt lat="38.521363427862525" lon="-2.443161327391863">
        <ele>1277</ele>
        <time>2019-11-02T09:39:11Z</time>
      </trkpt>
      <trkpt lat="38.521372312679887" lon="-2.443125369027257">
        <ele>1277.5999755859375</ele>
        <time>2019-11-02T09:39:14Z</time>
      </trkpt>
      <trkpt lat="38.521377006545663" lon="-2.443111035972834">
        <ele>1278</ele>
        <time>2019-11-02T09:39:15Z</time>
      </trkpt>
      <trkpt lat="38.521401565521955" lon="-2.4430419690907">
        <ele>1279.199951171875</ele>
        <time>2019-11-02T09:39:20Z</time>
      </trkpt>
      <trkpt lat="38.521435093134642" lon="-2.442992851138115">
        <ele>1279.800048828125</ele>
        <time>2019-11-02T09:39:24Z</time>
      </trkpt>
      <trkpt lat="38.521497286856174" lon="-2.442908277735114">
        <ele>1280.199951171875</ele>
        <time>2019-11-02T09:39:31Z</time>
      </trkpt>
      <trkpt lat="38.521564174443483" lon="-2.442813897505403">
        <ele>1280.5999755859375</ele>
        <time>2019-11-02T09:39:38Z</time>
      </trkpt>
      <trkpt lat="38.521568281576037" lon="-2.442748686298728">
        <ele>1281.199951171875</ele>
        <time>2019-11-02T09:39:43Z</time>
      </trkpt>
      <trkpt lat="38.521565850824118" lon="-2.442741394042969">
        <ele>1281.4000244140625</ele>
        <time>2019-11-02T09:39:44Z</time>
      </trkpt>
      <trkpt lat="38.52158454246819" lon="-2.442690180614591">
        <ele>1282.4000244140625</ele>
        <time>2019-11-02T09:39:49Z</time>
      </trkpt>
      <trkpt lat="38.521605832502246" lon="-2.442644583061337">
        <ele>1282.800048828125</ele>
        <time>2019-11-02T09:39:52Z</time>
      </trkpt>
      <trkpt lat="38.521631481125951" lon="-2.442585406824946">
        <ele>1283.5999755859375</ele>
        <time>2019-11-02T09:39:56Z</time>
      </trkpt>
      <trkpt lat="38.521664338186383" lon="-2.442502928897738">
        <ele>1284.5999755859375</ele>
        <time>2019-11-02T09:40:01Z</time>
      </trkpt>
      <trkpt lat="38.521673139184713" lon="-2.442488931119442">
        <ele>1285</ele>
        <time>2019-11-02T09:40:02Z</time>
      </trkpt>
      <trkpt lat="38.521698201075196" lon="-2.442429754883051">
        <ele>1285.800048828125</ele>
        <time>2019-11-02T09:40:06Z</time>
      </trkpt>
      <trkpt lat="38.521706080064178" lon="-2.442413661628962">
        <ele>1286</ele>
        <time>2019-11-02T09:40:07Z</time>
      </trkpt>
      <trkpt lat="38.521760813891888" lon="-2.442330680787563">
        <ele>1286.800048828125</ele>
        <time>2019-11-02T09:40:13Z</time>
      </trkpt>
      <trkpt lat="38.521806327626109" lon="-2.442187517881393">
        <ele>1288</ele>
        <time>2019-11-02T09:40:21Z</time>
      </trkpt>
      <trkpt lat="38.521810937672853" lon="-2.442150386050344">
        <ele>1288</ele>
        <time>2019-11-02T09:40:23Z</time>
      </trkpt>
      <trkpt lat="38.521821834146976" lon="-2.442087857052684">
        <ele>1288.800048828125</ele>
        <time>2019-11-02T09:40:27Z</time>
      </trkpt>
      <trkpt lat="38.521825773641467" lon="-2.442082073539495">
        <ele>1289.4000244140625</ele>
        <time>2019-11-02T09:40:29Z</time>
      </trkpt>
      <trkpt lat="38.521844130009413" lon="-2.442053491249681">
        <ele>1289.800048828125</ele>
        <time>2019-11-02T09:40:32Z</time>
      </trkpt>
      <trkpt lat="38.521868269890547" lon="-2.442028596997261">
        <ele>1290.4000244140625</ele>
        <time>2019-11-02T09:40:36Z</time>
      </trkpt>
      <trkpt lat="38.521889811381698" lon="-2.441990794613957">
        <ele>1290.5999755859375</ele>
        <time>2019-11-02T09:40:40Z</time>
      </trkpt>
      <trkpt lat="38.521891236305237" lon="-2.441978557035327">
        <ele>1290.5999755859375</ele>
        <time>2019-11-02T09:40:41Z</time>
      </trkpt>
      <trkpt lat="38.521897355094552" lon="-2.441936060786247">
        <ele>1290.4000244140625</ele>
        <time>2019-11-02T09:40:44Z</time>
      </trkpt>
      <trkpt lat="38.521929457783699" lon="-2.441842518746853">
        <ele>1291.5999755859375</ele>
        <time>2019-11-02T09:40:51Z</time>
      </trkpt>
      <trkpt lat="38.521932391449809" lon="-2.441833131015301">
        <ele>1291.800048828125</ele>
        <time>2019-11-02T09:40:52Z</time>
      </trkpt>
      <trkpt lat="38.521958291530609" lon="-2.441741600632668">
        <ele>1292.800048828125</ele>
        <time>2019-11-02T09:40:59Z</time>
      </trkpt>
      <trkpt lat="38.521984107792377" lon="-2.441672952845693">
        <ele>1293.5999755859375</ele>
        <time>2019-11-02T09:41:03Z</time>
      </trkpt>
      <trkpt lat="38.5219950042665" lon="-2.441642861813307">
        <ele>1293.800048828125</ele>
        <time>2019-11-02T09:41:05Z</time>
      </trkpt>
      <trkpt lat="38.521993830800056" lon="-2.441540351137519">
        <ele>1295</ele>
        <time>2019-11-02T09:41:12Z</time>
      </trkpt>
      <trkpt lat="38.521991483867168" lon="-2.441513864323497">
        <ele>1295.4000244140625</ele>
        <time>2019-11-02T09:41:14Z</time>
      </trkpt>
      <trkpt lat="38.521988717839122" lon="-2.441415209323168">
        <ele>1296</ele>
        <time>2019-11-02T09:41:21Z</time>
      </trkpt>
      <trkpt lat="38.521987460553646" lon="-2.441386291757226">
        <ele>1296.199951171875</ele>
        <time>2019-11-02T09:41:23Z</time>
      </trkpt>
      <trkpt lat="38.521979497745633" lon="-2.441330971196294">
        <ele>1297</ele>
        <time>2019-11-02T09:41:28Z</time>
      </trkpt>
      <trkpt lat="38.521976061165333" lon="-2.441289396956563">
        <ele>1297.4000244140625</ele>
        <time>2019-11-02T09:41:31Z</time>
      </trkpt>
      <trkpt lat="38.52196759544313" lon="-2.441243128851056">
        <ele>1298.199951171875</ele>
        <time>2019-11-02T09:41:36Z</time>
      </trkpt>
      <trkpt lat="38.521965583786368" lon="-2.44123550131917">
        <ele>1298.199951171875</ele>
        <time>2019-11-02T09:41:37Z</time>
      </trkpt>
      <trkpt lat="38.52197203785181" lon="-2.44119887240231">
        <ele>1299.4000244140625</ele>
        <time>2019-11-02T09:41:40Z</time>
      </trkpt>
      <trkpt lat="38.521972959861159" lon="-2.441194346174598">
        <ele>1299.5999755859375</ele>
        <time>2019-11-02T09:41:44Z</time>
      </trkpt>
      <trkpt lat="38.521976564079523" lon="-2.441155537962914">
        <ele>1299.5999755859375</ele>
        <time>2019-11-02T09:41:46Z</time>
      </trkpt>
      <trkpt lat="38.521991400048137" lon="-2.441113963723183">
        <ele>1299.5999755859375</ele>
        <time>2019-11-02T09:41:48Z</time>
      </trkpt>
      <trkpt lat="38.522027945145965" lon="-2.440973483026028">
        <ele>1299.5999755859375</ele>
        <time>2019-11-02T09:41:55Z</time>
      </trkpt>
      <trkpt lat="38.522063316777349" lon="-2.440834008157253">
        <ele>1300</ele>
        <time>2019-11-02T09:42:03Z</time>
      </trkpt>
      <trkpt lat="38.52210103534162" lon="-2.440691515803337">
        <ele>1300.199951171875</ele>
        <time>2019-11-02T09:42:11Z</time>
      </trkpt>
      <trkpt lat="38.52211520075798" lon="-2.440636195242405">
        <ele>1300.4000244140625</ele>
        <time>2019-11-02T09:42:14Z</time>
      </trkpt>
      <trkpt lat="38.522136406973004" lon="-2.440524967387319">
        <ele>1301</ele>
        <time>2019-11-02T09:42:20Z</time>
      </trkpt>
      <trkpt lat="38.522183429449797" lon="-2.440414074808359">
        <ele>1301.4000244140625</ele>
        <time>2019-11-02T09:42:26Z</time>
      </trkpt>
      <trkpt lat="38.522200947627425" lon="-2.440369818359613">
        <ele>1301.4000244140625</ele>
        <time>2019-11-02T09:42:29Z</time>
      </trkpt>
      <trkpt lat="38.522228943184018" lon="-2.440283568575978">
        <ele>1302</ele>
        <time>2019-11-02T09:42:34Z</time>
      </trkpt>
      <trkpt lat="38.522288203239441" lon="-2.44012339040637">
        <ele>1301.5999755859375</ele>
        <time>2019-11-02T09:42:41Z</time>
      </trkpt>
      <trkpt lat="38.522335309535265" lon="-2.439999170601368">
        <ele>1302.4000244140625</ele>
        <time>2019-11-02T09:42:49Z</time>
      </trkpt>
      <trkpt lat="38.522341176867485" lon="-2.439997410401702">
        <ele>1302.5999755859375</ele>
        <time>2019-11-02T09:42:50Z</time>
      </trkpt>
      <trkpt lat="38.522342015057802" lon="-2.439995566383004">
        <ele>1302</ele>
        <time>2019-11-02T09:42:57Z</time>
      </trkpt>
      <trkpt lat="38.522346708923578" lon="-2.439932534471154">
        <ele>1302.800048828125</ele>
        <time>2019-11-02T09:43:03Z</time>
      </trkpt>
      <trkpt lat="38.522350732237101" lon="-2.439896827563643">
        <ele>1303.800048828125</ele>
        <time>2019-11-02T09:43:06Z</time>
      </trkpt>
      <trkpt lat="38.522357856854796" lon="-2.439851984381676">
        <ele>1304.199951171875</ele>
        <time>2019-11-02T09:43:10Z</time>
      </trkpt>
      <trkpt lat="38.522368669509888" lon="-2.439803704619408">
        <ele>1304.800048828125</ele>
        <time>2019-11-02T09:43:14Z</time>
      </trkpt>
      <trkpt lat="38.522383756935596" lon="-2.439735978841782">
        <ele>1305.800048828125</ele>
        <time>2019-11-02T09:43:20Z</time>
      </trkpt>
      <trkpt lat="38.522398509085178" lon="-2.439676551148295">
        <ele>1307</ele>
        <time>2019-11-02T09:43:25Z</time>
      </trkpt>
      <trkpt lat="38.522421475499868" lon="-2.43961863219738">
        <ele>1307.800048828125</ele>
        <time>2019-11-02T09:43:31Z</time>
      </trkpt>
      <trkpt lat="38.522491045296192" lon="-2.439543027430773">
        <ele>1307.800048828125</ele>
        <time>2019-11-02T09:43:39Z</time>
      </trkpt>
      <trkpt lat="38.522560698911548" lon="-2.439461387693882">
        <ele>1307.5999755859375</ele>
        <time>2019-11-02T09:43:47Z</time>
      </trkpt>
      <trkpt lat="38.522569919005036" lon="-2.439376898109913">
        <ele>1308</ele>
        <time>2019-11-02T09:43:53Z</time>
      </trkpt>
      <trkpt lat="38.522552317008376" lon="-2.439343286678195">
        <ele>1308.199951171875</ele>
        <time>2019-11-02T09:43:56Z</time>
      </trkpt>
      <trkpt lat="38.522540163248777" lon="-2.439296348020434">
        <ele>1309.4000244140625</ele>
        <time>2019-11-02T09:44:00Z</time>
      </trkpt>
      <trkpt lat="38.522526584565639" lon="-2.439282517880201">
        <ele>1309.800048828125</ele>
        <time>2019-11-02T09:44:02Z</time>
      </trkpt>
      <trkpt lat="38.522509234026074" lon="-2.439264664426446">
        <ele>1310.5999755859375</ele>
        <time>2019-11-02T09:44:05Z</time>
      </trkpt>
      <trkpt lat="38.522495990619063" lon="-2.439245218411088">
        <ele>1311</ele>
        <time>2019-11-02T09:44:08Z</time>
      </trkpt>
      <trkpt lat="38.522487776353955" lon="-2.439213953912258">
        <ele>1311.5999755859375</ele>
        <time>2019-11-02T09:44:11Z</time>
      </trkpt>
      <trkpt lat="38.522505210712552" lon="-2.439152263104916">
        <ele>1312.199951171875</ele>
        <time>2019-11-02T09:44:17Z</time>
      </trkpt>
      <trkpt lat="38.522521303966641" lon="-2.43910457007587">
        <ele>1312.5999755859375</ele>
        <time>2019-11-02T09:44:22Z</time>
      </trkpt>
      <trkpt lat="38.522513676434755" lon="-2.439054613932967">
        <ele>1312.800048828125</ele>
        <time>2019-11-02T09:44:27Z</time>
      </trkpt>
      <trkpt lat="38.522521555423737" lon="-2.438976829871535">
        <ele>1314</ele>
        <time>2019-11-02T09:44:33Z</time>
      </trkpt>
      <trkpt lat="38.522528260946274" lon="-2.438942966982722">
        <ele>1314.199951171875</ele>
        <time>2019-11-02T09:44:35Z</time>
      </trkpt>
      <trkpt lat="38.522524069994688" lon="-2.438866272568703">
        <ele>1315.199951171875</ele>
        <time>2019-11-02T09:44:42Z</time>
      </trkpt>
      <trkpt lat="38.52252465672791" lon="-2.438855208456516">
        <ele>1315.4000244140625</ele>
        <time>2019-11-02T09:44:43Z</time>
      </trkpt>
      <trkpt lat="38.522523399442434" lon="-2.438806174322963">
        <ele>1316.199951171875</ele>
        <time>2019-11-02T09:44:48Z</time>
      </trkpt>
      <trkpt lat="38.522506384178996" lon="-2.43876057676971">
        <ele>1316.4000244140625</ele>
        <time>2019-11-02T09:44:53Z</time>
      </trkpt>
      <trkpt lat="38.522465396672487" lon="-2.438723277300596">
        <ele>1317.5999755859375</ele>
        <time>2019-11-02T09:45:01Z</time>
      </trkpt>
      <trkpt lat="38.522460954263806" lon="-2.438718751072884">
        <ele>1317.5999755859375</ele>
        <time>2019-11-02T09:45:02Z</time>
      </trkpt>
      <trkpt lat="38.522429270669818" lon="-2.438691928982735">
        <ele>1318.5999755859375</ele>
        <time>2019-11-02T09:45:07Z</time>
      </trkpt>
      <trkpt lat="38.522402532398701" lon="-2.438670303672552">
        <ele>1319.5999755859375</ele>
        <time>2019-11-02T09:45:11Z</time>
      </trkpt>
      <trkpt lat="38.522395994514227" lon="-2.438665945082903">
        <ele>1319.5999755859375</ele>
        <time>2019-11-02T09:45:12Z</time>
      </trkpt>
      <trkpt lat="38.522368418052793" lon="-2.438637614250183">
        <ele>1320.800048828125</ele>
        <time>2019-11-02T09:45:18Z</time>
      </trkpt>
      <trkpt lat="38.522369591519237" lon="-2.438626885414124">
        <ele>1321</ele>
        <time>2019-11-02T09:45:20Z</time>
      </trkpt>
      <trkpt lat="38.522353330627084" lon="-2.438597716391087">
        <ele>1322</ele>
        <time>2019-11-02T09:45:25Z</time>
      </trkpt>
      <trkpt lat="38.522341260686517" lon="-2.438559578731656">
        <ele>1322.800048828125</ele>
        <time>2019-11-02T09:45:30Z</time>
      </trkpt>
      <trkpt lat="38.522336734458804" lon="-2.438540887087584">
        <ele>1323.199951171875</ele>
        <time>2019-11-02T09:45:32Z</time>
      </trkpt>
      <trkpt lat="38.522321144118905" lon="-2.438509203493595">
        <ele>1324.4000244140625</ele>
        <time>2019-11-02T09:45:37Z</time>
      </trkpt>
      <trkpt lat="38.522292980924249" lon="-2.438497049733996">
        <ele>1325.199951171875</ele>
        <time>2019-11-02T09:45:42Z</time>
      </trkpt>
      <trkpt lat="38.522290885448456" lon="-2.438488248735666">
        <ele>1325.4000244140625</ele>
        <time>2019-11-02T09:45:43Z</time>
      </trkpt>
      <trkpt lat="38.522266745567322" lon="-2.43844835087657">
        <ele>1326.4000244140625</ele>
        <time>2019-11-02T09:45:49Z</time>
      </trkpt>
      <trkpt lat="38.522257525473833" lon="-2.4384381249547">
        <ele>1327</ele>
        <time>2019-11-02T09:45:53Z</time>
      </trkpt>
      <trkpt lat="38.52224905975163" lon="-2.438413314521313">
        <ele>1327.800048828125</ele>
        <time>2019-11-02T09:45:57Z</time>
      </trkpt>
      <trkpt lat="38.522228943184018" lon="-2.438360676169395">
        <ele>1329</ele>
        <time>2019-11-02T09:46:04Z</time>
      </trkpt>
      <trkpt lat="38.522227350622416" lon="-2.438350953161716">
        <ele>1329.199951171875</ele>
        <time>2019-11-02T09:46:05Z</time>
      </trkpt>
      <trkpt lat="38.522213017567992" lon="-2.438247688114643">
        <ele>1330.4000244140625</ele>
        <time>2019-11-02T09:46:13Z</time>
      </trkpt>
      <trkpt lat="38.522213101387024" lon="-2.438231175765395">
        <ele>1330.4000244140625</ele>
        <time>2019-11-02T09:46:14Z</time>
      </trkpt>
      <trkpt lat="38.522197846323252" lon="-2.438178202137351">
        <ele>1331.5999755859375</ele>
        <time>2019-11-02T09:46:20Z</time>
      </trkpt>
      <trkpt lat="38.522188542410731" lon="-2.438148530200124">
        <ele>1332</ele>
        <time>2019-11-02T09:46:24Z</time>
      </trkpt>
      <trkpt lat="38.522168677300215" lon="-2.438103267922997">
        <ele>1332.5999755859375</ele>
        <time>2019-11-02T09:46:32Z</time>
      </trkpt>
      <trkpt lat="38.522161217406392" lon="-2.438089270144701">
        <ele>1332.5999755859375</ele>
        <time>2019-11-02T09:46:33Z</time>
      </trkpt>
      <trkpt lat="38.522118218243122" lon="-2.43798072449863">
        <ele>1332.199951171875</ele>
        <time>2019-11-02T09:46:39Z</time>
      </trkpt>
      <trkpt lat="38.522140765562654" lon="-2.437844267114997">
        <ele>1331.800048828125</ele>
        <time>2019-11-02T09:46:43Z</time>
      </trkpt>
      <trkpt lat="38.522177562117577" lon="-2.437698924914002">
        <ele>1333</ele>
        <time>2019-11-02T09:46:49Z</time>
      </trkpt>
      <trkpt lat="38.522199187427759" lon="-2.437620302662253">
        <ele>1334.199951171875</ele>
        <time>2019-11-02T09:46:53Z</time>
      </trkpt>
      <trkpt lat="38.522235732525587" lon="-2.437560455873609">
        <ele>1334.800048828125</ele>
        <time>2019-11-02T09:46:57Z</time>
      </trkpt>
      <trkpt lat="38.522260878235102" lon="-2.437523324042559">
        <ele>1335.199951171875</ele>
        <time>2019-11-02T09:47:00Z</time>
      </trkpt>
      <trkpt lat="38.522285185754299" lon="-2.437478313222528">
        <ele>1335.4000244140625</ele>
        <time>2019-11-02T09:47:03Z</time>
      </trkpt>
      <trkpt lat="38.522303625941277" lon="-2.437377395108342">
        <ele>1336</ele>
        <time>2019-11-02T09:47:09Z</time>
      </trkpt>
      <trkpt lat="38.522299434989691" lon="-2.437357949092984">
        <ele>1336</ele>
        <time>2019-11-02T09:47:10Z</time>
      </trkpt>
      <trkpt lat="38.522270936518908" lon="-2.437219982966781">
        <ele>1336</ele>
        <time>2019-11-02T09:47:17Z</time>
      </trkpt>
      <trkpt lat="38.5222695954144" lon="-2.437173463404179">
        <ele>1336.4000244140625</ele>
        <time>2019-11-02T09:47:19Z</time>
      </trkpt>
      <trkpt lat="38.522256603464484" lon="-2.437080759555101">
        <ele>1337</ele>
        <time>2019-11-02T09:47:24Z</time>
      </trkpt>
      <trkpt lat="38.522245790809393" lon="-2.437039101496339">
        <ele>1337</ele>
        <time>2019-11-02T09:47:27Z</time>
      </trkpt>
      <trkpt lat="38.522240342572331" lon="-2.43699568323791">
        <ele>1337.199951171875</ele>
        <time>2019-11-02T09:47:29Z</time>
      </trkpt>
      <trkpt lat="38.522243779152632" lon="-2.436958635225892">
        <ele>1337.4000244140625</ele>
        <time>2019-11-02T09:47:31Z</time>
      </trkpt>
      <trkpt lat="38.52224612608552" lon="-2.436892753466964">
        <ele>1337.4000244140625</ele>
        <time>2019-11-02T09:47:34Z</time>
      </trkpt>
      <trkpt lat="38.522243611514568" lon="-2.436821674928069">
        <ele>1337.4000244140625</ele>
        <time>2019-11-02T09:47:37Z</time>
      </trkpt>
      <trkpt lat="38.522248137742281" lon="-2.436678931117058">
        <ele>1337.199951171875</ele>
        <time>2019-11-02T09:47:43Z</time>
      </trkpt>
      <trkpt lat="38.522239755839109" lon="-2.436392521485686">
        <ele>1337.4000244140625</ele>
        <time>2019-11-02T09:47:55Z</time>
      </trkpt>
      <trkpt lat="38.522240929305553" lon="-2.436211220920086">
        <ele>1337.800048828125</ele>
        <time>2019-11-02T09:48:03Z</time>
      </trkpt>
      <trkpt lat="38.522237576544285" lon="-2.436105357483029">
        <ele>1338.4000244140625</ele>
        <time>2019-11-02T09:48:08Z</time>
      </trkpt>
      <trkpt lat="38.522237744182348" lon="-2.436083061620593">
        <ele>1338.5999755859375</ele>
        <time>2019-11-02T09:48:09Z</time>
      </trkpt>
      <trkpt lat="38.52223782800138" lon="-2.43593386374414">
        <ele>1339.5999755859375</ele>
        <time>2019-11-02T09:48:16Z</time>
      </trkpt>
      <trkpt lat="38.522240677848458" lon="-2.435744013637304">
        <ele>1340.5999755859375</ele>
        <time>2019-11-02T09:48:24Z</time>
      </trkpt>
      <trkpt lat="38.52224076166749" lon="-2.435722891241312">
        <ele>1340.5999755859375</ele>
        <time>2019-11-02T09:48:25Z</time>
      </trkpt>
      <trkpt lat="38.52223145775497" lon="-2.435580231249332">
        <ele>1340.800048828125</ele>
        <time>2019-11-02T09:48:32Z</time>
      </trkpt>
      <trkpt lat="38.52223145775497" lon="-2.435462800785899">
        <ele>1342</ele>
        <time>2019-11-02T09:48:37Z</time>
      </trkpt>
      <trkpt lat="38.52222852408886" lon="-2.435377221554518">
        <ele>1342.199951171875</ele>
        <time>2019-11-02T09:48:41Z</time>
      </trkpt>
      <trkpt lat="38.522233050316572" lon="-2.435293653979897">
        <ele>1343</ele>
        <time>2019-11-02T09:48:45Z</time>
      </trkpt>
      <trkpt lat="38.522231793031096" lon="-2.435230202972889">
        <ele>1343.4000244140625</ele>
        <time>2019-11-02T09:48:48Z</time>
      </trkpt>
      <trkpt lat="38.522233972325921" lon="-2.435091147199273">
        <ele>1343.800048828125</ele>
        <time>2019-11-02T09:48:55Z</time>
      </trkpt>
      <trkpt lat="38.522229278460145" lon="-2.43505141697824">
        <ele>1344</ele>
        <time>2019-11-02T09:48:57Z</time>
      </trkpt>
      <trkpt lat="38.52221829816699" lon="-2.434911942109466">
        <ele>1345</ele>
        <time>2019-11-02T09:49:04Z</time>
      </trkpt>
      <trkpt lat="38.522226428613067" lon="-2.434772299602628">
        <ele>1346.199951171875</ele>
        <time>2019-11-02T09:49:11Z</time>
      </trkpt>
      <trkpt lat="38.522256184369326" lon="-2.434686133638024">
        <ele>1347.4000244140625</ele>
        <time>2019-11-02T09:49:16Z</time>
      </trkpt>
      <trkpt lat="38.522277139127254" lon="-2.434652606025338">
        <ele>1347.5999755859375</ele>
        <time>2019-11-02T09:49:18Z</time>
      </trkpt>
      <trkpt lat="38.522335141897202" lon="-2.434591585770249">
        <ele>1348.4000244140625</ele>
        <time>2019-11-02T09:49:23Z</time>
      </trkpt>
      <trkpt lat="38.522347630932927" lon="-2.434582700952888">
        <ele>1348.5999755859375</ele>
        <time>2019-11-02T09:49:24Z</time>
      </trkpt>
      <trkpt lat="38.522395407781005" lon="-2.434577839449048">
        <ele>1349.199951171875</ele>
        <time>2019-11-02T09:49:27Z</time>
      </trkpt>
      <trkpt lat="38.522428516298532" lon="-2.434585383161902">
        <ele>1349.4000244140625</ele>
        <time>2019-11-02T09:49:29Z</time>
      </trkpt>
      <trkpt lat="38.52244502864778" lon="-2.434589322656393">
        <ele>1349.4000244140625</ele>
        <time>2019-11-02T09:49:30Z</time>
      </trkpt>
      <trkpt lat="38.522511832416058" lon="-2.43464439176023">
        <ele>1349.800048828125</ele>
        <time>2019-11-02T09:49:35Z</time>
      </trkpt>
      <trkpt lat="38.522548964247108" lon="-2.434746315702796">
        <ele>1350</ele>
        <time>2019-11-02T09:49:40Z</time>
      </trkpt>
      <trkpt lat="38.522555250674486" lon="-2.43487355299294">
        <ele>1350.199951171875</ele>
        <time>2019-11-02T09:49:46Z</time>
      </trkpt>
      <trkpt lat="38.522539995610714" lon="-2.434937339276075">
        <ele>1350.4000244140625</ele>
        <time>2019-11-02T09:49:49Z</time>
      </trkpt>
      <trkpt lat="38.522523734718561" lon="-2.435014620423317">
        <ele>1350.800048828125</ele>
        <time>2019-11-02T09:49:53Z</time>
      </trkpt>
      <trkpt lat="38.522498086094856" lon="-2.435094164684415">
        <ele>1351.5999755859375</ele>
        <time>2019-11-02T09:49:57Z</time>
      </trkpt>
      <trkpt lat="38.5224699229002" lon="-2.435175720602274">
        <ele>1352</ele>
        <time>2019-11-02T09:50:01Z</time>
      </trkpt>
      <trkpt lat="38.522447710856795" lon="-2.435260210186243">
        <ele>1352.5999755859375</ele>
        <time>2019-11-02T09:50:05Z</time>
      </trkpt>
      <trkpt lat="38.522439748048782" lon="-2.435325505211949">
        <ele>1353.199951171875</ele>
        <time>2019-11-02T09:50:08Z</time>
      </trkpt>
      <trkpt lat="38.522431114688516" lon="-2.435394404456019">
        <ele>1353.800048828125</ele>
        <time>2019-11-02T09:50:11Z</time>
      </trkpt>
      <trkpt lat="38.522425582632422" lon="-2.435512002557516">
        <ele>1354.5999755859375</ele>
        <time>2019-11-02T09:50:16Z</time>
      </trkpt>
      <trkpt lat="38.522426337003708" lon="-2.435535388067365">
        <ele>1354.800048828125</ele>
        <time>2019-11-02T09:50:17Z</time>
      </trkpt>
      <trkpt lat="38.522434299811721" lon="-2.435644520446658">
        <ele>1355.800048828125</ele>
        <time>2019-11-02T09:50:22Z</time>
      </trkpt>
      <trkpt lat="38.522437568753958" lon="-2.435664888471365">
        <ele>1356</ele>
        <time>2019-11-02T09:50:23Z</time>
      </trkpt>
      <trkpt lat="38.522474281489849" lon="-2.435776451602578">
        <ele>1356.800048828125</ele>
        <time>2019-11-02T09:50:29Z</time>
      </trkpt>
      <trkpt lat="38.522520381957293" lon="-2.435889691114426">
        <ele>1357.4000244140625</ele>
        <time>2019-11-02T09:50:35Z</time>
      </trkpt>
      <trkpt lat="38.522547455504537" lon="-2.435991615056992">
        <ele>1358.199951171875</ele>
        <time>2019-11-02T09:50:40Z</time>
      </trkpt>
      <trkpt lat="38.522554747760296" lon="-2.436011144891381">
        <ele>1358.4000244140625</ele>
        <time>2019-11-02T09:50:41Z</time>
      </trkpt>
      <trkpt lat="38.522649295628071" lon="-2.436126731336117">
        <ele>1359.199951171875</ele>
        <time>2019-11-02T09:50:49Z</time>
      </trkpt>
      <trkpt lat="38.522792374715209" lon="-2.436251537874341">
        <ele>1360.4000244140625</ele>
        <time>2019-11-02T09:50:59Z</time>
      </trkpt>
      <trkpt lat="38.522837050259113" lon="-2.436280203983188">
        <ele>1361.4000244140625</ele>
        <time>2019-11-02T09:51:02Z</time>
      </trkpt>
      <trkpt lat="38.522916929796338" lon="-2.436302248388529">
        <ele>1362</ele>
        <time>2019-11-02T09:51:07Z</time>
      </trkpt>
      <trkpt lat="38.522988511249423" lon="-2.436296381056309">
        <ele>1362.5999755859375</ele>
        <time>2019-11-02T09:51:11Z</time>
      </trkpt>
      <trkpt lat="38.523092195391655" lon="-2.436290765181184">
        <ele>1363</ele>
        <time>2019-11-02T09:51:17Z</time>
      </trkpt>
      <trkpt lat="38.523126896470785" lon="-2.436287915334105">
        <ele>1363.4000244140625</ele>
        <time>2019-11-02T09:51:19Z</time>
      </trkpt>
      <trkpt lat="38.523242734372616" lon="-2.436256734654307">
        <ele>1364.5999755859375</ele>
        <time>2019-11-02T09:51:26Z</time>
      </trkpt>
      <trkpt lat="38.523352285847068" lon="-2.436250280588865">
        <ele>1365.5999755859375</ele>
        <time>2019-11-02T09:51:33Z</time>
      </trkpt>
      <trkpt lat="38.523364020511508" lon="-2.436252543702722">
        <ele>1365.5999755859375</ele>
        <time>2019-11-02T09:51:34Z</time>
      </trkpt>
      <trkpt lat="38.523439960554242" lon="-2.436275845393538">
        <ele>1366.4000244140625</ele>
        <time>2019-11-02T09:51:39Z</time>
      </trkpt>
      <trkpt lat="38.523469045758247" lon="-2.436302751302719">
        <ele>1366.800048828125</ele>
        <time>2019-11-02T09:51:41Z</time>
      </trkpt>
      <trkpt lat="38.523541800677776" lon="-2.436392605304718">
        <ele>1367.5999755859375</ele>
        <time>2019-11-02T09:51:46Z</time>
      </trkpt>
      <trkpt lat="38.523561330512166" lon="-2.436437951400876">
        <ele>1367.800048828125</ele>
        <time>2019-11-02T09:51:48Z</time>
      </trkpt>
      <trkpt lat="38.523592930287123" lon="-2.436523279175162">
        <ele>1368.5999755859375</ele>
        <time>2019-11-02T09:51:52Z</time>
      </trkpt>
      <trkpt lat="38.523601563647389" lon="-2.436543898656964">
        <ele>1368.5999755859375</ele>
        <time>2019-11-02T09:51:53Z</time>
      </trkpt>
      <trkpt lat="38.523625871166587" lon="-2.436607265844941">
        <ele>1369</ele>
        <time>2019-11-02T09:51:56Z</time>
      </trkpt>
      <trkpt lat="38.523642718791962" lon="-2.436734084039927">
        <ele>1369.4000244140625</ele>
        <time>2019-11-02T09:52:01Z</time>
      </trkpt>
      <trkpt lat="38.523602150380611" lon="-2.436919407919049">
        <ele>1369.4000244140625</ele>
        <time>2019-11-02T09:52:08Z</time>
      </trkpt>
      <trkpt lat="38.523561330512166" lon="-2.437056032940745">
        <ele>1369.800048828125</ele>
        <time>2019-11-02T09:52:14Z</time>
      </trkpt>
      <trkpt lat="38.523540291935205" lon="-2.437118897214532">
        <ele>1369.800048828125</ele>
        <time>2019-11-02T09:52:17Z</time>
      </trkpt>
      <trkpt lat="38.523526210337877" lon="-2.437158627435565">
        <ele>1369.800048828125</ele>
        <time>2019-11-02T09:52:19Z</time>
      </trkpt>
      <trkpt lat="38.52351657114923" lon="-2.437283098697662">
        <ele>1370.5999755859375</ele>
        <time>2019-11-02T09:52:25Z</time>
      </trkpt>
      <trkpt lat="38.523519253358245" lon="-2.437311094254255">
        <ele>1371</ele>
        <time>2019-11-02T09:52:26Z</time>
      </trkpt>
      <trkpt lat="38.523545237258077" lon="-2.437421316280961">
        <ele>1372</ele>
        <time>2019-11-02T09:52:30Z</time>
      </trkpt>
      <trkpt lat="38.523553535342216" lon="-2.437443528324366">
        <ele>1372</ele>
        <time>2019-11-02T09:52:31Z</time>
      </trkpt>
      <trkpt lat="38.523575747385621" lon="-2.437478145584464">
        <ele>1372.199951171875</ele>
        <time>2019-11-02T09:52:33Z</time>
      </trkpt>
      <trkpt lat="38.523640790954232" lon="-2.437516115605831">
        <ele>1372.800048828125</ele>
        <time>2019-11-02T09:52:37Z</time>
      </trkpt>
      <trkpt lat="38.523657722398639" lon="-2.437521815299988">
        <ele>1373.199951171875</ele>
        <time>2019-11-02T09:52:38Z</time>
      </trkpt>
      <trkpt lat="38.523760652169585" lon="-2.437533549964428">
        <ele>1374.199951171875</ele>
        <time>2019-11-02T09:52:44Z</time>
      </trkpt>
      <trkpt lat="38.523836592212319" lon="-2.437476050108671">
        <ele>1375.199951171875</ele>
        <time>2019-11-02T09:52:49Z</time>
      </trkpt>
      <trkpt lat="38.523852014914155" lon="-2.437453251332045">
        <ele>1375.4000244140625</ele>
        <time>2019-11-02T09:52:50Z</time>
      </trkpt>
      <trkpt lat="38.523893421515822" lon="-2.437361720949411">
        <ele>1376.199951171875</ele>
        <time>2019-11-02T09:52:54Z</time>
      </trkpt>
      <trkpt lat="38.523900546133518" lon="-2.437340347096324">
        <ele>1376.4000244140625</ele>
        <time>2019-11-02T09:52:55Z</time>
      </trkpt>
      <trkpt lat="38.523920411244035" lon="-2.437202716246247">
        <ele>1377.199951171875</ele>
        <time>2019-11-02T09:53:01Z</time>
      </trkpt>
      <trkpt lat="38.523924602195621" lon="-2.437177821993828">
        <ele>1377.4000244140625</ele>
        <time>2019-11-02T09:53:02Z</time>
      </trkpt>
      <trkpt lat="38.523928038775921" lon="-2.437066677957773">
        <ele>1377.5999755859375</ele>
        <time>2019-11-02T09:53:07Z</time>
      </trkpt>
      <trkpt lat="38.523931810632348" lon="-2.436904655769467">
        <ele>1378.4000244140625</ele>
        <time>2019-11-02T09:53:14Z</time>
      </trkpt>
      <trkpt lat="38.523930972442031" lon="-2.436858974397182">
        <ele>1379.4000244140625</ele>
        <time>2019-11-02T09:53:16Z</time>
      </trkpt>
      <trkpt lat="38.523930050432682" lon="-2.436761911958456">
        <ele>1380.4000244140625</ele>
        <time>2019-11-02T09:53:20Z</time>
      </trkpt>
      <trkpt lat="38.523931726813316" lon="-2.436742717400193">
        <ele>1380.4000244140625</ele>
        <time>2019-11-02T09:53:21Z</time>
      </trkpt>
      <trkpt lat="38.523932062089443" lon="-2.436611456796527">
        <ele>1380.5999755859375</ele>
        <time>2019-11-02T09:53:27Z</time>
      </trkpt>
      <trkpt lat="38.5239343252033" lon="-2.436538031324744">
        <ele>1381.4000244140625</ele>
        <time>2019-11-02T09:53:30Z</time>
      </trkpt>
      <trkpt lat="38.523937677964568" lon="-2.436447087675333">
        <ele>1381.5999755859375</ele>
        <time>2019-11-02T09:53:34Z</time>
      </trkpt>
      <trkpt lat="38.523928457871079" lon="-2.43629545904696">
        <ele>1380.4000244140625</ele>
        <time>2019-11-02T09:53:41Z</time>
      </trkpt>
      <trkpt lat="38.523920746520162" lon="-2.436119606718421">
        <ele>1382</ele>
        <time>2019-11-02T09:53:49Z</time>
      </trkpt>
      <trkpt lat="38.523925691843033" lon="-2.436048109084368">
        <ele>1383</ele>
        <time>2019-11-02T09:53:52Z</time>
      </trkpt>
      <trkpt lat="38.523919824510813" lon="-2.435955237597227">
        <ele>1384</ele>
        <time>2019-11-02T09:53:56Z</time>
      </trkpt>
      <trkpt lat="38.523916136473417" lon="-2.435931349173188">
        <ele>1384</ele>
        <time>2019-11-02T09:53:57Z</time>
      </trkpt>
      <trkpt lat="38.523908089846373" lon="-2.435798831284046">
        <ele>1384.4000244140625</ele>
        <time>2019-11-02T09:54:03Z</time>
      </trkpt>
      <trkpt lat="38.523885039612651" lon="-2.435687687247992">
        <ele>1385.199951171875</ele>
        <time>2019-11-02T09:54:08Z</time>
      </trkpt>
      <trkpt lat="38.523874562233686" lon="-2.435640329495072">
        <ele>1385.4000244140625</ele>
        <time>2019-11-02T09:54:10Z</time>
      </trkpt>
      <trkpt lat="38.523840447887778" lon="-2.435508230701089">
        <ele>1385.4000244140625</ele>
        <time>2019-11-02T09:54:16Z</time>
      </trkpt>
      <trkpt lat="38.523791246116161" lon="-2.435369426384568">
        <ele>1386.199951171875</ele>
        <time>2019-11-02T09:54:23Z</time>
      </trkpt>
      <trkpt lat="38.523776661604643" lon="-2.43535291403532">
        <ele>1386.4000244140625</ele>
        <time>2019-11-02T09:54:24Z</time>
      </trkpt>
      <trkpt lat="38.523692423477769" lon="-2.435306562110782">
        <ele>1387.199951171875</ele>
        <time>2019-11-02T09:54:29Z</time>
      </trkpt>
      <trkpt lat="38.523511961102486" lon="-2.43531821295619">
        <ele>1387.4000244140625</ele>
        <time>2019-11-02T09:54:37Z</time>
      </trkpt>
      <trkpt lat="38.523489832878113" lon="-2.435327600687742">
        <ele>1387.5999755859375</ele>
        <time>2019-11-02T09:54:38Z</time>
      </trkpt>
      <trkpt lat="38.523426465690136" lon="-2.435351321473718">
        <ele>1388.5999755859375</ele>
        <time>2019-11-02T09:54:41Z</time>
      </trkpt>
      <trkpt lat="38.523380784317851" lon="-2.435351572930813">
        <ele>1389.199951171875</ele>
        <time>2019-11-02T09:54:43Z</time>
      </trkpt>
      <trkpt lat="38.523321775719523" lon="-2.435333468019962">
        <ele>1389.800048828125</ele>
        <time>2019-11-02T09:54:46Z</time>
      </trkpt>
      <trkpt lat="38.523259414359927" lon="-2.435278901830316">
        <ele>1390.5999755859375</ele>
        <time>2019-11-02T09:54:50Z</time>
      </trkpt>
      <trkpt lat="38.523233681917191" lon="-2.435164740309119">
        <ele>1391</ele>
        <time>2019-11-02T09:54:55Z</time>
      </trkpt>
      <trkpt lat="38.523236867040396" lon="-2.435141019523144">
        <ele>1391.199951171875</ele>
        <time>2019-11-02T09:54:56Z</time>
      </trkpt>
      <trkpt lat="38.523319680243731" lon="-2.434982182458043">
        <ele>1391.800048828125</ele>
        <time>2019-11-02T09:55:04Z</time>
      </trkpt>
      <trkpt lat="38.523345245048404" lon="-2.434948906302452">
        <ele>1392</ele>
        <time>2019-11-02T09:55:06Z</time>
      </trkpt>
      <trkpt lat="38.523429566994309" lon="-2.434861231595278">
        <ele>1393</ele>
        <time>2019-11-02T09:55:12Z</time>
      </trkpt>
      <trkpt lat="38.523444319143891" lon="-2.434846563264728">
        <ele>1393.199951171875</ele>
        <time>2019-11-02T09:55:13Z</time>
      </trkpt>
      <trkpt lat="38.523525204509497" lon="-2.434758301824331">
        <ele>1394</ele>
        <time>2019-11-02T09:55:19Z</time>
      </trkpt>
      <trkpt lat="38.52357130497694" lon="-2.434669118374586">
        <ele>1395.4000244140625</ele>
        <time>2019-11-02T09:55:24Z</time>
      </trkpt>
      <trkpt lat="38.52359913289547" lon="-2.434614803642035">
        <ele>1395.5999755859375</ele>
        <time>2019-11-02T09:55:27Z</time>
      </trkpt>
      <trkpt lat="38.523626709356904" lon="-2.434489578008652">
        <ele>1395.4000244140625</ele>
        <time>2019-11-02T09:55:33Z</time>
      </trkpt>
      <trkpt lat="38.523618495091796" lon="-2.434401987120509">
        <ele>1396.5999755859375</ele>
        <time>2019-11-02T09:55:37Z</time>
      </trkpt>
      <trkpt lat="38.523598210886121" lon="-2.434341385960579">
        <ele>1397.199951171875</ele>
        <time>2019-11-02T09:55:40Z</time>
      </trkpt>
      <trkpt lat="38.523576501756907" lon="-2.434304086491466">
        <ele>1397.5999755859375</ele>
        <time>2019-11-02T09:55:42Z</time>
      </trkpt>
      <trkpt lat="38.523569880053401" lon="-2.434282628819346">
        <ele>1397.5999755859375</ele>
        <time>2019-11-02T09:55:43Z</time>
      </trkpt>
      <trkpt lat="38.523537274450064" lon="-2.434202833101153">
        <ele>1397.800048828125</ele>
        <time>2019-11-02T09:55:47Z</time>
      </trkpt>
      <trkpt lat="38.523526126518846" lon="-2.434185147285461">
        <ele>1398</ele>
        <time>2019-11-02T09:55:48Z</time>
      </trkpt>
      <trkpt lat="38.523494442924857" lon="-2.434127982705832">
        <ele>1398.5999755859375</ele>
        <time>2019-11-02T09:55:51Z</time>
      </trkpt>
      <trkpt lat="38.523460915312171" lon="-2.434017676860094">
        <ele>1399.199951171875</ele>
        <time>2019-11-02T09:55:56Z</time>
      </trkpt>
      <trkpt lat="38.523455299437046" lon="-2.433968642726541">
        <ele>1399.5999755859375</ele>
        <time>2019-11-02T09:55:58Z</time>
      </trkpt>
      <trkpt lat="38.523460999131203" lon="-2.433859677985311">
        <ele>1400.800048828125</ele>
        <time>2019-11-02T09:56:03Z</time>
      </trkpt>
      <trkpt lat="38.523469213396311" lon="-2.433841321617365">
        <ele>1401</ele>
        <time>2019-11-02T09:56:04Z</time>
      </trkpt>
      <trkpt lat="38.523557223379612" lon="-2.433724729344249">
        <ele>1401.800048828125</ele>
        <time>2019-11-02T09:56:11Z</time>
      </trkpt>
      <trkpt lat="38.523599551990628" lon="-2.433690866455436">
        <ele>1403</ele>
        <time>2019-11-02T09:56:14Z</time>
      </trkpt>
      <trkpt lat="38.523663338273764" lon="-2.433617440983653">
        <ele>1403.4000244140625</ele>
        <time>2019-11-02T09:56:19Z</time>
      </trkpt>
      <trkpt lat="38.523738021031022" lon="-2.433516690507531">
        <ele>1404.199951171875</ele>
        <time>2019-11-02T09:56:25Z</time>
      </trkpt>
      <trkpt lat="38.523750677704811" lon="-2.433475870639086">
        <ele>1404.4000244140625</ele>
        <time>2019-11-02T09:56:27Z</time>
      </trkpt>
      <trkpt lat="38.523759143427014" lon="-2.433315776288509">
        <ele>1404.800048828125</ele>
        <time>2019-11-02T09:56:34Z</time>
      </trkpt>
      <trkpt lat="38.523758975788951" lon="-2.433244613930583">
        <ele>1405.199951171875</ele>
        <time>2019-11-02T09:56:37Z</time>
      </trkpt>
      <trkpt lat="38.523761657997966" lon="-2.433126345276833">
        <ele>1406.5999755859375</ele>
        <time>2019-11-02T09:56:42Z</time>
      </trkpt>
      <trkpt lat="38.523763502016664" lon="-2.433104803785682">
        <ele>1407</ele>
        <time>2019-11-02T09:56:43Z</time>
      </trkpt>
      <trkpt lat="38.523788899183273" lon="-2.433022912591696">
        <ele>1407.5999755859375</ele>
        <time>2019-11-02T09:56:47Z</time>
      </trkpt>
      <trkpt lat="38.523809602484107" lon="-2.432962981984019">
        <ele>1407.5999755859375</ele>
        <time>2019-11-02T09:56:50Z</time>
      </trkpt>
      <trkpt lat="38.523817816749215" lon="-2.432922078296542">
        <ele>1407.5999755859375</ele>
        <time>2019-11-02T09:56:52Z</time>
      </trkpt>
      <trkpt lat="38.523837514221668" lon="-2.432836079970002">
        <ele>1407.800048828125</ele>
        <time>2019-11-02T09:56:56Z</time>
      </trkpt>
      <trkpt lat="38.523854445666075" lon="-2.432630807161331">
        <ele>1408.5999755859375</ele>
        <time>2019-11-02T09:57:05Z</time>
      </trkpt>
      <trkpt lat="38.52385520003736" lon="-2.432609098032117">
        <ele>1408.800048828125</ele>
        <time>2019-11-02T09:57:06Z</time>
      </trkpt>
      <trkpt lat="38.523867689073086" lon="-2.432446740567684">
        <ele>1409.5999755859375</ele>
        <time>2019-11-02T09:57:13Z</time>
      </trkpt>
      <trkpt lat="38.523892918601632" lon="-2.432188158854842">
        <ele>1410.4000244140625</ele>
        <time>2019-11-02T09:57:23Z</time>
      </trkpt>
      <trkpt lat="38.52390649728477" lon="-2.432140549644828">
        <ele>1410.800048828125</ele>
        <time>2019-11-02T09:57:25Z</time>
      </trkpt>
      <trkpt lat="38.523962236940861" lon="-2.431999901309609">
        <ele>1411.800048828125</ele>
        <time>2019-11-02T09:57:31Z</time>
      </trkpt>
      <trkpt lat="38.524023927748203" lon="-2.431884482502937">
        <ele>1413</ele>
        <time>2019-11-02T09:57:37Z</time>
      </trkpt>
      <trkpt lat="38.52404966019094" lon="-2.431828994303942">
        <ele>1414</ele>
        <time>2019-11-02T09:57:40Z</time>
      </trkpt>
      <trkpt lat="38.524158373475075" lon="-2.431648783385754">
        <ele>1414.4000244140625</ele>
        <time>2019-11-02T09:57:50Z</time>
      </trkpt>
      <trkpt lat="38.524289717897773" lon="-2.431476032361388">
        <ele>1414.800048828125</ele>
        <time>2019-11-02T09:58:01Z</time>
      </trkpt>
      <trkpt lat="38.524317294359207" lon="-2.431451557204127">
        <ele>1415</ele>
        <time>2019-11-02T09:58:03Z</time>
      </trkpt>
      <trkpt lat="38.524397760629654" lon="-2.431417442858219">
        <ele>1416.199951171875</ele>
        <time>2019-11-02T09:58:08Z</time>
      </trkpt>
      <trkpt lat="38.524429611861706" lon="-2.43141601793468">
        <ele>1416.4000244140625</ele>
        <time>2019-11-02T09:58:10Z</time>
      </trkpt>
      <trkpt lat="38.524477891623974" lon="-2.431420208886266">
        <ele>1417.199951171875</ele>
        <time>2019-11-02T09:58:13Z</time>
      </trkpt>
      <trkpt lat="38.524571768939495" lon="-2.431438313797116">
        <ele>1418.199951171875</ele>
        <time>2019-11-02T09:58:19Z</time>
      </trkpt>
      <trkpt lat="38.52458861656487" lon="-2.431442085653543">
        <ele>1418.199951171875</ele>
        <time>2019-11-02T09:58:20Z</time>
      </trkpt>
      <trkpt lat="38.524727337062359" lon="-2.431491790339351">
        <ele>1418.800048828125</ele>
        <time>2019-11-02T09:58:28Z</time>
      </trkpt>
      <trkpt lat="38.524788022041321" lon="-2.43151567876339">
        <ele>1419.199951171875</ele>
        <time>2019-11-02T09:58:31Z</time>
      </trkpt>
      <trkpt lat="38.524878546595573" lon="-2.431535208597779">
        <ele>1419.800048828125</ele>
        <time>2019-11-02T09:58:36Z</time>
      </trkpt>
      <trkpt lat="38.524966556578875" lon="-2.431535962969065">
        <ele>1420.4000244140625</ele>
        <time>2019-11-02T09:58:41Z</time>
      </trkpt>
      <trkpt lat="38.525019697844982" lon="-2.431520707905293">
        <ele>1420.4000244140625</ele>
        <time>2019-11-02T09:58:44Z</time>
      </trkpt>
      <trkpt lat="38.525098655372858" lon="-2.43142775259912">
        <ele>1421.199951171875</ele>
        <time>2019-11-02T09:58:50Z</time>
      </trkpt>
      <trkpt lat="38.525118939578533" lon="-2.431388525292277">
        <ele>1421.4000244140625</ele>
        <time>2019-11-02T09:58:52Z</time>
      </trkpt>
      <trkpt lat="38.525170907378197" lon="-2.431295653805137">
        <ele>1421.800048828125</ele>
        <time>2019-11-02T09:58:57Z</time>
      </trkpt>
      <trkpt lat="38.525209464132786" lon="-2.431214768439531">
        <ele>1422.4000244140625</ele>
        <time>2019-11-02T09:59:01Z</time>
      </trkpt>
      <trkpt lat="38.525274507701397" lon="-2.431080490350723">
        <ele>1423</ele>
        <time>2019-11-02T09:59:08Z</time>
      </trkpt>
      <trkpt lat="38.525333432480693" lon="-2.43099826388061">
        <ele>1423.5999755859375</ele>
        <time>2019-11-02T09:59:13Z</time>
      </trkpt>
      <trkpt lat="38.52540367282927" lon="-2.430901201441884">
        <ele>1424.199951171875</ele>
        <time>2019-11-02T09:59:19Z</time>
      </trkpt>
      <trkpt lat="38.525481708347797" lon="-2.430821405723691">
        <ele>1424.5999755859375</ele>
        <time>2019-11-02T09:59:25Z</time>
      </trkpt>
      <trkpt lat="38.525520097464323" lon="-2.430782513692975">
        <ele>1425.199951171875</ele>
        <time>2019-11-02T09:59:28Z</time>
      </trkpt>
      <trkpt lat="38.525569634512067" lon="-2.430726774036884">
        <ele>1425.800048828125</ele>
        <time>2019-11-02T09:59:32Z</time>
      </trkpt>
      <trkpt lat="38.525655716657639" lon="-2.430619820952415">
        <ele>1426.5999755859375</ele>
        <time>2019-11-02T09:59:39Z</time>
      </trkpt>
      <trkpt lat="38.525705505162477" lon="-2.430501133203506">
        <ele>1427.800048828125</ele>
        <time>2019-11-02T09:59:45Z</time>
      </trkpt>
      <trkpt lat="38.52571053430438" lon="-2.43045779876411">
        <ele>1428.199951171875</ele>
        <time>2019-11-02T09:59:47Z</time>
      </trkpt>
      <trkpt lat="38.525691591203213" lon="-2.430299296975136">
        <ele>1429</ele>
        <time>2019-11-02T09:59:54Z</time>
      </trkpt>
      <trkpt lat="38.52566309273243" lon="-2.430102908983827">
        <ele>1430</ele>
        <time>2019-11-02T10:00:02Z</time>
      </trkpt>
      <trkpt lat="38.525657393038273" lon="-2.430079942569137">
        <ele>1430.199951171875</ele>
        <time>2019-11-02T10:00:03Z</time>
      </trkpt>
      <trkpt lat="38.525619590654969" lon="-2.429893109947443">
        <ele>1431.199951171875</ele>
        <time>2019-11-02T10:00:11Z</time>
      </trkpt>
      <trkpt lat="38.525608694180846" lon="-2.429659087210894">
        <ele>1432.199951171875</ele>
        <time>2019-11-02T10:00:21Z</time>
      </trkpt>
      <trkpt lat="38.525614142417908" lon="-2.429636120796204">
        <ele>1432.4000244140625</ele>
        <time>2019-11-02T10:00:22Z</time>
      </trkpt>
      <trkpt lat="38.525690836831927" lon="-2.429458005353808">
        <ele>1433.199951171875</ele>
        <time>2019-11-02T10:00:31Z</time>
      </trkpt>
      <trkpt lat="38.525701062753797" lon="-2.42943998426199">
        <ele>1433.4000244140625</ele>
        <time>2019-11-02T10:00:32Z</time>
      </trkpt>
      <trkpt lat="38.525827210396528" lon="-2.429248206317425">
        <ele>1434.4000244140625</ele>
        <time>2019-11-02T10:00:43Z</time>
      </trkpt>
      <trkpt lat="38.525955956429243" lon="-2.429061708971858">
        <ele>1435.199951171875</ele>
        <time>2019-11-02T10:00:54Z</time>
      </trkpt>
      <trkpt lat="38.526039021089673" lon="-2.428979482501745">
        <ele>1436.4000244140625</ele>
        <time>2019-11-02T10:01:00Z</time>
      </trkpt>
      <trkpt lat="38.52606819011271" lon="-2.428959449753165">
        <ele>1436.800048828125</ele>
        <time>2019-11-02T10:01:02Z</time>
      </trkpt>
      <trkpt lat="38.526112949475646" lon="-2.428929945454001">
        <ele>1437.4000244140625</ele>
        <time>2019-11-02T10:01:05Z</time>
      </trkpt>
      <trkpt lat="38.526191068813205" lon="-2.428908236324787">
        <ele>1438.4000244140625</ele>
        <time>2019-11-02T10:01:10Z</time>
      </trkpt>
      <trkpt lat="38.526206826791167" lon="-2.428905554115772">
        <ele>1438.5999755859375</ele>
        <time>2019-11-02T10:01:11Z</time>
      </trkpt>
      <trkpt lat="38.526330040767789" lon="-2.42885216139257">
        <ele>1439.199951171875</ele>
        <time>2019-11-02T10:01:18Z</time>
      </trkpt>
      <trkpt lat="38.526375973597169" lon="-2.42881502956152">
        <ele>1439.5999755859375</ele>
        <time>2019-11-02T10:01:21Z</time>
      </trkpt>
      <trkpt lat="38.526421571150422" lon="-2.428763061761856">
        <ele>1440.199951171875</ele>
        <time>2019-11-02T10:01:24Z</time>
      </trkpt>
      <trkpt lat="38.52647177875042" lon="-2.428692989051342">
        <ele>1440.800048828125</ele>
        <time>2019-11-02T10:01:28Z</time>
      </trkpt>
      <trkpt lat="38.526521986350417" lon="-2.428621659055352">
        <ele>1441.199951171875</ele>
        <time>2019-11-02T10:01:32Z</time>
      </trkpt>
      <trkpt lat="38.526551574468613" lon="-2.428582767024636">
        <ele>1441.800048828125</ele>
        <time>2019-11-02T10:01:34Z</time>
      </trkpt>
      <trkpt lat="38.526621395722032" lon="-2.428533649072051">
        <ele>1442.199951171875</ele>
        <time>2019-11-02T10:01:38Z</time>
      </trkpt>
      <trkpt lat="38.526739161461592" lon="-2.428510179743171">
        <ele>1443</ele>
        <time>2019-11-02T10:01:44Z</time>
      </trkpt>
      <trkpt lat="38.526758523657918" lon="-2.42851160466671">
        <ele>1443.199951171875</ele>
        <time>2019-11-02T10:01:45Z</time>
      </trkpt>
      <trkpt lat="38.526837397366762" lon="-2.428520238026977">
        <ele>1444</ele>
        <time>2019-11-02T10:01:49Z</time>
      </trkpt>
      <trkpt lat="38.526931190863252" lon="-2.428514622151852">
        <ele>1444.4000244140625</ele>
        <time>2019-11-02T10:01:53Z</time>
      </trkpt>
      <trkpt lat="38.527044933289289" lon="-2.428420493379235">
        <ele>1444.800048828125</ele>
        <time>2019-11-02T10:01:58Z</time>
      </trkpt>
      <trkpt lat="38.527062619104981" lon="-2.428390150889754">
        <ele>1445</ele>
        <time>2019-11-02T10:01:59Z</time>
      </trkpt>
      <trkpt lat="38.527102097868919" lon="-2.428241707384586">
        <ele>1445.800048828125</ele>
        <time>2019-11-02T10:02:03Z</time>
      </trkpt>
      <trkpt lat="38.527093883603811" lon="-2.428169790655375">
        <ele>1446.199951171875</ele>
        <time>2019-11-02T10:02:05Z</time>
      </trkpt>
      <trkpt lat="38.527066558599472" lon="-2.428078092634678">
        <ele>1446.5999755859375</ele>
        <time>2019-11-02T10:02:08Z</time>
      </trkpt>
      <trkpt lat="38.52703956887126" lon="-2.427954040467739">
        <ele>1447.4000244140625</ele>
        <time>2019-11-02T10:02:13Z</time>
      </trkpt>
      <trkpt lat="38.527023559436202" lon="-2.427911711856723">
        <ele>1447.5999755859375</ele>
        <time>2019-11-02T10:02:15Z</time>
      </trkpt>
      <trkpt lat="38.526983661577106" lon="-2.427734350785613">
        <ele>1448.4000244140625</ele>
        <time>2019-11-02T10:02:23Z</time>
      </trkpt>
      <trkpt lat="38.526958348229527" lon="-2.427590684965253">
        <ele>1448.800048828125</ele>
        <time>2019-11-02T10:02:29Z</time>
      </trkpt>
      <trkpt lat="38.526943176984787" lon="-2.427518349140882">
        <ele>1449.199951171875</ele>
        <time>2019-11-02T10:02:32Z</time>
      </trkpt>
      <trkpt lat="38.526916522532701" lon="-2.427420951426029">
        <ele>1450</ele>
        <time>2019-11-02T10:02:36Z</time>
      </trkpt>
      <trkpt lat="38.526910990476608" lon="-2.427397985011339">
        <ele>1450.4000244140625</ele>
        <time>2019-11-02T10:02:37Z</time>
      </trkpt>
      <trkpt lat="38.526871260255575" lon="-2.427278039976954">
        <ele>1451.4000244140625</ele>
        <time>2019-11-02T10:02:43Z</time>
      </trkpt>
      <trkpt lat="38.526865560561419" lon="-2.427254403010011">
        <ele>1451.5999755859375</ele>
        <time>2019-11-02T10:02:44Z</time>
      </trkpt>
      <trkpt lat="38.526853071525693" lon="-2.427143091335893">
        <ele>1452.5999755859375</ele>
        <time>2019-11-02T10:02:49Z</time>
      </trkpt>
      <trkpt lat="38.526871930807829" lon="-2.427065223455429">
        <ele>1453</ele>
        <time>2019-11-02T10:02:53Z</time>
      </trkpt>
      <trkpt lat="38.526898752897978" lon="-2.426999760791659">
        <ele>1453.5999755859375</ele>
        <time>2019-11-02T10:02:56Z</time>
      </trkpt>
      <trkpt lat="38.52696287445724" lon="-2.426905296742916">
        <ele>1454.4000244140625</ele>
        <time>2019-11-02T10:03:01Z</time>
      </trkpt>
      <trkpt lat="38.526997240260243" lon="-2.426871936768293">
        <ele>1454.5999755859375</ele>
        <time>2019-11-02T10:03:03Z</time>
      </trkpt>
      <trkpt lat="38.527089944109321" lon="-2.426769342273474">
        <ele>1455.800048828125</ele>
        <time>2019-11-02T10:03:09Z</time>
      </trkpt>
      <trkpt lat="38.527102684602141" lon="-2.42675157263875">
        <ele>1455.800048828125</ele>
        <time>2019-11-02T10:03:10Z</time>
      </trkpt>
      <trkpt lat="38.527184743434191" lon="-2.426622323691845">
        <ele>1456.4000244140625</ele>
        <time>2019-11-02T10:03:17Z</time>
      </trkpt>
      <trkpt lat="38.527219528332353" lon="-2.426511012017727">
        <ele>1456.800048828125</ele>
        <time>2019-11-02T10:03:22Z</time>
      </trkpt>
      <trkpt lat="38.527221037074924" lon="-2.426441358402371">
        <ele>1457.4000244140625</ele>
        <time>2019-11-02T10:03:25Z</time>
      </trkpt>
      <trkpt lat="38.527207542210817" lon="-2.426293166354299">
        <ele>1457.800048828125</ele>
        <time>2019-11-02T10:03:31Z</time>
      </trkpt>
      <trkpt lat="38.527203854173422" lon="-2.42624044418335">
        <ele>1458</ele>
        <time>2019-11-02T10:03:33Z</time>
      </trkpt>
      <trkpt lat="38.527192622423172" lon="-2.426142124459147">
        <ele>1458.4000244140625</ele>
        <time>2019-11-02T10:03:37Z</time>
      </trkpt>
      <trkpt lat="38.527195891365409" lon="-2.426014132797718">
        <ele>1459</ele>
        <time>2019-11-02T10:03:42Z</time>
      </trkpt>
      <trkpt lat="38.527197064831853" lon="-2.425966020673513">
        <ele>1459.4000244140625</ele>
        <time>2019-11-02T10:03:44Z</time>
      </trkpt>
      <trkpt lat="38.52720720693469" lon="-2.425867281854153">
        <ele>1460.199951171875</ele>
        <time>2019-11-02T10:03:48Z</time>
      </trkpt>
      <trkpt lat="38.527220534160733" lon="-2.425775248557329">
        <ele>1460.5999755859375</ele>
        <time>2019-11-02T10:03:52Z</time>
      </trkpt>
      <trkpt lat="38.527237046509981" lon="-2.425664439797401">
        <ele>1461.199951171875</ele>
        <time>2019-11-02T10:03:57Z</time>
      </trkpt>
      <trkpt lat="38.527252050116658" lon="-2.425597468391061">
        <ele>1461.800048828125</ele>
        <time>2019-11-02T10:04:00Z</time>
      </trkpt>
      <trkpt lat="38.527254145592451" lon="-2.425564359873533">
        <ele>1462.199951171875</ele>
        <time>2019-11-02T10:04:02Z</time>
      </trkpt>
      <trkpt lat="38.527262862771749" lon="-2.425529323518276">
        <ele>1463</ele>
        <time>2019-11-02T10:04:06Z</time>
      </trkpt>
      <trkpt lat="38.527259258553386" lon="-2.42552169598639">
        <ele>1463.4000244140625</ele>
        <time>2019-11-02T10:04:11Z</time>
      </trkpt>
      <trkpt lat="38.527252804487944" lon="-2.425511637702584">
        <ele>1463.4000244140625</ele>
        <time>2019-11-02T10:04:14Z</time>
      </trkpt>
      <trkpt lat="38.527233609929681" lon="-2.425483139231801">
        <ele>1463.199951171875</ele>
        <time>2019-11-02T10:04:21Z</time>
      </trkpt>
      <trkpt lat="38.527240566909313" lon="-2.425482049584389">
        <ele>1463.199951171875</ele>
        <time>2019-11-02T10:04:27Z</time>
      </trkpt>
      <trkpt lat="38.527236040681601" lon="-2.425487414002419">
        <ele>1462.800048828125</ele>
        <time>2019-11-02T10:04:41Z</time>
      </trkpt>
      <trkpt lat="38.527232939377427" lon="-2.425488252192736">
        <ele>1463.5999755859375</ele>
        <time>2019-11-02T10:04:55Z</time>
      </trkpt>
      <trkpt lat="38.527233442291617" lon="-2.425491018220782">
        <ele>1463.199951171875</ele>
        <time>2019-11-02T10:05:10Z</time>
      </trkpt>
      <trkpt lat="38.527234196662903" lon="-2.425491185858846">
        <ele>1463.199951171875</ele>
        <time>2019-11-02T10:05:22Z</time>
      </trkpt>
      <trkpt lat="38.527234029024839" lon="-2.425491102039814">
        <ele>1463.4000244140625</ele>
        <time>2019-11-02T10:05:27Z</time>
      </trkpt>
      <trkpt lat="38.527231011539698" lon="-2.425494370982051">
        <ele>1463.4000244140625</ele>
        <time>2019-11-02T10:05:42Z</time>
      </trkpt>
      <trkpt lat="38.527230760082603" lon="-2.425497807562351">
        <ele>1463.199951171875</ele>
        <time>2019-11-02T10:05:56Z</time>
      </trkpt>
      <trkpt lat="38.527229335159063" lon="-2.425499064847827">
        <ele>1463.199951171875</ele>
        <time>2019-11-02T10:06:20Z</time>
      </trkpt>
      <trkpt lat="38.527227072045207" lon="-2.425498059019446">
        <ele>1463</ele>
        <time>2019-11-02T10:06:53Z</time>
      </trkpt>
      <trkpt lat="38.52722866460681" lon="-2.425496969372034">
        <ele>1462.800048828125</ele>
        <time>2019-11-02T10:07:14Z</time>
      </trkpt>
      <trkpt lat="38.527228413149714" lon="-2.425500908866525">
        <ele>1462.800048828125</ele>
        <time>2019-11-02T10:07:48Z</time>
      </trkpt>
      <trkpt lat="38.527229083701968" lon="-2.425500825047493">
        <ele>1462.5999755859375</ele>
        <time>2019-11-02T10:08:02Z</time>
      </trkpt>
      <trkpt lat="38.527223551645875" lon="-2.425502417609096">
        <ele>1462.4000244140625</ele>
        <time>2019-11-02T10:08:36Z</time>
      </trkpt>
      <trkpt lat="38.527222881093621" lon="-2.425509039312601">
        <ele>1462</ele>
        <time>2019-11-02T10:09:03Z</time>
      </trkpt>
      <trkpt lat="38.527226150035858" lon="-2.425510631874204">
        <ele>1463.800048828125</ele>
        <time>2019-11-02T10:09:22Z</time>
      </trkpt>
      <trkpt lat="38.52722623385489" lon="-2.425510883331299">
        <ele>1463.800048828125</ele>
        <time>2019-11-02T10:09:23Z</time>
      </trkpt>
      <trkpt lat="38.527223467826843" lon="-2.425513816997409">
        <ele>1463.800048828125</ele>
        <time>2019-11-02T10:09:41Z</time>
      </trkpt>
      <trkpt lat="38.527221539989114" lon="-2.425512475892901">
        <ele>1463</ele>
        <time>2019-11-02T10:10:26Z</time>
      </trkpt>
      <trkpt lat="38.527219779789448" lon="-2.42551339790225">
        <ele>1463.5999755859375</ele>
        <time>2019-11-02T10:10:52Z</time>
      </trkpt>
      <trkpt lat="38.527210475876927" lon="-2.425510799512267">
        <ele>1463.199951171875</ele>
        <time>2019-11-02T10:11:22Z</time>
      </trkpt>
      <trkpt lat="38.527209553867579" lon="-2.425510631874204">
        <ele>1463</ele>
        <time>2019-11-02T10:11:30Z</time>
      </trkpt>
      <trkpt lat="38.527206117287278" lon="-2.425508620217443">
        <ele>1463.199951171875</ele>
        <time>2019-11-02T10:11:45Z</time>
      </trkpt>
      <trkpt lat="38.527207793667912" lon="-2.425511470064521">
        <ele>1463.5999755859375</ele>
        <time>2019-11-02T10:12:04Z</time>
      </trkpt>
      <trkpt lat="38.527204357087612" lon="-2.425511805340648">
        <ele>1463.5999755859375</ele>
        <time>2019-11-02T10:12:40Z</time>
      </trkpt>
      <trkpt lat="38.527204189449549" lon="-2.425512559711933">
        <ele>1464</ele>
        <time>2019-11-02T10:13:08Z</time>
      </trkpt>
      <trkpt lat="38.527204189449549" lon="-2.425512727349997">
        <ele>1464.199951171875</ele>
        <time>2019-11-02T10:13:12Z</time>
      </trkpt>
      <trkpt lat="38.527204189449549" lon="-2.425513900816441">
        <ele>1464</ele>
        <time>2019-11-02T10:13:50Z</time>
      </trkpt>
      <trkpt lat="38.527205279096961" lon="-2.425516163930297">
        <ele>1464.4000244140625</ele>
        <time>2019-11-02T10:14:22Z</time>
      </trkpt>
      <trkpt lat="38.527213493362069" lon="-2.425510883331299">
        <ele>1464.4000244140625</ele>
        <time>2019-11-02T10:14:23Z</time>
      </trkpt>
      <trkpt lat="38.527225647121668" lon="-2.425502836704254">
        <ele>1464.4000244140625</ele>
        <time>2019-11-02T10:14:28Z</time>
      </trkpt>
      <trkpt lat="38.527230592444539" lon="-2.425490682944655">
        <ele>1464.4000244140625</ele>
        <time>2019-11-02T10:14:30Z</time>
      </trkpt>
      <trkpt lat="38.52726043201983" lon="-2.425452880561352">
        <ele>1464.4000244140625</ele>
        <time>2019-11-02T10:14:33Z</time>
      </trkpt>
      <trkpt lat="38.527267388999462" lon="-2.425433602184057">
        <ele>1464.5999755859375</ele>
        <time>2019-11-02T10:14:34Z</time>
      </trkpt>
      <trkpt lat="38.527305023744702" lon="-2.425323631614447">
        <ele>1464.5999755859375</ele>
        <time>2019-11-02T10:14:39Z</time>
      </trkpt>
      <trkpt lat="38.527373252436519" lon="-2.425195388495922">
        <ele>1465.4000244140625</ele>
        <time>2019-11-02T10:14:45Z</time>
      </trkpt>
      <trkpt lat="38.527439218014479" lon="-2.42508240044117">
        <ele>1466.199951171875</ele>
        <time>2019-11-02T10:14:51Z</time>
      </trkpt>
      <trkpt lat="38.52748179808259" lon="-2.42502473294735">
        <ele>1466.4000244140625</ele>
        <time>2019-11-02T10:14:54Z</time>
      </trkpt>
      <trkpt lat="38.527548182755709" lon="-2.424941165372729">
        <ele>1466.5999755859375</ele>
        <time>2019-11-02T10:14:58Z</time>
      </trkpt>
      <trkpt lat="38.527685981243849" lon="-2.424779646098614">
        <ele>1466.5999755859375</ele>
        <time>2019-11-02T10:15:06Z</time>
      </trkpt>
      <trkpt lat="38.527804249897599" lon="-2.42466707713902">
        <ele>1466.199951171875</ele>
        <time>2019-11-02T10:15:11Z</time>
      </trkpt>
      <trkpt lat="38.527942383661866" lon="-2.424525674432516">
        <ele>1465.800048828125</ele>
        <time>2019-11-02T10:15:16Z</time>
      </trkpt>
      <trkpt lat="38.527974067255855" lon="-2.424485106021166">
        <ele>1465.5999755859375</ele>
        <time>2019-11-02T10:15:17Z</time>
      </trkpt>
      <trkpt lat="38.528033494949341" lon="-2.424379158765078">
        <ele>1465.4000244140625</ele>
        <time>2019-11-02T10:15:19Z</time>
      </trkpt>
      <trkpt lat="38.528056377544999" lon="-2.424316965043545">
        <ele>1465.199951171875</ele>
        <time>2019-11-02T10:15:20Z</time>
      </trkpt>
      <trkpt lat="38.528073811903596" lon="-2.424249574542046">
        <ele>1464.800048828125</ele>
        <time>2019-11-02T10:15:21Z</time>
      </trkpt>
      <trkpt lat="38.528099041432142" lon="-2.424110434949398">
        <ele>1464</ele>
        <time>2019-11-02T10:15:23Z</time>
      </trkpt>
      <trkpt lat="38.528104154393077" lon="-2.424046732485294">
        <ele>1463.5999755859375</ele>
        <time>2019-11-02T10:15:24Z</time>
      </trkpt>
      <trkpt lat="38.528110859915614" lon="-2.423983532935381">
        <ele>1463</ele>
        <time>2019-11-02T10:15:25Z</time>
      </trkpt>
      <trkpt lat="38.528180094435811" lon="-2.423799298703671">
        <ele>1461.5999755859375</ele>
        <time>2019-11-02T10:15:28Z</time>
      </trkpt>
      <trkpt lat="38.528308253735304" lon="-2.42366879247129">
        <ele>1460.4000244140625</ele>
        <time>2019-11-02T10:15:31Z</time>
      </trkpt>
      <trkpt lat="38.528360305353999" lon="-2.423620093613863">
        <ele>1460</ele>
        <time>2019-11-02T10:15:32Z</time>
      </trkpt>
      <trkpt lat="38.528403136879206" lon="-2.423568880185485">
        <ele>1459.800048828125</ele>
        <time>2019-11-02T10:15:33Z</time>
      </trkpt>
      <trkpt lat="38.528439765796065" lon="-2.423515068367124">
        <ele>1459.4000244140625</ele>
        <time>2019-11-02T10:15:34Z</time>
      </trkpt>
      <trkpt lat="38.52850204333663" lon="-2.423405516892672">
        <ele>1458.5999755859375</ele>
        <time>2019-11-02T10:15:36Z</time>
      </trkpt>
      <trkpt lat="38.528531463816762" lon="-2.423345251008868">
        <ele>1458.199951171875</ele>
        <time>2019-11-02T10:15:37Z</time>
      </trkpt>
      <trkpt lat="38.528629029169679" lon="-2.423112401738763">
        <ele>1457</ele>
        <time>2019-11-02T10:15:41Z</time>
      </trkpt>
      <trkpt lat="38.528685187920928" lon="-2.423001592978835">
        <ele>1456</ele>
        <time>2019-11-02T10:15:43Z</time>
      </trkpt>
      <trkpt lat="38.528719721361995" lon="-2.42295054718852">
        <ele>1455.5999755859375</ele>
        <time>2019-11-02T10:15:44Z</time>
      </trkpt>
      <trkpt lat="38.528796834871173" lon="-2.422855161130428">
        <ele>1454.5999755859375</ele>
        <time>2019-11-02T10:15:46Z</time>
      </trkpt>
      <trkpt lat="38.52883723564446" lon="-2.42281811311841">
        <ele>1454.199951171875</ele>
        <time>2019-11-02T10:15:47Z</time>
      </trkpt>
      <trkpt lat="38.528877887874842" lon="-2.422781987115741">
        <ele>1453.800048828125</ele>
        <time>2019-11-02T10:15:48Z</time>
      </trkpt>
      <trkpt lat="38.528967406600714" lon="-2.422710154205561">
        <ele>1453</ele>
        <time>2019-11-02T10:15:50Z</time>
      </trkpt>
      <trkpt lat="38.529117358848453" lon="-2.422581240534782">
        <ele>1452.199951171875</ele>
        <time>2019-11-02T10:15:53Z</time>
      </trkpt>
      <trkpt lat="38.529170919209719" lon="-2.422533296048641">
        <ele>1451.5999755859375</ele>
        <time>2019-11-02T10:15:54Z</time>
      </trkpt>
      <trkpt lat="38.529270747676492" lon="-2.422428354620934">
        <ele>1451</ele>
        <time>2019-11-02T10:15:56Z</time>
      </trkpt>
      <trkpt lat="38.529325816780329" lon="-2.422366999089718">
        <ele>1450.199951171875</ele>
        <time>2019-11-02T10:15:57Z</time>
      </trkpt>
      <trkpt lat="38.529380718246102" lon="-2.4223074875772">
        <ele>1449.800048828125</ele>
        <time>2019-11-02T10:15:58Z</time>
      </trkpt>
      <trkpt lat="38.529480798169971" lon="-2.42218678817153">
        <ele>1449.199951171875</ele>
        <time>2019-11-02T10:16:00Z</time>
      </trkpt>
      <trkpt lat="38.529628068208694" lon="-2.421988975256681">
        <ele>1448</ele>
        <time>2019-11-02T10:16:03Z</time>
      </trkpt>
      <trkpt lat="38.52967425249517" lon="-2.421924015507102">
        <ele>1447.5999755859375</ele>
        <time>2019-11-02T10:16:04Z</time>
      </trkpt>
      <trkpt lat="38.529719011858106" lon="-2.421854278072715">
        <ele>1447</ele>
        <time>2019-11-02T10:16:05Z</time>
      </trkpt>
      <trkpt lat="38.529858822003007" lon="-2.421631654724479">
        <ele>1445.800048828125</ele>
        <time>2019-11-02T10:16:08Z</time>
      </trkpt>
      <trkpt lat="38.529903162270784" lon="-2.421552697196603">
        <ele>1445</ele>
        <time>2019-11-02T10:16:09Z</time>
      </trkpt>
      <trkpt lat="38.529947334900498" lon="-2.421472230926156">
        <ele>1444.4000244140625</ele>
        <time>2019-11-02T10:16:10Z</time>
      </trkpt>
      <trkpt lat="38.530074488371611" lon="-2.421242231503129">
        <ele>1443</ele>
        <time>2019-11-02T10:16:13Z</time>
      </trkpt>
      <trkpt lat="38.530158391222358" lon="-2.421096386387944">
        <ele>1442.199951171875</ele>
        <time>2019-11-02T10:16:15Z</time>
      </trkpt>
      <trkpt lat="38.530202144756913" lon="-2.421023044735193">
        <ele>1442</ele>
        <time>2019-11-02T10:16:16Z</time>
      </trkpt>
      <trkpt lat="38.530317479744554" lon="-2.420800756663084">
        <ele>1440.800048828125</ele>
        <time>2019-11-02T10:16:19Z</time>
      </trkpt>
      <trkpt lat="38.530357629060745" lon="-2.420729678124189">
        <ele>1440.4000244140625</ele>
        <time>2019-11-02T10:16:20Z</time>
      </trkpt>
      <trkpt lat="38.530398281291127" lon="-2.42065348662436">
        <ele>1439.5999755859375</ele>
        <time>2019-11-02T10:16:21Z</time>
      </trkpt>
      <trkpt lat="38.530477322638035" lon="-2.420491380617023">
        <ele>1438.5999755859375</ele>
        <time>2019-11-02T10:16:23Z</time>
      </trkpt>
      <trkpt lat="38.530586622655392" lon="-2.420252580195665">
        <ele>1437.800048828125</ele>
        <time>2019-11-02T10:16:26Z</time>
      </trkpt>
      <trkpt lat="38.530624341219664" lon="-2.420178232714534">
        <ele>1437.4000244140625</ele>
        <time>2019-11-02T10:16:27Z</time>
      </trkpt>
      <trkpt lat="38.530717464163899" lon="-2.419962985441089">
        <ele>1437</ele>
        <time>2019-11-02T10:16:30Z</time>
      </trkpt>
      <trkpt lat="38.530770689249039" lon="-2.419809345155954">
        <ele>1436.199951171875</ele>
        <time>2019-11-02T10:16:32Z</time>
      </trkpt>
      <trkpt lat="38.530858615413308" lon="-2.419469375163317">
        <ele>1434.800048828125</ele>
        <time>2019-11-02T10:16:36Z</time>
      </trkpt>
      <trkpt lat="38.530872780829668" lon="-2.419372899457812">
        <ele>1434.199951171875</ele>
        <time>2019-11-02T10:16:37Z</time>
      </trkpt>
      <trkpt lat="38.530879989266396" lon="-2.419276004657149">
        <ele>1433.800048828125</ele>
        <time>2019-11-02T10:16:38Z</time>
      </trkpt>
      <trkpt lat="38.530886862426996" lon="-2.418963359668851">
        <ele>1432.4000244140625</ele>
        <time>2019-11-02T10:16:41Z</time>
      </trkpt>
      <trkpt lat="38.530870685353875" lon="-2.418749704957008">
        <ele>1431.199951171875</ele>
        <time>2019-11-02T10:16:43Z</time>
      </trkpt>
      <trkpt lat="38.530824333429337" lon="-2.418432952836156">
        <ele>1429.5999755859375</ele>
        <time>2019-11-02T10:16:46Z</time>
      </trkpt>
      <trkpt lat="38.530802372843027" lon="-2.418229188770056">
        <ele>1428.4000244140625</ele>
        <time>2019-11-02T10:16:48Z</time>
      </trkpt>
      <trkpt lat="38.530785944312811" lon="-2.418024921789765">
        <ele>1427.4000244140625</ele>
        <time>2019-11-02T10:16:50Z</time>
      </trkpt>
      <trkpt lat="38.530788039788604" lon="-2.417923081666231">
        <ele>1426.800048828125</ele>
        <time>2019-11-02T10:16:51Z</time>
      </trkpt>
      <trkpt lat="38.530793823301792" lon="-2.417614124715328">
        <ele>1425.4000244140625</ele>
        <time>2019-11-02T10:16:54Z</time>
      </trkpt>
      <trkpt lat="38.530777310952544" lon="-2.417397033423185">
        <ele>1424.800048828125</ele>
        <time>2019-11-02T10:16:56Z</time>
      </trkpt>
      <trkpt lat="38.530767587944865" lon="-2.417284129187465">
        <ele>1424.199951171875</ele>
        <time>2019-11-02T10:16:57Z</time>
      </trkpt>
      <trkpt lat="38.530734227970243" lon="-2.417068714275956">
        <ele>1422.5999755859375</ele>
        <time>2019-11-02T10:16:59Z</time>
      </trkpt>
      <trkpt lat="38.530711680650711" lon="-2.416970729827881">
        <ele>1421.800048828125</ele>
        <time>2019-11-02T10:17:00Z</time>
      </trkpt>
      <trkpt lat="38.530686367303133" lon="-2.416875259950757">
        <ele>1421</ele>
        <time>2019-11-02T10:17:01Z</time>
      </trkpt>
      <trkpt lat="38.530659042298794" lon="-2.416688259691">
        <ele>1420.199951171875</ele>
        <time>2019-11-02T10:17:03Z</time>
      </trkpt>
      <trkpt lat="38.530664574354887" lon="-2.416601171717048">
        <ele>1419.800048828125</ele>
        <time>2019-11-02T10:17:04Z</time>
      </trkpt>
      <trkpt lat="38.53075610473752" lon="-2.41639212705195">
        <ele>1418.5999755859375</ele>
        <time>2019-11-02T10:17:07Z</time>
      </trkpt>
      <trkpt lat="38.530890550464392" lon="-2.416200852021575">
        <ele>1418.199951171875</ele>
        <time>2019-11-02T10:17:10Z</time>
      </trkpt>
      <trkpt lat="38.530998090282083" lon="-2.416072189807892">
        <ele>1417.5999755859375</ele>
        <time>2019-11-02T10:17:12Z</time>
      </trkpt>
      <trkpt lat="38.531107222661376" lon="-2.415929110720754">
        <ele>1416.800048828125</ele>
        <time>2019-11-02T10:17:14Z</time>
      </trkpt>
      <trkpt lat="38.531153574585915" lon="-2.415839759632945">
        <ele>1416.4000244140625</ele>
        <time>2019-11-02T10:17:15Z</time>
      </trkpt>
      <trkpt lat="38.531187940388918" lon="-2.415738087147474">
        <ele>1415.5999755859375</ele>
        <time>2019-11-02T10:17:16Z</time>
      </trkpt>
      <trkpt lat="38.531208392232656" lon="-2.415628870949149">
        <ele>1414.800048828125</ele>
        <time>2019-11-02T10:17:17Z</time>
      </trkpt>
      <trkpt lat="38.531224653124809" lon="-2.415514793246984">
        <ele>1414.199951171875</ele>
        <time>2019-11-02T10:17:18Z</time>
      </trkpt>
      <trkpt lat="38.53123445995152" lon="-2.415393423289061">
        <ele>1413.4000244140625</ele>
        <time>2019-11-02T10:17:19Z</time>
      </trkpt>
      <trkpt lat="38.531243931502104" lon="-2.415273394435644">
        <ele>1412.800048828125</ele>
        <time>2019-11-02T10:17:20Z</time>
      </trkpt>
      <trkpt lat="38.531257174909115" lon="-2.415160657837987">
        <ele>1412</ele>
        <time>2019-11-02T10:17:21Z</time>
      </trkpt>
      <trkpt lat="38.531326996162534" lon="-2.414960246533155">
        <ele>1410.4000244140625</ele>
        <time>2019-11-02T10:17:23Z</time>
      </trkpt>
      <trkpt lat="38.531444258987904" lon="-2.414787076413631">
        <ele>1409.199951171875</ele>
        <time>2019-11-02T10:17:25Z</time>
      </trkpt>
      <trkpt lat="38.531496813520789" lon="-2.414701329544187">
        <ele>1408.199951171875</ele>
        <time>2019-11-02T10:17:26Z</time>
      </trkpt>
      <trkpt lat="38.531546099111438" lon="-2.414609882980585">
        <ele>1407.5999755859375</ele>
        <time>2019-11-02T10:17:27Z</time>
      </trkpt>
      <trkpt lat="38.531581470742822" lon="-2.414522962644696">
        <ele>1407.199951171875</ele>
        <time>2019-11-02T10:17:28Z</time>
      </trkpt>
      <trkpt lat="38.531601252034307" lon="-2.414437299594283">
        <ele>1406.4000244140625</ele>
        <time>2019-11-02T10:17:29Z</time>
      </trkpt>
      <trkpt lat="38.531607873737812" lon="-2.414354821667075">
        <ele>1405.5999755859375</ele>
        <time>2019-11-02T10:17:30Z</time>
      </trkpt>
      <trkpt lat="38.531612399965525" lon="-2.41426857188344">
        <ele>1405.199951171875</ele>
        <time>2019-11-02T10:17:31Z</time>
      </trkpt>
      <trkpt lat="38.531619943678379" lon="-2.414186680689454">
        <ele>1404.800048828125</ele>
        <time>2019-11-02T10:17:32Z</time>
      </trkpt>
      <trkpt lat="38.531637042760849" lon="-2.414114344865084">
        <ele>1403.800048828125</ele>
        <time>2019-11-02T10:17:33Z</time>
      </trkpt>
      <trkpt lat="38.531663613393903" lon="-2.414050474762917">
        <ele>1403</ele>
        <time>2019-11-02T10:17:34Z</time>
      </trkpt>
      <trkpt lat="38.531695799902081" lon="-2.414001021534204">
        <ele>1402.4000244140625</ele>
        <time>2019-11-02T10:17:35Z</time>
      </trkpt>
      <trkpt lat="38.53180275298655" lon="-2.413920639082789">
        <ele>1402</ele>
        <time>2019-11-02T10:17:37Z</time>
      </trkpt>
      <trkpt lat="38.531923200935125" lon="-2.413820140063763">
        <ele>1401.199951171875</ele>
        <time>2019-11-02T10:17:39Z</time>
      </trkpt>
      <trkpt lat="38.531988160684705" lon="-2.413760963827372">
        <ele>1400.5999755859375</ele>
        <time>2019-11-02T10:17:40Z</time>
      </trkpt>
      <trkpt lat="38.532055886462331" lon="-2.41369198076427">
        <ele>1399.800048828125</ele>
        <time>2019-11-02T10:17:41Z</time>
      </trkpt>
      <trkpt lat="38.532179770991206" lon="-2.413531299680471">
        <ele>1398.4000244140625</ele>
        <time>2019-11-02T10:17:43Z</time>
      </trkpt>
      <trkpt lat="38.532283455133438" lon="-2.413338683545589">
        <ele>1397.4000244140625</ele>
        <time>2019-11-02T10:17:45Z</time>
      </trkpt>
      <trkpt lat="38.53232704102993" lon="-2.41324195638299">
        <ele>1396.800048828125</ele>
        <time>2019-11-02T10:17:46Z</time>
      </trkpt>
      <trkpt lat="38.532356880605221" lon="-2.413140954449773">
        <ele>1396.199951171875</ele>
        <time>2019-11-02T10:17:47Z</time>
      </trkpt>
      <trkpt lat="38.532375656068325" lon="-2.413027798756957">
        <ele>1395.5999755859375</ele>
        <time>2019-11-02T10:17:48Z</time>
      </trkpt>
      <trkpt lat="38.532386301085353" lon="-2.412908105179667">
        <ele>1394.5999755859375</ele>
        <time>2019-11-02T10:17:49Z</time>
      </trkpt>
      <trkpt lat="38.532393593341112" lon="-2.412787405773997">
        <ele>1393.4000244140625</ele>
        <time>2019-11-02T10:17:50Z</time>
      </trkpt>
      <trkpt lat="38.532413374632597" lon="-2.412561764940619">
        <ele>1391.800048828125</ele>
        <time>2019-11-02T10:17:52Z</time>
      </trkpt>
      <trkpt lat="38.532429886981845" lon="-2.41246847435832">
        <ele>1391.199951171875</ele>
        <time>2019-11-02T10:17:53Z</time>
      </trkpt>
      <trkpt lat="38.532454026862979" lon="-2.412394462153316">
        <ele>1390.800048828125</ele>
        <time>2019-11-02T10:17:54Z</time>
      </trkpt>
      <trkpt lat="38.53252493776381" lon="-2.412323048338294">
        <ele>1390.199951171875</ele>
        <time>2019-11-02T10:17:56Z</time>
      </trkpt>
      <trkpt lat="38.532625939697027" lon="-2.412310307845473">
        <ele>1389.5999755859375</ele>
        <time>2019-11-02T10:17:58Z</time>
      </trkpt>
      <trkpt lat="38.532675979658961" lon="-2.41233604028821">
        <ele>1389.199951171875</ele>
        <time>2019-11-02T10:17:59Z</time>
      </trkpt>
      <trkpt lat="38.532766923308372" lon="-2.412513652816415">
        <ele>1388.199951171875</ele>
        <time>2019-11-02T10:18:02Z</time>
      </trkpt>
      <trkpt lat="38.53278586640954" lon="-2.412587245926261">
        <ele>1387.800048828125</ele>
        <time>2019-11-02T10:18:03Z</time>
      </trkpt>
      <trkpt lat="38.53277949616313" lon="-2.412663688883185">
        <ele>1387.4000244140625</ele>
        <time>2019-11-02T10:18:04Z</time>
      </trkpt>
      <trkpt lat="38.532762648537755" lon="-2.412738958373666">
        <ele>1386.800048828125</ele>
        <time>2019-11-02T10:18:05Z</time>
      </trkpt>
      <trkpt lat="38.532647313550115" lon="-2.412977842614055">
        <ele>1385.4000244140625</ele>
        <time>2019-11-02T10:18:08Z</time>
      </trkpt>
      <trkpt lat="38.53259869851172" lon="-2.413063924759626">
        <ele>1384.800048828125</ele>
        <time>2019-11-02T10:18:09Z</time>
      </trkpt>
      <trkpt lat="38.532553352415562" lon="-2.413152353838086">
        <ele>1384.4000244140625</ele>
        <time>2019-11-02T10:18:10Z</time>
      </trkpt>
      <trkpt lat="38.532443381845951" lon="-2.413423508405685">
        <ele>1382.800048828125</ele>
        <time>2019-11-02T10:18:13Z</time>
      </trkpt>
      <trkpt lat="38.532329052686691" lon="-2.413720227777958">
        <ele>1381.4000244140625</ele>
        <time>2019-11-02T10:18:16Z</time>
      </trkpt>
      <trkpt lat="38.532285215333104" lon="-2.413830785080791">
        <ele>1381</ele>
        <time>2019-11-02T10:18:17Z</time>
      </trkpt>
      <trkpt lat="38.532243641093373" lon="-2.413930697366595">
        <ele>1380.4000244140625</ele>
        <time>2019-11-02T10:18:18Z</time>
      </trkpt>
      <trkpt lat="38.532132245600224" lon="-2.414180897176266">
        <ele>1379</ele>
        <time>2019-11-02T10:18:21Z</time>
      </trkpt>
      <trkpt lat="38.532087821513414" lon="-2.41433990187943">
        <ele>1378</ele>
        <time>2019-11-02T10:18:23Z</time>
      </trkpt>
      <trkpt lat="38.532076086848974" lon="-2.414424391463399">
        <ele>1377.800048828125</ele>
        <time>2019-11-02T10:18:24Z</time>
      </trkpt>
      <trkpt lat="38.532026801258326" lon="-2.414727564901114">
        <ele>1376.5999755859375</ele>
        <time>2019-11-02T10:18:28Z</time>
      </trkpt>
      <trkpt lat="38.531934935599566" lon="-2.415006347000599">
        <ele>1375.199951171875</ele>
        <time>2019-11-02T10:18:31Z</time>
      </trkpt>
      <trkpt lat="38.531911550089717" lon="-2.415115982294083">
        <ele>1374.5999755859375</ele>
        <time>2019-11-02T10:18:32Z</time>
      </trkpt>
      <trkpt lat="38.531893193721771" lon="-2.415227293968201">
        <ele>1374.199951171875</ele>
        <time>2019-11-02T10:18:33Z</time>
      </trkpt>
      <trkpt lat="38.531850026920438" lon="-2.415545387193561">
        <ele>1372.4000244140625</ele>
        <time>2019-11-02T10:18:36Z</time>
      </trkpt>
      <trkpt lat="38.531843740493059" lon="-2.415639851242304">
        <ele>1371.5999755859375</ele>
        <time>2019-11-02T10:18:37Z</time>
      </trkpt>
      <trkpt lat="38.531847512349486" lon="-2.415719563141465">
        <ele>1371</ele>
        <time>2019-11-02T10:18:38Z</time>
      </trkpt>
      <trkpt lat="38.531881291419268" lon="-2.415857529267669">
        <ele>1370</ele>
        <time>2019-11-02T10:18:40Z</time>
      </trkpt>
      <trkpt lat="38.531947676092386" lon="-2.41592014208436">
        <ele>1369</ele>
        <time>2019-11-02T10:18:42Z</time>
      </trkpt>
      <trkpt lat="38.531989837065339" lon="-2.415934475138783">
        <ele>1368.5999755859375</ele>
        <time>2019-11-02T10:18:43Z</time>
      </trkpt>
      <trkpt lat="38.532099053263664" lon="-2.415917040780187">
        <ele>1368</ele>
        <time>2019-11-02T10:18:46Z</time>
      </trkpt>
      <trkpt lat="38.532133335247636" lon="-2.415896756574512">
        <ele>1368</ele>
        <time>2019-11-02T10:18:47Z</time>
      </trkpt>
      <trkpt lat="38.532226206734776" lon="-2.415779577568173">
        <ele>1367.5999755859375</ele>
        <time>2019-11-02T10:18:50Z</time>
      </trkpt>
      <trkpt lat="38.532335087656975" lon="-2.415474392473698">
        <ele>1366.800048828125</ele>
        <time>2019-11-02T10:18:56Z</time>
      </trkpt>
      <trkpt lat="38.532417565584183" lon="-2.415242716670036">
        <ele>1366.5999755859375</ele>
        <time>2019-11-02T10:19:00Z</time>
      </trkpt>
      <trkpt lat="38.532480681315064" lon="-2.415070720016956">
        <ele>1366</ele>
        <time>2019-11-02T10:19:03Z</time>
      </trkpt>
      <trkpt lat="38.532589813694358" lon="-2.414784897118807">
        <ele>1365.800048828125</ele>
        <time>2019-11-02T10:19:08Z</time>
      </trkpt>
      <trkpt lat="38.532610265538096" lon="-2.414728906005621">
        <ele>1365.800048828125</ele>
        <time>2019-11-02T10:19:09Z</time>
      </trkpt>
      <trkpt lat="38.532741945236921" lon="-2.414270918816328">
        <ele>1365</ele>
        <time>2019-11-02T10:19:17Z</time>
      </trkpt>
      <trkpt lat="38.532787710428238" lon="-2.414094312116504">
        <ele>1364.800048828125</ele>
        <time>2019-11-02T10:19:20Z</time>
      </trkpt>
      <trkpt lat="38.532852167263627" lon="-2.413929607719183">
        <ele>1364.199951171875</ele>
        <time>2019-11-02T10:19:23Z</time>
      </trkpt>
      <trkpt lat="38.532967334613204" lon="-2.413785858079791">
        <ele>1363.5999755859375</ele>
        <time>2019-11-02T10:19:26Z</time>
      </trkpt>
      <trkpt lat="38.533013602718711" lon="-2.413746966049075">
        <ele>1363.5999755859375</ele>
        <time>2019-11-02T10:19:27Z</time>
      </trkpt>
      <trkpt lat="38.533061044290662" lon="-2.41371151059866">
        <ele>1363.5999755859375</ele>
        <time>2019-11-02T10:19:28Z</time>
      </trkpt>
      <trkpt lat="38.533253241330385" lon="-2.413579747080803">
        <ele>1362.800048828125</ele>
        <time>2019-11-02T10:19:32Z</time>
      </trkpt>
      <trkpt lat="38.533301269635558" lon="-2.413547728210688">
        <ele>1362.5999755859375</ele>
        <time>2019-11-02T10:19:33Z</time>
      </trkpt>
      <trkpt lat="38.533516013994813" lon="-2.413474302738905">
        <ele>1362.199951171875</ele>
        <time>2019-11-02T10:19:37Z</time>
      </trkpt>
      <trkpt lat="38.533701254054904" lon="-2.413433147594333">
        <ele>1361.5999755859375</ele>
        <time>2019-11-02T10:19:40Z</time>
      </trkpt>
      <trkpt lat="38.53390434756875" lon="-2.413376737385988">
        <ele>1360.800048828125</ele>
        <time>2019-11-02T10:19:43Z</time>
      </trkpt>
      <trkpt lat="38.534042565152049" lon="-2.41332309320569">
        <ele>1360.4000244140625</ele>
        <time>2019-11-02T10:19:45Z</time>
      </trkpt>
      <trkpt lat="38.534257728606462" lon="-2.413216726854444">
        <ele>1359.4000244140625</ele>
        <time>2019-11-02T10:19:48Z</time>
      </trkpt>
      <trkpt lat="38.534328136593103" lon="-2.413173727691174">
        <ele>1358.4000244140625</ele>
        <time>2019-11-02T10:19:49Z</time>
      </trkpt>
      <trkpt lat="38.534476915374398" lon="-2.41307239048183">
        <ele>1357</ele>
        <time>2019-11-02T10:19:51Z</time>
      </trkpt>
      <trkpt lat="38.534556040540338" lon="-2.413025368005037">
        <ele>1356.800048828125</ele>
        <time>2019-11-02T10:19:52Z</time>
      </trkpt>
      <trkpt lat="38.534722672775388" lon="-2.412934843450785">
        <ele>1355.5999755859375</ele>
        <time>2019-11-02T10:19:54Z</time>
      </trkpt>
      <trkpt lat="38.534896681085229" lon="-2.412847336381674">
        <ele>1354.4000244140625</ele>
        <time>2019-11-02T10:19:56Z</time>
      </trkpt>
      <trkpt lat="38.534975806251168" lon="-2.412812886759639">
        <ele>1353.800048828125</ele>
        <time>2019-11-02T10:19:57Z</time>
      </trkpt>
      <trkpt lat="38.535048393532634" lon="-2.412781622260809">
        <ele>1353</ele>
        <time>2019-11-02T10:19:58Z</time>
      </trkpt>
      <trkpt lat="38.535183845087886" lon="-2.412717333063483">
        <ele>1351.800048828125</ele>
        <time>2019-11-02T10:20:00Z</time>
      </trkpt>
      <trkpt lat="38.535252325236797" lon="-2.412692271173">
        <ele>1351</ele>
        <time>2019-11-02T10:20:01Z</time>
      </trkpt>
      <trkpt lat="38.535323990508914" lon="-2.412673914805055">
        <ele>1350.4000244140625</ele>
        <time>2019-11-02T10:20:02Z</time>
      </trkpt>
      <trkpt lat="38.535571340471506" lon="-2.412618258967996">
        <ele>1349.199951171875</ele>
        <time>2019-11-02T10:20:06Z</time>
      </trkpt>
      <trkpt lat="38.535610735416412" lon="-2.412599567323923">
        <ele>1348.5999755859375</ele>
        <time>2019-11-02T10:20:07Z</time>
      </trkpt>
      <trkpt lat="38.53567318059504" lon="-2.412547767162323">
        <ele>1348.199951171875</ele>
        <time>2019-11-02T10:20:10Z</time>
      </trkpt>
      <trkpt lat="38.535685082897544" lon="-2.412530835717916">
        <ele>1348.199951171875</ele>
        <time>2019-11-02T10:20:11Z</time>
      </trkpt>
      <trkpt lat="38.535696566104889" lon="-2.412511808797717">
        <ele>1348</ele>
        <time>2019-11-02T10:20:15Z</time>
      </trkpt>
      <trkpt lat="38.535700002685189" lon="-2.412509629502892">
        <ele>1347.199951171875</ele>
        <time>2019-11-02T10:20:32Z</time>
      </trkpt>
      <trkpt lat="38.535724310204387" lon="-2.41251734085381">
        <ele>1347.199951171875</ele>
        <time>2019-11-02T10:20:41Z</time>
      </trkpt>
      <trkpt lat="38.535728920251131" lon="-2.412529410794377">
        <ele>1347.199951171875</ele>
        <time>2019-11-02T10:20:42Z</time>
      </trkpt>
      <trkpt lat="38.535741744562984" lon="-2.41257936693728">
        <ele>1347.4000244140625</ele>
        <time>2019-11-02T10:20:45Z</time>
      </trkpt>
      <trkpt lat="38.535775188356638" lon="-2.412646254524589">
        <ele>1348</ele>
        <time>2019-11-02T10:20:49Z</time>
      </trkpt>
      <trkpt lat="38.535832269117236" lon="-2.412719177082181">
        <ele>1348.800048828125</ele>
        <time>2019-11-02T10:20:55Z</time>
      </trkpt>
      <trkpt lat="38.535839980468154" lon="-2.412733426317573">
        <ele>1349</ele>
        <time>2019-11-02T10:20:56Z</time>
      </trkpt>
      <trkpt lat="38.535897899419069" lon="-2.412829818204045">
        <ele>1350</ele>
        <time>2019-11-02T10:21:03Z</time>
      </trkpt>
      <trkpt lat="38.535905778408051" lon="-2.412841971963644">
        <ele>1350.199951171875</ele>
        <time>2019-11-02T10:21:04Z</time>
      </trkpt>
      <trkpt lat="38.5359101369977" lon="-2.412857729941607">
        <ele>1350.199951171875</ele>
        <time>2019-11-02T10:21:05Z</time>
      </trkpt>
      <trkpt lat="38.5359394736588" lon="-2.412934675812721">
        <ele>1351</ele>
        <time>2019-11-02T10:21:10Z</time>
      </trkpt>
      <trkpt lat="38.53594827465713" lon="-2.412948589771986">
        <ele>1351.199951171875</ele>
        <time>2019-11-02T10:21:11Z</time>
      </trkpt>
      <trkpt lat="38.536000829190016" lon="-2.413033833727241">
        <ele>1351.800048828125</ele>
        <time>2019-11-02T10:21:17Z</time>
      </trkpt>
      <trkpt lat="38.536009211093187" lon="-2.413050178438425">
        <ele>1352.199951171875</ele>
        <time>2019-11-02T10:21:18Z</time>
      </trkpt>
      <trkpt lat="38.536042403429747" lon="-2.413111114874482">
        <ele>1352.5999755859375</ele>
        <time>2019-11-02T10:21:22Z</time>
      </trkpt>
      <trkpt lat="38.536053970456123" lon="-2.413143301382661">
        <ele>1352.800048828125</ele>
        <time>2019-11-02T10:21:24Z</time>
      </trkpt>
      <trkpt lat="38.536079116165638" lon="-2.413179595023394">
        <ele>1353</ele>
        <time>2019-11-02T10:21:27Z</time>
      </trkpt>
      <trkpt lat="38.536097137257457" lon="-2.413199795410037">
        <ele>1353.5999755859375</ele>
        <time>2019-11-02T10:21:29Z</time>
      </trkpt>
      <trkpt lat="38.536104848608375" lon="-2.413207925856113">
        <ele>1354</ele>
        <time>2019-11-02T10:21:30Z</time>
      </trkpt>
      <trkpt lat="38.536113146692514" lon="-2.413216810673475">
        <ele>1354</ele>
        <time>2019-11-02T10:21:31Z</time>
      </trkpt>
      <trkpt lat="38.536153631284833" lon="-2.413255115970969">
        <ele>1355</ele>
        <time>2019-11-02T10:21:36Z</time>
      </trkpt>
      <trkpt lat="38.536160672083497" lon="-2.413261234760284">
        <ele>1355.199951171875</ele>
        <time>2019-11-02T10:21:37Z</time>
      </trkpt>
      <trkpt lat="38.536196714267135" lon="-2.413313621655107">
        <ele>1355.5999755859375</ele>
        <time>2019-11-02T10:21:42Z</time>
      </trkpt>
      <trkpt lat="38.536215741187334" lon="-2.413352932780981">
        <ele>1356</ele>
        <time>2019-11-02T10:21:45Z</time>
      </trkpt>
      <trkpt lat="38.536247592419386" lon="-2.413424178957939">
        <ele>1356.5999755859375</ele>
        <time>2019-11-02T10:21:50Z</time>
      </trkpt>
      <trkpt lat="38.536267038434744" lon="-2.41347941569984">
        <ele>1357</ele>
        <time>2019-11-02T10:21:54Z</time>
      </trkpt>
      <trkpt lat="38.536278270184994" lon="-2.413519565016031">
        <ele>1357.4000244140625</ele>
        <time>2019-11-02T10:21:57Z</time>
      </trkpt>
      <trkpt lat="38.536317329853773" lon="-2.41360254585743">
        <ele>1358.199951171875</ele>
        <time>2019-11-02T10:22:03Z</time>
      </trkpt>
      <trkpt lat="38.536323616281152" lon="-2.41361528635025">
        <ele>1358.4000244140625</ele>
        <time>2019-11-02T10:22:04Z</time>
      </trkpt>
      <trkpt lat="38.536344990134239" lon="-2.413650825619698">
        <ele>1359.199951171875</ele>
        <time>2019-11-02T10:22:07Z</time>
      </trkpt>
      <trkpt lat="38.536365693435073" lon="-2.413684604689479">
        <ele>1359.5999755859375</ele>
        <time>2019-11-02T10:22:10Z</time>
      </trkpt>
      <trkpt lat="38.536413302645087" lon="-2.41377261467278">
        <ele>1360.199951171875</ele>
        <time>2019-11-02T10:22:17Z</time>
      </trkpt>
      <trkpt lat="38.5364212654531" lon="-2.413786109536886">
        <ele>1360.4000244140625</ele>
        <time>2019-11-02T10:22:18Z</time>
      </trkpt>
      <trkpt lat="38.536469796672463" lon="-2.413887195289135">
        <ele>1361.199951171875</ele>
        <time>2019-11-02T10:22:25Z</time>
      </trkpt>
      <trkpt lat="38.536474574357271" lon="-2.413903875276446">
        <ele>1361.199951171875</ele>
        <time>2019-11-02T10:22:26Z</time>
      </trkpt>
      <trkpt lat="38.536495277658105" lon="-2.414023401215672">
        <ele>1362</ele>
        <time>2019-11-02T10:22:33Z</time>
      </trkpt>
      <trkpt lat="38.536495193839073" lon="-2.414041254669428">
        <ele>1362.199951171875</ele>
        <time>2019-11-02T10:22:34Z</time>
      </trkpt>
      <trkpt lat="38.536486141383648" lon="-2.414129180833697">
        <ele>1362.800048828125</ele>
        <time>2019-11-02T10:22:40Z</time>
      </trkpt>
      <trkpt lat="38.536479771137238" lon="-2.414160026237369">
        <ele>1363.199951171875</ele>
        <time>2019-11-02T10:22:42Z</time>
      </trkpt>
      <trkpt lat="38.536462169140577" lon="-2.414229260757565">
        <ele>1364</ele>
        <time>2019-11-02T10:22:47Z</time>
      </trkpt>
      <trkpt lat="38.536450266838074" lon="-2.414274606853724">
        <ele>1364.4000244140625</ele>
        <time>2019-11-02T10:22:50Z</time>
      </trkpt>
      <trkpt lat="38.536428725346923" lon="-2.414358174428344">
        <ele>1364.5999755859375</ele>
        <time>2019-11-02T10:22:55Z</time>
      </trkpt>
      <trkpt lat="38.536419253796339" lon="-2.414406789466739">
        <ele>1365.199951171875</ele>
        <time>2019-11-02T10:22:59Z</time>
      </trkpt>
      <trkpt lat="38.536413973197341" lon="-2.414421122521162">
        <ele>1365.4000244140625</ele>
        <time>2019-11-02T10:23:00Z</time>
      </trkpt>
      <trkpt lat="38.536411290988326" lon="-2.414430594071746">
        <ele>1365.4000244140625</ele>
        <time>2019-11-02T10:23:01Z</time>
      </trkpt>
      <trkpt lat="38.536391844972968" lon="-2.414512233808637">
        <ele>1366.199951171875</ele>
        <time>2019-11-02T10:23:07Z</time>
      </trkpt>
      <trkpt lat="38.536389581859112" lon="-2.414576187729836">
        <ele>1366.5999755859375</ele>
        <time>2019-11-02T10:23:10Z</time>
      </trkpt>
      <trkpt lat="38.536373069509864" lon="-2.414631089195609">
        <ele>1367</ele>
        <time>2019-11-02T10:23:15Z</time>
      </trkpt>
      <trkpt lat="38.536363765597343" lon="-2.414734773337841">
        <ele>1368</ele>
        <time>2019-11-02T10:23:23Z</time>
      </trkpt>
      <trkpt lat="38.536343229934573" lon="-2.414825046434999">
        <ele>1369</ele>
        <time>2019-11-02T10:23:29Z</time>
      </trkpt>
      <trkpt lat="38.536328310146928" lon="-2.41490283049643">
        <ele>1369.5999755859375</ele>
        <time>2019-11-02T10:23:34Z</time>
      </trkpt>
      <trkpt lat="38.536327639594674" lon="-2.414923198521137">
        <ele>1370</ele>
        <time>2019-11-02T10:23:36Z</time>
      </trkpt>
      <trkpt lat="38.536314899101853" lon="-2.414995953440666">
        <ele>1371.199951171875</ele>
        <time>2019-11-02T10:23:42Z</time>
      </trkpt>
      <trkpt lat="38.5362952016294" lon="-2.415036605671048">
        <ele>1371.4000244140625</ele>
        <time>2019-11-02T10:23:44Z</time>
      </trkpt>
      <trkpt lat="38.536263769492507" lon="-2.415208602324128">
        <ele>1372</ele>
        <time>2019-11-02T10:23:51Z</time>
      </trkpt>
      <trkpt lat="38.536260416731238" lon="-2.415233664214611">
        <ele>1372.199951171875</ele>
        <time>2019-11-02T10:23:52Z</time>
      </trkpt>
      <trkpt lat="38.53624532930553" lon="-2.415356626734138">
        <ele>1373</ele>
        <time>2019-11-02T10:23:58Z</time>
      </trkpt>
      <trkpt lat="38.536240803077817" lon="-2.415395518764853">
        <ele>1373.199951171875</ele>
        <time>2019-11-02T10:24:00Z</time>
      </trkpt>
      <trkpt lat="38.536233929917216" lon="-2.41548671387136">
        <ele>1373.5999755859375</ele>
        <time>2019-11-02T10:24:05Z</time>
      </trkpt>
      <trkpt lat="38.536235354840755" lon="-2.415524935349822">
        <ele>1374</ele>
        <time>2019-11-02T10:24:07Z</time>
      </trkpt>
      <trkpt lat="38.536231918260455" lon="-2.415558714419603">
        <ele>1374.4000244140625</ele>
        <time>2019-11-02T10:24:09Z</time>
      </trkpt>
      <trkpt lat="38.536226050928235" lon="-2.415609927847981">
        <ele>1375</ele>
        <time>2019-11-02T10:24:12Z</time>
      </trkpt>
      <trkpt lat="38.536221608519554" lon="-2.415639515966177">
        <ele>1375.4000244140625</ele>
        <time>2019-11-02T10:24:14Z</time>
      </trkpt>
      <trkpt lat="38.536201491951942" lon="-2.41577161476016">
        <ele>1376</ele>
        <time>2019-11-02T10:24:22Z</time>
      </trkpt>
      <trkpt lat="38.536200486123562" lon="-2.415802460163832">
        <ele>1376.199951171875</ele>
        <time>2019-11-02T10:24:24Z</time>
      </trkpt>
      <trkpt lat="38.536190679296851" lon="-2.41589767858386">
        <ele>1377</ele>
        <time>2019-11-02T10:24:30Z</time>
      </trkpt>
      <trkpt lat="38.536189422011375" lon="-2.415916202589869">
        <ele>1377.199951171875</ele>
        <time>2019-11-02T10:24:31Z</time>
      </trkpt>
      <trkpt lat="38.536172239109874" lon="-2.416055928915739">
        <ele>1378.199951171875</ele>
        <time>2019-11-02T10:24:39Z</time>
      </trkpt>
      <trkpt lat="38.53616276755929" lon="-2.416138993576169">
        <ele>1379.199951171875</ele>
        <time>2019-11-02T10:24:44Z</time>
      </trkpt>
      <trkpt lat="38.536158241331577" lon="-2.416169922798872">
        <ele>1379.800048828125</ele>
        <time>2019-11-02T10:24:46Z</time>
      </trkpt>
      <trkpt lat="38.536151116713881" lon="-2.416234211996198">
        <ele>1380.199951171875</ele>
        <time>2019-11-02T10:24:50Z</time>
      </trkpt>
      <trkpt lat="38.536141058430076" lon="-2.416319539770484">
        <ele>1380.800048828125</ele>
        <time>2019-11-02T10:24:55Z</time>
      </trkpt>
      <trkpt lat="38.536136029288173" lon="-2.41637259721756">
        <ele>1381.199951171875</ele>
        <time>2019-11-02T10:24:58Z</time>
      </trkpt>
      <trkpt lat="38.536125216633081" lon="-2.416457757353783">
        <ele>1382</ele>
        <time>2019-11-02T10:25:03Z</time>
      </trkpt>
      <trkpt lat="38.5361139010638" lon="-2.416606368497014">
        <ele>1383</ele>
        <time>2019-11-02T10:25:11Z</time>
      </trkpt>
      <trkpt lat="38.536113314330578" lon="-2.416626233607531">
        <ele>1383.199951171875</ele>
        <time>2019-11-02T10:25:12Z</time>
      </trkpt>
      <trkpt lat="38.536161342635751" lon="-2.416770653799176">
        <ele>1383.5999755859375</ele>
        <time>2019-11-02T10:25:20Z</time>
      </trkpt>
      <trkpt lat="38.536214651539922" lon="-2.416807031258941">
        <ele>1384</ele>
        <time>2019-11-02T10:25:24Z</time>
      </trkpt>
      <trkpt lat="38.536243652924895" lon="-2.416809964925051">
        <ele>1384.4000244140625</ele>
        <time>2019-11-02T10:25:26Z</time>
      </trkpt>
      <trkpt lat="38.536321856081486" lon="-2.416779287159443">
        <ele>1385</ele>
        <time>2019-11-02T10:25:31Z</time>
      </trkpt>
      <trkpt lat="38.536334009841084" lon="-2.416766295209527">
        <ele>1385.199951171875</ele>
        <time>2019-11-02T10:25:32Z</time>
      </trkpt>
      <trkpt lat="38.536388408392668" lon="-2.416694965213537">
        <ele>1386</ele>
        <time>2019-11-02T10:25:37Z</time>
      </trkpt>
      <trkpt lat="38.536407686769962" lon="-2.416663700714707">
        <ele>1386.199951171875</ele>
        <time>2019-11-02T10:25:39Z</time>
      </trkpt>
      <trkpt lat="38.536447668448091" lon="-2.416565213352442">
        <ele>1387</ele>
        <time>2019-11-02T10:25:44Z</time>
      </trkpt>
      <trkpt lat="38.536455547437072" lon="-2.416544342413545">
        <ele>1387.199951171875</ele>
        <time>2019-11-02T10:25:45Z</time>
      </trkpt>
      <trkpt lat="38.536501312628388" lon="-2.416406963020563">
        <ele>1387.5999755859375</ele>
        <time>2019-11-02T10:25:51Z</time>
      </trkpt>
      <trkpt lat="38.536550933495164" lon="-2.41616883315146">
        <ele>1387.800048828125</ele>
        <time>2019-11-02T10:26:00Z</time>
      </trkpt>
      <trkpt lat="38.536587059497833" lon="-2.415888542309403">
        <ele>1387.5999755859375</ele>
        <time>2019-11-02T10:26:11Z</time>
      </trkpt>
      <trkpt lat="38.536569457501173" lon="-2.415633229538798">
        <ele>1388.4000244140625</ele>
        <time>2019-11-02T10:26:21Z</time>
      </trkpt>
      <trkpt lat="38.53661522269249" lon="-2.415460227057338">
        <ele>1388.800048828125</ele>
        <time>2019-11-02T10:26:28Z</time>
      </trkpt>
      <trkpt lat="38.536665765568614" lon="-2.415369618684053">
        <ele>1389.800048828125</ele>
        <time>2019-11-02T10:26:32Z</time>
      </trkpt>
      <trkpt lat="38.536738269031048" lon="-2.415264006704092">
        <ele>1390.199951171875</ele>
        <time>2019-11-02T10:26:37Z</time>
      </trkpt>
      <trkpt lat="38.536846060305834" lon="-2.415092093870044">
        <ele>1390.5999755859375</ele>
        <time>2019-11-02T10:26:45Z</time>
      </trkpt>
      <trkpt lat="38.536857292056084" lon="-2.415070636197925">
        <ele>1390.800048828125</ele>
        <time>2019-11-02T10:26:46Z</time>
      </trkpt>
      <trkpt lat="38.536946475505829" lon="-2.414901070296764">
        <ele>1391.800048828125</ele>
        <time>2019-11-02T10:26:54Z</time>
      </trkpt>
      <trkpt lat="38.53703498840332" lon="-2.41480702534318">
        <ele>1393</ele>
        <time>2019-11-02T10:27:00Z</time>
      </trkpt>
      <trkpt lat="38.537054182961583" lon="-2.414797721430659">
        <ele>1393.199951171875</ele>
        <time>2019-11-02T10:27:01Z</time>
      </trkpt>
      <trkpt lat="38.537220479920506" lon="-2.414744328707457">
        <ele>1393.800048828125</ele>
        <time>2019-11-02T10:27:09Z</time>
      </trkpt>
      <trkpt lat="38.537343442440033" lon="-2.414682051166892">
        <ele>1394</ele>
        <time>2019-11-02T10:27:16Z</time>
      </trkpt>
      <trkpt lat="38.537357524037361" lon="-2.41467316634953">
        <ele>1394</ele>
        <time>2019-11-02T10:27:21Z</time>
      </trkpt>
      <trkpt lat="38.537359954789281" lon="-2.414677441120148">
        <ele>1394.5999755859375</ele>
        <time>2019-11-02T10:27:27Z</time>
      </trkpt>
      <trkpt lat="38.537378227338195" lon="-2.414675429463387">
        <ele>1394.800048828125</ele>
        <time>2019-11-02T10:27:31Z</time>
      </trkpt>
      <trkpt lat="38.53738677687943" lon="-2.414668472483754">
        <ele>1394.5999755859375</ele>
        <time>2019-11-02T10:27:39Z</time>
      </trkpt>
      <trkpt lat="38.537397421896458" lon="-2.414659671485424">
        <ele>1394.5999755859375</ele>
        <time>2019-11-02T10:27:40Z</time>
      </trkpt>
      <trkpt lat="38.537471015006304" lon="-2.414585407823324">
        <ele>1394.199951171875</ele>
        <time>2019-11-02T10:27:45Z</time>
      </trkpt>
      <trkpt lat="38.537486186251044" lon="-2.414562776684761">
        <ele>1394.199951171875</ele>
        <time>2019-11-02T10:27:46Z</time>
      </trkpt>
      <trkpt lat="38.537538908421993" lon="-2.414438473060727">
        <ele>1394.199951171875</ele>
        <time>2019-11-02T10:27:51Z</time>
      </trkpt>
      <trkpt lat="38.537507643923163" lon="-2.414263710379601">
        <ele>1394.4000244140625</ele>
        <time>2019-11-02T10:27:57Z</time>
      </trkpt>
      <trkpt lat="38.537436565384269" lon="-2.414123564958572">
        <ele>1395.199951171875</ele>
        <time>2019-11-02T10:28:04Z</time>
      </trkpt>
      <trkpt lat="38.537345118820667" lon="-2.414007391780615">
        <ele>1396.5999755859375</ele>
        <time>2019-11-02T10:28:11Z</time>
      </trkpt>
      <trkpt lat="38.537333132699132" lon="-2.413988951593637">
        <ele>1396.800048828125</ele>
        <time>2019-11-02T10:28:12Z</time>
      </trkpt>
      <trkpt lat="38.537280494347215" lon="-2.413906222209334">
        <ele>1397.5999755859375</ele>
        <time>2019-11-02T10:28:16Z</time>
      </trkpt>
      <trkpt lat="38.53723875246942" lon="-2.413830114528537">
        <ele>1397.800048828125</ele>
        <time>2019-11-02T10:28:19Z</time>
      </trkpt>
      <trkpt lat="38.537178318947554" lon="-2.413645377382636">
        <ele>1398.4000244140625</ele>
        <time>2019-11-02T10:28:26Z</time>
      </trkpt>
      <trkpt lat="38.537173625081778" lon="-2.413621237501502">
        <ele>1398.4000244140625</ele>
        <time>2019-11-02T10:28:27Z</time>
      </trkpt>
      <trkpt lat="38.537138588726521" lon="-2.413468435406685">
        <ele>1399.4000244140625</ele>
        <time>2019-11-02T10:28:33Z</time>
      </trkpt>
      <trkpt lat="38.53711704723537" lon="-2.413421664386988">
        <ele>1399.800048828125</ele>
        <time>2019-11-02T10:28:35Z</time>
      </trkpt>
      <trkpt lat="38.537088800221682" lon="-2.41337975487113">
        <ele>1400.4000244140625</ele>
        <time>2019-11-02T10:28:37Z</time>
      </trkpt>
      <trkpt lat="38.537043957039714" lon="-2.413289900869131">
        <ele>1401</ele>
        <time>2019-11-02T10:28:41Z</time>
      </trkpt>
      <trkpt lat="38.537022667005658" lon="-2.413241621106863">
        <ele>1401.5999755859375</ele>
        <time>2019-11-02T10:28:43Z</time>
      </trkpt>
      <trkpt lat="38.536983774974942" lon="-2.413117988035083">
        <ele>1401.800048828125</ele>
        <time>2019-11-02T10:28:48Z</time>
      </trkpt>
      <trkpt lat="38.536988636478782" lon="-2.412971723824739">
        <ele>1402.5999755859375</ele>
        <time>2019-11-02T10:28:54Z</time>
      </trkpt>
      <trkpt lat="38.536995090544224" lon="-2.412949930876493">
        <ele>1402.800048828125</ele>
        <time>2019-11-02T10:28:55Z</time>
      </trkpt>
      <trkpt lat="38.5370550211519" lon="-2.412832584232092">
        <ele>1403.5999755859375</ele>
        <time>2019-11-02T10:29:01Z</time>
      </trkpt>
      <trkpt lat="38.537096763029695" lon="-2.412780364975333">
        <ele>1404.199951171875</ele>
        <time>2019-11-02T10:29:04Z</time>
      </trkpt>
      <trkpt lat="38.537142109125853" lon="-2.412732588127255">
        <ele>1404.5999755859375</ele>
        <time>2019-11-02T10:29:07Z</time>
      </trkpt>
      <trkpt lat="38.537199776619673" lon="-2.412678608670831">
        <ele>1405.5999755859375</ele>
        <time>2019-11-02T10:29:11Z</time>
      </trkpt>
      <trkpt lat="38.537230957299471" lon="-2.412647679448128">
        <ele>1406</ele>
        <time>2019-11-02T10:29:13Z</time>
      </trkpt>
      <trkpt lat="38.537296168506145" lon="-2.412577020004392">
        <ele>1406.800048828125</ele>
        <time>2019-11-02T10:29:18Z</time>
      </trkpt>
      <trkpt lat="38.537312848493457" lon="-2.412538295611739">
        <ele>1406.800048828125</ele>
        <time>2019-11-02T10:29:20Z</time>
      </trkpt>
      <trkpt lat="38.537311088293791" lon="-2.412391025573015">
        <ele>1407.5999755859375</ele>
        <time>2019-11-02T10:29:26Z</time>
      </trkpt>
      <trkpt lat="38.53730178438127" lon="-2.412367723882198">
        <ele>1407.800048828125</ele>
        <time>2019-11-02T10:29:27Z</time>
      </trkpt>
      <trkpt lat="38.537221737205982" lon="-2.412222130224109">
        <ele>1408.5999755859375</ele>
        <time>2019-11-02T10:29:34Z</time>
      </trkpt>
      <trkpt lat="38.537208493798971" lon="-2.412200001999736">
        <ele>1408.5999755859375</ele>
        <time>2019-11-02T10:29:35Z</time>
      </trkpt>
      <trkpt lat="38.537139762192965" lon="-2.412001434713602">
        <ele>1409.800048828125</ele>
        <time>2019-11-02T10:29:43Z</time>
      </trkpt>
      <trkpt lat="38.537105647847056" lon="-2.411794317886233">
        <ele>1410.5999755859375</ele>
        <time>2019-11-02T10:29:51Z</time>
      </trkpt>
      <trkpt lat="38.537115873768926" lon="-2.411642773076892">
        <ele>1411.5999755859375</ele>
        <time>2019-11-02T10:29:57Z</time>
      </trkpt>
      <trkpt lat="38.537161303684115" lon="-2.411491479724646">
        <ele>1412.5999755859375</ele>
        <time>2019-11-02T10:30:04Z</time>
      </trkpt>
      <trkpt lat="38.537172451615334" lon="-2.411473961547017">
        <ele>1412.5999755859375</ele>
        <time>2019-11-02T10:30:05Z</time>
      </trkpt>
      <trkpt lat="38.537264401093125" lon="-2.411410175263882">
        <ele>1413.5999755859375</ele>
        <time>2019-11-02T10:30:11Z</time>
      </trkpt>
      <trkpt lat="38.537284098565578" lon="-2.411404475569725">
        <ele>1413.800048828125</ele>
        <time>2019-11-02T10:30:12Z</time>
      </trkpt>
      <trkpt lat="38.537390632554889" lon="-2.411420736461878">
        <ele>1414.4000244140625</ele>
        <time>2019-11-02T10:30:18Z</time>
      </trkpt>
      <trkpt lat="38.537441175431013" lon="-2.411415874958038">
        <ele>1414.5999755859375</ele>
        <time>2019-11-02T10:30:21Z</time>
      </trkpt>
      <trkpt lat="38.537495322525501" lon="-2.41140665486455">
        <ele>1415.199951171875</ele>
        <time>2019-11-02T10:30:24Z</time>
      </trkpt>
      <trkpt lat="38.537586266174912" lon="-2.411373881623149">
        <ele>1415.5999755859375</ele>
        <time>2019-11-02T10:30:29Z</time>
      </trkpt>
      <trkpt lat="38.537621721625328" lon="-2.411361895501614">
        <ele>1415.800048828125</ele>
        <time>2019-11-02T10:30:31Z</time>
      </trkpt>
      <trkpt lat="38.537741163745522" lon="-2.411305652931333">
        <ele>1416.800048828125</ele>
        <time>2019-11-02T10:30:38Z</time>
      </trkpt>
      <trkpt lat="38.537756334990263" lon="-2.411297606304288">
        <ele>1417</ele>
        <time>2019-11-02T10:30:39Z</time>
      </trkpt>
      <trkpt lat="38.537841327488422" lon="-2.411259887740016">
        <ele>1417.800048828125</ele>
        <time>2019-11-02T10:30:44Z</time>
      </trkpt>
      <trkpt lat="38.537889858707786" lon="-2.411244548857212">
        <ele>1418.199951171875</ele>
        <time>2019-11-02T10:30:47Z</time>
      </trkpt>
      <trkpt lat="38.53791986592114" lon="-2.411237927153707">
        <ele>1418.5999755859375</ele>
        <time>2019-11-02T10:30:49Z</time>
      </trkpt>
      <trkpt lat="38.537998991087079" lon="-2.411237088963389">
        <ele>1419.199951171875</ele>
        <time>2019-11-02T10:30:54Z</time>
      </trkpt>
      <trkpt lat="38.538056910037994" lon="-2.411245135590434">
        <ele>1419.5999755859375</ele>
        <time>2019-11-02T10:30:58Z</time>
      </trkpt>
      <trkpt lat="38.53812019340694" lon="-2.411280088126659">
        <ele>1420.5999755859375</ele>
        <time>2019-11-02T10:31:02Z</time>
      </trkpt>
      <trkpt lat="38.538135029375553" lon="-2.411286039277911">
        <ele>1420.800048828125</ele>
        <time>2019-11-02T10:31:03Z</time>
      </trkpt>
      <trkpt lat="38.538204096257687" lon="-2.411313196644187">
        <ele>1421.800048828125</ele>
        <time>2019-11-02T10:31:08Z</time>
      </trkpt>
      <trkpt lat="38.538218094035983" lon="-2.411323087289929">
        <ele>1422</ele>
        <time>2019-11-02T10:31:09Z</time>
      </trkpt>
      <trkpt lat="38.538315994665027" lon="-2.41140715777874">
        <ele>1422.4000244140625</ele>
        <time>2019-11-02T10:31:16Z</time>
      </trkpt>
      <trkpt lat="38.538453038781881" lon="-2.411533053964376">
        <ele>1422.5999755859375</ele>
        <time>2019-11-02T10:31:25Z</time>
      </trkpt>
      <trkpt lat="38.53857072070241" lon="-2.411620393395424">
        <ele>1423.199951171875</ele>
        <time>2019-11-02T10:31:32Z</time>
      </trkpt>
      <trkpt lat="38.538627801463008" lon="-2.411634223535657">
        <ele>1423.800048828125</ele>
        <time>2019-11-02T10:31:35Z</time>
      </trkpt>
      <trkpt lat="38.538706842809916" lon="-2.411640593782067">
        <ele>1424.199951171875</ele>
        <time>2019-11-02T10:31:39Z</time>
      </trkpt>
      <trkpt lat="38.538784962147474" lon="-2.411650232970715">
        <ele>1424.5999755859375</ele>
        <time>2019-11-02T10:31:43Z</time>
      </trkpt>
      <trkpt lat="38.53884338401258" lon="-2.411671355366707">
        <ele>1425</ele>
        <time>2019-11-02T10:31:46Z</time>
      </trkpt>
      <trkpt lat="38.538895351812243" lon="-2.411707481369376">
        <ele>1425.800048828125</ele>
        <time>2019-11-02T10:31:49Z</time>
      </trkpt>
      <trkpt lat="38.538962826132774" lon="-2.411772860214114">
        <ele>1426.199951171875</ele>
        <time>2019-11-02T10:31:53Z</time>
      </trkpt>
      <trkpt lat="38.539000460878015" lon="-2.411824408918619">
        <ele>1426.5999755859375</ele>
        <time>2019-11-02T10:31:56Z</time>
      </trkpt>
      <trkpt lat="38.539045890793204" lon="-2.411929937079549">
        <ele>1427.5999755859375</ele>
        <time>2019-11-02T10:32:01Z</time>
      </trkpt>
      <trkpt lat="38.539066594094038" lon="-2.412014007568359">
        <ele>1428.800048828125</ele>
        <time>2019-11-02T10:32:05Z</time>
      </trkpt>
      <trkpt lat="38.539074892178178" lon="-2.412073435261846">
        <ele>1428.800048828125</ele>
        <time>2019-11-02T10:32:08Z</time>
      </trkpt>
      <trkpt lat="38.539077490568161" lon="-2.41211811080575">
        <ele>1428.800048828125</ele>
        <time>2019-11-02T10:32:10Z</time>
      </trkpt>
      <trkpt lat="38.539068354293704" lon="-2.412191117182374">
        <ele>1428.800048828125</ele>
        <time>2019-11-02T10:32:13Z</time>
      </trkpt>
      <trkpt lat="38.539066929370165" lon="-2.412211652845144">
        <ele>1428.5999755859375</ele>
        <time>2019-11-02T10:32:14Z</time>
      </trkpt>
      <trkpt lat="38.539067851379514" lon="-2.412297651171684">
        <ele>1428.5999755859375</ele>
        <time>2019-11-02T10:32:18Z</time>
      </trkpt>
      <trkpt lat="38.539049662649632" lon="-2.412436455488205">
        <ele>1428.5999755859375</ele>
        <time>2019-11-02T10:32:24Z</time>
      </trkpt>
      <trkpt lat="38.539045136421919" lon="-2.412539720535278">
        <ele>1429</ele>
        <time>2019-11-02T10:32:29Z</time>
      </trkpt>
      <trkpt lat="38.539043795317411" lon="-2.412563022226095">
        <ele>1429.199951171875</ele>
        <time>2019-11-02T10:32:30Z</time>
      </trkpt>
      <trkpt lat="38.539042538031936" lon="-2.412589341402054">
        <ele>1429.4000244140625</ele>
        <time>2019-11-02T10:32:31Z</time>
      </trkpt>
      <trkpt lat="38.539023511111736" lon="-2.412742478772998">
        <ele>1430.4000244140625</ele>
        <time>2019-11-02T10:32:37Z</time>
      </trkpt>
      <trkpt lat="38.538999035954475" lon="-2.412867117673159">
        <ele>1431.5999755859375</ele>
        <time>2019-11-02T10:32:43Z</time>
      </trkpt>
      <trkpt lat="38.538994425907731" lon="-2.412892682477832">
        <ele>1431.800048828125</ele>
        <time>2019-11-02T10:32:44Z</time>
      </trkpt>
      <trkpt lat="38.538972800597548" lon="-2.412964515388012">
        <ele>1433</ele>
        <time>2019-11-02T10:32:47Z</time>
      </trkpt>
      <trkpt lat="38.538931896910071" lon="-2.413037940859795">
        <ele>1433.199951171875</ele>
        <time>2019-11-02T10:32:50Z</time>
      </trkpt>
      <trkpt lat="38.538890909403563" lon="-2.413108684122562">
        <ele>1433.800048828125</ele>
        <time>2019-11-02T10:32:53Z</time>
      </trkpt>
      <trkpt lat="38.538855370134115" lon="-2.413175068795681">
        <ele>1434.800048828125</ele>
        <time>2019-11-02T10:32:56Z</time>
      </trkpt>
      <trkpt lat="38.538846652954817" lon="-2.413197951391339">
        <ele>1435</ele>
        <time>2019-11-02T10:32:57Z</time>
      </trkpt>
      <trkpt lat="38.538823937997222" lon="-2.413341030478477">
        <ele>1436</ele>
        <time>2019-11-02T10:33:02Z</time>
      </trkpt>
      <trkpt lat="38.538807509467006" lon="-2.41348335519433">
        <ele>1435.800048828125</ele>
        <time>2019-11-02T10:33:07Z</time>
      </trkpt>
      <trkpt lat="38.538794349879026" lon="-2.413667757064104">
        <ele>1434.4000244140625</ele>
        <time>2019-11-02T10:33:13Z</time>
      </trkpt>
      <trkpt lat="38.538772221654654" lon="-2.41393924690783">
        <ele>1435.4000244140625</ele>
        <time>2019-11-02T10:33:22Z</time>
      </trkpt>
      <trkpt lat="38.538762498646975" lon="-2.413999093696475">
        <ele>1436</ele>
        <time>2019-11-02T10:33:24Z</time>
      </trkpt>
      <trkpt lat="38.538754535838962" lon="-2.414116859436035">
        <ele>1437.199951171875</ele>
        <time>2019-11-02T10:33:28Z</time>
      </trkpt>
      <trkpt lat="38.538755625486374" lon="-2.414143178611994">
        <ele>1437.4000244140625</ele>
        <time>2019-11-02T10:33:29Z</time>
      </trkpt>
      <trkpt lat="38.538765013217926" lon="-2.414279216900468">
        <ele>1438.4000244140625</ele>
        <time>2019-11-02T10:33:34Z</time>
      </trkpt>
      <trkpt lat="38.53878035210073" lon="-2.414361191913486">
        <ele>1438.800048828125</ele>
        <time>2019-11-02T10:33:37Z</time>
      </trkpt>
      <trkpt lat="38.538856543600559" lon="-2.414503768086433">
        <ele>1439</ele>
        <time>2019-11-02T10:33:43Z</time>
      </trkpt>
      <trkpt lat="38.538923431187868" lon="-2.414583060890436">
        <ele>1439.199951171875</ele>
        <time>2019-11-02T10:33:47Z</time>
      </trkpt>
      <trkpt lat="38.539001299068332" lon="-2.414654726162553">
        <ele>1439.800048828125</ele>
        <time>2019-11-02T10:33:51Z</time>
      </trkpt>
      <trkpt lat="38.539146725088358" lon="-2.41479579359293">
        <ele>1440.199951171875</ele>
        <time>2019-11-02T10:33:59Z</time>
      </trkpt>
      <trkpt lat="38.539178827777505" lon="-2.414837032556534">
        <ele>1440.199951171875</ele>
        <time>2019-11-02T10:34:01Z</time>
      </trkpt>
      <trkpt lat="38.539313273504376" lon="-2.414961671456695">
        <ele>1440.800048828125</ele>
        <time>2019-11-02T10:34:08Z</time>
      </trkpt>
      <trkpt lat="38.539375802502036" lon="-2.414990924298763">
        <ele>1441.199951171875</ele>
        <time>2019-11-02T10:34:11Z</time>
      </trkpt>
      <trkpt lat="38.539444366469979" lon="-2.415008274838328">
        <ele>1441.5999755859375</ele>
        <time>2019-11-02T10:34:14Z</time>
      </trkpt>
      <trkpt lat="38.539550984278321" lon="-2.415016824379563">
        <ele>1442</ele>
        <time>2019-11-02T10:34:19Z</time>
      </trkpt>
      <trkpt lat="38.539593564346433" lon="-2.415024787187576">
        <ele>1442.199951171875</ele>
        <time>2019-11-02T10:34:21Z</time>
      </trkpt>
      <trkpt lat="38.539635054767132" lon="-2.415018752217293">
        <ele>1442.199951171875</ele>
        <time>2019-11-02T10:34:23Z</time>
      </trkpt>
      <trkpt lat="38.539754413068295" lon="-2.414979189634323">
        <ele>1442.800048828125</ele>
        <time>2019-11-02T10:34:29Z</time>
      </trkpt>
      <trkpt lat="38.539866982027888" lon="-2.414920097216964">
        <ele>1443.199951171875</ele>
        <time>2019-11-02T10:34:34Z</time>
      </trkpt>
      <trkpt lat="38.539887266233563" lon="-2.414906350895762">
        <ele>1443</ele>
        <time>2019-11-02T10:34:35Z</time>
      </trkpt>
      <trkpt lat="38.540054820477962" lon="-2.414826219901443">
        <ele>1443.5999755859375</ele>
        <time>2019-11-02T10:34:43Z</time>
      </trkpt>
      <trkpt lat="38.540171664208174" lon="-2.414775677025318">
        <ele>1443.800048828125</ele>
        <time>2019-11-02T10:34:48Z</time>
      </trkpt>
      <trkpt lat="38.540214579552412" lon="-2.414758075028658">
        <ele>1444.199951171875</ele>
        <time>2019-11-02T10:34:50Z</time>
      </trkpt>
      <trkpt lat="38.540345337241888" lon="-2.414692109450698">
        <ele>1444.800048828125</ele>
        <time>2019-11-02T10:34:56Z</time>
      </trkpt>
      <trkpt lat="38.540370231494308" lon="-2.414685320109129">
        <ele>1445</ele>
        <time>2019-11-02T10:34:57Z</time>
      </trkpt>
      <trkpt lat="38.540485901758075" lon="-2.414627987891436">
        <ele>1445.800048828125</ele>
        <time>2019-11-02T10:35:02Z</time>
      </trkpt>
      <trkpt lat="38.540508868172765" lon="-2.414619270712137">
        <ele>1446</ele>
        <time>2019-11-02T10:35:03Z</time>
      </trkpt>
      <trkpt lat="38.540622610598803" lon="-2.414585575461388">
        <ele>1447</ele>
        <time>2019-11-02T10:35:08Z</time>
      </trkpt>
      <trkpt lat="38.540645241737366" lon="-2.414580211043358">
        <ele>1447.199951171875</ele>
        <time>2019-11-02T10:35:09Z</time>
      </trkpt>
      <trkpt lat="38.540779184550047" lon="-2.414575852453709">
        <ele>1448</ele>
        <time>2019-11-02T10:35:15Z</time>
      </trkpt>
      <trkpt lat="38.540819501504302" lon="-2.414580713957548">
        <ele>1448.4000244140625</ele>
        <time>2019-11-02T10:35:17Z</time>
      </trkpt>
      <trkpt lat="38.540921425446868" lon="-2.414584904909134">
        <ele>1449.199951171875</ele>
        <time>2019-11-02T10:35:22Z</time>
      </trkpt>
      <trkpt lat="38.540941458195448" lon="-2.414589012041688">
        <ele>1449.199951171875</ele>
        <time>2019-11-02T10:35:23Z</time>
      </trkpt>
      <trkpt lat="38.541072215884924" lon="-2.414624132215977">
        <ele>1450.199951171875</ele>
        <time>2019-11-02T10:35:30Z</time>
      </trkpt>
      <trkpt lat="38.541213199496269" lon="-2.414699150249362">
        <ele>1451</ele>
        <time>2019-11-02T10:35:38Z</time>
      </trkpt>
      <trkpt lat="38.541229041293263" lon="-2.414710214361548">
        <ele>1451.199951171875</ele>
        <time>2019-11-02T10:35:39Z</time>
      </trkpt>
      <trkpt lat="38.541339011862874" lon="-2.414810545742512">
        <ele>1452.4000244140625</ele>
        <time>2019-11-02T10:35:46Z</time>
      </trkpt>
      <trkpt lat="38.541457699611783" lon="-2.414939207956195">
        <ele>1453.199951171875</ele>
        <time>2019-11-02T10:35:54Z</time>
      </trkpt>
      <trkpt lat="38.541536489501595" lon="-2.415033001452684">
        <ele>1454.199951171875</ele>
        <time>2019-11-02T10:36:00Z</time>
      </trkpt>
      <trkpt lat="38.541574459522963" lon="-2.415084214881063">
        <ele>1454.5999755859375</ele>
        <time>2019-11-02T10:36:03Z</time>
      </trkpt>
      <trkpt lat="38.541659032925963" lon="-2.415211955085397">
        <ele>1455.4000244140625</ele>
        <time>2019-11-02T10:36:10Z</time>
      </trkpt>
      <trkpt lat="38.541669677942991" lon="-2.415229557082057">
        <ele>1455.5999755859375</ele>
        <time>2019-11-02T10:36:11Z</time>
      </trkpt>
      <trkpt lat="38.541736816987395" lon="-2.415347574278712">
        <ele>1456.5999755859375</ele>
        <time>2019-11-02T10:36:18Z</time>
      </trkpt>
      <trkpt lat="38.541744193062186" lon="-2.415366098284721">
        <ele>1456.5999755859375</ele>
        <time>2019-11-02T10:36:19Z</time>
      </trkpt>
      <trkpt lat="38.541782330721617" lon="-2.415509596467018">
        <ele>1457.4000244140625</ele>
        <time>2019-11-02T10:36:26Z</time>
      </trkpt>
      <trkpt lat="38.541784174740314" lon="-2.415529461577535">
        <ele>1457.4000244140625</ele>
        <time>2019-11-02T10:36:27Z</time>
      </trkpt>
      <trkpt lat="38.541804039850831" lon="-2.415657034143806">
        <ele>1457.4000244140625</ele>
        <time>2019-11-02T10:36:34Z</time>
      </trkpt>
      <trkpt lat="38.541825078427792" lon="-2.415775554254651">
        <ele>1458.199951171875</ele>
        <time>2019-11-02T10:36:40Z</time>
      </trkpt>
      <trkpt lat="38.541821809485555" lon="-2.415841771289706">
        <ele>1458.4000244140625</ele>
        <time>2019-11-02T10:36:43Z</time>
      </trkpt>
      <trkpt lat="38.541817618533969" lon="-2.415949562564492">
        <ele>1459.199951171875</ele>
        <time>2019-11-02T10:36:48Z</time>
      </trkpt>
      <trkpt lat="38.54182843118906" lon="-2.41599197499454">
        <ele>1459.800048828125</ele>
        <time>2019-11-02T10:36:50Z</time>
      </trkpt>
      <trkpt lat="38.541868161410093" lon="-2.416101945564151">
        <ele>1460.5999755859375</ele>
        <time>2019-11-02T10:36:55Z</time>
      </trkpt>
      <trkpt lat="38.54189389385283" lon="-2.41614393889904">
        <ele>1460.800048828125</ele>
        <time>2019-11-02T10:36:57Z</time>
      </trkpt>
      <trkpt lat="38.541986849159002" lon="-2.416222225874662">
        <ele>1461.4000244140625</ele>
        <time>2019-11-02T10:37:02Z</time>
      </trkpt>
      <trkpt lat="38.542081564664841" lon="-2.416220884770155">
        <ele>1461.800048828125</ele>
        <time>2019-11-02T10:37:07Z</time>
      </trkpt>
      <trkpt lat="38.542119283229113" lon="-2.416208144277334">
        <ele>1462</ele>
        <time>2019-11-02T10:37:09Z</time>
      </trkpt>
      <trkpt lat="38.54225498624146" lon="-2.416167575865984">
        <ele>1462.5999755859375</ele>
        <time>2019-11-02T10:37:15Z</time>
      </trkpt>
      <trkpt lat="38.542420864105225" lon="-2.416119212284684">
        <ele>1463.4000244140625</ele>
        <time>2019-11-02T10:37:23Z</time>
      </trkpt>
      <trkpt lat="38.542438633739948" lon="-2.416118709370494">
        <ele>1463.5999755859375</ele>
        <time>2019-11-02T10:37:24Z</time>
      </trkpt>
      <trkpt lat="38.542512143030763" lon="-2.416123822331429">
        <ele>1465</ele>
        <time>2019-11-02T10:37:28Z</time>
      </trkpt>
      <trkpt lat="38.542589005082846" lon="-2.416121223941445">
        <ele>1465.4000244140625</ele>
        <time>2019-11-02T10:37:32Z</time>
      </trkpt>
      <trkpt lat="38.542762594297528" lon="-2.416164642199874">
        <ele>1465.4000244140625</ele>
        <time>2019-11-02T10:37:41Z</time>
      </trkpt>
      <trkpt lat="38.542889161035419" lon="-2.416240582242608">
        <ele>1466.199951171875</ele>
        <time>2019-11-02T10:37:48Z</time>
      </trkpt>
      <trkpt lat="38.542947582900524" lon="-2.416276121512055">
        <ele>1466.5999755859375</ele>
        <time>2019-11-02T10:37:51Z</time>
      </trkpt>
      <trkpt lat="38.543016230687499" lon="-2.416321383789182">
        <ele>1467</ele>
        <time>2019-11-02T10:37:55Z</time>
      </trkpt>
      <trkpt lat="38.54311740025878" lon="-2.416416183114052">
        <ele>1468.199951171875</ele>
        <time>2019-11-02T10:38:01Z</time>
      </trkpt>
      <trkpt lat="38.543133828788996" lon="-2.416434036567807">
        <ele>1468.4000244140625</ele>
        <time>2019-11-02T10:38:02Z</time>
      </trkpt>
      <trkpt lat="38.54323273524642" lon="-2.416584156453609">
        <ele>1469</ele>
        <time>2019-11-02T10:38:10Z</time>
      </trkpt>
      <trkpt lat="38.543264418840408" lon="-2.416649954393506">
        <ele>1469.199951171875</ele>
        <time>2019-11-02T10:38:13Z</time>
      </trkpt>
      <trkpt lat="38.543312279507518" lon="-2.416771659627557">
        <ele>1470.199951171875</ele>
        <time>2019-11-02T10:38:18Z</time>
      </trkpt>
      <trkpt lat="38.543326696380973" lon="-2.416821112856269">
        <ele>1470.4000244140625</ele>
        <time>2019-11-02T10:38:20Z</time>
      </trkpt>
      <trkpt lat="38.543394757434726" lon="-2.416994785889983">
        <ele>1470.5999755859375</ele>
        <time>2019-11-02T10:38:27Z</time>
      </trkpt>
      <trkpt lat="38.543457956984639" lon="-2.417106851935387">
        <ele>1471.199951171875</ele>
        <time>2019-11-02T10:38:32Z</time>
      </trkpt>
      <trkpt lat="38.543509840965271" lon="-2.41717055439949">
        <ele>1471.4000244140625</ele>
        <time>2019-11-02T10:38:35Z</time>
      </trkpt>
      <trkpt lat="38.543581170961261" lon="-2.417237358167768">
        <ele>1472.5999755859375</ele>
        <time>2019-11-02T10:38:39Z</time>
      </trkpt>
      <trkpt lat="38.543733637779951" lon="-2.417306173592806">
        <ele>1473.4000244140625</ele>
        <time>2019-11-02T10:38:48Z</time>
      </trkpt>
      <trkpt lat="38.543769093230367" lon="-2.417308939620852">
        <ele>1473.5999755859375</ele>
        <time>2019-11-02T10:38:50Z</time>
      </trkpt>
      <trkpt lat="38.543864311650395" lon="-2.41728731431067">
        <ele>1474.199951171875</ele>
        <time>2019-11-02T10:38:55Z</time>
      </trkpt>
      <trkpt lat="38.543962966650724" lon="-2.417235178872943">
        <ele>1474.800048828125</ele>
        <time>2019-11-02T10:39:00Z</time>
      </trkpt>
      <trkpt lat="38.543999176472425" lon="-2.417208692058921">
        <ele>1475.199951171875</ele>
        <time>2019-11-02T10:39:02Z</time>
      </trkpt>
      <trkpt lat="38.544114008545876" lon="-2.417126130312681">
        <ele>1475.5999755859375</ele>
        <time>2019-11-02T10:39:08Z</time>
      </trkpt>
      <trkpt lat="38.544149380177259" lon="-2.417102409526706">
        <ele>1475.800048828125</ele>
        <time>2019-11-02T10:39:10Z</time>
      </trkpt>
      <trkpt lat="38.544291285797954" lon="-2.4170215241611">
        <ele>1476</ele>
        <time>2019-11-02T10:39:18Z</time>
      </trkpt>
      <trkpt lat="38.544392371550202" lon="-2.41696042008698">
        <ele>1476.5999755859375</ele>
        <time>2019-11-02T10:39:24Z</time>
      </trkpt>
      <trkpt lat="38.544408129528165" lon="-2.416950110346079">
        <ele>1476.800048828125</ele>
        <time>2019-11-02T10:39:25Z</time>
      </trkpt>
      <trkpt lat="38.544496893882751" lon="-2.416877271607518">
        <ele>1477.800048828125</ele>
        <time>2019-11-02T10:39:31Z</time>
      </trkpt>
      <trkpt lat="38.544528158381581" lon="-2.416854221373796">
        <ele>1478</ele>
        <time>2019-11-02T10:39:33Z</time>
      </trkpt>
      <trkpt lat="38.544589094817638" lon="-2.416799822822213">
        <ele>1479</ele>
        <time>2019-11-02T10:39:37Z</time>
      </trkpt>
      <trkpt lat="38.544638715684414" lon="-2.41675665602088">
        <ele>1479.199951171875</ele>
        <time>2019-11-02T10:39:40Z</time>
      </trkpt>
      <trkpt lat="38.544738627970219" lon="-2.416660599410534">
        <ele>1479.5999755859375</ele>
        <time>2019-11-02T10:39:46Z</time>
      </trkpt>
      <trkpt lat="38.544856728985906" lon="-2.416537972167134">
        <ele>1480</ele>
        <time>2019-11-02T10:39:53Z</time>
      </trkpt>
      <trkpt lat="38.544930825009942" lon="-2.416417021304369">
        <ele>1481</ele>
        <time>2019-11-02T10:39:59Z</time>
      </trkpt>
      <trkpt lat="38.544939458370209" lon="-2.41639606654644">
        <ele>1481</ele>
        <time>2019-11-02T10:40:00Z</time>
      </trkpt>
      <trkpt lat="38.5449727345258" lon="-2.416296992450953">
        <ele>1481.4000244140625</ele>
        <time>2019-11-02T10:40:04Z</time>
      </trkpt>
      <trkpt lat="38.545087231323123" lon="-2.41609750315547">
        <ele>1481.800048828125</ele>
        <time>2019-11-02T10:40:13Z</time>
      </trkpt>
      <trkpt lat="38.545129559934139" lon="-2.416038913652301">
        <ele>1482.199951171875</ele>
        <time>2019-11-02T10:40:16Z</time>
      </trkpt>
      <trkpt lat="38.545210193842649" lon="-2.415953250601888">
        <ele>1482.5999755859375</ele>
        <time>2019-11-02T10:40:21Z</time>
      </trkpt>
      <trkpt lat="38.545323265716434" lon="-2.415891056880355">
        <ele>1483</ele>
        <time>2019-11-02T10:40:27Z</time>
      </trkpt>
      <trkpt lat="38.54539442807436" lon="-2.415863815695047">
        <ele>1483.4000244140625</ele>
        <time>2019-11-02T10:40:31Z</time>
      </trkpt>
      <trkpt lat="38.545474726706743" lon="-2.415842525660992">
        <ele>1483.800048828125</ele>
        <time>2019-11-02T10:40:36Z</time>
      </trkpt>
      <trkpt lat="38.545592073351145" lon="-2.415808327496052">
        <ele>1484.199951171875</ele>
        <time>2019-11-02T10:40:43Z</time>
      </trkpt>
      <trkpt lat="38.545623756945133" lon="-2.415801370516419">
        <ele>1484.4000244140625</ele>
        <time>2019-11-02T10:40:45Z</time>
      </trkpt>
      <trkpt lat="38.545707743614912" lon="-2.41578184068203">
        <ele>1485.5999755859375</ele>
        <time>2019-11-02T10:40:50Z</time>
      </trkpt>
      <trkpt lat="38.545726183801889" lon="-2.415781673043966">
        <ele>1485.5999755859375</ele>
        <time>2019-11-02T10:40:51Z</time>
      </trkpt>
      <trkpt lat="38.545815031975508" lon="-2.415773123502731">
        <ele>1486.199951171875</ele>
        <time>2019-11-02T10:40:56Z</time>
      </trkpt>
      <trkpt lat="38.545849397778511" lon="-2.415797766298056">
        <ele>1486.4000244140625</ele>
        <time>2019-11-02T10:40:58Z</time>
      </trkpt>
      <trkpt lat="38.545871190726757" lon="-2.415864318609238">
        <ele>1486.5999755859375</ele>
        <time>2019-11-02T10:41:01Z</time>
      </trkpt>
      <trkpt lat="38.545872028917074" lon="-2.41594503633678">
        <ele>1486.800048828125</ele>
        <time>2019-11-02T10:41:04Z</time>
      </trkpt>
      <trkpt lat="38.545869765803218" lon="-2.415977390483022">
        <ele>1486.800048828125</ele>
        <time>2019-11-02T10:41:05Z</time>
      </trkpt>
      <trkpt lat="38.545864233747125" lon="-2.416011421009898">
        <ele>1487</ele>
        <time>2019-11-02T10:41:06Z</time>
      </trkpt>
      <trkpt lat="38.545794496312737" lon="-2.416258016601205">
        <ele>1486.5999755859375</ele>
        <time>2019-11-02T10:41:13Z</time>
      </trkpt>
      <trkpt lat="38.545739930123091" lon="-2.416449878364801">
        <ele>1485.800048828125</ele>
        <time>2019-11-02T10:41:18Z</time>
      </trkpt>
      <trkpt lat="38.545732051134109" lon="-2.416492374613881">
        <ele>1485.5999755859375</ele>
        <time>2019-11-02T10:41:19Z</time>
      </trkpt>
      <trkpt lat="38.545679915696383" lon="-2.416672417894006">
        <ele>1485.5999755859375</ele>
        <time>2019-11-02T10:41:23Z</time>
      </trkpt>
      <trkpt lat="38.545666839927435" lon="-2.416975507512689">
        <ele>1485.4000244140625</ele>
        <time>2019-11-02T10:41:29Z</time>
      </trkpt>
      <trkpt lat="38.545702295377851" lon="-2.417179103940725">
        <ele>1485.800048828125</ele>
        <time>2019-11-02T10:41:34Z</time>
      </trkpt>
      <trkpt lat="38.545772368088365" lon="-2.417335091158748">
        <ele>1485</ele>
        <time>2019-11-02T10:41:38Z</time>
      </trkpt>
      <trkpt lat="38.545814361423254" lon="-2.417358728125691">
        <ele>1484.800048828125</ele>
        <time>2019-11-02T10:41:39Z</time>
      </trkpt>
      <trkpt lat="38.545936653390527" lon="-2.417349172756076">
        <ele>1484.5999755859375</ele>
        <time>2019-11-02T10:41:42Z</time>
      </trkpt>
      <trkpt lat="38.546003792434931" lon="-2.417293936014175">
        <ele>1484.5999755859375</ele>
        <time>2019-11-02T10:41:44Z</time>
      </trkpt>
      <trkpt lat="38.546065734699368" lon="-2.417221684008837">
        <ele>1484.5999755859375</ele>
        <time>2019-11-02T10:41:46Z</time>
      </trkpt>
      <trkpt lat="38.546091131865978" lon="-2.417181031778455">
        <ele>1484.5999755859375</ele>
        <time>2019-11-02T10:41:47Z</time>
      </trkpt>
      <trkpt lat="38.546302020549774" lon="-2.416915325447917">
        <ele>1484.199951171875</ele>
        <time>2019-11-02T10:41:54Z</time>
      </trkpt>
      <trkpt lat="38.546485919505358" lon="-2.416857909411192">
        <ele>1484</ele>
        <time>2019-11-02T10:41:59Z</time>
      </trkpt>
      <trkpt lat="38.546602092683315" lon="-2.416872410103679">
        <ele>1484</ele>
        <time>2019-11-02T10:42:03Z</time>
      </trkpt>
      <trkpt lat="38.546783979982138" lon="-2.416855897754431">
        <ele>1484.199951171875</ele>
        <time>2019-11-02T10:42:09Z</time>
      </trkpt>
      <trkpt lat="38.546944241970778" lon="-2.416859250515699">
        <ele>1484.5999755859375</ele>
        <time>2019-11-02T10:42:14Z</time>
      </trkpt>
      <trkpt lat="38.547089248895645" lon="-2.416875595226884">
        <ele>1485.5999755859375</ele>
        <time>2019-11-02T10:42:20Z</time>
      </trkpt>
      <trkpt lat="38.547108275815845" lon="-2.416882300749421">
        <ele>1485.800048828125</ele>
        <time>2019-11-02T10:42:21Z</time>
      </trkpt>
      <trkpt lat="38.547200728207827" lon="-2.416937537491322">
        <ele>1486.5999755859375</ele>
        <time>2019-11-02T10:42:27Z</time>
      </trkpt>
      <trkpt lat="38.547229394316673" lon="-2.416952373459935">
        <ele>1487</ele>
        <time>2019-11-02T10:42:29Z</time>
      </trkpt>
      <trkpt lat="38.547243224456906" lon="-2.416960755363107">
        <ele>1487.4000244140625</ele>
        <time>2019-11-02T10:42:30Z</time>
      </trkpt>
      <trkpt lat="38.547272812575102" lon="-2.416981710121036">
        <ele>1487.5999755859375</ele>
        <time>2019-11-02T10:42:32Z</time>
      </trkpt>
      <trkpt lat="38.547300221398473" lon="-2.416998976841569">
        <ele>1487.800048828125</ele>
        <time>2019-11-02T10:42:34Z</time>
      </trkpt>
      <trkpt lat="38.547355625778437" lon="-2.417031833902001">
        <ele>1488.5999755859375</ele>
        <time>2019-11-02T10:42:38Z</time>
      </trkpt>
      <trkpt lat="38.547397367656231" lon="-2.417051866650581">
        <ele>1489.199951171875</ele>
        <time>2019-11-02T10:42:41Z</time>
      </trkpt>
      <trkpt lat="38.547429386526346" lon="-2.417069636285305">
        <ele>1489.5999755859375</ele>
        <time>2019-11-02T10:42:43Z</time>
      </trkpt>
      <trkpt lat="38.547503063455224" lon="-2.417122609913349">
        <ele>1490.800048828125</ele>
        <time>2019-11-02T10:42:47Z</time>
      </trkpt>
      <trkpt lat="38.547593001276255" lon="-2.417233251035213">
        <ele>1491.800048828125</ele>
        <time>2019-11-02T10:42:53Z</time>
      </trkpt>
      <trkpt lat="38.547606077045202" lon="-2.417255630716681">
        <ele>1492.199951171875</ele>
        <time>2019-11-02T10:42:54Z</time>
      </trkpt>
      <trkpt lat="38.547660056501627" lon="-2.417416479438543">
        <ele>1492.800048828125</ele>
        <time>2019-11-02T10:43:00Z</time>
      </trkpt>
      <trkpt lat="38.547739516943693" lon="-2.417619237676263">
        <ele>1493.800048828125</ele>
        <time>2019-11-02T10:43:08Z</time>
      </trkpt>
      <trkpt lat="38.547833813354373" lon="-2.417797772213817">
        <ele>1494.4000244140625</ele>
        <time>2019-11-02T10:43:16Z</time>
      </trkpt>
      <trkpt lat="38.54788645170629" lon="-2.417846387252212">
        <ele>1494.800048828125</ele>
        <time>2019-11-02T10:43:19Z</time>
      </trkpt>
      <trkpt lat="38.547970941290259" lon="-2.417908497154713">
        <ele>1495.4000244140625</ele>
        <time>2019-11-02T10:43:24Z</time>
      </trkpt>
      <trkpt lat="38.548041014000773" lon="-2.417919561266899">
        <ele>1495.800048828125</ele>
        <time>2019-11-02T10:43:28Z</time>
      </trkpt>
      <trkpt lat="38.548078564926982" lon="-2.417916962876916">
        <ele>1496</ele>
        <time>2019-11-02T10:43:30Z</time>
      </trkpt>
      <trkpt lat="38.548214351758361" lon="-2.41790640167892">
        <ele>1496.5999755859375</ele>
        <time>2019-11-02T10:43:37Z</time>
      </trkpt>
      <trkpt lat="38.548251986503601" lon="-2.417902294546366">
        <ele>1496.800048828125</ele>
        <time>2019-11-02T10:43:39Z</time>
      </trkpt>
      <trkpt lat="38.548326082527637" lon="-2.417896930128336">
        <ele>1497.199951171875</ele>
        <time>2019-11-02T10:43:43Z</time>
      </trkpt>
      <trkpt lat="38.548405962064862" lon="-2.417902546003461">
        <ele>1498</ele>
        <time>2019-11-02T10:43:48Z</time>
      </trkpt>
      <trkpt lat="38.548474358394742" lon="-2.417922914028168">
        <ele>1499</ele>
        <time>2019-11-02T10:43:52Z</time>
      </trkpt>
      <trkpt lat="38.548490535467863" lon="-2.41792744025588">
        <ele>1499.4000244140625</ele>
        <time>2019-11-02T10:43:53Z</time>
      </trkpt>
      <trkpt lat="38.548561949282885" lon="-2.417968427762389">
        <ele>1500.4000244140625</ele>
        <time>2019-11-02T10:43:58Z</time>
      </trkpt>
      <trkpt lat="38.548659095540643" lon="-2.418083678930998">
        <ele>1501.4000244140625</ele>
        <time>2019-11-02T10:44:06Z</time>
      </trkpt>
      <trkpt lat="38.548671416938305" lon="-2.418100191280246">
        <ele>1501.5999755859375</ele>
        <time>2019-11-02T10:44:07Z</time>
      </trkpt>
      <trkpt lat="38.548740735277534" lon="-2.418190883472562">
        <ele>1502.5999755859375</ele>
        <time>2019-11-02T10:44:13Z</time>
      </trkpt>
      <trkpt lat="38.548777364194393" lon="-2.418238492682576">
        <ele>1503.199951171875</ele>
        <time>2019-11-02T10:44:16Z</time>
      </trkpt>
      <trkpt lat="38.548885909840465" lon="-2.418343015015125">
        <ele>1503.5999755859375</ele>
        <time>2019-11-02T10:44:23Z</time>
      </trkpt>
      <trkpt lat="38.548899404704571" lon="-2.418359611183405">
        <ele>1503.800048828125</ele>
        <time>2019-11-02T10:44:24Z</time>
      </trkpt>
      <trkpt lat="38.548930836841464" lon="-2.418491877615452">
        <ele>1504.199951171875</ele>
        <time>2019-11-02T10:44:30Z</time>
      </trkpt>
      <trkpt lat="38.548903679475188" lon="-2.418637135997415">
        <ele>1504.5999755859375</ele>
        <time>2019-11-02T10:44:36Z</time>
      </trkpt>
      <trkpt lat="38.548897309228778" lon="-2.418659012764692">
        <ele>1504.800048828125</ele>
        <time>2019-11-02T10:44:37Z</time>
      </trkpt>
      <trkpt lat="38.548876605927944" lon="-2.418728163465858">
        <ele>1505.5999755859375</ele>
        <time>2019-11-02T10:44:40Z</time>
      </trkpt>
      <trkpt lat="38.548853304237127" lon="-2.418866967782378">
        <ele>1506.800048828125</ele>
        <time>2019-11-02T10:44:46Z</time>
      </trkpt>
      <trkpt lat="38.54884316213429" lon="-2.418991019949317">
        <ele>1508</ele>
        <time>2019-11-02T10:44:52Z</time>
      </trkpt>
      <trkpt lat="38.548841737210751" lon="-2.419017255306244">
        <ele>1508.199951171875</ele>
        <time>2019-11-02T10:44:53Z</time>
      </trkpt>
      <trkpt lat="38.54886663146317" lon="-2.419187743216753">
        <ele>1509</ele>
        <time>2019-11-02T10:45:00Z</time>
      </trkpt>
      <trkpt lat="38.548910636454821" lon="-2.41932101547718">
        <ele>1509.5999755859375</ele>
        <time>2019-11-02T10:45:06Z</time>
      </trkpt>
      <trkpt lat="38.54891549795866" lon="-2.419348089024425">
        <ele>1509.800048828125</ele>
        <time>2019-11-02T10:45:07Z</time>
      </trkpt>
      <trkpt lat="38.548926394432783" lon="-2.419396117329597">
        <ele>1510.199951171875</ele>
        <time>2019-11-02T10:45:09Z</time>
      </trkpt>
      <trkpt lat="38.548948941752315" lon="-2.419495023787022">
        <ele>1511</ele>
        <time>2019-11-02T10:45:13Z</time>
      </trkpt>
      <trkpt lat="38.548961011692882" lon="-2.419543387368321">
        <ele>1511.199951171875</ele>
        <time>2019-11-02T10:45:15Z</time>
      </trkpt>
      <trkpt lat="38.548985738307238" lon="-2.419660901650786">
        <ele>1511.800048828125</ele>
        <time>2019-11-02T10:45:20Z</time>
      </trkpt>
      <trkpt lat="38.549000825732946" lon="-2.419703900814056">
        <ele>1512.199951171875</ele>
        <time>2019-11-02T10:45:22Z</time>
      </trkpt>
      <trkpt lat="38.549034520983696" lon="-2.419791324064136">
        <ele>1513.199951171875</ele>
        <time>2019-11-02T10:45:26Z</time>
      </trkpt>
      <trkpt lat="38.549069724977016" lon="-2.419881680980325">
        <ele>1513.800048828125</ele>
        <time>2019-11-02T10:45:30Z</time>
      </trkpt>
      <trkpt lat="38.549123452976346" lon="-2.42001436650753">
        <ele>1514.199951171875</ele>
        <time>2019-11-02T10:45:36Z</time>
      </trkpt>
      <trkpt lat="38.549145581200719" lon="-2.420078990980983">
        <ele>1514.5999755859375</ele>
        <time>2019-11-02T10:45:39Z</time>
      </trkpt>
      <trkpt lat="38.549207439646125" lon="-2.420212933793664">
        <ele>1515.4000244140625</ele>
        <time>2019-11-02T10:45:46Z</time>
      </trkpt>
      <trkpt lat="38.549225209280849" lon="-2.420246293768287">
        <ele>1515.5999755859375</ele>
        <time>2019-11-02T10:45:48Z</time>
      </trkpt>
      <trkpt lat="38.549251947551966" lon="-2.420305386185646">
        <ele>1516.199951171875</ele>
        <time>2019-11-02T10:45:51Z</time>
      </trkpt>
      <trkpt lat="38.549292935058475" lon="-2.420408986508846">
        <ele>1517</ele>
        <time>2019-11-02T10:45:56Z</time>
      </trkpt>
      <trkpt lat="38.549316572025418" lon="-2.420473359525204">
        <ele>1517.5999755859375</ele>
        <time>2019-11-02T10:45:59Z</time>
      </trkpt>
      <trkpt lat="38.549335263669491" lon="-2.420534798875451">
        <ele>1517.800048828125</ele>
        <time>2019-11-02T10:46:02Z</time>
      </trkpt>
      <trkpt lat="38.549356553703547" lon="-2.420664299279451">
        <ele>1518.5999755859375</ele>
        <time>2019-11-02T10:46:08Z</time>
      </trkpt>
      <trkpt lat="38.549364935606718" lon="-2.420683493837714">
        <ele>1518.5999755859375</ele>
        <time>2019-11-02T10:46:09Z</time>
      </trkpt>
      <trkpt lat="38.549406845122576" lon="-2.420806204900146">
        <ele>1519.5999755859375</ele>
        <time>2019-11-02T10:46:15Z</time>
      </trkpt>
      <trkpt lat="38.549438863992691" lon="-2.420910475775599">
        <ele>1520.199951171875</ele>
        <time>2019-11-02T10:46:20Z</time>
      </trkpt>
      <trkpt lat="38.549454286694527" lon="-2.420949535444379">
        <ele>1520.5999755859375</ele>
        <time>2019-11-02T10:46:22Z</time>
      </trkpt>
      <trkpt lat="38.549514971673489" lon="-2.421110300347209">
        <ele>1520.5999755859375</ele>
        <time>2019-11-02T10:46:30Z</time>
      </trkpt>
      <trkpt lat="38.549601305276155" lon="-2.421324793249369">
        <ele>1521.4000244140625</ele>
        <time>2019-11-02T10:46:41Z</time>
      </trkpt>
      <trkpt lat="38.549609184265137" lon="-2.421344742178917">
        <ele>1521.5999755859375</ele>
        <time>2019-11-02T10:46:42Z</time>
      </trkpt>
      <trkpt lat="38.549635084345937" lon="-2.421406600624323">
        <ele>1522.800048828125</ele>
        <time>2019-11-02T10:46:45Z</time>
      </trkpt>
      <trkpt lat="38.54967288672924" lon="-2.42147826589644">
        <ele>1524.199951171875</ele>
        <time>2019-11-02T10:46:49Z</time>
      </trkpt>
      <trkpt lat="38.549711275845766" lon="-2.421550769358873">
        <ele>1525.199951171875</ele>
        <time>2019-11-02T10:46:53Z</time>
      </trkpt>
      <trkpt lat="38.549752682447433" lon="-2.421653531491756">
        <ele>1526.199951171875</ele>
        <time>2019-11-02T10:46:59Z</time>
      </trkpt>
      <trkpt lat="38.549771877005696" lon="-2.421723520383239">
        <ele>1526.5999755859375</ele>
        <time>2019-11-02T10:47:03Z</time>
      </trkpt>
      <trkpt lat="38.549778163433075" lon="-2.42176216095686">
        <ele>1527.199951171875</ele>
        <time>2019-11-02T10:47:05Z</time>
      </trkpt>
      <trkpt lat="38.549778666347265" lon="-2.421887051314116">
        <ele>1528.199951171875</ele>
        <time>2019-11-02T10:47:11Z</time>
      </trkpt>
      <trkpt lat="38.549779336899519" lon="-2.421907000243664">
        <ele>1528.4000244140625</ele>
        <time>2019-11-02T10:47:12Z</time>
      </trkpt>
      <trkpt lat="38.549767015501857" lon="-2.421985371038318">
        <ele>1529.5999755859375</ele>
        <time>2019-11-02T10:47:16Z</time>
      </trkpt>
      <trkpt lat="38.54975595138967" lon="-2.422057874500751">
        <ele>1530.199951171875</ele>
        <time>2019-11-02T10:47:20Z</time>
      </trkpt>
      <trkpt lat="38.549755532294512" lon="-2.422145716845989">
        <ele>1530.4000244140625</ele>
        <time>2019-11-02T10:47:25Z</time>
      </trkpt>
      <trkpt lat="38.549761651083827" lon="-2.422235570847988">
        <ele>1531.4000244140625</ele>
        <time>2019-11-02T10:47:30Z</time>
      </trkpt>
      <trkpt lat="38.549763159826398" lon="-2.422330370172858">
        <ele>1531.5999755859375</ele>
        <time>2019-11-02T10:47:35Z</time>
      </trkpt>
      <trkpt lat="38.54976324364543" lon="-2.422412764281034">
        <ele>1532.5999755859375</ele>
        <time>2019-11-02T10:47:39Z</time>
      </trkpt>
      <trkpt lat="38.549769865348935" lon="-2.422469509765506">
        <ele>1533.800048828125</ele>
        <time>2019-11-02T10:47:42Z</time>
      </trkpt>
      <trkpt lat="38.549776906147599" lon="-2.42257478646934">
        <ele>1534.5999755859375</ele>
        <time>2019-11-02T10:47:47Z</time>
      </trkpt>
      <trkpt lat="38.54980431497097" lon="-2.422733623534441">
        <ele>1534</ele>
        <time>2019-11-02T10:47:55Z</time>
      </trkpt>
      <trkpt lat="38.549847565591335" lon="-2.422904195263982">
        <ele>1534.800048828125</ele>
        <time>2019-11-02T10:48:04Z</time>
      </trkpt>
      <trkpt lat="38.549856618046761" lon="-2.422943003475666">
        <ele>1535.5999755859375</ele>
        <time>2019-11-02T10:48:06Z</time>
      </trkpt>
      <trkpt lat="38.549858713522553" lon="-2.42296471260488">
        <ele>1536</ele>
        <time>2019-11-02T10:48:07Z</time>
      </trkpt>
      <trkpt lat="38.549865670502186" lon="-2.423068648204207">
        <ele>1537</ele>
        <time>2019-11-02T10:48:12Z</time>
      </trkpt>
      <trkpt lat="38.549866424873471" lon="-2.423089519143105">
        <ele>1537.199951171875</ele>
        <time>2019-11-02T10:48:13Z</time>
      </trkpt>
      <trkpt lat="38.549866089597344" lon="-2.423177529126406">
        <ele>1538</ele>
        <time>2019-11-02T10:48:17Z</time>
      </trkpt>
      <trkpt lat="38.549865838140249" lon="-2.423302754759789">
        <ele>1538.5999755859375</ele>
        <time>2019-11-02T10:48:23Z</time>
      </trkpt>
      <trkpt lat="38.549846559762955" lon="-2.423432925716043">
        <ele>1539</ele>
        <time>2019-11-02T10:48:29Z</time>
      </trkpt>
      <trkpt lat="38.549845553934574" lon="-2.423455305397511">
        <ele>1539</ele>
        <time>2019-11-02T10:48:30Z</time>
      </trkpt>
      <trkpt lat="38.549842201173306" lon="-2.423583883792162">
        <ele>1539.199951171875</ele>
        <time>2019-11-02T10:48:36Z</time>
      </trkpt>
      <trkpt lat="38.549841279163957" lon="-2.423606598749757">
        <ele>1539.199951171875</ele>
        <time>2019-11-02T10:48:37Z</time>
      </trkpt>
      <trkpt lat="38.549836250022054" lon="-2.423716569319367">
        <ele>1539.5999755859375</ele>
        <time>2019-11-02T10:48:42Z</time>
      </trkpt>
      <trkpt lat="38.549837255850434" lon="-2.423755377531052">
        <ele>1540</ele>
        <time>2019-11-02T10:48:44Z</time>
      </trkpt>
      <trkpt lat="38.549841027706861" lon="-2.423837771639228">
        <ele>1541</ele>
        <time>2019-11-02T10:48:48Z</time>
      </trkpt>
      <trkpt lat="38.549849577248096" lon="-2.423855541273952">
        <ele>1541.199951171875</ele>
        <time>2019-11-02T10:48:49Z</time>
      </trkpt>
      <trkpt lat="38.549857372418046" lon="-2.423931900411844">
        <ele>1542</ele>
        <time>2019-11-02T10:48:53Z</time>
      </trkpt>
      <trkpt lat="38.549858462065458" lon="-2.423953274264932">
        <ele>1542.199951171875</ele>
        <time>2019-11-02T10:48:54Z</time>
      </trkpt>
      <trkpt lat="38.549863239750266" lon="-2.424076991155744">
        <ele>1542.800048828125</ele>
        <time>2019-11-02T10:49:00Z</time>
      </trkpt>
      <trkpt lat="38.549867179244757" lon="-2.424141112715006">
        <ele>1543.4000244140625</ele>
        <time>2019-11-02T10:49:03Z</time>
      </trkpt>
      <trkpt lat="38.549880674108863" lon="-2.424256699159741">
        <ele>1544.4000244140625</ele>
        <time>2019-11-02T10:49:08Z</time>
      </trkpt>
      <trkpt lat="38.549896599724889" lon="-2.424298021942377">
        <ele>1544.5999755859375</ele>
        <time>2019-11-02T10:49:10Z</time>
      </trkpt>
      <trkpt lat="38.549923505634069" lon="-2.424362059682608">
        <ele>1545</ele>
        <time>2019-11-02T10:49:13Z</time>
      </trkpt>
      <trkpt lat="38.549956446513534" lon="-2.424421655014157">
        <ele>1545.5999755859375</ele>
        <time>2019-11-02T10:49:16Z</time>
      </trkpt>
      <trkpt lat="38.549994751811028" lon="-2.424495164304972">
        <ele>1546.800048828125</ele>
        <time>2019-11-02T10:49:20Z</time>
      </trkpt>
      <trkpt lat="38.550010425969958" lon="-2.42452877573669">
        <ele>1547.5999755859375</ele>
        <time>2019-11-02T10:49:22Z</time>
      </trkpt>
      <trkpt lat="38.550018472597003" lon="-2.424542773514986">
        <ele>1547.800048828125</ele>
        <time>2019-11-02T10:49:23Z</time>
      </trkpt>
      <trkpt lat="38.550026519224048" lon="-2.424562890082598">
        <ele>1548.4000244140625</ele>
        <time>2019-11-02T10:49:27Z</time>
      </trkpt>
      <trkpt lat="38.550030877813697" lon="-2.424571523442864">
        <ele>1549</ele>
        <time>2019-11-02T10:49:37Z</time>
      </trkpt>
      <trkpt lat="38.550031632184982" lon="-2.424572026357055">
        <ele>1549</ele>
        <time>2019-11-02T10:49:42Z</time>
      </trkpt>
      <trkpt lat="38.550033392384648" lon="-2.424567248672247">
        <ele>1549.199951171875</ele>
        <time>2019-11-02T10:49:49Z</time>
      </trkpt>
      <trkpt lat="38.550031799823046" lon="-2.424566494300961">
        <ele>1550</ele>
        <time>2019-11-02T10:50:01Z</time>
      </trkpt>
      <trkpt lat="38.550032470375299" lon="-2.42456691339612">
        <ele>1549.800048828125</ele>
        <time>2019-11-02T10:50:18Z</time>
      </trkpt>
      <trkpt lat="38.550032051280141" lon="-2.424568086862564">
        <ele>1549</ele>
        <time>2019-11-02T10:50:28Z</time>
      </trkpt>
      <trkpt lat="38.550033392384648" lon="-2.424573116004467">
        <ele>1548</ele>
        <time>2019-11-02T10:50:44Z</time>
      </trkpt>
      <trkpt lat="38.550033811479807" lon="-2.424572948366404">
        <ele>1547.800048828125</ele>
        <time>2019-11-02T10:50:46Z</time>
      </trkpt>
      <trkpt lat="38.550060968846083" lon="-2.4245385825634">
        <ele>1548</ele>
        <time>2019-11-02T10:50:56Z</time>
      </trkpt>
      <trkpt lat="38.550103297457099" lon="-2.424432300031185">
        <ele>1548.5999755859375</ele>
        <time>2019-11-02T10:51:03Z</time>
      </trkpt>
      <trkpt lat="38.550115367397666" lon="-2.42437781766057">
        <ele>1548.800048828125</ele>
        <time>2019-11-02T10:51:06Z</time>
      </trkpt>
      <trkpt lat="38.550137411803007" lon="-2.424269439652562">
        <ele>1549.199951171875</ele>
        <time>2019-11-02T10:51:12Z</time>
      </trkpt>
      <trkpt lat="38.550135819241405" lon="-2.424093754962087">
        <ele>1549.5999755859375</ele>
        <time>2019-11-02T10:51:20Z</time>
      </trkpt>
      <trkpt lat="38.550127940252423" lon="-2.423928715288639">
        <ele>1549.800048828125</ele>
        <time>2019-11-02T10:51:27Z</time>
      </trkpt>
      <trkpt lat="38.550122743472457" lon="-2.423870880156755">
        <ele>1549.800048828125</ele>
        <time>2019-11-02T10:51:29Z</time>
      </trkpt>
      <trkpt lat="38.550116205587983" lon="-2.423711037263274">
        <ele>1550</ele>
        <time>2019-11-02T10:51:34Z</time>
      </trkpt>
      <trkpt lat="38.550117714330554" lon="-2.423433596268296">
        <ele>1550</ele>
        <time>2019-11-02T10:51:42Z</time>
      </trkpt>
      <trkpt lat="38.550127102062106" lon="-2.42321684025228">
        <ele>1549.800048828125</ele>
        <time>2019-11-02T10:51:48Z</time>
      </trkpt>
      <trkpt lat="38.550133304670453" lon="-2.422888185828924">
        <ele>1549.199951171875</ele>
        <time>2019-11-02T10:51:55Z</time>
      </trkpt>
      <trkpt lat="38.550139339640737" lon="-2.422737898305058">
        <ele>1548.800048828125</ele>
        <time>2019-11-02T10:51:58Z</time>
      </trkpt>
      <trkpt lat="38.550160964950919" lon="-2.422493733465672">
        <ele>1548.5999755859375</ele>
        <time>2019-11-02T10:52:03Z</time>
      </trkpt>
      <trkpt lat="38.550218883901834" lon="-2.42224152199924">
        <ele>1548.199951171875</ele>
        <time>2019-11-02T10:52:10Z</time>
      </trkpt>
      <trkpt lat="38.550292477011681" lon="-2.421912029385567">
        <ele>1548</ele>
        <time>2019-11-02T10:52:18Z</time>
      </trkpt>
      <trkpt lat="38.550306726247072" lon="-2.421772135421634">
        <ele>1547.800048828125</ele>
        <time>2019-11-02T10:52:21Z</time>
      </trkpt>
      <trkpt lat="38.550309324637055" lon="-2.421639449894428">
        <ele>1547.4000244140625</ele>
        <time>2019-11-02T10:52:24Z</time>
      </trkpt>
      <trkpt lat="38.55029440484941" lon="-2.421441888436675">
        <ele>1546.5999755859375</ele>
        <time>2019-11-02T10:52:28Z</time>
      </trkpt>
      <trkpt lat="38.550288705155253" lon="-2.421387825161219">
        <ele>1546.4000244140625</ele>
        <time>2019-11-02T10:52:29Z</time>
      </trkpt>
      <trkpt lat="38.550284765660763" lon="-2.421333342790604">
        <ele>1546</ele>
        <time>2019-11-02T10:52:30Z</time>
      </trkpt>
      <trkpt lat="38.550273701548576" lon="-2.420943584293127">
        <ele>1545.5999755859375</ele>
        <time>2019-11-02T10:52:37Z</time>
      </trkpt>
      <trkpt lat="38.550270851701498" lon="-2.420740490779281">
        <ele>1545.199951171875</ele>
        <time>2019-11-02T10:52:40Z</time>
      </trkpt>
      <trkpt lat="38.550263643264771" lon="-2.420668825507164">
        <ele>1545.199951171875</ele>
        <time>2019-11-02T10:52:41Z</time>
      </trkpt>
      <trkpt lat="38.550253501161933" lon="-2.420594645664096">
        <ele>1544.5999755859375</ele>
        <time>2019-11-02T10:52:42Z</time>
      </trkpt>
      <trkpt lat="38.550220308825374" lon="-2.420442011207342">
        <ele>1544.199951171875</ele>
        <time>2019-11-02T10:52:44Z</time>
      </trkpt>
      <trkpt lat="38.550178064033389" lon="-2.42027428932488">
        <ele>1543</ele>
        <time>2019-11-02T10:52:46Z</time>
      </trkpt>
      <trkpt lat="38.550156438723207" lon="-2.420186279341578">
        <ele>1543</ele>
        <time>2019-11-02T10:52:47Z</time>
      </trkpt>
      <trkpt lat="38.550118887796998" lon="-2.420000536367297">
        <ele>1542</ele>
        <time>2019-11-02T10:52:49Z</time>
      </trkpt>
      <trkpt lat="38.550041606649756" lon="-2.419632403180003">
        <ele>1541</ele>
        <time>2019-11-02T10:52:53Z</time>
      </trkpt>
      <trkpt lat="38.549980251118541" lon="-2.419305006042123">
        <ele>1539.5999755859375</ele>
        <time>2019-11-02T10:52:57Z</time>
      </trkpt>
      <trkpt lat="38.549965918064117" lon="-2.419149605557323">
        <ele>1539.199951171875</ele>
        <time>2019-11-02T10:52:59Z</time>
      </trkpt>
      <trkpt lat="38.549958961084485" lon="-2.418911391869187">
        <ele>1538.5999755859375</ele>
        <time>2019-11-02T10:53:02Z</time>
      </trkpt>
      <trkpt lat="38.549974970519543" lon="-2.418728666380048">
        <ele>1537.800048828125</ele>
        <time>2019-11-02T10:53:04Z</time>
      </trkpt>
      <trkpt lat="38.549988130107522" lon="-2.418633699417114">
        <ele>1537.4000244140625</ele>
        <time>2019-11-02T10:53:05Z</time>
      </trkpt>
      <trkpt lat="38.55001880787313" lon="-2.418451141566038">
        <ele>1536.4000244140625</ele>
        <time>2019-11-02T10:53:07Z</time>
      </trkpt>
      <trkpt lat="38.550059292465448" lon="-2.418279815465212">
        <ele>1535.800048828125</ele>
        <time>2019-11-02T10:53:09Z</time>
      </trkpt>
      <trkpt lat="38.550081420689821" lon="-2.418192895129323">
        <ele>1535.4000244140625</ele>
        <time>2019-11-02T10:53:10Z</time>
      </trkpt>
      <trkpt lat="38.55014881119132" lon="-2.417845381423831">
        <ele>1534.199951171875</ele>
        <time>2019-11-02T10:53:14Z</time>
      </trkpt>
      <trkpt lat="38.550159288570285" lon="-2.417761897668242">
        <ele>1534.199951171875</ele>
        <time>2019-11-02T10:53:15Z</time>
      </trkpt>
      <trkpt lat="38.550212262198329" lon="-2.41741287522018">
        <ele>1534.5999755859375</ele>
        <time>2019-11-02T10:53:20Z</time>
      </trkpt>
      <trkpt lat="38.550301529467106" lon="-2.417163513600826">
        <ele>1535</ele>
        <time>2019-11-02T10:53:25Z</time>
      </trkpt>
      <trkpt lat="38.550326423719525" lon="-2.417117832228541">
        <ele>1534.800048828125</ele>
        <time>2019-11-02T10:53:26Z</time>
      </trkpt>
      <trkpt lat="38.55048693716526" lon="-2.416871823370457">
        <ele>1534.199951171875</ele>
        <time>2019-11-02T10:53:31Z</time>
      </trkpt>
      <trkpt lat="38.550591040402651" lon="-2.416665712371469">
        <ele>1532.800048828125</ele>
        <time>2019-11-02T10:53:34Z</time>
      </trkpt>
      <trkpt lat="38.550652898848057" lon="-2.41649572737515">
        <ele>1532</ele>
        <time>2019-11-02T10:53:36Z</time>
      </trkpt>
      <trkpt lat="38.550683073699474" lon="-2.416406711563468">
        <ele>1531.5999755859375</ele>
        <time>2019-11-02T10:53:37Z</time>
      </trkpt>
      <trkpt lat="38.550800587981939" lon="-2.416049726307392">
        <ele>1530.4000244140625</ele>
        <time>2019-11-02T10:53:41Z</time>
      </trkpt>
      <trkpt lat="38.550849789753556" lon="-2.415893319994211">
        <ele>1529.5999755859375</ele>
        <time>2019-11-02T10:53:43Z</time>
      </trkpt>
      <trkpt lat="38.550905780866742" lon="-2.415720401331782">
        <ele>1529.199951171875</ele>
        <time>2019-11-02T10:53:46Z</time>
      </trkpt>
      <trkpt lat="38.550920449197292" lon="-2.415677988901734">
        <ele>1529.199951171875</ele>
        <time>2019-11-02T10:53:47Z</time>
      </trkpt>
      <trkpt lat="38.550953641533852" lon="-2.415579166263342">
        <ele>1528.800048828125</ele>
        <time>2019-11-02T10:53:51Z</time>
      </trkpt>
      <trkpt lat="38.550957245752215" lon="-2.415571035817266">
        <ele>1528.5999755859375</ele>
        <time>2019-11-02T10:53:57Z</time>
      </trkpt>
      <trkpt lat="38.550978032872081" lon="-2.41551311686635">
        <ele>1528.4000244140625</ele>
        <time>2019-11-02T10:54:03Z</time>
      </trkpt>
      <trkpt lat="38.551005776971579" lon="-2.415429800748825">
        <ele>1528.199951171875</ele>
        <time>2019-11-02T10:54:06Z</time>
      </trkpt>
      <trkpt lat="38.551055900752544" lon="-2.415281441062689">
        <ele>1527.800048828125</ele>
        <time>2019-11-02T10:54:10Z</time>
      </trkpt>
      <trkpt lat="38.551121531054378" lon="-2.415036521852016">
        <ele>1527</ele>
        <time>2019-11-02T10:54:15Z</time>
      </trkpt>
      <trkpt lat="38.551149442791939" lon="-2.414922947064042">
        <ele>1526.800048828125</ele>
        <time>2019-11-02T10:54:17Z</time>
      </trkpt>
      <trkpt lat="38.551214905455709" lon="-2.414668640121818">
        <ele>1525.5999755859375</ele>
        <time>2019-11-02T10:54:21Z</time>
      </trkpt>
      <trkpt lat="38.551226388663054" lon="-2.414596388116479">
        <ele>1525</ele>
        <time>2019-11-02T10:54:22Z</time>
      </trkpt>
      <trkpt lat="38.551237285137177" lon="-2.414441155269742">
        <ele>1524.5999755859375</ele>
        <time>2019-11-02T10:54:24Z</time>
      </trkpt>
      <trkpt lat="38.551236866042018" lon="-2.414281228557229">
        <ele>1524.199951171875</ele>
        <time>2019-11-02T10:54:26Z</time>
      </trkpt>
      <trkpt lat="38.55122622102499" lon="-2.414205623790622">
        <ele>1524</ele>
        <time>2019-11-02T10:54:27Z</time>
      </trkpt>
      <trkpt lat="38.551186826080084" lon="-2.414051648229361">
        <ele>1523.5999755859375</ele>
        <time>2019-11-02T10:54:29Z</time>
      </trkpt>
      <trkpt lat="38.55109772644937" lon="-2.413739757612348">
        <ele>1523</ele>
        <time>2019-11-02T10:54:33Z</time>
      </trkpt>
      <trkpt lat="38.551090098917484" lon="-2.413489473983645">
        <ele>1522.800048828125</ele>
        <time>2019-11-02T10:54:37Z</time>
      </trkpt>
      <trkpt lat="38.551135864108801" lon="-2.413265174254775">
        <ele>1523</ele>
        <time>2019-11-02T10:54:42Z</time>
      </trkpt>
      <trkpt lat="38.5512481816113" lon="-2.413034169003367">
        <ele>1523.5999755859375</ele>
        <time>2019-11-02T10:54:49Z</time>
      </trkpt>
      <trkpt lat="38.551387656480074" lon="-2.412745244801044">
        <ele>1523.199951171875</ele>
        <time>2019-11-02T10:54:57Z</time>
      </trkpt>
      <trkpt lat="38.551435181871057" lon="-2.412552712485194">
        <ele>1522.4000244140625</ele>
        <time>2019-11-02T10:55:00Z</time>
      </trkpt>
      <trkpt lat="38.551463931798935" lon="-2.412399491295218">
        <ele>1521.4000244140625</ele>
        <time>2019-11-02T10:55:02Z</time>
      </trkpt>
      <trkpt lat="38.551475163549185" lon="-2.412320617586374">
        <ele>1521</ele>
        <time>2019-11-02T10:55:03Z</time>
      </trkpt>
      <trkpt lat="38.551517156884074" lon="-2.412065137177706">
        <ele>1520</ele>
        <time>2019-11-02T10:55:06Z</time>
      </trkpt>
      <trkpt lat="38.551561580970883" lon="-2.411886937916279">
        <ele>1519.199951171875</ele>
        <time>2019-11-02T10:55:08Z</time>
      </trkpt>
      <trkpt lat="38.551590414717793" lon="-2.411803035065532">
        <ele>1518.5999755859375</ele>
        <time>2019-11-02T10:55:09Z</time>
      </trkpt>
      <trkpt lat="38.551658811047673" lon="-2.411650652065873">
        <ele>1517.5999755859375</ele>
        <time>2019-11-02T10:55:11Z</time>
      </trkpt>
      <trkpt lat="38.551700720563531" lon="-2.411583429202437">
        <ele>1516.800048828125</ele>
        <time>2019-11-02T10:55:12Z</time>
      </trkpt>
      <trkpt lat="38.551746234297752" lon="-2.411516541615129">
        <ele>1516.199951171875</ele>
        <time>2019-11-02T10:55:13Z</time>
      </trkpt>
      <trkpt lat="38.551840782165527" lon="-2.41137002594769">
        <ele>1515</ele>
        <time>2019-11-02T10:55:15Z</time>
      </trkpt>
      <trkpt lat="38.551946729421616" lon="-2.411208171397448">
        <ele>1514.4000244140625</ele>
        <time>2019-11-02T10:55:17Z</time>
      </trkpt>
      <trkpt lat="38.55200070887804" lon="-2.411120580509305">
        <ele>1513.5999755859375</ele>
        <time>2019-11-02T10:55:18Z</time>
      </trkpt>
      <trkpt lat="38.552177818492055" lon="-2.41085940040648">
        <ele>1511.800048828125</ele>
        <time>2019-11-02T10:55:21Z</time>
      </trkpt>
      <trkpt lat="38.552314275875688" lon="-2.410699976608157">
        <ele>1510.4000244140625</ele>
        <time>2019-11-02T10:55:23Z</time>
      </trkpt>
      <trkpt lat="38.552449559792876" lon="-2.41053057834506">
        <ele>1509</ele>
        <time>2019-11-02T10:55:25Z</time>
      </trkpt>
      <trkpt lat="38.552592052146792" lon="-2.410356570035219">
        <ele>1507.4000244140625</ele>
        <time>2019-11-02T10:55:27Z</time>
      </trkpt>
      <trkpt lat="38.552717277780175" lon="-2.41017778404057">
        <ele>1506</ele>
        <time>2019-11-02T10:55:29Z</time>
      </trkpt>
      <trkpt lat="38.552777208387852" lon="-2.410092372447252">
        <ele>1504.800048828125</ele>
        <time>2019-11-02T10:55:30Z</time>
      </trkpt>
      <trkpt lat="38.552887598052621" lon="-2.409935630857944">
        <ele>1503</ele>
        <time>2019-11-02T10:55:32Z</time>
      </trkpt>
      <trkpt lat="38.552998071536422" lon="-2.409802442416549">
        <ele>1501.4000244140625</ele>
        <time>2019-11-02T10:55:34Z</time>
      </trkpt>
      <trkpt lat="38.5531304217875" lon="-2.409690879285336">
        <ele>1500.4000244140625</ele>
        <time>2019-11-02T10:55:36Z</time>
      </trkpt>
      <trkpt lat="38.553315326571465" lon="-2.40950002335012">
        <ele>1499.199951171875</ele>
        <time>2019-11-02T10:55:39Z</time>
      </trkpt>
      <trkpt lat="38.553420938551426" lon="-2.409328864887357">
        <ele>1497.800048828125</ele>
        <time>2019-11-02T10:55:41Z</time>
      </trkpt>
      <trkpt lat="38.553469553589821" lon="-2.409234065562487">
        <ele>1496.800048828125</ele>
        <time>2019-11-02T10:55:42Z</time>
      </trkpt>
      <trkpt lat="38.553514899685979" lon="-2.409135410562158">
        <ele>1496</ele>
        <time>2019-11-02T10:55:43Z</time>
      </trkpt>
      <trkpt lat="38.553557395935059" lon="-2.409034995362163">
        <ele>1495</ele>
        <time>2019-11-02T10:55:44Z</time>
      </trkpt>
      <trkpt lat="38.553674491122365" lon="-2.408750765025616">
        <ele>1493.5999755859375</ele>
        <time>2019-11-02T10:55:47Z</time>
      </trkpt>
      <trkpt lat="38.553740959614515" lon="-2.408563932403922">
        <ele>1491.800048828125</ele>
        <time>2019-11-02T10:55:49Z</time>
      </trkpt>
      <trkpt lat="38.553800052031875" lon="-2.408365868031979">
        <ele>1491</ele>
        <time>2019-11-02T10:55:51Z</time>
      </trkpt>
      <trkpt lat="38.553827041760087" lon="-2.408261178061366">
        <ele>1490.5999755859375</ele>
        <time>2019-11-02T10:55:52Z</time>
      </trkpt>
      <trkpt lat="38.553884541615844" lon="-2.408057833090425">
        <ele>1489.5999755859375</ele>
        <time>2019-11-02T10:55:54Z</time>
      </trkpt>
      <trkpt lat="38.553958050906658" lon="-2.40786605514586">
        <ele>1487.800048828125</ele>
        <time>2019-11-02T10:55:56Z</time>
      </trkpt>
      <trkpt lat="38.55404170230031" lon="-2.407684000208974">
        <ele>1486.199951171875</ele>
        <time>2019-11-02T10:55:58Z</time>
      </trkpt>
      <trkpt lat="38.554086880758405" lon="-2.407589117065072">
        <ele>1485.800048828125</ele>
        <time>2019-11-02T10:55:59Z</time>
      </trkpt>
      <trkpt lat="38.554134406149387" lon="-2.407493898645043">
        <ele>1485.199951171875</ele>
        <time>2019-11-02T10:56:00Z</time>
      </trkpt>
      <trkpt lat="38.554243035614491" lon="-2.407325422391295">
        <ele>1483.4000244140625</ele>
        <time>2019-11-02T10:56:02Z</time>
      </trkpt>
      <trkpt lat="38.554295590147376" lon="-2.407253757119179">
        <ele>1482.5999755859375</ele>
        <time>2019-11-02T10:56:03Z</time>
      </trkpt>
      <trkpt lat="38.554349653422832" lon="-2.407185276970267">
        <ele>1482.199951171875</ele>
        <time>2019-11-02T10:56:04Z</time>
      </trkpt>
      <trkpt lat="38.554462725296617" lon="-2.407048065215349">
        <ele>1480.800048828125</ele>
        <time>2019-11-02T10:56:06Z</time>
      </trkpt>
      <trkpt lat="38.554581999778748" lon="-2.406887048855424">
        <ele>1479.199951171875</ele>
        <time>2019-11-02T10:56:08Z</time>
      </trkpt>
      <trkpt lat="38.55471015907824" lon="-2.406709771603346">
        <ele>1477.800048828125</ele>
        <time>2019-11-02T10:56:10Z</time>
      </trkpt>
      <trkpt lat="38.554838234558702" lon="-2.406543809920549">
        <ele>1476.199951171875</ele>
        <time>2019-11-02T10:56:12Z</time>
      </trkpt>
      <trkpt lat="38.554958766326308" lon="-2.406382961198688">
        <ele>1474.4000244140625</ele>
        <time>2019-11-02T10:56:14Z</time>
      </trkpt>
      <trkpt lat="38.55501601472497" lon="-2.406296208500862">
        <ele>1473.800048828125</ele>
        <time>2019-11-02T10:56:15Z</time>
      </trkpt>
      <trkpt lat="38.555127074941993" lon="-2.406116416677833">
        <ele>1473</ele>
        <time>2019-11-02T10:56:17Z</time>
      </trkpt>
      <trkpt lat="38.555221706628799" lon="-2.405951879918575">
        <ele>1471.4000244140625</ele>
        <time>2019-11-02T10:56:19Z</time>
      </trkpt>
      <trkpt lat="38.555315164849162" lon="-2.405803184956312">
        <ele>1470.5999755859375</ele>
        <time>2019-11-02T10:56:21Z</time>
      </trkpt>
      <trkpt lat="38.555402588099241" lon="-2.405667062848806">
        <ele>1468.800048828125</ele>
        <time>2019-11-02T10:56:23Z</time>
      </trkpt>
      <trkpt lat="38.555440390482545" lon="-2.405610233545303">
        <ele>1468.4000244140625</ele>
        <time>2019-11-02T10:56:24Z</time>
      </trkpt>
      <trkpt lat="38.555476600304246" lon="-2.405560277402401">
        <ele>1468</ele>
        <time>2019-11-02T10:56:25Z</time>
      </trkpt>
      <trkpt lat="38.55551247484982" lon="-2.405513590201735">
        <ele>1467.199951171875</ele>
        <time>2019-11-02T10:56:26Z</time>
      </trkpt>
      <trkpt lat="38.555599730461836" lon="-2.405386604368687">
        <ele>1466</ele>
        <time>2019-11-02T10:56:29Z</time>
      </trkpt>
      <trkpt lat="38.555639293044806" lon="-2.405244279652834">
        <ele>1464.800048828125</ele>
        <time>2019-11-02T10:56:32Z</time>
      </trkpt>
      <trkpt lat="38.555631497874856" lon="-2.405186612159014">
        <ele>1464.4000244140625</ele>
        <time>2019-11-02T10:56:33Z</time>
      </trkpt>
      <trkpt lat="38.555591348558664" lon="-2.405069433152676">
        <ele>1463.4000244140625</ele>
        <time>2019-11-02T10:56:35Z</time>
      </trkpt>
      <trkpt lat="38.555573495104909" lon="-2.405007071793079">
        <ele>1463</ele>
        <time>2019-11-02T10:56:36Z</time>
      </trkpt>
      <trkpt lat="38.555568046867847" lon="-2.404941944405437">
        <ele>1462.5999755859375</ele>
        <time>2019-11-02T10:56:37Z</time>
      </trkpt>
      <trkpt lat="38.555575171485543" lon="-2.404874134808779">
        <ele>1462</ele>
        <time>2019-11-02T10:56:38Z</time>
      </trkpt>
      <trkpt lat="38.555619763210416" lon="-2.404749663546681">
        <ele>1461</ele>
        <time>2019-11-02T10:56:40Z</time>
      </trkpt>
      <trkpt lat="38.555691009387374" lon="-2.404644303023815">
        <ele>1459.5999755859375</ele>
        <time>2019-11-02T10:56:42Z</time>
      </trkpt>
      <trkpt lat="38.55579687282443" lon="-2.404572553932667">
        <ele>1458.5999755859375</ele>
        <time>2019-11-02T10:56:44Z</time>
      </trkpt>
      <trkpt lat="38.555864011868834" lon="-2.404561908915639">
        <ele>1457.800048828125</ele>
        <time>2019-11-02T10:56:45Z</time>
      </trkpt>
      <trkpt lat="38.555939365178347" lon="-2.404562411829829">
        <ele>1456.5999755859375</ele>
        <time>2019-11-02T10:56:46Z</time>
      </trkpt>
      <trkpt lat="38.556013545021415" lon="-2.404569201171398">
        <ele>1456</ele>
        <time>2019-11-02T10:56:47Z</time>
      </trkpt>
      <trkpt lat="38.556087305769324" lon="-2.404575403779745">
        <ele>1455.5999755859375</ele>
        <time>2019-11-02T10:56:48Z</time>
      </trkpt>
      <trkpt lat="38.556242119520903" lon="-2.404558388516307">
        <ele>1454.800048828125</ele>
        <time>2019-11-02T10:56:50Z</time>
      </trkpt>
      <trkpt lat="38.556316383183002" lon="-2.404541037976742">
        <ele>1454</ele>
        <time>2019-11-02T10:56:51Z</time>
      </trkpt>
      <trkpt lat="38.556460049003363" lon="-2.404443556442857">
        <ele>1452.800048828125</ele>
        <time>2019-11-02T10:56:53Z</time>
      </trkpt>
      <trkpt lat="38.556531043723226" lon="-2.404376585036516">
        <ele>1452.199951171875</ele>
        <time>2019-11-02T10:56:54Z</time>
      </trkpt>
      <trkpt lat="38.556598769500852" lon="-2.404312631115317">
        <ele>1451.199951171875</ele>
        <time>2019-11-02T10:56:55Z</time>
      </trkpt>
      <trkpt lat="38.556651826947927" lon="-2.40424339659512">
        <ele>1450.800048828125</ele>
        <time>2019-11-02T10:56:56Z</time>
      </trkpt>
      <trkpt lat="38.556691557168961" lon="-2.404168043285608">
        <ele>1450.199951171875</ele>
        <time>2019-11-02T10:56:57Z</time>
      </trkpt>
      <trkpt lat="38.556731706485152" lon="-2.40400392562151">
        <ele>1449</ele>
        <time>2019-11-02T10:56:59Z</time>
      </trkpt>
      <trkpt lat="38.556734556332231" lon="-2.403922285884619">
        <ele>1448.4000244140625</ele>
        <time>2019-11-02T10:57:00Z</time>
      </trkpt>
      <trkpt lat="38.556720390915871" lon="-2.403759844601154">
        <ele>1447.4000244140625</ele>
        <time>2019-11-02T10:57:02Z</time>
      </trkpt>
      <trkpt lat="38.556743273511529" lon="-2.403623219579458">
        <ele>1446</ele>
        <time>2019-11-02T10:57:04Z</time>
      </trkpt>
      <trkpt lat="38.556837234646082" lon="-2.403558511286974">
        <ele>1444.800048828125</ele>
        <time>2019-11-02T10:57:06Z</time>
      </trkpt>
      <trkpt lat="38.556890711188316" lon="-2.403558427467942">
        <ele>1444.4000244140625</ele>
        <time>2019-11-02T10:57:07Z</time>
      </trkpt>
      <trkpt lat="38.556943600997329" lon="-2.403563875705004">
        <ele>1444</ele>
        <time>2019-11-02T10:57:08Z</time>
      </trkpt>
      <trkpt lat="38.557048877701163" lon="-2.40356270223856">
        <ele>1443.800048828125</ele>
        <time>2019-11-02T10:57:10Z</time>
      </trkpt>
      <trkpt lat="38.557103024795651" lon="-2.403550297021866">
        <ele>1443.5999755859375</ele>
        <time>2019-11-02T10:57:11Z</time>
      </trkpt>
      <trkpt lat="38.557155914604664" lon="-2.403527079150081">
        <ele>1443.5999755859375</ele>
        <time>2019-11-02T10:57:12Z</time>
      </trkpt>
      <trkpt lat="38.557344926521182" lon="-2.403344269841909">
        <ele>1442.800048828125</ele>
        <time>2019-11-02T10:57:16Z</time>
      </trkpt>
      <trkpt lat="38.557386416941881" lon="-2.403285345062613">
        <ele>1442.4000244140625</ele>
        <time>2019-11-02T10:57:17Z</time>
      </trkpt>
      <trkpt lat="38.557538548484445" lon="-2.403039084747434">
        <ele>1441.199951171875</ele>
        <time>2019-11-02T10:57:21Z</time>
      </trkpt>
      <trkpt lat="38.557571908459067" lon="-2.402974292635918">
        <ele>1441.199951171875</ele>
        <time>2019-11-02T10:57:22Z</time>
      </trkpt>
      <trkpt lat="38.557752789929509" lon="-2.402503313496709">
        <ele>1440.5999755859375</ele>
        <time>2019-11-02T10:57:29Z</time>
      </trkpt>
      <trkpt lat="38.557821270078421" lon="-2.402299297973514">
        <ele>1440.199951171875</ele>
        <time>2019-11-02T10:57:32Z</time>
      </trkpt>
      <trkpt lat="38.557870136573911" lon="-2.40210173651576">
        <ele>1439.800048828125</ele>
        <time>2019-11-02T10:57:35Z</time>
      </trkpt>
      <trkpt lat="38.557908106595278" lon="-2.401758665218949">
        <ele>1439.800048828125</ele>
        <time>2019-11-02T10:57:41Z</time>
      </trkpt>
      <trkpt lat="38.557901820167899" lon="-2.401568898931146">
        <ele>1439.800048828125</ele>
        <time>2019-11-02T10:57:45Z</time>
      </trkpt>
      <trkpt lat="38.557896455749869" lon="-2.401467394083738">
        <ele>1439.5999755859375</ele>
        <time>2019-11-02T10:57:47Z</time>
      </trkpt>
      <trkpt lat="38.557899137958884" lon="-2.401349795982242">
        <ele>1439.4000244140625</ele>
        <time>2019-11-02T10:57:49Z</time>
      </trkpt>
      <trkpt lat="38.5579380299896" lon="-2.401230186223984">
        <ele>1439.199951171875</ele>
        <time>2019-11-02T10:57:51Z</time>
      </trkpt>
      <trkpt lat="38.557965019717813" lon="-2.401178302243352">
        <ele>1439.199951171875</ele>
        <time>2019-11-02T10:57:52Z</time>
      </trkpt>
      <trkpt lat="38.558060741052032" lon="-2.401055842638016">
        <ele>1438.800048828125</ele>
        <time>2019-11-02T10:57:55Z</time>
      </trkpt>
      <trkpt lat="38.558096447959542" lon="-2.401022063568234">
        <ele>1438.5999755859375</ele>
        <time>2019-11-02T10:57:56Z</time>
      </trkpt>
      <trkpt lat="38.558314628899097" lon="-2.400770103558898">
        <ele>1438.800048828125</ele>
        <time>2019-11-02T10:58:03Z</time>
      </trkpt>
      <trkpt lat="38.558523254469037" lon="-2.400542618706822">
        <ele>1439.4000244140625</ele>
        <time>2019-11-02T10:58:10Z</time>
      </trkpt>
      <trkpt lat="38.558607576414943" lon="-2.400422422215343">
        <ele>1439.5999755859375</ele>
        <time>2019-11-02T10:58:13Z</time>
      </trkpt>
      <trkpt lat="38.558654515072703" lon="-2.400319995358586">
        <ele>1439.5999755859375</ele>
        <time>2019-11-02T10:58:15Z</time>
      </trkpt>
      <trkpt lat="38.558713188394904" lon="-2.400073651224375">
        <ele>1439.199951171875</ele>
        <time>2019-11-02T10:58:19Z</time>
      </trkpt>
      <trkpt lat="38.558721067383885" lon="-2.400007266551256">
        <ele>1439</ele>
        <time>2019-11-02T10:58:20Z</time>
      </trkpt>
      <trkpt lat="38.558751326054335" lon="-2.399808699265122">
        <ele>1438.4000244140625</ele>
        <time>2019-11-02T10:58:23Z</time>
      </trkpt>
      <trkpt lat="38.558781584724784" lon="-2.399530000984669">
        <ele>1437.4000244140625</ele>
        <time>2019-11-02T10:58:27Z</time>
      </trkpt>
      <trkpt lat="38.558790218085051" lon="-2.399452216923237">
        <ele>1437</ele>
        <time>2019-11-02T10:58:28Z</time>
      </trkpt>
      <trkpt lat="38.558791559189558" lon="-2.399208303540945">
        <ele>1436.4000244140625</ele>
        <time>2019-11-02T10:58:31Z</time>
      </trkpt>
      <trkpt lat="38.558779405429959" lon="-2.399123478680849">
        <ele>1436.199951171875</ele>
        <time>2019-11-02T10:58:32Z</time>
      </trkpt>
      <trkpt lat="38.558762390166521" lon="-2.399037228897214">
        <ele>1436</ele>
        <time>2019-11-02T10:58:33Z</time>
      </trkpt>
      <trkpt lat="38.558688880875707" lon="-2.398774204775691">
        <ele>1434.5999755859375</ele>
        <time>2019-11-02T10:58:36Z</time>
      </trkpt>
      <trkpt lat="38.558649653568864" lon="-2.398689799010754">
        <ele>1434.199951171875</ele>
        <time>2019-11-02T10:58:37Z</time>
      </trkpt>
      <trkpt lat="38.558619897812605" lon="-2.398601956665516">
        <ele>1433.5999755859375</ele>
        <time>2019-11-02T10:58:38Z</time>
      </trkpt>
      <trkpt lat="38.558495258912444" lon="-2.398263746872544">
        <ele>1432.4000244140625</ele>
        <time>2019-11-02T10:58:42Z</time>
      </trkpt>
      <trkpt lat="38.558434825390577" lon="-2.398040369153023">
        <ele>1431.4000244140625</ele>
        <time>2019-11-02T10:58:46Z</time>
      </trkpt>
      <trkpt lat="38.558441111817956" lon="-2.397926459088922">
        <ele>1430.5999755859375</ele>
        <time>2019-11-02T10:58:50Z</time>
      </trkpt>
      <trkpt lat="38.558444129303098" lon="-2.397909360006452">
        <ele>1430.800048828125</ele>
        <time>2019-11-02T10:58:55Z</time>
      </trkpt>
      <trkpt lat="38.558437759056687" lon="-2.397911874577403">
        <ele>1430.800048828125</ele>
        <time>2019-11-02T10:59:10Z</time>
      </trkpt>
      <trkpt lat="38.558432310819626" lon="-2.397913802415133">
        <ele>1431</ele>
        <time>2019-11-02T10:59:29Z</time>
      </trkpt>
      <trkpt lat="38.558432143181562" lon="-2.397913634777069">
        <ele>1431.4000244140625</ele>
        <time>2019-11-02T10:59:57Z</time>
      </trkpt>
      <trkpt lat="38.558433735743165" lon="-2.397915394976735">
        <ele>1431.199951171875</ele>
        <time>2019-11-02T11:00:25Z</time>
      </trkpt>
      <trkpt lat="38.558433903381228" lon="-2.397916149348021">
        <ele>1431.800048828125</ele>
        <time>2019-11-02T11:01:04Z</time>
      </trkpt>
      <trkpt lat="38.558435579761863" lon="-2.397913718596101">
        <ele>1431.800048828125</ele>
        <time>2019-11-02T11:01:27Z</time>
      </trkpt>
      <trkpt lat="38.558438932523131" lon="-2.397913215681911">
        <ele>1431.199951171875</ele>
        <time>2019-11-02T11:01:43Z</time>
      </trkpt>
      <trkpt lat="38.558460222557187" lon="-2.397920256480575">
        <ele>1431.199951171875</ele>
        <time>2019-11-02T11:01:44Z</time>
      </trkpt>
      <trkpt lat="38.558651078492403" lon="-2.397996196523309">
        <ele>1430.199951171875</ele>
        <time>2019-11-02T11:01:50Z</time>
      </trkpt>
      <trkpt lat="38.558765910565853" lon="-2.39805000834167">
        <ele>1429.800048828125</ele>
        <time>2019-11-02T11:01:53Z</time>
      </trkpt>
      <trkpt lat="38.55895827524364" lon="-2.398171797394753">
        <ele>1429.199951171875</ele>
        <time>2019-11-02T11:01:58Z</time>
      </trkpt>
      <trkpt lat="38.559148712083697" lon="-2.398315630853176">
        <ele>1429.199951171875</ele>
        <time>2019-11-02T11:02:04Z</time>
      </trkpt>
      <trkpt lat="38.559324480593204" lon="-2.398356031626463">
        <ele>1429</ele>
        <time>2019-11-02T11:02:10Z</time>
      </trkpt>
      <trkpt lat="38.559605106711388" lon="-2.398300040513277">
        <ele>1428.800048828125</ele>
        <time>2019-11-02T11:02:18Z</time>
      </trkpt>
      <trkpt lat="38.559642154723406" lon="-2.398293083533645">
        <ele>1429</ele>
        <time>2019-11-02T11:02:19Z</time>
      </trkpt>
      <trkpt lat="38.559831334277987" lon="-2.398313032463193">
        <ele>1428</ele>
        <time>2019-11-02T11:02:24Z</time>
      </trkpt>
      <trkpt lat="38.559873830527067" lon="-2.398325940594077">
        <ele>1427.5999755859375</ele>
        <time>2019-11-02T11:02:25Z</time>
      </trkpt>
      <trkpt lat="38.560042390599847" lon="-2.398398527875543">
        <ele>1426.4000244140625</ele>
        <time>2019-11-02T11:02:29Z</time>
      </trkpt>
      <trkpt lat="38.560089329257607" lon="-2.398424092680216">
        <ele>1426</ele>
        <time>2019-11-02T11:02:30Z</time>
      </trkpt>
      <trkpt lat="38.560345815494657" lon="-2.398545295000076">
        <ele>1426</ele>
        <time>2019-11-02T11:02:36Z</time>
      </trkpt>
      <trkpt lat="38.560536084696651" lon="-2.398578906431794">
        <ele>1427</ele>
        <time>2019-11-02T11:02:41Z</time>
      </trkpt>
      <trkpt lat="38.560580676421523" lon="-2.398572787642479">
        <ele>1426.800048828125</ele>
        <time>2019-11-02T11:02:42Z</time>
      </trkpt>
      <trkpt lat="38.560759462416172" lon="-2.398522915318608">
        <ele>1425.800048828125</ele>
        <time>2019-11-02T11:02:46Z</time>
      </trkpt>
      <trkpt lat="38.560808999463916" lon="-2.398522663861513">
        <ele>1425.800048828125</ele>
        <time>2019-11-02T11:02:47Z</time>
      </trkpt>
      <trkpt lat="38.560920394957066" lon="-2.398537751287222">
        <ele>1425.5999755859375</ele>
        <time>2019-11-02T11:02:49Z</time>
      </trkpt>
      <trkpt lat="38.561018966138363" lon="-2.398555940017104">
        <ele>1425.4000244140625</ele>
        <time>2019-11-02T11:02:51Z</time>
      </trkpt>
      <trkpt lat="38.561158524826169" lon="-2.398517467081547">
        <ele>1424.800048828125</ele>
        <time>2019-11-02T11:02:55Z</time>
      </trkpt>
      <trkpt lat="38.561179814860225" lon="-2.398500367999077">
        <ele>1424.4000244140625</ele>
        <time>2019-11-02T11:02:56Z</time>
      </trkpt>
      <trkpt lat="38.561224741861224" lon="-2.398456027731299">
        <ele>1423.800048828125</ele>
        <time>2019-11-02T11:03:00Z</time>
      </trkpt>
      <trkpt lat="38.561227507889271" lon="-2.39845116622746">
        <ele>1423.199951171875</ele>
        <time>2019-11-02T11:03:04Z</time>
      </trkpt>
      <trkpt lat="38.561228681355715" lon="-2.398448148742318">
        <ele>1423</ele>
        <time>2019-11-02T11:03:08Z</time>
      </trkpt>
      <trkpt lat="38.561233626678586" lon="-2.398452674970031">
        <ele>1423.800048828125</ele>
        <time>2019-11-02T11:03:20Z</time>
      </trkpt>
      <trkpt lat="38.561232872307301" lon="-2.398454267531633">
        <ele>1423.5999755859375</ele>
        <time>2019-11-02T11:03:32Z</time>
      </trkpt>
      <trkpt lat="38.561244858428836" lon="-2.398464493453503">
        <ele>1423.199951171875</ele>
        <time>2019-11-02T11:03:49Z</time>
      </trkpt>
      <trkpt lat="38.561233961954713" lon="-2.398502714931965">
        <ele>1423.4000244140625</ele>
        <time>2019-11-02T11:03:56Z</time>
      </trkpt>
      <trkpt lat="38.561256593093276" lon="-2.398531381040812">
        <ele>1423.800048828125</ele>
        <time>2019-11-02T11:04:02Z</time>
      </trkpt>
      <trkpt lat="38.561271261423826" lon="-2.398556862026453">
        <ele>1423.4000244140625</ele>
        <time>2019-11-02T11:04:07Z</time>
      </trkpt>
      <trkpt lat="38.561255754902959" lon="-2.398588210344315">
        <ele>1423.199951171875</ele>
        <time>2019-11-02T11:04:10Z</time>
      </trkpt>
      <trkpt lat="38.56125826947391" lon="-2.398600447922945">
        <ele>1423.199951171875</ele>
        <time>2019-11-02T11:04:16Z</time>
      </trkpt>
      <trkpt lat="38.561286181211472" lon="-2.398622240871191">
        <ele>1422.800048828125</ele>
        <time>2019-11-02T11:04:22Z</time>
      </trkpt>
      <trkpt lat="38.561339490115643" lon="-2.398719303309917">
        <ele>1422.5999755859375</ele>
        <time>2019-11-02T11:04:31Z</time>
      </trkpt>
      <trkpt lat="38.561345776543021" lon="-2.398734223097563">
        <ele>1422.5999755859375</ele>
        <time>2019-11-02T11:04:32Z</time>
      </trkpt>
      <trkpt lat="38.561343094334006" lon="-2.398779150098562">
        <ele>1422.5999755859375</ele>
        <time>2019-11-02T11:04:37Z</time>
      </trkpt>
      <trkpt lat="38.561353990808129" lon="-2.398794153705239">
        <ele>1422.4000244140625</ele>
        <time>2019-11-02T11:04:45Z</time>
      </trkpt>
      <trkpt lat="38.561353571712971" lon="-2.398793315514922">
        <ele>1421.800048828125</ele>
        <time>2019-11-02T11:05:05Z</time>
      </trkpt>
      <trkpt lat="38.561353823170066" lon="-2.39879323169589">
        <ele>1422.199951171875</ele>
        <time>2019-11-02T11:05:25Z</time>
      </trkpt>
      <trkpt lat="38.561353823170066" lon="-2.398794237524271">
        <ele>1422.800048828125</ele>
        <time>2019-11-02T11:06:10Z</time>
      </trkpt>
      <trkpt lat="38.561353739351034" lon="-2.398808989673853">
        <ele>1422.800048828125</ele>
        <time>2019-11-02T11:07:16Z</time>
      </trkpt>
      <trkpt lat="38.561358181759715" lon="-2.398814857006073">
        <ele>1423</ele>
        <time>2019-11-02T11:07:42Z</time>
      </trkpt>
      <trkpt lat="38.561357511207461" lon="-2.398820472881198">
        <ele>1423</ele>
        <time>2019-11-02T11:08:27Z</time>
      </trkpt>
      <trkpt lat="38.561370922252536" lon="-2.398839751258492">
        <ele>1423.199951171875</ele>
        <time>2019-11-02T11:08:48Z</time>
      </trkpt>
      <trkpt lat="38.561372179538012" lon="-2.39884058944881">
        <ele>1423</ele>
        <time>2019-11-02T11:09:34Z</time>
      </trkpt>
      <trkpt lat="38.561373353004456" lon="-2.398841427639127">
        <ele>1422.5999755859375</ele>
        <time>2019-11-02T11:09:50Z</time>
      </trkpt>
      <trkpt lat="38.561373353004456" lon="-2.398841176182032">
        <ele>1422.5999755859375</ele>
        <time>2019-11-02T11:10:09Z</time>
      </trkpt>
      <trkpt lat="38.561372766271234" lon="-2.398840924724936">
        <ele>1422.800048828125</ele>
        <time>2019-11-02T11:10:56Z</time>
      </trkpt>
      <trkpt lat="38.561375113204122" lon="-2.398840757086873">
        <ele>1423</ele>
        <time>2019-11-02T11:11:44Z</time>
      </trkpt>
      <trkpt lat="38.561375113204122" lon="-2.398838242515922">
        <ele>1422.5999755859375</ele>
        <time>2019-11-02T11:12:31Z</time>
      </trkpt>
      <trkpt lat="38.561375113204122" lon="-2.398837571963668">
        <ele>1422.800048828125</ele>
        <time>2019-11-02T11:13:10Z</time>
      </trkpt>
      <trkpt lat="38.561374777927995" lon="-2.398836985230446">
        <ele>1423</ele>
        <time>2019-11-02T11:13:23Z</time>
      </trkpt>
      <trkpt lat="38.561358600854874" lon="-2.398767918348312">
        <ele>1423.199951171875</ele>
        <time>2019-11-02T11:13:36Z</time>
      </trkpt>
      <trkpt lat="38.561317613348365" lon="-2.39870429970324">
        <ele>1423.199951171875</ele>
        <time>2019-11-02T11:13:43Z</time>
      </trkpt>
      <trkpt lat="38.561260616406798" lon="-2.398621067404747">
        <ele>1423.5999755859375</ele>
        <time>2019-11-02T11:13:51Z</time>
      </trkpt>
      <trkpt lat="38.561241673305631" lon="-2.398582426831126">
        <ele>1423.800048828125</ele>
        <time>2019-11-02T11:13:55Z</time>
      </trkpt>
      <trkpt lat="38.561228848993778" lon="-2.398547306656837">
        <ele>1424</ele>
        <time>2019-11-02T11:13:58Z</time>
      </trkpt>
      <trkpt lat="38.561213091015816" lon="-2.398486537858844">
        <ele>1424.199951171875</ele>
        <time>2019-11-02T11:14:05Z</time>
      </trkpt>
      <trkpt lat="38.561219377443194" lon="-2.398485280573368">
        <ele>1424</ele>
        <time>2019-11-02T11:14:16Z</time>
      </trkpt>
      <trkpt lat="38.561219209805131" lon="-2.398483352735639">
        <ele>1424</ele>
        <time>2019-11-02T11:14:40Z</time>
      </trkpt>
      <trkpt lat="38.56123773381114" lon="-2.398429289460182">
        <ele>1423.199951171875</ele>
        <time>2019-11-02T11:14:52Z</time>
      </trkpt>
      <trkpt lat="38.561269082129002" lon="-2.398359384387732">
        <ele>1422.5999755859375</ele>
        <time>2019-11-02T11:14:54Z</time>
      </trkpt>
      <trkpt lat="38.561324151232839" lon="-2.398195182904601">
        <ele>1421.5999755859375</ele>
        <time>2019-11-02T11:14:58Z</time>
      </trkpt>
      <trkpt lat="38.561332281678915" lon="-2.398150591179729">
        <ele>1421.4000244140625</ele>
        <time>2019-11-02T11:14:59Z</time>
      </trkpt>
      <trkpt lat="38.561360109597445" lon="-2.398043721914291">
        <ele>1420.4000244140625</ele>
        <time>2019-11-02T11:15:02Z</time>
      </trkpt>
      <trkpt lat="38.561370251700282" lon="-2.398001058027148">
        <ele>1419.4000244140625</ele>
        <time>2019-11-02T11:15:04Z</time>
      </trkpt>
      <trkpt lat="38.56137603521347" lon="-2.397981360554695">
        <ele>1419</ele>
        <time>2019-11-02T11:15:05Z</time>
      </trkpt>
      <trkpt lat="38.561382573097944" lon="-2.397931069135666">
        <ele>1418.5999755859375</ele>
        <time>2019-11-02T11:15:08Z</time>
      </trkpt>
      <trkpt lat="38.561383159831166" lon="-2.397902738302946">
        <ele>1418.5999755859375</ele>
        <time>2019-11-02T11:15:09Z</time>
      </trkpt>
      <trkpt lat="38.561382489278913" lon="-2.397834761068225">
        <ele>1418.199951171875</ele>
        <time>2019-11-02T11:15:11Z</time>
      </trkpt>
      <trkpt lat="38.56136622838676" lon="-2.397719426080585">
        <ele>1417.199951171875</ele>
        <time>2019-11-02T11:15:14Z</time>
      </trkpt>
      <trkpt lat="38.561366060748696" lon="-2.397683719173074">
        <ele>1417</ele>
        <time>2019-11-02T11:15:15Z</time>
      </trkpt>
      <trkpt lat="38.561369832605124" lon="-2.397588584572077">
        <ele>1415.800048828125</ele>
        <time>2019-11-02T11:15:18Z</time>
      </trkpt>
      <trkpt lat="38.561371341347694" lon="-2.397564863786101">
        <ele>1415.5999755859375</ele>
        <time>2019-11-02T11:15:19Z</time>
      </trkpt>
      <trkpt lat="38.561391457915306" lon="-2.397479536011815">
        <ele>1414.5999755859375</ele>
        <time>2019-11-02T11:15:22Z</time>
      </trkpt>
      <trkpt lat="38.561411909759045" lon="-2.397413570433855">
        <ele>1414</ele>
        <time>2019-11-02T11:15:24Z</time>
      </trkpt>
      <trkpt lat="38.561430098488927" lon="-2.39735028706491">
        <ele>1413.199951171875</ele>
        <time>2019-11-02T11:15:26Z</time>
      </trkpt>
      <trkpt lat="38.561468068510294" lon="-2.397258169949055">
        <ele>1412.199951171875</ele>
        <time>2019-11-02T11:15:29Z</time>
      </trkpt>
      <trkpt lat="38.561484329402447" lon="-2.397219277918339">
        <ele>1412</ele>
        <time>2019-11-02T11:15:30Z</time>
      </trkpt>
      <trkpt lat="38.561525149270892" lon="-2.397098494693637">
        <ele>1410.800048828125</ele>
        <time>2019-11-02T11:15:33Z</time>
      </trkpt>
      <trkpt lat="38.561565298587084" lon="-2.397020291537046">
        <ele>1409.5999755859375</ele>
        <time>2019-11-02T11:15:35Z</time>
      </trkpt>
      <trkpt lat="38.561638724058867" lon="-2.396887103095651">
        <ele>1408.199951171875</ele>
        <time>2019-11-02T11:15:38Z</time>
      </trkpt>
      <trkpt lat="38.561670826748013" lon="-2.396835554391146">
        <ele>1407.5999755859375</ele>
        <time>2019-11-02T11:15:39Z</time>
      </trkpt>
      <trkpt lat="38.561732349917293" lon="-2.396730110049248">
        <ele>1406.5999755859375</ele>
        <time>2019-11-02T11:15:41Z</time>
      </trkpt>
      <trkpt lat="38.56178599409759" lon="-2.396621061488986">
        <ele>1405.199951171875</ele>
        <time>2019-11-02T11:15:43Z</time>
      </trkpt>
      <trkpt lat="38.561872411519289" lon="-2.396464738994837">
        <ele>1403.5999755859375</ele>
        <time>2019-11-02T11:15:46Z</time>
      </trkpt>
      <trkpt lat="38.561895461753011" lon="-2.39641260355711">
        <ele>1403.199951171875</ele>
        <time>2019-11-02T11:15:47Z</time>
      </trkpt>
      <trkpt lat="38.561965199187398" lon="-2.396305734291673">
        <ele>1402.199951171875</ele>
        <time>2019-11-02T11:15:49Z</time>
      </trkpt>
      <trkpt lat="38.561996798962355" lon="-2.396251000463963">
        <ele>1401.4000244140625</ele>
        <time>2019-11-02T11:15:50Z</time>
      </trkpt>
      <trkpt lat="38.562024207785726" lon="-2.396198697388172">
        <ele>1400.5999755859375</ele>
        <time>2019-11-02T11:15:51Z</time>
      </trkpt>
      <trkpt lat="38.562051532790065" lon="-2.396145053207874">
        <ele>1400.5999755859375</ele>
        <time>2019-11-02T11:15:52Z</time>
      </trkpt>
      <trkpt lat="38.562110876664519" lon="-2.3960573785007">
        <ele>1399.5999755859375</ele>
        <time>2019-11-02T11:15:54Z</time>
      </trkpt>
      <trkpt lat="38.56213585473597" lon="-2.396016390994191">
        <ele>1399</ele>
        <time>2019-11-02T11:15:55Z</time>
      </trkpt>
      <trkpt lat="38.562164101749659" lon="-2.395979929715395">
        <ele>1398.199951171875</ele>
        <time>2019-11-02T11:15:56Z</time>
      </trkpt>
      <trkpt lat="38.562221936881542" lon="-2.395912036299706">
        <ele>1396.5999755859375</ele>
        <time>2019-11-02T11:15:58Z</time>
      </trkpt>
      <trkpt lat="38.562287483364344" lon="-2.395851602777839">
        <ele>1396</ele>
        <time>2019-11-02T11:16:00Z</time>
      </trkpt>
      <trkpt lat="38.562357220798731" lon="-2.395777339115739">
        <ele>1395.4000244140625</ele>
        <time>2019-11-02T11:16:02Z</time>
      </trkpt>
      <trkpt lat="38.562484793365002" lon="-2.39565228112042">
        <ele>1394.199951171875</ele>
        <time>2019-11-02T11:16:05Z</time>
      </trkpt>
      <trkpt lat="38.562592836096883" lon="-2.395555973052979">
        <ele>1392.800048828125</ele>
        <time>2019-11-02T11:16:07Z</time>
      </trkpt>
      <trkpt lat="38.56269333511591" lon="-2.395443907007575">
        <ele>1392</ele>
        <time>2019-11-02T11:16:09Z</time>
      </trkpt>
      <trkpt lat="38.562735663726926" lon="-2.39538162946701">
        <ele>1391.4000244140625</ele>
        <time>2019-11-02T11:16:10Z</time>
      </trkpt>
      <trkpt lat="38.562814621254802" lon="-2.395253805443645">
        <ele>1390.199951171875</ele>
        <time>2019-11-02T11:16:12Z</time>
      </trkpt>
      <trkpt lat="38.562880670651793" lon="-2.395135536789894">
        <ele>1388</ele>
        <time>2019-11-02T11:16:14Z</time>
      </trkpt>
      <trkpt lat="38.562910677865148" lon="-2.395081054419279">
        <ele>1387.199951171875</ele>
        <time>2019-11-02T11:16:15Z</time>
      </trkpt>
      <trkpt lat="38.562936829403043" lon="-2.395019363611937">
        <ele>1386.5999755859375</ele>
        <time>2019-11-02T11:16:16Z</time>
      </trkpt>
      <trkpt lat="38.562988126650453" lon="-2.39489539526403">
        <ele>1385.4000244140625</ele>
        <time>2019-11-02T11:16:18Z</time>
      </trkpt>
      <trkpt lat="38.563045961782336" lon="-2.394784083589911">
        <ele>1384</ele>
        <time>2019-11-02T11:16:20Z</time>
      </trkpt>
      <trkpt lat="38.563081417232752" lon="-2.394736390560865">
        <ele>1383.4000244140625</ele>
        <time>2019-11-02T11:16:21Z</time>
      </trkpt>
      <trkpt lat="38.563134642317891" lon="-2.394692972302437">
        <ele>1382.800048828125</ele>
        <time>2019-11-02T11:16:22Z</time>
      </trkpt>
      <trkpt lat="38.563191303983331" lon="-2.394651314243674">
        <ele>1382.199951171875</ele>
        <time>2019-11-02T11:16:23Z</time>
      </trkpt>
      <trkpt lat="38.563245451077819" lon="-2.394612841308117">
        <ele>1381.5999755859375</ele>
        <time>2019-11-02T11:16:24Z</time>
      </trkpt>
      <trkpt lat="38.563343435525894" lon="-2.394524579867721">
        <ele>1380.4000244140625</ele>
        <time>2019-11-02T11:16:26Z</time>
      </trkpt>
      <trkpt lat="38.563389619812369" lon="-2.394467918202281">
        <ele>1379.5999755859375</ele>
        <time>2019-11-02T11:16:27Z</time>
      </trkpt>
      <trkpt lat="38.563432032242417" lon="-2.394400108605623">
        <ele>1378.800048828125</ele>
        <time>2019-11-02T11:16:28Z</time>
      </trkpt>
      <trkpt lat="38.563474109396338" lon="-2.394331628456712">
        <ele>1377.5999755859375</ele>
        <time>2019-11-02T11:16:29Z</time>
      </trkpt>
      <trkpt lat="38.563509313389659" lon="-2.394264070317149">
        <ele>1376.4000244140625</ele>
        <time>2019-11-02T11:16:30Z</time>
      </trkpt>
      <trkpt lat="38.563538314774632" lon="-2.394197601824999">
        <ele>1375.5999755859375</ele>
        <time>2019-11-02T11:16:31Z</time>
      </trkpt>
      <trkpt lat="38.563569076359272" lon="-2.394131384789944">
        <ele>1375.199951171875</ele>
        <time>2019-11-02T11:16:32Z</time>
      </trkpt>
      <trkpt lat="38.563625402748585" lon="-2.394010936841369">
        <ele>1374.199951171875</ele>
        <time>2019-11-02T11:16:34Z</time>
      </trkpt>
      <trkpt lat="38.563679801300168" lon="-2.393887471407652">
        <ele>1372.800048828125</ele>
        <time>2019-11-02T11:16:36Z</time>
      </trkpt>
      <trkpt lat="38.563738474622369" lon="-2.393793007358909">
        <ele>1371</ele>
        <time>2019-11-02T11:16:38Z</time>
      </trkpt>
      <trkpt lat="38.563743168488145" lon="-2.393753780052066">
        <ele>1370.4000244140625</ele>
        <time>2019-11-02T11:16:39Z</time>
      </trkpt>
      <trkpt lat="38.563716514036059" lon="-2.39369242452085">
        <ele>1369.5999755859375</ele>
        <time>2019-11-02T11:16:41Z</time>
      </trkpt>
      <trkpt lat="38.563657086342573" lon="-2.39365428686142">
        <ele>1368.5999755859375</ele>
        <time>2019-11-02T11:16:43Z</time>
      </trkpt>
      <trkpt lat="38.563548875972629" lon="-2.393622938543558">
        <ele>1367.800048828125</ele>
        <time>2019-11-02T11:16:47Z</time>
      </trkpt>
      <trkpt lat="38.563533872365952" lon="-2.393595613539219">
        <ele>1367.5999755859375</ele>
        <time>2019-11-02T11:16:48Z</time>
      </trkpt>
      <trkpt lat="38.563510486856103" lon="-2.393495449796319">
        <ele>1367</ele>
        <time>2019-11-02T11:16:50Z</time>
      </trkpt>
      <trkpt lat="38.563513839617372" lon="-2.393432753160596">
        <ele>1366.5999755859375</ele>
        <time>2019-11-02T11:16:51Z</time>
      </trkpt>
      <trkpt lat="38.56353621929884" lon="-2.393271736800671">
        <ele>1365.4000244140625</ele>
        <time>2019-11-02T11:16:54Z</time>
      </trkpt>
      <trkpt lat="38.563531693071127" lon="-2.393154641613364">
        <ele>1364</ele>
        <time>2019-11-02T11:16:56Z</time>
      </trkpt>
      <trkpt lat="38.563544349744916" lon="-2.393051879480481">
        <ele>1362.800048828125</ele>
        <time>2019-11-02T11:16:58Z</time>
      </trkpt>
      <trkpt lat="38.563621882349253" lon="-2.392973676323891">
        <ele>1361.5999755859375</ele>
        <time>2019-11-02T11:17:00Z</time>
      </trkpt>
      <trkpt lat="38.563669575378299" lon="-2.39295506849885">
        <ele>1361.199951171875</ele>
        <time>2019-11-02T11:17:01Z</time>
      </trkpt>
      <trkpt lat="38.563775606453419" lon="-2.392952889204025">
        <ele>1360.4000244140625</ele>
        <time>2019-11-02T11:17:03Z</time>
      </trkpt>
      <trkpt lat="38.563836794346571" lon="-2.392959091812372">
        <ele>1360</ele>
        <time>2019-11-02T11:17:04Z</time>
      </trkpt>
      <trkpt lat="38.563897395506501" lon="-2.392968731001019">
        <ele>1359.4000244140625</ele>
        <time>2019-11-02T11:17:05Z</time>
      </trkpt>
      <trkpt lat="38.564020274206996" lon="-2.392991529777646">
        <ele>1357.5999755859375</ele>
        <time>2019-11-02T11:17:07Z</time>
      </trkpt>
      <trkpt lat="38.564153630286455" lon="-2.393030589446425">
        <ele>1356</ele>
        <time>2019-11-02T11:17:09Z</time>
      </trkpt>
      <trkpt lat="38.564212722703815" lon="-2.393052047118545">
        <ele>1355</ele>
        <time>2019-11-02T11:17:10Z</time>
      </trkpt>
      <trkpt lat="38.564275419339538" lon="-2.393077947199345">
        <ele>1354.4000244140625</ele>
        <time>2019-11-02T11:17:11Z</time>
      </trkpt>
      <trkpt lat="38.564343480393291" lon="-2.393099656328559">
        <ele>1353.800048828125</ele>
        <time>2019-11-02T11:17:12Z</time>
      </trkpt>
      <trkpt lat="38.564407769590616" lon="-2.39311633631587">
        <ele>1353.199951171875</ele>
        <time>2019-11-02T11:17:13Z</time>
      </trkpt>
      <trkpt lat="38.564464766532183" lon="-2.39312756806612">
        <ele>1352.5999755859375</ele>
        <time>2019-11-02T11:17:14Z</time>
      </trkpt>
      <trkpt lat="38.564519165083766" lon="-2.39313293248415">
        <ele>1352.199951171875</ele>
        <time>2019-11-02T11:17:15Z</time>
      </trkpt>
      <trkpt lat="38.564616143703461" lon="-2.393105020746589">
        <ele>1351</ele>
        <time>2019-11-02T11:17:17Z</time>
      </trkpt>
      <trkpt lat="38.56465470045805" lon="-2.393065206706524">
        <ele>1350.5999755859375</ele>
        <time>2019-11-02T11:17:18Z</time>
      </trkpt>
      <trkpt lat="38.564724018797278" lon="-2.392940316349268">
        <ele>1349.4000244140625</ele>
        <time>2019-11-02T11:17:20Z</time>
      </trkpt>
      <trkpt lat="38.564751679077744" lon="-2.392867477610707">
        <ele>1348.5999755859375</ele>
        <time>2019-11-02T11:17:21Z</time>
      </trkpt>
      <trkpt lat="38.564787302166224" lon="-2.392789190635085">
        <ele>1347.800048828125</ele>
        <time>2019-11-02T11:17:22Z</time>
      </trkpt>
      <trkpt lat="38.564882269129157" lon="-2.392627419903874">
        <ele>1346.4000244140625</ele>
        <time>2019-11-02T11:17:24Z</time>
      </trkpt>
      <trkpt lat="38.564926274120808" lon="-2.392551563680172">
        <ele>1346</ele>
        <time>2019-11-02T11:17:25Z</time>
      </trkpt>
      <trkpt lat="38.56496843509376" lon="-2.392481407150626">
        <ele>1345.4000244140625</ele>
        <time>2019-11-02T11:17:26Z</time>
      </trkpt>
      <trkpt lat="38.565005902200937" lon="-2.39240244962275">
        <ele>1345</ele>
        <time>2019-11-02T11:17:27Z</time>
      </trkpt>
      <trkpt lat="38.56508469209075" lon="-2.392242942005396">
        <ele>1344</ele>
        <time>2019-11-02T11:17:29Z</time>
      </trkpt>
      <trkpt lat="38.56513062492013" lon="-2.392169600352645">
        <ele>1343.199951171875</ele>
        <time>2019-11-02T11:17:30Z</time>
      </trkpt>
      <trkpt lat="38.565179575234652" lon="-2.392103131860495">
        <ele>1342.5999755859375</ele>
        <time>2019-11-02T11:17:31Z</time>
      </trkpt>
      <trkpt lat="38.565297005698085" lon="-2.392005063593388">
        <ele>1341.199951171875</ele>
        <time>2019-11-02T11:17:33Z</time>
      </trkpt>
      <trkpt lat="38.565365402027965" lon="-2.391976146027446">
        <ele>1340</ele>
        <time>2019-11-02T11:17:34Z</time>
      </trkpt>
      <trkpt lat="38.565436564385891" lon="-2.391953011974692">
        <ele>1339</ele>
        <time>2019-11-02T11:17:35Z</time>
      </trkpt>
      <trkpt lat="38.565507642924786" lon="-2.39193138666451">
        <ele>1338.199951171875</ele>
        <time>2019-11-02T11:17:36Z</time>
      </trkpt>
      <trkpt lat="38.565570507198572" lon="-2.391909342259169">
        <ele>1337.5999755859375</ele>
        <time>2019-11-02T11:17:37Z</time>
      </trkpt>
      <trkpt lat="38.565624738112092" lon="-2.391877071931958">
        <ele>1337</ele>
        <time>2019-11-02T11:17:38Z</time>
      </trkpt>
      <trkpt lat="38.565704952925444" lon="-2.391770454123616">
        <ele>1336.199951171875</ele>
        <time>2019-11-02T11:17:40Z</time>
      </trkpt>
      <trkpt lat="38.565737726166844" lon="-2.391702560707927">
        <ele>1335.800048828125</ele>
        <time>2019-11-02T11:17:41Z</time>
      </trkpt>
      <trkpt lat="38.565770415589213" lon="-2.391629554331303">
        <ele>1335</ele>
        <time>2019-11-02T11:17:42Z</time>
      </trkpt>
      <trkpt lat="38.56580545194447" lon="-2.391553279012442">
        <ele>1334.199951171875</ele>
        <time>2019-11-02T11:17:43Z</time>
      </trkpt>
      <trkpt lat="38.565852558240294" lon="-2.391481613740325">
        <ele>1333.4000244140625</ele>
        <time>2019-11-02T11:17:44Z</time>
      </trkpt>
      <trkpt lat="38.565912321209908" lon="-2.391419503837824">
        <ele>1333</ele>
        <time>2019-11-02T11:17:45Z</time>
      </trkpt>
      <trkpt lat="38.566043078899384" lon="-2.391319843009114">
        <ele>1331.800048828125</ele>
        <time>2019-11-02T11:17:47Z</time>
      </trkpt>
      <trkpt lat="38.56611524708569" lon="-2.391273407265544">
        <ele>1330.800048828125</ele>
        <time>2019-11-02T11:17:48Z</time>
      </trkpt>
      <trkpt lat="38.566187582910061" lon="-2.391226468607783">
        <ele>1329.5999755859375</ele>
        <time>2019-11-02T11:17:49Z</time>
      </trkpt>
      <trkpt lat="38.566262517124414" lon="-2.391180451959372">
        <ele>1328.4000244140625</ele>
        <time>2019-11-02T11:17:50Z</time>
      </trkpt>
      <trkpt lat="38.566413475200534" lon="-2.391096968203783">
        <ele>1326.800048828125</ele>
        <time>2019-11-02T11:17:52Z</time>
      </trkpt>
      <trkpt lat="38.566543646156788" lon="-2.391018178313971">
        <ele>1325.4000244140625</ele>
        <time>2019-11-02T11:17:54Z</time>
      </trkpt>
      <trkpt lat="38.566660154610872" lon="-2.390937292948365">
        <ele>1323.5999755859375</ele>
        <time>2019-11-02T11:17:56Z</time>
      </trkpt>
      <trkpt lat="38.566758139058948" lon="-2.390852468088269">
        <ele>1321.5999755859375</ele>
        <time>2019-11-02T11:17:58Z</time>
      </trkpt>
      <trkpt lat="38.566804742440581" lon="-2.39081441424787">
        <ele>1320.199951171875</ele>
        <time>2019-11-02T11:17:59Z</time>
      </trkpt>
      <trkpt lat="38.566893925890326" lon="-2.390742246061563">
        <ele>1318.800048828125</ele>
        <time>2019-11-02T11:18:01Z</time>
      </trkpt>
      <trkpt lat="38.566981265321374" lon="-2.390674268826842">
        <ele>1317.5999755859375</ele>
        <time>2019-11-02T11:18:03Z</time>
      </trkpt>
      <trkpt lat="38.567116213962436" lon="-2.390579218044877">
        <ele>1316.5999755859375</ele>
        <time>2019-11-02T11:18:06Z</time>
      </trkpt>
      <trkpt lat="38.567164829000831" lon="-2.390546025708318">
        <ele>1316.4000244140625</ele>
        <time>2019-11-02T11:18:07Z</time>
      </trkpt>
      <trkpt lat="38.567210678011179" lon="-2.390508642420173">
        <ele>1316.199951171875</ele>
        <time>2019-11-02T11:18:08Z</time>
      </trkpt>
      <trkpt lat="38.567352164536715" lon="-2.390388697385788">
        <ele>1315</ele>
        <time>2019-11-02T11:18:11Z</time>
      </trkpt>
      <trkpt lat="38.567399941384792" lon="-2.390336478129029">
        <ele>1314.5999755859375</ele>
        <time>2019-11-02T11:18:12Z</time>
      </trkpt>
      <trkpt lat="38.56744721531868" lon="-2.390275290235877">
        <ele>1313.4000244140625</ele>
        <time>2019-11-02T11:18:13Z</time>
      </trkpt>
      <trkpt lat="38.567497925832868" lon="-2.39020798355341">
        <ele>1312</ele>
        <time>2019-11-02T11:18:14Z</time>
      </trkpt>
      <trkpt lat="38.5675825830549" lon="-2.390058534219861">
        <ele>1310.800048828125</ele>
        <time>2019-11-02T11:18:16Z</time>
      </trkpt>
      <trkpt lat="38.567626671865582" lon="-2.389981001615524">
        <ele>1310.800048828125</ele>
        <time>2019-11-02T11:18:17Z</time>
      </trkpt>
      <trkpt lat="38.56775164604187" lon="-2.389644216746092">
        <ele>1309.5999755859375</ele>
        <time>2019-11-02T11:18:21Z</time>
      </trkpt>
      <trkpt lat="38.567771008238196" lon="-2.389554027467966">
        <ele>1309.199951171875</ele>
        <time>2019-11-02T11:18:22Z</time>
      </trkpt>
      <trkpt lat="38.567801183089614" lon="-2.389373062178493">
        <ele>1308.4000244140625</ele>
        <time>2019-11-02T11:18:24Z</time>
      </trkpt>
      <trkpt lat="38.567856503650546" lon="-2.389024794101715">
        <ele>1307.4000244140625</ele>
        <time>2019-11-02T11:18:28Z</time>
      </trkpt>
      <trkpt lat="38.567890617996454" lon="-2.388790100812912">
        <ele>1307.199951171875</ele>
        <time>2019-11-02T11:18:31Z</time>
      </trkpt>
      <trkpt lat="38.567931521683931" lon="-2.388653224334121">
        <ele>1306.800048828125</ele>
        <time>2019-11-02T11:18:33Z</time>
      </trkpt>
      <trkpt lat="38.568053059279919" lon="-2.388521460816264">
        <ele>1306.800048828125</ele>
        <time>2019-11-02T11:18:36Z</time>
      </trkpt>
      <trkpt lat="38.568096226081252" lon="-2.388487933203578">
        <ele>1306.800048828125</ele>
        <time>2019-11-02T11:18:37Z</time>
      </trkpt>
      <trkpt lat="38.568263780325651" lon="-2.388328006491065">
        <ele>1307.800048828125</ele>
        <time>2019-11-02T11:18:42Z</time>
      </trkpt>
      <trkpt lat="38.56836729682982" lon="-2.388098342344165">
        <ele>1308</ele>
        <time>2019-11-02T11:18:49Z</time>
      </trkpt>
      <trkpt lat="38.568419348448515" lon="-2.387959202751517">
        <ele>1308.800048828125</ele>
        <time>2019-11-02T11:18:53Z</time>
      </trkpt>
      <trkpt lat="38.568493947386742" lon="-2.38776683807373">
        <ele>1309.4000244140625</ele>
        <time>2019-11-02T11:18:59Z</time>
      </trkpt>
      <trkpt lat="38.568602073937654" lon="-2.387505071237683">
        <ele>1309.5999755859375</ele>
        <time>2019-11-02T11:19:08Z</time>
      </trkpt>
      <trkpt lat="38.568612970411777" lon="-2.387475399300456">
        <ele>1309.800048828125</ele>
        <time>2019-11-02T11:19:09Z</time>
      </trkpt>
      <trkpt lat="38.568690000101924" lon="-2.387274652719498">
        <ele>1310.4000244140625</ele>
        <time>2019-11-02T11:19:16Z</time>
      </trkpt>
      <trkpt lat="38.568746745586395" lon="-2.387127466499805">
        <ele>1311</ele>
        <time>2019-11-02T11:19:21Z</time>
      </trkpt>
      <trkpt lat="38.568787733092904" lon="-2.387029230594635">
        <ele>1311.800048828125</ele>
        <time>2019-11-02T11:19:25Z</time>
      </trkpt>
      <trkpt lat="38.568822350353003" lon="-2.386969719082117">
        <ele>1312.199951171875</ele>
        <time>2019-11-02T11:19:28Z</time>
      </trkpt>
      <trkpt lat="38.56888135895133" lon="-2.386868549510837">
        <ele>1312.5999755859375</ele>
        <time>2019-11-02T11:19:33Z</time>
      </trkpt>
      <trkpt lat="38.568929471075535" lon="-2.386832423508167">
        <ele>1312.800048828125</ele>
        <time>2019-11-02T11:19:36Z</time>
      </trkpt>
      <trkpt lat="38.568968027830124" lon="-2.386844409629703">
        <ele>1312.800048828125</ele>
        <time>2019-11-02T11:19:38Z</time>
      </trkpt>
      <trkpt lat="38.569007171317935" lon="-2.386885732412338">
        <ele>1313</ele>
        <time>2019-11-02T11:19:41Z</time>
      </trkpt>
      <trkpt lat="38.56904162093997" lon="-2.386940130963922">
        <ele>1313</ele>
        <time>2019-11-02T11:19:44Z</time>
      </trkpt>
      <trkpt lat="38.569054948166013" lon="-2.386958068236709">
        <ele>1313.199951171875</ele>
        <time>2019-11-02T11:19:45Z</time>
      </trkpt>
      <trkpt lat="38.569169109687209" lon="-2.387102488428354">
        <ele>1313.800048828125</ele>
        <time>2019-11-02T11:19:53Z</time>
      </trkpt>
      <trkpt lat="38.56923608109355" lon="-2.387189911678433">
        <ele>1314.199951171875</ele>
        <time>2019-11-02T11:19:58Z</time>
      </trkpt>
      <trkpt lat="38.569282181560993" lon="-2.387277334928513">
        <ele>1314.5999755859375</ele>
        <time>2019-11-02T11:20:02Z</time>
      </trkpt>
      <trkpt lat="38.569326102733612" lon="-2.387432148680091">
        <ele>1315.4000244140625</ele>
        <time>2019-11-02T11:20:08Z</time>
      </trkpt>
      <trkpt lat="38.569342698901892" lon="-2.387527534738183">
        <ele>1315.5999755859375</ele>
        <time>2019-11-02T11:20:11Z</time>
      </trkpt>
      <trkpt lat="38.569334400817752" lon="-2.387729873880744">
        <ele>1316.4000244140625</ele>
        <time>2019-11-02T11:20:17Z</time>
      </trkpt>
      <trkpt lat="38.569327695295215" lon="-2.387828109785914">
        <ele>1317</ele>
        <time>2019-11-02T11:20:20Z</time>
      </trkpt>
      <trkpt lat="38.569320235401392" lon="-2.387967249378562">
        <ele>1317.5999755859375</ele>
        <time>2019-11-02T11:20:24Z</time>
      </trkpt>
      <trkpt lat="38.569306991994381" lon="-2.388136144727468">
        <ele>1318.199951171875</ele>
        <time>2019-11-02T11:20:29Z</time>
      </trkpt>
      <trkpt lat="38.569301711395383" lon="-2.388241086155176">
        <ele>1318.800048828125</ele>
        <time>2019-11-02T11:20:32Z</time>
      </trkpt>
      <trkpt lat="38.569298610091209" lon="-2.388485921546817">
        <ele>1320</ele>
        <time>2019-11-02T11:20:39Z</time>
      </trkpt>
      <trkpt lat="38.569300035014749" lon="-2.388518443331122">
        <ele>1320</ele>
        <time>2019-11-02T11:20:40Z</time>
      </trkpt>
      <trkpt lat="38.569347225129604" lon="-2.388771828263998">
        <ele>1320.4000244140625</ele>
        <time>2019-11-02T11:20:48Z</time>
      </trkpt>
      <trkpt lat="38.569423668086529" lon="-2.389078857377172">
        <ele>1320.199951171875</ele>
        <time>2019-11-02T11:20:56Z</time>
      </trkpt>
      <trkpt lat="38.569496842101216" lon="-2.389367027208209">
        <ele>1320.199951171875</ele>
        <time>2019-11-02T11:21:03Z</time>
      </trkpt>
      <trkpt lat="38.569589462131262" lon="-2.389754354953766">
        <ele>1320.199951171875</ele>
        <time>2019-11-02T11:21:12Z</time>
      </trkpt>
      <trkpt lat="38.569687949493527" lon="-2.390259532257915">
        <ele>1320.4000244140625</ele>
        <time>2019-11-02T11:21:23Z</time>
      </trkpt>
      <trkpt lat="38.569711335003376" lon="-2.390634538605809">
        <ele>1320.199951171875</ele>
        <time>2019-11-02T11:21:31Z</time>
      </trkpt>
      <trkpt lat="38.569700438529253" lon="-2.391071990132332">
        <ele>1320.199951171875</ele>
        <time>2019-11-02T11:21:40Z</time>
      </trkpt>
      <trkpt lat="38.569688955321908" lon="-2.391362087801099">
        <ele>1320.4000244140625</ele>
        <time>2019-11-02T11:21:46Z</time>
      </trkpt>
      <trkpt lat="38.569679902866483" lon="-2.391712283715606">
        <ele>1321</ele>
        <time>2019-11-02T11:21:53Z</time>
      </trkpt>
      <trkpt lat="38.569673616439104" lon="-2.391806747764349">
        <ele>1321.4000244140625</ele>
        <time>2019-11-02T11:21:55Z</time>
      </trkpt>
      <trkpt lat="38.569662384688854" lon="-2.392046889290214">
        <ele>1321.5999755859375</ele>
        <time>2019-11-02T11:22:00Z</time>
      </trkpt>
      <trkpt lat="38.56964603997767" lon="-2.392438240349293">
        <ele>1321.199951171875</ele>
        <time>2019-11-02T11:22:08Z</time>
      </trkpt>
      <trkpt lat="38.569702869281173" lon="-2.392646949738264">
        <ele>1321.4000244140625</ele>
        <time>2019-11-02T11:22:13Z</time>
      </trkpt>
      <trkpt lat="38.569837147369981" lon="-2.392787933349609">
        <ele>1322</ele>
        <time>2019-11-02T11:22:18Z</time>
      </trkpt>
      <trkpt lat="38.57003060169518" lon="-2.39285146817565">
        <ele>1322.199951171875</ele>
        <time>2019-11-02T11:22:24Z</time>
      </trkpt>
      <trkpt lat="38.570311814546585" lon="-2.39292866550386">
        <ele>1322.5999755859375</ele>
        <time>2019-11-02T11:22:32Z</time>
      </trkpt>
      <trkpt lat="38.570347856730223" lon="-2.39294333383441">
        <ele>1322.800048828125</ele>
        <time>2019-11-02T11:22:33Z</time>
      </trkpt>
      <trkpt lat="38.570551285520196" lon="-2.393094962462783">
        <ele>1323</ele>
        <time>2019-11-02T11:22:39Z</time>
      </trkpt>
      <trkpt lat="38.570817410945892" lon="-2.393352789804339">
        <ele>1323.800048828125</ele>
        <time>2019-11-02T11:22:48Z</time>
      </trkpt>
      <trkpt lat="38.570841131731868" lon="-2.393391262739897">
        <ele>1323.800048828125</ele>
        <time>2019-11-02T11:22:49Z</time>
      </trkpt>
      <trkpt lat="38.570943390950561" lon="-2.393670044839382">
        <ele>1324.199951171875</ele>
        <time>2019-11-02T11:22:55Z</time>
      </trkpt>
      <trkpt lat="38.570979936048388" lon="-2.394085535779595">
        <ele>1324.4000244140625</ele>
        <time>2019-11-02T11:23:03Z</time>
      </trkpt>
      <trkpt lat="38.570973733440042" lon="-2.394377309828997">
        <ele>1324.800048828125</ele>
        <time>2019-11-02T11:23:09Z</time>
      </trkpt>
      <trkpt lat="38.570972643792629" lon="-2.394428942352533">
        <ele>1324.800048828125</ele>
        <time>2019-11-02T11:23:10Z</time>
      </trkpt>
      <trkpt lat="38.571008434519172" lon="-2.394693978130817">
        <ele>1325.5999755859375</ele>
        <time>2019-11-02T11:23:16Z</time>
      </trkpt>
      <trkpt lat="38.571064844727516" lon="-2.394812665879726">
        <ele>1326.199951171875</ele>
        <time>2019-11-02T11:23:19Z</time>
      </trkpt>
      <trkpt lat="38.571142964065075" lon="-2.394902016967535">
        <ele>1326.199951171875</ele>
        <time>2019-11-02T11:23:22Z</time>
      </trkpt>
      <trkpt lat="38.571379166096449" lon="-2.395065715536475">
        <ele>1326.800048828125</ele>
        <time>2019-11-02T11:23:29Z</time>
      </trkpt>
      <trkpt lat="38.571695247665048" lon="-2.395237209275365">
        <ele>1327.199951171875</ele>
        <time>2019-11-02T11:23:38Z</time>
      </trkpt>
      <trkpt lat="38.571974448859692" lon="-2.395344916731119">
        <ele>1327</ele>
        <time>2019-11-02T11:23:46Z</time>
      </trkpt>
      <trkpt lat="38.572293715551496" lon="-2.395456060767174">
        <ele>1326.199951171875</ele>
        <time>2019-11-02T11:23:55Z</time>
      </trkpt>
      <trkpt lat="38.572556572034955" lon="-2.395548177883029">
        <ele>1325.199951171875</ele>
        <time>2019-11-02T11:24:03Z</time>
      </trkpt>
      <trkpt lat="38.572837701067328" lon="-2.395712798461318">
        <ele>1325.800048828125</ele>
        <time>2019-11-02T11:24:12Z</time>
      </trkpt>
      <trkpt lat="38.573015900328755" lon="-2.395928800106049">
        <ele>1325.800048828125</ele>
        <time>2019-11-02T11:24:19Z</time>
      </trkpt>
      <trkpt lat="38.573111286386847" lon="-2.396060479804873">
        <ele>1326.199951171875</ele>
        <time>2019-11-02T11:24:23Z</time>
      </trkpt>
      <trkpt lat="38.573217652738094" lon="-2.396216215565801">
        <ele>1327.4000244140625</ele>
        <time>2019-11-02T11:24:28Z</time>
      </trkpt>
      <trkpt lat="38.573236931115389" lon="-2.396244797855616">
        <ele>1327.5999755859375</ele>
        <time>2019-11-02T11:24:29Z</time>
      </trkpt>
      <trkpt lat="38.57343683950603" lon="-2.396543612703681">
        <ele>1328.199951171875</ele>
        <time>2019-11-02T11:24:39Z</time>
      </trkpt>
      <trkpt lat="38.573479922488332" lon="-2.396602034568787">
        <ele>1328.5999755859375</ele>
        <time>2019-11-02T11:24:41Z</time>
      </trkpt>
      <trkpt lat="38.573584361001849" lon="-2.396748047322035">
        <ele>1329.800048828125</ele>
        <time>2019-11-02T11:24:46Z</time>
      </trkpt>
      <trkpt lat="38.573668850585818" lon="-2.396873356774449">
        <ele>1330.199951171875</ele>
        <time>2019-11-02T11:24:50Z</time>
      </trkpt>
      <trkpt lat="38.573744287714362" lon="-2.397048706188798">
        <ele>1330.800048828125</ele>
        <time>2019-11-02T11:24:55Z</time>
      </trkpt>
      <trkpt lat="38.573761722072959" lon="-2.397130848839879">
        <ele>1331</ele>
        <time>2019-11-02T11:24:57Z</time>
      </trkpt>
      <trkpt lat="38.573758285492659" lon="-2.397383730858564">
        <ele>1331.5999755859375</ele>
        <time>2019-11-02T11:25:03Z</time>
      </trkpt>
      <trkpt lat="38.573754513636231" lon="-2.397426143288612">
        <ele>1331.800048828125</ele>
        <time>2019-11-02T11:25:04Z</time>
      </trkpt>
      <trkpt lat="38.573732133954763" lon="-2.397670475766063">
        <ele>1332.4000244140625</ele>
        <time>2019-11-02T11:25:10Z</time>
      </trkpt>
      <trkpt lat="38.573725763708353" lon="-2.397749433293939">
        <ele>1332.800048828125</ele>
        <time>2019-11-02T11:25:12Z</time>
      </trkpt>
      <trkpt lat="38.573702126741409" lon="-2.397993514314294">
        <ele>1333.800048828125</ele>
        <time>2019-11-02T11:25:18Z</time>
      </trkpt>
      <trkpt lat="38.573698690161109" lon="-2.39807490259409">
        <ele>1334.199951171875</ele>
        <time>2019-11-02T11:25:20Z</time>
      </trkpt>
      <trkpt lat="38.573677819222212" lon="-2.398345470428467">
        <ele>1335</ele>
        <time>2019-11-02T11:25:26Z</time>
      </trkpt>
      <trkpt lat="38.57366843149066" lon="-2.398440940305591">
        <ele>1335.199951171875</ele>
        <time>2019-11-02T11:25:28Z</time>
      </trkpt>
      <trkpt lat="38.573614452034235" lon="-2.399010742083192">
        <ele>1335.199951171875</ele>
        <time>2019-11-02T11:25:39Z</time>
      </trkpt>
      <trkpt lat="38.573571033775806" lon="-2.399451294913888">
        <ele>1335.199951171875</ele>
        <time>2019-11-02T11:25:47Z</time>
      </trkpt>
      <trkpt lat="38.573559131473303" lon="-2.39956134930253">
        <ele>1335</ele>
        <time>2019-11-02T11:25:49Z</time>
      </trkpt>
      <trkpt lat="38.573500039055943" lon="-2.399829318746924">
        <ele>1335</ele>
        <time>2019-11-02T11:25:54Z</time>
      </trkpt>
      <trkpt lat="38.573340279981494" lon="-2.400163589045405">
        <ele>1335.199951171875</ele>
        <time>2019-11-02T11:26:01Z</time>
      </trkpt>
      <trkpt lat="38.573083207011223" lon="-2.40062752738595">
        <ele>1336</ele>
        <time>2019-11-02T11:26:12Z</time>
      </trkpt>
      <trkpt lat="38.572995699942112" lon="-2.400787454098463">
        <ele>1336.4000244140625</ele>
        <time>2019-11-02T11:26:16Z</time>
      </trkpt>
      <trkpt lat="38.572858739644289" lon="-2.401034217327833">
        <ele>1337</ele>
        <time>2019-11-02T11:26:22Z</time>
      </trkpt>
      <trkpt lat="38.572744410485029" lon="-2.401247872039676">
        <ele>1337.4000244140625</ele>
        <time>2019-11-02T11:26:27Z</time>
      </trkpt>
      <trkpt lat="38.572609126567841" lon="-2.401540316641331">
        <ele>1338</ele>
        <time>2019-11-02T11:26:34Z</time>
      </trkpt>
      <trkpt lat="38.572575682774186" lon="-2.40166537463665">
        <ele>1338.4000244140625</ele>
        <time>2019-11-02T11:26:37Z</time>
      </trkpt>
      <trkpt lat="38.572528660297394" lon="-2.401869390159845">
        <ele>1338.800048828125</ele>
        <time>2019-11-02T11:26:42Z</time>
      </trkpt>
      <trkpt lat="38.57245129533112" lon="-2.402125624939799">
        <ele>1339.5999755859375</ele>
        <time>2019-11-02T11:26:49Z</time>
      </trkpt>
      <trkpt lat="38.572427155449986" lon="-2.402184465900064">
        <ele>1339.5999755859375</ele>
        <time>2019-11-02T11:26:51Z</time>
      </trkpt>
      <trkpt lat="38.572316095232964" lon="-2.402424020692706">
        <ele>1339.800048828125</ele>
        <time>2019-11-02T11:26:58Z</time>
      </trkpt>
      <trkpt lat="38.572130519896746" lon="-2.402665670961142">
        <ele>1340</ele>
        <time>2019-11-02T11:27:05Z</time>
      </trkpt>
      <trkpt lat="38.571994481608272" lon="-2.402925593778491">
        <ele>1340</ele>
        <time>2019-11-02T11:27:12Z</time>
      </trkpt>
      <trkpt lat="38.571887947618961" lon="-2.403283081948757">
        <ele>1340.800048828125</ele>
        <time>2019-11-02T11:27:21Z</time>
      </trkpt>
      <trkpt lat="38.571817371994257" lon="-2.403465639799833">
        <ele>1341.800048828125</ele>
        <time>2019-11-02T11:27:26Z</time>
      </trkpt>
      <trkpt lat="38.57176523655653" lon="-2.403565384447575">
        <ele>1342.199951171875</ele>
        <time>2019-11-02T11:27:29Z</time>
      </trkpt>
      <trkpt lat="38.571584606543183" lon="-2.403838969767094">
        <ele>1342.5999755859375</ele>
        <time>2019-11-02T11:27:38Z</time>
      </trkpt>
      <trkpt lat="38.57148963958025" lon="-2.40399369969964">
        <ele>1343</ele>
        <time>2019-11-02T11:27:43Z</time>
      </trkpt>
      <trkpt lat="38.571441527456045" lon="-2.404091181233525">
        <ele>1343.5999755859375</ele>
        <time>2019-11-02T11:27:46Z</time>
      </trkpt>
      <trkpt lat="38.571434067562222" lon="-2.404202492907643">
        <ele>1344</ele>
        <time>2019-11-02T11:27:49Z</time>
      </trkpt>
      <trkpt lat="38.57144714333117" lon="-2.404274828732014">
        <ele>1344.199951171875</ele>
        <time>2019-11-02T11:27:51Z</time>
      </trkpt>
      <trkpt lat="38.571536913514137" lon="-2.404512707144022">
        <ele>1345.199951171875</ele>
        <time>2019-11-02T11:27:58Z</time>
      </trkpt>
      <trkpt lat="38.571563484147191" lon="-2.404583534225821">
        <ele>1345.5999755859375</ele>
        <time>2019-11-02T11:28:00Z</time>
      </trkpt>
      <trkpt lat="38.571628276258707" lon="-2.404757374897599">
        <ele>1346.4000244140625</ele>
        <time>2019-11-02T11:28:05Z</time>
      </trkpt>
      <trkpt lat="38.571684770286083" lon="-2.40489567629993">
        <ele>1346.5999755859375</ele>
        <time>2019-11-02T11:28:09Z</time>
      </trkpt>
      <trkpt lat="38.571828436106443" lon="-2.405099021270871">
        <ele>1347.199951171875</ele>
        <time>2019-11-02T11:28:16Z</time>
      </trkpt>
      <trkpt lat="38.571850899606943" lon="-2.405120059847832">
        <ele>1347.4000244140625</ele>
        <time>2019-11-02T11:28:17Z</time>
      </trkpt>
      <trkpt lat="38.571920720860362" lon="-2.40517714060843">
        <ele>1348.5999755859375</ele>
        <time>2019-11-02T11:28:20Z</time>
      </trkpt>
      <trkpt lat="38.572014179080725" lon="-2.405246710404754">
        <ele>1349</ele>
        <time>2019-11-02T11:28:24Z</time>
      </trkpt>
      <trkpt lat="38.572156587615609" lon="-2.405341845005751">
        <ele>1349.5999755859375</ele>
        <time>2019-11-02T11:28:30Z</time>
      </trkpt>
      <trkpt lat="38.572229091078043" lon="-2.40539020858705">
        <ele>1350.199951171875</ele>
        <time>2019-11-02T11:28:33Z</time>
      </trkpt>
      <trkpt lat="38.572371080517769" lon="-2.405476542189717">
        <ele>1350.5999755859375</ele>
        <time>2019-11-02T11:28:39Z</time>
      </trkpt>
      <trkpt lat="38.57249328866601" lon="-2.405563713982701">
        <ele>1351.800048828125</ele>
        <time>2019-11-02T11:28:45Z</time>
      </trkpt>
      <trkpt lat="38.572549782693386" lon="-2.405620627105236">
        <ele>1352.5999755859375</ele>
        <time>2019-11-02T11:28:48Z</time>
      </trkpt>
      <trkpt lat="38.572584735229611" lon="-2.405662955716252">
        <ele>1352.800048828125</ele>
        <time>2019-11-02T11:28:50Z</time>
      </trkpt>
      <trkpt lat="38.572672577574849" lon="-2.405803268775344">
        <ele>1354</ele>
        <time>2019-11-02T11:28:55Z</time>
      </trkpt>
      <trkpt lat="38.572770394384861" lon="-2.406050786375999">
        <ele>1355.199951171875</ele>
        <time>2019-11-02T11:29:02Z</time>
      </trkpt>
      <trkpt lat="38.572805766016245" lon="-2.406152123585343">
        <ele>1355.5999755859375</ele>
        <time>2019-11-02T11:29:05Z</time>
      </trkpt>
      <trkpt lat="38.572868295013905" lon="-2.406347170472145">
        <ele>1356.199951171875</ele>
        <time>2019-11-02T11:29:11Z</time>
      </trkpt>
      <trkpt lat="38.572918921709061" lon="-2.406511288136244">
        <ele>1356.800048828125</ele>
        <time>2019-11-02T11:29:16Z</time>
      </trkpt>
      <trkpt lat="38.572950605303049" lon="-2.406613128259778">
        <ele>1357.4000244140625</ele>
        <time>2019-11-02T11:29:19Z</time>
      </trkpt>
      <trkpt lat="38.572999807074666" lon="-2.406775904819369">
        <ele>1358.4000244140625</ele>
        <time>2019-11-02T11:29:24Z</time>
      </trkpt>
      <trkpt lat="38.573017325252295" lon="-2.406839188188314">
        <ele>1358.800048828125</ele>
        <time>2019-11-02T11:29:26Z</time>
      </trkpt>
      <trkpt lat="38.573069712147117" lon="-2.406998192891479">
        <ele>1359.5999755859375</ele>
        <time>2019-11-02T11:29:31Z</time>
      </trkpt>
      <trkpt lat="38.573148250579834" lon="-2.407180834561586">
        <ele>1360.4000244140625</ele>
        <time>2019-11-02T11:29:37Z</time>
      </trkpt>
      <trkpt lat="38.573165265843272" lon="-2.407209416851401">
        <ele>1360.5999755859375</ele>
        <time>2019-11-02T11:29:38Z</time>
      </trkpt>
      <trkpt lat="38.573323935270309" lon="-2.407413851469755">
        <ele>1361.5999755859375</ele>
        <time>2019-11-02T11:29:46Z</time>
      </trkpt>
      <trkpt lat="38.573473887518048" lon="-2.407582914456725">
        <ele>1362.800048828125</ele>
        <time>2019-11-02T11:29:53Z</time>
      </trkpt>
      <trkpt lat="38.573533399030566" lon="-2.407654244452715">
        <ele>1363.4000244140625</ele>
        <time>2019-11-02T11:29:56Z</time>
      </trkpt>
      <trkpt lat="38.573571285232902" lon="-2.407701686024666">
        <ele>1364</ele>
        <time>2019-11-02T11:29:58Z</time>
      </trkpt>
      <trkpt lat="38.573683016002178" lon="-2.407859433442354">
        <ele>1364.800048828125</ele>
        <time>2019-11-02T11:30:05Z</time>
      </trkpt>
      <trkpt lat="38.57369969598949" lon="-2.407882735133171">
        <ele>1365</ele>
        <time>2019-11-02T11:30:06Z</time>
      </trkpt>
      <trkpt lat="38.573811175301671" lon="-2.408053977414966">
        <ele>1366.199951171875</ele>
        <time>2019-11-02T11:30:13Z</time>
      </trkpt>
      <trkpt lat="38.573828022927046" lon="-2.408079039305449">
        <ele>1366.4000244140625</ele>
        <time>2019-11-02T11:30:14Z</time>
      </trkpt>
      <trkpt lat="38.573897257447243" lon="-2.408177191391587">
        <ele>1367.199951171875</ele>
        <time>2019-11-02T11:30:18Z</time>
      </trkpt>
      <trkpt lat="38.574030445888638" lon="-2.40837475284934">
        <ele>1368</ele>
        <time>2019-11-02T11:30:26Z</time>
      </trkpt>
      <trkpt lat="38.574066488072276" lon="-2.408422362059355">
        <ele>1368.4000244140625</ele>
        <time>2019-11-02T11:30:28Z</time>
      </trkpt>
      <trkpt lat="38.574185175821185" lon="-2.408588826656342">
        <ele>1369.199951171875</ele>
        <time>2019-11-02T11:30:35Z</time>
      </trkpt>
      <trkpt lat="38.574263965710998" lon="-2.408715561032295">
        <ele>1369.5999755859375</ele>
        <time>2019-11-02T11:30:40Z</time>
      </trkpt>
      <trkpt lat="38.574359267950058" lon="-2.408871464431286">
        <ele>1370.5999755859375</ele>
        <time>2019-11-02T11:30:46Z</time>
      </trkpt>
      <trkpt lat="38.57437502592802" lon="-2.408896693959832">
        <ele>1370.5999755859375</ele>
        <time>2019-11-02T11:30:47Z</time>
      </trkpt>
      <trkpt lat="38.57449958100915" lon="-2.409114371985197">
        <ele>1371.800048828125</ele>
        <time>2019-11-02T11:30:55Z</time>
      </trkpt>
      <trkpt lat="38.574587758630514" lon="-2.409286703914404">
        <ele>1372</ele>
        <time>2019-11-02T11:31:01Z</time>
      </trkpt>
      <trkpt lat="38.574604941532016" lon="-2.409315705299377">
        <ele>1372.4000244140625</ele>
        <time>2019-11-02T11:31:02Z</time>
      </trkpt>
      <trkpt lat="38.574741650372744" lon="-2.409529611468315">
        <ele>1372.5999755859375</ele>
        <time>2019-11-02T11:31:10Z</time>
      </trkpt>
      <trkpt lat="38.574799066409469" lon="-2.409607646986842">
        <ele>1373</ele>
        <time>2019-11-02T11:31:13Z</time>
      </trkpt>
      <trkpt lat="38.574940720573068" lon="-2.409754581749439">
        <ele>1373.800048828125</ele>
        <time>2019-11-02T11:31:20Z</time>
      </trkpt>
      <trkpt lat="38.575052032247186" lon="-2.40982792340219">
        <ele>1374</ele>
        <time>2019-11-02T11:31:25Z</time>
      </trkpt>
      <trkpt lat="38.575146244838834" lon="-2.40988852456212">
        <ele>1374.4000244140625</ele>
        <time>2019-11-02T11:31:29Z</time>
      </trkpt>
      <trkpt lat="38.575289994478226" lon="-2.409974439069629">
        <ele>1375.199951171875</ele>
        <time>2019-11-02T11:31:35Z</time>
      </trkpt>
      <trkpt lat="38.575402731075883" lon="-2.410042835399508">
        <ele>1375.800048828125</ele>
        <time>2019-11-02T11:31:40Z</time>
      </trkpt>
      <trkpt lat="38.575445897877216" lon="-2.410070830956101">
        <ele>1376.199951171875</ele>
        <time>2019-11-02T11:31:42Z</time>
      </trkpt>
      <trkpt lat="38.575613955035806" lon="-2.410235032439232">
        <ele>1376.800048828125</ele>
        <time>2019-11-02T11:31:50Z</time>
      </trkpt>
      <trkpt lat="38.575714873149991" lon="-2.410424631088972">
        <ele>1376.800048828125</ele>
        <time>2019-11-02T11:31:57Z</time>
      </trkpt>
      <trkpt lat="38.575757117941976" lon="-2.410536194220185">
        <ele>1377.199951171875</ele>
        <time>2019-11-02T11:32:01Z</time>
      </trkpt>
      <trkpt lat="38.575820066034794" lon="-2.410744233056903">
        <ele>1378.199951171875</ele>
        <time>2019-11-02T11:32:08Z</time>
      </trkpt>
      <trkpt lat="38.57582819648087" lon="-2.410773234441876">
        <ele>1378.4000244140625</ele>
        <time>2019-11-02T11:32:09Z</time>
      </trkpt>
      <trkpt lat="38.575875470414758" lon="-2.410907093435526">
        <ele>1379.4000244140625</ele>
        <time>2019-11-02T11:32:14Z</time>
      </trkpt>
      <trkpt lat="38.575912099331617" lon="-2.411046233028173">
        <ele>1380</ele>
        <time>2019-11-02T11:32:19Z</time>
      </trkpt>
      <trkpt lat="38.575932383537292" lon="-2.411131644621491">
        <ele>1380.5999755859375</ele>
        <time>2019-11-02T11:32:22Z</time>
      </trkpt>
      <trkpt lat="38.575963312759995" lon="-2.411272209137678">
        <ele>1381.5999755859375</ele>
        <time>2019-11-02T11:32:27Z</time>
      </trkpt>
      <trkpt lat="38.575968341901898" lon="-2.411300037056208">
        <ele>1381.5999755859375</ele>
        <time>2019-11-02T11:32:28Z</time>
      </trkpt>
      <trkpt lat="38.575988374650478" lon="-2.411406487226486">
        <ele>1382.800048828125</ele>
        <time>2019-11-02T11:32:32Z</time>
      </trkpt>
      <trkpt lat="38.57600505463779" lon="-2.411520900204778">
        <ele>1383.800048828125</ele>
        <time>2019-11-02T11:32:36Z</time>
      </trkpt>
      <trkpt lat="38.57600899413228" lon="-2.411549901589751">
        <ele>1384.199951171875</ele>
        <time>2019-11-02T11:32:37Z</time>
      </trkpt>
      <trkpt lat="38.576019639149308" lon="-2.411658279597759">
        <ele>1385.199951171875</ele>
        <time>2019-11-02T11:32:41Z</time>
      </trkpt>
      <trkpt lat="38.576028859242797" lon="-2.411742266267538">
        <ele>1385.800048828125</ele>
        <time>2019-11-02T11:32:44Z</time>
      </trkpt>
      <trkpt lat="38.576036486774683" lon="-2.411800771951675">
        <ele>1386.4000244140625</ele>
        <time>2019-11-02T11:32:46Z</time>
      </trkpt>
      <trkpt lat="38.576064901426435" lon="-2.411994729191065">
        <ele>1386.800048828125</ele>
        <time>2019-11-02T11:32:53Z</time>
      </trkpt>
      <trkpt lat="38.576087532564998" lon="-2.41216647438705">
        <ele>1387.4000244140625</ele>
        <time>2019-11-02T11:32:59Z</time>
      </trkpt>
      <trkpt lat="38.576096585020423" lon="-2.412275020033121">
        <ele>1387.800048828125</ele>
        <time>2019-11-02T11:33:03Z</time>
      </trkpt>
      <trkpt lat="38.576115947216749" lon="-2.412467384710908">
        <ele>1388.4000244140625</ele>
        <time>2019-11-02T11:33:10Z</time>
      </trkpt>
      <trkpt lat="38.576124832034111" lon="-2.41252220235765">
        <ele>1388.800048828125</ele>
        <time>2019-11-02T11:33:12Z</time>
      </trkpt>
      <trkpt lat="38.576146960258484" lon="-2.412684643641114">
        <ele>1389.5999755859375</ele>
        <time>2019-11-02T11:33:18Z</time>
      </trkpt>
      <trkpt lat="38.576169675216079" lon="-2.412822777405381">
        <ele>1390.5999755859375</ele>
        <time>2019-11-02T11:33:23Z</time>
      </trkpt>
      <trkpt lat="38.576184595003724" lon="-2.412872649729252">
        <ele>1390.800048828125</ele>
        <time>2019-11-02T11:33:25Z</time>
      </trkpt>
      <trkpt lat="38.5762376524508" lon="-2.412984548136592">
        <ele>1392</ele>
        <time>2019-11-02T11:33:30Z</time>
      </trkpt>
      <trkpt lat="38.576272688806057" lon="-2.413049591705203">
        <ele>1392.4000244140625</ele>
        <time>2019-11-02T11:33:33Z</time>
      </trkpt>
      <trkpt lat="38.576308395713568" lon="-2.413113880902529">
        <ele>1393</ele>
        <time>2019-11-02T11:33:36Z</time>
      </trkpt>
      <trkpt lat="38.576378552243114" lon="-2.413224102929235">
        <ele>1394.199951171875</ele>
        <time>2019-11-02T11:33:41Z</time>
      </trkpt>
      <trkpt lat="38.576439907774329" lon="-2.413316303864121">
        <ele>1394.5999755859375</ele>
        <time>2019-11-02T11:33:45Z</time>
      </trkpt>
      <trkpt lat="38.576575359329581" lon="-2.413524426519871">
        <ele>1395</ele>
        <time>2019-11-02T11:33:54Z</time>
      </trkpt>
      <trkpt lat="38.576621878892183" lon="-2.413591900840402">
        <ele>1395.4000244140625</ele>
        <time>2019-11-02T11:33:57Z</time>
      </trkpt>
      <trkpt lat="38.576695723459125" lon="-2.413698183372617">
        <ele>1396.199951171875</ele>
        <time>2019-11-02T11:34:02Z</time>
      </trkpt>
      <trkpt lat="38.576710810884833" lon="-2.413717629387975">
        <ele>1396.4000244140625</ele>
        <time>2019-11-02T11:34:03Z</time>
      </trkpt>
      <trkpt lat="38.576862523332238" lon="-2.413907395675778">
        <ele>1397.800048828125</ele>
        <time>2019-11-02T11:34:13Z</time>
      </trkpt>
      <trkpt lat="38.576943324878812" lon="-2.414017450064421">
        <ele>1398.800048828125</ele>
        <time>2019-11-02T11:34:19Z</time>
      </trkpt>
      <trkpt lat="38.576980791985989" lon="-2.414077129215002">
        <ele>1399.4000244140625</ele>
        <time>2019-11-02T11:34:22Z</time>
      </trkpt>
      <trkpt lat="38.577035944908857" lon="-2.414157427847385">
        <ele>1400</ele>
        <time>2019-11-02T11:34:26Z</time>
      </trkpt>
      <trkpt lat="38.577080955728889" lon="-2.414254574105144">
        <ele>1401</ele>
        <time>2019-11-02T11:34:30Z</time>
      </trkpt>
      <trkpt lat="38.577143903821707" lon="-2.414442831650376">
        <ele>1402</ele>
        <time>2019-11-02T11:34:37Z</time>
      </trkpt>
      <trkpt lat="38.577147591859102" lon="-2.414469234645367">
        <ele>1402.199951171875</ele>
        <time>2019-11-02T11:34:38Z</time>
      </trkpt>
      <trkpt lat="38.577146753668785" lon="-2.414681715890765">
        <ele>1403.199951171875</ele>
        <time>2019-11-02T11:34:46Z</time>
      </trkpt>
      <trkpt lat="38.577142143622041" lon="-2.414707532152534">
        <ele>1403.199951171875</ele>
        <time>2019-11-02T11:34:47Z</time>
      </trkpt>
      <trkpt lat="38.577077519148588" lon="-2.414882462471724">
        <ele>1404</ele>
        <time>2019-11-02T11:34:54Z</time>
      </trkpt>
      <trkpt lat="38.577066287398338" lon="-2.41490576416254">
        <ele>1404.199951171875</ele>
        <time>2019-11-02T11:34:55Z</time>
      </trkpt>
      <trkpt lat="38.577019348740578" lon="-2.415001569315791">
        <ele>1405.4000244140625</ele>
        <time>2019-11-02T11:34:59Z</time>
      </trkpt>
      <trkpt lat="38.576998310163617" lon="-2.415049681439996">
        <ele>1405.800048828125</ele>
        <time>2019-11-02T11:35:01Z</time>
      </trkpt>
      <trkpt lat="38.576942821964622" lon="-2.415166944265366">
        <ele>1406.5999755859375</ele>
        <time>2019-11-02T11:35:06Z</time>
      </trkpt>
      <trkpt lat="38.576922873035073" lon="-2.415214888751507">
        <ele>1407</ele>
        <time>2019-11-02T11:35:08Z</time>
      </trkpt>
      <trkpt lat="38.576885908842087" lon="-2.415315890684724">
        <ele>1408</ele>
        <time>2019-11-02T11:35:12Z</time>
      </trkpt>
      <trkpt lat="38.576843496412039" lon="-2.415410857647657">
        <ele>1408.4000244140625</ele>
        <time>2019-11-02T11:35:16Z</time>
      </trkpt>
      <trkpt lat="38.576808292418718" lon="-2.415476739406586">
        <ele>1409</ele>
        <time>2019-11-02T11:35:19Z</time>
      </trkpt>
      <trkpt lat="38.576728831976652" lon="-2.415620237588882">
        <ele>1410</ele>
        <time>2019-11-02T11:35:26Z</time>
      </trkpt>
      <trkpt lat="38.576717097312212" lon="-2.415638761594892">
        <ele>1410.199951171875</ele>
        <time>2019-11-02T11:35:27Z</time>
      </trkpt>
      <trkpt lat="38.576646018773317" lon="-2.415755102410913">
        <ele>1411.4000244140625</ele>
        <time>2019-11-02T11:35:33Z</time>
      </trkpt>
      <trkpt lat="38.576601762324572" lon="-2.415799107402563">
        <ele>1412.199951171875</ele>
        <time>2019-11-02T11:35:36Z</time>
      </trkpt>
      <trkpt lat="38.576570833101869" lon="-2.415829701349139">
        <ele>1412.4000244140625</ele>
        <time>2019-11-02T11:35:38Z</time>
      </trkpt>
      <trkpt lat="38.576495982706547" lon="-2.415924500674009">
        <ele>1412.5999755859375</ele>
        <time>2019-11-02T11:35:44Z</time>
      </trkpt>
      <trkpt lat="38.576379977166653" lon="-2.416031286120415">
        <ele>1412.4000244140625</ele>
        <time>2019-11-02T11:35:52Z</time>
      </trkpt>
      <trkpt lat="38.576268749311566" lon="-2.41611753590405">
        <ele>1413.800048828125</ele>
        <time>2019-11-02T11:35:58Z</time>
      </trkpt>
      <trkpt lat="38.576249554753304" lon="-2.416130863130093">
        <ele>1414</ele>
        <time>2019-11-02T11:35:59Z</time>
      </trkpt>
      <trkpt lat="38.576128520071507" lon="-2.416225410997868">
        <ele>1414.4000244140625</ele>
        <time>2019-11-02T11:36:06Z</time>
      </trkpt>
      <trkpt lat="38.576043108478189" lon="-2.416277127340436">
        <ele>1415</ele>
        <time>2019-11-02T11:36:11Z</time>
      </trkpt>
      <trkpt lat="38.575999103486538" lon="-2.416322808712721">
        <ele>1415.4000244140625</ele>
        <time>2019-11-02T11:36:14Z</time>
      </trkpt>
      <trkpt lat="38.575887372717261" lon="-2.41642682813108">
        <ele>1416</ele>
        <time>2019-11-02T11:36:21Z</time>
      </trkpt>
      <trkpt lat="38.575872117653489" lon="-2.416443256661296">
        <ele>1416.199951171875</ele>
        <time>2019-11-02T11:36:22Z</time>
      </trkpt>
      <trkpt lat="38.575792238116264" lon="-2.416519867256284">
        <ele>1417.4000244140625</ele>
        <time>2019-11-02T11:36:27Z</time>
      </trkpt>
      <trkpt lat="38.57570942491293" lon="-2.416603267192841">
        <ele>1418.4000244140625</ele>
        <time>2019-11-02T11:36:32Z</time>
      </trkpt>
      <trkpt lat="38.575680758804083" lon="-2.416639309376478">
        <ele>1418.800048828125</ele>
        <time>2019-11-02T11:36:34Z</time>
      </trkpt>
      <trkpt lat="38.57563222758472" lon="-2.41669706068933">
        <ele>1419.5999755859375</ele>
        <time>2019-11-02T11:36:37Z</time>
      </trkpt>
      <trkpt lat="38.575593670830131" lon="-2.416766965761781">
        <ele>1420.199951171875</ele>
        <time>2019-11-02T11:36:40Z</time>
      </trkpt>
      <trkpt lat="38.575564417988062" lon="-2.416881797835231">
        <ele>1420.5999755859375</ele>
        <time>2019-11-02T11:36:44Z</time>
      </trkpt>
      <trkpt lat="38.575580008327961" lon="-2.416948853060603">
        <ele>1421</ele>
        <time>2019-11-02T11:36:46Z</time>
      </trkpt>
      <trkpt lat="38.575665587559342" lon="-2.417080700397491">
        <ele>1421.800048828125</ele>
        <time>2019-11-02T11:36:51Z</time>
      </trkpt>
      <trkpt lat="38.575685452669859" lon="-2.417099140584469">
        <ele>1422</ele>
        <time>2019-11-02T11:36:52Z</time>
      </trkpt>
      <trkpt lat="38.57588242739439" lon="-2.417256804183125">
        <ele>1422.800048828125</ele>
        <time>2019-11-02T11:37:02Z</time>
      </trkpt>
      <trkpt lat="38.575904052704573" lon="-2.417272059246898">
        <ele>1423</ele>
        <time>2019-11-02T11:37:03Z</time>
      </trkpt>
      <trkpt lat="38.576012598350644" lon="-2.417353363707662">
        <ele>1424</ele>
        <time>2019-11-02T11:37:08Z</time>
      </trkpt>
      <trkpt lat="38.576074708253145" lon="-2.417407929897308">
        <ele>1424.5999755859375</ele>
        <time>2019-11-02T11:37:11Z</time>
      </trkpt>
      <trkpt lat="38.576167747378349" lon="-2.417508093640208">
        <ele>1425</ele>
        <time>2019-11-02T11:37:16Z</time>
      </trkpt>
      <trkpt lat="38.576222565025091" lon="-2.417571879923344">
        <ele>1425.4000244140625</ele>
        <time>2019-11-02T11:37:19Z</time>
      </trkpt>
      <trkpt lat="38.576283333823085" lon="-2.417665170505643">
        <ele>1426.199951171875</ele>
        <time>2019-11-02T11:37:23Z</time>
      </trkpt>
      <trkpt lat="38.576330607756972" lon="-2.417753851041198">
        <ele>1427.199951171875</ele>
        <time>2019-11-02T11:37:27Z</time>
      </trkpt>
      <trkpt lat="38.576361956074834" lon="-2.417829288169742">
        <ele>1428.199951171875</ele>
        <time>2019-11-02T11:37:33Z</time>
      </trkpt>
      <trkpt lat="38.576362626627088" lon="-2.417829371988773">
        <ele>1428.199951171875</ele>
        <time>2019-11-02T11:37:37Z</time>
      </trkpt>
      <trkpt lat="38.576362710446119" lon="-2.417829036712646">
        <ele>1429</ele>
        <time>2019-11-02T11:37:53Z</time>
      </trkpt>
      <trkpt lat="38.576362626627088" lon="-2.417828952893615">
        <ele>1429.4000244140625</ele>
        <time>2019-11-02T11:38:04Z</time>
      </trkpt>
      <trkpt lat="38.576362794265151" lon="-2.417829288169742">
        <ele>1429.199951171875</ele>
        <time>2019-11-02T11:38:15Z</time>
      </trkpt>
      <trkpt lat="38.576362878084183" lon="-2.417828869074583">
        <ele>1428.800048828125</ele>
        <time>2019-11-02T11:38:38Z</time>
      </trkpt>
      <trkpt lat="38.576363045722246" lon="-2.41782727651298">
        <ele>1428.4000244140625</ele>
        <time>2019-11-02T11:39:03Z</time>
      </trkpt>
      <trkpt lat="38.576362961903214" lon="-2.417827108874917">
        <ele>1428.4000244140625</ele>
        <time>2019-11-02T11:39:05Z</time>
      </trkpt>
      <trkpt lat="38.576362626627088" lon="-2.417826689779758">
        <ele>1428</ele>
        <time>2019-11-02T11:39:24Z</time>
      </trkpt>
      <trkpt lat="38.576364470645785" lon="-2.417826103046536">
        <ele>1428.5999755859375</ele>
        <time>2019-11-02T11:39:36Z</time>
      </trkpt>
      <trkpt lat="38.576364638283849" lon="-2.417825683951378">
        <ele>1428.800048828125</ele>
        <time>2019-11-02T11:39:52Z</time>
      </trkpt>
      <trkpt lat="38.576364554464817" lon="-2.417824426665902">
        <ele>1428.800048828125</ele>
        <time>2019-11-02T11:40:30Z</time>
      </trkpt>
      <trkpt lat="38.576364805921912" lon="-2.417824259027839">
        <ele>1429.4000244140625</ele>
        <time>2019-11-02T11:41:03Z</time>
      </trkpt>
      <trkpt lat="38.576364554464817" lon="-2.417825013399124">
        <ele>1429</ele>
        <time>2019-11-02T11:41:28Z</time>
      </trkpt>
      <trkpt lat="38.576367991045117" lon="-2.417846890166402">
        <ele>1428.199951171875</ele>
        <time>2019-11-02T11:41:56Z</time>
      </trkpt>
      <trkpt lat="38.576418869197369" lon="-2.417982174083591">
        <ele>1428.800048828125</ele>
        <time>2019-11-02T11:42:02Z</time>
      </trkpt>
      <trkpt lat="38.576478883624077" lon="-2.418187614530325">
        <ele>1429.5999755859375</ele>
        <time>2019-11-02T11:42:09Z</time>
      </trkpt>
      <trkpt lat="38.57652934268117" lon="-2.418369250372052">
        <ele>1430</ele>
        <time>2019-11-02T11:42:15Z</time>
      </trkpt>
      <trkpt lat="38.576569156721234" lon="-2.418523477390409">
        <ele>1430.4000244140625</ele>
        <time>2019-11-02T11:42:20Z</time>
      </trkpt>
      <trkpt lat="38.576656579971313" lon="-2.418698240071535">
        <ele>1430.5999755859375</ele>
        <time>2019-11-02T11:42:27Z</time>
      </trkpt>
      <trkpt lat="38.576663536950946" lon="-2.418762277811766">
        <ele>1430.800048828125</ele>
        <time>2019-11-02T11:42:30Z</time>
      </trkpt>
      <trkpt lat="38.576658591628075" lon="-2.418780298903584">
        <ele>1431</ele>
        <time>2019-11-02T11:42:31Z</time>
      </trkpt>
      <trkpt lat="38.576643252745271" lon="-2.418832601979375">
        <ele>1431.5999755859375</ele>
        <time>2019-11-02T11:42:34Z</time>
      </trkpt>
      <trkpt lat="38.576628752052784" lon="-2.41886462084949">
        <ele>1432</ele>
        <time>2019-11-02T11:42:36Z</time>
      </trkpt>
      <trkpt lat="38.576586255803704" lon="-2.418910637497902">
        <ele>1432.800048828125</ele>
        <time>2019-11-02T11:42:40Z</time>
      </trkpt>
      <trkpt lat="38.576569743454456" lon="-2.418941734358668">
        <ele>1433.199951171875</ele>
        <time>2019-11-02T11:42:42Z</time>
      </trkpt>
      <trkpt lat="38.576531354337931" lon="-2.419014321640134">
        <ele>1434.199951171875</ele>
        <time>2019-11-02T11:42:47Z</time>
      </trkpt>
      <trkpt lat="38.576524564996362" lon="-2.419026726856828">
        <ele>1434.5999755859375</ele>
        <time>2019-11-02T11:42:48Z</time>
      </trkpt>
      <trkpt lat="38.576480392366648" lon="-2.419080538675189">
        <ele>1435.4000244140625</ele>
        <time>2019-11-02T11:42:53Z</time>
      </trkpt>
      <trkpt lat="38.5764379799366" lon="-2.419112725183368">
        <ele>1436</ele>
        <time>2019-11-02T11:42:57Z</time>
      </trkpt>
      <trkpt lat="38.576419539749622" lon="-2.419148599728942">
        <ele>1436.5999755859375</ele>
        <time>2019-11-02T11:43:00Z</time>
      </trkpt>
      <trkpt lat="38.576382994651794" lon="-2.419208697974682">
        <ele>1437.4000244140625</ele>
        <time>2019-11-02T11:43:05Z</time>
      </trkpt>
      <trkpt lat="38.576378133147955" lon="-2.41922227665782">
        <ele>1437.5999755859375</ele>
        <time>2019-11-02T11:43:06Z</time>
      </trkpt>
      <trkpt lat="38.576348209753633" lon="-2.419281201437116">
        <ele>1438.800048828125</ele>
        <time>2019-11-02T11:43:11Z</time>
      </trkpt>
      <trkpt lat="38.576325578615069" lon="-2.419317243620753">
        <ele>1439.4000244140625</ele>
        <time>2019-11-02T11:43:14Z</time>
      </trkpt>
      <trkpt lat="38.576312167569995" lon="-2.41934540681541">
        <ele>1440</ele>
        <time>2019-11-02T11:43:16Z</time>
      </trkpt>
      <trkpt lat="38.576295236125588" lon="-2.419405337423086">
        <ele>1440.800048828125</ele>
        <time>2019-11-02T11:43:20Z</time>
      </trkpt>
      <trkpt lat="38.576292051002383" lon="-2.419419754296541">
        <ele>1441</ele>
        <time>2019-11-02T11:43:21Z</time>
      </trkpt>
      <trkpt lat="38.576259864494205" lon="-2.419542884454131">
        <ele>1442</ele>
        <time>2019-11-02T11:43:30Z</time>
      </trkpt>
      <trkpt lat="38.576254080981016" lon="-2.419570293277502">
        <ele>1442.5999755859375</ele>
        <time>2019-11-02T11:43:32Z</time>
      </trkpt>
      <trkpt lat="38.57624008320272" lon="-2.41962343454361">
        <ele>1443.199951171875</ele>
        <time>2019-11-02T11:43:36Z</time>
      </trkpt>
      <trkpt lat="38.576236730441451" lon="-2.419636677950621">
        <ele>1443.199951171875</ele>
        <time>2019-11-02T11:43:37Z</time>
      </trkpt>
      <trkpt lat="38.576217200607061" lon="-2.419697782024741">
        <ele>1444.199951171875</ele>
        <time>2019-11-02T11:43:42Z</time>
      </trkpt>
      <trkpt lat="38.576190713793039" lon="-2.419756539165974">
        <ele>1445.199951171875</ele>
        <time>2019-11-02T11:43:47Z</time>
      </trkpt>
      <trkpt lat="38.576182834804058" lon="-2.41976710036397">
        <ele>1445.4000244140625</ele>
        <time>2019-11-02T11:43:48Z</time>
      </trkpt>
      <trkpt lat="38.576159784570336" lon="-2.419798113405704">
        <ele>1446</ele>
        <time>2019-11-02T11:43:51Z</time>
      </trkpt>
      <trkpt lat="38.576153162866831" lon="-2.419806830585003">
        <ele>1446.199951171875</ele>
        <time>2019-11-02T11:43:52Z</time>
      </trkpt>
      <trkpt lat="38.576112175360322" lon="-2.419843627139926">
        <ele>1446.5999755859375</ele>
        <time>2019-11-02T11:43:57Z</time>
      </trkpt>
      <trkpt lat="38.576076133176684" lon="-2.419873466715217">
        <ele>1447.4000244140625</ele>
        <time>2019-11-02T11:44:01Z</time>
      </trkpt>
      <trkpt lat="38.576025506481528" lon="-2.419900959357619">
        <ele>1447.5999755859375</ele>
        <time>2019-11-02T11:44:06Z</time>
      </trkpt>
      <trkpt lat="38.576003713533282" lon="-2.419911604374647">
        <ele>1447.800048828125</ele>
        <time>2019-11-02T11:44:08Z</time>
      </trkpt>
      <trkpt lat="38.575895419344306" lon="-2.419954854995012">
        <ele>1448.800048828125</ele>
        <time>2019-11-02T11:44:17Z</time>
      </trkpt>
      <trkpt lat="38.575815875083208" lon="-2.419980335980654">
        <ele>1449.800048828125</ele>
        <time>2019-11-02T11:44:24Z</time>
      </trkpt>
      <trkpt lat="38.575740270316601" lon="-2.420000536367297">
        <ele>1450.5999755859375</ele>
        <time>2019-11-02T11:44:31Z</time>
      </trkpt>
      <trkpt lat="38.575705653056502" lon="-2.420018976554275">
        <ele>1451.199951171875</ele>
        <time>2019-11-02T11:44:34Z</time>
      </trkpt>
      <trkpt lat="38.575652679428458" lon="-2.420052336528897">
        <ele>1452</ele>
        <time>2019-11-02T11:44:39Z</time>
      </trkpt>
      <trkpt lat="38.575643040239811" lon="-2.420057114213705">
        <ele>1452.199951171875</ele>
        <time>2019-11-02T11:44:40Z</time>
      </trkpt>
      <trkpt lat="38.575614793226123" lon="-2.420073710381985">
        <ele>1453.4000244140625</ele>
        <time>2019-11-02T11:44:43Z</time>
      </trkpt>
      <trkpt lat="38.575571961700916" lon="-2.420093910768628">
        <ele>1454</ele>
        <time>2019-11-02T11:44:47Z</time>
      </trkpt>
      <trkpt lat="38.575551677495241" lon="-2.42010279558599">
        <ele>1454.4000244140625</ele>
        <time>2019-11-02T11:44:49Z</time>
      </trkpt>
      <trkpt lat="38.575501888990402" lon="-2.420128947123885">
        <ele>1455.4000244140625</ele>
        <time>2019-11-02T11:44:55Z</time>
      </trkpt>
      <trkpt lat="38.575442461296916" lon="-2.420152584090829">
        <ele>1456.5999755859375</ele>
        <time>2019-11-02T11:45:00Z</time>
      </trkpt>
      <trkpt lat="38.575431229546666" lon="-2.420159121975303">
        <ele>1456.800048828125</ele>
        <time>2019-11-02T11:45:01Z</time>
      </trkpt>
      <trkpt lat="38.575348164886236" lon="-2.420203126966953">
        <ele>1457.5999755859375</ele>
        <time>2019-11-02T11:45:08Z</time>
      </trkpt>
      <trkpt lat="38.575336849316955" lon="-2.420213017612696">
        <ele>1457.800048828125</ele>
        <time>2019-11-02T11:45:09Z</time>
      </trkpt>
      <trkpt lat="38.575292089954019" lon="-2.42025232873857">
        <ele>1458.4000244140625</ele>
        <time>2019-11-02T11:45:13Z</time>
      </trkpt>
      <trkpt lat="38.575275158509612" lon="-2.420275462791324">
        <ele>1458.800048828125</ele>
        <time>2019-11-02T11:45:15Z</time>
      </trkpt>
      <trkpt lat="38.575266860425472" lon="-2.420285772532225">
        <ele>1459</ele>
        <time>2019-11-02T11:45:16Z</time>
      </trkpt>
      <trkpt lat="38.575252611190081" lon="-2.420310750603676">
        <ele>1459.5999755859375</ele>
        <time>2019-11-02T11:45:18Z</time>
      </trkpt>
      <trkpt lat="38.57523643411696" lon="-2.420337656512856">
        <ele>1460</ele>
        <time>2019-11-02T11:45:20Z</time>
      </trkpt>
      <trkpt lat="38.575229812413454" lon="-2.420351402834058">
        <ele>1460.4000244140625</ele>
        <time>2019-11-02T11:45:21Z</time>
      </trkpt>
      <trkpt lat="38.575223945081234" lon="-2.420365316793323">
        <ele>1460.800048828125</ele>
        <time>2019-11-02T11:45:22Z</time>
      </trkpt>
      <trkpt lat="38.575210114941001" lon="-2.420390965417027">
        <ele>1461.4000244140625</ele>
        <time>2019-11-02T11:45:24Z</time>
      </trkpt>
      <trkpt lat="38.57520223595202" lon="-2.420402951538563">
        <ele>1461.5999755859375</ele>
        <time>2019-11-02T11:45:25Z</time>
      </trkpt>
      <trkpt lat="38.575156554579735" lon="-2.420490793883801">
        <ele>1462.5999755859375</ele>
        <time>2019-11-02T11:45:32Z</time>
      </trkpt>
      <trkpt lat="38.575101401656866" lon="-2.42058165371418">
        <ele>1464</ele>
        <time>2019-11-02T11:45:39Z</time>
      </trkpt>
      <trkpt lat="38.575048847123981" lon="-2.420667568221688">
        <ele>1464</ele>
        <time>2019-11-02T11:45:46Z</time>
      </trkpt>
      <trkpt lat="38.575012972578406" lon="-2.42073655128479">
        <ele>1464.5999755859375</ele>
        <time>2019-11-02T11:45:52Z</time>
      </trkpt>
      <trkpt lat="38.574986150488257" lon="-2.420792207121849">
        <ele>1464.800048828125</ele>
        <time>2019-11-02T11:45:57Z</time>
      </trkpt>
      <trkpt lat="38.574979528784752" lon="-2.420802935957909">
        <ele>1465</ele>
        <time>2019-11-02T11:45:58Z</time>
      </trkpt>
      <trkpt lat="38.574972907081246" lon="-2.42081324569881">
        <ele>1465</ele>
        <time>2019-11-02T11:45:59Z</time>
      </trkpt>
      <trkpt lat="38.57491641305387" lon="-2.420875690877438">
        <ele>1465.5999755859375</ele>
        <time>2019-11-02T11:46:06Z</time>
      </trkpt>
      <trkpt lat="38.574879532679915" lon="-2.420906955376267">
        <ele>1466</ele>
        <time>2019-11-02T11:46:10Z</time>
      </trkpt>
      <trkpt lat="38.574836952611804" lon="-2.420926904305816">
        <ele>1466.4000244140625</ele>
        <time>2019-11-02T11:46:14Z</time>
      </trkpt>
      <trkpt lat="38.574808454141021" lon="-2.420943332836032">
        <ele>1467</ele>
        <time>2019-11-02T11:46:17Z</time>
      </trkpt>
      <trkpt lat="38.574751876294613" lon="-2.420969316735864">
        <ele>1467.800048828125</ele>
        <time>2019-11-02T11:46:21Z</time>
      </trkpt>
      <trkpt lat="38.574738381430507" lon="-2.420976022258401">
        <ele>1468</ele>
        <time>2019-11-02T11:46:22Z</time>
      </trkpt>
      <trkpt lat="38.574701333418489" lon="-2.420997396111488">
        <ele>1469.4000244140625</ele>
        <time>2019-11-02T11:46:26Z</time>
      </trkpt>
      <trkpt lat="38.574688257649541" lon="-2.420999994501472">
        <ele>1469.4000244140625</ele>
        <time>2019-11-02T11:46:27Z</time>
      </trkpt>
      <trkpt lat="38.574666464701295" lon="-2.421010639518499">
        <ele>1470</ele>
        <time>2019-11-02T11:46:29Z</time>
      </trkpt>
      <trkpt lat="38.574654730036855" lon="-2.421016842126846">
        <ele>1470.4000244140625</ele>
        <time>2019-11-02T11:46:30Z</time>
      </trkpt>
      <trkpt lat="38.574613155797124" lon="-2.42103218100965">
        <ele>1471.4000244140625</ele>
        <time>2019-11-02T11:46:33Z</time>
      </trkpt>
      <trkpt lat="38.574554650112987" lon="-2.421043664216995">
        <ele>1472.4000244140625</ele>
        <time>2019-11-02T11:46:37Z</time>
      </trkpt>
      <trkpt lat="38.574540484696627" lon="-2.421047184616327">
        <ele>1472.800048828125</ele>
        <time>2019-11-02T11:46:38Z</time>
      </trkpt>
      <trkpt lat="38.574509304016829" lon="-2.421064870432019">
        <ele>1473.5999755859375</ele>
        <time>2019-11-02T11:46:41Z</time>
      </trkpt>
      <trkpt lat="38.574472507461905" lon="-2.421080963686109">
        <ele>1474.199951171875</ele>
        <time>2019-11-02T11:46:44Z</time>
      </trkpt>
      <trkpt lat="38.574446188285947" lon="-2.42108540609479">
        <ele>1474.5999755859375</ele>
        <time>2019-11-02T11:46:46Z</time>
      </trkpt>
      <trkpt lat="38.574370834976435" lon="-2.42110351100564">
        <ele>1475.4000244140625</ele>
        <time>2019-11-02T11:46:52Z</time>
      </trkpt>
      <trkpt lat="38.574346108362079" lon="-2.421109210699797">
        <ele>1475.800048828125</ele>
        <time>2019-11-02T11:46:54Z</time>
      </trkpt>
      <trkpt lat="38.57430461794138" lon="-2.421121364459395">
        <ele>1476</ele>
        <time>2019-11-02T11:46:58Z</time>
      </trkpt>
      <trkpt lat="38.574252566322684" lon="-2.421132763847709">
        <ele>1476.800048828125</ele>
        <time>2019-11-02T11:47:03Z</time>
      </trkpt>
      <trkpt lat="38.57421669177711" lon="-2.4211401399225">
        <ele>1477</ele>
        <time>2019-11-02T11:47:06Z</time>
      </trkpt>
      <trkpt lat="38.574141338467598" lon="-2.421182384714484">
        <ele>1477.5999755859375</ele>
        <time>2019-11-02T11:47:13Z</time>
      </trkpt>
      <trkpt lat="38.574129771441221" lon="-2.421191604807973">
        <ele>1477.800048828125</ele>
        <time>2019-11-02T11:47:14Z</time>
      </trkpt>
      <trkpt lat="38.574088029563427" lon="-2.421256816014647">
        <ele>1478.800048828125</ele>
        <time>2019-11-02T11:47:18Z</time>
      </trkpt>
      <trkpt lat="38.574079982936382" lon="-2.421272238716483">
        <ele>1479</ele>
        <time>2019-11-02T11:47:19Z</time>
      </trkpt>
      <trkpt lat="38.574075875803828" lon="-2.421302916482091">
        <ele>1479.199951171875</ele>
        <time>2019-11-02T11:47:21Z</time>
      </trkpt>
      <trkpt lat="38.574073864147067" lon="-2.421354632824659">
        <ele>1479.800048828125</ele>
        <time>2019-11-02T11:47:24Z</time>
      </trkpt>
      <trkpt lat="38.574072103947401" lon="-2.421369384974241">
        <ele>1480</ele>
        <time>2019-11-02T11:47:25Z</time>
      </trkpt>
      <trkpt lat="38.574072858318686" lon="-2.421384388580918">
        <ele>1480.4000244140625</ele>
        <time>2019-11-02T11:47:26Z</time>
      </trkpt>
      <trkpt lat="38.574082162231207" lon="-2.421427555382252">
        <ele>1481.4000244140625</ele>
        <time>2019-11-02T11:47:29Z</time>
      </trkpt>
      <trkpt lat="38.574084676802158" lon="-2.421453539282084">
        <ele>1481.5999755859375</ele>
        <time>2019-11-02T11:47:31Z</time>
      </trkpt>
      <trkpt lat="38.574081743136048" lon="-2.421511961147189">
        <ele>1482.4000244140625</ele>
        <time>2019-11-02T11:47:35Z</time>
      </trkpt>
      <trkpt lat="38.574080904945731" lon="-2.421539956703782">
        <ele>1482.4000244140625</ele>
        <time>2019-11-02T11:47:37Z</time>
      </trkpt>
      <trkpt lat="38.574075037613511" lon="-2.421632325276732">
        <ele>1483</ele>
        <time>2019-11-02T11:47:43Z</time>
      </trkpt>
      <trkpt lat="38.574072355404496" lon="-2.421646323055029">
        <ele>1483.199951171875</ele>
        <time>2019-11-02T11:47:44Z</time>
      </trkpt>
      <trkpt lat="38.574051903560758" lon="-2.421706421300769">
        <ele>1483.4000244140625</ele>
        <time>2019-11-02T11:47:48Z</time>
      </trkpt>
      <trkpt lat="38.574042851105332" lon="-2.421739948913455">
        <ele>1483.4000244140625</ele>
        <time>2019-11-02T11:47:50Z</time>
      </trkpt>
      <trkpt lat="38.574038492515683" lon="-2.421754281967878">
        <ele>1483.5999755859375</ele>
        <time>2019-11-02T11:47:51Z</time>
      </trkpt>
      <trkpt lat="38.574034553021193" lon="-2.42178370244801">
        <ele>1483.800048828125</ele>
        <time>2019-11-02T11:47:53Z</time>
      </trkpt>
      <trkpt lat="38.574016951024532" lon="-2.421826282516122">
        <ele>1484.199951171875</ele>
        <time>2019-11-02T11:47:56Z</time>
      </trkpt>
      <trkpt lat="38.574011083692312" lon="-2.421840280294418">
        <ele>1484.4000244140625</ele>
        <time>2019-11-02T11:47:57Z</time>
      </trkpt>
      <trkpt lat="38.573978394269943" lon="-2.421921417117119">
        <ele>1485.4000244140625</ele>
        <time>2019-11-02T11:48:02Z</time>
      </trkpt>
      <trkpt lat="38.573966240510345" lon="-2.421956621110439">
        <ele>1486</ele>
        <time>2019-11-02T11:48:04Z</time>
      </trkpt>
      <trkpt lat="38.573943106457591" lon="-2.422000290825963">
        <ele>1486.800048828125</ele>
        <time>2019-11-02T11:48:07Z</time>
      </trkpt>
      <trkpt lat="38.573915529996157" lon="-2.422033734619617">
        <ele>1488</ele>
        <time>2019-11-02T11:48:10Z</time>
      </trkpt>
      <trkpt lat="38.573881834745407" lon="-2.422060975804925">
        <ele>1488.4000244140625</ele>
        <time>2019-11-02T11:48:13Z</time>
      </trkpt>
      <trkpt lat="38.573856772854924" lon="-2.422073548659682">
        <ele>1489</ele>
        <time>2019-11-02T11:48:15Z</time>
      </trkpt>
      <trkpt lat="38.57380379922688" lon="-2.422097269445658">
        <ele>1489.800048828125</ele>
        <time>2019-11-02T11:48:20Z</time>
      </trkpt>
      <trkpt lat="38.573794830590487" lon="-2.422101376578212">
        <ele>1489.5999755859375</ele>
        <time>2019-11-02T11:48:21Z</time>
      </trkpt>
      <trkpt lat="38.573749400675297" lon="-2.42212769575417">
        <ele>1489.800048828125</ele>
        <time>2019-11-02T11:48:26Z</time>
      </trkpt>
      <trkpt lat="38.573695253580809" lon="-2.422156278043985">
        <ele>1490.199951171875</ele>
        <time>2019-11-02T11:48:31Z</time>
      </trkpt>
      <trkpt lat="38.573674466460943" lon="-2.422162061557174">
        <ele>1490.4000244140625</ele>
        <time>2019-11-02T11:48:33Z</time>
      </trkpt>
      <trkpt lat="38.573650158941746" lon="-2.422167509794235">
        <ele>1491.4000244140625</ele>
        <time>2019-11-02T11:48:35Z</time>
      </trkpt>
      <trkpt lat="38.573625851422548" lon="-2.422172455117106">
        <ele>1492.5999755859375</ele>
        <time>2019-11-02T11:48:37Z</time>
      </trkpt>
      <trkpt lat="38.573595508933067" lon="-2.422180585563183">
        <ele>1493.4000244140625</ele>
        <time>2019-11-02T11:48:40Z</time>
      </trkpt>
      <trkpt lat="38.573584444820881" lon="-2.422184273600578">
        <ele>1493.5999755859375</ele>
        <time>2019-11-02T11:48:41Z</time>
      </trkpt>
      <trkpt lat="38.573540188372135" lon="-2.42220682092011">
        <ele>1495</ele>
        <time>2019-11-02T11:48:45Z</time>
      </trkpt>
      <trkpt lat="38.573528034612536" lon="-2.422217046841979">
        <ele>1495.4000244140625</ele>
        <time>2019-11-02T11:48:46Z</time>
      </trkpt>
      <trkpt lat="38.573445808142424" lon="-2.422317210584879">
        <ele>1494.4000244140625</ele>
        <time>2019-11-02T11:48:54Z</time>
      </trkpt>
      <trkpt lat="38.573430301621556" lon="-2.42236565798521">
        <ele>1496.199951171875</ele>
        <time>2019-11-02T11:48:57Z</time>
      </trkpt>
      <trkpt lat="38.573417477309704" lon="-2.422394072636962">
        <ele>1497.800048828125</ele>
        <time>2019-11-02T11:48:59Z</time>
      </trkpt>
      <trkpt lat="38.573405658826232" lon="-2.422421313822269">
        <ele>1498.5999755859375</ele>
        <time>2019-11-02T11:49:01Z</time>
      </trkpt>
      <trkpt lat="38.573401551693678" lon="-2.422435898333788">
        <ele>1498.800048828125</ele>
        <time>2019-11-02T11:49:02Z</time>
      </trkpt>
      <trkpt lat="38.573394175618887" lon="-2.422545198351145">
        <ele>1499</ele>
        <time>2019-11-02T11:49:09Z</time>
      </trkpt>
      <trkpt lat="38.573383949697018" lon="-2.422625496983528">
        <ele>1500</ele>
        <time>2019-11-02T11:49:14Z</time>
      </trkpt>
      <trkpt lat="38.573385793715715" lon="-2.422667238861322">
        <ele>1500.800048828125</ele>
        <time>2019-11-02T11:49:17Z</time>
      </trkpt>
      <trkpt lat="38.573377411812544" lon="-2.422695318236947">
        <ele>1501.199951171875</ele>
        <time>2019-11-02T11:49:19Z</time>
      </trkpt>
      <trkpt lat="38.573344638571143" lon="-2.422800678759813">
        <ele>1502</ele>
        <time>2019-11-02T11:49:26Z</time>
      </trkpt>
      <trkpt lat="38.573309853672981" lon="-2.422886425629258">
        <ele>1502.199951171875</ele>
        <time>2019-11-02T11:49:32Z</time>
      </trkpt>
      <trkpt lat="38.573283702135086" lon="-2.422923808917403">
        <ele>1503</ele>
        <time>2019-11-02T11:49:35Z</time>
      </trkpt>
      <trkpt lat="38.573275906965137" lon="-2.422937471419573">
        <ele>1503.4000244140625</ele>
        <time>2019-11-02T11:49:36Z</time>
      </trkpt>
      <trkpt lat="38.573243385180831" lon="-2.422992708161473">
        <ele>1504.5999755859375</ele>
        <time>2019-11-02T11:49:40Z</time>
      </trkpt>
      <trkpt lat="38.573237769305706" lon="-2.423026319593191">
        <ele>1504.5999755859375</ele>
        <time>2019-11-02T11:49:42Z</time>
      </trkpt>
      <trkpt lat="38.573191836476326" lon="-2.423123801127076">
        <ele>1504</ele>
        <time>2019-11-02T11:49:49Z</time>
      </trkpt>
      <trkpt lat="38.573139365762472" lon="-2.42323393933475">
        <ele>1505</ele>
        <time>2019-11-02T11:49:57Z</time>
      </trkpt>
      <trkpt lat="38.573134504258633" lon="-2.42325053550303">
        <ele>1505.4000244140625</ele>
        <time>2019-11-02T11:49:58Z</time>
      </trkpt>
      <trkpt lat="38.573128720745444" lon="-2.423264868557453">
        <ele>1505.5999755859375</ele>
        <time>2019-11-02T11:49:59Z</time>
      </trkpt>
      <trkpt lat="38.573087565600872" lon="-2.423377856612206">
        <ele>1506.4000244140625</ele>
        <time>2019-11-02T11:50:07Z</time>
      </trkpt>
      <trkpt lat="38.573071137070656" lon="-2.423406271263957">
        <ele>1506.5999755859375</ele>
        <time>2019-11-02T11:50:09Z</time>
      </trkpt>
      <trkpt lat="38.573034759610891" lon="-2.423452958464622">
        <ele>1507.800048828125</ele>
        <time>2019-11-02T11:50:13Z</time>
      </trkpt>
      <trkpt lat="38.572994526475668" lon="-2.423524372279644">
        <ele>1509</ele>
        <time>2019-11-02T11:50:19Z</time>
      </trkpt>
      <trkpt lat="38.572986228391528" lon="-2.423537112772465">
        <ele>1509.199951171875</ele>
        <time>2019-11-02T11:50:20Z</time>
      </trkpt>
      <trkpt lat="38.572967955842614" lon="-2.423562007024884">
        <ele>1509.5999755859375</ele>
        <time>2019-11-02T11:50:22Z</time>
      </trkpt>
      <trkpt lat="38.572929734364152" lon="-2.423636438325047">
        <ele>1510</ele>
        <time>2019-11-02T11:50:27Z</time>
      </trkpt>
      <trkpt lat="38.572922358289361" lon="-2.4236526992172">
        <ele>1510</ele>
        <time>2019-11-02T11:50:28Z</time>
      </trkpt>
      <trkpt lat="38.572887154296041" lon="-2.423703325912356">
        <ele>1511.199951171875</ele>
        <time>2019-11-02T11:50:32Z</time>
      </trkpt>
      <trkpt lat="38.572862846776843" lon="-2.423742804676294">
        <ele>1512</ele>
        <time>2019-11-02T11:50:35Z</time>
      </trkpt>
      <trkpt lat="38.572853291407228" lon="-2.423754958435893">
        <ele>1512.5999755859375</ele>
        <time>2019-11-02T11:50:36Z</time>
      </trkpt>
      <trkpt lat="38.572790259495378" lon="-2.423842130228877">
        <ele>1513.5999755859375</ele>
        <time>2019-11-02T11:50:43Z</time>
      </trkpt>
      <trkpt lat="38.572742901742458" lon="-2.423923602327704">
        <ele>1514.5999755859375</ele>
        <time>2019-11-02T11:50:50Z</time>
      </trkpt>
      <trkpt lat="38.572740806266665" lon="-2.423940869048238">
        <ele>1515</ele>
        <time>2019-11-02T11:50:51Z</time>
      </trkpt>
      <trkpt lat="38.572703003883362" lon="-2.42400792427361">
        <ele>1516</ele>
        <time>2019-11-02T11:50:56Z</time>
      </trkpt>
      <trkpt lat="38.572684228420258" lon="-2.424032483249903">
        <ele>1516.5999755859375</ele>
        <time>2019-11-02T11:50:58Z</time>
      </trkpt>
      <trkpt lat="38.572668135166168" lon="-2.424059389159083">
        <ele>1517</ele>
        <time>2019-11-02T11:51:00Z</time>
      </trkpt>
      <trkpt lat="38.572653969749808" lon="-2.42408805526793">
        <ele>1517.199951171875</ele>
        <time>2019-11-02T11:51:02Z</time>
      </trkpt>
      <trkpt lat="38.572633266448975" lon="-2.4241344910115">
        <ele>1517.800048828125</ele>
        <time>2019-11-02T11:51:05Z</time>
      </trkpt>
      <trkpt lat="38.572620777413249" lon="-2.424146728590131">
        <ele>1518</ele>
        <time>2019-11-02T11:51:06Z</time>
      </trkpt>
      <trkpt lat="38.572611473500729" lon="-2.424159636721015">
        <ele>1518</ele>
        <time>2019-11-02T11:51:07Z</time>
      </trkpt>
      <trkpt lat="38.572578867897391" lon="-2.424217890948057">
        <ele>1518.800048828125</ele>
        <time>2019-11-02T11:51:11Z</time>
      </trkpt>
      <trkpt lat="38.572567049413919" lon="-2.424244042485952">
        <ele>1519</ele>
        <time>2019-11-02T11:51:13Z</time>
      </trkpt>
      <trkpt lat="38.572531929239631" lon="-2.424292908981442">
        <ele>1518.800048828125</ele>
        <time>2019-11-02T11:51:17Z</time>
      </trkpt>
      <trkpt lat="38.572526564821601" lon="-2.424308164045215">
        <ele>1519</ele>
        <time>2019-11-02T11:51:18Z</time>
      </trkpt>
      <trkpt lat="38.572503263130784" lon="-2.42436658591032">
        <ele>1519.800048828125</ele>
        <time>2019-11-02T11:51:22Z</time>
      </trkpt>
      <trkpt lat="38.57250158675015" lon="-2.424384271726012">
        <ele>1520</ele>
        <time>2019-11-02T11:51:23Z</time>
      </trkpt>
      <trkpt lat="38.5724937915802" lon="-2.42441444657743">
        <ele>1520.800048828125</ele>
        <time>2019-11-02T11:51:25Z</time>
      </trkpt>
      <trkpt lat="38.572486750781536" lon="-2.42442567832768">
        <ele>1521.199951171875</ele>
        <time>2019-11-02T11:51:26Z</time>
      </trkpt>
      <trkpt lat="38.572451882064342" lon="-2.42448627948761">
        <ele>1522.199951171875</ele>
        <time>2019-11-02T11:51:31Z</time>
      </trkpt>
      <trkpt lat="38.572438219562173" lon="-2.424513101577759">
        <ele>1522.4000244140625</ele>
        <time>2019-11-02T11:51:33Z</time>
      </trkpt>
      <trkpt lat="38.572434363886714" lon="-2.424527015537024">
        <ele>1522.4000244140625</ele>
        <time>2019-11-02T11:51:34Z</time>
      </trkpt>
      <trkpt lat="38.572419360280037" lon="-2.42455274797976">
        <ele>1522.5999755859375</ele>
        <time>2019-11-02T11:51:36Z</time>
      </trkpt>
      <trkpt lat="38.572414079681039" lon="-2.424567835405469">
        <ele>1522.5999755859375</ele>
        <time>2019-11-02T11:51:37Z</time>
      </trkpt>
      <trkpt lat="38.572390777990222" lon="-2.424624832347035">
        <ele>1523.4000244140625</ele>
        <time>2019-11-02T11:51:41Z</time>
      </trkpt>
      <trkpt lat="38.572384575381875" lon="-2.424659365788102">
        <ele>1524</ele>
        <time>2019-11-02T11:51:43Z</time>
      </trkpt>
      <trkpt lat="38.572372002527118" lon="-2.42472474463284">
        <ele>1524.4000244140625</ele>
        <time>2019-11-02T11:51:47Z</time>
      </trkpt>
      <trkpt lat="38.57236186042428" lon="-2.424774784594774">
        <ele>1525.5999755859375</ele>
        <time>2019-11-02T11:51:50Z</time>
      </trkpt>
      <trkpt lat="38.57235942967236" lon="-2.424791799858212">
        <ele>1526</ele>
        <time>2019-11-02T11:51:51Z</time>
      </trkpt>
      <trkpt lat="38.572350209578872" lon="-2.424841001629829">
        <ele>1526.5999755859375</ele>
        <time>2019-11-02T11:51:54Z</time>
      </trkpt>
      <trkpt lat="38.572363536804914" lon="-2.424884252250195">
        <ele>1526.800048828125</ele>
        <time>2019-11-02T11:51:56Z</time>
      </trkpt>
      <trkpt lat="38.5723642911762" lon="-2.424902776256204">
        <ele>1527</ele>
        <time>2019-11-02T11:51:57Z</time>
      </trkpt>
      <trkpt lat="38.572363452985883" lon="-2.424920797348022">
        <ele>1527.4000244140625</ele>
        <time>2019-11-02T11:51:58Z</time>
      </trkpt>
      <trkpt lat="38.572359513491392" lon="-2.424955414608121">
        <ele>1527.800048828125</ele>
        <time>2019-11-02T11:52:00Z</time>
      </trkpt>
      <trkpt lat="38.572352472692728" lon="-2.425043089315295">
        <ele>1529</ele>
        <time>2019-11-02T11:52:06Z</time>
      </trkpt>
      <trkpt lat="38.572323638945818" lon="-2.425127243623137">
        <ele>1530</ele>
        <time>2019-11-02T11:52:12Z</time>
      </trkpt>
      <trkpt lat="38.572316011413932" lon="-2.425140906125307">
        <ele>1530.199951171875</ele>
        <time>2019-11-02T11:52:13Z</time>
      </trkpt>
      <trkpt lat="38.572298577055335" lon="-2.425228580832481">
        <ele>1531.4000244140625</ele>
        <time>2019-11-02T11:52:18Z</time>
      </trkpt>
      <trkpt lat="38.572282232344151" lon="-2.425292450934649">
        <ele>1532.5999755859375</ele>
        <time>2019-11-02T11:52:22Z</time>
      </trkpt>
      <trkpt lat="38.572258846834302" lon="-2.425370821729302">
        <ele>1533.5999755859375</ele>
        <time>2019-11-02T11:52:27Z</time>
      </trkpt>
      <trkpt lat="38.572253817692399" lon="-2.425386914983392">
        <ele>1533.5999755859375</ele>
        <time>2019-11-02T11:52:28Z</time>
      </trkpt>
      <trkpt lat="38.572226241230965" lon="-2.425505518913269">
        <ele>1534.800048828125</ele>
        <time>2019-11-02T11:52:35Z</time>
      </trkpt>
      <trkpt lat="38.572187768295407" lon="-2.425654549151659">
        <ele>1535.800048828125</ele>
        <time>2019-11-02T11:52:44Z</time>
      </trkpt>
      <trkpt lat="38.572170082479715" lon="-2.425703667104244">
        <ele>1535.800048828125</ele>
        <time>2019-11-02T11:52:47Z</time>
      </trkpt>
      <trkpt lat="38.572147618979216" lon="-2.425806513056159">
        <ele>1537</ele>
        <time>2019-11-02T11:52:53Z</time>
      </trkpt>
      <trkpt lat="38.572146194055676" lon="-2.425824785605073">
        <ele>1537.5999755859375</ele>
        <time>2019-11-02T11:52:54Z</time>
      </trkpt>
      <trkpt lat="38.57213563285768" lon="-2.425858648493886">
        <ele>1538.199951171875</ele>
        <time>2019-11-02T11:52:56Z</time>
      </trkpt>
      <trkpt lat="38.572088778018951" lon="-2.425930062308908">
        <ele>1539.5999755859375</ele>
        <time>2019-11-02T11:53:01Z</time>
      </trkpt>
      <trkpt lat="38.572056004777551" lon="-2.426073057577014">
        <ele>1538.800048828125</ele>
        <time>2019-11-02T11:53:09Z</time>
      </trkpt>
      <trkpt lat="38.572028512135148" lon="-2.426184033975005">
        <ele>1539.5999755859375</ele>
        <time>2019-11-02T11:53:15Z</time>
      </trkpt>
      <trkpt lat="38.571998085826635" lon="-2.426315462216735">
        <ele>1539.800048828125</ele>
        <time>2019-11-02T11:53:22Z</time>
      </trkpt>
      <trkpt lat="38.571983501315117" lon="-2.426370615139604">
        <ele>1540</ele>
        <time>2019-11-02T11:53:25Z</time>
      </trkpt>
      <trkpt lat="38.571972101926804" lon="-2.426430713385344">
        <ele>1540.5999755859375</ele>
        <time>2019-11-02T11:53:28Z</time>
      </trkpt>
      <trkpt lat="38.571966737508774" lon="-2.426449740305543">
        <ele>1540.800048828125</ele>
        <time>2019-11-02T11:53:29Z</time>
      </trkpt>
      <trkpt lat="38.571933964267373" lon="-2.426540348678827">
        <ele>1541.5999755859375</ele>
        <time>2019-11-02T11:53:34Z</time>
      </trkpt>
      <trkpt lat="38.571928599849343" lon="-2.426558705046773">
        <ele>1542</ele>
        <time>2019-11-02T11:53:35Z</time>
      </trkpt>
      <trkpt lat="38.571908734738827" lon="-2.426633052527905">
        <ele>1542.4000244140625</ele>
        <time>2019-11-02T11:53:39Z</time>
      </trkpt>
      <trkpt lat="38.571886606514454" lon="-2.426655683666468">
        <ele>1542.800048828125</ele>
        <time>2019-11-02T11:53:41Z</time>
      </trkpt>
      <trkpt lat="38.571855090558529" lon="-2.426745621487498">
        <ele>1543.800048828125</ele>
        <time>2019-11-02T11:53:47Z</time>
      </trkpt>
      <trkpt lat="38.57184587046504" lon="-2.426757691428065">
        <ele>1544.199951171875</ele>
        <time>2019-11-02T11:53:48Z</time>
      </trkpt>
      <trkpt lat="38.571838075295091" lon="-2.426807815209031">
        <ele>1545.199951171875</ele>
        <time>2019-11-02T11:53:51Z</time>
      </trkpt>
      <trkpt lat="38.571832124143839" lon="-2.426821393892169">
        <ele>1545.4000244140625</ele>
        <time>2019-11-02T11:53:52Z</time>
      </trkpt>
      <trkpt lat="38.571797925978899" lon="-2.426956091076136">
        <ele>1546.199951171875</ele>
        <time>2019-11-02T11:54:00Z</time>
      </trkpt>
      <trkpt lat="38.571795076131821" lon="-2.426975537091494">
        <ele>1546.4000244140625</ele>
        <time>2019-11-02T11:54:01Z</time>
      </trkpt>
      <trkpt lat="38.571762638166547" lon="-2.427072180435061">
        <ele>1546.5999755859375</ele>
        <time>2019-11-02T11:54:07Z</time>
      </trkpt>
      <trkpt lat="38.571733552962542" lon="-2.427165722474456">
        <ele>1547.4000244140625</ele>
        <time>2019-11-02T11:54:13Z</time>
      </trkpt>
      <trkpt lat="38.571726763620973" lon="-2.427196148782969">
        <ele>1547.800048828125</ele>
        <time>2019-11-02T11:54:15Z</time>
      </trkpt>
      <trkpt lat="38.571713352575898" lon="-2.427244847640395">
        <ele>1548.5999755859375</ele>
        <time>2019-11-02T11:54:18Z</time>
      </trkpt>
      <trkpt lat="38.571691056713462" lon="-2.427301341667771">
        <ele>1549</ele>
        <time>2019-11-02T11:54:22Z</time>
      </trkpt>
      <trkpt lat="38.571652164682746" lon="-2.427411982789636">
        <ele>1549.5999755859375</ele>
        <time>2019-11-02T11:54:29Z</time>
      </trkpt>
      <trkpt lat="38.571597933769226" lon="-2.427534107118845">
        <ele>1549.199951171875</ele>
        <time>2019-11-02T11:54:37Z</time>
      </trkpt>
      <trkpt lat="38.571578739210963" lon="-2.427563527598977">
        <ele>1549.5999755859375</ele>
        <time>2019-11-02T11:54:39Z</time>
      </trkpt>
      <trkpt lat="38.571541020646691" lon="-2.427643574774265">
        <ele>1550</ele>
        <time>2019-11-02T11:54:44Z</time>
      </trkpt>
      <trkpt lat="38.571487963199615" lon="-2.427747426554561">
        <ele>1550.800048828125</ele>
        <time>2019-11-02T11:54:51Z</time>
      </trkpt>
      <trkpt lat="38.571482431143522" lon="-2.427763352170587">
        <ele>1551.199951171875</ele>
        <time>2019-11-02T11:54:52Z</time>
      </trkpt>
      <trkpt lat="38.57146373949945" lon="-2.427875753492117">
        <ele>1551</ele>
        <time>2019-11-02T11:54:58Z</time>
      </trkpt>
      <trkpt lat="38.571426356211305" lon="-2.427953453734517">
        <ele>1552</ele>
        <time>2019-11-02T11:55:03Z</time>
      </trkpt>
      <trkpt lat="38.571420237421989" lon="-2.42798974737525">
        <ele>1553</ele>
        <time>2019-11-02T11:55:05Z</time>
      </trkpt>
      <trkpt lat="38.571415124461055" lon="-2.428006008267403">
        <ele>1553.4000244140625</ele>
        <time>2019-11-02T11:55:06Z</time>
      </trkpt>
      <trkpt lat="38.571388050913811" lon="-2.428069626912475">
        <ele>1554.4000244140625</ele>
        <time>2019-11-02T11:55:10Z</time>
      </trkpt>
      <trkpt lat="38.571365084499121" lon="-2.428120672702789">
        <ele>1554.800048828125</ele>
        <time>2019-11-02T11:55:13Z</time>
      </trkpt>
      <trkpt lat="38.571358965709805" lon="-2.428137855604291">
        <ele>1555</ele>
        <time>2019-11-02T11:55:14Z</time>
      </trkpt>
      <trkpt lat="38.571346392855048" lon="-2.428189823403955">
        <ele>1555.4000244140625</ele>
        <time>2019-11-02T11:55:17Z</time>
      </trkpt>
      <trkpt lat="38.57134111225605" lon="-2.428206168115139">
        <ele>1555.800048828125</ele>
        <time>2019-11-02T11:55:18Z</time>
      </trkpt>
      <trkpt lat="38.571319822221994" lon="-2.428269535303116">
        <ele>1557</ele>
        <time>2019-11-02T11:55:22Z</time>
      </trkpt>
      <trkpt lat="38.571314960718155" lon="-2.428284538909793">
        <ele>1557.5999755859375</ele>
        <time>2019-11-02T11:55:23Z</time>
      </trkpt>
      <trkpt lat="38.571307333186269" lon="-2.428312702104449">
        <ele>1558</ele>
        <time>2019-11-02T11:55:25Z</time>
      </trkpt>
      <trkpt lat="38.571286043152213" lon="-2.428388306871057">
        <ele>1558.4000244140625</ele>
        <time>2019-11-02T11:55:30Z</time>
      </trkpt>
      <trkpt lat="38.571272129192948" lon="-2.428413284942508">
        <ele>1558.800048828125</ele>
        <time>2019-11-02T11:55:32Z</time>
      </trkpt>
      <trkpt lat="38.571268273517489" lon="-2.428428875282407">
        <ele>1559.199951171875</ele>
        <time>2019-11-02T11:55:33Z</time>
      </trkpt>
      <trkpt lat="38.571262406185269" lon="-2.428458128124475">
        <ele>1559.4000244140625</ele>
        <time>2019-11-02T11:55:35Z</time>
      </trkpt>
      <trkpt lat="38.571258634328842" lon="-2.428475227206945">
        <ele>1559.4000244140625</ele>
        <time>2019-11-02T11:55:36Z</time>
      </trkpt>
      <trkpt lat="38.571243965998292" lon="-2.428524009883404">
        <ele>1560.4000244140625</ele>
        <time>2019-11-02T11:55:39Z</time>
      </trkpt>
      <trkpt lat="38.571229381486773" lon="-2.428584275767207">
        <ele>1560.4000244140625</ele>
        <time>2019-11-02T11:55:43Z</time>
      </trkpt>
      <trkpt lat="38.571223430335522" lon="-2.428598189726472">
        <ele>1560.4000244140625</ele>
        <time>2019-11-02T11:55:44Z</time>
      </trkpt>
      <trkpt lat="38.571219658479095" lon="-2.428689887747169">
        <ele>1561.4000244140625</ele>
        <time>2019-11-02T11:55:50Z</time>
      </trkpt>
      <trkpt lat="38.571218233555555" lon="-2.42871830239892">
        <ele>1561.800048828125</ele>
        <time>2019-11-02T11:55:52Z</time>
      </trkpt>
      <trkpt lat="38.571213791146874" lon="-2.428743951022625">
        <ele>1562.199951171875</ele>
        <time>2019-11-02T11:55:54Z</time>
      </trkpt>
      <trkpt lat="38.571206917986274" lon="-2.428771276026964">
        <ele>1562.5999755859375</ele>
        <time>2019-11-02T11:55:56Z</time>
      </trkpt>
      <trkpt lat="38.571200799196959" lon="-2.428803462535143">
        <ele>1562.800048828125</ele>
        <time>2019-11-02T11:55:58Z</time>
      </trkpt>
      <trkpt lat="38.571191160008311" lon="-2.428834810853004">
        <ele>1564.199951171875</ele>
        <time>2019-11-02T11:56:00Z</time>
      </trkpt>
      <trkpt lat="38.57118328101933" lon="-2.428878983482718">
        <ele>1565.199951171875</ele>
        <time>2019-11-02T11:56:03Z</time>
      </trkpt>
      <trkpt lat="38.571181185543537" lon="-2.428894741460681">
        <ele>1565.199951171875</ele>
        <time>2019-11-02T11:56:04Z</time>
      </trkpt>
      <trkpt lat="38.571178168058395" lon="-2.428923826664686">
        <ele>1564.4000244140625</ele>
        <time>2019-11-02T11:56:06Z</time>
      </trkpt>
      <trkpt lat="38.571177497506142" lon="-2.428937489166856">
        <ele>1564.199951171875</ele>
        <time>2019-11-02T11:56:07Z</time>
      </trkpt>
      <trkpt lat="38.571155872195959" lon="-2.429019715636969">
        <ele>1564.5999755859375</ele>
        <time>2019-11-02T11:56:13Z</time>
      </trkpt>
      <trkpt lat="38.571134749799967" lon="-2.429127423092723">
        <ele>1565.199951171875</ele>
        <time>2019-11-02T11:56:20Z</time>
      </trkpt>
      <trkpt lat="38.571120919659734" lon="-2.429157514125109">
        <ele>1565.4000244140625</ele>
        <time>2019-11-02T11:56:22Z</time>
      </trkpt>
      <trkpt lat="38.571097701787949" lon="-2.429300509393215">
        <ele>1566.5999755859375</ele>
        <time>2019-11-02T11:56:31Z</time>
      </trkpt>
      <trkpt lat="38.57109485194087" lon="-2.429335126653314">
        <ele>1567.800048828125</ele>
        <time>2019-11-02T11:56:33Z</time>
      </trkpt>
      <trkpt lat="38.571086470037699" lon="-2.429384244605899">
        <ele>1569.199951171875</ele>
        <time>2019-11-02T11:56:36Z</time>
      </trkpt>
      <trkpt lat="38.57108068652451" lon="-2.429417688399553">
        <ele>1570.4000244140625</ele>
        <time>2019-11-02T11:56:38Z</time>
      </trkpt>
      <trkpt lat="38.571062162518501" lon="-2.429462615400553">
        <ele>1571.4000244140625</ele>
        <time>2019-11-02T11:56:41Z</time>
      </trkpt>
      <trkpt lat="38.571047829464078" lon="-2.429563701152802">
        <ele>1572.4000244140625</ele>
        <time>2019-11-02T11:56:47Z</time>
      </trkpt>
      <trkpt lat="38.571045650169253" lon="-2.429579626768827">
        <ele>1572.4000244140625</ele>
        <time>2019-11-02T11:56:48Z</time>
      </trkpt>
      <trkpt lat="38.57102544978261" lon="-2.429680293425918">
        <ele>1573.800048828125</ele>
        <time>2019-11-02T11:56:54Z</time>
      </trkpt>
      <trkpt lat="38.571011703461409" lon="-2.429795963689685">
        <ele>1574.800048828125</ele>
        <time>2019-11-02T11:57:01Z</time>
      </trkpt>
      <trkpt lat="38.57100885361433" lon="-2.429811051115394">
        <ele>1574.800048828125</ele>
        <time>2019-11-02T11:57:02Z</time>
      </trkpt>
      <trkpt lat="38.570989491418004" lon="-2.429966786876321">
        <ele>1574.800048828125</ele>
        <time>2019-11-02T11:57:11Z</time>
      </trkpt>
      <trkpt lat="38.570989156141877" lon="-2.430002326145768">
        <ele>1575.800048828125</ele>
        <time>2019-11-02T11:57:13Z</time>
      </trkpt>
      <trkpt lat="38.570991167798638" lon="-2.43003711104393">
        <ele>1578</ele>
        <time>2019-11-02T11:57:15Z</time>
      </trkpt>
      <trkpt lat="38.570989910513163" lon="-2.430069968104362">
        <ele>1578.800048828125</ele>
        <time>2019-11-02T11:57:17Z</time>
      </trkpt>
      <trkpt lat="38.570996867492795" lon="-2.43008597753942">
        <ele>1579</ele>
        <time>2019-11-02T11:57:18Z</time>
      </trkpt>
      <trkpt lat="38.571029808372259" lon="-2.430159654468298">
        <ele>1580</ele>
        <time>2019-11-02T11:57:23Z</time>
      </trkpt>
      <trkpt lat="38.571049170568585" lon="-2.430200558155775">
        <ele>1580.4000244140625</ele>
        <time>2019-11-02T11:57:26Z</time>
      </trkpt>
      <trkpt lat="38.571075908839703" lon="-2.430245652794838">
        <ele>1580.5999755859375</ele>
        <time>2019-11-02T11:57:29Z</time>
      </trkpt>
      <trkpt lat="38.571091750636697" lon="-2.43027457036078">
        <ele>1580.5999755859375</ele>
        <time>2019-11-02T11:57:31Z</time>
      </trkpt>
      <trkpt lat="38.571129720658064" lon="-2.430367190390825">
        <ele>1580.5999755859375</ele>
        <time>2019-11-02T11:57:37Z</time>
      </trkpt>
      <trkpt lat="38.57114371843636" lon="-2.430414883419871">
        <ele>1581.800048828125</ele>
        <time>2019-11-02T11:57:40Z</time>
      </trkpt>
      <trkpt lat="38.571163080632687" lon="-2.430460648611188">
        <ele>1582.800048828125</ele>
        <time>2019-11-02T11:57:43Z</time>
      </trkpt>
      <trkpt lat="38.571170624345541" lon="-2.430474814027548">
        <ele>1583</ele>
        <time>2019-11-02T11:57:44Z</time>
      </trkpt>
      <trkpt lat="38.571197865530849" lon="-2.430536840111017">
        <ele>1583.5999755859375</ele>
        <time>2019-11-02T11:57:48Z</time>
      </trkpt>
      <trkpt lat="38.571203481405973" lon="-2.430551676079631">
        <ele>1584.199951171875</ele>
        <time>2019-11-02T11:57:49Z</time>
      </trkpt>
      <trkpt lat="38.57121555134654" lon="-2.430581096559763">
        <ele>1585</ele>
        <time>2019-11-02T11:57:51Z</time>
      </trkpt>
      <trkpt lat="38.571248324587941" lon="-2.430677404627204">
        <ele>1584.800048828125</ele>
        <time>2019-11-02T11:57:57Z</time>
      </trkpt>
      <trkpt lat="38.571255365386605" lon="-2.430690228939056">
        <ele>1585</ele>
        <time>2019-11-02T11:57:58Z</time>
      </trkpt>
      <trkpt lat="38.571285959333181" lon="-2.430743789300323">
        <ele>1585.800048828125</ele>
        <time>2019-11-02T11:58:02Z</time>
      </trkpt>
      <trkpt lat="38.57132887467742" lon="-2.430792571976781">
        <ele>1586.800048828125</ele>
        <time>2019-11-02T11:58:06Z</time>
      </trkpt>
      <trkpt lat="38.571397103369236" lon="-2.430864740163088">
        <ele>1588.199951171875</ele>
        <time>2019-11-02T11:58:12Z</time>
      </trkpt>
      <trkpt lat="38.571414789184928" lon="-2.430896339938045">
        <ele>1589</ele>
        <time>2019-11-02T11:58:14Z</time>
      </trkpt>
      <trkpt lat="38.571425601840019" lon="-2.430911427363753">
        <ele>1589.199951171875</ele>
        <time>2019-11-02T11:58:15Z</time>
      </trkpt>
      <trkpt lat="38.571480000391603" lon="-2.430967921391129">
        <ele>1590</ele>
        <time>2019-11-02T11:58:20Z</time>
      </trkpt>
      <trkpt lat="38.57149793766439" lon="-2.430999102070928">
        <ele>1590.199951171875</ele>
        <time>2019-11-02T11:58:22Z</time>
      </trkpt>
      <trkpt lat="38.57153071090579" lon="-2.431070432066917">
        <ele>1591.199951171875</ele>
        <time>2019-11-02T11:58:26Z</time>
      </trkpt>
      <trkpt lat="38.571536997333169" lon="-2.4310886207968">
        <ele>1591.4000244140625</ele>
        <time>2019-11-02T11:58:27Z</time>
      </trkpt>
      <trkpt lat="38.571534231305122" lon="-2.431238824501634">
        <ele>1592.199951171875</ele>
        <time>2019-11-02T11:58:34Z</time>
      </trkpt>
      <trkpt lat="38.571515455842018" lon="-2.431323062628508">
        <ele>1592.4000244140625</ele>
        <time>2019-11-02T11:58:38Z</time>
      </trkpt>
      <trkpt lat="38.571506151929498" lon="-2.43134225718677">
        <ele>1592.4000244140625</ele>
        <time>2019-11-02T11:58:39Z</time>
      </trkpt>
      <trkpt lat="38.571486622095108" lon="-2.431382825598121">
        <ele>1592.5999755859375</ele>
        <time>2019-11-02T11:58:41Z</time>
      </trkpt>
      <trkpt lat="38.571359217166901" lon="-2.431507715955377">
        <ele>1591.4000244140625</ele>
        <time>2019-11-02T11:58:50Z</time>
      </trkpt>
      <trkpt lat="38.571346225216985" lon="-2.431508470326662">
        <ele>1591.199951171875</ele>
        <time>2019-11-02T11:58:51Z</time>
      </trkpt>
      <trkpt lat="38.57134010642767" lon="-2.431507548317313">
        <ele>1591.199951171875</ele>
        <time>2019-11-02T11:58:54Z</time>
      </trkpt>
      <trkpt lat="38.571345303207636" lon="-2.431511655449867">
        <ele>1591.800048828125</ele>
        <time>2019-11-02T11:59:07Z</time>
      </trkpt>
      <trkpt lat="38.571344465017319" lon="-2.431519869714975">
        <ele>1592</ele>
        <time>2019-11-02T11:59:25Z</time>
      </trkpt>
      <trkpt lat="38.571343459188938" lon="-2.431516265496612">
        <ele>1591.800048828125</ele>
        <time>2019-11-02T11:59:41Z</time>
      </trkpt>
      <trkpt lat="38.571351002901793" lon="-2.431520121172071">
        <ele>1591.5999755859375</ele>
        <time>2019-11-02T11:59:56Z</time>
      </trkpt>
      <trkpt lat="38.571354858577251" lon="-2.431521881371737">
        <ele>1591.800048828125</ele>
        <time>2019-11-02T12:00:09Z</time>
      </trkpt>
      <trkpt lat="38.571355864405632" lon="-2.431526072323322">
        <ele>1591</ele>
        <time>2019-11-02T12:00:24Z</time>
      </trkpt>
      <trkpt lat="38.5713557805866" lon="-2.431521294638515">
        <ele>1592.800048828125</ele>
        <time>2019-11-02T12:00:41Z</time>
      </trkpt>
      <trkpt lat="38.571355948224664" lon="-2.431525988504291">
        <ele>1592</ele>
        <time>2019-11-02T12:00:58Z</time>
      </trkpt>
      <trkpt lat="38.571355529129505" lon="-2.431525820866227">
        <ele>1591.5999755859375</ele>
        <time>2019-11-02T12:01:20Z</time>
      </trkpt>
      <trkpt lat="38.571355529129505" lon="-2.431526910513639">
        <ele>1591</ele>
        <time>2019-11-02T12:01:56Z</time>
      </trkpt>
      <trkpt lat="38.571355361491442" lon="-2.431526659056544">
        <ele>1590.800048828125</ele>
        <time>2019-11-02T12:02:06Z</time>
      </trkpt>
      <trkpt lat="38.571355529129505" lon="-2.431526910513639">
        <ele>1592.199951171875</ele>
        <time>2019-11-02T12:02:26Z</time>
      </trkpt>
      <trkpt lat="38.571355445310473" lon="-2.431526156142354">
        <ele>1592.199951171875</ele>
        <time>2019-11-02T12:02:41Z</time>
      </trkpt>
      <trkpt lat="38.571356283500791" lon="-2.431526994332671">
        <ele>1591</ele>
        <time>2019-11-02T12:02:49Z</time>
      </trkpt>
      <trkpt lat="38.571310518309474" lon="-2.431524144485593">
        <ele>1590.800048828125</ele>
        <time>2019-11-02T12:02:54Z</time>
      </trkpt>
      <trkpt lat="38.571234913542867" lon="-2.431533951312304">
        <ele>1591</ele>
        <time>2019-11-02T12:02:59Z</time>
      </trkpt>
      <trkpt lat="38.571219407021999" lon="-2.431543758139014">
        <ele>1590.5999755859375</ele>
        <time>2019-11-02T12:03:00Z</time>
      </trkpt>
      <trkpt lat="38.571186130866408" lon="-2.431559935212135">
        <ele>1589.4000244140625</ele>
        <time>2019-11-02T12:03:02Z</time>
      </trkpt>
      <trkpt lat="38.571132067590952" lon="-2.43159388191998">
        <ele>1588.4000244140625</ele>
        <time>2019-11-02T12:03:06Z</time>
      </trkpt>
      <trkpt lat="38.571060067042708" lon="-2.431620787829161">
        <ele>1587.4000244140625</ele>
        <time>2019-11-02T12:03:09Z</time>
      </trkpt>
      <trkpt lat="38.571011535823345" lon="-2.431647777557373">
        <ele>1587</ele>
        <time>2019-11-02T12:03:11Z</time>
      </trkpt>
      <trkpt lat="38.570871893316507" lon="-2.431691195815802">
        <ele>1586.4000244140625</ele>
        <time>2019-11-02T12:03:16Z</time>
      </trkpt>
      <trkpt lat="38.570763096213341" lon="-2.431689770892262">
        <ele>1585.4000244140625</ele>
        <time>2019-11-02T12:03:19Z</time>
      </trkpt>
      <trkpt lat="38.570661339908838" lon="-2.431678706780076">
        <ele>1584.199951171875</ele>
        <time>2019-11-02T12:03:21Z</time>
      </trkpt>
      <trkpt lat="38.570465538650751" lon="-2.431681891903281">
        <ele>1583.199951171875</ele>
        <time>2019-11-02T12:03:25Z</time>
      </trkpt>
      <trkpt lat="38.570426814258099" lon="-2.431693626567721">
        <ele>1582.4000244140625</ele>
        <time>2019-11-02T12:03:26Z</time>
      </trkpt>
      <trkpt lat="38.570393202826381" lon="-2.431712485849857">
        <ele>1581.800048828125</ele>
        <time>2019-11-02T12:03:27Z</time>
      </trkpt>
      <trkpt lat="38.570359759032726" lon="-2.431733440607786">
        <ele>1581.199951171875</ele>
        <time>2019-11-02T12:03:28Z</time>
      </trkpt>
      <trkpt lat="38.570288848131895" lon="-2.431774344295263">
        <ele>1580.800048828125</ele>
        <time>2019-11-02T12:03:30Z</time>
      </trkpt>
      <trkpt lat="38.570256158709526" lon="-2.431798065081239">
        <ele>1580.5999755859375</ele>
        <time>2019-11-02T12:03:31Z</time>
      </trkpt>
      <trkpt lat="38.570151133462787" lon="-2.431856989860535">
        <ele>1579.4000244140625</ele>
        <time>2019-11-02T12:03:34Z</time>
      </trkpt>
      <trkpt lat="38.570080306380987" lon="-2.431902084499598">
        <ele>1579</ele>
        <time>2019-11-02T12:03:36Z</time>
      </trkpt>
      <trkpt lat="38.569992715492845" lon="-2.431956147775054">
        <ele>1578.199951171875</ele>
        <time>2019-11-02T12:03:39Z</time>
      </trkpt>
      <trkpt lat="38.569973856210709" lon="-2.431968217715621">
        <ele>1578</ele>
        <time>2019-11-02T12:03:40Z</time>
      </trkpt>
      <trkpt lat="38.569937562569976" lon="-2.431974252685905">
        <ele>1577.4000244140625</ele>
        <time>2019-11-02T12:03:44Z</time>
      </trkpt>
      <trkpt lat="38.569906549528241" lon="-2.431976599618793">
        <ele>1577.4000244140625</ele>
        <time>2019-11-02T12:03:46Z</time>
      </trkpt>
      <trkpt lat="38.569872351363301" lon="-2.431993447244167">
        <ele>1577.5999755859375</ele>
        <time>2019-11-02T12:03:48Z</time>
      </trkpt>
      <trkpt lat="38.569733211770654" lon="-2.432060167193413">
        <ele>1577.5999755859375</ele>
        <time>2019-11-02T12:03:54Z</time>
      </trkpt>
      <trkpt lat="38.5696064773947" lon="-2.432096963748336">
        <ele>1577</ele>
        <time>2019-11-02T12:03:59Z</time>
      </trkpt>
      <trkpt lat="38.569523999467492" lon="-2.432127138599753">
        <ele>1576.5999755859375</ele>
        <time>2019-11-02T12:04:03Z</time>
      </trkpt>
      <trkpt lat="38.569451747462153" lon="-2.43216116912663">
        <ele>1575.5999755859375</ele>
        <time>2019-11-02T12:04:05Z</time>
      </trkpt>
      <trkpt lat="38.569294167682528" lon="-2.432240545749664">
        <ele>1575</ele>
        <time>2019-11-02T12:04:09Z</time>
      </trkpt>
      <trkpt lat="38.56908168643713" lon="-2.432427797466516">
        <ele>1574.5999755859375</ele>
        <time>2019-11-02T12:04:14Z</time>
      </trkpt>
      <trkpt lat="38.568969452753663" lon="-2.432499378919601">
        <ele>1573.800048828125</ele>
        <time>2019-11-02T12:04:16Z</time>
      </trkpt>
      <trkpt lat="38.56885302811861" lon="-2.432566350325942">
        <ele>1573.4000244140625</ele>
        <time>2019-11-02T12:04:18Z</time>
      </trkpt>
      <trkpt lat="38.568799300119281" lon="-2.432606583461165">
        <ele>1573</ele>
        <time>2019-11-02T12:04:19Z</time>
      </trkpt>
      <trkpt lat="38.568681115284562" lon="-2.432700796052814">
        <ele>1572.199951171875</ele>
        <time>2019-11-02T12:04:21Z</time>
      </trkpt>
      <trkpt lat="38.568573826923966" lon="-2.432794757187366">
        <ele>1571.199951171875</ele>
        <time>2019-11-02T12:04:23Z</time>
      </trkpt>
      <trkpt lat="38.568512890487909" lon="-2.432842785492539">
        <ele>1570.800048828125</ele>
        <time>2019-11-02T12:04:24Z</time>
      </trkpt>
      <trkpt lat="38.568445667624474" lon="-2.432888969779015">
        <ele>1570.4000244140625</ele>
        <time>2019-11-02T12:04:25Z</time>
      </trkpt>
      <trkpt lat="38.568299487233162" lon="-2.433014111593366">
        <ele>1569.5999755859375</ele>
        <time>2019-11-02T12:04:27Z</time>
      </trkpt>
      <trkpt lat="38.568181218579412" lon="-2.433124333620071">
        <ele>1568.4000244140625</ele>
        <time>2019-11-02T12:04:29Z</time>
      </trkpt>
      <trkpt lat="38.568103350698948" lon="-2.433266155421734">
        <ele>1567.199951171875</ele>
        <time>2019-11-02T12:04:31Z</time>
      </trkpt>
      <trkpt lat="38.568014167249203" lon="-2.433475703001022">
        <ele>1566</ele>
        <time>2019-11-02T12:04:34Z</time>
      </trkpt>
      <trkpt lat="38.567933030426502" lon="-2.433596653863788">
        <ele>1565.199951171875</ele>
        <time>2019-11-02T12:04:36Z</time>
      </trkpt>
      <trkpt lat="38.567830352112651" lon="-2.433700924739242">
        <ele>1564.4000244140625</ele>
        <time>2019-11-02T12:04:38Z</time>
      </trkpt>
      <trkpt lat="38.567658020183444" lon="-2.433868227526546">
        <ele>1563.4000244140625</ele>
        <time>2019-11-02T12:04:41Z</time>
      </trkpt>
      <trkpt lat="38.567530615255237" lon="-2.433987502008677">
        <ele>1562.4000244140625</ele>
        <time>2019-11-02T12:04:43Z</time>
      </trkpt>
      <trkpt lat="38.567413771525025" lon="-2.434103926643729">
        <ele>1561.199951171875</ele>
        <time>2019-11-02T12:04:45Z</time>
      </trkpt>
      <trkpt lat="38.567310841754079" lon="-2.434224374592304">
        <ele>1560.199951171875</ele>
        <time>2019-11-02T12:04:47Z</time>
      </trkpt>
      <trkpt lat="38.567262561991811" lon="-2.434289585798979">
        <ele>1559.800048828125</ele>
        <time>2019-11-02T12:04:48Z</time>
      </trkpt>
      <trkpt lat="38.567114621400833" lon="-2.434471054002643">
        <ele>1558.800048828125</ele>
        <time>2019-11-02T12:04:51Z</time>
      </trkpt>
      <trkpt lat="38.567016553133726" lon="-2.434605667367578">
        <ele>1558.199951171875</ele>
        <time>2019-11-02T12:04:53Z</time>
      </trkpt>
      <trkpt lat="38.566929381340742" lon="-2.434763330966234">
        <ele>1557.199951171875</ele>
        <time>2019-11-02T12:04:55Z</time>
      </trkpt>
      <trkpt lat="38.566833827644587" lon="-2.434915043413639">
        <ele>1556</ele>
        <time>2019-11-02T12:04:57Z</time>
      </trkpt>
      <trkpt lat="38.566683623939753" lon="-2.435129368677735">
        <ele>1555</ele>
        <time>2019-11-02T12:05:00Z</time>
      </trkpt>
      <trkpt lat="38.566483128815889" lon="-2.435384010896087">
        <ele>1553.5999755859375</ele>
        <time>2019-11-02T12:05:04Z</time>
      </trkpt>
      <trkpt lat="38.566384389996529" lon="-2.43550730869174">
        <ele>1553</ele>
        <time>2019-11-02T12:05:06Z</time>
      </trkpt>
      <trkpt lat="38.566335439682007" lon="-2.435566568747163">
        <ele>1552.4000244140625</ele>
        <time>2019-11-02T12:05:07Z</time>
      </trkpt>
      <trkpt lat="38.566286154091358" lon="-2.435620883479714">
        <ele>1551.800048828125</ele>
        <time>2019-11-02T12:05:08Z</time>
      </trkpt>
      <trkpt lat="38.566236030310392" lon="-2.435676706954837">
        <ele>1551.199951171875</ele>
        <time>2019-11-02T12:05:09Z</time>
      </trkpt>
      <trkpt lat="38.566124718636274" lon="-2.435808973386884">
        <ele>1550.199951171875</ele>
        <time>2019-11-02T12:05:11Z</time>
      </trkpt>
      <trkpt lat="38.566049952059984" lon="-2.435877285897732">
        <ele>1549.5999755859375</ele>
        <time>2019-11-02T12:05:12Z</time>
      </trkpt>
      <trkpt lat="38.565992955118418" lon="-2.435939395800233">
        <ele>1549</ele>
        <time>2019-11-02T12:05:13Z</time>
      </trkpt>
      <trkpt lat="38.565869741141796" lon="-2.436067722737789">
        <ele>1548</ele>
        <time>2019-11-02T12:05:15Z</time>
      </trkpt>
      <trkpt lat="38.565746694803238" lon="-2.43622362613678">
        <ele>1547</ele>
        <time>2019-11-02T12:05:17Z</time>
      </trkpt>
      <trkpt lat="38.56567352078855" lon="-2.436308786273003">
        <ele>1545.4000244140625</ele>
        <time>2019-11-02T12:05:18Z</time>
      </trkpt>
      <trkpt lat="38.565570171922445" lon="-2.436461504548788">
        <ele>1544.199951171875</ele>
        <time>2019-11-02T12:05:20Z</time>
      </trkpt>
      <trkpt lat="38.565471852198243" lon="-2.436604080721736">
        <ele>1543.199951171875</ele>
        <time>2019-11-02T12:05:22Z</time>
      </trkpt>
      <trkpt lat="38.56542139314115" lon="-2.436659904196858">
        <ele>1542.5999755859375</ele>
        <time>2019-11-02T12:05:23Z</time>
      </trkpt>
      <trkpt lat="38.56530848890543" lon="-2.436748668551445">
        <ele>1542</ele>
        <time>2019-11-02T12:05:25Z</time>
      </trkpt>
      <trkpt lat="38.56525082141161" lon="-2.436795942485332">
        <ele>1541.199951171875</ele>
        <time>2019-11-02T12:05:26Z</time>
      </trkpt>
      <trkpt lat="38.56518586166203" lon="-2.436837768182158">
        <ele>1540.800048828125</ele>
        <time>2019-11-02T12:05:27Z</time>
      </trkpt>
      <trkpt lat="38.565006405115128" lon="-2.4369634129107">
        <ele>1539.800048828125</ele>
        <time>2019-11-02T12:05:30Z</time>
      </trkpt>
      <trkpt lat="38.564960053190589" lon="-2.436994006857276">
        <ele>1539.800048828125</ele>
        <time>2019-11-02T12:05:31Z</time>
      </trkpt>
      <trkpt lat="38.564882017672062" lon="-2.437053937464952">
        <ele>1539.5999755859375</ele>
        <time>2019-11-02T12:05:33Z</time>
      </trkpt>
      <trkpt lat="38.564684204757214" lon="-2.437214199453592">
        <ele>1540.199951171875</ele>
        <time>2019-11-02T12:05:38Z</time>
      </trkpt>
      <trkpt lat="38.564488403499126" lon="-2.437397595494986">
        <ele>1540</ele>
        <time>2019-11-02T12:05:44Z</time>
      </trkpt>
      <trkpt lat="38.564321016892791" lon="-2.437561294063926">
        <ele>1539.800048828125</ele>
        <time>2019-11-02T12:05:49Z</time>
      </trkpt>
      <trkpt lat="38.564218422397971" lon="-2.437666906043887">
        <ele>1540.199951171875</ele>
        <time>2019-11-02T12:05:52Z</time>
      </trkpt>
      <trkpt lat="38.564126389101148" lon="-2.437749300152063">
        <ele>1541</ele>
        <time>2019-11-02T12:05:55Z</time>
      </trkpt>
      <trkpt lat="38.563994793221354" lon="-2.437832532450557">
        <ele>1541.800048828125</ele>
        <time>2019-11-02T12:05:59Z</time>
      </trkpt>
      <trkpt lat="38.563910722732544" lon="-2.437910316511989">
        <ele>1542.199951171875</ele>
        <time>2019-11-02T12:06:02Z</time>
      </trkpt>
      <trkpt lat="38.563827993348241" lon="-2.438048366457224">
        <ele>1542.800048828125</ele>
        <time>2019-11-02T12:06:06Z</time>
      </trkpt>
      <trkpt lat="38.563692877069116" lon="-2.438232684507966">
        <ele>1542.5999755859375</ele>
        <time>2019-11-02T12:06:12Z</time>
      </trkpt>
      <trkpt lat="38.563518449664116" lon="-2.438389090821147">
        <ele>1542</ele>
        <time>2019-11-02T12:06:18Z</time>
      </trkpt>
      <trkpt lat="38.563276631757617" lon="-2.438575839623809">
        <ele>1542.800048828125</ele>
        <time>2019-11-02T12:06:25Z</time>
      </trkpt>
      <trkpt lat="38.563222987577319" lon="-2.438644487410784">
        <ele>1543.199951171875</ele>
        <time>2019-11-02T12:06:27Z</time>
      </trkpt>
      <trkpt lat="38.563093654811382" lon="-2.438824027776718">
        <ele>1543.199951171875</ele>
        <time>2019-11-02T12:06:32Z</time>
      </trkpt>
      <trkpt lat="38.562900284305215" lon="-2.439073473215103">
        <ele>1542.5999755859375</ele>
        <time>2019-11-02T12:06:40Z</time>
      </trkpt>
      <trkpt lat="38.562742872163653" lon="-2.439249409362674">
        <ele>1543.4000244140625</ele>
        <time>2019-11-02T12:06:47Z</time>
      </trkpt>
      <trkpt lat="38.56261714361608" lon="-2.439372120425105">
        <ele>1544</ele>
        <time>2019-11-02T12:06:53Z</time>
      </trkpt>
      <trkpt lat="38.562567941844463" lon="-2.439399110153317">
        <ele>1544.5999755859375</ele>
        <time>2019-11-02T12:06:55Z</time>
      </trkpt>
      <trkpt lat="38.562467945739627" lon="-2.43944906629622">
        <ele>1545.5999755859375</ele>
        <time>2019-11-02T12:06:59Z</time>
      </trkpt>
      <trkpt lat="38.562443722039461" lon="-2.439460381865501">
        <ele>1545.800048828125</ele>
        <time>2019-11-02T12:07:00Z</time>
      </trkpt>
      <trkpt lat="38.562368871644139" lon="-2.43949307128787">
        <ele>1546.5999755859375</ele>
        <time>2019-11-02T12:07:03Z</time>
      </trkpt>
      <trkpt lat="38.562219673767686" lon="-2.439560797065496">
        <ele>1547.5999755859375</ele>
        <time>2019-11-02T12:07:09Z</time>
      </trkpt>
      <trkpt lat="38.562179440632463" lon="-2.439602119848132">
        <ele>1548.199951171875</ele>
        <time>2019-11-02T12:07:11Z</time>
      </trkpt>
      <trkpt lat="38.562101824209094" lon="-2.439684011042118">
        <ele>1548.800048828125</ele>
        <time>2019-11-02T12:07:15Z</time>
      </trkpt>
      <trkpt lat="38.562085395678878" lon="-2.439710916951299">
        <ele>1549</ele>
        <time>2019-11-02T12:07:16Z</time>
      </trkpt>
      <trkpt lat="38.562029572203755" lon="-2.439854247495532">
        <ele>1549.800048828125</ele>
        <time>2019-11-02T12:07:21Z</time>
      </trkpt>
      <trkpt lat="38.562021609395742" lon="-2.43987905792892">
        <ele>1550</ele>
        <time>2019-11-02T12:07:22Z</time>
      </trkpt>
      <trkpt lat="38.561977855861187" lon="-2.4401028547436">
        <ele>1550.5999755859375</ele>
        <time>2019-11-02T12:07:30Z</time>
      </trkpt>
      <trkpt lat="38.561965702101588" lon="-2.440189272165298">
        <ele>1551.199951171875</ele>
        <time>2019-11-02T12:07:33Z</time>
      </trkpt>
      <trkpt lat="38.561937287449837" lon="-2.440288513898849">
        <ele>1552.4000244140625</ele>
        <time>2019-11-02T12:07:37Z</time>
      </trkpt>
      <trkpt lat="38.561908956617117" lon="-2.44039898738265">
        <ele>1552.4000244140625</ele>
        <time>2019-11-02T12:07:44Z</time>
      </trkpt>
      <trkpt lat="38.561907280236483" lon="-2.440404016524553">
        <ele>1552.4000244140625</ele>
        <time>2019-11-02T12:07:59Z</time>
      </trkpt>
      <trkpt lat="38.561879871413112" lon="-2.440468221902847">
        <ele>1552.800048828125</ele>
        <time>2019-11-02T12:08:04Z</time>
      </trkpt>
      <trkpt lat="38.561854055151343" lon="-2.440523123368621">
        <ele>1553.4000244140625</ele>
        <time>2019-11-02T12:08:07Z</time>
      </trkpt>
      <trkpt lat="38.561798399314284" lon="-2.440610211342573">
        <ele>1553.800048828125</ele>
        <time>2019-11-02T12:08:11Z</time>
      </trkpt>
      <trkpt lat="38.56171315535903" lon="-2.440785141661763">
        <ele>1554</ele>
        <time>2019-11-02T12:08:18Z</time>
      </trkpt>
      <trkpt lat="38.561654984951019" lon="-2.440912462770939">
        <ele>1554.4000244140625</ele>
        <time>2019-11-02T12:08:23Z</time>
      </trkpt>
      <trkpt lat="38.561626737937331" lon="-2.441004496067762">
        <ele>1555</ele>
        <time>2019-11-02T12:08:26Z</time>
      </trkpt>
      <trkpt lat="38.561587845906615" lon="-2.44125260040164">
        <ele>1555</ele>
        <time>2019-11-02T12:08:33Z</time>
      </trkpt>
      <trkpt lat="38.561573093757033" lon="-2.441524593159556">
        <ele>1555.4000244140625</ele>
        <time>2019-11-02T12:08:40Z</time>
      </trkpt>
      <trkpt lat="38.561639478430152" lon="-2.441782085224986">
        <ele>1555.4000244140625</ele>
        <time>2019-11-02T12:08:47Z</time>
      </trkpt>
      <trkpt lat="38.561740312725306" lon="-2.44205298833549">
        <ele>1555</ele>
        <time>2019-11-02T12:08:54Z</time>
      </trkpt>
      <trkpt lat="38.561781886965036" lon="-2.442342583090067">
        <ele>1554.4000244140625</ele>
        <time>2019-11-02T12:09:01Z</time>
      </trkpt>
      <trkpt lat="38.561702845618129" lon="-2.442606445401907">
        <ele>1554.199951171875</ele>
        <time>2019-11-02T12:09:08Z</time>
      </trkpt>
      <trkpt lat="38.561649452894926" lon="-2.442720020189881">
        <ele>1553.800048828125</ele>
        <time>2019-11-02T12:09:11Z</time>
      </trkpt>
      <trkpt lat="38.561565633863211" lon="-2.442896710708737">
        <ele>1552.5999755859375</ele>
        <time>2019-11-02T12:09:15Z</time>
      </trkpt>
      <trkpt lat="38.561542332172394" lon="-2.442944990471005">
        <ele>1552.4000244140625</ele>
        <time>2019-11-02T12:09:16Z</time>
      </trkpt>
      <trkpt lat="38.561414843425155" lon="-2.443188233301044">
        <ele>1551.5999755859375</ele>
        <time>2019-11-02T12:09:21Z</time>
      </trkpt>
      <trkpt lat="38.561296910047531" lon="-2.443352602422237">
        <ele>1550.800048828125</ele>
        <time>2019-11-02T12:09:25Z</time>
      </trkpt>
      <trkpt lat="38.561172774061561" lon="-2.443484114482999">
        <ele>1550.4000244140625</ele>
        <time>2019-11-02T12:09:30Z</time>
      </trkpt>
      <trkpt lat="38.561149723827839" lon="-2.443501884117723">
        <ele>1550.4000244140625</ele>
        <time>2019-11-02T12:09:31Z</time>
      </trkpt>
      <trkpt lat="38.560983845964074" lon="-2.443630378693342">
        <ele>1551</ele>
        <time>2019-11-02T12:09:38Z</time>
      </trkpt>
      <trkpt lat="38.560806401073933" lon="-2.443732973188162">
        <ele>1551.4000244140625</ele>
        <time>2019-11-02T12:09:45Z</time>
      </trkpt>
      <trkpt lat="38.560781255364418" lon="-2.443747306242585">
        <ele>1551.5999755859375</ele>
        <time>2019-11-02T12:09:46Z</time>
      </trkpt>
      <trkpt lat="38.560634572058916" lon="-2.443814612925053">
        <ele>1552.199951171875</ele>
        <time>2019-11-02T12:09:52Z</time>
      </trkpt>
      <trkpt lat="38.560522003099322" lon="-2.443848894909024">
        <ele>1552.800048828125</ele>
        <time>2019-11-02T12:09:56Z</time>
      </trkpt>
      <trkpt lat="38.560438686981797" lon="-2.443870268762112">
        <ele>1553.199951171875</ele>
        <time>2019-11-02T12:09:59Z</time>
      </trkpt>
      <trkpt lat="38.560237688943744" lon="-2.443918464705348">
        <ele>1553.5999755859375</ele>
        <time>2019-11-02T12:10:07Z</time>
      </trkpt>
      <trkpt lat="38.560118917375803" lon="-2.443979568779469">
        <ele>1553.800048828125</ele>
        <time>2019-11-02T12:10:12Z</time>
      </trkpt>
      <trkpt lat="38.559928312897682" lon="-2.444177800789475">
        <ele>1554.4000244140625</ele>
        <time>2019-11-02T12:10:20Z</time>
      </trkpt>
      <trkpt lat="38.559825047850609" lon="-2.444308726117015">
        <ele>1555</ele>
        <time>2019-11-02T12:10:25Z</time>
      </trkpt>
      <trkpt lat="38.559805685654283" lon="-2.444338984787464">
        <ele>1555.199951171875</ele>
        <time>2019-11-02T12:10:26Z</time>
      </trkpt>
      <trkpt lat="38.559672748669982" lon="-2.444620532914996">
        <ele>1554.5999755859375</ele>
        <time>2019-11-02T12:10:33Z</time>
      </trkpt>
      <trkpt lat="38.559606950730085" lon="-2.4449104629457">
        <ele>1554.4000244140625</ele>
        <time>2019-11-02T12:10:38Z</time>
      </trkpt>
      <trkpt lat="38.559595718979836" lon="-2.444970058277249">
        <ele>1554</ele>
        <time>2019-11-02T12:10:39Z</time>
      </trkpt>
      <trkpt lat="38.559557748958468" lon="-2.445136522874236">
        <ele>1553.199951171875</ele>
        <time>2019-11-02T12:10:42Z</time>
      </trkpt>
      <trkpt lat="38.559539979323745" lon="-2.445183293893933">
        <ele>1553</ele>
        <time>2019-11-02T12:10:43Z</time>
      </trkpt>
      <trkpt lat="38.559521622955799" lon="-2.445226209238172">
        <ele>1552.5999755859375</ele>
        <time>2019-11-02T12:10:44Z</time>
      </trkpt>
      <trkpt lat="38.559484155848622" lon="-2.445309106260538">
        <ele>1552</ele>
        <time>2019-11-02T12:10:46Z</time>
      </trkpt>
      <trkpt lat="38.559464458376169" lon="-2.445346489548683">
        <ele>1551.5999755859375</ele>
        <time>2019-11-02T12:10:47Z</time>
      </trkpt>
      <trkpt lat="38.559362618252635" lon="-2.445484036579728">
        <ele>1550.5999755859375</ele>
        <time>2019-11-02T12:10:51Z</time>
      </trkpt>
      <trkpt lat="38.559302100911736" lon="-2.445561904460192">
        <ele>1549.800048828125</ele>
        <time>2019-11-02T12:10:53Z</time>
      </trkpt>
      <trkpt lat="38.559247031807899" lon="-2.445658883079886">
        <ele>1549.199951171875</ele>
        <time>2019-11-02T12:10:55Z</time>
      </trkpt>
      <trkpt lat="38.559217359870672" lon="-2.445704312995076">
        <ele>1548.5999755859375</ele>
        <time>2019-11-02T12:10:56Z</time>
      </trkpt>
      <trkpt lat="38.55918693356216" lon="-2.445746138691902">
        <ele>1548.199951171875</ele>
        <time>2019-11-02T12:10:57Z</time>
      </trkpt>
      <trkpt lat="38.559127086773515" lon="-2.445834232494235">
        <ele>1547.199951171875</ele>
        <time>2019-11-02T12:10:59Z</time>
      </trkpt>
      <trkpt lat="38.559071933850646" lon="-2.445938419550657">
        <ele>1546.199951171875</ele>
        <time>2019-11-02T12:11:01Z</time>
      </trkpt>
      <trkpt lat="38.559049302712083" lon="-2.445996757596731">
        <ele>1546</ele>
        <time>2019-11-02T12:11:02Z</time>
      </trkpt>
      <trkpt lat="38.559013847261667" lon="-2.44611443951726">
        <ele>1545.199951171875</ele>
        <time>2019-11-02T12:11:04Z</time>
      </trkpt>
      <trkpt lat="38.558996664360166" lon="-2.446177890524268">
        <ele>1544.800048828125</ele>
        <time>2019-11-02T12:11:05Z</time>
      </trkpt>
      <trkpt lat="38.558978559449315" lon="-2.446235977113247">
        <ele>1544.5999755859375</ele>
        <time>2019-11-02T12:11:06Z</time>
      </trkpt>
      <trkpt lat="38.558919886127114" lon="-2.446393808349967">
        <ele>1543.5999755859375</ele>
        <time>2019-11-02T12:11:09Z</time>
      </trkpt>
      <trkpt lat="38.558867163956165" lon="-2.446506293490529">
        <ele>1542.5999755859375</ele>
        <time>2019-11-02T12:11:11Z</time>
      </trkpt>
      <trkpt lat="38.558841599151492" lon="-2.446562284603715">
        <ele>1542.4000244140625</ele>
        <time>2019-11-02T12:11:12Z</time>
      </trkpt>
      <trkpt lat="38.558782758191228" lon="-2.446673596277833">
        <ele>1541.5999755859375</ele>
        <time>2019-11-02T12:11:14Z</time>
      </trkpt>
      <trkpt lat="38.558750655502081" lon="-2.446724055334926">
        <ele>1541.4000244140625</ele>
        <time>2019-11-02T12:11:15Z</time>
      </trkpt>
      <trkpt lat="38.558656191453338" lon="-2.446881802752614">
        <ele>1539.800048828125</ele>
        <time>2019-11-02T12:11:18Z</time>
      </trkpt>
      <trkpt lat="38.558600535616279" lon="-2.446990013122559">
        <ele>1539</ele>
        <time>2019-11-02T12:11:20Z</time>
      </trkpt>
      <trkpt lat="38.558579664677382" lon="-2.447041142731905">
        <ele>1538.5999755859375</ele>
        <time>2019-11-02T12:11:21Z</time>
      </trkpt>
      <trkpt lat="38.558541862294078" lon="-2.447138037532568">
        <ele>1537.800048828125</ele>
        <time>2019-11-02T12:11:23Z</time>
      </trkpt>
      <trkpt lat="38.558524008840322" lon="-2.447180869057775">
        <ele>1537.5999755859375</ele>
        <time>2019-11-02T12:11:24Z</time>
      </trkpt>
      <trkpt lat="38.558472208678722" lon="-2.447293940931559">
        <ele>1536.4000244140625</ele>
        <time>2019-11-02T12:11:27Z</time>
      </trkpt>
      <trkpt lat="38.558443877846003" lon="-2.447353536263108">
        <ele>1536</ele>
        <time>2019-11-02T12:11:29Z</time>
      </trkpt>
      <trkpt lat="38.558414792641997" lon="-2.447406426072121">
        <ele>1535.4000244140625</ele>
        <time>2019-11-02T12:11:31Z</time>
      </trkpt>
      <trkpt lat="38.558334745466709" lon="-2.447532154619694">
        <ele>1535</ele>
        <time>2019-11-02T12:11:36Z</time>
      </trkpt>
      <trkpt lat="38.558205664157867" lon="-2.447753772139549">
        <ele>1535.4000244140625</ele>
        <time>2019-11-02T12:11:43Z</time>
      </trkpt>
      <trkpt lat="38.558105081319809" lon="-2.447974802926183">
        <ele>1535.199951171875</ele>
        <time>2019-11-02T12:11:50Z</time>
      </trkpt>
      <trkpt lat="38.55802645906806" lon="-2.448249477893114">
        <ele>1536</ele>
        <time>2019-11-02T12:11:58Z</time>
      </trkpt>
      <trkpt lat="38.557957140728831" lon="-2.448435556143522">
        <ele>1536</ele>
        <time>2019-11-02T12:12:04Z</time>
      </trkpt>
      <trkpt lat="38.557862173765898" lon="-2.448583161458373">
        <ele>1536.5999755859375</ele>
        <time>2019-11-02T12:12:10Z</time>
      </trkpt>
      <trkpt lat="38.557842476293445" lon="-2.4486093968153">
        <ele>1536.5999755859375</ele>
        <time>2019-11-02T12:12:11Z</time>
      </trkpt>
      <trkpt lat="38.557697469368577" lon="-2.448770245537162">
        <ele>1536.800048828125</ele>
        <time>2019-11-02T12:12:18Z</time>
      </trkpt>
      <trkpt lat="38.5575270652771" lon="-2.448951294645667">
        <ele>1537.800048828125</ele>
        <time>2019-11-02T12:12:27Z</time>
      </trkpt>
      <trkpt lat="38.557508960366249" lon="-2.448972836136818">
        <ele>1538</ele>
        <time>2019-11-02T12:12:28Z</time>
      </trkpt>
      <trkpt lat="38.557374263182282" lon="-2.449125135317445">
        <ele>1538.5999755859375</ele>
        <time>2019-11-02T12:12:35Z</time>
      </trkpt>
      <trkpt lat="38.55728130787611" lon="-2.449225382879376">
        <ele>1539.199951171875</ele>
        <time>2019-11-02T12:12:40Z</time>
      </trkpt>
      <trkpt lat="38.557215929031372" lon="-2.449294030666351">
        <ele>1539.199951171875</ele>
        <time>2019-11-02T12:12:43Z</time>
      </trkpt>
      <trkpt lat="38.557031024247408" lon="-2.449524197727442">
        <ele>1538.800048828125</ele>
        <time>2019-11-02T12:12:51Z</time>
      </trkpt>
      <trkpt lat="38.556916946545243" lon="-2.449711868539453">
        <ele>1538</ele>
        <time>2019-11-02T12:12:56Z</time>
      </trkpt>
      <trkpt lat="38.556872522458434" lon="-2.449807086959481">
        <ele>1537.5999755859375</ele>
        <time>2019-11-02T12:12:58Z</time>
      </trkpt>
      <trkpt lat="38.556763306260109" lon="-2.450031554326415">
        <ele>1536.800048828125</ele>
        <time>2019-11-02T12:13:02Z</time>
      </trkpt>
      <trkpt lat="38.556714355945587" lon="-2.450144374743104">
        <ele>1536.5999755859375</ele>
        <time>2019-11-02T12:13:04Z</time>
      </trkpt>
      <trkpt lat="38.556654090061784" lon="-2.450267840176821">
        <ele>1535.800048828125</ele>
        <time>2019-11-02T12:13:07Z</time>
      </trkpt>
      <trkpt lat="38.55660748668015" lon="-2.450323915109038">
        <ele>1535.199951171875</ele>
        <time>2019-11-02T12:13:09Z</time>
      </trkpt>
      <trkpt lat="38.556551998481154" lon="-2.450353084132075">
        <ele>1534.800048828125</ele>
        <time>2019-11-02T12:13:11Z</time>
      </trkpt>
      <trkpt lat="38.556496091187" lon="-2.450350150465965">
        <ele>1534.4000244140625</ele>
        <time>2019-11-02T12:13:13Z</time>
      </trkpt>
      <trkpt lat="38.556420402601361" lon="-2.450289214029908">
        <ele>1533.4000244140625</ele>
        <time>2019-11-02T12:13:16Z</time>
      </trkpt>
      <trkpt lat="38.556401962414384" lon="-2.450258787721395">
        <ele>1533</ele>
        <time>2019-11-02T12:13:17Z</time>
      </trkpt>
      <trkpt lat="38.556364998221397" lon="-2.450197683647275">
        <ele>1532.199951171875</ele>
        <time>2019-11-02T12:13:19Z</time>
      </trkpt>
      <trkpt lat="38.556318813934922" lon="-2.450102968141437">
        <ele>1531.4000244140625</ele>
        <time>2019-11-02T12:13:22Z</time>
      </trkpt>
      <trkpt lat="38.556306743994355" lon="-2.450063992291689">
        <ele>1531</ele>
        <time>2019-11-02T12:13:23Z</time>
      </trkpt>
      <trkpt lat="38.556267935782671" lon="-2.449944969266653">
        <ele>1530</ele>
        <time>2019-11-02T12:13:26Z</time>
      </trkpt>
      <trkpt lat="38.556256536394358" lon="-2.449856540188193">
        <ele>1529.4000244140625</ele>
        <time>2019-11-02T12:13:28Z</time>
      </trkpt>
      <trkpt lat="38.556259972974658" lon="-2.449788227677345">
        <ele>1529</ele>
        <time>2019-11-02T12:13:30Z</time>
      </trkpt>
      <trkpt lat="38.556269444525242" lon="-2.449708096683025">
        <ele>1528.5999755859375</ele>
        <time>2019-11-02T12:13:33Z</time>
      </trkpt>
      <trkpt lat="38.55627422221005" lon="-2.449674988165498">
        <ele>1528.4000244140625</ele>
        <time>2019-11-02T12:13:37Z</time>
      </trkpt>
      <trkpt lat="38.556274389848113" lon="-2.449674652889371">
        <ele>1528.800048828125</ele>
        <time>2019-11-02T12:13:50Z</time>
      </trkpt>
      <trkpt lat="38.556273635476828" lon="-2.449664259329438">
        <ele>1529</ele>
        <time>2019-11-02T12:14:08Z</time>
      </trkpt>
      <trkpt lat="38.556275647133589" lon="-2.44965948164463">
        <ele>1528.800048828125</ele>
        <time>2019-11-02T12:14:24Z</time>
      </trkpt>
      <trkpt lat="38.556298445910215" lon="-2.449583625420928">
        <ele>1528.5999755859375</ele>
        <time>2019-11-02T12:14:29Z</time>
      </trkpt>
      <trkpt lat="38.556349910795689" lon="-2.449441971257329">
        <ele>1528</ele>
        <time>2019-11-02T12:14:34Z</time>
      </trkpt>
      <trkpt lat="38.556370362639427" lon="-2.449370138347149">
        <ele>1527.5999755859375</ele>
        <time>2019-11-02T12:14:36Z</time>
      </trkpt>
      <trkpt lat="38.556383606046438" lon="-2.449142653495073">
        <ele>1527</ele>
        <time>2019-11-02T12:14:41Z</time>
      </trkpt>
      <trkpt lat="38.556370614096522" lon="-2.449004603549838">
        <ele>1526</ele>
        <time>2019-11-02T12:14:44Z</time>
      </trkpt>
      <trkpt lat="38.556373799219728" lon="-2.44887862354517">
        <ele>1525</ele>
        <time>2019-11-02T12:14:47Z</time>
      </trkpt>
      <trkpt lat="38.556373883038759" lon="-2.448837719857693">
        <ele>1524.800048828125</ele>
        <time>2019-11-02T12:14:48Z</time>
      </trkpt>
      <trkpt lat="38.556368518620729" lon="-2.448712158948183">
        <ele>1523.800048828125</ele>
        <time>2019-11-02T12:14:51Z</time>
      </trkpt>
      <trkpt lat="38.556345049291849" lon="-2.448562458157539">
        <ele>1523.199951171875</ele>
        <time>2019-11-02T12:14:54Z</time>
      </trkpt>
      <trkpt lat="38.556325519457459" lon="-2.448480650782585">
        <ele>1522.5999755859375</ele>
        <time>2019-11-02T12:14:56Z</time>
      </trkpt>
      <trkpt lat="38.556302133947611" lon="-2.448365148156881">
        <ele>1521.5999755859375</ele>
        <time>2019-11-02T12:14:59Z</time>
      </trkpt>
      <trkpt lat="38.556289309635758" lon="-2.448318628594279">
        <ele>1521.199951171875</ele>
        <time>2019-11-02T12:15:00Z</time>
      </trkpt>
      <trkpt lat="38.556244382634759" lon="-2.448099358007312">
        <ele>1520.199951171875</ele>
        <time>2019-11-02T12:15:04Z</time>
      </trkpt>
      <trkpt lat="38.55621219612658" lon="-2.447902718558908">
        <ele>1519</ele>
        <time>2019-11-02T12:15:07Z</time>
      </trkpt>
      <trkpt lat="38.556206664070487" lon="-2.447848487645388">
        <ele>1518.800048828125</ele>
        <time>2019-11-02T12:15:08Z</time>
      </trkpt>
      <trkpt lat="38.556171711534262" lon="-2.447578925639391">
        <ele>1518.199951171875</ele>
        <time>2019-11-02T12:15:14Z</time>
      </trkpt>
      <trkpt lat="38.556136004626751" lon="-2.447487814351916">
        <ele>1518</ele>
        <time>2019-11-02T12:15:16Z</time>
      </trkpt>
      <trkpt lat="38.556110104545951" lon="-2.447441462427378">
        <ele>1517.800048828125</ele>
        <time>2019-11-02T12:15:17Z</time>
      </trkpt>
      <trkpt lat="38.556079175323248" lon="-2.447396954521537">
        <ele>1517.5999755859375</ele>
        <time>2019-11-02T12:15:18Z</time>
      </trkpt>
      <trkpt lat="38.556010443717241" lon="-2.447312716394663">
        <ele>1517</ele>
        <time>2019-11-02T12:15:20Z</time>
      </trkpt>
      <trkpt lat="38.555967193096876" lon="-2.447268376126885">
        <ele>1516.5999755859375</ele>
        <time>2019-11-02T12:15:21Z</time>
      </trkpt>
      <trkpt lat="38.555884631350636" lon="-2.447191178798676">
        <ele>1516.199951171875</ele>
        <time>2019-11-02T12:15:23Z</time>
      </trkpt>
      <trkpt lat="38.555814810097218" lon="-2.447124123573303">
        <ele>1515.4000244140625</ele>
        <time>2019-11-02T12:15:25Z</time>
      </trkpt>
      <trkpt lat="38.555752700194716" lon="-2.447036113590002">
        <ele>1514.5999755859375</ele>
        <time>2019-11-02T12:15:27Z</time>
      </trkpt>
      <trkpt lat="38.555683549493551" lon="-2.44691826403141">
        <ele>1514</ele>
        <time>2019-11-02T12:15:29Z</time>
      </trkpt>
      <trkpt lat="38.555616997182369" lon="-2.446797732263803">
        <ele>1513.5999755859375</ele>
        <time>2019-11-02T12:15:31Z</time>
      </trkpt>
      <trkpt lat="38.555556060746312" lon="-2.446690779179335">
        <ele>1513</ele>
        <time>2019-11-02T12:15:33Z</time>
      </trkpt>
      <trkpt lat="38.55547291226685" lon="-2.446542922407389">
        <ele>1511.800048828125</ele>
        <time>2019-11-02T12:15:36Z</time>
      </trkpt>
      <trkpt lat="38.555450532585382" lon="-2.446510819718242">
        <ele>1511.5999755859375</ele>
        <time>2019-11-02T12:15:37Z</time>
      </trkpt>
      <trkpt lat="38.555326564237475" lon="-2.446428341791034">
        <ele>1510.5999755859375</ele>
        <time>2019-11-02T12:15:42Z</time>
      </trkpt>
      <trkpt lat="38.55528331361711" lon="-2.446435131132603">
        <ele>1510.199951171875</ele>
        <time>2019-11-02T12:15:44Z</time>
      </trkpt>
      <trkpt lat="38.555221958085895" lon="-2.446484668180346">
        <ele>1510.199951171875</ele>
        <time>2019-11-02T12:15:47Z</time>
      </trkpt>
      <trkpt lat="38.555149286985397" lon="-2.44654593989253">
        <ele>1510</ele>
        <time>2019-11-02T12:15:50Z</time>
      </trkpt>
      <trkpt lat="38.555085752159357" lon="-2.446604361757636">
        <ele>1509.800048828125</ele>
        <time>2019-11-02T12:15:52Z</time>
      </trkpt>
      <trkpt lat="38.555052978917956" lon="-2.446637134999037">
        <ele>1509.800048828125</ele>
        <time>2019-11-02T12:15:53Z</time>
      </trkpt>
      <trkpt lat="38.55484644882381" lon="-2.446835283190012">
        <ele>1509.199951171875</ele>
        <time>2019-11-02T12:15:59Z</time>
      </trkpt>
      <trkpt lat="38.554718373343349" lon="-2.446960592642426">
        <ele>1508.800048828125</ele>
        <time>2019-11-02T12:16:03Z</time>
      </trkpt>
      <trkpt lat="38.554679984226823" lon="-2.446986408904195">
        <ele>1508.800048828125</ele>
        <time>2019-11-02T12:16:04Z</time>
      </trkpt>
      <trkpt lat="38.554497258737683" lon="-2.447054805234075">
        <ele>1507.4000244140625</ele>
        <time>2019-11-02T12:16:08Z</time>
      </trkpt>
      <trkpt lat="38.554447554051876" lon="-2.447060588747263">
        <ele>1507.199951171875</ele>
        <time>2019-11-02T12:16:09Z</time>
      </trkpt>
      <trkpt lat="38.554348228499293" lon="-2.447052290663123">
        <ele>1506.5999755859375</ele>
        <time>2019-11-02T12:16:11Z</time>
      </trkpt>
      <trkpt lat="38.554297182708979" lon="-2.447047932073474">
        <ele>1506.199951171875</ele>
        <time>2019-11-02T12:16:12Z</time>
      </trkpt>
      <trkpt lat="38.554198611527681" lon="-2.447046590968966">
        <ele>1505.4000244140625</ele>
        <time>2019-11-02T12:16:14Z</time>
      </trkpt>
      <trkpt lat="38.554150918498635" lon="-2.447059415280819">
        <ele>1504.800048828125</ele>
        <time>2019-11-02T12:16:15Z</time>
      </trkpt>
      <trkpt lat="38.554062992334366" lon="-2.44713376276195">
        <ele>1504.199951171875</ele>
        <time>2019-11-02T12:16:17Z</time>
      </trkpt>
      <trkpt lat="38.554020915180445" lon="-2.447167374193668">
        <ele>1503.5999755859375</ele>
        <time>2019-11-02T12:16:18Z</time>
      </trkpt>
      <trkpt lat="38.553930809721351" lon="-2.447186317294836">
        <ele>1503.199951171875</ele>
        <time>2019-11-02T12:16:20Z</time>
      </trkpt>
      <trkpt lat="38.553838692605495" lon="-2.44715329259634">
        <ele>1502.5999755859375</ele>
        <time>2019-11-02T12:16:22Z</time>
      </trkpt>
      <trkpt lat="38.553794519975781" lon="-2.447131834924221">
        <ele>1502.4000244140625</ele>
        <time>2019-11-02T12:16:23Z</time>
      </trkpt>
      <trkpt lat="38.553751101717353" lon="-2.447115238755941">
        <ele>1502.199951171875</ele>
        <time>2019-11-02T12:16:24Z</time>
      </trkpt>
      <trkpt lat="38.553659152239561" lon="-2.447115406394005">
        <ele>1501.5999755859375</ele>
        <time>2019-11-02T12:16:26Z</time>
      </trkpt>
      <trkpt lat="38.553573237732053" lon="-2.447167038917542">
        <ele>1500.800048828125</ele>
        <time>2019-11-02T12:16:28Z</time>
      </trkpt>
      <trkpt lat="38.55353744700551" lon="-2.447209618985653">
        <ele>1500.4000244140625</ele>
        <time>2019-11-02T12:16:29Z</time>
      </trkpt>
      <trkpt lat="38.553482880815864" lon="-2.44731841608882">
        <ele>1499.199951171875</ele>
        <time>2019-11-02T12:16:31Z</time>
      </trkpt>
      <trkpt lat="38.553458992391825" lon="-2.44737952016294">
        <ele>1498.800048828125</ele>
        <time>2019-11-02T12:16:32Z</time>
      </trkpt>
      <trkpt lat="38.553383639082313" lon="-2.447573561221361">
        <ele>1498.199951171875</ele>
        <time>2019-11-02T12:16:35Z</time>
      </trkpt>
      <trkpt lat="38.553344244137406" lon="-2.447698200121522">
        <ele>1497.4000244140625</ele>
        <time>2019-11-02T12:16:37Z</time>
      </trkpt>
      <trkpt lat="38.553325636312366" lon="-2.447759639471769">
        <ele>1497.199951171875</ele>
        <time>2019-11-02T12:16:38Z</time>
      </trkpt>
      <trkpt lat="38.553307028487325" lon="-2.447827281430364">
        <ele>1496.5999755859375</ele>
        <time>2019-11-02T12:16:39Z</time>
      </trkpt>
      <trkpt lat="38.553279284387827" lon="-2.447960302233696">
        <ele>1495.5999755859375</ele>
        <time>2019-11-02T12:16:41Z</time>
      </trkpt>
      <trkpt lat="38.553252210840583" lon="-2.448084689676762">
        <ele>1495.199951171875</ele>
        <time>2019-11-02T12:16:43Z</time>
      </trkpt>
      <trkpt lat="38.553214995190501" lon="-2.448199354112148">
        <ele>1494.4000244140625</ele>
        <time>2019-11-02T12:16:45Z</time>
      </trkpt>
      <trkpt lat="38.553170822560787" lon="-2.448270348832011">
        <ele>1494</ele>
        <time>2019-11-02T12:16:47Z</time>
      </trkpt>
      <trkpt lat="38.553081974387169" lon="-2.448311755433679">
        <ele>1493.4000244140625</ele>
        <time>2019-11-02T12:16:50Z</time>
      </trkpt>
      <trkpt lat="38.553022211417556" lon="-2.448321897536516">
        <ele>1493</ele>
        <time>2019-11-02T12:16:52Z</time>
      </trkpt>
      <trkpt lat="38.55280939489603" lon="-2.448334470391273">
        <ele>1492.4000244140625</ele>
        <time>2019-11-02T12:16:58Z</time>
      </trkpt>
      <trkpt lat="38.5526417568326" lon="-2.448393562808633">
        <ele>1492</ele>
        <time>2019-11-02T12:17:03Z</time>
      </trkpt>
      <trkpt lat="38.552525332197547" lon="-2.448563380166888">
        <ele>1492</ele>
        <time>2019-11-02T12:17:08Z</time>
      </trkpt>
      <trkpt lat="38.552484344691038" lon="-2.448641080409288">
        <ele>1492</ele>
        <time>2019-11-02T12:17:10Z</time>
      </trkpt>
      <trkpt lat="38.552449308335781" lon="-2.448733281344175">
        <ele>1492.199951171875</ele>
        <time>2019-11-02T12:17:12Z</time>
      </trkpt>
      <trkpt lat="38.552319975569844" lon="-2.448943750932813">
        <ele>1492.5999755859375</ele>
        <time>2019-11-02T12:17:17Z</time>
      </trkpt>
      <trkpt lat="38.552157199010253" lon="-2.449028827250004">
        <ele>1492.4000244140625</ele>
        <time>2019-11-02T12:17:22Z</time>
      </trkpt>
      <trkpt lat="38.551926109939814" lon="-2.449045507237315">
        <ele>1493.199951171875</ele>
        <time>2019-11-02T12:17:29Z</time>
      </trkpt>
      <trkpt lat="38.551826449111104" lon="-2.449034359306097">
        <ele>1493.5999755859375</ele>
        <time>2019-11-02T12:17:32Z</time>
      </trkpt>
      <trkpt lat="38.551708096638322" lon="-2.449019020423293">
        <ele>1494</ele>
        <time>2019-11-02T12:17:36Z</time>
      </trkpt>
      <trkpt lat="38.55153207667172" lon="-2.448942577466369">
        <ele>1494.800048828125</ele>
        <time>2019-11-02T12:17:43Z</time>
      </trkpt>
      <trkpt lat="38.551408275961876" lon="-2.448898069560528">
        <ele>1495.4000244140625</ele>
        <time>2019-11-02T12:17:49Z</time>
      </trkpt>
      <trkpt lat="38.551353877410293" lon="-2.448895974084735">
        <ele>1495.800048828125</ele>
        <time>2019-11-02T12:17:52Z</time>
      </trkpt>
      <trkpt lat="38.551302580162883" lon="-2.448880132287741">
        <ele>1496</ele>
        <time>2019-11-02T12:17:55Z</time>
      </trkpt>
      <trkpt lat="38.551197554916143" lon="-2.448821626603603">
        <ele>1496.199951171875</ele>
        <time>2019-11-02T12:18:01Z</time>
      </trkpt>
      <trkpt lat="38.551066461950541" lon="-2.448739483952522">
        <ele>1496.800048828125</ele>
        <time>2019-11-02T12:18:09Z</time>
      </trkpt>
      <trkpt lat="38.550922125577927" lon="-2.448649127036333">
        <ele>1497.800048828125</ele>
        <time>2019-11-02T12:18:17Z</time>
      </trkpt>
      <trkpt lat="38.550798324868083" lon="-2.448575366288424">
        <ele>1498.800048828125</ele>
        <time>2019-11-02T12:18:24Z</time>
      </trkpt>
      <trkpt lat="38.550780639052391" lon="-2.448569163680077">
        <ele>1498.800048828125</ele>
        <time>2019-11-02T12:18:25Z</time>
      </trkpt>
      <trkpt lat="38.550650049000978" lon="-2.448538988828659">
        <ele>1500.199951171875</ele>
        <time>2019-11-02T12:18:31Z</time>
      </trkpt>
      <trkpt lat="38.550628507509828" lon="-2.44854343123734">
        <ele>1500.4000244140625</ele>
        <time>2019-11-02T12:18:32Z</time>
      </trkpt>
      <trkpt lat="38.550468161702156" lon="-2.448570504784584">
        <ele>1500.800048828125</ele>
        <time>2019-11-02T12:18:39Z</time>
      </trkpt>
      <trkpt lat="38.550400603562593" lon="-2.448633620515466">
        <ele>1501.4000244140625</ele>
        <time>2019-11-02T12:18:43Z</time>
      </trkpt>
      <trkpt lat="38.550358191132545" lon="-2.448675613850355">
        <ele>1501.5999755859375</ele>
        <time>2019-11-02T12:18:46Z</time>
      </trkpt>
      <trkpt lat="38.550191055983305" lon="-2.448788098990917">
        <ele>1501</ele>
        <time>2019-11-02T12:18:54Z</time>
      </trkpt>
      <trkpt lat="38.550033560022712" lon="-2.448831936344504">
        <ele>1500.4000244140625</ele>
        <time>2019-11-02T12:18:59Z</time>
      </trkpt>
      <trkpt lat="38.550001624971628" lon="-2.448837887495756">
        <ele>1500.199951171875</ele>
        <time>2019-11-02T12:19:00Z</time>
      </trkpt>
      <trkpt lat="38.549843290820718" lon="-2.448865128681064">
        <ele>1500</ele>
        <time>2019-11-02T12:19:04Z</time>
      </trkpt>
      <trkpt lat="38.549702810123563" lon="-2.448929585516453">
        <ele>1499.5999755859375</ele>
        <time>2019-11-02T12:19:07Z</time>
      </trkpt>
      <trkpt lat="38.549610776826739" lon="-2.449002508074045">
        <ele>1499.199951171875</ele>
        <time>2019-11-02T12:19:09Z</time>
      </trkpt>
      <trkpt lat="38.549446994438767" lon="-2.449175175279379">
        <ele>1498.5999755859375</ele>
        <time>2019-11-02T12:19:13Z</time>
      </trkpt>
      <trkpt lat="38.549416149035096" lon="-2.449233764782548">
        <ele>1498.199951171875</ele>
        <time>2019-11-02T12:19:14Z</time>
      </trkpt>
      <trkpt lat="38.549343729391694" lon="-2.449465021491051">
        <ele>1497.4000244140625</ele>
        <time>2019-11-02T12:19:18Z</time>
      </trkpt>
      <trkpt lat="38.549342975020409" lon="-2.449529310688376">
        <ele>1497.199951171875</ele>
        <time>2019-11-02T12:19:19Z</time>
      </trkpt>
      <trkpt lat="38.549341717734933" lon="-2.449760735034943">
        <ele>1497.199951171875</ele>
        <time>2019-11-02T12:19:22Z</time>
      </trkpt>
      <trkpt lat="38.549344316124916" lon="-2.449845559895039">
        <ele>1497</ele>
        <time>2019-11-02T12:19:23Z</time>
      </trkpt>
      <trkpt lat="38.549344819039106" lon="-2.450011605396867">
        <ele>1496</ele>
        <time>2019-11-02T12:19:25Z</time>
      </trkpt>
      <trkpt lat="38.54934012517333" lon="-2.450166251510382">
        <ele>1495</ele>
        <time>2019-11-02T12:19:27Z</time>
      </trkpt>
      <trkpt lat="38.549338784068823" lon="-2.450229618698359">
        <ele>1494.4000244140625</ele>
        <time>2019-11-02T12:19:28Z</time>
      </trkpt>
      <trkpt lat="38.549333335831761" lon="-2.45028737001121">
        <ele>1493.800048828125</ele>
        <time>2019-11-02T12:19:29Z</time>
      </trkpt>
      <trkpt lat="38.549387902021408" lon="-2.450396921485662">
        <ele>1493</ele>
        <time>2019-11-02T12:19:31Z</time>
      </trkpt>
      <trkpt lat="38.549423692747951" lon="-2.450455175712705">
        <ele>1492.800048828125</ele>
        <time>2019-11-02T12:19:32Z</time>
      </trkpt>
      <trkpt lat="38.549462584778666" lon="-2.450518291443586">
        <ele>1492.4000244140625</ele>
        <time>2019-11-02T12:19:33Z</time>
      </trkpt>
      <trkpt lat="38.54953458532691" lon="-2.450649216771126">
        <ele>1492.4000244140625</ele>
        <time>2019-11-02T12:19:35Z</time>
      </trkpt>
      <trkpt lat="38.549560317769647" lon="-2.450718702748418">
        <ele>1492</ele>
        <time>2019-11-02T12:19:36Z</time>
      </trkpt>
      <trkpt lat="38.549601389095187" lon="-2.450872929766774">
        <ele>1491.5999755859375</ele>
        <time>2019-11-02T12:19:38Z</time>
      </trkpt>
      <trkpt lat="38.549618404358625" lon="-2.450962448492646">
        <ele>1490.800048828125</ele>
        <time>2019-11-02T12:19:39Z</time>
      </trkpt>
      <trkpt lat="38.549632066860795" lon="-2.451049787923694">
        <ele>1490</ele>
        <time>2019-11-02T12:19:40Z</time>
      </trkpt>
      <trkpt lat="38.549667354673147" lon="-2.45122455060482">
        <ele>1488.800048828125</ele>
        <time>2019-11-02T12:19:42Z</time>
      </trkpt>
      <trkpt lat="38.549704821780324" lon="-2.4513931106776">
        <ele>1487.5999755859375</ele>
        <time>2019-11-02T12:19:44Z</time>
      </trkpt>
      <trkpt lat="38.54972125031054" lon="-2.451478857547045">
        <ele>1487.199951171875</ele>
        <time>2019-11-02T12:19:45Z</time>
      </trkpt>
      <trkpt lat="38.549733823165298" lon="-2.451565526425838">
        <ele>1486.5999755859375</ele>
        <time>2019-11-02T12:19:46Z</time>
      </trkpt>
      <trkpt lat="38.549766931682825" lon="-2.451824778690934">
        <ele>1485.4000244140625</ele>
        <time>2019-11-02T12:19:49Z</time>
      </trkpt>
      <trkpt lat="38.549777995795012" lon="-2.451978670433164">
        <ele>1483.199951171875</ele>
        <time>2019-11-02T12:19:51Z</time>
      </trkpt>
      <trkpt lat="38.54977791197598" lon="-2.452050503343344">
        <ele>1481.800048828125</ele>
        <time>2019-11-02T12:19:52Z</time>
      </trkpt>
      <trkpt lat="38.549772296100855" lon="-2.452195510268211">
        <ele>1480.5999755859375</ele>
        <time>2019-11-02T12:19:54Z</time>
      </trkpt>
      <trkpt lat="38.549731895327568" lon="-2.452457863837481">
        <ele>1480</ele>
        <time>2019-11-02T12:19:58Z</time>
      </trkpt>
      <trkpt lat="38.549667606130242" lon="-2.452618628740311">
        <ele>1480.199951171875</ele>
        <time>2019-11-02T12:20:01Z</time>
      </trkpt>
      <trkpt lat="38.549611866474152" lon="-2.45270705781877">
        <ele>1480.199951171875</ele>
        <time>2019-11-02T12:20:03Z</time>
      </trkpt>
      <trkpt lat="38.54948278516531" lon="-2.452872097492218">
        <ele>1479.5999755859375</ele>
        <time>2019-11-02T12:20:08Z</time>
      </trkpt>
      <trkpt lat="38.549455376341939" lon="-2.452897327020764">
        <ele>1479.4000244140625</ele>
        <time>2019-11-02T12:20:09Z</time>
      </trkpt>
      <trkpt lat="38.549331910908222" lon="-2.452988438308239">
        <ele>1478.199951171875</ele>
        <time>2019-11-02T12:20:13Z</time>
      </trkpt>
      <trkpt lat="38.549229232594371" lon="-2.453047949820757">
        <ele>1477.199951171875</ele>
        <time>2019-11-02T12:20:16Z</time>
      </trkpt>
      <trkpt lat="38.549016583710909" lon="-2.453138222917914">
        <ele>1477</ele>
        <time>2019-11-02T12:20:22Z</time>
      </trkpt>
      <trkpt lat="38.548798654228449" lon="-2.453179964795709">
        <ele>1477.5999755859375</ele>
        <time>2019-11-02T12:20:28Z</time>
      </trkpt>
      <trkpt lat="38.548612911254168" lon="-2.453191531822085">
        <ele>1476.5999755859375</ele>
        <time>2019-11-02T12:20:34Z</time>
      </trkpt>
      <trkpt lat="38.548380145803094" lon="-2.453209804370999">
        <ele>1477.4000244140625</ele>
        <time>2019-11-02T12:20:41Z</time>
      </trkpt>
      <trkpt lat="38.548320885747671" lon="-2.453226568177342">
        <ele>1478.4000244140625</ele>
        <time>2019-11-02T12:20:43Z</time>
      </trkpt>
      <trkpt lat="38.548257434740663" lon="-2.453265963122249">
        <ele>1478.800048828125</ele>
        <time>2019-11-02T12:20:45Z</time>
      </trkpt>
      <trkpt lat="38.548171855509281" lon="-2.453338718041778">
        <ele>1479.4000244140625</ele>
        <time>2019-11-02T12:20:48Z</time>
      </trkpt>
      <trkpt lat="38.548089964315295" lon="-2.453419854864478">
        <ele>1480.199951171875</ele>
        <time>2019-11-02T12:20:51Z</time>
      </trkpt>
      <trkpt lat="38.548032883554697" lon="-2.453479282557964">
        <ele>1480.800048828125</ele>
        <time>2019-11-02T12:20:53Z</time>
      </trkpt>
      <trkpt lat="38.547930624336004" lon="-2.453584559261799">
        <ele>1482</ele>
        <time>2019-11-02T12:20:57Z</time>
      </trkpt>
      <trkpt lat="38.547905059531331" lon="-2.453611129894853">
        <ele>1482</ele>
        <time>2019-11-02T12:20:58Z</time>
      </trkpt>
      <trkpt lat="38.54777455329895" lon="-2.453847331926227">
        <ele>1482.199951171875</ele>
        <time>2019-11-02T12:21:05Z</time>
      </trkpt>
      <trkpt lat="38.547756867483258" lon="-2.45401119813323">
        <ele>1482.5999755859375</ele>
        <time>2019-11-02T12:21:10Z</time>
      </trkpt>
      <trkpt lat="38.547786539420485" lon="-2.454137932509184">
        <ele>1483</ele>
        <time>2019-11-02T12:21:14Z</time>
      </trkpt>
      <trkpt lat="38.547796346247196" lon="-2.454173387959599">
        <ele>1483.199951171875</ele>
        <time>2019-11-02T12:21:15Z</time>
      </trkpt>
      <trkpt lat="38.547842865809798" lon="-2.454310432076454">
        <ele>1484</ele>
        <time>2019-11-02T12:21:19Z</time>
      </trkpt>
      <trkpt lat="38.547848397865891" lon="-2.454347396269441">
        <ele>1484.199951171875</ele>
        <time>2019-11-02T12:21:20Z</time>
      </trkpt>
      <trkpt lat="38.547845715656877" lon="-2.454429538920522">
        <ele>1484.4000244140625</ele>
        <time>2019-11-02T12:21:22Z</time>
      </trkpt>
      <trkpt lat="38.547824174165726" lon="-2.45452769100666">
        <ele>1484.800048828125</ele>
        <time>2019-11-02T12:21:24Z</time>
      </trkpt>
      <trkpt lat="38.547805733978748" lon="-2.454667752608657">
        <ele>1485.199951171875</ele>
        <time>2019-11-02T12:21:27Z</time>
      </trkpt>
      <trkpt lat="38.547810763120651" lon="-2.454748302698135">
        <ele>1485.199951171875</ele>
        <time>2019-11-02T12:21:29Z</time>
      </trkpt>
      <trkpt lat="38.54784638620913" lon="-2.454928765073419">
        <ele>1485.4000244140625</ele>
        <time>2019-11-02T12:21:33Z</time>
      </trkpt>
      <trkpt lat="38.547910843044519" lon="-2.455184916034341">
        <ele>1485.4000244140625</ele>
        <time>2019-11-02T12:21:39Z</time>
      </trkpt>
      <trkpt lat="38.547874130308628" lon="-2.455497980117798">
        <ele>1485.5999755859375</ele>
        <time>2019-11-02T12:21:46Z</time>
      </trkpt>
      <trkpt lat="38.547761561349034" lon="-2.455729907378554">
        <ele>1485.5999755859375</ele>
        <time>2019-11-02T12:21:51Z</time>
      </trkpt>
      <trkpt lat="38.547594929113984" lon="-2.455953117460012">
        <ele>1485.199951171875</ele>
        <time>2019-11-02T12:21:57Z</time>
      </trkpt>
      <trkpt lat="38.547446401789784" lon="-2.456070883199573">
        <ele>1484.5999755859375</ele>
        <time>2019-11-02T12:22:03Z</time>
      </trkpt>
      <trkpt lat="38.547354117035866" lon="-2.45610591955483">
        <ele>1484</ele>
        <time>2019-11-02T12:22:06Z</time>
      </trkpt>
      <trkpt lat="38.547274237498641" lon="-2.456101225689054">
        <ele>1483.199951171875</ele>
        <time>2019-11-02T12:22:09Z</time>
      </trkpt>
      <trkpt lat="38.547249427065253" lon="-2.45609175413847">
        <ele>1483</ele>
        <time>2019-11-02T12:22:10Z</time>
      </trkpt>
      <trkpt lat="38.547127805650234" lon="-2.456015981733799">
        <ele>1482.4000244140625</ele>
        <time>2019-11-02T12:22:15Z</time>
      </trkpt>
      <trkpt lat="38.546989671885967" lon="-2.455842979252338">
        <ele>1483</ele>
        <time>2019-11-02T12:22:22Z</time>
      </trkpt>
      <trkpt lat="38.546875342726707" lon="-2.455634688958526">
        <ele>1482.800048828125</ele>
        <time>2019-11-02T12:22:28Z</time>
      </trkpt>
      <trkpt lat="38.546802252531052" lon="-2.455481719225645">
        <ele>1483.199951171875</ele>
        <time>2019-11-02T12:22:33Z</time>
      </trkpt>
      <trkpt lat="38.546733353286982" lon="-2.455337299033999">
        <ele>1483.199951171875</ele>
        <time>2019-11-02T12:22:38Z</time>
      </trkpt>
      <trkpt lat="38.546628328040242" lon="-2.455223305150867">
        <ele>1484</ele>
        <time>2019-11-02T12:22:43Z</time>
      </trkpt>
      <trkpt lat="38.546605696901679" lon="-2.455199165269732">
        <ele>1484</ele>
        <time>2019-11-02T12:22:44Z</time>
      </trkpt>
      <trkpt lat="38.546471586450934" lon="-2.455079723149538">
        <ele>1484.5999755859375</ele>
        <time>2019-11-02T12:22:50Z</time>
      </trkpt>
      <trkpt lat="38.546405453234911" lon="-2.455024318769574">
        <ele>1485</ele>
        <time>2019-11-02T12:22:53Z</time>
      </trkpt>
      <trkpt lat="38.546287938952446" lon="-2.454947791993618">
        <ele>1485.4000244140625</ele>
        <time>2019-11-02T12:22:58Z</time>
      </trkpt>
      <trkpt lat="38.546115187928081" lon="-2.454862296581268">
        <ele>1485.4000244140625</ele>
        <time>2019-11-02T12:23:06Z</time>
      </trkpt>
      <trkpt lat="38.54600035585463" lon="-2.454805551096797">
        <ele>1485.5999755859375</ele>
        <time>2019-11-02T12:23:11Z</time>
      </trkpt>
      <trkpt lat="38.545892983675003" lon="-2.454769173637033">
        <ele>1486.199951171875</ele>
        <time>2019-11-02T12:23:15Z</time>
      </trkpt>
      <trkpt lat="38.545815283432603" lon="-2.454744530841708">
        <ele>1486.5999755859375</ele>
        <time>2019-11-02T12:23:18Z</time>
      </trkpt>
      <trkpt lat="38.545657619833946" lon="-2.45465375483036">
        <ele>1486.4000244140625</ele>
        <time>2019-11-02T12:23:24Z</time>
      </trkpt>
      <trkpt lat="38.545438516885042" lon="-2.454551160335541">
        <ele>1486.199951171875</ele>
        <time>2019-11-02T12:23:32Z</time>
      </trkpt>
      <trkpt lat="38.545294683426619" lon="-2.454513357952237">
        <ele>1486.4000244140625</ele>
        <time>2019-11-02T12:23:38Z</time>
      </trkpt>
      <trkpt lat="38.545145066455007" lon="-2.454463569447398">
        <ele>1487.4000244140625</ele>
        <time>2019-11-02T12:23:44Z</time>
      </trkpt>
      <trkpt lat="38.544969465583563" lon="-2.45438109152019">
        <ele>1487.800048828125</ele>
        <time>2019-11-02T12:23:51Z</time>
      </trkpt>
      <trkpt lat="38.544854298233986" lon="-2.454301631078124">
        <ele>1488.5999755859375</ele>
        <time>2019-11-02T12:23:57Z</time>
      </trkpt>
      <trkpt lat="38.544765869155526" lon="-2.45426382869482">
        <ele>1489.199951171875</ele>
        <time>2019-11-02T12:24:02Z</time>
      </trkpt>
      <trkpt lat="38.544753044843674" lon="-2.454264415428042">
        <ele>1489.4000244140625</ele>
        <time>2019-11-02T12:24:03Z</time>
      </trkpt>
      <trkpt lat="38.544687749817967" lon="-2.454296434298158">
        <ele>1489.5999755859375</ele>
        <time>2019-11-02T12:24:06Z</time>
      </trkpt>
      <trkpt lat="38.544639470055699" lon="-2.454343708232045">
        <ele>1489.5999755859375</ele>
        <time>2019-11-02T12:24:08Z</time>
      </trkpt>
      <trkpt lat="38.544558417052031" lon="-2.454456444829702">
        <ele>1489</ele>
        <time>2019-11-02T12:24:12Z</time>
      </trkpt>
      <trkpt lat="38.544495049864054" lon="-2.454626513645053">
        <ele>1488.4000244140625</ele>
        <time>2019-11-02T12:24:16Z</time>
      </trkpt>
      <trkpt lat="38.544475520029664" lon="-2.454744782298803">
        <ele>1487.5999755859375</ele>
        <time>2019-11-02T12:24:19Z</time>
      </trkpt>
      <trkpt lat="38.544478956609964" lon="-2.454868834465742">
        <ele>1487.199951171875</ele>
        <time>2019-11-02T12:24:22Z</time>
      </trkpt>
      <trkpt lat="38.544445261359215" lon="-2.455165972933173">
        <ele>1486.800048828125</ele>
        <time>2019-11-02T12:24:28Z</time>
      </trkpt>
      <trkpt lat="38.544435622170568" lon="-2.4552146717906">
        <ele>1486.5999755859375</ele>
        <time>2019-11-02T12:24:29Z</time>
      </trkpt>
      <trkpt lat="38.54438005015254" lon="-2.455431092530489">
        <ele>1486.199951171875</ele>
        <time>2019-11-02T12:24:33Z</time>
      </trkpt>
      <trkpt lat="38.544360520318151" lon="-2.455485910177231">
        <ele>1485.5999755859375</ele>
        <time>2019-11-02T12:24:34Z</time>
      </trkpt>
      <trkpt lat="38.544334704056382" lon="-2.455540727823973">
        <ele>1485.199951171875</ele>
        <time>2019-11-02T12:24:35Z</time>
      </trkpt>
      <trkpt lat="38.544270331040025" lon="-2.455654721707106">
        <ele>1484.5999755859375</ele>
        <time>2019-11-02T12:24:37Z</time>
      </trkpt>
      <trkpt lat="38.544238060712814" lon="-2.455711970105767">
        <ele>1484.199951171875</ele>
        <time>2019-11-02T12:24:38Z</time>
      </trkpt>
      <trkpt lat="38.544206293299794" lon="-2.455768128857017">
        <ele>1484</ele>
        <time>2019-11-02T12:24:39Z</time>
      </trkpt>
      <trkpt lat="38.544151475653052" lon="-2.455875584855676">
        <ele>1483.4000244140625</ele>
        <time>2019-11-02T12:24:41Z</time>
      </trkpt>
      <trkpt lat="38.544079475104809" lon="-2.45596912689507">
        <ele>1482.800048828125</ele>
        <time>2019-11-02T12:24:43Z</time>
      </trkpt>
      <trkpt lat="38.544041253626347" lon="-2.456012880429626">
        <ele>1482.4000244140625</ele>
        <time>2019-11-02T12:24:44Z</time>
      </trkpt>
      <trkpt lat="38.544001691043377" lon="-2.45606392621994">
        <ele>1482.199951171875</ele>
        <time>2019-11-02T12:24:45Z</time>
      </trkpt>
      <trkpt lat="38.543932791799307" lon="-2.45618605054915">
        <ele>1481.5999755859375</ele>
        <time>2019-11-02T12:24:47Z</time>
      </trkpt>
      <trkpt lat="38.543872442096472" lon="-2.456415630877018">
        <ele>1481.199951171875</ele>
        <time>2019-11-02T12:24:50Z</time>
      </trkpt>
      <trkpt lat="38.543858863413334" lon="-2.456490397453308">
        <ele>1481</ele>
        <time>2019-11-02T12:24:51Z</time>
      </trkpt>
      <trkpt lat="38.5438312869519" lon="-2.45661998167634">
        <ele>1480.4000244140625</ele>
        <time>2019-11-02T12:24:53Z</time>
      </trkpt>
      <trkpt lat="38.54380832053721" lon="-2.456683600321412">
        <ele>1480.199951171875</ele>
        <time>2019-11-02T12:24:54Z</time>
      </trkpt>
      <trkpt lat="38.543778480961919" lon="-2.456747302785516">
        <ele>1479.800048828125</ele>
        <time>2019-11-02T12:24:55Z</time>
      </trkpt>
      <trkpt lat="38.543705474585295" lon="-2.456878395751119">
        <ele>1478.800048828125</ele>
        <time>2019-11-02T12:24:57Z</time>
      </trkpt>
      <trkpt lat="38.543564826250076" lon="-2.457073023542762">
        <ele>1477.5999755859375</ele>
        <time>2019-11-02T12:25:00Z</time>
      </trkpt>
      <trkpt lat="38.543464159592986" lon="-2.457206295803189">
        <ele>1476.4000244140625</ele>
        <time>2019-11-02T12:25:02Z</time>
      </trkpt>
      <trkpt lat="38.543320493772626" lon="-2.457424812018871">
        <ele>1475.199951171875</ele>
        <time>2019-11-02T12:25:05Z</time>
      </trkpt>
      <trkpt lat="38.543235333636403" lon="-2.457568142563105">
        <ele>1474.5999755859375</ele>
        <time>2019-11-02T12:25:07Z</time>
      </trkpt>
      <trkpt lat="38.543152352795005" lon="-2.457696804776788">
        <ele>1474.199951171875</ele>
        <time>2019-11-02T12:25:09Z</time>
      </trkpt>
      <trkpt lat="38.543064510449767" lon="-2.457808451727033">
        <ele>1473</ele>
        <time>2019-11-02T12:25:11Z</time>
      </trkpt>
      <trkpt lat="38.54296837002039" lon="-2.4579016584903">
        <ele>1472.4000244140625</ele>
        <time>2019-11-02T12:25:13Z</time>
      </trkpt>
      <trkpt lat="38.542921347543597" lon="-2.457941137254238">
        <ele>1472</ele>
        <time>2019-11-02T12:25:14Z</time>
      </trkpt>
      <trkpt lat="38.542746417224407" lon="-2.4581019859761">
        <ele>1471</ele>
        <time>2019-11-02T12:25:18Z</time>
      </trkpt>
      <trkpt lat="38.542701909318566" lon="-2.458139955997467">
        <ele>1470.800048828125</ele>
        <time>2019-11-02T12:25:19Z</time>
      </trkpt>
      <trkpt lat="38.542536534368992" lon="-2.45822561904788">
        <ele>1470.800048828125</ele>
        <time>2019-11-02T12:25:23Z</time>
      </trkpt>
      <trkpt lat="38.542496133595705" lon="-2.458232576027513">
        <ele>1470.800048828125</ele>
        <time>2019-11-02T12:25:24Z</time>
      </trkpt>
      <trkpt lat="38.542311647906899" lon="-2.458159402012825">
        <ele>1471</ele>
        <time>2019-11-02T12:25:29Z</time>
      </trkpt>
      <trkpt lat="38.542213914915919" lon="-2.458059908822179">
        <ele>1470.800048828125</ele>
        <time>2019-11-02T12:25:32Z</time>
      </trkpt>
      <trkpt lat="38.54212892241776" lon="-2.45795832015574">
        <ele>1470.4000244140625</ele>
        <time>2019-11-02T12:25:35Z</time>
      </trkpt>
      <trkpt lat="38.542035212740302" lon="-2.457838710397482">
        <ele>1470.199951171875</ele>
        <time>2019-11-02T12:25:38Z</time>
      </trkpt>
      <trkpt lat="38.541976874694228" lon="-2.457751287147403">
        <ele>1470.5999755859375</ele>
        <time>2019-11-02T12:25:40Z</time>
      </trkpt>
      <trkpt lat="38.54190856218338" lon="-2.4575718306005">
        <ele>1471.199951171875</ele>
        <time>2019-11-02T12:25:44Z</time>
      </trkpt>
      <trkpt lat="38.541928427293897" lon="-2.457385500892997">
        <ele>1471.5999755859375</ele>
        <time>2019-11-02T12:25:48Z</time>
      </trkpt>
      <trkpt lat="38.541952567175031" lon="-2.457288270816207">
        <ele>1471.800048828125</ele>
        <time>2019-11-02T12:25:50Z</time>
      </trkpt>
      <trkpt lat="38.542006127536297" lon="-2.457037651911378">
        <ele>1472.199951171875</ele>
        <time>2019-11-02T12:25:55Z</time>
      </trkpt>
      <trkpt lat="38.542026579380035" lon="-2.456942517310381">
        <ele>1472.4000244140625</ele>
        <time>2019-11-02T12:25:57Z</time>
      </trkpt>
      <trkpt lat="38.542053401470184" lon="-2.456679493188858">
        <ele>1473</ele>
        <time>2019-11-02T12:26:03Z</time>
      </trkpt>
      <trkpt lat="38.542010318487883" lon="-2.456623166799545">
        <ele>1473.199951171875</ele>
        <time>2019-11-02T12:26:05Z</time>
      </trkpt>
      <trkpt lat="38.541980562731624" lon="-2.456612940877676">
        <ele>1473.199951171875</ele>
        <time>2019-11-02T12:26:06Z</time>
      </trkpt>
      <trkpt lat="38.54179716669023" lon="-2.456561727449298">
        <ele>1473.800048828125</ele>
        <time>2019-11-02T12:26:13Z</time>
      </trkpt>
      <trkpt lat="38.54167697019875" lon="-2.45655057951808">
        <ele>1474.199951171875</ele>
        <time>2019-11-02T12:26:19Z</time>
      </trkpt>
      <trkpt lat="38.541660374030471" lon="-2.45655745267868">
        <ele>1474.199951171875</ele>
        <time>2019-11-02T12:26:20Z</time>
      </trkpt>
      <trkpt lat="38.541642185300589" lon="-2.456562230363488">
        <ele>1474.199951171875</ele>
        <time>2019-11-02T12:26:21Z</time>
      </trkpt>
      <trkpt lat="38.541552415117621" lon="-2.456609839573503">
        <ele>1474.4000244140625</ele>
        <time>2019-11-02T12:26:27Z</time>
      </trkpt>
      <trkpt lat="38.54142090305686" lon="-2.456640182062984">
        <ele>1475.5999755859375</ele>
        <time>2019-11-02T12:26:35Z</time>
      </trkpt>
      <trkpt lat="38.541404223069549" lon="-2.456638673320413">
        <ele>1475.800048828125</ele>
        <time>2019-11-02T12:26:36Z</time>
      </trkpt>
      <trkpt lat="38.541347980499268" lon="-2.456624675542116">
        <ele>1476.5999755859375</ele>
        <time>2019-11-02T12:26:39Z</time>
      </trkpt>
      <trkpt lat="38.541298024356365" lon="-2.456596931442618">
        <ele>1476.800048828125</ele>
        <time>2019-11-02T12:26:42Z</time>
      </trkpt>
      <trkpt lat="38.541229041293263" lon="-2.456540185958147">
        <ele>1477.5999755859375</ele>
        <time>2019-11-02T12:26:47Z</time>
      </trkpt>
      <trkpt lat="38.541206913068891" lon="-2.456516046077013">
        <ele>1478</ele>
        <time>2019-11-02T12:26:49Z</time>
      </trkpt>
      <trkpt lat="38.541156370192766" lon="-2.456455864012241">
        <ele>1478.800048828125</ele>
        <time>2019-11-02T12:26:53Z</time>
      </trkpt>
      <trkpt lat="38.541112784296274" lon="-2.456414457410574">
        <ele>1479</ele>
        <time>2019-11-02T12:26:56Z</time>
      </trkpt>
      <trkpt lat="38.541007004678249" lon="-2.456370033323765">
        <ele>1479.5999755859375</ele>
        <time>2019-11-02T12:27:02Z</time>
      </trkpt>
      <trkpt lat="38.540949085727334" lon="-2.456379337236285">
        <ele>1480</ele>
        <time>2019-11-02T12:27:05Z</time>
      </trkpt>
      <trkpt lat="38.540885550901294" lon="-2.456427784636617">
        <ele>1480</ele>
        <time>2019-11-02T12:27:09Z</time>
      </trkpt>
      <trkpt lat="38.540819501504302" lon="-2.456541862338781">
        <ele>1481</ele>
        <time>2019-11-02T12:27:15Z</time>
      </trkpt>
      <trkpt lat="38.540814053267241" lon="-2.456562733277678">
        <ele>1481.199951171875</ele>
        <time>2019-11-02T12:27:16Z</time>
      </trkpt>
      <trkpt lat="38.540776753798127" lon="-2.456745961681008">
        <ele>1481.199951171875</ele>
        <time>2019-11-02T12:27:24Z</time>
      </trkpt>
      <trkpt lat="38.540675416588783" lon="-2.456843694671988">
        <ele>1481.800048828125</ele>
        <time>2019-11-02T12:27:31Z</time>
      </trkpt>
      <trkpt lat="38.540569134056568" lon="-2.456891303882003">
        <ele>1482</ele>
        <time>2019-11-02T12:27:37Z</time>
      </trkpt>
      <trkpt lat="38.540532421320677" lon="-2.456891303882003">
        <ele>1482.5999755859375</ele>
        <time>2019-11-02T12:27:39Z</time>
      </trkpt>
      <trkpt lat="38.540388336405158" lon="-2.456838665530086">
        <ele>1483.199951171875</ele>
        <time>2019-11-02T12:27:47Z</time>
      </trkpt>
      <trkpt lat="38.540336703881621" lon="-2.456808323040605">
        <ele>1484.5999755859375</ele>
        <time>2019-11-02T12:27:50Z</time>
      </trkpt>
      <trkpt lat="38.540228577330709" lon="-2.456748560070992">
        <ele>1484.5999755859375</ele>
        <time>2019-11-02T12:27:56Z</time>
      </trkpt>
      <trkpt lat="38.54009379632771" lon="-2.456635236740112">
        <ele>1484.800048828125</ele>
        <time>2019-11-02T12:28:03Z</time>
      </trkpt>
      <trkpt lat="38.539939904585481" lon="-2.456473633646965">
        <ele>1485.5999755859375</ele>
        <time>2019-11-02T12:28:11Z</time>
      </trkpt>
      <trkpt lat="38.53992230258882" lon="-2.456457456573844">
        <ele>1485.800048828125</ele>
        <time>2019-11-02T12:28:12Z</time>
      </trkpt>
      <trkpt lat="38.539818618446589" lon="-2.456378415226936">
        <ele>1486.4000244140625</ele>
        <time>2019-11-02T12:28:18Z</time>
      </trkpt>
      <trkpt lat="38.539716694504023" lon="-2.45634145103395">
        <ele>1486.800048828125</ele>
        <time>2019-11-02T12:28:23Z</time>
      </trkpt>
      <trkpt lat="38.539695404469967" lon="-2.456331895664334">
        <ele>1487</ele>
        <time>2019-11-02T12:28:24Z</time>
      </trkpt>
      <trkpt lat="38.539577135816216" lon="-2.456288896501064">
        <ele>1487.5999755859375</ele>
        <time>2019-11-02T12:28:30Z</time>
      </trkpt>
      <trkpt lat="38.53954017162323" lon="-2.456271210685372">
        <ele>1487.800048828125</ele>
        <time>2019-11-02T12:28:32Z</time>
      </trkpt>
      <trkpt lat="38.539438415318727" lon="-2.456224439665675">
        <ele>1488.800048828125</ele>
        <time>2019-11-02T12:28:37Z</time>
      </trkpt>
      <trkpt lat="38.539421232417226" lon="-2.456218907609582">
        <ele>1489</ele>
        <time>2019-11-02T12:28:38Z</time>
      </trkpt>
      <trkpt lat="38.539320314303041" lon="-2.456219159066677">
        <ele>1490</ele>
        <time>2019-11-02T12:28:44Z</time>
      </trkpt>
      <trkpt lat="38.539269687607884" lon="-2.456240197643638">
        <ele>1490.199951171875</ele>
        <time>2019-11-02T12:28:46Z</time>
      </trkpt>
      <trkpt lat="38.539218893274665" lon="-2.456282274797559">
        <ele>1490</ele>
        <time>2019-11-02T12:28:48Z</time>
      </trkpt>
      <trkpt lat="38.539103223010898" lon="-2.456458881497383">
        <ele>1489.800048828125</ele>
        <time>2019-11-02T12:28:55Z</time>
      </trkpt>
      <trkpt lat="38.539016889408231" lon="-2.456631297245622">
        <ele>1490.4000244140625</ele>
        <time>2019-11-02T12:29:01Z</time>
      </trkpt>
      <trkpt lat="38.538886634632945" lon="-2.456792397424579">
        <ele>1490.199951171875</ele>
        <time>2019-11-02T12:29:08Z</time>
      </trkpt>
      <trkpt lat="38.538747746497393" lon="-2.456867583096027">
        <ele>1490.199951171875</ele>
        <time>2019-11-02T12:29:14Z</time>
      </trkpt>
      <trkpt lat="38.538575079292059" lon="-2.457018373534083">
        <ele>1489.5999755859375</ele>
        <time>2019-11-02T12:29:21Z</time>
      </trkpt>
      <trkpt lat="38.538478016853333" lon="-2.457180563360453">
        <ele>1489.800048828125</ele>
        <time>2019-11-02T12:29:27Z</time>
      </trkpt>
      <trkpt lat="38.538374584168196" lon="-2.457458088174462">
        <ele>1489.800048828125</ele>
        <time>2019-11-02T12:29:35Z</time>
      </trkpt>
      <trkpt lat="38.538228655233979" lon="-2.457663612440228">
        <ele>1490.199951171875</ele>
        <time>2019-11-02T12:29:41Z</time>
      </trkpt>
      <trkpt lat="38.538040397688746" lon="-2.45774382725358">
        <ele>1490.5999755859375</ele>
        <time>2019-11-02T12:29:47Z</time>
      </trkpt>
      <trkpt lat="38.537821797654033" lon="-2.457766206935048">
        <ele>1491</ele>
        <time>2019-11-02T12:29:54Z</time>
      </trkpt>
      <trkpt lat="38.537768824025989" lon="-2.457768805325031">
        <ele>1491.199951171875</ele>
        <time>2019-11-02T12:29:56Z</time>
      </trkpt>
      <trkpt lat="38.537687435746193" lon="-2.457766039296985">
        <ele>1492</ele>
        <time>2019-11-02T12:30:00Z</time>
      </trkpt>
      <trkpt lat="38.537656590342522" lon="-2.457758327946067">
        <ele>1492.199951171875</ele>
        <time>2019-11-02T12:30:02Z</time>
      </trkpt>
      <trkpt lat="38.537619961425662" lon="-2.457764698192477">
        <ele>1492.5999755859375</ele>
        <time>2019-11-02T12:30:04Z</time>
      </trkpt>
      <trkpt lat="38.537549637258053" lon="-2.457799566909671">
        <ele>1493.199951171875</ele>
        <time>2019-11-02T12:30:08Z</time>
      </trkpt>
      <trkpt lat="38.537512421607971" lon="-2.457842398434877">
        <ele>1493.800048828125</ele>
        <time>2019-11-02T12:30:10Z</time>
      </trkpt>
      <trkpt lat="38.537489622831345" lon="-2.457913812249899">
        <ele>1494.199951171875</ele>
        <time>2019-11-02T12:30:13Z</time>
      </trkpt>
      <trkpt lat="38.537469925358891" lon="-2.457964858040214">
        <ele>1494.5999755859375</ele>
        <time>2019-11-02T12:30:15Z</time>
      </trkpt>
      <trkpt lat="38.537452826276422" lon="-2.458098046481609">
        <ele>1495.4000244140625</ele>
        <time>2019-11-02T12:30:21Z</time>
      </trkpt>
      <trkpt lat="38.537429943680763" lon="-2.458143560215831">
        <ele>1495.5999755859375</ele>
        <time>2019-11-02T12:30:23Z</time>
      </trkpt>
      <trkpt lat="38.53736137971282" lon="-2.458223104476929">
        <ele>1496.4000244140625</ele>
        <time>2019-11-02T12:30:27Z</time>
      </trkpt>
      <trkpt lat="38.537320392206311" lon="-2.458255961537361">
        <ele>1496.4000244140625</ele>
        <time>2019-11-02T12:30:29Z</time>
      </trkpt>
      <trkpt lat="38.537268759682775" lon="-2.458296613767743">
        <ele>1496.4000244140625</ele>
        <time>2019-11-02T12:30:32Z</time>
      </trkpt>
      <trkpt lat="38.537255516275764" lon="-2.458310527727008">
        <ele>1496.199951171875</ele>
        <time>2019-11-02T12:30:33Z</time>
      </trkpt>
      <trkpt lat="38.537187706679106" lon="-2.458361824974418">
        <ele>1496</ele>
        <time>2019-11-02T12:30:37Z</time>
      </trkpt>
      <trkpt lat="38.537161638960242" lon="-2.458409266546369">
        <ele>1496</ele>
        <time>2019-11-02T12:30:39Z</time>
      </trkpt>
      <trkpt lat="38.537088045850396" lon="-2.458468275144696">
        <ele>1496.4000244140625</ele>
        <time>2019-11-02T12:30:42Z</time>
      </trkpt>
      <trkpt lat="38.537020068615675" lon="-2.458559721708298">
        <ele>1497</ele>
        <time>2019-11-02T12:30:45Z</time>
      </trkpt>
      <trkpt lat="38.536980841308832" lon="-2.458613617345691">
        <ele>1497.4000244140625</ele>
        <time>2019-11-02T12:30:47Z</time>
      </trkpt>
      <trkpt lat="38.536904733628035" lon="-2.458785530179739">
        <ele>1497.4000244140625</ele>
        <time>2019-11-02T12:30:52Z</time>
      </trkpt>
      <trkpt lat="38.536913534626365" lon="-2.458854177966714">
        <ele>1497.4000244140625</ele>
        <time>2019-11-02T12:30:54Z</time>
      </trkpt>
      <trkpt lat="38.536922754719853" lon="-2.458916371688247">
        <ele>1497.4000244140625</ele>
        <time>2019-11-02T12:30:56Z</time>
      </trkpt>
      <trkpt lat="38.536939518526196" lon="-2.459035646170378">
        <ele>1497.4000244140625</ele>
        <time>2019-11-02T12:30:59Z</time>
      </trkpt>
      <trkpt lat="38.536927532404661" lon="-2.459086189046502">
        <ele>1497.4000244140625</ele>
        <time>2019-11-02T12:31:00Z</time>
      </trkpt>
      <trkpt lat="38.536804653704166" lon="-2.459267070516944">
        <ele>1497.4000244140625</ele>
        <time>2019-11-02T12:31:04Z</time>
      </trkpt>
      <trkpt lat="38.536645481362939" lon="-2.459400594234467">
        <ele>1498</ele>
        <time>2019-11-02T12:31:09Z</time>
      </trkpt>
      <trkpt lat="38.536595106124878" lon="-2.459543338045478">
        <ele>1499</ele>
        <time>2019-11-02T12:31:13Z</time>
      </trkpt>
      <trkpt lat="38.53659862652421" lon="-2.459579799324274">
        <ele>1499</ele>
        <time>2019-11-02T12:31:14Z</time>
      </trkpt>
      <trkpt lat="38.536548083648086" lon="-2.459699660539627">
        <ele>1499.199951171875</ele>
        <time>2019-11-02T12:31:17Z</time>
      </trkpt>
      <trkpt lat="38.536548670381308" lon="-2.459806613624096">
        <ele>1499.4000244140625</ele>
        <time>2019-11-02T12:31:20Z</time>
      </trkpt>
      <trkpt lat="38.536554286256433" lon="-2.459837542846799">
        <ele>1499.4000244140625</ele>
        <time>2019-11-02T12:31:21Z</time>
      </trkpt>
      <trkpt lat="38.53666115552187" lon="-2.459981376305223">
        <ele>1498.5999755859375</ele>
        <time>2019-11-02T12:31:26Z</time>
      </trkpt>
      <trkpt lat="38.536718403920531" lon="-2.46016058139503">
        <ele>1498</ele>
        <time>2019-11-02T12:31:30Z</time>
      </trkpt>
      <trkpt lat="38.536669621244073" lon="-2.46021137572825">
        <ele>1498</ele>
        <time>2019-11-02T12:31:31Z</time>
      </trkpt>
      <trkpt lat="38.536609271541238" lon="-2.460302738472819">
        <ele>1497.800048828125</ele>
        <time>2019-11-02T12:31:33Z</time>
      </trkpt>
      <trkpt lat="38.536528972908854" lon="-2.460453361272812">
        <ele>1498</ele>
        <time>2019-11-02T12:31:37Z</time>
      </trkpt>
      <trkpt lat="38.536519585177302" lon="-2.460490157827735">
        <ele>1498.199951171875</ele>
        <time>2019-11-02T12:31:38Z</time>
      </trkpt>
      <trkpt lat="38.536518244072795" lon="-2.460614461451769">
        <ele>1499.199951171875</ele>
        <time>2019-11-02T12:31:41Z</time>
      </trkpt>
      <trkpt lat="38.536537103354931" lon="-2.460662154480815">
        <ele>1499.4000244140625</ele>
        <time>2019-11-02T12:31:42Z</time>
      </trkpt>
      <trkpt lat="38.5365507658571" lon="-2.460710601881146">
        <ele>1499.4000244140625</ele>
        <time>2019-11-02T12:31:43Z</time>
      </trkpt>
      <trkpt lat="38.536632237955928" lon="-2.460902212187648">
        <ele>1499.199951171875</ele>
        <time>2019-11-02T12:31:47Z</time>
      </trkpt>
      <trkpt lat="38.536673057824373" lon="-2.460947390645742">
        <ele>1499</ele>
        <time>2019-11-02T12:31:48Z</time>
      </trkpt>
      <trkpt lat="38.536736341193318" lon="-2.461042189970613">
        <ele>1498.800048828125</ele>
        <time>2019-11-02T12:31:50Z</time>
      </trkpt>
      <trkpt lat="38.53679652325809" lon="-2.461235141381621">
        <ele>1498.5999755859375</ele>
        <time>2019-11-02T12:31:54Z</time>
      </trkpt>
      <trkpt lat="38.536887802183628" lon="-2.461381237953901">
        <ele>1498.4000244140625</ele>
        <time>2019-11-02T12:31:58Z</time>
      </trkpt>
      <trkpt lat="38.536901967599988" lon="-2.461428428068757">
        <ele>1498</ele>
        <time>2019-11-02T12:31:59Z</time>
      </trkpt>
      <trkpt lat="38.536946726962924" lon="-2.461589444428682">
        <ele>1497.800048828125</ele>
        <time>2019-11-02T12:32:02Z</time>
      </trkpt>
      <trkpt lat="38.536995677277446" lon="-2.46173394843936">
        <ele>1497.800048828125</ele>
        <time>2019-11-02T12:32:05Z</time>
      </trkpt>
      <trkpt lat="38.537033060565591" lon="-2.461946094408631">
        <ele>1499</ele>
        <time>2019-11-02T12:32:10Z</time>
      </trkpt>
      <trkpt lat="38.537037000060081" lon="-2.461981549859047">
        <ele>1499.4000244140625</ele>
        <time>2019-11-02T12:32:11Z</time>
      </trkpt>
      <trkpt lat="38.537063235417008" lon="-2.462071571499109">
        <ele>1500.800048828125</ele>
        <time>2019-11-02T12:32:14Z</time>
      </trkpt>
      <trkpt lat="38.537098523229361" lon="-2.462125383317471">
        <ele>1501</ele>
        <time>2019-11-02T12:32:16Z</time>
      </trkpt>
      <trkpt lat="38.53717572055757" lon="-2.462208028882742">
        <ele>1502</ele>
        <time>2019-11-02T12:32:19Z</time>
      </trkpt>
      <trkpt lat="38.537225006148219" lon="-2.462309701368213">
        <ele>1503.199951171875</ele>
        <time>2019-11-02T12:32:22Z</time>
      </trkpt>
      <trkpt lat="38.537264401093125" lon="-2.462462084367871">
        <ele>1504</ele>
        <time>2019-11-02T12:32:27Z</time>
      </trkpt>
      <trkpt lat="38.537282338365912" lon="-2.462565852329135">
        <ele>1504.5999755859375</ele>
        <time>2019-11-02T12:32:30Z</time>
      </trkpt>
      <trkpt lat="38.537288373336196" lon="-2.462677834555507">
        <ele>1505</ele>
        <time>2019-11-02T12:32:33Z</time>
      </trkpt>
      <trkpt lat="38.537273537367582" lon="-2.462852764874697">
        <ele>1505.199951171875</ele>
        <time>2019-11-02T12:32:38Z</time>
      </trkpt>
      <trkpt lat="38.537231376394629" lon="-2.462990647181869">
        <ele>1505.5999755859375</ele>
        <time>2019-11-02T12:32:42Z</time>
      </trkpt>
      <trkpt lat="38.537213942036033" lon="-2.46302392333746">
        <ele>1505.5999755859375</ele>
        <time>2019-11-02T12:32:43Z</time>
      </trkpt>
      <trkpt lat="38.53704915381968" lon="-2.46321058832109">
        <ele>1505.800048828125</ele>
        <time>2019-11-02T12:32:50Z</time>
      </trkpt>
      <trkpt lat="38.536940524354577" lon="-2.463276972994208">
        <ele>1505.800048828125</ele>
        <time>2019-11-02T12:32:55Z</time>
      </trkpt>
      <trkpt lat="38.536852765828371" lon="-2.463339837267995">
        <ele>1505.800048828125</ele>
        <time>2019-11-02T12:32:59Z</time>
      </trkpt>
      <trkpt lat="38.536735670641065" lon="-2.463387278839946">
        <ele>1506.5999755859375</ele>
        <time>2019-11-02T12:33:04Z</time>
      </trkpt>
      <trkpt lat="38.536606840789318" lon="-2.463450897485018">
        <ele>1508.199951171875</ele>
        <time>2019-11-02T12:33:11Z</time>
      </trkpt>
      <trkpt lat="38.536591921001673" lon="-2.463461207225919">
        <ele>1508.4000244140625</ele>
        <time>2019-11-02T12:33:12Z</time>
      </trkpt>
      <trkpt lat="38.536501647904515" lon="-2.463530106469989">
        <ele>1509</ele>
        <time>2019-11-02T12:33:17Z</time>
      </trkpt>
      <trkpt lat="38.536487063392997" lon="-2.463549468666315">
        <ele>1509.199951171875</ele>
        <time>2019-11-02T12:33:18Z</time>
      </trkpt>
      <trkpt lat="38.536439370363951" lon="-2.463629599660635">
        <ele>1510</ele>
        <time>2019-11-02T12:33:22Z</time>
      </trkpt>
      <trkpt lat="38.536421181634068" lon="-2.463651141151786">
        <ele>1510.4000244140625</ele>
        <time>2019-11-02T12:33:23Z</time>
      </trkpt>
      <trkpt lat="38.536360077559948" lon="-2.463747533038259">
        <ele>1511.4000244140625</ele>
        <time>2019-11-02T12:33:28Z</time>
      </trkpt>
      <trkpt lat="38.536324203014374" lon="-2.463903017342091">
        <ele>1512.199951171875</ele>
        <time>2019-11-02T12:33:34Z</time>
      </trkpt>
      <trkpt lat="38.536316072568297" lon="-2.463938221335411">
        <ele>1512.4000244140625</ele>
        <time>2019-11-02T12:33:35Z</time>
      </trkpt>
      <trkpt lat="38.536313222721219" lon="-2.464054143056273">
        <ele>1513.199951171875</ele>
        <time>2019-11-02T12:33:39Z</time>
      </trkpt>
      <trkpt lat="38.536317246034741" lon="-2.464107451960444">
        <ele>1513.5999755859375</ele>
        <time>2019-11-02T12:33:41Z</time>
      </trkpt>
      <trkpt lat="38.536291178315878" lon="-2.464166544377804">
        <ele>1514</ele>
        <time>2019-11-02T12:33:43Z</time>
      </trkpt>
      <trkpt lat="38.536275839433074" lon="-2.46419227682054">
        <ele>1514.4000244140625</ele>
        <time>2019-11-02T12:33:44Z</time>
      </trkpt>
      <trkpt lat="38.536254717037082" lon="-2.464239718392491">
        <ele>1514.5999755859375</ele>
        <time>2019-11-02T12:33:46Z</time>
      </trkpt>
      <trkpt lat="38.53621507063508" lon="-2.464296463876963">
        <ele>1514.800048828125</ele>
        <time>2019-11-02T12:33:49Z</time>
      </trkpt>
      <trkpt lat="38.536136196926236" lon="-2.464442057535052">
        <ele>1514.800048828125</ele>
        <time>2019-11-02T12:33:55Z</time>
      </trkpt>
      <trkpt lat="38.536119433119893" lon="-2.464549513533711">
        <ele>1515.4000244140625</ele>
        <time>2019-11-02T12:33:59Z</time>
      </trkpt>
      <trkpt lat="38.536047851666808" lon="-2.464698795229197">
        <ele>1515.5999755859375</ele>
        <time>2019-11-02T12:34:04Z</time>
      </trkpt>
      <trkpt lat="38.535924889147282" lon="-2.464892501011491">
        <ele>1516.4000244140625</ele>
        <time>2019-11-02T12:34:11Z</time>
      </trkpt>
      <trkpt lat="38.535870406776667" lon="-2.465051338076591">
        <ele>1516.4000244140625</ele>
        <time>2019-11-02T12:34:16Z</time>
      </trkpt>
      <trkpt lat="38.535852888599038" lon="-2.465164912864566">
        <ele>1516.199951171875</ele>
        <time>2019-11-02T12:34:21Z</time>
      </trkpt>
      <trkpt lat="38.535850625485182" lon="-2.465179748833179">
        <ele>1516.199951171875</ele>
        <time>2019-11-02T12:34:29Z</time>
      </trkpt>
      <trkpt lat="38.535853559151292" lon="-2.465195087715983">
        <ele>1515.4000244140625</ele>
        <time>2019-11-02T12:34:40Z</time>
      </trkpt>
      <trkpt lat="38.535840651020408" lon="-2.465210175141692">
        <ele>1515.199951171875</ele>
        <time>2019-11-02T12:34:56Z</time>
      </trkpt>
      <trkpt lat="38.535856325179338" lon="-2.465287791565061">
        <ele>1515.199951171875</ele>
        <time>2019-11-02T12:35:08Z</time>
      </trkpt>
      <trkpt lat="38.535866718739271" lon="-2.465387620031834">
        <ele>1514.5999755859375</ele>
        <time>2019-11-02T12:35:12Z</time>
      </trkpt>
      <trkpt lat="38.535865964367986" lon="-2.465477557852864">
        <ele>1514.4000244140625</ele>
        <time>2019-11-02T12:35:15Z</time>
      </trkpt>
      <trkpt lat="38.535853726789355" lon="-2.465542769059539">
        <ele>1514.199951171875</ele>
        <time>2019-11-02T12:35:17Z</time>
      </trkpt>
      <trkpt lat="38.535837465897202" lon="-2.465612506493926">
        <ele>1514.199951171875</ele>
        <time>2019-11-02T12:35:19Z</time>
      </trkpt>
      <trkpt lat="38.53584467433393" lon="-2.465649386867881">
        <ele>1514</ele>
        <time>2019-11-02T12:35:20Z</time>
      </trkpt>
      <trkpt lat="38.535892870277166" lon="-2.465723315253854">
        <ele>1513.5999755859375</ele>
        <time>2019-11-02T12:35:22Z</time>
      </trkpt>
      <trkpt lat="38.535932516679168" lon="-2.46575927361846">
        <ele>1513.199951171875</ele>
        <time>2019-11-02T12:35:23Z</time>
      </trkpt>
      <trkpt lat="38.535975348204374" lon="-2.46580227278173">
        <ele>1513</ele>
        <time>2019-11-02T12:35:24Z</time>
      </trkpt>
      <trkpt lat="38.536049528047442" lon="-2.465897742658854">
        <ele>1512.199951171875</ele>
        <time>2019-11-02T12:35:26Z</time>
      </trkpt>
      <trkpt lat="38.53613787330687" lon="-2.466101925820112">
        <ele>1511</ele>
        <time>2019-11-02T12:35:30Z</time>
      </trkpt>
      <trkpt lat="38.536216244101524" lon="-2.466302672401071">
        <ele>1510.199951171875</ele>
        <time>2019-11-02T12:35:34Z</time>
      </trkpt>
      <trkpt lat="38.536210125312209" lon="-2.466589165851474">
        <ele>1510.199951171875</ele>
        <time>2019-11-02T12:35:39Z</time>
      </trkpt>
      <trkpt lat="38.536170981824398" lon="-2.466692179441452">
        <ele>1509.800048828125</ele>
        <time>2019-11-02T12:35:41Z</time>
      </trkpt>
      <trkpt lat="38.536119349300861" lon="-2.466780189424753">
        <ele>1509.4000244140625</ele>
        <time>2019-11-02T12:35:43Z</time>
      </trkpt>
      <trkpt lat="38.536063693463802" lon="-2.466889321804047">
        <ele>1508.5999755859375</ele>
        <time>2019-11-02T12:35:46Z</time>
      </trkpt>
      <trkpt lat="38.536060675978661" lon="-2.466899463906884">
        <ele>1508.4000244140625</ele>
        <time>2019-11-02T12:35:47Z</time>
      </trkpt>
      <trkpt lat="38.536061095073819" lon="-2.466910779476166">
        <ele>1507.800048828125</ele>
        <time>2019-11-02T12:35:52Z</time>
      </trkpt>
      <trkpt lat="38.536058329045773" lon="-2.466915976256132">
        <ele>1507.800048828125</ele>
        <time>2019-11-02T12:35:58Z</time>
      </trkpt>
      <trkpt lat="38.536059083417058" lon="-2.466919915750623">
        <ele>1508</ele>
        <time>2019-11-02T12:36:11Z</time>
      </trkpt>
      <trkpt lat="38.53603720664978" lon="-2.466988647356629">
        <ele>1507.4000244140625</ele>
        <time>2019-11-02T12:36:16Z</time>
      </trkpt>
      <trkpt lat="38.536025220528245" lon="-2.467169277369976">
        <ele>1506.800048828125</ele>
        <time>2019-11-02T12:36:21Z</time>
      </trkpt>
      <trkpt lat="38.536023125052452" lon="-2.467216802760959">
        <ele>1506.199951171875</ele>
        <time>2019-11-02T12:36:22Z</time>
      </trkpt>
      <trkpt lat="38.536023627966642" lon="-2.467320989817381">
        <ele>1504.800048828125</ele>
        <time>2019-11-02T12:36:24Z</time>
      </trkpt>
      <trkpt lat="38.53603133931756" lon="-2.467489968985319">
        <ele>1503.5999755859375</ele>
        <time>2019-11-02T12:36:27Z</time>
      </trkpt>
      <trkpt lat="38.536038966849446" lon="-2.467664312571287">
        <ele>1502.4000244140625</ele>
        <time>2019-11-02T12:36:30Z</time>
      </trkpt>
      <trkpt lat="38.536055227741599" lon="-2.467829268425703">
        <ele>1501</ele>
        <time>2019-11-02T12:36:33Z</time>
      </trkpt>
      <trkpt lat="38.536060256883502" lon="-2.467881990596652">
        <ele>1500.5999755859375</ele>
        <time>2019-11-02T12:36:34Z</time>
      </trkpt>
      <trkpt lat="38.536066291853786" lon="-2.467938903719187">
        <ele>1500.199951171875</ele>
        <time>2019-11-02T12:36:35Z</time>
      </trkpt>
      <trkpt lat="38.536068303510547" lon="-2.468000762164593">
        <ele>1499.5999755859375</ele>
        <time>2019-11-02T12:36:36Z</time>
      </trkpt>
      <trkpt lat="38.536059251055121" lon="-2.468122132122517">
        <ele>1498.5999755859375</ele>
        <time>2019-11-02T12:36:38Z</time>
      </trkpt>
      <trkpt lat="38.536043493077159" lon="-2.468181224539876">
        <ele>1498</ele>
        <time>2019-11-02T12:36:39Z</time>
      </trkpt>
      <trkpt lat="38.53602304123342" lon="-2.468236712738872">
        <ele>1497.5999755859375</ele>
        <time>2019-11-02T12:36:40Z</time>
      </trkpt>
      <trkpt lat="38.535992363467813" lon="-2.468352383002639">
        <ele>1496.4000244140625</ele>
        <time>2019-11-02T12:36:42Z</time>
      </trkpt>
      <trkpt lat="38.535992447286844" lon="-2.468415247276425">
        <ele>1496.199951171875</ele>
        <time>2019-11-02T12:36:43Z</time>
      </trkpt>
      <trkpt lat="38.536044331267476" lon="-2.468614401295781">
        <ele>1495.199951171875</ele>
        <time>2019-11-02T12:36:46Z</time>
      </trkpt>
      <trkpt lat="38.53606796823442" lon="-2.46869302354753">
        <ele>1494.5999755859375</ele>
        <time>2019-11-02T12:36:47Z</time>
      </trkpt>
      <trkpt lat="38.536107363179326" lon="-2.468853369355202">
        <ele>1493.5999755859375</ele>
        <time>2019-11-02T12:36:49Z</time>
      </trkpt>
      <trkpt lat="38.536158492788672" lon="-2.469068113714457">
        <ele>1492.199951171875</ele>
        <time>2019-11-02T12:36:52Z</time>
      </trkpt>
      <trkpt lat="38.536174921318889" lon="-2.4691401142627">
        <ele>1491.4000244140625</ele>
        <time>2019-11-02T12:36:53Z</time>
      </trkpt>
      <trkpt lat="38.536191852763295" lon="-2.469213120639324">
        <ele>1489.800048828125</ele>
        <time>2019-11-02T12:36:54Z</time>
      </trkpt>
      <trkpt lat="38.536227894946933" lon="-2.469353768974543">
        <ele>1488</ele>
        <time>2019-11-02T12:36:56Z</time>
      </trkpt>
      <trkpt lat="38.536259494721889" lon="-2.469488717615604">
        <ele>1486.5999755859375</ele>
        <time>2019-11-02T12:36:58Z</time>
      </trkpt>
      <trkpt lat="38.536322694271803" lon="-2.46968099847436">
        <ele>1485.199951171875</ele>
        <time>2019-11-02T12:37:01Z</time>
      </trkpt>
      <trkpt lat="38.536389078944921" lon="-2.469780156388879">
        <ele>1483.800048828125</ele>
        <time>2019-11-02T12:37:03Z</time>
      </trkpt>
      <trkpt lat="38.536476669833064" lon="-2.469850899651647">
        <ele>1482.4000244140625</ele>
        <time>2019-11-02T12:37:05Z</time>
      </trkpt>
      <trkpt lat="38.536586556583643" lon="-2.469907309859991">
        <ele>1480.800048828125</ele>
        <time>2019-11-02T12:37:07Z</time>
      </trkpt>
      <trkpt lat="38.536642463877797" lon="-2.469941005110741">
        <ele>1480.199951171875</ele>
        <time>2019-11-02T12:37:08Z</time>
      </trkpt>
      <trkpt lat="38.536690324544907" lon="-2.469982663169503">
        <ele>1479.199951171875</ele>
        <time>2019-11-02T12:37:09Z</time>
      </trkpt>
      <trkpt lat="38.5367769934237" lon="-2.470072265714407">
        <ele>1477.5999755859375</ele>
        <time>2019-11-02T12:37:11Z</time>
      </trkpt>
      <trkpt lat="38.53682292625308" lon="-2.470116605982184">
        <ele>1477</ele>
        <time>2019-11-02T12:37:12Z</time>
      </trkpt>
      <trkpt lat="38.536868439987302" lon="-2.470156839117408">
        <ele>1476.5999755859375</ele>
        <time>2019-11-02T12:37:13Z</time>
      </trkpt>
      <trkpt lat="38.536987714469433" lon="-2.470277203246951">
        <ele>1475.800048828125</ele>
        <time>2019-11-02T12:37:16Z</time>
      </trkpt>
      <trkpt lat="38.537011602893472" lon="-2.470329254865646">
        <ele>1475.5999755859375</ele>
        <time>2019-11-02T12:37:17Z</time>
      </trkpt>
      <trkpt lat="38.537006657570601" lon="-2.470509968698025">
        <ele>1474.5999755859375</ele>
        <time>2019-11-02T12:37:20Z</time>
      </trkpt>
      <trkpt lat="38.536990480497479" lon="-2.470575850456953">
        <ele>1474.199951171875</ele>
        <time>2019-11-02T12:37:21Z</time>
      </trkpt>
      <trkpt lat="38.536919737234712" lon="-2.470800234004855">
        <ele>1473</ele>
        <time>2019-11-02T12:37:24Z</time>
      </trkpt>
      <trkpt lat="38.536890987306833" lon="-2.470882125198841">
        <ele>1472.5999755859375</ele>
        <time>2019-11-02T12:37:25Z</time>
      </trkpt>
      <trkpt lat="38.536859806627035" lon="-2.470967955887318">
        <ele>1472</ele>
        <time>2019-11-02T12:37:26Z</time>
      </trkpt>
      <trkpt lat="38.536797696724534" lon="-2.471127882599831">
        <ele>1470.800048828125</ele>
        <time>2019-11-02T12:37:28Z</time>
      </trkpt>
      <trkpt lat="38.536774646490812" lon="-2.471200721338391">
        <ele>1470.4000244140625</ele>
        <time>2019-11-02T12:37:29Z</time>
      </trkpt>
      <trkpt lat="38.536763750016689" lon="-2.471274817362428">
        <ele>1470.199951171875</ele>
        <time>2019-11-02T12:37:30Z</time>
      </trkpt>
      <trkpt lat="38.536790572106838" lon="-2.471547145396471">
        <ele>1470</ele>
        <time>2019-11-02T12:37:34Z</time>
      </trkpt>
      <trkpt lat="38.536838348954916" lon="-2.471673712134361">
        <ele>1469.4000244140625</ele>
        <time>2019-11-02T12:37:36Z</time>
      </trkpt>
      <trkpt lat="38.536914540454745" lon="-2.471862640231848">
        <ele>1468.5999755859375</ele>
        <time>2019-11-02T12:37:39Z</time>
      </trkpt>
      <trkpt lat="38.536941530182958" lon="-2.471927935257554">
        <ele>1468.199951171875</ele>
        <time>2019-11-02T12:37:40Z</time>
      </trkpt>
      <trkpt lat="38.537070527672768" lon="-2.472158940508962">
        <ele>1467.800048828125</ele>
        <time>2019-11-02T12:37:44Z</time>
      </trkpt>
      <trkpt lat="38.537109587341547" lon="-2.472203448414803">
        <ele>1467.800048828125</ele>
        <time>2019-11-02T12:37:45Z</time>
      </trkpt>
      <trkpt lat="38.537147976458073" lon="-2.472246782854199">
        <ele>1467.5999755859375</ele>
        <time>2019-11-02T12:37:46Z</time>
      </trkpt>
      <trkpt lat="38.537307064980268" lon="-2.472386844456196">
        <ele>1467.4000244140625</ele>
        <time>2019-11-02T12:37:50Z</time>
      </trkpt>
      <trkpt lat="38.537338832393289" lon="-2.472429927438498">
        <ele>1467.5999755859375</ele>
        <time>2019-11-02T12:37:51Z</time>
      </trkpt>
      <trkpt lat="38.537446623668075" lon="-2.472603265196085">
        <ele>1467.800048828125</ele>
        <time>2019-11-02T12:37:55Z</time>
      </trkpt>
      <trkpt lat="38.53749331086874" lon="-2.472714157775044">
        <ele>1467.800048828125</ele>
        <time>2019-11-02T12:37:57Z</time>
      </trkpt>
      <trkpt lat="38.537569418549538" lon="-2.472891267389059">
        <ele>1467.4000244140625</ele>
        <time>2019-11-02T12:38:00Z</time>
      </trkpt>
      <trkpt lat="38.537660613656044" lon="-2.473068460822105">
        <ele>1466.5999755859375</ele>
        <time>2019-11-02T12:38:03Z</time>
      </trkpt>
      <trkpt lat="38.537730937823653" lon="-2.473170720040798">
        <ele>1466.199951171875</ele>
        <time>2019-11-02T12:38:05Z</time>
      </trkpt>
      <trkpt lat="38.537776283919811" lon="-2.473208270967007">
        <ele>1466</ele>
        <time>2019-11-02T12:38:06Z</time>
      </trkpt>
      <trkpt lat="38.537926152348518" lon="-2.473265938460827">
        <ele>1465.4000244140625</ele>
        <time>2019-11-02T12:38:09Z</time>
      </trkpt>
      <trkpt lat="38.537968983873725" lon="-2.473270129412413">
        <ele>1465</ele>
        <time>2019-11-02T12:38:10Z</time>
      </trkpt>
      <trkpt lat="38.53804886341095" lon="-2.47328320518136">
        <ele>1464.5999755859375</ele>
        <time>2019-11-02T12:38:12Z</time>
      </trkpt>
      <trkpt lat="38.538091946393251" lon="-2.47329787351191">
        <ele>1464.4000244140625</ele>
        <time>2019-11-02T12:38:13Z</time>
      </trkpt>
      <trkpt lat="38.538134526461363" lon="-2.473318492993712">
        <ele>1464.199951171875</ele>
        <time>2019-11-02T12:38:14Z</time>
      </trkpt>
      <trkpt lat="38.538175849243999" lon="-2.473340118303895">
        <ele>1464</ele>
        <time>2019-11-02T12:38:15Z</time>
      </trkpt>
      <trkpt lat="38.538217088207603" lon="-2.473359564319253">
        <ele>1463.800048828125</ele>
        <time>2019-11-02T12:38:16Z</time>
      </trkpt>
      <trkpt lat="38.538352120667696" lon="-2.473374903202057">
        <ele>1463</ele>
        <time>2019-11-02T12:38:19Z</time>
      </trkpt>
      <trkpt lat="38.538397466763854" lon="-2.473372891545296">
        <ele>1463</ele>
        <time>2019-11-02T12:38:20Z</time>
      </trkpt>
      <trkpt lat="38.538689240813255" lon="-2.473327545449138">
        <ele>1462.199951171875</ele>
        <time>2019-11-02T12:38:26Z</time>
      </trkpt>
      <trkpt lat="38.538741543889046" lon="-2.473326455801725">
        <ele>1462</ele>
        <time>2019-11-02T12:38:27Z</time>
      </trkpt>
      <trkpt lat="38.538870038464665" lon="-2.473380183801055">
        <ele>1461.5999755859375</ele>
        <time>2019-11-02T12:38:30Z</time>
      </trkpt>
      <trkpt lat="38.538901805877686" lon="-2.473513791337609">
        <ele>1461.199951171875</ele>
        <time>2019-11-02T12:38:33Z</time>
      </trkpt>
      <trkpt lat="38.53889174759388" lon="-2.473556958138943">
        <ele>1461.199951171875</ele>
        <time>2019-11-02T12:38:34Z</time>
      </trkpt>
      <trkpt lat="38.538841959089041" lon="-2.473684614524245">
        <ele>1460.800048828125</ele>
        <time>2019-11-02T12:38:37Z</time>
      </trkpt>
      <trkpt lat="38.53882385417819" lon="-2.473723422735929">
        <ele>1460.5999755859375</ele>
        <time>2019-11-02T12:38:38Z</time>
      </trkpt>
      <trkpt lat="38.538794685155153" lon="-2.473825179040432">
        <ele>1460</ele>
        <time>2019-11-02T12:38:41Z</time>
      </trkpt>
      <trkpt lat="38.538791667670012" lon="-2.473845714703202">
        <ele>1459.800048828125</ele>
        <time>2019-11-02T12:38:42Z</time>
      </trkpt>
      <trkpt lat="38.538781022652984" lon="-2.47385292313993">
        <ele>1459.800048828125</ele>
        <time>2019-11-02T12:38:48Z</time>
      </trkpt>
      <trkpt lat="38.538776747882366" lon="-2.473919810727239">
        <ele>1459.800048828125</ele>
        <time>2019-11-02T12:38:56Z</time>
      </trkpt>
      <trkpt lat="38.53877398185432" lon="-2.473991140723228">
        <ele>1459</ele>
        <time>2019-11-02T12:38:58Z</time>
      </trkpt>
      <trkpt lat="38.538800468668342" lon="-2.474116701632738">
        <ele>1458.800048828125</ele>
        <time>2019-11-02T12:39:01Z</time>
      </trkpt>
      <trkpt lat="38.538875821977854" lon="-2.474341252818704">
        <ele>1458</ele>
        <time>2019-11-02T12:39:06Z</time>
      </trkpt>
      <trkpt lat="38.538867859169841" lon="-2.474426412954926">
        <ele>1457</ele>
        <time>2019-11-02T12:39:08Z</time>
      </trkpt>
      <trkpt lat="38.53885168209672" lon="-2.474459186196327">
        <ele>1456.199951171875</ele>
        <time>2019-11-02T12:39:09Z</time>
      </trkpt>
      <trkpt lat="38.538827206939459" lon="-2.474481984972954">
        <ele>1455.800048828125</ele>
        <time>2019-11-02T12:39:10Z</time>
      </trkpt>
      <trkpt lat="38.538715476170182" lon="-2.474481398239732">
        <ele>1454.800048828125</ele>
        <time>2019-11-02T12:39:13Z</time>
      </trkpt>
      <trkpt lat="38.53867381811142" lon="-2.474457928910851">
        <ele>1453.5999755859375</ele>
        <time>2019-11-02T12:39:14Z</time>
      </trkpt>
      <trkpt lat="38.538600979372859" lon="-2.474397327750921">
        <ele>1452.199951171875</ele>
        <time>2019-11-02T12:39:16Z</time>
      </trkpt>
      <trkpt lat="38.538574408739805" lon="-2.474360950291157">
        <ele>1451.800048828125</ele>
        <time>2019-11-02T12:39:17Z</time>
      </trkpt>
      <trkpt lat="38.538556303828955" lon="-2.474314849823713">
        <ele>1451.199951171875</ele>
        <time>2019-11-02T12:39:18Z</time>
      </trkpt>
      <trkpt lat="38.538536606356502" lon="-2.474135393276811">
        <ele>1450.4000244140625</ele>
        <time>2019-11-02T12:39:21Z</time>
      </trkpt>
      <trkpt lat="38.538528978824615" lon="-2.474070098251104">
        <ele>1450.199951171875</ele>
        <time>2019-11-02T12:39:22Z</time>
      </trkpt>
      <trkpt lat="38.538461336866021" lon="-2.473916709423065">
        <ele>1449</ele>
        <time>2019-11-02T12:39:25Z</time>
      </trkpt>
      <trkpt lat="38.538345582783222" lon="-2.473881924524903">
        <ele>1448</ele>
        <time>2019-11-02T12:39:28Z</time>
      </trkpt>
      <trkpt lat="38.53830249980092" lon="-2.473874380812049">
        <ele>1447.5999755859375</ele>
        <time>2019-11-02T12:39:29Z</time>
      </trkpt>
      <trkpt lat="38.53812069632113" lon="-2.473847307264805">
        <ele>1447</ele>
        <time>2019-11-02T12:39:33Z</time>
      </trkpt>
      <trkpt lat="38.538070740178227" lon="-2.473849905654788">
        <ele>1446.4000244140625</ele>
        <time>2019-11-02T12:39:34Z</time>
      </trkpt>
      <trkpt lat="38.538016593083739" lon="-2.473857449367642">
        <ele>1446.199951171875</ele>
        <time>2019-11-02T12:39:35Z</time>
      </trkpt>
      <trkpt lat="38.537890193983912" lon="-2.47386809438467">
        <ele>1446</ele>
        <time>2019-11-02T12:39:37Z</time>
      </trkpt>
      <trkpt lat="38.537759268656373" lon="-2.473859377205372">
        <ele>1445</ele>
        <time>2019-11-02T12:39:39Z</time>
      </trkpt>
      <trkpt lat="38.537639323621988" lon="-2.473857365548611">
        <ele>1443.800048828125</ele>
        <time>2019-11-02T12:39:41Z</time>
      </trkpt>
      <trkpt lat="38.537467662245035" lon="-2.473907489329576">
        <ele>1443.4000244140625</ele>
        <time>2019-11-02T12:39:44Z</time>
      </trkpt>
      <trkpt lat="38.537363056093454" lon="-2.473931293934584">
        <ele>1443.199951171875</ele>
        <time>2019-11-02T12:39:46Z</time>
      </trkpt>
      <trkpt lat="38.53726901113987" lon="-2.473922660574317">
        <ele>1443</ele>
        <time>2019-11-02T12:39:48Z</time>
      </trkpt>
      <trkpt lat="38.537224000319839" lon="-2.473909165710211">
        <ele>1442.800048828125</ele>
        <time>2019-11-02T12:39:49Z</time>
      </trkpt>
      <trkpt lat="38.53709802031517" lon="-2.47383238747716">
        <ele>1442.4000244140625</ele>
        <time>2019-11-02T12:39:52Z</time>
      </trkpt>
      <trkpt lat="38.537059547379613" lon="-2.473799027502537">
        <ele>1442.4000244140625</ele>
        <time>2019-11-02T12:39:53Z</time>
      </trkpt>
      <trkpt lat="38.536923006176949" lon="-2.473626611754298">
        <ele>1442</ele>
        <time>2019-11-02T12:39:57Z</time>
      </trkpt>
      <trkpt lat="38.536892412230372" lon="-2.47358319349587">
        <ele>1441.800048828125</ele>
        <time>2019-11-02T12:39:58Z</time>
      </trkpt>
      <trkpt lat="38.536813370883465" lon="-2.47344296425581">
        <ele>1441</ele>
        <time>2019-11-02T12:40:02Z</time>
      </trkpt>
      <trkpt lat="38.536803480237722" lon="-2.47343466617167">
        <ele>1440.800048828125</ele>
        <time>2019-11-02T12:40:03Z</time>
      </trkpt>
      <trkpt lat="38.536770036444068" lon="-2.473426451906562">
        <ele>1440</ele>
        <time>2019-11-02T12:40:07Z</time>
      </trkpt>
      <trkpt lat="38.536774143576622" lon="-2.473425110802054">
        <ele>1439.5999755859375</ele>
        <time>2019-11-02T12:40:20Z</time>
      </trkpt>
      <trkpt lat="38.536774646490812" lon="-2.473426954820752">
        <ele>1439.5999755859375</ele>
        <time>2019-11-02T12:40:40Z</time>
      </trkpt>
      <trkpt lat="38.536777915433049" lon="-2.473429888486862">
        <ele>1440</ele>
        <time>2019-11-02T12:41:04Z</time>
      </trkpt>
      <trkpt lat="38.536789817735553" lon="-2.473431816324592">
        <ele>1440</ele>
        <time>2019-11-02T12:41:32Z</time>
      </trkpt>
      <trkpt lat="38.536788811907172" lon="-2.473417734727263">
        <ele>1439.5999755859375</ele>
        <time>2019-11-02T12:42:05Z</time>
      </trkpt>
      <trkpt lat="38.536718152463436" lon="-2.473320756107569">
        <ele>1439.4000244140625</ele>
        <time>2019-11-02T12:42:09Z</time>
      </trkpt>
      <trkpt lat="38.536533582955599" lon="-2.473202152177691">
        <ele>1438.5999755859375</ele>
        <time>2019-11-02T12:42:14Z</time>
      </trkpt>
      <trkpt lat="38.536497373133898" lon="-2.473179269582033">
        <ele>1438.199951171875</ele>
        <time>2019-11-02T12:42:15Z</time>
      </trkpt>
      <trkpt lat="38.53636653162539" lon="-2.473051948472857">
        <ele>1437.199951171875</ele>
        <time>2019-11-02T12:42:19Z</time>
      </trkpt>
      <trkpt lat="38.536341302096844" lon="-2.473009368404746">
        <ele>1437</ele>
        <time>2019-11-02T12:42:20Z</time>
      </trkpt>
      <trkpt lat="38.536181962117553" lon="-2.472739974036813">
        <ele>1435.800048828125</ele>
        <time>2019-11-02T12:42:25Z</time>
      </trkpt>
      <trkpt lat="38.536056652665138" lon="-2.472535790875554">
        <ele>1434.4000244140625</ele>
        <time>2019-11-02T12:42:28Z</time>
      </trkpt>
      <trkpt lat="38.535965457558632" lon="-2.472417606040835">
        <ele>1433.4000244140625</ele>
        <time>2019-11-02T12:42:30Z</time>
      </trkpt>
      <trkpt lat="38.535923212766647" lon="-2.472360273823142">
        <ele>1433.199951171875</ele>
        <time>2019-11-02T12:42:31Z</time>
      </trkpt>
      <trkpt lat="38.53585104458034" lon="-2.472239658236504">
        <ele>1432.5999755859375</ele>
        <time>2019-11-02T12:42:33Z</time>
      </trkpt>
      <trkpt lat="38.535772925242782" lon="-2.47206112369895">
        <ele>1432.199951171875</ele>
        <time>2019-11-02T12:42:36Z</time>
      </trkpt>
      <trkpt lat="38.535754317417741" lon="-2.471998427063227">
        <ele>1432</ele>
        <time>2019-11-02T12:42:37Z</time>
      </trkpt>
      <trkpt lat="38.535740990191698" lon="-2.471936484798789">
        <ele>1431.800048828125</ele>
        <time>2019-11-02T12:42:38Z</time>
      </trkpt>
      <trkpt lat="38.535674270242453" lon="-2.471749735996127">
        <ele>1431</ele>
        <time>2019-11-02T12:42:41Z</time>
      </trkpt>
      <trkpt lat="38.535504620522261" lon="-2.471582517027855">
        <ele>1429.800048828125</ele>
        <time>2019-11-02T12:42:45Z</time>
      </trkpt>
      <trkpt lat="38.535463130101562" lon="-2.471547061577439">
        <ele>1429.199951171875</ele>
        <time>2019-11-02T12:42:46Z</time>
      </trkpt>
      <trkpt lat="38.535384843125939" lon="-2.471417644992471">
        <ele>1428.5999755859375</ele>
        <time>2019-11-02T12:42:49Z</time>
      </trkpt>
      <trkpt lat="38.535373695194721" lon="-2.471204325556755">
        <ele>1427.4000244140625</ele>
        <time>2019-11-02T12:42:53Z</time>
      </trkpt>
      <trkpt lat="38.535441840067506" lon="-2.471064766868949">
        <ele>1426.199951171875</ele>
        <time>2019-11-02T12:42:56Z</time>
      </trkpt>
      <trkpt lat="38.535473858937621" lon="-2.471021516248584">
        <ele>1425.5999755859375</ele>
        <time>2019-11-02T12:42:57Z</time>
      </trkpt>
      <trkpt lat="38.535498669371009" lon="-2.470978768542409">
        <ele>1425</ele>
        <time>2019-11-02T12:42:58Z</time>
      </trkpt>
      <trkpt lat="38.535536890849471" lon="-2.470899811014533">
        <ele>1423.800048828125</ele>
        <time>2019-11-02T12:43:00Z</time>
      </trkpt>
      <trkpt lat="38.535541919991374" lon="-2.470863182097673">
        <ele>1423.199951171875</ele>
        <time>2019-11-02T12:43:01Z</time>
      </trkpt>
      <trkpt lat="38.535531610250473" lon="-2.470818841829896">
        <ele>1422.4000244140625</ele>
        <time>2019-11-02T12:43:02Z</time>
      </trkpt>
      <trkpt lat="38.535482743754983" lon="-2.470741476863623">
        <ele>1421.800048828125</ele>
        <time>2019-11-02T12:43:04Z</time>
      </trkpt>
      <trkpt lat="38.535409150645137" lon="-2.470679450780153">
        <ele>1421.4000244140625</ele>
        <time>2019-11-02T12:43:06Z</time>
      </trkpt>
      <trkpt lat="38.535290881991386" lon="-2.470560427755117">
        <ele>1420.199951171875</ele>
        <time>2019-11-02T12:43:09Z</time>
      </trkpt>
      <trkpt lat="38.535233968868852" lon="-2.470439812168479">
        <ele>1419</ele>
        <time>2019-11-02T12:43:11Z</time>
      </trkpt>
      <trkpt lat="38.535190131515265" lon="-2.470323890447617">
        <ele>1417.800048828125</ele>
        <time>2019-11-02T12:43:13Z</time>
      </trkpt>
      <trkpt lat="38.535145204514265" lon="-2.470245938748121">
        <ele>1417.4000244140625</ele>
        <time>2019-11-02T12:43:15Z</time>
      </trkpt>
      <trkpt lat="38.53511955589056" lon="-2.470227917656302">
        <ele>1416.800048828125</ele>
        <time>2019-11-02T12:43:16Z</time>
      </trkpt>
      <trkpt lat="38.53503699414432" lon="-2.470261948183179">
        <ele>1415.5999755859375</ele>
        <time>2019-11-02T12:43:19Z</time>
      </trkpt>
      <trkpt lat="38.5349983535707" lon="-2.470343336462975">
        <ele>1414.5999755859375</ele>
        <time>2019-11-02T12:43:21Z</time>
      </trkpt>
      <trkpt lat="38.534979494288564" lon="-2.470393292605877">
        <ele>1414.199951171875</ele>
        <time>2019-11-02T12:43:22Z</time>
      </trkpt>
      <trkpt lat="38.534955773502588" lon="-2.470441991463304">
        <ele>1413.5999755859375</ele>
        <time>2019-11-02T12:43:23Z</time>
      </trkpt>
      <trkpt lat="38.534932639449835" lon="-2.470493791624904">
        <ele>1413.199951171875</ele>
        <time>2019-11-02T12:43:24Z</time>
      </trkpt>
      <trkpt lat="38.534890143200755" lon="-2.470605187118053">
        <ele>1412.199951171875</ele>
        <time>2019-11-02T12:43:26Z</time>
      </trkpt>
      <trkpt lat="38.534873463213444" lon="-2.470663608983159">
        <ele>1411.5999755859375</ele>
        <time>2019-11-02T12:43:27Z</time>
      </trkpt>
      <trkpt lat="38.534864913672209" lon="-2.470726054161787">
        <ele>1411.199951171875</ele>
        <time>2019-11-02T12:43:28Z</time>
      </trkpt>
      <trkpt lat="38.534871283918619" lon="-2.470794785767794">
        <ele>1410.5999755859375</ele>
        <time>2019-11-02T12:43:29Z</time>
      </trkpt>
      <trkpt lat="38.534891065210104" lon="-2.470861254259944">
        <ele>1409.800048828125</ele>
        <time>2019-11-02T12:43:30Z</time>
      </trkpt>
      <trkpt lat="38.534918474033475" lon="-2.47092948295176">
        <ele>1408.800048828125</ele>
        <time>2019-11-02T12:43:31Z</time>
      </trkpt>
      <trkpt lat="38.534943200647831" lon="-2.471000058576465">
        <ele>1408</ele>
        <time>2019-11-02T12:43:32Z</time>
      </trkpt>
      <trkpt lat="38.534952839836478" lon="-2.471153615042567">
        <ele>1407</ele>
        <time>2019-11-02T12:43:34Z</time>
      </trkpt>
      <trkpt lat="38.534939931705594" lon="-2.471230728551745">
        <ele>1406.4000244140625</ele>
        <time>2019-11-02T12:43:35Z</time>
      </trkpt>
      <trkpt lat="38.534920150414109" lon="-2.471313457936049">
        <ele>1406</ele>
        <time>2019-11-02T12:43:36Z</time>
      </trkpt>
      <trkpt lat="38.534902045503259" lon="-2.471399120986462">
        <ele>1405.4000244140625</ele>
        <time>2019-11-02T12:43:37Z</time>
      </trkpt>
      <trkpt lat="38.534881677478552" lon="-2.47157933190465">
        <ele>1404</ele>
        <time>2019-11-02T12:43:39Z</time>
      </trkpt>
      <trkpt lat="38.534880420193076" lon="-2.471672957763076">
        <ele>1403</ele>
        <time>2019-11-02T12:43:40Z</time>
      </trkpt>
      <trkpt lat="38.534882515668869" lon="-2.471766918897629">
        <ele>1402.4000244140625</ele>
        <time>2019-11-02T12:43:41Z</time>
      </trkpt>
      <trkpt lat="38.534890813753009" lon="-2.471858449280262">
        <ele>1401.800048828125</ele>
        <time>2019-11-02T12:43:42Z</time>
      </trkpt>
      <trkpt lat="38.534900955855846" lon="-2.471945621073246">
        <ele>1401.199951171875</ele>
        <time>2019-11-02T12:43:43Z</time>
      </trkpt>
      <trkpt lat="38.534924173727632" lon="-2.472103452309966">
        <ele>1399.5999755859375</ele>
        <time>2019-11-02T12:43:45Z</time>
      </trkpt>
      <trkpt lat="38.534934818744659" lon="-2.472241669893265">
        <ele>1398.199951171875</ele>
        <time>2019-11-02T12:43:47Z</time>
      </trkpt>
      <trkpt lat="38.534936495125294" lon="-2.472465801984072">
        <ele>1396.800048828125</ele>
        <time>2019-11-02T12:43:50Z</time>
      </trkpt>
      <trkpt lat="38.534930543974042" lon="-2.472629249095917">
        <ele>1395.5999755859375</ele>
        <time>2019-11-02T12:43:52Z</time>
      </trkpt>
      <trkpt lat="38.534916881471872" lon="-2.472865534946322">
        <ele>1394.5999755859375</ele>
        <time>2019-11-02T12:43:55Z</time>
      </trkpt>
      <trkpt lat="38.534909589216113" lon="-2.472938289865851">
        <ele>1394.4000244140625</ele>
        <time>2019-11-02T12:43:56Z</time>
      </trkpt>
      <trkpt lat="38.53490699082613" lon="-2.473012721166015">
        <ele>1394.199951171875</ele>
        <time>2019-11-02T12:43:57Z</time>
      </trkpt>
      <trkpt lat="38.534926436841488" lon="-2.473220089450479">
        <ele>1393.5999755859375</ele>
        <time>2019-11-02T12:44:00Z</time>
      </trkpt>
      <trkpt lat="38.534939680248499" lon="-2.473282953724265">
        <ele>1393.199951171875</ele>
        <time>2019-11-02T12:44:01Z</time>
      </trkpt>
      <trkpt lat="38.534987540915608" lon="-2.473398875445127">
        <ele>1392</ele>
        <time>2019-11-02T12:44:03Z</time>
      </trkpt>
      <trkpt lat="38.535018805414438" lon="-2.473450005054474">
        <ele>1391.4000244140625</ele>
        <time>2019-11-02T12:44:04Z</time>
      </trkpt>
      <trkpt lat="38.535084687173367" lon="-2.47354120016098">
        <ele>1390.199951171875</ele>
        <time>2019-11-02T12:44:06Z</time>
      </trkpt>
      <trkpt lat="38.535130955278873" lon="-2.473635748028755">
        <ele>1389.199951171875</ele>
        <time>2019-11-02T12:44:08Z</time>
      </trkpt>
      <trkpt lat="38.535148305818439" lon="-2.473684614524245">
        <ele>1389</ele>
        <time>2019-11-02T12:44:09Z</time>
      </trkpt>
      <trkpt lat="38.535160040482879" lon="-2.473733983933926">
        <ele>1388.4000244140625</ele>
        <time>2019-11-02T12:44:10Z</time>
      </trkpt>
      <trkpt lat="38.535163309425116" lon="-2.473831884562969">
        <ele>1387.5999755859375</ele>
        <time>2019-11-02T12:44:12Z</time>
      </trkpt>
      <trkpt lat="38.535148473456502" lon="-2.473876895383">
        <ele>1387.4000244140625</ele>
        <time>2019-11-02T12:44:13Z</time>
      </trkpt>
      <trkpt lat="38.535068342462182" lon="-2.473995918408036">
        <ele>1386.4000244140625</ele>
        <time>2019-11-02T12:44:16Z</time>
      </trkpt>
      <trkpt lat="38.535030540078878" lon="-2.474037576466799">
        <ele>1386</ele>
        <time>2019-11-02T12:44:17Z</time>
      </trkpt>
      <trkpt lat="38.534954851493239" lon="-2.474126592278481">
        <ele>1385.199951171875</ele>
        <time>2019-11-02T12:44:19Z</time>
      </trkpt>
      <trkpt lat="38.534857537597418" lon="-2.474268330261111">
        <ele>1384.199951171875</ele>
        <time>2019-11-02T12:44:22Z</time>
      </trkpt>
      <trkpt lat="38.534839600324631" lon="-2.47432985343039">
        <ele>1383.800048828125</ele>
        <time>2019-11-02T12:44:23Z</time>
      </trkpt>
      <trkpt lat="38.534812862053514" lon="-2.474469831213355">
        <ele>1383</ele>
        <time>2019-11-02T12:44:25Z</time>
      </trkpt>
      <trkpt lat="38.534775897860527" lon="-2.474686419591308">
        <ele>1382</ele>
        <time>2019-11-02T12:44:28Z</time>
      </trkpt>
      <trkpt lat="38.534770533442497" lon="-2.474765041843057">
        <ele>1381.800048828125</ele>
        <time>2019-11-02T12:44:29Z</time>
      </trkpt>
      <trkpt lat="38.534781262278557" lon="-2.474970314651728">
        <ele>1380.5999755859375</ele>
        <time>2019-11-02T12:44:32Z</time>
      </trkpt>
      <trkpt lat="38.534696521237493" lon="-2.475145161151886">
        <ele>1379.5999755859375</ele>
        <time>2019-11-02T12:44:35Z</time>
      </trkpt>
      <trkpt lat="38.534650253131986" lon="-2.475188663229346">
        <ele>1379.4000244140625</ele>
        <time>2019-11-02T12:44:36Z</time>
      </trkpt>
      <trkpt lat="38.534600296989083" lon="-2.475230908021331">
        <ele>1378.5999755859375</ele>
        <time>2019-11-02T12:44:37Z</time>
      </trkpt>
      <trkpt lat="38.534554028883576" lon="-2.47527482919395">
        <ele>1378.199951171875</ele>
        <time>2019-11-02T12:44:38Z</time>
      </trkpt>
      <trkpt lat="38.53446627035737" lon="-2.475381698459387">
        <ele>1377.4000244140625</ele>
        <time>2019-11-02T12:44:40Z</time>
      </trkpt>
      <trkpt lat="38.534431904554367" lon="-2.475447747856379">
        <ele>1376.4000244140625</ele>
        <time>2019-11-02T12:44:41Z</time>
      </trkpt>
      <trkpt lat="38.534383289515972" lon="-2.475592754781246">
        <ele>1374.5999755859375</ele>
        <time>2019-11-02T12:44:43Z</time>
      </trkpt>
      <trkpt lat="38.534380607306957" lon="-2.475751591846347">
        <ele>1373.4000244140625</ele>
        <time>2019-11-02T12:44:45Z</time>
      </trkpt>
      <trkpt lat="38.534372812137008" lon="-2.475922917947173">
        <ele>1372.4000244140625</ele>
        <time>2019-11-02T12:44:47Z</time>
      </trkpt>
      <trkpt lat="38.534328220412135" lon="-2.476092483848333">
        <ele>1371.800048828125</ele>
        <time>2019-11-02T12:44:49Z</time>
      </trkpt>
      <trkpt lat="38.534303409978747" lon="-2.476167334243655">
        <ele>1371</ele>
        <time>2019-11-02T12:44:50Z</time>
      </trkpt>
      <trkpt lat="38.534282790496945" lon="-2.476231958717108">
        <ele>1370.4000244140625</ele>
        <time>2019-11-02T12:44:51Z</time>
      </trkpt>
      <trkpt lat="38.534274073317647" lon="-2.476289123296738">
        <ele>1369.800048828125</ele>
        <time>2019-11-02T12:44:52Z</time>
      </trkpt>
      <trkpt lat="38.534265607595444" lon="-2.476339666172862">
        <ele>1369.5999755859375</ele>
        <time>2019-11-02T12:44:53Z</time>
      </trkpt>
      <trkpt lat="38.534251777455211" lon="-2.476436058059335">
        <ele>1368.5999755859375</ele>
        <time>2019-11-02T12:44:55Z</time>
      </trkpt>
      <trkpt lat="38.534251358360052" lon="-2.47648861259222">
        <ele>1368</ele>
        <time>2019-11-02T12:44:56Z</time>
      </trkpt>
      <trkpt lat="38.534264098852873" lon="-2.476547034457326">
        <ele>1367.4000244140625</ele>
        <time>2019-11-02T12:44:57Z</time>
      </trkpt>
      <trkpt lat="38.53428446687758" lon="-2.476612245664001">
        <ele>1366.5999755859375</ele>
        <time>2019-11-02T12:44:58Z</time>
      </trkpt>
      <trkpt lat="38.534307852387428" lon="-2.476682905107737">
        <ele>1366.199951171875</ele>
        <time>2019-11-02T12:44:59Z</time>
      </trkpt>
      <trkpt lat="38.534355461597443" lon="-2.476837635040283">
        <ele>1365.199951171875</ele>
        <time>2019-11-02T12:45:01Z</time>
      </trkpt>
      <trkpt lat="38.534414218738675" lon="-2.476990269497037">
        <ele>1364.199951171875</ele>
        <time>2019-11-02T12:45:03Z</time>
      </trkpt>
      <trkpt lat="38.534482279792428" lon="-2.47711893171072">
        <ele>1363.199951171875</ele>
        <time>2019-11-02T12:45:05Z</time>
      </trkpt>
      <trkpt lat="38.534548580646515" lon="-2.477228147909045">
        <ele>1361.800048828125</ele>
        <time>2019-11-02T12:45:07Z</time>
      </trkpt>
      <trkpt lat="38.534570625051856" lon="-2.47727969661355">
        <ele>1361</ele>
        <time>2019-11-02T12:45:08Z</time>
      </trkpt>
      <trkpt lat="38.534576576203108" lon="-2.477335184812546">
        <ele>1360.5999755859375</ele>
        <time>2019-11-02T12:45:09Z</time>
      </trkpt>
      <trkpt lat="38.534551179036498" lon="-2.477452615275979">
        <ele>1359.4000244140625</ele>
        <time>2019-11-02T12:45:11Z</time>
      </trkpt>
      <trkpt lat="38.534493427723646" lon="-2.477531488984823">
        <ele>1358</ele>
        <time>2019-11-02T12:45:13Z</time>
      </trkpt>
      <trkpt lat="38.534459229558706" lon="-2.477541044354439">
        <ele>1357.199951171875</ele>
        <time>2019-11-02T12:45:14Z</time>
      </trkpt>
      <trkpt lat="38.534422852098942" lon="-2.477536853402853">
        <ele>1356.5999755859375</ele>
        <time>2019-11-02T12:45:15Z</time>
      </trkpt>
      <trkpt lat="38.534355796873569" lon="-2.477473150938749">
        <ele>1355.5999755859375</ele>
        <time>2019-11-02T12:45:17Z</time>
      </trkpt>
      <trkpt lat="38.534325622022152" lon="-2.477418752387166">
        <ele>1355</ele>
        <time>2019-11-02T12:45:18Z</time>
      </trkpt>
      <trkpt lat="38.534294441342354" lon="-2.477356977760792">
        <ele>1354.5999755859375</ele>
        <time>2019-11-02T12:45:19Z</time>
      </trkpt>
      <trkpt lat="38.534221267327666" lon="-2.477222364395857">
        <ele>1353.800048828125</ele>
        <time>2019-11-02T12:45:21Z</time>
      </trkpt>
      <trkpt lat="38.534080618992448" lon="-2.477007620036602">
        <ele>1352.4000244140625</ele>
        <time>2019-11-02T12:45:24Z</time>
      </trkpt>
      <trkpt lat="38.533978695049882" lon="-2.47688147239387">
        <ele>1350.800048828125</ele>
        <time>2019-11-02T12:45:26Z</time>
      </trkpt>
      <trkpt lat="38.533877609297633" lon="-2.476775944232941">
        <ele>1349.5999755859375</ele>
        <time>2019-11-02T12:45:28Z</time>
      </trkpt>
      <trkpt lat="38.533780379220843" lon="-2.476666728034616">
        <ele>1349</ele>
        <time>2019-11-02T12:45:30Z</time>
      </trkpt>
      <trkpt lat="38.533705612644553" lon="-2.476547788828611">
        <ele>1348.199951171875</ele>
        <time>2019-11-02T12:45:32Z</time>
      </trkpt>
      <trkpt lat="38.533602012321353" lon="-2.476370427757502">
        <ele>1346.800048828125</ele>
        <time>2019-11-02T12:45:35Z</time>
      </trkpt>
      <trkpt lat="38.533491287380457" lon="-2.476128861308098">
        <ele>1345.4000244140625</ele>
        <time>2019-11-02T12:45:39Z</time>
      </trkpt>
      <trkpt lat="38.533420125022531" lon="-2.475912859663367">
        <ele>1343.800048828125</ele>
        <time>2019-11-02T12:45:42Z</time>
      </trkpt>
      <trkpt lat="38.533375700935721" lon="-2.47575125657022">
        <ele>1342.4000244140625</ele>
        <time>2019-11-02T12:45:44Z</time>
      </trkpt>
      <trkpt lat="38.533353907987475" lon="-2.475676741451025">
        <ele>1341.5999755859375</ele>
        <time>2019-11-02T12:45:45Z</time>
      </trkpt>
      <trkpt lat="38.533334461972117" lon="-2.475604237988591">
        <ele>1340.800048828125</ele>
        <time>2019-11-02T12:45:46Z</time>
      </trkpt>
      <trkpt lat="38.533299174159765" lon="-2.475448669865727">
        <ele>1339.800048828125</ele>
        <time>2019-11-02T12:45:48Z</time>
      </trkpt>
      <trkpt lat="38.533274950459599" lon="-2.475281283259392">
        <ele>1339</ele>
        <time>2019-11-02T12:45:50Z</time>
      </trkpt>
      <trkpt lat="38.533264808356762" lon="-2.475192854180932">
        <ele>1338.5999755859375</ele>
        <time>2019-11-02T12:45:51Z</time>
      </trkpt>
      <trkpt lat="38.53323245421052" lon="-2.474945336580276">
        <ele>1337</ele>
        <time>2019-11-02T12:45:54Z</time>
      </trkpt>
      <trkpt lat="38.533209068700671" lon="-2.474870234727859">
        <ele>1336.4000244140625</ele>
        <time>2019-11-02T12:45:55Z</time>
      </trkpt>
      <trkpt lat="38.533185264095664" lon="-2.474802173674107">
        <ele>1335.5999755859375</ele>
        <time>2019-11-02T12:45:56Z</time>
      </trkpt>
      <trkpt lat="38.533153077587485" lon="-2.474736040458083">
        <ele>1334.800048828125</ele>
        <time>2019-11-02T12:45:57Z</time>
      </trkpt>
      <trkpt lat="38.533117370679975" lon="-2.474674182012677">
        <ele>1334.199951171875</ele>
        <time>2019-11-02T12:45:58Z</time>
      </trkpt>
      <trkpt lat="38.533008825033903" lon="-2.474485673010349">
        <ele>1333.800048828125</ele>
        <time>2019-11-02T12:46:02Z</time>
      </trkpt>
      <trkpt lat="38.532980745658278" lon="-2.47446320950985">
        <ele>1333.5999755859375</ele>
        <time>2019-11-02T12:46:03Z</time>
      </trkpt>
      <trkpt lat="38.532950654625893" lon="-2.474458431825042">
        <ele>1333.199951171875</ele>
        <time>2019-11-02T12:46:04Z</time>
      </trkpt>
      <trkpt lat="38.53292366489768" lon="-2.474470669403672">
        <ele>1332.800048828125</ele>
        <time>2019-11-02T12:46:05Z</time>
      </trkpt>
      <trkpt lat="38.532888879999518" lon="-2.474575778469443">
        <ele>1332</ele>
        <time>2019-11-02T12:46:08Z</time>
      </trkpt>
      <trkpt lat="38.532940847799182" lon="-2.474766634404659">
        <ele>1331</ele>
        <time>2019-11-02T12:46:11Z</time>
      </trkpt>
      <trkpt lat="38.532972279936075" lon="-2.474847184494138">
        <ele>1329.800048828125</ele>
        <time>2019-11-02T12:46:12Z</time>
      </trkpt>
      <trkpt lat="38.533000443130732" lon="-2.474931757897139">
        <ele>1329.199951171875</ele>
        <time>2019-11-02T12:46:13Z</time>
      </trkpt>
      <trkpt lat="38.533023661002517" lon="-2.475010380148888">
        <ele>1328.199951171875</ele>
        <time>2019-11-02T12:46:14Z</time>
      </trkpt>
      <trkpt lat="38.533040592446923" lon="-2.475083135068417">
        <ele>1327.5999755859375</ele>
        <time>2019-11-02T12:46:15Z</time>
      </trkpt>
      <trkpt lat="38.533046627417207" lon="-2.475148681551218">
        <ele>1326.800048828125</ele>
        <time>2019-11-02T12:46:16Z</time>
      </trkpt>
      <trkpt lat="38.533020978793502" lon="-2.475268458947539">
        <ele>1325.5999755859375</ele>
        <time>2019-11-02T12:46:18Z</time>
      </trkpt>
      <trkpt lat="38.532894998788834" lon="-2.475437773391604">
        <ele>1324.199951171875</ele>
        <time>2019-11-02T12:46:21Z</time>
      </trkpt>
      <trkpt lat="38.532779160887003" lon="-2.475534668192267">
        <ele>1322.5999755859375</ele>
        <time>2019-11-02T12:46:23Z</time>
      </trkpt>
      <trkpt lat="38.532667430117726" lon="-2.475628294050694">
        <ele>1321.199951171875</ele>
        <time>2019-11-02T12:46:25Z</time>
      </trkpt>
      <trkpt lat="38.532623508945107" lon="-2.475681686773896">
        <ele>1320.800048828125</ele>
        <time>2019-11-02T12:46:26Z</time>
      </trkpt>
      <trkpt lat="38.532567350193858" lon="-2.475820910185575">
        <ele>1320.199951171875</ele>
        <time>2019-11-02T12:46:28Z</time>
      </trkpt>
      <trkpt lat="38.532557962462306" lon="-2.475908668711782">
        <ele>1319.5999755859375</ele>
        <time>2019-11-02T12:46:29Z</time>
      </trkpt>
      <trkpt lat="38.532559219747782" lon="-2.476000199094415">
        <ele>1318.800048828125</ele>
        <time>2019-11-02T12:46:30Z</time>
      </trkpt>
      <trkpt lat="38.532571876421571" lon="-2.47619885019958">
        <ele>1317.4000244140625</ele>
        <time>2019-11-02T12:46:32Z</time>
      </trkpt>
      <trkpt lat="38.532570954412222" lon="-2.476305300369859">
        <ele>1316.5999755859375</ele>
        <time>2019-11-02T12:46:33Z</time>
      </trkpt>
      <trkpt lat="38.532571960240602" lon="-2.47641434893012">
        <ele>1316</ele>
        <time>2019-11-02T12:46:34Z</time>
      </trkpt>
      <trkpt lat="38.532577827572823" lon="-2.476616101339459">
        <ele>1315</ele>
        <time>2019-11-02T12:46:36Z</time>
      </trkpt>
      <trkpt lat="38.532598530873656" lon="-2.476803353056312">
        <ele>1313.4000244140625</ele>
        <time>2019-11-02T12:46:38Z</time>
      </trkpt>
      <trkpt lat="38.532617473974824" lon="-2.476896811276674">
        <ele>1312.800048828125</ele>
        <time>2019-11-02T12:46:39Z</time>
      </trkpt>
      <trkpt lat="38.532642619684339" lon="-2.476984485983849">
        <ele>1312.4000244140625</ele>
        <time>2019-11-02T12:46:40Z</time>
      </trkpt>
      <trkpt lat="38.532696850597858" lon="-2.47713846154511">
        <ele>1311</ele>
        <time>2019-11-02T12:46:42Z</time>
      </trkpt>
      <trkpt lat="38.532726522535086" lon="-2.477206522598863">
        <ele>1310.4000244140625</ele>
        <time>2019-11-02T12:46:43Z</time>
      </trkpt>
      <trkpt lat="38.532763654366136" lon="-2.477266453206539">
        <ele>1309.5999755859375</ele>
        <time>2019-11-02T12:46:44Z</time>
      </trkpt>
      <trkpt lat="38.532846383750439" lon="-2.4773651920259">
        <ele>1308.5999755859375</ele>
        <time>2019-11-02T12:46:46Z</time>
      </trkpt>
      <trkpt lat="38.532907655462623" lon="-2.477478934451938">
        <ele>1307.4000244140625</ele>
        <time>2019-11-02T12:46:48Z</time>
      </trkpt>
      <trkpt lat="38.53294562548399" lon="-2.477610362693667">
        <ele>1306.5999755859375</ele>
        <time>2019-11-02T12:46:50Z</time>
      </trkpt>
      <trkpt lat="38.53296666406095" lon="-2.477678256109357">
        <ele>1306.4000244140625</ele>
        <time>2019-11-02T12:46:51Z</time>
      </trkpt>
      <trkpt lat="38.53305459022522" lon="-2.477850336581469">
        <ele>1305.4000244140625</ele>
        <time>2019-11-02T12:46:54Z</time>
      </trkpt>
      <trkpt lat="38.533086944371462" lon="-2.477883026003838">
        <ele>1305</ele>
        <time>2019-11-02T12:46:55Z</time>
      </trkpt>
      <trkpt lat="38.533142181113362" lon="-2.477911440655589">
        <ele>1304.4000244140625</ele>
        <time>2019-11-02T12:46:57Z</time>
      </trkpt>
      <trkpt lat="38.533195238560438" lon="-2.47793247923255">
        <ele>1304.4000244140625</ele>
        <time>2019-11-02T12:47:01Z</time>
      </trkpt>
      <trkpt lat="38.533196998760104" lon="-2.477929042652249">
        <ele>1304</ele>
        <time>2019-11-02T12:47:07Z</time>
      </trkpt>
      <trkpt lat="38.533194316551089" lon="-2.477926192805171">
        <ele>1304.199951171875</ele>
        <time>2019-11-02T12:47:14Z</time>
      </trkpt>
      <trkpt lat="38.533227005973458" lon="-2.477908255532384">
        <ele>1304</ele>
        <time>2019-11-02T12:47:26Z</time>
      </trkpt>
      <trkpt lat="38.533249888569117" lon="-2.477900041267276">
        <ele>1304</ele>
        <time>2019-11-02T12:47:28Z</time>
      </trkpt>
      <trkpt lat="38.533308813348413" lon="-2.477908674627542">
        <ele>1303.5999755859375</ele>
        <time>2019-11-02T12:47:31Z</time>
      </trkpt>
      <trkpt lat="38.5334528144449" lon="-2.477937676012516">
        <ele>1303.4000244140625</ele>
        <time>2019-11-02T12:47:36Z</time>
      </trkpt>
      <trkpt lat="38.533503776416183" lon="-2.478012861683965">
        <ele>1303.199951171875</ele>
        <time>2019-11-02T12:47:38Z</time>
      </trkpt>
      <trkpt lat="38.533525066450238" lon="-2.478063236922026">
        <ele>1303</ele>
        <time>2019-11-02T12:47:39Z</time>
      </trkpt>
      <trkpt lat="38.533545937389135" lon="-2.478119479492307">
        <ele>1302.800048828125</ele>
        <time>2019-11-02T12:47:40Z</time>
      </trkpt>
      <trkpt lat="38.53358767926693" lon="-2.47824277728796">
        <ele>1301.800048828125</ele>
        <time>2019-11-02T12:47:42Z</time>
      </trkpt>
      <trkpt lat="38.533697985112667" lon="-2.478562882170081">
        <ele>1300.800048828125</ele>
        <time>2019-11-02T12:47:47Z</time>
      </trkpt>
      <trkpt lat="38.533721705898643" lon="-2.478627171367407">
        <ele>1300.800048828125</ele>
        <time>2019-11-02T12:47:48Z</time>
      </trkpt>
      <trkpt lat="38.533846093341708" lon="-2.478947276249528">
        <ele>1300</ele>
        <time>2019-11-02T12:47:53Z</time>
      </trkpt>
      <trkpt lat="38.533880123868585" lon="-2.478993628174067">
        <ele>1299.800048828125</ele>
        <time>2019-11-02T12:47:54Z</time>
      </trkpt>
      <trkpt lat="38.533977018669248" lon="-2.47908616438508">
        <ele>1299.199951171875</ele>
        <time>2019-11-02T12:47:57Z</time>
      </trkpt>
      <trkpt lat="38.534003337845206" lon="-2.479111896827817">
        <ele>1299.4000244140625</ele>
        <time>2019-11-02T12:47:58Z</time>
      </trkpt>
      <trkpt lat="38.534186314791441" lon="-2.479224214330316">
        <ele>1299.4000244140625</ele>
        <time>2019-11-02T12:48:05Z</time>
      </trkpt>
      <trkpt lat="38.534236773848534" lon="-2.479244330897927">
        <ele>1298.800048828125</ele>
        <time>2019-11-02T12:48:09Z</time>
      </trkpt>
      <trkpt lat="38.534235684201121" lon="-2.479243408888578">
        <ele>1298.5999755859375</ele>
        <time>2019-11-02T12:48:10Z</time>
      </trkpt>
      <trkpt lat="38.53423266671598" lon="-2.479243660345674">
        <ele>1298.4000244140625</ele>
        <time>2019-11-02T12:48:23Z</time>
      </trkpt>
      <trkpt lat="38.534243898466229" lon="-2.479244917631149">
        <ele>1298.5999755859375</ele>
        <time>2019-11-02T12:48:37Z</time>
      </trkpt>
      <trkpt lat="38.534331740811467" lon="-2.479208372533321">
        <ele>1298.5999755859375</ele>
        <time>2019-11-02T12:48:41Z</time>
      </trkpt>
      <trkpt lat="38.534437688067555" lon="-2.479151291772723">
        <ele>1297.5999755859375</ele>
        <time>2019-11-02T12:48:44Z</time>
      </trkpt>
      <trkpt lat="38.534520165994763" lon="-2.479098318144679">
        <ele>1296.4000244140625</ele>
        <time>2019-11-02T12:48:46Z</time>
      </trkpt>
      <trkpt lat="38.534656874835491" lon="-2.479004357010126">
        <ele>1295</ele>
        <time>2019-11-02T12:48:49Z</time>
      </trkpt>
      <trkpt lat="38.534732731059194" lon="-2.478962279856205">
        <ele>1294</ele>
        <time>2019-11-02T12:48:51Z</time>
      </trkpt>
      <trkpt lat="38.534837169572711" lon="-2.478980971500278">
        <ele>1292.5999755859375</ele>
        <time>2019-11-02T12:48:54Z</time>
      </trkpt>
      <trkpt lat="38.534866254776716" lon="-2.479009218513966">
        <ele>1292.199951171875</ele>
        <time>2019-11-02T12:48:55Z</time>
      </trkpt>
      <trkpt lat="38.534906404092908" lon="-2.479090439155698">
        <ele>1291.199951171875</ele>
        <time>2019-11-02T12:48:57Z</time>
      </trkpt>
      <trkpt lat="38.534913612529635" lon="-2.479140730574727">
        <ele>1290.5999755859375</ele>
        <time>2019-11-02T12:48:58Z</time>
      </trkpt>
      <trkpt lat="38.534914450719953" lon="-2.47919512912631">
        <ele>1289.800048828125</ele>
        <time>2019-11-02T12:48:59Z</time>
      </trkpt>
      <trkpt lat="38.534911181777716" lon="-2.479255646467209">
        <ele>1289.4000244140625</ele>
        <time>2019-11-02T12:49:00Z</time>
      </trkpt>
      <trkpt lat="38.534909002482891" lon="-2.479395037516952">
        <ele>1288.199951171875</ele>
        <time>2019-11-02T12:49:02Z</time>
      </trkpt>
      <trkpt lat="38.534905565902591" lon="-2.479477766901255">
        <ele>1287.4000244140625</ele>
        <time>2019-11-02T12:49:03Z</time>
      </trkpt>
      <trkpt lat="38.534898860380054" lon="-2.47956644743681">
        <ele>1286.5999755859375</ele>
        <time>2019-11-02T12:49:04Z</time>
      </trkpt>
      <trkpt lat="38.53488109074533" lon="-2.47972184792161">
        <ele>1285.199951171875</ele>
        <time>2019-11-02T12:49:06Z</time>
      </trkpt>
      <trkpt lat="38.534871619194746" lon="-2.479782532900572">
        <ele>1284.800048828125</ele>
        <time>2019-11-02T12:49:07Z</time>
      </trkpt>
      <trkpt lat="38.534862399101257" lon="-2.479840368032455">
        <ele>1283.800048828125</ele>
        <time>2019-11-02T12:49:08Z</time>
      </trkpt>
      <trkpt lat="38.534842701628804" lon="-2.479962659999728">
        <ele>1282.4000244140625</ele>
        <time>2019-11-02T12:49:10Z</time>
      </trkpt>
      <trkpt lat="38.534831386059523" lon="-2.480028793215752">
        <ele>1282.199951171875</ele>
        <time>2019-11-02T12:49:11Z</time>
      </trkpt>
      <trkpt lat="38.534826608374715" lon="-2.480160472914577">
        <ele>1281.800048828125</ele>
        <time>2019-11-02T12:49:13Z</time>
      </trkpt>
      <trkpt lat="38.534850580617785" lon="-2.480290392413735">
        <ele>1281.4000244140625</ele>
        <time>2019-11-02T12:49:15Z</time>
      </trkpt>
      <trkpt lat="38.534868769347668" lon="-2.480356944724917">
        <ele>1281</ele>
        <time>2019-11-02T12:49:16Z</time>
      </trkpt>
      <trkpt lat="38.534922245889902" lon="-2.480487786233425">
        <ele>1279.5999755859375</ele>
        <time>2019-11-02T12:49:18Z</time>
      </trkpt>
      <trkpt lat="38.534954264760017" lon="-2.480543609708548">
        <ele>1279</ele>
        <time>2019-11-02T12:49:19Z</time>
      </trkpt>
      <trkpt lat="38.534988882020116" lon="-2.480589039623737">
        <ele>1278.199951171875</ele>
        <time>2019-11-02T12:49:20Z</time>
      </trkpt>
      <trkpt lat="38.535059960559011" lon="-2.48064486309886">
        <ele>1277</ele>
        <time>2019-11-02T12:49:22Z</time>
      </trkpt>
      <trkpt lat="38.535147551447153" lon="-2.480646455660462">
        <ele>1275.800048828125</ele>
        <time>2019-11-02T12:49:24Z</time>
      </trkpt>
      <trkpt lat="38.535239668563008" lon="-2.480603707954288">
        <ele>1274.800048828125</ele>
        <time>2019-11-02T12:49:26Z</time>
      </trkpt>
      <trkpt lat="38.535293312743306" lon="-2.480563474819064">
        <ele>1274.4000244140625</ele>
        <time>2019-11-02T12:49:27Z</time>
      </trkpt>
      <trkpt lat="38.535407306626439" lon="-2.480478482320905">
        <ele>1273.199951171875</ele>
        <time>2019-11-02T12:49:29Z</time>
      </trkpt>
      <trkpt lat="38.535526748746634" lon="-2.480391897261143">
        <ele>1271.4000244140625</ele>
        <time>2019-11-02T12:49:31Z</time>
      </trkpt>
      <trkpt lat="38.535639569163322" lon="-2.480316711589694">
        <ele>1270.199951171875</ele>
        <time>2019-11-02T12:49:33Z</time>
      </trkpt>
      <trkpt lat="38.535736715421081" lon="-2.480271784588695">
        <ele>1269</ele>
        <time>2019-11-02T12:49:35Z</time>
      </trkpt>
      <trkpt lat="38.535780301317573" lon="-2.480277484282851">
        <ele>1268.800048828125</ele>
        <time>2019-11-02T12:49:36Z</time>
      </trkpt>
      <trkpt lat="38.535845596343279" lon="-2.480392400175333">
        <ele>1268.5999755859375</ele>
        <time>2019-11-02T12:49:39Z</time>
      </trkpt>
      <trkpt lat="38.535817684605718" lon="-2.480528019368649">
        <ele>1269</ele>
        <time>2019-11-02T12:49:42Z</time>
      </trkpt>
      <trkpt lat="38.535805530846119" lon="-2.480573197826743">
        <ele>1269.199951171875</ele>
        <time>2019-11-02T12:49:43Z</time>
      </trkpt>
      <trkpt lat="38.53577233850956" lon="-2.480722144246101">
        <ele>1269.5999755859375</ele>
        <time>2019-11-02T12:49:46Z</time>
      </trkpt>
      <trkpt lat="38.535762783139944" lon="-2.480828929692507">
        <ele>1269.800048828125</ele>
        <time>2019-11-02T12:49:48Z</time>
      </trkpt>
      <trkpt lat="38.53576404042542" lon="-2.480884417891502">
        <ele>1269.800048828125</ele>
        <time>2019-11-02T12:49:49Z</time>
      </trkpt>
      <trkpt lat="38.535801423713565" lon="-2.481055995449424">
        <ele>1269.5999755859375</ele>
        <time>2019-11-02T12:49:52Z</time>
      </trkpt>
      <trkpt lat="38.535813996568322" lon="-2.481156243011355">
        <ele>1269.4000244140625</ele>
        <time>2019-11-02T12:49:54Z</time>
      </trkpt>
      <trkpt lat="38.535746019333601" lon="-2.481248863041401">
        <ele>1269</ele>
        <time>2019-11-02T12:49:57Z</time>
      </trkpt>
      <trkpt lat="38.535657757893205" lon="-2.481259424239397">
        <ele>1268.5999755859375</ele>
        <time>2019-11-02T12:49:59Z</time>
      </trkpt>
      <trkpt lat="38.535605622455478" lon="-2.481271661818027">
        <ele>1268.4000244140625</ele>
        <time>2019-11-02T12:50:00Z</time>
      </trkpt>
      <trkpt lat="38.535553151741624" lon="-2.481296639889479">
        <ele>1268.199951171875</ele>
        <time>2019-11-02T12:50:01Z</time>
      </trkpt>
      <trkpt lat="38.535501100122929" lon="-2.481330083683133">
        <ele>1267.800048828125</ele>
        <time>2019-11-02T12:50:02Z</time>
      </trkpt>
      <trkpt lat="38.535387609153986" lon="-2.481410130858421">
        <ele>1266.4000244140625</ele>
        <time>2019-11-02T12:50:04Z</time>
      </trkpt>
      <trkpt lat="38.535287529230118" lon="-2.481500320136547">
        <ele>1265.4000244140625</ele>
        <time>2019-11-02T12:50:06Z</time>
      </trkpt>
      <trkpt lat="38.535195663571358" lon="-2.48158355243504">
        <ele>1264.800048828125</ele>
        <time>2019-11-02T12:50:08Z</time>
      </trkpt>
      <trkpt lat="38.535146545618773" lon="-2.481613978743553">
        <ele>1264.199951171875</ele>
        <time>2019-11-02T12:50:09Z</time>
      </trkpt>
      <trkpt lat="38.535039341077209" lon="-2.481655552983284">
        <ele>1263.800048828125</ele>
        <time>2019-11-02T12:50:11Z</time>
      </trkpt>
      <trkpt lat="38.53498762473464" lon="-2.481666868552566">
        <ele>1263.5999755859375</ele>
        <time>2019-11-02T12:50:12Z</time>
      </trkpt>
      <trkpt lat="38.534941021353006" lon="-2.481680614873767">
        <ele>1263.199951171875</ele>
        <time>2019-11-02T12:50:13Z</time>
      </trkpt>
      <trkpt lat="38.534868266433477" lon="-2.481736605986953">
        <ele>1262</ele>
        <time>2019-11-02T12:50:15Z</time>
      </trkpt>
      <trkpt lat="38.534787883982062" lon="-2.481907093897462">
        <ele>1260.199951171875</ele>
        <time>2019-11-02T12:50:18Z</time>
      </trkpt>
      <trkpt lat="38.534761983901262" lon="-2.481980351731181">
        <ele>1259.5999755859375</ele>
        <time>2019-11-02T12:50:19Z</time>
      </trkpt>
      <trkpt lat="38.534736419096589" lon="-2.482055285945535">
        <ele>1259</ele>
        <time>2019-11-02T12:50:20Z</time>
      </trkpt>
      <trkpt lat="38.534681014716625" lon="-2.482193587347865">
        <ele>1257.4000244140625</ele>
        <time>2019-11-02T12:50:22Z</time>
      </trkpt>
      <trkpt lat="38.534634243696928" lon="-2.482307748869061">
        <ele>1255.800048828125</ele>
        <time>2019-11-02T12:50:24Z</time>
      </trkpt>
      <trkpt lat="38.534619826823473" lon="-2.482359213754535">
        <ele>1254.5999755859375</ele>
        <time>2019-11-02T12:50:25Z</time>
      </trkpt>
      <trkpt lat="38.534607589244843" lon="-2.482413947582245">
        <ele>1253.5999755859375</ele>
        <time>2019-11-02T12:50:26Z</time>
      </trkpt>
      <trkpt lat="38.534626951441169" lon="-2.482543950900435">
        <ele>1252.199951171875</ele>
        <time>2019-11-02T12:50:28Z</time>
      </trkpt>
      <trkpt lat="38.534644301980734" lon="-2.482613017782569">
        <ele>1251.5999755859375</ele>
        <time>2019-11-02T12:50:29Z</time>
      </trkpt>
      <trkpt lat="38.534662406891584" lon="-2.482682168483734">
        <ele>1250.5999755859375</ele>
        <time>2019-11-02T12:50:30Z</time>
      </trkpt>
      <trkpt lat="38.53473449125886" lon="-2.482892135158181">
        <ele>1249.199951171875</ele>
        <time>2019-11-02T12:50:33Z</time>
      </trkpt>
      <trkpt lat="38.534762319177389" lon="-2.482966650277376">
        <ele>1248.4000244140625</ele>
        <time>2019-11-02T12:50:34Z</time>
      </trkpt>
      <trkpt lat="38.534786710515618" lon="-2.483040159568191">
        <ele>1247.800048828125</ele>
        <time>2019-11-02T12:50:35Z</time>
      </trkpt>
      <trkpt lat="38.534816214814782" lon="-2.483186591416597">
        <ele>1246.4000244140625</ele>
        <time>2019-11-02T12:50:37Z</time>
      </trkpt>
      <trkpt lat="38.534822752699256" lon="-2.483260268345475">
        <ele>1246</ele>
        <time>2019-11-02T12:50:38Z</time>
      </trkpt>
      <trkpt lat="38.534831302240491" lon="-2.483334196731448">
        <ele>1245.4000244140625</ele>
        <time>2019-11-02T12:50:39Z</time>
      </trkpt>
      <trkpt lat="38.534864159300923" lon="-2.48348280787468">
        <ele>1244.199951171875</ele>
        <time>2019-11-02T12:50:41Z</time>
      </trkpt>
      <trkpt lat="38.534905398264527" lon="-2.483645584434271">
        <ele>1243.199951171875</ele>
        <time>2019-11-02T12:50:43Z</time>
      </trkpt>
      <trkpt lat="38.534913277253509" lon="-2.483840212225914">
        <ele>1241.5999755859375</ele>
        <time>2019-11-02T12:50:45Z</time>
      </trkpt>
      <trkpt lat="38.534898608922958" lon="-2.484035259112716">
        <ele>1240.199951171875</ele>
        <time>2019-11-02T12:50:47Z</time>
      </trkpt>
      <trkpt lat="38.534882012754679" lon="-2.484230054542422">
        <ele>1239</ele>
        <time>2019-11-02T12:50:49Z</time>
      </trkpt>
      <trkpt lat="38.534891651943326" lon="-2.484428621828556">
        <ele>1238</ele>
        <time>2019-11-02T12:50:51Z</time>
      </trkpt>
      <trkpt lat="38.534901710227132" lon="-2.484606904909015">
        <ele>1236.800048828125</ele>
        <time>2019-11-02T12:50:53Z</time>
      </trkpt>
      <trkpt lat="38.53491336107254" lon="-2.484765825793147">
        <ele>1235.800048828125</ele>
        <time>2019-11-02T12:50:55Z</time>
      </trkpt>
      <trkpt lat="38.534926101565361" lon="-2.484835647046566">
        <ele>1235.5999755859375</ele>
        <time>2019-11-02T12:50:56Z</time>
      </trkpt>
      <trkpt lat="38.534981086850166" lon="-2.484963135793805">
        <ele>1234.4000244140625</ele>
        <time>2019-11-02T12:50:58Z</time>
      </trkpt>
      <trkpt lat="38.535021990537643" lon="-2.485016696155071">
        <ele>1233.800048828125</ele>
        <time>2019-11-02T12:50:59Z</time>
      </trkpt>
      <trkpt lat="38.535069851204753" lon="-2.485064221546054">
        <ele>1233.199951171875</ele>
        <time>2019-11-02T12:51:00Z</time>
      </trkpt>
      <trkpt lat="38.535149311646819" lon="-2.485175952315331">
        <ele>1232.4000244140625</ele>
        <time>2019-11-02T12:51:02Z</time>
      </trkpt>
      <trkpt lat="38.535165237262845" lon="-2.485239487141371">
        <ele>1232</ele>
        <time>2019-11-02T12:51:03Z</time>
      </trkpt>
      <trkpt lat="38.535147048532963" lon="-2.485364796593785">
        <ele>1231.4000244140625</ele>
        <time>2019-11-02T12:51:05Z</time>
      </trkpt>
      <trkpt lat="38.535125339403749" lon="-2.485424559563398">
        <ele>1231</ele>
        <time>2019-11-02T12:51:06Z</time>
      </trkpt>
      <trkpt lat="38.535089297220111" lon="-2.485546348616481">
        <ele>1230.199951171875</ele>
        <time>2019-11-02T12:51:08Z</time>
      </trkpt>
      <trkpt lat="38.535089716315269" lon="-2.485682470723987">
        <ele>1229.4000244140625</ele>
        <time>2019-11-02T12:51:10Z</time>
      </trkpt>
      <trkpt lat="38.535106396302581" lon="-2.485756063833833">
        <ele>1229</ele>
        <time>2019-11-02T12:51:11Z</time>
      </trkpt>
      <trkpt lat="38.53514738380909" lon="-2.486004671081901">
        <ele>1227.800048828125</ele>
        <time>2019-11-02T12:51:14Z</time>
      </trkpt>
      <trkpt lat="38.535158112645149" lon="-2.486090250313282">
        <ele>1227.4000244140625</ele>
        <time>2019-11-02T12:51:15Z</time>
      </trkpt>
      <trkpt lat="38.535176301375031" lon="-2.486242717131972">
        <ele>1226.800048828125</ele>
        <time>2019-11-02T12:51:17Z</time>
      </trkpt>
      <trkpt lat="38.535189963877201" lon="-2.48631396330893">
        <ele>1226.4000244140625</ele>
        <time>2019-11-02T12:51:18Z</time>
      </trkpt>
      <trkpt lat="38.53521628305316" lon="-2.486467519775033">
        <ele>1225.199951171875</ele>
        <time>2019-11-02T12:51:20Z</time>
      </trkpt>
      <trkpt lat="38.535242602229118" lon="-2.4866315536201">
        <ele>1224.199951171875</ele>
        <time>2019-11-02T12:51:22Z</time>
      </trkpt>
      <trkpt lat="38.535279398784041" lon="-2.486885609105229">
        <ele>1223</ele>
        <time>2019-11-02T12:51:25Z</time>
      </trkpt>
      <trkpt lat="38.535316195338964" lon="-2.487038243561983">
        <ele>1221.4000244140625</ele>
        <time>2019-11-02T12:51:27Z</time>
      </trkpt>
      <trkpt lat="38.53536874987185" lon="-2.48717587441206">
        <ele>1220.199951171875</ele>
        <time>2019-11-02T12:51:29Z</time>
      </trkpt>
      <trkpt lat="38.535436391830444" lon="-2.487300261855125">
        <ele>1218.5999755859375</ele>
        <time>2019-11-02T12:51:31Z</time>
      </trkpt>
      <trkpt lat="38.535477379336953" lon="-2.487362204119563">
        <ele>1217.800048828125</ele>
        <time>2019-11-02T12:51:32Z</time>
      </trkpt>
      <trkpt lat="38.535521719604731" lon="-2.487424146384001">
        <ele>1217.4000244140625</ele>
        <time>2019-11-02T12:51:33Z</time>
      </trkpt>
      <trkpt lat="38.535601096227765" lon="-2.487544342875481">
        <ele>1216.199951171875</ele>
        <time>2019-11-02T12:51:35Z</time>
      </trkpt>
      <trkpt lat="38.535649543628097" lon="-2.487687254324555">
        <ele>1214.5999755859375</ele>
        <time>2019-11-02T12:51:37Z</time>
      </trkpt>
      <trkpt lat="38.535663625225425" lon="-2.487821280956268">
        <ele>1213.199951171875</ele>
        <time>2019-11-02T12:51:39Z</time>
      </trkpt>
      <trkpt lat="38.535659937188029" lon="-2.487876182422042">
        <ele>1212.800048828125</ele>
        <time>2019-11-02T12:51:40Z</time>
      </trkpt>
      <trkpt lat="38.535639904439449" lon="-2.487980369478464">
        <ele>1211.5999755859375</ele>
        <time>2019-11-02T12:51:42Z</time>
      </trkpt>
      <trkpt lat="38.535601766780019" lon="-2.48811305500567">
        <ele>1210.199951171875</ele>
        <time>2019-11-02T12:51:45Z</time>
      </trkpt>
      <trkpt lat="38.535551056265831" lon="-2.488162675872445">
        <ele>1209.4000244140625</ele>
        <time>2019-11-02T12:51:47Z</time>
      </trkpt>
      <trkpt lat="38.535521049052477" lon="-2.488165190443397">
        <ele>1209</ele>
        <time>2019-11-02T12:51:48Z</time>
      </trkpt>
      <trkpt lat="38.535474697127938" lon="-2.488109786063433">
        <ele>1207.800048828125</ele>
        <time>2019-11-02T12:51:50Z</time>
      </trkpt>
      <trkpt lat="38.535468326881528" lon="-2.488061171025038">
        <ele>1207.4000244140625</ele>
        <time>2019-11-02T12:51:51Z</time>
      </trkpt>
      <trkpt lat="38.535486431792378" lon="-2.487956313416362">
        <ele>1206.800048828125</ele>
        <time>2019-11-02T12:51:53Z</time>
      </trkpt>
      <trkpt lat="38.535490874201059" lon="-2.487849863246083">
        <ele>1205.800048828125</ele>
        <time>2019-11-02T12:51:55Z</time>
      </trkpt>
      <trkpt lat="38.535413928329945" lon="-2.487788759171963">
        <ele>1204.4000244140625</ele>
        <time>2019-11-02T12:51:58Z</time>
      </trkpt>
      <trkpt lat="38.535338155925274" lon="-2.487884145230055">
        <ele>1203.4000244140625</ele>
        <time>2019-11-02T12:52:01Z</time>
      </trkpt>
      <trkpt lat="38.535327510908246" lon="-2.48793963342905">
        <ele>1203</ele>
        <time>2019-11-02T12:52:02Z</time>
      </trkpt>
      <trkpt lat="38.535341508686543" lon="-2.488131998106837">
        <ele>1202.199951171875</ele>
        <time>2019-11-02T12:52:05Z</time>
      </trkpt>
      <trkpt lat="38.53535701520741" lon="-2.488187151029706">
        <ele>1201.5999755859375</ele>
        <time>2019-11-02T12:52:06Z</time>
      </trkpt>
      <trkpt lat="38.535385513678193" lon="-2.488338779658079">
        <ele>1200.5999755859375</ele>
        <time>2019-11-02T12:52:09Z</time>
      </trkpt>
      <trkpt lat="38.535394901409745" lon="-2.488385802134871">
        <ele>1200.199951171875</ele>
        <time>2019-11-02T12:52:10Z</time>
      </trkpt>
      <trkpt lat="38.53541518561542" lon="-2.488464927300811">
        <ele>1199.4000244140625</ele>
        <time>2019-11-02T12:52:12Z</time>
      </trkpt>
      <trkpt lat="38.535424405708909" lon="-2.488504322245717">
        <ele>1199.199951171875</ele>
        <time>2019-11-02T12:52:13Z</time>
      </trkpt>
      <trkpt lat="38.535445192828774" lon="-2.488595768809319">
        <ele>1198.5999755859375</ele>
        <time>2019-11-02T12:52:15Z</time>
      </trkpt>
      <trkpt lat="38.535456676036119" lon="-2.488649412989616">
        <ele>1198.4000244140625</ele>
        <time>2019-11-02T12:52:16Z</time>
      </trkpt>
      <trkpt lat="38.535471763461828" lon="-2.488706493750215">
        <ele>1198.199951171875</ele>
        <time>2019-11-02T12:52:17Z</time>
      </trkpt>
      <trkpt lat="38.535536052659154" lon="-2.488923417404294">
        <ele>1197.199951171875</ele>
        <time>2019-11-02T12:52:20Z</time>
      </trkpt>
      <trkpt lat="38.535566395148635" lon="-2.48900581151247">
        <ele>1196.4000244140625</ele>
        <time>2019-11-02T12:52:21Z</time>
      </trkpt>
      <trkpt lat="38.535598497837782" lon="-2.489092480391264">
        <ele>1195.4000244140625</ele>
        <time>2019-11-02T12:52:22Z</time>
      </trkpt>
      <trkpt lat="38.535664295777678" lon="-2.489275289699435">
        <ele>1194</ele>
        <time>2019-11-02T12:52:24Z</time>
      </trkpt>
      <trkpt lat="38.535723388195038" lon="-2.489462289959192">
        <ele>1193.199951171875</ele>
        <time>2019-11-02T12:52:26Z</time>
      </trkpt>
      <trkpt lat="38.53575088083744" lon="-2.489546192809939">
        <ele>1192.199951171875</ele>
        <time>2019-11-02T12:52:27Z</time>
      </trkpt>
      <trkpt lat="38.535776780918241" lon="-2.489625820890069">
        <ele>1191.4000244140625</ele>
        <time>2019-11-02T12:52:28Z</time>
      </trkpt>
      <trkpt lat="38.535829586908221" lon="-2.489781053736806">
        <ele>1189.800048828125</ele>
        <time>2019-11-02T12:52:30Z</time>
      </trkpt>
      <trkpt lat="38.53590284474194" lon="-2.490016669034958">
        <ele>1188.5999755859375</ele>
        <time>2019-11-02T12:52:33Z</time>
      </trkpt>
      <trkpt lat="38.535922458395362" lon="-2.490087077021599">
        <ele>1188.199951171875</ele>
        <time>2019-11-02T12:52:34Z</time>
      </trkpt>
      <trkpt lat="38.535966128110886" lon="-2.490208530798554">
        <ele>1187.4000244140625</ele>
        <time>2019-11-02T12:52:36Z</time>
      </trkpt>
      <trkpt lat="38.536020945757627" lon="-2.490296121686697">
        <ele>1186.5999755859375</ele>
        <time>2019-11-02T12:52:38Z</time>
      </trkpt>
      <trkpt lat="38.536054054275155" lon="-2.490326380357146">
        <ele>1186.4000244140625</ele>
        <time>2019-11-02T12:52:39Z</time>
      </trkpt>
      <trkpt lat="38.536125803366303" lon="-2.490362925454974">
        <ele>1185.4000244140625</ele>
        <time>2019-11-02T12:52:41Z</time>
      </trkpt>
      <trkpt lat="38.536167209967971" lon="-2.490386730059981">
        <ele>1185</ele>
        <time>2019-11-02T12:52:42Z</time>
      </trkpt>
      <trkpt lat="38.536240719258785" lon="-2.49050441198051">
        <ele>1183.5999755859375</ele>
        <time>2019-11-02T12:52:45Z</time>
      </trkpt>
      <trkpt lat="38.536241725087166" lon="-2.490559061989188">
        <ele>1183</ele>
        <time>2019-11-02T12:52:46Z</time>
      </trkpt>
      <trkpt lat="38.536234013736248" lon="-2.490610778331757">
        <ele>1182.5999755859375</ele>
        <time>2019-11-02T12:52:47Z</time>
      </trkpt>
      <trkpt lat="38.536148434504867" lon="-2.490701973438263">
        <ele>1181.800048828125</ele>
        <time>2019-11-02T12:52:50Z</time>
      </trkpt>
      <trkpt lat="38.536097807809711" lon="-2.49070918187499">
        <ele>1181.5999755859375</ele>
        <time>2019-11-02T12:52:51Z</time>
      </trkpt>
      <trkpt lat="38.536055563017726" lon="-2.490723179653287">
        <ele>1181.199951171875</ele>
        <time>2019-11-02T12:52:52Z</time>
      </trkpt>
      <trkpt lat="38.535970570519567" lon="-2.490764670073986">
        <ele>1180.199951171875</ele>
        <time>2019-11-02T12:52:54Z</time>
      </trkpt>
      <trkpt lat="38.535892786458135" lon="-2.490794593468308">
        <ele>1179</ele>
        <time>2019-11-02T12:52:56Z</time>
      </trkpt>
      <trkpt lat="38.535828916355968" lon="-2.490794761106372">
        <ele>1178</ele>
        <time>2019-11-02T12:52:58Z</time>
      </trkpt>
      <trkpt lat="38.535803938284516" lon="-2.490792078897357">
        <ele>1177.5999755859375</ele>
        <time>2019-11-02T12:53:02Z</time>
      </trkpt>
      <trkpt lat="38.535791197791696" lon="-2.490796353667974">
        <ele>1177.199951171875</ele>
        <time>2019-11-02T12:53:11Z</time>
      </trkpt>
      <trkpt lat="38.535776110365987" lon="-2.490784619003534">
        <ele>1177.199951171875</ele>
        <time>2019-11-02T12:53:12Z</time>
      </trkpt>
      <trkpt lat="38.535730428993702" lon="-2.490684036165476">
        <ele>1177</ele>
        <time>2019-11-02T12:53:15Z</time>
      </trkpt>
      <trkpt lat="38.53569908067584" lon="-2.490590242668986">
        <ele>1176.4000244140625</ele>
        <time>2019-11-02T12:53:17Z</time>
      </trkpt>
      <trkpt lat="38.535679467022419" lon="-2.490532910451293">
        <ele>1176</ele>
        <time>2019-11-02T12:53:18Z</time>
      </trkpt>
      <trkpt lat="38.535659098997712" lon="-2.49047365039587">
        <ele>1175.800048828125</ele>
        <time>2019-11-02T12:53:19Z</time>
      </trkpt>
      <trkpt lat="38.535570334643126" lon="-2.49016385525465">
        <ele>1175</ele>
        <time>2019-11-02T12:53:24Z</time>
      </trkpt>
      <trkpt lat="38.535561701282859" lon="-2.49010132625699">
        <ele>1174.5999755859375</ele>
        <time>2019-11-02T12:53:25Z</time>
      </trkpt>
      <trkpt lat="38.535537561401725" lon="-2.489984985440969">
        <ele>1174.4000244140625</ele>
        <time>2019-11-02T12:53:27Z</time>
      </trkpt>
      <trkpt lat="38.535474948585033" lon="-2.489813240244985">
        <ele>1174.800048828125</ele>
        <time>2019-11-02T12:53:30Z</time>
      </trkpt>
      <trkpt lat="38.535413844510913" lon="-2.489707879722118">
        <ele>1174.800048828125</ele>
        <time>2019-11-02T12:53:32Z</time>
      </trkpt>
      <trkpt lat="38.535249475389719" lon="-2.489462289959192">
        <ele>1175.199951171875</ele>
        <time>2019-11-02T12:53:37Z</time>
      </trkpt>
      <trkpt lat="38.535184850916266" lon="-2.489379141479731">
        <ele>1175.800048828125</ele>
        <time>2019-11-02T12:53:39Z</time>
      </trkpt>
      <trkpt lat="38.535059876739979" lon="-2.489330945536494">
        <ele>1176</ele>
        <time>2019-11-02T12:53:42Z</time>
      </trkpt>
      <trkpt lat="38.534954935312271" lon="-2.489436808973551">
        <ele>1176</ele>
        <time>2019-11-02T12:53:45Z</time>
      </trkpt>
      <trkpt lat="38.534940937533975" lon="-2.489485591650009">
        <ele>1176.199951171875</ele>
        <time>2019-11-02T12:53:46Z</time>
      </trkpt>
      <trkpt lat="38.534935992211103" lon="-2.489627161994576">
        <ele>1176.5999755859375</ele>
        <time>2019-11-02T12:53:49Z</time>
      </trkpt>
      <trkpt lat="38.534948984161019" lon="-2.489732773974538">
        <ele>1176.800048828125</ele>
        <time>2019-11-02T12:53:51Z</time>
      </trkpt>
      <trkpt lat="38.53498226031661" lon="-2.489992445334792">
        <ele>1177.199951171875</ele>
        <time>2019-11-02T12:53:56Z</time>
      </trkpt>
      <trkpt lat="38.534990139305592" lon="-2.490093531087041">
        <ele>1177.4000244140625</ele>
        <time>2019-11-02T12:53:58Z</time>
      </trkpt>
      <trkpt lat="38.53499592281878" lon="-2.490202328190207">
        <ele>1177.4000244140625</ele>
        <time>2019-11-02T12:54:00Z</time>
      </trkpt>
      <trkpt lat="38.534991312772036" lon="-2.490317327901721">
        <ele>1177.199951171875</ele>
        <time>2019-11-02T12:54:02Z</time>
      </trkpt>
      <trkpt lat="38.534977398812771" lon="-2.490522684529424">
        <ele>1176.800048828125</ele>
        <time>2019-11-02T12:54:05Z</time>
      </trkpt>
      <trkpt lat="38.534967508167028" lon="-2.490669703111053">
        <ele>1176.4000244140625</ele>
        <time>2019-11-02T12:54:07Z</time>
      </trkpt>
      <trkpt lat="38.53495049290359" lon="-2.490900876000524">
        <ele>1175.199951171875</ele>
        <time>2019-11-02T12:54:10Z</time>
      </trkpt>
      <trkpt lat="38.53495242074132" lon="-2.49105803668499">
        <ele>1174.5999755859375</ele>
        <time>2019-11-02T12:54:12Z</time>
      </trkpt>
      <trkpt lat="38.53495929390192" lon="-2.491132216528058">
        <ele>1174.5999755859375</ele>
        <time>2019-11-02T12:54:13Z</time>
      </trkpt>
      <trkpt lat="38.534993575885892" lon="-2.491444945335388">
        <ele>1175.199951171875</ele>
        <time>2019-11-02T12:54:18Z</time>
      </trkpt>
      <trkpt lat="38.535001873970032" lon="-2.491622976958752">
        <ele>1175.4000244140625</ele>
        <time>2019-11-02T12:54:21Z</time>
      </trkpt>
      <trkpt lat="38.534996844828129" lon="-2.491749040782452">
        <ele>1175.5999755859375</ele>
        <time>2019-11-02T12:54:23Z</time>
      </trkpt>
      <trkpt lat="38.534986115992069" lon="-2.491877032443881">
        <ele>1175.800048828125</ele>
        <time>2019-11-02T12:54:25Z</time>
      </trkpt>
      <trkpt lat="38.534918054938316" lon="-2.492322195321321">
        <ele>1175.4000244140625</ele>
        <time>2019-11-02T12:54:32Z</time>
      </trkpt>
      <trkpt lat="38.534876313060522" lon="-2.492713378742337">
        <ele>1175.5999755859375</ele>
        <time>2019-11-02T12:54:39Z</time>
      </trkpt>
      <trkpt lat="38.534841611981392" lon="-2.492994172498584">
        <ele>1176.199951171875</ele>
        <time>2019-11-02T12:54:44Z</time>
      </trkpt>
      <trkpt lat="38.534818477928638" lon="-2.493107244372368">
        <ele>1176.4000244140625</ele>
        <time>2019-11-02T12:54:46Z</time>
      </trkpt>
      <trkpt lat="38.534745220094919" lon="-2.493354175239801">
        <ele>1176.5999755859375</ele>
        <time>2019-11-02T12:54:51Z</time>
      </trkpt>
      <trkpt lat="38.534703813493252" lon="-2.49344939365983">
        <ele>1176.800048828125</ele>
        <time>2019-11-02T12:54:53Z</time>
      </trkpt>
      <trkpt lat="38.534681014716625" lon="-2.493497170507908">
        <ele>1176.800048828125</ele>
        <time>2019-11-02T12:54:54Z</time>
      </trkpt>
      <trkpt lat="38.534537935629487" lon="-2.493705460801721">
        <ele>1176.4000244140625</ele>
        <time>2019-11-02T12:54:59Z</time>
      </trkpt>
      <trkpt lat="38.534421343356371" lon="-2.493801098316908">
        <ele>1176</ele>
        <time>2019-11-02T12:55:02Z</time>
      </trkpt>
      <trkpt lat="38.534288993105292" lon="-2.493875613436103">
        <ele>1175.5999755859375</ele>
        <time>2019-11-02T12:55:05Z</time>
      </trkpt>
      <trkpt lat="38.534240294247866" lon="-2.493894388899207">
        <ele>1175.4000244140625</ele>
        <time>2019-11-02T12:55:06Z</time>
      </trkpt>
      <trkpt lat="38.53400451131165" lon="-2.493964713066816">
        <ele>1175.4000244140625</ele>
        <time>2019-11-02T12:55:11Z</time>
      </trkpt>
      <trkpt lat="38.533921530470252" lon="-2.493986003100872">
        <ele>1175.800048828125</ele>
        <time>2019-11-02T12:55:13Z</time>
      </trkpt>
      <trkpt lat="38.533732267096639" lon="-2.494007460772991">
        <ele>1175.800048828125</ele>
        <time>2019-11-02T12:55:17Z</time>
      </trkpt>
      <trkpt lat="38.533403277397156" lon="-2.494089351966977">
        <ele>1176</ele>
        <time>2019-11-02T12:55:24Z</time>
      </trkpt>
      <trkpt lat="38.533283667638898" lon="-2.494149031117558">
        <ele>1176.199951171875</ele>
        <time>2019-11-02T12:55:27Z</time>
      </trkpt>
      <trkpt lat="38.533187778666615" lon="-2.494163364171982">
        <ele>1176.199951171875</ele>
        <time>2019-11-02T12:55:29Z</time>
      </trkpt>
      <trkpt lat="38.532927269116044" lon="-2.494225390255451">
        <ele>1176</ele>
        <time>2019-11-02T12:55:34Z</time>
      </trkpt>
      <trkpt lat="38.532836493104696" lon="-2.494284650310874">
        <ele>1175.800048828125</ele>
        <time>2019-11-02T12:55:36Z</time>
      </trkpt>
      <trkpt lat="38.532727528363466" lon="-2.494411217048764">
        <ele>1176</ele>
        <time>2019-11-02T12:55:39Z</time>
      </trkpt>
      <trkpt lat="38.532627951353788" lon="-2.494522947818041">
        <ele>1176.4000244140625</ele>
        <time>2019-11-02T12:55:42Z</time>
      </trkpt>
      <trkpt lat="38.532593501731753" lon="-2.494544992223382">
        <ele>1176.800048828125</ele>
        <time>2019-11-02T12:55:43Z</time>
      </trkpt>
      <trkpt lat="38.532512867823243" lon="-2.494574580341578">
        <ele>1177.199951171875</ele>
        <time>2019-11-02T12:55:45Z</time>
      </trkpt>
      <trkpt lat="38.532469617202878" lon="-2.494586482644081">
        <ele>1177.199951171875</ele>
        <time>2019-11-02T12:55:46Z</time>
      </trkpt>
      <trkpt lat="38.532292675226927" lon="-2.494637193158269">
        <ele>1177.5999755859375</ele>
        <time>2019-11-02T12:55:50Z</time>
      </trkpt>
      <trkpt lat="38.532205419614911" lon="-2.494678432121873">
        <ele>1177.800048828125</ele>
        <time>2019-11-02T12:55:52Z</time>
      </trkpt>
      <trkpt lat="38.532166024670005" lon="-2.494708187878132">
        <ele>1177.800048828125</ele>
        <time>2019-11-02T12:55:53Z</time>
      </trkpt>
      <trkpt lat="38.532129060477018" lon="-2.494743308052421">
        <ele>1178.4000244140625</ele>
        <time>2019-11-02T12:55:54Z</time>
      </trkpt>
      <trkpt lat="38.532052868977189" lon="-2.494887644425035">
        <ele>1178.800048828125</ele>
        <time>2019-11-02T12:55:57Z</time>
      </trkpt>
      <trkpt lat="38.532038116827607" lon="-2.49505109153688">
        <ele>1179</ele>
        <time>2019-11-02T12:56:00Z</time>
      </trkpt>
      <trkpt lat="38.53204658254981" lon="-2.495152596384287">
        <ele>1179.4000244140625</ele>
        <time>2019-11-02T12:56:02Z</time>
      </trkpt>
      <trkpt lat="38.532112129032612" lon="-2.495271535590291">
        <ele>1179.800048828125</ele>
        <time>2019-11-02T12:56:05Z</time>
      </trkpt>
      <trkpt lat="38.532144986093044" lon="-2.495299782603979">
        <ele>1179.800048828125</ele>
        <time>2019-11-02T12:56:06Z</time>
      </trkpt>
      <trkpt lat="38.532313629984856" lon="-2.495334902778268">
        <ele>1179.800048828125</ele>
        <time>2019-11-02T12:56:10Z</time>
      </trkpt>
      <trkpt lat="38.532364927232265" lon="-2.495330041274428">
        <ele>1180</ele>
        <time>2019-11-02T12:56:11Z</time>
      </trkpt>
      <trkpt lat="38.532604649662971" lon="-2.495271032676101">
        <ele>1179.800048828125</ele>
        <time>2019-11-02T12:56:16Z</time>
      </trkpt>
      <trkpt lat="38.532695509493351" lon="-2.495232140645385">
        <ele>1179.4000244140625</ele>
        <time>2019-11-02T12:56:18Z</time>
      </trkpt>
      <trkpt lat="38.532798271626234" lon="-2.495193248614669">
        <ele>1179.4000244140625</ele>
        <time>2019-11-02T12:56:20Z</time>
      </trkpt>
      <trkpt lat="38.532851412892342" lon="-2.495171371847391">
        <ele>1179.4000244140625</ele>
        <time>2019-11-02T12:56:21Z</time>
      </trkpt>
      <trkpt lat="38.532966831699014" lon="-2.495128205046058">
        <ele>1179</ele>
        <time>2019-11-02T12:56:23Z</time>
      </trkpt>
      <trkpt lat="38.533067163079977" lon="-2.495065676048398">
        <ele>1178.800048828125</ele>
        <time>2019-11-02T12:56:25Z</time>
      </trkpt>
      <trkpt lat="38.533113682642579" lon="-2.495028795674443">
        <ele>1178.4000244140625</ele>
        <time>2019-11-02T12:56:26Z</time>
      </trkpt>
      <trkpt lat="38.533203285187483" lon="-2.494957381859422">
        <ele>1178.199951171875</ele>
        <time>2019-11-02T12:56:28Z</time>
      </trkpt>
      <trkpt lat="38.533327672630548" lon="-2.494914969429374">
        <ele>1178</ele>
        <time>2019-11-02T12:56:31Z</time>
      </trkpt>
      <trkpt lat="38.533429009839892" lon="-2.494923183694482">
        <ele>1178</ele>
        <time>2019-11-02T12:56:34Z</time>
      </trkpt>
      <trkpt lat="38.533531855791807" lon="-2.49492016620934">
        <ele>1178.199951171875</ele>
        <time>2019-11-02T12:56:37Z</time>
      </trkpt>
      <trkpt lat="38.533781971782446" lon="-2.4948859680444">
        <ele>1179.199951171875</ele>
        <time>2019-11-02T12:56:44Z</time>
      </trkpt>
      <trkpt lat="38.533897139132023" lon="-2.494894182309508">
        <ele>1179.800048828125</ele>
        <time>2019-11-02T12:56:47Z</time>
      </trkpt>
      <trkpt lat="38.534019598737359" lon="-2.494929973036051">
        <ele>1179.5999755859375</ele>
        <time>2019-11-02T12:56:50Z</time>
      </trkpt>
      <trkpt lat="38.53420970030129" lon="-2.494997614994645">
        <ele>1178.800048828125</ele>
        <time>2019-11-02T12:56:54Z</time>
      </trkpt>
      <trkpt lat="38.534301985055208" lon="-2.495037009939551">
        <ele>1178.4000244140625</ele>
        <time>2019-11-02T12:56:56Z</time>
      </trkpt>
      <trkpt lat="38.534473981708288" lon="-2.495125103741884">
        <ele>1177.800048828125</ele>
        <time>2019-11-02T12:57:00Z</time>
      </trkpt>
      <trkpt lat="38.534513292834163" lon="-2.495156452059746">
        <ele>1177.800048828125</ele>
        <time>2019-11-02T12:57:01Z</time>
      </trkpt>
      <trkpt lat="38.534549670293927" lon="-2.49519282951951">
        <ele>1177.5999755859375</ele>
        <time>2019-11-02T12:57:02Z</time>
      </trkpt>
      <trkpt lat="38.534649666398764" lon="-2.49538192525506">
        <ele>1178</ele>
        <time>2019-11-02T12:57:06Z</time>
      </trkpt>
      <trkpt lat="38.534667184576392" lon="-2.495496170595288">
        <ele>1177.800048828125</ele>
        <time>2019-11-02T12:57:08Z</time>
      </trkpt>
      <trkpt lat="38.534669280052185" lon="-2.495553251355886">
        <ele>1177.800048828125</ele>
        <time>2019-11-02T12:57:09Z</time>
      </trkpt>
      <trkpt lat="38.534657964482903" lon="-2.495663808658719">
        <ele>1177.800048828125</ele>
        <time>2019-11-02T12:57:11Z</time>
      </trkpt>
      <trkpt lat="38.534646313637495" lon="-2.495719967409968">
        <ele>1177.800048828125</ele>
        <time>2019-11-02T12:57:12Z</time>
      </trkpt>
      <trkpt lat="38.534609014168382" lon="-2.495956588536501">
        <ele>1177.4000244140625</ele>
        <time>2019-11-02T12:57:16Z</time>
      </trkpt>
      <trkpt lat="38.534607253968716" lon="-2.49601568095386">
        <ele>1177.199951171875</ele>
        <time>2019-11-02T12:57:17Z</time>
      </trkpt>
      <trkpt lat="38.534641033038497" lon="-2.496112743392587">
        <ele>1177</ele>
        <time>2019-11-02T12:57:19Z</time>
      </trkpt>
      <trkpt lat="38.534719822928309" lon="-2.496152305975556">
        <ele>1176.800048828125</ele>
        <time>2019-11-02T12:57:21Z</time>
      </trkpt>
      <trkpt lat="38.534763576462865" lon="-2.496155826374888">
        <ele>1176.800048828125</ele>
        <time>2019-11-02T12:57:22Z</time>
      </trkpt>
      <trkpt lat="38.534922916442156" lon="-2.496080556884408">
        <ele>1176.800048828125</ele>
        <time>2019-11-02T12:57:26Z</time>
      </trkpt>
      <trkpt lat="38.534976895898581" lon="-2.496004197746515">
        <ele>1177</ele>
        <time>2019-11-02T12:57:28Z</time>
      </trkpt>
      <trkpt lat="38.535051243379712" lon="-2.495895819738507">
        <ele>1177.199951171875</ele>
        <time>2019-11-02T12:57:31Z</time>
      </trkpt>
      <trkpt lat="38.535166075453162" lon="-2.49577084556222">
        <ele>1178</ele>
        <time>2019-11-02T12:57:35Z</time>
      </trkpt>
      <trkpt lat="38.535199519246817" lon="-2.495750896632671">
        <ele>1178</ele>
        <time>2019-11-02T12:57:36Z</time>
      </trkpt>
      <trkpt lat="38.535334803164005" lon="-2.495758440345526">
        <ele>1178.5999755859375</ele>
        <time>2019-11-02T12:57:40Z</time>
      </trkpt>
      <trkpt lat="38.535450976341963" lon="-2.495897831395268">
        <ele>1178.4000244140625</ele>
        <time>2019-11-02T12:57:45Z</time>
      </trkpt>
      <trkpt lat="38.535547787323594" lon="-2.496081311255693">
        <ele>1177</ele>
        <time>2019-11-02T12:57:49Z</time>
      </trkpt>
      <trkpt lat="38.535598749294877" lon="-2.496188012883067">
        <ele>1176.4000244140625</ele>
        <time>2019-11-02T12:57:51Z</time>
      </trkpt>
      <trkpt lat="38.535625319927931" lon="-2.496242159977555">
        <ele>1176.4000244140625</ele>
        <time>2019-11-02T12:57:52Z</time>
      </trkpt>
      <trkpt lat="38.535718694329262" lon="-2.496395045891404">
        <ele>1176</ele>
        <time>2019-11-02T12:57:55Z</time>
      </trkpt>
      <trkpt lat="38.535752892494202" lon="-2.496440475806594">
        <ele>1176</ele>
        <time>2019-11-02T12:57:56Z</time>
      </trkpt>
      <trkpt lat="38.535874513909221" lon="-2.496553547680378">
        <ele>1175.5999755859375</ele>
        <time>2019-11-02T12:57:59Z</time>
      </trkpt>
      <trkpt lat="38.535956237465143" lon="-2.496615322306752">
        <ele>1175.199951171875</ele>
        <time>2019-11-02T12:58:01Z</time>
      </trkpt>
      <trkpt lat="38.536016503348947" lon="-2.496666116639972">
        <ele>1175.199951171875</ele>
        <time>2019-11-02T12:58:04Z</time>
      </trkpt>
      <trkpt lat="38.53604894131422" lon="-2.496697129681706">
        <ele>1175</ele>
        <time>2019-11-02T12:58:06Z</time>
      </trkpt>
      <trkpt lat="38.536143321543932" lon="-2.496776757761836">
        <ele>1174.5999755859375</ele>
        <time>2019-11-02T12:58:10Z</time>
      </trkpt>
      <trkpt lat="38.53622823022306" lon="-2.496889578178525">
        <ele>1174</ele>
        <time>2019-11-02T12:58:15Z</time>
      </trkpt>
      <trkpt lat="38.536236863583326" lon="-2.496916148811579">
        <ele>1174</ele>
        <time>2019-11-02T12:58:16Z</time>
      </trkpt>
      <trkpt lat="38.5362434014678" lon="-2.497059144079685">
        <ele>1173.800048828125</ele>
        <time>2019-11-02T12:58:20Z</time>
      </trkpt>
      <trkpt lat="38.536208448931575" lon="-2.497287299484015">
        <ele>1173</ele>
        <time>2019-11-02T12:58:25Z</time>
      </trkpt>
      <trkpt lat="38.536202916875482" lon="-2.497335579246283">
        <ele>1173</ele>
        <time>2019-11-02T12:58:26Z</time>
      </trkpt>
      <trkpt lat="38.536198558285832" lon="-2.497487962245941">
        <ele>1172.5999755859375</ele>
        <time>2019-11-02T12:58:29Z</time>
      </trkpt>
      <trkpt lat="38.536236444488168" lon="-2.497562728822231">
        <ele>1172.5999755859375</ele>
        <time>2019-11-02T12:58:31Z</time>
      </trkpt>
      <trkpt lat="38.53634892962873" lon="-2.497554933652282">
        <ele>1172</ele>
        <time>2019-11-02T12:58:34Z</time>
      </trkpt>
      <trkpt lat="38.536439035087824" lon="-2.497466923668981">
        <ele>1171</ele>
        <time>2019-11-02T12:58:36Z</time>
      </trkpt>
      <trkpt lat="38.536525117233396" lon="-2.497385954484344">
        <ele>1169.4000244140625</ele>
        <time>2019-11-02T12:58:38Z</time>
      </trkpt>
      <trkpt lat="38.53667096234858" lon="-2.497374471276999">
        <ele>1168</ele>
        <time>2019-11-02T12:58:41Z</time>
      </trkpt>
      <trkpt lat="38.536776239052415" lon="-2.497443286702037">
        <ele>1167</ele>
        <time>2019-11-02T12:58:43Z</time>
      </trkpt>
      <trkpt lat="38.536814963445067" lon="-2.497488129884005">
        <ele>1166.199951171875</ele>
        <time>2019-11-02T12:58:44Z</time>
      </trkpt>
      <trkpt lat="38.536852095276117" lon="-2.497529368847609">
        <ele>1165.5999755859375</ele>
        <time>2019-11-02T12:58:45Z</time>
      </trkpt>
      <trkpt lat="38.536934740841389" lon="-2.49756557866931">
        <ele>1164.5999755859375</ele>
        <time>2019-11-02T12:58:47Z</time>
      </trkpt>
      <trkpt lat="38.536977907642722" lon="-2.497550407424569">
        <ele>1164.4000244140625</ele>
        <time>2019-11-02T12:58:48Z</time>
      </trkpt>
      <trkpt lat="38.537047309800982" lon="-2.497453261166811">
        <ele>1163.4000244140625</ele>
        <time>2019-11-02T12:58:50Z</time>
      </trkpt>
      <trkpt lat="38.537065666168928" lon="-2.497381931170821">
        <ele>1162.5999755859375</ele>
        <time>2019-11-02T12:58:51Z</time>
      </trkpt>
      <trkpt lat="38.537081927061081" lon="-2.497303979471326">
        <ele>1162</ele>
        <time>2019-11-02T12:58:52Z</time>
      </trkpt>
      <trkpt lat="38.53711218573153" lon="-2.497149333357811">
        <ele>1161</ele>
        <time>2019-11-02T12:58:54Z</time>
      </trkpt>
      <trkpt lat="38.537127105519176" lon="-2.497073393315077">
        <ele>1160</ele>
        <time>2019-11-02T12:58:55Z</time>
      </trkpt>
      <trkpt lat="38.537158789113164" lon="-2.496924698352814">
        <ele>1158.5999755859375</ele>
        <time>2019-11-02T12:58:57Z</time>
      </trkpt>
      <trkpt lat="38.537184856832027" lon="-2.496858229860663">
        <ele>1157.800048828125</ele>
        <time>2019-11-02T12:58:58Z</time>
      </trkpt>
      <trkpt lat="38.537222910672426" lon="-2.496794778853655">
        <ele>1157</ele>
        <time>2019-11-02T12:58:59Z</time>
      </trkpt>
      <trkpt lat="38.537314860150218" lon="-2.49669972807169">
        <ele>1155.199951171875</ele>
        <time>2019-11-02T12:59:01Z</time>
      </trkpt>
      <trkpt lat="38.537365905940533" lon="-2.496674666181207">
        <ele>1154.199951171875</ele>
        <time>2019-11-02T12:59:02Z</time>
      </trkpt>
      <trkpt lat="38.537420220673084" lon="-2.496659997850657">
        <ele>1153.5999755859375</ele>
        <time>2019-11-02T12:59:03Z</time>
      </trkpt>
      <trkpt lat="38.537561455741525" lon="-2.496648011729121">
        <ele>1151.800048828125</ele>
        <time>2019-11-02T12:59:05Z</time>
      </trkpt>
      <trkpt lat="38.537728255614638" lon="-2.496640384197235">
        <ele>1150</ele>
        <time>2019-11-02T12:59:07Z</time>
      </trkpt>
      <trkpt lat="38.537878794595599" lon="-2.496659243479371">
        <ele>1149.199951171875</ele>
        <time>2019-11-02T12:59:09Z</time>
      </trkpt>
      <trkpt lat="38.537947777658701" lon="-2.49667533673346">
        <ele>1148.800048828125</ele>
        <time>2019-11-02T12:59:10Z</time>
      </trkpt>
      <trkpt lat="38.538016341626644" lon="-2.496698051691055">
        <ele>1148.800048828125</ele>
        <time>2019-11-02T12:59:11Z</time>
      </trkpt>
      <trkpt lat="38.53814072906971" lon="-2.496773488819599">
        <ele>1148.800048828125</ele>
        <time>2019-11-02T12:59:13Z</time>
      </trkpt>
      <trkpt lat="38.538207784295082" lon="-2.496811794117093">
        <ele>1148.5999755859375</ele>
        <time>2019-11-02T12:59:14Z</time>
      </trkpt>
      <trkpt lat="38.538363855332136" lon="-2.496848003938794">
        <ele>1148.199951171875</ele>
        <time>2019-11-02T12:59:16Z</time>
      </trkpt>
      <trkpt lat="38.538531409576535" lon="-2.496820092201233">
        <ele>1147.4000244140625</ele>
        <time>2019-11-02T12:59:18Z</time>
      </trkpt>
      <trkpt lat="38.538618497550488" lon="-2.496804082766175">
        <ele>1147</ele>
        <time>2019-11-02T12:59:19Z</time>
      </trkpt>
      <trkpt lat="38.538796277716756" lon="-2.496798802167177">
        <ele>1146</ele>
        <time>2019-11-02T12:59:21Z</time>
      </trkpt>
      <trkpt lat="38.538980763405561" lon="-2.496840124949813">
        <ele>1145</ele>
        <time>2019-11-02T12:59:23Z</time>
      </trkpt>
      <trkpt lat="38.539151502773166" lon="-2.496928637847304">
        <ele>1143.5999755859375</ele>
        <time>2019-11-02T12:59:25Z</time>
      </trkpt>
      <trkpt lat="38.539235070347786" lon="-2.496980773285031">
        <ele>1142.800048828125</ele>
        <time>2019-11-02T12:59:26Z</time>
      </trkpt>
      <trkpt lat="38.539312016218901" lon="-2.497040284797549">
        <ele>1142.4000244140625</ele>
        <time>2019-11-02T12:59:27Z</time>
      </trkpt>
      <trkpt lat="38.539446713402867" lon="-2.497193589806557">
        <ele>1141.5999755859375</ele>
        <time>2019-11-02T12:59:29Z</time>
      </trkpt>
      <trkpt lat="38.539503794163465" lon="-2.497279085218906">
        <ele>1141.4000244140625</ele>
        <time>2019-11-02T12:59:30Z</time>
      </trkpt>
      <trkpt lat="38.539556516334414" lon="-2.49736868776381">
        <ele>1141</ele>
        <time>2019-11-02T12:59:31Z</time>
      </trkpt>
      <trkpt lat="38.539706971496344" lon="-2.497624922543764">
        <ele>1140.4000244140625</ele>
        <time>2019-11-02T12:59:34Z</time>
      </trkpt>
      <trkpt lat="38.539755837991834" lon="-2.497704550623894">
        <ele>1140.4000244140625</ele>
        <time>2019-11-02T12:59:35Z</time>
      </trkpt>
      <trkpt lat="38.5398093983531" lon="-2.497775880619884">
        <ele>1140.199951171875</ele>
        <time>2019-11-02T12:59:36Z</time>
      </trkpt>
      <trkpt lat="38.53992959484458" lon="-2.497900100424886">
        <ele>1139.800048828125</ele>
        <time>2019-11-02T12:59:38Z</time>
      </trkpt>
      <trkpt lat="38.540065297856927" lon="-2.497985512018204">
        <ele>1139.4000244140625</ele>
        <time>2019-11-02T12:59:40Z</time>
      </trkpt>
      <trkpt lat="38.540205527096987" lon="-2.498054327443242">
        <ele>1139</ele>
        <time>2019-11-02T12:59:42Z</time>
      </trkpt>
      <trkpt lat="38.54043385013938" lon="-2.498148372396827">
        <ele>1138</ele>
        <time>2019-11-02T12:59:45Z</time>
      </trkpt>
      <trkpt lat="38.540584221482277" lon="-2.498189359903336">
        <ele>1137.4000244140625</ele>
        <time>2019-11-02T12:59:47Z</time>
      </trkpt>
      <trkpt lat="38.54065865278244" lon="-2.498202603310347">
        <ele>1137.199951171875</ele>
        <time>2019-11-02T12:59:48Z</time>
      </trkpt>
      <trkpt lat="38.540733335539699" lon="-2.498216265812516">
        <ele>1136.800048828125</ele>
        <time>2019-11-02T12:59:49Z</time>
      </trkpt>
      <trkpt lat="38.54087364859879" lon="-2.498250715434551">
        <ele>1136.5999755859375</ele>
        <time>2019-11-02T12:59:51Z</time>
      </trkpt>
      <trkpt lat="38.541001137346029" lon="-2.498331014066935">
        <ele>1136.5999755859375</ele>
        <time>2019-11-02T12:59:53Z</time>
      </trkpt>
      <trkpt lat="38.541173972189426" lon="-2.498521870002151">
        <ele>1136.4000244140625</ele>
        <time>2019-11-02T12:59:56Z</time>
      </trkpt>
      <trkpt lat="38.541227281093597" lon="-2.498592026531696">
        <ele>1136.4000244140625</ele>
        <time>2019-11-02T12:59:57Z</time>
      </trkpt>
      <trkpt lat="38.541447389870882" lon="-2.498888410627842">
        <ele>1135.5999755859375</ele>
        <time>2019-11-02T13:00:01Z</time>
      </trkpt>
      <trkpt lat="38.541501453146338" lon="-2.498956639319658">
        <ele>1135.4000244140625</ele>
        <time>2019-11-02T13:00:02Z</time>
      </trkpt>
      <trkpt lat="38.54161636903882" lon="-2.499076751992106">
        <ele>1135.199951171875</ele>
        <time>2019-11-02T13:00:04Z</time>
      </trkpt>
      <trkpt lat="38.541748886927962" lon="-2.499160906299949">
        <ele>1135</ele>
        <time>2019-11-02T13:00:06Z</time>
      </trkpt>
      <trkpt lat="38.541942089796066" lon="-2.499222429469228">
        <ele>1135.199951171875</ele>
        <time>2019-11-02T13:00:09Z</time>
      </trkpt>
      <trkpt lat="38.542005708441138" lon="-2.499234415590763">
        <ele>1135.199951171875</ele>
        <time>2019-11-02T13:00:10Z</time>
      </trkpt>
      <trkpt lat="38.542507532984018" lon="-2.499347487464547">
        <ele>1135.199951171875</ele>
        <time>2019-11-02T13:00:18Z</time>
      </trkpt>
      <trkpt lat="38.542808275669813" lon="-2.499411609023809">
        <ele>1135.199951171875</ele>
        <time>2019-11-02T13:00:23Z</time>
      </trkpt>
      <trkpt lat="38.542926628142595" lon="-2.499411525204778">
        <ele>1135</ele>
        <time>2019-11-02T13:00:25Z</time>
      </trkpt>
      <trkpt lat="38.54298647493124" lon="-2.499406160786748">
        <ele>1134.800048828125</ele>
        <time>2019-11-02T13:00:26Z</time>
      </trkpt>
      <trkpt lat="38.54305000975728" lon="-2.499404065310955">
        <ele>1134.5999755859375</ele>
        <time>2019-11-02T13:00:27Z</time>
      </trkpt>
      <trkpt lat="38.543240195140243" lon="-2.499446561560035">
        <ele>1133.800048828125</ele>
        <time>2019-11-02T13:00:30Z</time>
      </trkpt>
      <trkpt lat="38.543365588411689" lon="-2.499514119699597">
        <ele>1133.5999755859375</ele>
        <time>2019-11-02T13:00:32Z</time>
      </trkpt>
      <trkpt lat="38.543491987511516" lon="-2.499573715031147">
        <ele>1133</ele>
        <time>2019-11-02T13:00:34Z</time>
      </trkpt>
      <trkpt lat="38.543555354699492" lon="-2.499594585970044">
        <ele>1133</ele>
        <time>2019-11-02T13:00:35Z</time>
      </trkpt>
      <trkpt lat="38.543745372444391" lon="-2.499615289270878">
        <ele>1132.800048828125</ele>
        <time>2019-11-02T13:00:38Z</time>
      </trkpt>
      <trkpt lat="38.544011162593961" lon="-2.499630460515618">
        <ele>1132.4000244140625</ele>
        <time>2019-11-02T13:00:42Z</time>
      </trkpt>
      <trkpt lat="38.544126665219665" lon="-2.499684104695916">
        <ele>1132</ele>
        <time>2019-11-02T13:00:44Z</time>
      </trkpt>
      <trkpt lat="38.544175447896123" lon="-2.499723667278886">
        <ele>1131.5999755859375</ele>
        <time>2019-11-02T13:00:45Z</time>
      </trkpt>
      <trkpt lat="38.544263374060392" lon="-2.499818466603756">
        <ele>1131.4000244140625</ele>
        <time>2019-11-02T13:00:47Z</time>
      </trkpt>
      <trkpt lat="38.54431115090847" lon="-2.499868422746658">
        <ele>1131.4000244140625</ele>
        <time>2019-11-02T13:00:48Z</time>
      </trkpt>
      <trkpt lat="38.544408464804292" lon="-2.499983171001077">
        <ele>1131</ele>
        <time>2019-11-02T13:00:50Z</time>
      </trkpt>
      <trkpt lat="38.544478705152869" lon="-2.500131446868181">
        <ele>1131</ele>
        <time>2019-11-02T13:00:52Z</time>
      </trkpt>
      <trkpt lat="38.544561266899109" lon="-2.500380808487535">
        <ele>1130.800048828125</ele>
        <time>2019-11-02T13:00:55Z</time>
      </trkpt>
      <trkpt lat="38.544601835310459" lon="-2.500454988330603">
        <ele>1130.5999755859375</ele>
        <time>2019-11-02T13:00:56Z</time>
      </trkpt>
      <trkpt lat="38.544806521385908" lon="-2.500696470960975">
        <ele>1129.800048828125</ele>
        <time>2019-11-02T13:01:00Z</time>
      </trkpt>
      <trkpt lat="38.544868966564536" lon="-2.500743744894862">
        <ele>1129.4000244140625</ele>
        <time>2019-11-02T13:01:01Z</time>
      </trkpt>
      <trkpt lat="38.544933423399925" lon="-2.5007866602391">
        <ele>1129.199951171875</ele>
        <time>2019-11-02T13:01:02Z</time>
      </trkpt>
      <trkpt lat="38.545184461399913" lon="-2.500916831195354">
        <ele>1129</ele>
        <time>2019-11-02T13:01:06Z</time>
      </trkpt>
      <trkpt lat="38.545309016481042" lon="-2.500959578901529">
        <ele>1128.5999755859375</ele>
        <time>2019-11-02T13:01:08Z</time>
      </trkpt>
      <trkpt lat="38.545481683686376" lon="-2.501052198931575">
        <ele>1128.4000244140625</ele>
        <time>2019-11-02T13:01:11Z</time>
      </trkpt>
      <trkpt lat="38.545532980933785" lon="-2.50109838321805">
        <ele>1128.4000244140625</ele>
        <time>2019-11-02T13:01:12Z</time>
      </trkpt>
      <trkpt lat="38.545671282336116" lon="-2.501353193074465">
        <ele>1128.4000244140625</ele>
        <time>2019-11-02T13:01:16Z</time>
      </trkpt>
      <trkpt lat="38.545801872387528" lon="-2.501752004027367">
        <ele>1128.5999755859375</ele>
        <time>2019-11-02T13:01:22Z</time>
      </trkpt>
      <trkpt lat="38.545917794108391" lon="-2.502044029533863">
        <ele>1129.4000244140625</ele>
        <time>2019-11-02T13:01:27Z</time>
      </trkpt>
      <trkpt lat="38.545942269265652" lon="-2.502081831917167">
        <ele>1129.5999755859375</ele>
        <time>2019-11-02T13:01:28Z</time>
      </trkpt>
      <trkpt lat="38.54610538110137" lon="-2.502268999814987">
        <ele>1129.800048828125</ele>
        <time>2019-11-02T13:01:34Z</time>
      </trkpt>
      <trkpt lat="38.546159947291017" lon="-2.502312250435352">
        <ele>1130</ele>
        <time>2019-11-02T13:01:36Z</time>
      </trkpt>
      <trkpt lat="38.546273857355118" lon="-2.502375701442361">
        <ele>1130</ele>
        <time>2019-11-02T13:01:40Z</time>
      </trkpt>
      <trkpt lat="38.546381313353777" lon="-2.502423813566566">
        <ele>1129</ele>
        <time>2019-11-02T13:01:43Z</time>
      </trkpt>
      <trkpt lat="38.546426491811872" lon="-2.502436470240355">
        <ele>1128.5999755859375</ele>
        <time>2019-11-02T13:01:44Z</time>
      </trkpt>
      <trkpt lat="38.546473095193505" lon="-2.502452731132507">
        <ele>1128.199951171875</ele>
        <time>2019-11-02T13:01:45Z</time>
      </trkpt>
      <trkpt lat="38.54662380181253" lon="-2.502493383362889">
        <ele>1127.4000244140625</ele>
        <time>2019-11-02T13:01:48Z</time>
      </trkpt>
      <trkpt lat="38.546760594472289" lon="-2.502554152160883">
        <ele>1126.800048828125</ele>
        <time>2019-11-02T13:01:51Z</time>
      </trkpt>
      <trkpt lat="38.546858327463269" lon="-2.502627745270729">
        <ele>1126.199951171875</ele>
        <time>2019-11-02T13:01:53Z</time>
      </trkpt>
      <trkpt lat="38.546933010220528" lon="-2.502749282866716">
        <ele>1125.5999755859375</ele>
        <time>2019-11-02T13:01:55Z</time>
      </trkpt>
      <trkpt lat="38.546963687986135" lon="-2.502816086634994">
        <ele>1125</ele>
        <time>2019-11-02T13:01:56Z</time>
      </trkpt>
      <trkpt lat="38.547025211155415" lon="-2.502943575382233">
        <ele>1123.5999755859375</ele>
        <time>2019-11-02T13:01:58Z</time>
      </trkpt>
      <trkpt lat="38.547079190611839" lon="-2.503046588972211">
        <ele>1122.5999755859375</ele>
        <time>2019-11-02T13:02:00Z</time>
      </trkpt>
      <trkpt lat="38.547110622748733" lon="-2.50308464281261">
        <ele>1122.199951171875</ele>
        <time>2019-11-02T13:02:01Z</time>
      </trkpt>
      <trkpt lat="38.54721506126225" lon="-2.503152620047331">
        <ele>1121.199951171875</ele>
        <time>2019-11-02T13:02:04Z</time>
      </trkpt>
      <trkpt lat="38.547253953292966" lon="-2.503170054405928">
        <ele>1120.800048828125</ele>
        <time>2019-11-02T13:02:05Z</time>
      </trkpt>
      <trkpt lat="38.547396026551723" lon="-2.503226129338145">
        <ele>1119.5999755859375</ele>
        <time>2019-11-02T13:02:09Z</time>
      </trkpt>
      <trkpt lat="38.547421591356397" lon="-2.503232918679714">
        <ele>1119.4000244140625</ele>
        <time>2019-11-02T13:02:10Z</time>
      </trkpt>
      <trkpt lat="38.547448497265577" lon="-2.503246162086725">
        <ele>1118.800048828125</ele>
        <time>2019-11-02T13:02:14Z</time>
      </trkpt>
      <trkpt lat="38.54746961966157" lon="-2.503254124894738">
        <ele>1119.4000244140625</ele>
        <time>2019-11-02T13:02:27Z</time>
      </trkpt>
      <trkpt lat="38.547556875273585" lon="-2.503309529274702">
        <ele>1119.199951171875</ele>
        <time>2019-11-02T13:02:32Z</time>
      </trkpt>
      <trkpt lat="38.54774228297174" lon="-2.503384128212929">
        <ele>1119.5999755859375</ele>
        <time>2019-11-02T13:02:38Z</time>
      </trkpt>
      <trkpt lat="38.547908244654536" lon="-2.503449507057667">
        <ele>1120.199951171875</ele>
        <time>2019-11-02T13:02:43Z</time>
      </trkpt>
      <trkpt lat="38.548037745058537" lon="-2.503469623625278">
        <ele>1121</ele>
        <time>2019-11-02T13:02:47Z</time>
      </trkpt>
      <trkpt lat="38.548113098368049" lon="-2.5034667737782">
        <ele>1121.199951171875</ele>
        <time>2019-11-02T13:02:49Z</time>
      </trkpt>
      <trkpt lat="38.548333710059524" lon="-2.503443472087383">
        <ele>1121.199951171875</ele>
        <time>2019-11-02T13:02:55Z</time>
      </trkpt>
      <trkpt lat="38.548544934019446" lon="-2.503525530919433">
        <ele>1121.4000244140625</ele>
        <time>2019-11-02T13:03:01Z</time>
      </trkpt>
      <trkpt lat="38.548717265948653" lon="-2.503623263910413">
        <ele>1121.4000244140625</ele>
        <time>2019-11-02T13:03:07Z</time>
      </trkpt>
      <trkpt lat="38.548815585672855" lon="-2.503696857020259">
        <ele>1120.800048828125</ele>
        <time>2019-11-02T13:03:12Z</time>
      </trkpt>
      <trkpt lat="38.548814496025443" lon="-2.503698030486703">
        <ele>1120.4000244140625</ele>
        <time>2019-11-02T13:03:17Z</time>
      </trkpt>
      <trkpt lat="38.548817010596395" lon="-2.50369886867702">
        <ele>1120.4000244140625</ele>
        <time>2019-11-02T13:03:33Z</time>
      </trkpt>
      <trkpt lat="38.548797983676195" lon="-2.503683529794216">
        <ele>1120.4000244140625</ele>
        <time>2019-11-02T13:03:39Z</time>
      </trkpt>
      <trkpt lat="38.548767725005746" lon="-2.503695851191878">
        <ele>1120.4000244140625</ele>
        <time>2019-11-02T13:03:44Z</time>
      </trkpt>
      <trkpt lat="38.548766886815429" lon="-2.503694761544466">
        <ele>1120.199951171875</ele>
        <time>2019-11-02T13:03:48Z</time>
      </trkpt>
      <trkpt lat="38.548765880987048" lon="-2.503693671897054">
        <ele>1120.4000244140625</ele>
        <time>2019-11-02T13:03:55Z</time>
      </trkpt>
      <trkpt lat="38.548764539882541" lon="-2.50369249843061">
        <ele>1120.5999755859375</ele>
        <time>2019-11-02T13:04:10Z</time>
      </trkpt>
      <trkpt lat="38.548762612044811" lon="-2.503690235316753">
        <ele>1120.4000244140625</ele>
        <time>2019-11-02T13:04:25Z</time>
      </trkpt>
      <trkpt lat="38.548759343102574" lon="-2.503689983859658">
        <ele>1120.199951171875</ele>
        <time>2019-11-02T13:04:51Z</time>
      </trkpt>
      <trkpt lat="38.548741405829787" lon="-2.503691911697388">
        <ele>1120.5999755859375</ele>
        <time>2019-11-02T13:05:25Z</time>
      </trkpt>
      <trkpt lat="38.548742746934295" lon="-2.503692666068673">
        <ele>1120</ele>
        <time>2019-11-02T13:05:59Z</time>
      </trkpt>
      <trkpt lat="38.548742746934295" lon="-2.503694007173181">
        <ele>1120</ele>
        <time>2019-11-02T13:06:30Z</time>
      </trkpt>
      <trkpt lat="38.548742663115263" lon="-2.503695180639625">
        <ele>1119.800048828125</ele>
        <time>2019-11-02T13:07:01Z</time>
      </trkpt>
      <trkpt lat="38.548742579296231" lon="-2.503694845363498">
        <ele>1120.199951171875</ele>
        <time>2019-11-02T13:07:13Z</time>
      </trkpt>
      <trkpt lat="38.548742746934295" lon="-2.50369543209672">
        <ele>1121</ele>
        <time>2019-11-02T13:07:45Z</time>
      </trkpt>
      <trkpt lat="38.548742663115263" lon="-2.503697946667671">
        <ele>1120.199951171875</ele>
        <time>2019-11-02T13:08:53Z</time>
      </trkpt>
      <trkpt lat="38.5487424954772" lon="-2.503697862848639">
        <ele>1119.800048828125</ele>
        <time>2019-11-02T13:08:58Z</time>
      </trkpt>
      <trkpt lat="38.548742746934295" lon="-2.503698281943798">
        <ele>1120.800048828125</ele>
        <time>2019-11-02T13:10:49Z</time>
      </trkpt>
      <trkpt lat="38.548742663115263" lon="-2.503698281943798">
        <ele>1120.800048828125</ele>
        <time>2019-11-02T13:10:54Z</time>
      </trkpt>
      <trkpt lat="38.548742830753326" lon="-2.503698114305735">
        <ele>1120.199951171875</ele>
        <time>2019-11-02T13:11:46Z</time>
      </trkpt>
      <trkpt lat="38.5487424954772" lon="-2.503700880333781">
        <ele>1121.199951171875</ele>
        <time>2019-11-02T13:12:21Z</time>
      </trkpt>
      <trkpt lat="38.548744590952992" lon="-2.503709094598889">
        <ele>1121.5999755859375</ele>
        <time>2019-11-02T13:12:39Z</time>
      </trkpt>
      <trkpt lat="38.548748698085546" lon="-2.503712866455317">
        <ele>1121.800048828125</ele>
        <time>2019-11-02T13:12:51Z</time>
      </trkpt>
      <trkpt lat="38.548749703913927" lon="-2.503712782636285">
        <ele>1120.800048828125</ele>
        <time>2019-11-02T13:13:43Z</time>
      </trkpt>
      <trkpt lat="38.548749620094895" lon="-2.503712782636285">
        <ele>1120.5999755859375</ele>
        <time>2019-11-02T13:13:47Z</time>
      </trkpt>
      <trkpt lat="38.548752972856164" lon="-2.503714961931109">
        <ele>1120</ele>
        <time>2019-11-02T13:13:59Z</time>
      </trkpt>
      <trkpt lat="38.548763198778033" lon="-2.503732312470675">
        <ele>1120</ele>
        <time>2019-11-02T13:14:00Z</time>
      </trkpt>
      <trkpt lat="38.548739058896899" lon="-2.503857957199216">
        <ele>1120</ele>
        <time>2019-11-02T13:14:04Z</time>
      </trkpt>
      <trkpt lat="38.548641745001078" lon="-2.503967424854636">
        <ele>1120.199951171875</ele>
        <time>2019-11-02T13:14:07Z</time>
      </trkpt>
      <trkpt lat="38.548603691160679" lon="-2.504003969952464">
        <ele>1120.4000244140625</ele>
        <time>2019-11-02T13:14:08Z</time>
      </trkpt>
      <trkpt lat="38.548319209367037" lon="-2.504220474511385">
        <ele>1121.5999755859375</ele>
        <time>2019-11-02T13:14:15Z</time>
      </trkpt>
      <trkpt lat="38.547982592135668" lon="-2.504405379295349">
        <ele>1122.4000244140625</ele>
        <time>2019-11-02T13:14:22Z</time>
      </trkpt>
      <trkpt lat="38.547884104773402" lon="-2.504459777846932">
        <ele>1122.5999755859375</ele>
        <time>2019-11-02T13:14:24Z</time>
      </trkpt>
      <trkpt lat="38.547634910792112" lon="-2.504581566900015">
        <ele>1123</ele>
        <time>2019-11-02T13:14:29Z</time>
      </trkpt>
      <trkpt lat="38.547583865001798" lon="-2.504606796428561">
        <ele>1123</ele>
        <time>2019-11-02T13:14:30Z</time>
      </trkpt>
      <trkpt lat="38.547283038496971" lon="-2.504760352894664">
        <ele>1123.5999755859375</ele>
        <time>2019-11-02T13:14:36Z</time>
      </trkpt>
      <trkpt lat="38.547137193381786" lon="-2.504840651527047">
        <ele>1123.800048828125</ele>
        <time>2019-11-02T13:14:39Z</time>
      </trkpt>
      <trkpt lat="38.547093523666263" lon="-2.504873760044575">
        <ele>1124</ele>
        <time>2019-11-02T13:14:40Z</time>
      </trkpt>
      <trkpt lat="38.54698053561151" lon="-2.505010636523366">
        <ele>1124.800048828125</ele>
        <time>2019-11-02T13:14:43Z</time>
      </trkpt>
      <trkpt lat="38.546949941664934" lon="-2.505067801102996">
        <ele>1125</ele>
        <time>2019-11-02T13:14:44Z</time>
      </trkpt>
      <trkpt lat="38.546757576987147" lon="-2.505398048087955">
        <ele>1126</ele>
        <time>2019-11-02T13:14:50Z</time>
      </trkpt>
      <trkpt lat="38.546718433499336" lon="-2.505445154383779">
        <ele>1126</ele>
        <time>2019-11-02T13:14:51Z</time>
      </trkpt>
      <trkpt lat="38.54649874381721" lon="-2.505698204040527">
        <ele>1126</ele>
        <time>2019-11-02T13:14:57Z</time>
      </trkpt>
      <trkpt lat="38.546466892585158" lon="-2.505745142698288">
        <ele>1126</ele>
        <time>2019-11-02T13:14:58Z</time>
      </trkpt>
      <trkpt lat="38.546225493773818" lon="-2.506042197346687">
        <ele>1126.5999755859375</ele>
        <time>2019-11-02T13:15:05Z</time>
      </trkpt>
      <trkpt lat="38.546107057482004" lon="-2.506145965307951">
        <ele>1127.199951171875</ele>
        <time>2019-11-02T13:15:08Z</time>
      </trkpt>
      <trkpt lat="38.545913100242615" lon="-2.506304383277893">
        <ele>1128</ele>
        <time>2019-11-02T13:15:13Z</time>
      </trkpt>
      <trkpt lat="38.545850655063987" lon="-2.50636288896203">
        <ele>1128.4000244140625</ele>
        <time>2019-11-02T13:15:15Z</time>
      </trkpt>
      <trkpt lat="38.545785443857312" lon="-2.506425585597754">
        <ele>1128.5999755859375</ele>
        <time>2019-11-02T13:15:18Z</time>
      </trkpt>
      <trkpt lat="38.545655189082026" lon="-2.506566988304257">
        <ele>1128.5999755859375</ele>
        <time>2019-11-02T13:15:24Z</time>
      </trkpt>
      <trkpt lat="38.545489562675357" lon="-2.506779385730624">
        <ele>1128.800048828125</ele>
        <time>2019-11-02T13:15:32Z</time>
      </trkpt>
      <trkpt lat="38.545340532436967" lon="-2.5070327706635">
        <ele>1129</ele>
        <time>2019-11-02T13:15:40Z</time>
      </trkpt>
      <trkpt lat="38.545255539938807" lon="-2.50721113756299">
        <ele>1129.4000244140625</ele>
        <time>2019-11-02T13:15:45Z</time>
      </trkpt>
      <trkpt lat="38.545183455571532" lon="-2.507349187508225">
        <ele>1129.5999755859375</ele>
        <time>2019-11-02T13:15:49Z</time>
      </trkpt>
      <trkpt lat="38.54499083943665" lon="-2.507736934348941">
        <ele>1130.4000244140625</ele>
        <time>2019-11-02T13:16:00Z</time>
      </trkpt>
      <trkpt lat="38.544852957129478" lon="-2.508047232404351">
        <ele>1130.5999755859375</ele>
        <time>2019-11-02T13:16:09Z</time>
      </trkpt>
      <trkpt lat="38.544798223301768" lon="-2.508342862129211">
        <ele>1131.199951171875</ele>
        <time>2019-11-02T13:16:17Z</time>
      </trkpt>
      <trkpt lat="38.544777939096093" lon="-2.508417628705502">
        <ele>1131.4000244140625</ele>
        <time>2019-11-02T13:16:19Z</time>
      </trkpt>
      <trkpt lat="38.544722031801939" lon="-2.508597001433372">
        <ele>1132</ele>
        <time>2019-11-02T13:16:24Z</time>
      </trkpt>
      <trkpt lat="38.544617677107453" lon="-2.508854912593961">
        <ele>1132.4000244140625</ele>
        <time>2019-11-02T13:16:31Z</time>
      </trkpt>
      <trkpt lat="38.544578114524484" lon="-2.508931858465075">
        <ele>1132.5999755859375</ele>
        <time>2019-11-02T13:16:33Z</time>
      </trkpt>
      <trkpt lat="38.544555818662047" lon="-2.508967649191618">
        <ele>1132.800048828125</ele>
        <time>2019-11-02T13:16:34Z</time>
      </trkpt>
      <trkpt lat="38.544403184205294" lon="-2.509175520390272">
        <ele>1133</ele>
        <time>2019-11-02T13:16:40Z</time>
      </trkpt>
      <trkpt lat="38.544211490079761" lon="-2.509301165118814">
        <ele>1133.199951171875</ele>
        <time>2019-11-02T13:16:46Z</time>
      </trkpt>
      <trkpt lat="38.543926337733865" lon="-2.509405519813299">
        <ele>1133.5999755859375</ele>
        <time>2019-11-02T13:16:53Z</time>
      </trkpt>
      <trkpt lat="38.54388409294188" lon="-2.509419685229659">
        <ele>1133.800048828125</ele>
        <time>2019-11-02T13:16:54Z</time>
      </trkpt>
      <trkpt lat="38.543800944462419" lon="-2.509454721584916">
        <ele>1134.199951171875</ele>
        <time>2019-11-02T13:16:56Z</time>
      </trkpt>
      <trkpt lat="38.543674293905497" lon="-2.509501995518804">
        <ele>1134.5999755859375</ele>
        <time>2019-11-02T13:16:59Z</time>
      </trkpt>
      <trkpt lat="38.54359189979732" lon="-2.509529991075397">
        <ele>1134.5999755859375</ele>
        <time>2019-11-02T13:17:01Z</time>
      </trkpt>
      <trkpt lat="38.543382519856095" lon="-2.509592855349183">
        <ele>1134.5999755859375</ele>
        <time>2019-11-02T13:17:06Z</time>
      </trkpt>
      <trkpt lat="38.542947247624397" lon="-2.509737946093082">
        <ele>1134.4000244140625</ele>
        <time>2019-11-02T13:17:17Z</time>
      </trkpt>
      <trkpt lat="38.542626723647118" lon="-2.509845653548837">
        <ele>1134.800048828125</ele>
        <time>2019-11-02T13:17:25Z</time>
      </trkpt>
      <trkpt lat="38.542585903778672" lon="-2.509860154241323">
        <ele>1135</ele>
        <time>2019-11-02T13:17:26Z</time>
      </trkpt>
      <trkpt lat="38.542206371203065" lon="-2.509998371824622">
        <ele>1135.5999755859375</ele>
        <time>2019-11-02T13:17:35Z</time>
      </trkpt>
      <trkpt lat="38.541887020692229" lon="-2.510030306875706">
        <ele>1135.4000244140625</ele>
        <time>2019-11-02T13:17:41Z</time>
      </trkpt>
      <trkpt lat="38.54151570238173" lon="-2.509977668523788">
        <ele>1134.5999755859375</ele>
        <time>2019-11-02T13:17:48Z</time>
      </trkpt>
      <trkpt lat="38.541425345465541" lon="-2.509955707937479">
        <ele>1134.800048828125</ele>
        <time>2019-11-02T13:17:50Z</time>
      </trkpt>
      <trkpt lat="38.541244799271226" lon="-2.509926036000252">
        <ele>1135</ele>
        <time>2019-11-02T13:17:54Z</time>
      </trkpt>
      <trkpt lat="38.541013039648533" lon="-2.509967191144824">
        <ele>1135.4000244140625</ele>
        <time>2019-11-02T13:17:59Z</time>
      </trkpt>
      <trkpt lat="38.540916312485933" lon="-2.510010693222284">
        <ele>1135.5999755859375</ele>
        <time>2019-11-02T13:18:01Z</time>
      </trkpt>
      <trkpt lat="38.540788404643536" lon="-2.510088058188558">
        <ele>1135.800048828125</ele>
        <time>2019-11-02T13:18:04Z</time>
      </trkpt>
      <trkpt lat="38.540711794048548" lon="-2.510137679055333">
        <ele>1136.199951171875</ele>
        <time>2019-11-02T13:18:06Z</time>
      </trkpt>
      <trkpt lat="38.540552034974098" lon="-2.510234406217933">
        <ele>1136.800048828125</ele>
        <time>2019-11-02T13:18:11Z</time>
      </trkpt>
      <trkpt lat="38.54042848572135" lon="-2.510326355695724">
        <ele>1137.199951171875</ele>
        <time>2019-11-02T13:18:15Z</time>
      </trkpt>
      <trkpt lat="38.540329495444894" lon="-2.510398607701063">
        <ele>1137.5999755859375</ele>
        <time>2019-11-02T13:18:18Z</time>
      </trkpt>
      <trkpt lat="38.540160600095987" lon="-2.510518049821258">
        <ele>1138.199951171875</ele>
        <time>2019-11-02T13:18:23Z</time>
      </trkpt>
      <trkpt lat="38.540096478536725" lon="-2.510571274906397">
        <ele>1138.5999755859375</ele>
        <time>2019-11-02T13:18:25Z</time>
      </trkpt>
      <trkpt lat="38.539877962321043" lon="-2.510721981525421">
        <ele>1139.4000244140625</ele>
        <time>2019-11-02T13:18:31Z</time>
      </trkpt>
      <trkpt lat="38.539806129410863" lon="-2.510777302086353">
        <ele>1139.5999755859375</ele>
        <time>2019-11-02T13:18:33Z</time>
      </trkpt>
      <trkpt lat="38.539631115272641" lon="-2.510910993441939">
        <ele>1140.5999755859375</ele>
        <time>2019-11-02T13:18:38Z</time>
      </trkpt>
      <trkpt lat="38.539564730599523" lon="-2.510962458327413">
        <ele>1140.800048828125</ele>
        <time>2019-11-02T13:18:40Z</time>
      </trkpt>
      <trkpt lat="38.539396086707711" lon="-2.511132778599858">
        <ele>1141.5999755859375</ele>
        <time>2019-11-02T13:18:46Z</time>
      </trkpt>
      <trkpt lat="38.539266334846616" lon="-2.511302260681987">
        <ele>1142.800048828125</ele>
        <time>2019-11-02T13:18:52Z</time>
      </trkpt>
      <trkpt lat="38.539233226329088" lon="-2.511367723345757">
        <ele>1143.199951171875</ele>
        <time>2019-11-02T13:18:54Z</time>
      </trkpt>
      <trkpt lat="38.539154855534434" lon="-2.511535864323378">
        <ele>1143.800048828125</ele>
        <time>2019-11-02T13:18:59Z</time>
      </trkpt>
      <trkpt lat="38.539097607135773" lon="-2.511676345020533">
        <ele>1144.5999755859375</ele>
        <time>2019-11-02T13:19:03Z</time>
      </trkpt>
      <trkpt lat="38.539071623235941" lon="-2.511741053313017">
        <ele>1145</ele>
        <time>2019-11-02T13:19:05Z</time>
      </trkpt>
      <trkpt lat="38.539007753133774" lon="-2.511873906478286">
        <ele>1145.4000244140625</ele>
        <time>2019-11-02T13:19:09Z</time>
      </trkpt>
      <trkpt lat="38.538943380117416" lon="-2.511981781572104">
        <ele>1146</ele>
        <time>2019-11-02T13:19:12Z</time>
      </trkpt>
      <trkpt lat="38.538860566914082" lon="-2.51207104884088">
        <ele>1146.5999755859375</ele>
        <time>2019-11-02T13:19:15Z</time>
      </trkpt>
      <trkpt lat="38.538720086216927" lon="-2.512161741033196">
        <ele>1147</ele>
        <time>2019-11-02T13:19:19Z</time>
      </trkpt>
      <trkpt lat="38.538647415116429" lon="-2.512189485132694">
        <ele>1147.199951171875</ele>
        <time>2019-11-02T13:19:21Z</time>
      </trkpt>
      <trkpt lat="38.538467204198241" lon="-2.512243967503309">
        <ele>1147.800048828125</ele>
        <time>2019-11-02T13:19:26Z</time>
      </trkpt>
      <trkpt lat="38.538361759856343" lon="-2.512276405468583">
        <ele>1148.199951171875</ele>
        <time>2019-11-02T13:19:29Z</time>
      </trkpt>
      <trkpt lat="38.538179118186235" lon="-2.512333150953054">
        <ele>1148.5999755859375</ele>
        <time>2019-11-02T13:19:34Z</time>
      </trkpt>
      <trkpt lat="38.537918440997601" lon="-2.512369863688946">
        <ele>1148.800048828125</ele>
        <time>2019-11-02T13:19:41Z</time>
      </trkpt>
      <trkpt lat="38.537692800164223" lon="-2.512396182864904">
        <ele>1149.4000244140625</ele>
        <time>2019-11-02T13:19:48Z</time>
      </trkpt>
      <trkpt lat="38.53765994310379" lon="-2.512395093217492">
        <ele>1149.4000244140625</ele>
        <time>2019-11-02T13:19:49Z</time>
      </trkpt>
      <trkpt lat="38.537443690001965" lon="-2.512359386309981">
        <ele>1150.4000244140625</ele>
        <time>2019-11-02T13:19:56Z</time>
      </trkpt>
      <trkpt lat="38.537412509322166" lon="-2.512350166216493">
        <ele>1150.5999755859375</ele>
        <time>2019-11-02T13:19:57Z</time>
      </trkpt>
      <trkpt lat="38.537261886522174" lon="-2.51230021007359">
        <ele>1151.4000244140625</ele>
        <time>2019-11-02T13:20:03Z</time>
      </trkpt>
      <trkpt lat="38.537239087745547" lon="-2.512291073799133">
        <ele>1151.5999755859375</ele>
        <time>2019-11-02T13:20:04Z</time>
      </trkpt>
      <trkpt lat="38.537133643403649" lon="-2.512235501781106">
        <ele>1152.5999755859375</ele>
        <time>2019-11-02T13:20:09Z</time>
      </trkpt>
      <trkpt lat="38.53704378940165" lon="-2.512166351079941">
        <ele>1153.5999755859375</ele>
        <time>2019-11-02T13:20:14Z</time>
      </trkpt>
      <trkpt lat="38.537014117464423" lon="-2.512135840952396">
        <ele>1154</ele>
        <time>2019-11-02T13:20:16Z</time>
      </trkpt>
      <trkpt lat="38.536915294826031" lon="-2.512089572846889">
        <ele>1155</ele>
        <time>2019-11-02T13:20:21Z</time>
      </trkpt>
      <trkpt lat="38.536863494664431" lon="-2.512081945315003">
        <ele>1155.199951171875</ele>
        <time>2019-11-02T13:20:23Z</time>
      </trkpt>
      <trkpt lat="38.536702813580632" lon="-2.512098290026188">
        <ele>1156.199951171875</ele>
        <time>2019-11-02T13:20:29Z</time>
      </trkpt>
      <trkpt lat="38.536679092794657" lon="-2.512105749920011">
        <ele>1156.4000244140625</ele>
        <time>2019-11-02T13:20:30Z</time>
      </trkpt>
      <trkpt lat="38.536504078656435" lon="-2.512141708284616">
        <ele>1157.199951171875</ele>
        <time>2019-11-02T13:20:37Z</time>
      </trkpt>
      <trkpt lat="38.536425288766623" lon="-2.512157298624516">
        <ele>1157.5999755859375</ele>
        <time>2019-11-02T13:20:40Z</time>
      </trkpt>
      <trkpt lat="38.536141896620393" lon="-2.51221127808094">
        <ele>1158.199951171875</ele>
        <time>2019-11-02T13:20:50Z</time>
      </trkpt>
      <trkpt lat="38.536115493625402" lon="-2.512216223403811">
        <ele>1158.199951171875</ele>
        <time>2019-11-02T13:20:51Z</time>
      </trkpt>
      <trkpt lat="38.535879459232092" lon="-2.512276992201805">
        <ele>1159</ele>
        <time>2019-11-02T13:20:59Z</time>
      </trkpt>
      <trkpt lat="38.535815672948956" lon="-2.512291660532355">
        <ele>1159.199951171875</ele>
        <time>2019-11-02T13:21:01Z</time>
      </trkpt>
      <trkpt lat="38.535621548071504" lon="-2.512318817898631">
        <ele>1160.199951171875</ele>
        <time>2019-11-02T13:21:07Z</time>
      </trkpt>
      <trkpt lat="38.535548625513911" lon="-2.512319069355726">
        <ele>1160.4000244140625</ele>
        <time>2019-11-02T13:21:09Z</time>
      </trkpt>
      <trkpt lat="38.535361122339964" lon="-2.512290235608816">
        <ele>1160.5999755859375</ele>
        <time>2019-11-02T13:21:14Z</time>
      </trkpt>
      <trkpt lat="38.53532038629055" lon="-2.512271124869585">
        <ele>1160.800048828125</ele>
        <time>2019-11-02T13:21:15Z</time>
      </trkpt>
      <trkpt lat="38.535070437937975" lon="-2.512112455442548">
        <ele>1160.5999755859375</ele>
        <time>2019-11-02T13:21:22Z</time>
      </trkpt>
      <trkpt lat="38.534920904785395" lon="-2.512024277821183">
        <ele>1160.800048828125</ele>
        <time>2019-11-02T13:21:26Z</time>
      </trkpt>
      <trkpt lat="38.534798780456185" lon="-2.511997958645225">
        <ele>1160.800048828125</ele>
        <time>2019-11-02T13:21:29Z</time>
      </trkpt>
      <trkpt lat="38.53464363142848" lon="-2.512073647230864">
        <ele>1161.199951171875</ele>
        <time>2019-11-02T13:21:33Z</time>
      </trkpt>
      <trkpt lat="38.534607924520969" lon="-2.512100636959076">
        <ele>1161.199951171875</ele>
        <time>2019-11-02T13:21:34Z</time>
      </trkpt>
      <trkpt lat="38.534573139622808" lon="-2.512127291411161">
        <ele>1161.4000244140625</ele>
        <time>2019-11-02T13:21:35Z</time>
      </trkpt>
      <trkpt lat="38.534377589821815" lon="-2.5122738070786">
        <ele>1162</ele>
        <time>2019-11-02T13:21:41Z</time>
      </trkpt>
      <trkpt lat="38.534319587051868" lon="-2.512320745736361">
        <ele>1162.4000244140625</ele>
        <time>2019-11-02T13:21:43Z</time>
      </trkpt>
      <trkpt lat="38.534217998385429" lon="-2.512397104874253">
        <ele>1163.199951171875</ele>
        <time>2019-11-02T13:21:47Z</time>
      </trkpt>
      <trkpt lat="38.534173490479589" lon="-2.512433230876923">
        <ele>1163.5999755859375</ele>
        <time>2019-11-02T13:21:49Z</time>
      </trkpt>
      <trkpt lat="38.534066872671247" lon="-2.512532221153378">
        <ele>1164.5999755859375</ele>
        <time>2019-11-02T13:21:54Z</time>
      </trkpt>
      <trkpt lat="38.534047175198793" lon="-2.512554349377751">
        <ele>1164.800048828125</ele>
        <time>2019-11-02T13:21:55Z</time>
      </trkpt>
      <trkpt lat="38.533953130245209" lon="-2.512647639960051">
        <ele>1165.800048828125</ele>
        <time>2019-11-02T13:22:00Z</time>
      </trkpt>
      <trkpt lat="38.533936534076929" lon="-2.512670354917645">
        <ele>1165.800048828125</ele>
        <time>2019-11-02T13:22:01Z</time>
      </trkpt>
      <trkpt lat="38.533826060593128" lon="-2.512785606086254">
        <ele>1166.4000244140625</ele>
        <time>2019-11-02T13:22:07Z</time>
      </trkpt>
      <trkpt lat="38.533747857436538" lon="-2.51281569711864">
        <ele>1166.800048828125</ele>
        <time>2019-11-02T13:22:10Z</time>
      </trkpt>
      <trkpt lat="38.533654483035207" lon="-2.512814356014132">
        <ele>1167.4000244140625</ele>
        <time>2019-11-02T13:22:13Z</time>
      </trkpt>
      <trkpt lat="38.533525317907333" lon="-2.512780157849193">
        <ele>1168</ele>
        <time>2019-11-02T13:22:17Z</time>
      </trkpt>
      <trkpt lat="38.533469159156084" lon="-2.512750402092934">
        <ele>1168.4000244140625</ele>
        <time>2019-11-02T13:22:19Z</time>
      </trkpt>
      <trkpt lat="38.533386681228876" lon="-2.512709749862552">
        <ele>1169</ele>
        <time>2019-11-02T13:22:22Z</time>
      </trkpt>
      <trkpt lat="38.5333042871207" lon="-2.512686615809798">
        <ele>1169.5999755859375</ele>
        <time>2019-11-02T13:22:25Z</time>
      </trkpt>
      <trkpt lat="38.533188197761774" lon="-2.512666247785091">
        <ele>1170.199951171875</ele>
        <time>2019-11-02T13:22:29Z</time>
      </trkpt>
      <trkpt lat="38.533106977120042" lon="-2.512662224471569">
        <ele>1170.5999755859375</ele>
        <time>2019-11-02T13:22:32Z</time>
      </trkpt>
      <trkpt lat="38.532925089821219" lon="-2.512699104845524">
        <ele>1171.199951171875</ele>
        <time>2019-11-02T13:22:38Z</time>
      </trkpt>
      <trkpt lat="38.532894160598516" lon="-2.512709246948361">
        <ele>1171.4000244140625</ele>
        <time>2019-11-02T13:22:39Z</time>
      </trkpt>
      <trkpt lat="38.532709926366806" lon="-2.512781918048859">
        <ele>1172.199951171875</ele>
        <time>2019-11-02T13:22:45Z</time>
      </trkpt>
      <trkpt lat="38.532569780945778" lon="-2.512852242216468">
        <ele>1172.800048828125</ele>
        <time>2019-11-02T13:22:50Z</time>
      </trkpt>
      <trkpt lat="38.532465258613229" lon="-2.512908736243844">
        <ele>1173.5999755859375</ele>
        <time>2019-11-02T13:22:54Z</time>
      </trkpt>
      <trkpt lat="38.532320000231266" lon="-2.51302138902247">
        <ele>1174.199951171875</ele>
        <time>2019-11-02T13:23:00Z</time>
      </trkpt>
      <trkpt lat="38.53226643987" lon="-2.513061789795756">
        <ele>1174.5999755859375</ele>
        <time>2019-11-02T13:23:02Z</time>
      </trkpt>
      <trkpt lat="38.532110033556819" lon="-2.51319196075201">
        <ele>1175.199951171875</ele>
        <time>2019-11-02T13:23:08Z</time>
      </trkpt>
      <trkpt lat="38.531991932541132" lon="-2.513245772570372">
        <ele>1175.5999755859375</ele>
        <time>2019-11-02T13:23:12Z</time>
      </trkpt>
      <trkpt lat="38.531897887587547" lon="-2.513261698186398">
        <ele>1176</ele>
        <time>2019-11-02T13:23:15Z</time>
      </trkpt>
      <trkpt lat="38.531750114634633" lon="-2.513247029855847">
        <ele>1176.800048828125</ele>
        <time>2019-11-02T13:23:20Z</time>
      </trkpt>
      <trkpt lat="38.531694877892733" lon="-2.513236049562693">
        <ele>1177</ele>
        <time>2019-11-02T13:23:22Z</time>
      </trkpt>
      <trkpt lat="38.531535537913442" lon="-2.513170670717955">
        <ele>1177.5999755859375</ele>
        <time>2019-11-02T13:23:28Z</time>
      </trkpt>
      <trkpt lat="38.531509470194578" lon="-2.513159858062863">
        <ele>1177.800048828125</ele>
        <time>2019-11-02T13:23:29Z</time>
      </trkpt>
      <trkpt lat="38.531397990882397" lon="-2.513122390955687">
        <ele>1178.800048828125</ele>
        <time>2019-11-02T13:23:34Z</time>
      </trkpt>
      <trkpt lat="38.531362367793918" lon="-2.513118619099259">
        <ele>1179</ele>
        <time>2019-11-02T13:23:36Z</time>
      </trkpt>
      <trkpt lat="38.531346777454019" lon="-2.513128174468875">
        <ele>1179</ele>
        <time>2019-11-02T13:23:37Z</time>
      </trkpt>
      <trkpt lat="38.531326157972217" lon="-2.513167485594749">
        <ele>1179</ele>
        <time>2019-11-02T13:23:39Z</time>
      </trkpt>
      <trkpt lat="38.531372845172882" lon="-2.513233702629805">
        <ele>1179.5999755859375</ele>
        <time>2019-11-02T13:23:43Z</time>
      </trkpt>
      <trkpt lat="38.531463705003262" lon="-2.513289609923959">
        <ele>1179.800048828125</ele>
        <time>2019-11-02T13:23:48Z</time>
      </trkpt>
      <trkpt lat="38.531496310606599" lon="-2.51330972649157">
        <ele>1180.199951171875</ele>
        <time>2019-11-02T13:23:50Z</time>
      </trkpt>
      <trkpt lat="38.53158482350409" lon="-2.513362029567361">
        <ele>1180.800048828125</ele>
        <time>2019-11-02T13:23:55Z</time>
      </trkpt>
      <trkpt lat="38.531636456027627" lon="-2.513397820293903">
        <ele>1181.5999755859375</ele>
        <time>2019-11-02T13:23:58Z</time>
      </trkpt>
      <trkpt lat="38.531721280887723" lon="-2.513460014015436">
        <ele>1182.199951171875</ele>
        <time>2019-11-02T13:24:03Z</time>
      </trkpt>
      <trkpt lat="38.531797472387552" lon="-2.513522375375032">
        <ele>1182.800048828125</ele>
        <time>2019-11-02T13:24:08Z</time>
      </trkpt>
      <trkpt lat="38.531827731058002" lon="-2.513548946008086">
        <ele>1183</ele>
        <time>2019-11-02T13:24:10Z</time>
      </trkpt>
      <trkpt lat="38.531892523169518" lon="-2.513613738119602">
        <ele>1183.800048828125</ele>
        <time>2019-11-02T13:24:15Z</time>
      </trkpt>
      <trkpt lat="38.531905766576529" lon="-2.513628657907248">
        <ele>1184</ele>
        <time>2019-11-02T13:24:16Z</time>
      </trkpt>
      <trkpt lat="38.532002409920096" lon="-2.513713231310248">
        <ele>1184.800048828125</ele>
        <time>2019-11-02T13:24:23Z</time>
      </trkpt>
      <trkpt lat="38.532093688845634" lon="-2.513806605711579">
        <ele>1186.199951171875</ele>
        <time>2019-11-02T13:24:30Z</time>
      </trkpt>
      <trkpt lat="38.532106764614582" lon="-2.513819178566337">
        <ele>1186.4000244140625</ele>
        <time>2019-11-02T13:24:31Z</time>
      </trkpt>
      <trkpt lat="38.532191338017583" lon="-2.513907607644796">
        <ele>1187.199951171875</ele>
        <time>2019-11-02T13:24:37Z</time>
      </trkpt>
      <trkpt lat="38.532205168157816" lon="-2.513921353965998">
        <ele>1187.4000244140625</ele>
        <time>2019-11-02T13:24:38Z</time>
      </trkpt>
      <trkpt lat="38.532261746004224" lon="-2.513980362564325">
        <ele>1188.199951171875</ele>
        <time>2019-11-02T13:24:42Z</time>
      </trkpt>
      <trkpt lat="38.532314719632268" lon="-2.514033922925591">
        <ele>1189.4000244140625</ele>
        <time>2019-11-02T13:24:46Z</time>
      </trkpt>
      <trkpt lat="38.532391330227256" lon="-2.514068707823753">
        <ele>1190.5999755859375</ele>
        <time>2019-11-02T13:24:51Z</time>
      </trkpt>
      <trkpt lat="38.532423516735435" lon="-2.514058146625757">
        <ele>1191</ele>
        <time>2019-11-02T13:24:53Z</time>
      </trkpt>
      <trkpt lat="38.532483698800206" lon="-2.514001568779349">
        <ele>1191.5999755859375</ele>
        <time>2019-11-02T13:24:57Z</time>
      </trkpt>
      <trkpt lat="38.532505743205547" lon="-2.513965778052807">
        <ele>1192</ele>
        <time>2019-11-02T13:24:59Z</time>
      </trkpt>
      <trkpt lat="38.532537929713726" lon="-2.513910038396716">
        <ele>1193</ele>
        <time>2019-11-02T13:25:02Z</time>
      </trkpt>
      <trkpt lat="38.532599369063973" lon="-2.513821944594383">
        <ele>1193.5999755859375</ele>
        <time>2019-11-02T13:25:07Z</time>
      </trkpt>
      <trkpt lat="38.532654019072652" lon="-2.513768887147307">
        <ele>1194</ele>
        <time>2019-11-02T13:25:11Z</time>
      </trkpt>
      <trkpt lat="38.532701879739761" lon="-2.513737706467509">
        <ele>1194.4000244140625</ele>
        <time>2019-11-02T13:25:14Z</time>
      </trkpt>
      <trkpt lat="38.532800450921059" lon="-2.513673920184374">
        <ele>1195.199951171875</ele>
        <time>2019-11-02T13:25:20Z</time>
      </trkpt>
      <trkpt lat="38.532833978533745" lon="-2.513650367036462">
        <ele>1195.4000244140625</ele>
        <time>2019-11-02T13:25:22Z</time>
      </trkpt>
      <trkpt lat="38.53291830047965" lon="-2.51359798014164">
        <ele>1196.4000244140625</ele>
        <time>2019-11-02T13:25:27Z</time>
      </trkpt>
      <trkpt lat="38.532935148105025" lon="-2.513586077839136">
        <ele>1196.5999755859375</ele>
        <time>2019-11-02T13:25:28Z</time>
      </trkpt>
      <trkpt lat="38.53303799405694" lon="-2.513505024835467">
        <ele>1197.5999755859375</ele>
        <time>2019-11-02T13:25:35Z</time>
      </trkpt>
      <trkpt lat="38.533166069537401" lon="-2.513409806415439">
        <ele>1198.5999755859375</ele>
        <time>2019-11-02T13:25:43Z</time>
      </trkpt>
      <trkpt lat="38.533273609355092" lon="-2.513402849435806">
        <ele>1199</ele>
        <time>2019-11-02T13:25:49Z</time>
      </trkpt>
      <trkpt lat="38.533339826390147" lon="-2.513452135026455">
        <ele>1199.5999755859375</ele>
        <time>2019-11-02T13:25:53Z</time>
      </trkpt>
      <trkpt lat="38.533360948786139" lon="-2.513490440323949">
        <ele>1200.199951171875</ele>
        <time>2019-11-02T13:25:55Z</time>
      </trkpt>
      <trkpt lat="38.533396488055587" lon="-2.513570990413427">
        <ele>1200.5999755859375</ele>
        <time>2019-11-02T13:25:59Z</time>
      </trkpt>
      <trkpt lat="38.533422136679292" lon="-2.513656988739967">
        <ele>1201.4000244140625</ele>
        <time>2019-11-02T13:26:03Z</time>
      </trkpt>
      <trkpt lat="38.533447869122028" lon="-2.51373971812427">
        <ele>1201.800048828125</ele>
        <time>2019-11-02T13:26:07Z</time>
      </trkpt>
      <trkpt lat="38.53345331735909" lon="-2.513777520507574">
        <ele>1202</ele>
        <time>2019-11-02T13:26:09Z</time>
      </trkpt>
      <trkpt lat="38.533460693433881" lon="-2.513832757249475">
        <ele>1202.5999755859375</ele>
        <time>2019-11-02T13:26:12Z</time>
      </trkpt>
      <trkpt lat="38.533463459461927" lon="-2.513849353417754">
        <ele>1203</ele>
        <time>2019-11-02T13:26:13Z</time>
      </trkpt>
      <trkpt lat="38.533493131399155" lon="-2.513943146914244">
        <ele>1203</ele>
        <time>2019-11-02T13:26:17Z</time>
      </trkpt>
      <trkpt lat="38.533542836084962" lon="-2.514096032828093">
        <ele>1204</ele>
        <time>2019-11-02T13:26:23Z</time>
      </trkpt>
      <trkpt lat="38.533568400889635" lon="-2.514183623716235">
        <ele>1205</ele>
        <time>2019-11-02T13:26:27Z</time>
      </trkpt>
      <trkpt lat="38.533589858561754" lon="-2.514248667284846">
        <ele>1205.5999755859375</ele>
        <time>2019-11-02T13:26:30Z</time>
      </trkpt>
      <trkpt lat="38.533614836633205" lon="-2.514319159090519">
        <ele>1206.199951171875</ele>
        <time>2019-11-02T13:26:33Z</time>
      </trkpt>
      <trkpt lat="38.533654566854239" lon="-2.514403481036425">
        <ele>1207</ele>
        <time>2019-11-02T13:26:37Z</time>
      </trkpt>
      <trkpt lat="38.533693123608828" lon="-2.514489395543933">
        <ele>1207.199951171875</ele>
        <time>2019-11-02T13:26:41Z</time>
      </trkpt>
      <trkpt lat="38.53371424600482" lon="-2.514530047774315">
        <ele>1207.5999755859375</ele>
        <time>2019-11-02T13:26:43Z</time>
      </trkpt>
      <trkpt lat="38.533748779445887" lon="-2.514581428840756">
        <ele>1208.4000244140625</ele>
        <time>2019-11-02T13:26:46Z</time>
      </trkpt>
      <trkpt lat="38.533795718103647" lon="-2.514652004465461">
        <ele>1209.199951171875</ele>
        <time>2019-11-02T13:26:50Z</time>
      </trkpt>
      <trkpt lat="38.533822540193796" lon="-2.514755018055439">
        <ele>1209.5999755859375</ele>
        <time>2019-11-02T13:26:55Z</time>
      </trkpt>
      <trkpt lat="38.533827317878604" lon="-2.514776643365622">
        <ele>1209.5999755859375</ele>
        <time>2019-11-02T13:26:56Z</time>
      </trkpt>
      <trkpt lat="38.533834107220173" lon="-2.514961129054427">
        <ele>1210.4000244140625</ele>
        <time>2019-11-02T13:27:05Z</time>
      </trkpt>
      <trkpt lat="38.533833688125014" lon="-2.514980575069785">
        <ele>1210.5999755859375</ele>
        <time>2019-11-02T13:27:06Z</time>
      </trkpt>
      <trkpt lat="38.53386134840548" lon="-2.515102280303836">
        <ele>1211.5999755859375</ele>
        <time>2019-11-02T13:27:12Z</time>
      </trkpt>
      <trkpt lat="38.53387207724154" lon="-2.515116780996323">
        <ele>1211.5999755859375</ele>
        <time>2019-11-02T13:27:13Z</time>
      </trkpt>
      <trkpt lat="38.533939300104976" lon="-2.515160031616688">
        <ele>1212.800048828125</ele>
        <time>2019-11-02T13:27:18Z</time>
      </trkpt>
      <trkpt lat="38.533987076953053" lon="-2.515150895342231">
        <ele>1214</ele>
        <time>2019-11-02T13:27:22Z</time>
      </trkpt>
      <trkpt lat="38.534008115530014" lon="-2.515134382992983">
        <ele>1214.4000244140625</ele>
        <time>2019-11-02T13:27:24Z</time>
      </trkpt>
      <trkpt lat="38.534041810780764" lon="-2.51511812210083">
        <ele>1215.199951171875</ele>
        <time>2019-11-02T13:27:27Z</time>
      </trkpt>
      <trkpt lat="38.534054467454553" lon="-2.515112590044737">
        <ele>1215.5999755859375</ele>
        <time>2019-11-02T13:27:28Z</time>
      </trkpt>
      <trkpt lat="38.534100400283933" lon="-2.515114350244403">
        <ele>1216.199951171875</ele>
        <time>2019-11-02T13:27:31Z</time>
      </trkpt>
      <trkpt lat="38.534118924289942" lon="-2.515118289738894">
        <ele>1216.4000244140625</ele>
        <time>2019-11-02T13:27:32Z</time>
      </trkpt>
      <trkpt lat="38.534161755815148" lon="-2.515134885907173">
        <ele>1217</ele>
        <time>2019-11-02T13:27:35Z</time>
      </trkpt>
      <trkpt lat="38.534196289256215" lon="-2.51516061834991">
        <ele>1217.4000244140625</ele>
        <time>2019-11-02T13:27:37Z</time>
      </trkpt>
      <trkpt lat="38.534222356975079" lon="-2.515189033001661">
        <ele>1217.800048828125</ele>
        <time>2019-11-02T13:27:39Z</time>
      </trkpt>
      <trkpt lat="38.534241635352373" lon="-2.515213340520859">
        <ele>1218.199951171875</ele>
        <time>2019-11-02T13:27:41Z</time>
      </trkpt>
      <trkpt lat="38.53425269946456" lon="-2.515225410461426">
        <ele>1218.4000244140625</ele>
        <time>2019-11-02T13:27:42Z</time>
      </trkpt>
      <trkpt lat="38.534272816032171" lon="-2.515246449038386">
        <ele>1218.800048828125</ele>
        <time>2019-11-02T13:27:44Z</time>
      </trkpt>
      <trkpt lat="38.534294944256544" lon="-2.515298333019018">
        <ele>1219.199951171875</ele>
        <time>2019-11-02T13:27:47Z</time>
      </trkpt>
      <trkpt lat="38.534308355301619" lon="-2.515362538397312">
        <ele>1219.4000244140625</ele>
        <time>2019-11-02T13:27:50Z</time>
      </trkpt>
      <trkpt lat="38.534312797710299" lon="-2.51545918174088">
        <ele>1220</ele>
        <time>2019-11-02T13:27:54Z</time>
      </trkpt>
      <trkpt lat="38.534315982833505" lon="-2.515571331605315">
        <ele>1220.5999755859375</ele>
        <time>2019-11-02T13:27:59Z</time>
      </trkpt>
      <trkpt lat="38.534318748861551" lon="-2.515611397102475">
        <ele>1220.800048828125</ele>
        <time>2019-11-02T13:28:01Z</time>
      </trkpt>
      <trkpt lat="38.534301817417145" lon="-2.515765456482768">
        <ele>1221.199951171875</ele>
        <time>2019-11-02T13:28:08Z</time>
      </trkpt>
      <trkpt lat="38.534292848780751" lon="-2.515847263857722">
        <ele>1221.5999755859375</ele>
        <time>2019-11-02T13:28:12Z</time>
      </trkpt>
      <trkpt lat="38.534286143258214" lon="-2.515867799520493">
        <ele>1222</ele>
        <time>2019-11-02T13:28:13Z</time>
      </trkpt>
      <trkpt lat="38.53427667170763" lon="-2.515908200293779">
        <ele>1222.199951171875</ele>
        <time>2019-11-02T13:28:15Z</time>
      </trkpt>
      <trkpt lat="38.534251609817147" lon="-2.51603334210813">
        <ele>1223.199951171875</ele>
        <time>2019-11-02T13:28:21Z</time>
      </trkpt>
      <trkpt lat="38.534226045012474" lon="-2.516163261607289">
        <ele>1224</ele>
        <time>2019-11-02T13:28:27Z</time>
      </trkpt>
      <trkpt lat="38.534222524613142" lon="-2.516229897737503">
        <ele>1224.4000244140625</ele>
        <time>2019-11-02T13:28:30Z</time>
      </trkpt>
      <trkpt lat="38.534214310348034" lon="-2.516315225511789">
        <ele>1225</ele>
        <time>2019-11-02T13:28:34Z</time>
      </trkpt>
      <trkpt lat="38.534210287034512" lon="-2.51636266708374">
        <ele>1225.4000244140625</ele>
        <time>2019-11-02T13:28:36Z</time>
      </trkpt>
      <trkpt lat="38.534219255670905" lon="-2.516436595469713">
        <ele>1225.800048828125</ele>
        <time>2019-11-02T13:28:39Z</time>
      </trkpt>
      <trkpt lat="38.534269882366061" lon="-2.516540866345167">
        <ele>1226.4000244140625</ele>
        <time>2019-11-02T13:28:44Z</time>
      </trkpt>
      <trkpt lat="38.534299470484257" lon="-2.516559390351176">
        <ele>1226.5999755859375</ele>
        <time>2019-11-02T13:28:46Z</time>
      </trkpt>
      <trkpt lat="38.534313216805458" lon="-2.516562324017286">
        <ele>1226.5999755859375</ele>
        <time>2019-11-02T13:28:47Z</time>
      </trkpt>
      <trkpt lat="38.534355126321316" lon="-2.516569867730141">
        <ele>1227.4000244140625</ele>
        <time>2019-11-02T13:28:50Z</time>
      </trkpt>
      <trkpt lat="38.534436346963048" lon="-2.516518905758858">
        <ele>1228.4000244140625</ele>
        <time>2019-11-02T13:28:55Z</time>
      </trkpt>
      <trkpt lat="38.534516226500273" lon="-2.516378257423639">
        <ele>1229.199951171875</ele>
        <time>2019-11-02T13:29:02Z</time>
      </trkpt>
      <trkpt lat="38.534533325582743" lon="-2.516333581879735">
        <ele>1229.5999755859375</ele>
        <time>2019-11-02T13:29:04Z</time>
      </trkpt>
      <trkpt lat="38.534590071067214" lon="-2.51623559743166">
        <ele>1230</ele>
        <time>2019-11-02T13:29:09Z</time>
      </trkpt>
      <trkpt lat="38.534658467397094" lon="-2.516122777014971">
        <ele>1230.5999755859375</ele>
        <time>2019-11-02T13:29:15Z</time>
      </trkpt>
      <trkpt lat="38.534671375527978" lon="-2.516103917732835">
        <ele>1230.5999755859375</ele>
        <time>2019-11-02T13:29:16Z</time>
      </trkpt>
      <trkpt lat="38.534755613654852" lon="-2.516000652685761">
        <ele>1231.4000244140625</ele>
        <time>2019-11-02T13:29:23Z</time>
      </trkpt>
      <trkpt lat="38.534766677767038" lon="-2.51598984003067">
        <ele>1231.5999755859375</ele>
        <time>2019-11-02T13:29:24Z</time>
      </trkpt>
      <trkpt lat="38.534824009984732" lon="-2.515936531126499">
        <ele>1232.199951171875</ele>
        <time>2019-11-02T13:29:29Z</time>
      </trkpt>
      <trkpt lat="38.534852089360356" lon="-2.515924712643027">
        <ele>1232.5999755859375</ele>
        <time>2019-11-02T13:29:31Z</time>
      </trkpt>
      <trkpt lat="38.534898944199085" lon="-2.515895375981927">
        <ele>1233.4000244140625</ele>
        <time>2019-11-02T13:29:35Z</time>
      </trkpt>
      <trkpt lat="38.53491922840476" lon="-2.515884982421994">
        <ele>1233.5999755859375</ele>
        <time>2019-11-02T13:29:37Z</time>
      </trkpt>
      <trkpt lat="38.534980751574039" lon="-2.515859333798289">
        <ele>1234.5999755859375</ele>
        <time>2019-11-02T13:29:41Z</time>
      </trkpt>
      <trkpt lat="38.534994581714272" lon="-2.515847682952881">
        <ele>1234.800048828125</ele>
        <time>2019-11-02T13:29:42Z</time>
      </trkpt>
      <trkpt lat="38.535056691616774" lon="-2.515790183097124">
        <ele>1236</ele>
        <time>2019-11-02T13:29:46Z</time>
      </trkpt>
      <trkpt lat="38.535072198137641" lon="-2.515773000195622">
        <ele>1236.199951171875</ele>
        <time>2019-11-02T13:29:47Z</time>
      </trkpt>
      <trkpt lat="38.535092733800411" lon="-2.515682727098465">
        <ele>1237</ele>
        <time>2019-11-02T13:29:51Z</time>
      </trkpt>
      <trkpt lat="38.535092566162348" lon="-2.515661269426346">
        <ele>1237.199951171875</ele>
        <time>2019-11-02T13:29:52Z</time>
      </trkpt>
      <trkpt lat="38.535088710486889" lon="-2.51555741764605">
        <ele>1238.199951171875</ele>
        <time>2019-11-02T13:29:57Z</time>
      </trkpt>
      <trkpt lat="38.535081585869193" lon="-2.515533361583948">
        <ele>1238.4000244140625</ele>
        <time>2019-11-02T13:29:58Z</time>
      </trkpt>
      <trkpt lat="38.535049483180046" lon="-2.51529498025775">
        <ele>1239</ele>
        <time>2019-11-02T13:30:05Z</time>
      </trkpt>
      <trkpt lat="38.53503892198205" lon="-2.515131868422031">
        <ele>1239.199951171875</ele>
        <time>2019-11-02T13:30:11Z</time>
      </trkpt>
      <trkpt lat="38.535072030499578" lon="-2.515052324160933">
        <ele>1239.4000244140625</ele>
        <time>2019-11-02T13:30:14Z</time>
      </trkpt>
      <trkpt lat="38.535095416009426" lon="-2.514973115175962">
        <ele>1239.800048828125</ele>
        <time>2019-11-02T13:30:16Z</time>
      </trkpt>
      <trkpt lat="38.53518895804882" lon="-2.514717970043421">
        <ele>1240.4000244140625</ele>
        <time>2019-11-02T13:30:23Z</time>
      </trkpt>
      <trkpt lat="38.53521728888154" lon="-2.514657117426395">
        <ele>1240.4000244140625</ele>
        <time>2019-11-02T13:30:25Z</time>
      </trkpt>
      <trkpt lat="38.53528861887753" lon="-2.51451856456697">
        <ele>1241.5999755859375</ele>
        <time>2019-11-02T13:30:30Z</time>
      </trkpt>
      <trkpt lat="38.535384507849813" lon="-2.514348411932588">
        <ele>1242.4000244140625</ele>
        <time>2019-11-02T13:30:37Z</time>
      </trkpt>
      <trkpt lat="38.535398170351982" lon="-2.514327373355627">
        <ele>1242.5999755859375</ele>
        <time>2019-11-02T13:30:38Z</time>
      </trkpt>
      <trkpt lat="38.535469667986035" lon="-2.514268616214395">
        <ele>1243.199951171875</ele>
        <time>2019-11-02T13:30:42Z</time>
      </trkpt>
      <trkpt lat="38.53553001768887" lon="-2.51423860900104">
        <ele>1243.800048828125</ele>
        <time>2019-11-02T13:30:45Z</time>
      </trkpt>
      <trkpt lat="38.535594306886196" lon="-2.514227461069822">
        <ele>1244</ele>
        <time>2019-11-02T13:30:48Z</time>
      </trkpt>
      <trkpt lat="38.535696733742952" lon="-2.514225533232093">
        <ele>1244.800048828125</ele>
        <time>2019-11-02T13:30:53Z</time>
      </trkpt>
      <trkpt lat="38.535733949393034" lon="-2.514224862679839">
        <ele>1245.4000244140625</ele>
        <time>2019-11-02T13:30:55Z</time>
      </trkpt>
      <trkpt lat="38.535812990739942" lon="-2.514226706698537">
        <ele>1246</ele>
        <time>2019-11-02T13:30:59Z</time>
      </trkpt>
      <trkpt lat="38.5358393099159" lon="-2.514224108308554">
        <ele>1246.199951171875</ele>
        <time>2019-11-02T13:31:01Z</time>
      </trkpt>
      <trkpt lat="38.535855151712894" lon="-2.514232322573662">
        <ele>1246.4000244140625</ele>
        <time>2019-11-02T13:31:02Z</time>
      </trkpt>
      <trkpt lat="38.535925140604377" lon="-2.514267778024077">
        <ele>1247</ele>
        <time>2019-11-02T13:31:06Z</time>
      </trkpt>
      <trkpt lat="38.536026477813721" lon="-2.514285463839769">
        <ele>1247.5999755859375</ele>
        <time>2019-11-02T13:31:11Z</time>
      </trkpt>
      <trkpt lat="38.536062519997358" lon="-2.514284625649452">
        <ele>1248.199951171875</ele>
        <time>2019-11-02T13:31:13Z</time>
      </trkpt>
      <trkpt lat="38.536154050379992" lon="-2.514267610386014">
        <ele>1249.4000244140625</ele>
        <time>2019-11-02T13:31:18Z</time>
      </trkpt>
      <trkpt lat="38.536253040656447" lon="-2.514245398342609">
        <ele>1250.4000244140625</ele>
        <time>2019-11-02T13:31:23Z</time>
      </trkpt>
      <trkpt lat="38.5362883284688" lon="-2.514229472726583">
        <ele>1250.800048828125</ele>
        <time>2019-11-02T13:31:25Z</time>
      </trkpt>
      <trkpt lat="38.536331159994006" lon="-2.514202399179339">
        <ele>1251.199951171875</ele>
        <time>2019-11-02T13:31:28Z</time>
      </trkpt>
      <trkpt lat="38.536391258239746" lon="-2.514173984527588">
        <ele>1251.4000244140625</ele>
        <time>2019-11-02T13:31:31Z</time>
      </trkpt>
      <trkpt lat="38.536458145827055" lon="-2.514161579310894">
        <ele>1252</ele>
        <time>2019-11-02T13:31:34Z</time>
      </trkpt>
      <trkpt lat="38.536529140546918" lon="-2.514142887666821">
        <ele>1252.5999755859375</ele>
        <time>2019-11-02T13:31:37Z</time>
      </trkpt>
      <trkpt lat="38.536619329825044" lon="-2.514130817726254">
        <ele>1252.800048828125</ele>
        <time>2019-11-02T13:31:41Z</time>
      </trkpt>
      <trkpt lat="38.53669392876327" lon="-2.51414280384779">
        <ele>1253.5999755859375</ele>
        <time>2019-11-02T13:31:45Z</time>
      </trkpt>
      <trkpt lat="38.536734078079462" lon="-2.514153616502881">
        <ele>1254</ele>
        <time>2019-11-02T13:31:47Z</time>
      </trkpt>
      <trkpt lat="38.536797612905502" lon="-2.514189491048455">
        <ele>1254.800048828125</ele>
        <time>2019-11-02T13:31:50Z</time>
      </trkpt>
      <trkpt lat="38.536890735849738" lon="-2.514263754710555">
        <ele>1255.199951171875</ele>
        <time>2019-11-02T13:31:55Z</time>
      </trkpt>
      <trkpt lat="38.536921497434378" lon="-2.514290325343609">
        <ele>1255.800048828125</ele>
        <time>2019-11-02T13:31:57Z</time>
      </trkpt>
      <trkpt lat="38.536983858793974" lon="-2.514352267608047">
        <ele>1256.5999755859375</ele>
        <time>2019-11-02T13:32:01Z</time>
      </trkpt>
      <trkpt lat="38.537021744996309" lon="-2.514392333105206">
        <ele>1256.800048828125</ele>
        <time>2019-11-02T13:32:03Z</time>
      </trkpt>
      <trkpt lat="38.537112269550562" lon="-2.514489563181996">
        <ele>1257.199951171875</ele>
        <time>2019-11-02T13:32:08Z</time>
      </trkpt>
      <trkpt lat="38.537166751921177" lon="-2.514582853764296">
        <ele>1257.800048828125</ele>
        <time>2019-11-02T13:32:12Z</time>
      </trkpt>
      <trkpt lat="38.537191646173596" lon="-2.514664074406028">
        <ele>1258.199951171875</ele>
        <time>2019-11-02T13:32:15Z</time>
      </trkpt>
      <trkpt lat="38.537200530990958" lon="-2.514737416058779">
        <ele>1258.4000244140625</ele>
        <time>2019-11-02T13:32:18Z</time>
      </trkpt>
      <trkpt lat="38.537197513505816" lon="-2.514812266454101">
        <ele>1258.800048828125</ele>
        <time>2019-11-02T13:32:21Z</time>
      </trkpt>
      <trkpt lat="38.537196172401309" lon="-2.514839926734567">
        <ele>1259</ele>
        <time>2019-11-02T13:32:22Z</time>
      </trkpt>
      <trkpt lat="38.537195166572928" lon="-2.514961548149586">
        <ele>1259.800048828125</ele>
        <time>2019-11-02T13:32:27Z</time>
      </trkpt>
      <trkpt lat="38.537196004763246" lon="-2.514985352754593">
        <ele>1260</ele>
        <time>2019-11-02T13:32:28Z</time>
      </trkpt>
      <trkpt lat="38.537195920944214" lon="-2.51508149318397">
        <ele>1261</ele>
        <time>2019-11-02T13:32:32Z</time>
      </trkpt>
      <trkpt lat="38.537196172401309" lon="-2.515128348022699">
        <ele>1261.4000244140625</ele>
        <time>2019-11-02T13:32:34Z</time>
      </trkpt>
      <trkpt lat="38.537207571789622" lon="-2.515252819284797">
        <ele>1262.199951171875</ele>
        <time>2019-11-02T13:32:39Z</time>
      </trkpt>
      <trkpt lat="38.537216875702143" lon="-2.515297662466764">
        <ele>1262.800048828125</ele>
        <time>2019-11-02T13:32:41Z</time>
      </trkpt>
      <trkpt lat="38.537235734984279" lon="-2.515339069068432">
        <ele>1263.5999755859375</ele>
        <time>2019-11-02T13:32:43Z</time>
      </trkpt>
      <trkpt lat="38.537278147414327" lon="-2.515422971919179">
        <ele>1265</ele>
        <time>2019-11-02T13:32:47Z</time>
      </trkpt>
      <trkpt lat="38.537292564287782" lon="-2.515444094315171">
        <ele>1265.4000244140625</ele>
        <time>2019-11-02T13:32:48Z</time>
      </trkpt>
      <trkpt lat="38.537320727482438" lon="-2.515482064336538">
        <ele>1266</ele>
        <time>2019-11-02T13:32:50Z</time>
      </trkpt>
      <trkpt lat="38.537387950345874" lon="-2.515550460666418">
        <ele>1266.5999755859375</ele>
        <time>2019-11-02T13:32:54Z</time>
      </trkpt>
      <trkpt lat="38.537466237321496" lon="-2.515639057382941">
        <ele>1267</ele>
        <time>2019-11-02T13:32:59Z</time>
      </trkpt>
      <trkpt lat="38.537508314475417" lon="-2.515700664371252">
        <ele>1267.4000244140625</ele>
        <time>2019-11-02T13:33:02Z</time>
      </trkpt>
      <trkpt lat="38.537578554823995" lon="-2.515861848369241">
        <ele>1267.5999755859375</ele>
        <time>2019-11-02T13:33:09Z</time>
      </trkpt>
      <trkpt lat="38.537617614492774" lon="-2.516022613272071">
        <ele>1268</ele>
        <time>2019-11-02T13:33:16Z</time>
      </trkpt>
      <trkpt lat="38.537629432976246" lon="-2.516075754538178">
        <ele>1268.199951171875</ele>
        <time>2019-11-02T13:33:18Z</time>
      </trkpt>
      <trkpt lat="38.537641335278749" lon="-2.516150772571564">
        <ele>1269.199951171875</ele>
        <time>2019-11-02T13:33:21Z</time>
      </trkpt>
      <trkpt lat="38.537648878991604" lon="-2.516203578561544">
        <ele>1269.5999755859375</ele>
        <time>2019-11-02T13:33:23Z</time>
      </trkpt>
      <trkpt lat="38.537670336663723" lon="-2.516329055652022">
        <ele>1270.5999755859375</ele>
        <time>2019-11-02T13:33:28Z</time>
      </trkpt>
      <trkpt lat="38.537694811820984" lon="-2.516476660966873">
        <ele>1272</ele>
        <time>2019-11-02T13:33:34Z</time>
      </trkpt>
      <trkpt lat="38.537730686366558" lon="-2.516649411991239">
        <ele>1272.5999755859375</ele>
        <time>2019-11-02T13:33:41Z</time>
      </trkpt>
      <trkpt lat="38.537766225636005" lon="-2.516776146367192">
        <ele>1273</ele>
        <time>2019-11-02T13:33:46Z</time>
      </trkpt>
      <trkpt lat="38.537786090746522" lon="-2.516864323988557">
        <ele>1273.800048828125</ele>
        <time>2019-11-02T13:33:50Z</time>
      </trkpt>
      <trkpt lat="38.537805704399943" lon="-2.5169328879565">
        <ele>1274.4000244140625</ele>
        <time>2019-11-02T13:33:53Z</time>
      </trkpt>
      <trkpt lat="38.537829509004951" lon="-2.517029447481036">
        <ele>1275</ele>
        <time>2019-11-02T13:33:57Z</time>
      </trkpt>
      <trkpt lat="38.537842920050025" lon="-2.517071608453989">
        <ele>1275.5999755859375</ele>
        <time>2019-11-02T13:33:59Z</time>
      </trkpt>
      <trkpt lat="38.53788516484201" lon="-2.517200522124767">
        <ele>1276.4000244140625</ele>
        <time>2019-11-02T13:34:05Z</time>
      </trkpt>
      <trkpt lat="38.537895474582911" lon="-2.517244778573513">
        <ele>1276.800048828125</ele>
        <time>2019-11-02T13:34:07Z</time>
      </trkpt>
      <trkpt lat="38.53790963999927" lon="-2.517314683645964">
        <ele>1277.199951171875</ele>
        <time>2019-11-02T13:34:10Z</time>
      </trkpt>
      <trkpt lat="38.537914836779237" lon="-2.517338991165161">
        <ele>1277.199951171875</ele>
        <time>2019-11-02T13:34:11Z</time>
      </trkpt>
      <trkpt lat="38.537936881184578" lon="-2.517410488799214">
        <ele>1277.800048828125</ele>
        <time>2019-11-02T13:34:14Z</time>
      </trkpt>
      <trkpt lat="38.537958422675729" lon="-2.51748357899487">
        <ele>1278.199951171875</ele>
        <time>2019-11-02T13:34:17Z</time>
      </trkpt>
      <trkpt lat="38.537989016622305" lon="-2.517620539292693">
        <ele>1279</ele>
        <time>2019-11-02T13:34:23Z</time>
      </trkpt>
      <trkpt lat="38.538009636104107" lon="-2.517767725512385">
        <ele>1280.199951171875</ele>
        <time>2019-11-02T13:34:29Z</time>
      </trkpt>
      <trkpt lat="38.538018437102437" lon="-2.517888508737087">
        <ele>1281.199951171875</ele>
        <time>2019-11-02T13:34:34Z</time>
      </trkpt>
      <trkpt lat="38.538019694387913" lon="-2.517913319170475">
        <ele>1281.4000244140625</ele>
        <time>2019-11-02T13:34:35Z</time>
      </trkpt>
      <trkpt lat="38.538016676902771" lon="-2.517979284748435">
        <ele>1281.5999755859375</ele>
        <time>2019-11-02T13:34:38Z</time>
      </trkpt>
      <trkpt lat="38.538022208958864" lon="-2.518005603924394">
        <ele>1281.800048828125</ele>
        <time>2019-11-02T13:34:39Z</time>
      </trkpt>
      <trkpt lat="38.538050455972552" lon="-2.518081460148096">
        <ele>1282.199951171875</ele>
        <time>2019-11-02T13:34:42Z</time>
      </trkpt>
      <trkpt lat="38.538072248920798" lon="-2.518126303330064">
        <ele>1282.4000244140625</ele>
        <time>2019-11-02T13:34:44Z</time>
      </trkpt>
      <trkpt lat="38.538097897544503" lon="-2.518162345513701">
        <ele>1282.800048828125</ele>
        <time>2019-11-02T13:34:46Z</time>
      </trkpt>
      <trkpt lat="38.538179453462362" lon="-2.518197381868958">
        <ele>1283.4000244140625</ele>
        <time>2019-11-02T13:34:51Z</time>
      </trkpt>
      <trkpt lat="38.538211723789573" lon="-2.51818522810936">
        <ele>1283.5999755859375</ele>
        <time>2019-11-02T13:34:53Z</time>
      </trkpt>
      <trkpt lat="38.538278862833977" lon="-2.518164860084653">
        <ele>1284.4000244140625</ele>
        <time>2019-11-02T13:34:56Z</time>
      </trkpt>
      <trkpt lat="38.538326136767864" lon="-2.518154382705688">
        <ele>1284.800048828125</ele>
        <time>2019-11-02T13:34:58Z</time>
      </trkpt>
      <trkpt lat="38.538388414308429" lon="-2.51815346069634">
        <ele>1285.4000244140625</ele>
        <time>2019-11-02T13:35:02Z</time>
      </trkpt>
      <trkpt lat="38.538464857265353" lon="-2.51813443377614">
        <ele>1286</ele>
        <time>2019-11-02T13:35:06Z</time>
      </trkpt>
      <trkpt lat="38.538511712104082" lon="-2.518120687454939">
        <ele>1286.199951171875</ele>
        <time>2019-11-02T13:35:08Z</time>
      </trkpt>
      <trkpt lat="38.538705250248313" lon="-2.518102498725057">
        <ele>1286.800048828125</ele>
        <time>2019-11-02T13:35:15Z</time>
      </trkpt>
      <trkpt lat="38.538796193897724" lon="-2.518106438219547">
        <ele>1287.199951171875</ele>
        <time>2019-11-02T13:35:18Z</time>
      </trkpt>
      <trkpt lat="38.538910523056984" lon="-2.518099062144756">
        <ele>1287.4000244140625</ele>
        <time>2019-11-02T13:35:22Z</time>
      </trkpt>
      <trkpt lat="38.539094254374504" lon="-2.518137451261282">
        <ele>1288.199951171875</ele>
        <time>2019-11-02T13:35:29Z</time>
      </trkpt>
      <trkpt lat="38.539119316264987" lon="-2.518145497888327">
        <ele>1288.4000244140625</ele>
        <time>2019-11-02T13:35:30Z</time>
      </trkpt>
      <trkpt lat="38.539254516363144" lon="-2.518197549507022">
        <ele>1289.4000244140625</ele>
        <time>2019-11-02T13:35:36Z</time>
      </trkpt>
      <trkpt lat="38.539275638759136" lon="-2.518205931410193">
        <ele>1289.5999755859375</ele>
        <time>2019-11-02T13:35:37Z</time>
      </trkpt>
      <trkpt lat="38.539369432255626" lon="-2.518227724358439">
        <ele>1290.4000244140625</ele>
        <time>2019-11-02T13:35:41Z</time>
      </trkpt>
      <trkpt lat="38.539415197446942" lon="-2.518240883946419">
        <ele>1290.800048828125</ele>
        <time>2019-11-02T13:35:43Z</time>
      </trkpt>
      <trkpt lat="38.539533549919724" lon="-2.518289666622877">
        <ele>1291.5999755859375</ele>
        <time>2019-11-02T13:35:48Z</time>
      </trkpt>
      <trkpt lat="38.5396125074476" lon="-2.518322104588151">
        <ele>1291.800048828125</ele>
        <time>2019-11-02T13:35:51Z</time>
      </trkpt>
      <trkpt lat="38.539748713374138" lon="-2.518360577523708">
        <ele>1292.4000244140625</ele>
        <time>2019-11-02T13:35:56Z</time>
      </trkpt>
      <trkpt lat="38.539881901815534" lon="-2.518314979970455">
        <ele>1292.5999755859375</ele>
        <time>2019-11-02T13:36:00Z</time>
      </trkpt>
      <trkpt lat="38.540017353370786" lon="-2.518132673576474">
        <ele>1292.5999755859375</ele>
        <time>2019-11-02T13:36:06Z</time>
      </trkpt>
      <trkpt lat="38.540128832682967" lon="-2.517983810976148">
        <ele>1292.5999755859375</ele>
        <time>2019-11-02T13:36:11Z</time>
      </trkpt>
      <trkpt lat="38.540250118821859" lon="-2.517779041081667">
        <ele>1292.5999755859375</ele>
        <time>2019-11-02T13:36:18Z</time>
      </trkpt>
      <trkpt lat="38.540386408567429" lon="-2.517621209844947">
        <ele>1293</ele>
        <time>2019-11-02T13:36:25Z</time>
      </trkpt>
      <trkpt lat="38.540551448240876" lon="-2.517573516815901">
        <ele>1293.5999755859375</ele>
        <time>2019-11-02T13:36:32Z</time>
      </trkpt>
      <trkpt lat="38.540599811822176" lon="-2.517568320035934">
        <ele>1294</ele>
        <time>2019-11-02T13:36:34Z</time>
      </trkpt>
      <trkpt lat="38.540699472650886" lon="-2.517561195418239">
        <ele>1294.4000244140625</ele>
        <time>2019-11-02T13:36:38Z</time>
      </trkpt>
      <trkpt lat="38.54080818593502" lon="-2.517546443268657">
        <ele>1294.5999755859375</ele>
        <time>2019-11-02T13:36:43Z</time>
      </trkpt>
      <trkpt lat="38.540850095450878" lon="-2.517529092729092">
        <ele>1295.199951171875</ele>
        <time>2019-11-02T13:36:45Z</time>
      </trkpt>
      <trkpt lat="38.54091078042984" lon="-2.517472431063652">
        <ele>1295.5999755859375</ele>
        <time>2019-11-02T13:36:48Z</time>
      </trkpt>
      <trkpt lat="38.540974985808134" lon="-2.517369417473674">
        <ele>1296.199951171875</ele>
        <time>2019-11-02T13:36:52Z</time>
      </trkpt>
      <trkpt lat="38.540994767099619" lon="-2.517318539321423">
        <ele>1296.5999755859375</ele>
        <time>2019-11-02T13:36:54Z</time>
      </trkpt>
      <trkpt lat="38.541023433208466" lon="-2.517219465225935">
        <ele>1297.199951171875</ele>
        <time>2019-11-02T13:36:58Z</time>
      </trkpt>
      <trkpt lat="38.541027624160051" lon="-2.517192643135786">
        <ele>1297.4000244140625</ele>
        <time>2019-11-02T13:36:59Z</time>
      </trkpt>
      <trkpt lat="38.541030893102288" lon="-2.517159953713417">
        <ele>1297.5999755859375</ele>
        <time>2019-11-02T13:37:00Z</time>
      </trkpt>
      <trkpt lat="38.541064923629165" lon="-2.517029782757163">
        <ele>1298.4000244140625</ele>
        <time>2019-11-02T13:37:04Z</time>
      </trkpt>
      <trkpt lat="38.541104318574071" lon="-2.516933558508754">
        <ele>1298.800048828125</ele>
        <time>2019-11-02T13:37:07Z</time>
      </trkpt>
      <trkpt lat="38.541174391284585" lon="-2.516834316775203">
        <ele>1299.4000244140625</ele>
        <time>2019-11-02T13:37:11Z</time>
      </trkpt>
      <trkpt lat="38.541212780401111" lon="-2.516802717000246">
        <ele>1300</ele>
        <time>2019-11-02T13:37:13Z</time>
      </trkpt>
      <trkpt lat="38.541328618302941" lon="-2.516766339540482">
        <ele>1300.4000244140625</ele>
        <time>2019-11-02T13:37:18Z</time>
      </trkpt>
      <trkpt lat="38.541403384879231" lon="-2.516771787777543">
        <ele>1300.5999755859375</ele>
        <time>2019-11-02T13:37:21Z</time>
      </trkpt>
      <trkpt lat="38.541469015181065" lon="-2.516793413087726">
        <ele>1300.800048828125</ele>
        <time>2019-11-02T13:37:24Z</time>
      </trkpt>
      <trkpt lat="38.541555935516953" lon="-2.516838759183884">
        <ele>1301.4000244140625</ele>
        <time>2019-11-02T13:37:28Z</time>
      </trkpt>
      <trkpt lat="38.541595581918955" lon="-2.516871951520443">
        <ele>1302.199951171875</ele>
        <time>2019-11-02T13:37:30Z</time>
      </trkpt>
      <trkpt lat="38.541617207229137" lon="-2.516888296231627">
        <ele>1302.4000244140625</ele>
        <time>2019-11-02T13:37:31Z</time>
      </trkpt>
      <trkpt lat="38.541703373193741" lon="-2.516963565722108">
        <ele>1303.4000244140625</ele>
        <time>2019-11-02T13:37:35Z</time>
      </trkpt>
      <trkpt lat="38.541720304638147" lon="-2.516985610127449">
        <ele>1303.5999755859375</ele>
        <time>2019-11-02T13:37:36Z</time>
      </trkpt>
      <trkpt lat="38.541778810322285" lon="-2.517133466899395">
        <ele>1304.4000244140625</ele>
        <time>2019-11-02T13:37:41Z</time>
      </trkpt>
      <trkpt lat="38.541782833635807" lon="-2.517165821045637">
        <ele>1304.5999755859375</ele>
        <time>2019-11-02T13:37:42Z</time>
      </trkpt>
      <trkpt lat="38.541802447289228" lon="-2.517343098297715">
        <ele>1305.199951171875</ele>
        <time>2019-11-02T13:37:47Z</time>
      </trkpt>
      <trkpt lat="38.541837735101581" lon="-2.517467318102717">
        <ele>1305.5999755859375</ele>
        <time>2019-11-02T13:37:51Z</time>
      </trkpt>
      <trkpt lat="38.541868161410093" lon="-2.51754124648869">
        <ele>1306.5999755859375</ele>
        <time>2019-11-02T13:37:54Z</time>
      </trkpt>
      <trkpt lat="38.541882326826453" lon="-2.517563458532095">
        <ele>1306.800048828125</ele>
        <time>2019-11-02T13:37:55Z</time>
      </trkpt>
      <trkpt lat="38.541925577446818" lon="-2.517659263685346">
        <ele>1307.800048828125</ele>
        <time>2019-11-02T13:38:00Z</time>
      </trkpt>
      <trkpt lat="38.541927086189389" lon="-2.517671082168818">
        <ele>1307.800048828125</ele>
        <time>2019-11-02T13:38:02Z</time>
      </trkpt>
      <trkpt lat="38.541931444779038" lon="-2.517670411616564">
        <ele>1307.800048828125</ele>
        <time>2019-11-02T13:38:05Z</time>
      </trkpt>
      <trkpt lat="38.541930941864848" lon="-2.517669908702374">
        <ele>1308.4000244140625</ele>
        <time>2019-11-02T13:38:20Z</time>
      </trkpt>
      <trkpt lat="38.54193102568388" lon="-2.517673093825579">
        <ele>1308.199951171875</ele>
        <time>2019-11-02T13:38:32Z</time>
      </trkpt>
      <trkpt lat="38.541931193321943" lon="-2.517678709700704">
        <ele>1307.4000244140625</ele>
        <time>2019-11-02T13:38:42Z</time>
      </trkpt>
      <trkpt lat="38.541928762570024" lon="-2.517675273120403">
        <ele>1307.199951171875</ele>
        <time>2019-11-02T13:38:44Z</time>
      </trkpt>
      <trkpt lat="38.541928762570024" lon="-2.517674854025245">
        <ele>1307.199951171875</ele>
        <time>2019-11-02T13:38:46Z</time>
      </trkpt>
      <trkpt lat="38.541927756741643" lon="-2.517674351111054">
        <ele>1307.199951171875</ele>
        <time>2019-11-02T13:38:47Z</time>
      </trkpt>
      <trkpt lat="38.541918704286218" lon="-2.517670746892691">
        <ele>1307</ele>
        <time>2019-11-02T13:38:53Z</time>
      </trkpt>
      <trkpt lat="38.541913172230124" lon="-2.517673848196864">
        <ele>1307.5999755859375</ele>
        <time>2019-11-02T13:38:59Z</time>
      </trkpt>
      <trkpt lat="38.541914178058505" lon="-2.517671836540103">
        <ele>1307.4000244140625</ele>
        <time>2019-11-02T13:39:12Z</time>
      </trkpt>
      <trkpt lat="38.541922476142645" lon="-2.517674015834928">
        <ele>1307.5999755859375</ele>
        <time>2019-11-02T13:39:26Z</time>
      </trkpt>
      <trkpt lat="38.541921470314264" lon="-2.517668986693025">
        <ele>1307.800048828125</ele>
        <time>2019-11-02T13:39:41Z</time>
      </trkpt>
      <trkpt lat="38.541923062875867" lon="-2.517666975036263">
        <ele>1308</ele>
        <time>2019-11-02T13:40:02Z</time>
      </trkpt>
      <trkpt lat="38.541923481971025" lon="-2.5176668073982">
        <ele>1308.199951171875</ele>
        <time>2019-11-02T13:40:05Z</time>
      </trkpt>
      <trkpt lat="38.541925074532628" lon="-2.517668399959803">
        <ele>1308.4000244140625</ele>
        <time>2019-11-02T13:40:22Z</time>
      </trkpt>
      <trkpt lat="38.541926499456167" lon="-2.517659263685346">
        <ele>1308.4000244140625</ele>
        <time>2019-11-02T13:41:03Z</time>
      </trkpt>
      <trkpt lat="38.541927337646484" lon="-2.517655324190855">
        <ele>1308.199951171875</ele>
        <time>2019-11-02T13:41:52Z</time>
      </trkpt>
      <trkpt lat="38.541926834732294" lon="-2.517655156552792">
        <ele>1307.5999755859375</ele>
        <time>2019-11-02T13:42:09Z</time>
      </trkpt>
      <trkpt lat="38.541927170008421" lon="-2.517655156552792">
        <ele>1307.5999755859375</ele>
        <time>2019-11-02T13:42:13Z</time>
      </trkpt>
      <trkpt lat="38.541928259655833" lon="-2.517656665295362">
        <ele>1308.5999755859375</ele>
        <time>2019-11-02T13:42:27Z</time>
      </trkpt>
      <trkpt lat="38.541928762570024" lon="-2.517657754942775">
        <ele>1308.5999755859375</ele>
        <time>2019-11-02T13:42:33Z</time>
      </trkpt>
      <trkpt lat="38.541928762570024" lon="-2.517657671123743">
        <ele>1308</ele>
        <time>2019-11-02T13:43:16Z</time>
      </trkpt>
      <trkpt lat="38.541928678750992" lon="-2.517657754942775">
        <ele>1307.800048828125</ele>
        <time>2019-11-02T13:43:19Z</time>
      </trkpt>
      <trkpt lat="38.54192859493196" lon="-2.517653563991189">
        <ele>1307.4000244140625</ele>
        <time>2019-11-02T13:44:20Z</time>
      </trkpt>
      <trkpt lat="38.541928846389055" lon="-2.51765314489603">
        <ele>1308.199951171875</ele>
        <time>2019-11-02T13:45:24Z</time>
      </trkpt>
      <trkpt lat="38.54192859493196" lon="-2.517651803791523">
        <ele>1308.800048828125</ele>
        <time>2019-11-02T13:46:11Z</time>
      </trkpt>
      <trkpt lat="38.541928846389055" lon="-2.517649373039603">
        <ele>1309</ele>
        <time>2019-11-02T13:46:56Z</time>
      </trkpt>
      <trkpt lat="38.541928846389055" lon="-2.517649373039603">
        <ele>1309.199951171875</ele>
        <time>2019-11-02T13:46:57Z</time>
      </trkpt>
      <trkpt lat="38.541928846389055" lon="-2.51764970831573">
        <ele>1309</ele>
        <time>2019-11-02T13:47:20Z</time>
      </trkpt>
      <trkpt lat="38.541929265484214" lon="-2.51764920540154">
        <ele>1309.199951171875</ele>
        <time>2019-11-02T13:47:34Z</time>
      </trkpt>
      <trkpt lat="38.541933037340641" lon="-2.51765456981957">
        <ele>1308.800048828125</ele>
        <time>2019-11-02T13:47:58Z</time>
      </trkpt>
      <trkpt lat="38.541933037340641" lon="-2.517792116850615">
        <ele>1309</ele>
        <time>2019-11-02T13:48:04Z</time>
      </trkpt>
      <trkpt lat="38.541891882196069" lon="-2.517992192879319">
        <ele>1309</ele>
        <time>2019-11-02T13:48:10Z</time>
      </trkpt>
      <trkpt lat="38.541835555806756" lon="-2.518170727416873">
        <ele>1309.199951171875</ele>
        <time>2019-11-02T13:48:17Z</time>
      </trkpt>
      <trkpt lat="38.541794065386057" lon="-2.518327385187149">
        <ele>1309.5999755859375</ele>
        <time>2019-11-02T13:48:22Z</time>
      </trkpt>
      <trkpt lat="38.541761878877878" lon="-2.518442552536726">
        <ele>1310.4000244140625</ele>
        <time>2019-11-02T13:48:27Z</time>
      </trkpt>
      <trkpt lat="38.541752658784389" lon="-2.518474990502">
        <ele>1310.5999755859375</ele>
        <time>2019-11-02T13:48:29Z</time>
      </trkpt>
      <trkpt lat="38.541723741218448" lon="-2.518619578331709">
        <ele>1311.199951171875</ele>
        <time>2019-11-02T13:48:36Z</time>
      </trkpt>
      <trkpt lat="38.541719717904925" lon="-2.518689315766096">
        <ele>1311.4000244140625</ele>
        <time>2019-11-02T13:48:39Z</time>
      </trkpt>
      <trkpt lat="38.541709491983056" lon="-2.518764082342386">
        <ele>1312.4000244140625</ele>
        <time>2019-11-02T13:48:42Z</time>
      </trkpt>
      <trkpt lat="38.541705552488565" lon="-2.518789144232869">
        <ele>1312.5999755859375</ele>
        <time>2019-11-02T13:48:43Z</time>
      </trkpt>
      <trkpt lat="38.541685435920954" lon="-2.518956447020173">
        <ele>1313.4000244140625</ele>
        <time>2019-11-02T13:48:50Z</time>
      </trkpt>
      <trkpt lat="38.541683591902256" lon="-2.519004307687283">
        <ele>1313.800048828125</ele>
        <time>2019-11-02T13:48:52Z</time>
      </trkpt>
      <trkpt lat="38.541669845581055" lon="-2.519103465601802">
        <ele>1314.800048828125</ele>
        <time>2019-11-02T13:48:56Z</time>
      </trkpt>
      <trkpt lat="38.541666073724627" lon="-2.519150739535689">
        <ele>1315</ele>
        <time>2019-11-02T13:48:58Z</time>
      </trkpt>
      <trkpt lat="38.541647046804428" lon="-2.519255178049207">
        <ele>1316</ele>
        <time>2019-11-02T13:49:03Z</time>
      </trkpt>
      <trkpt lat="38.541642604395747" lon="-2.519276132807136">
        <ele>1316.199951171875</ele>
        <time>2019-11-02T13:49:04Z</time>
      </trkpt>
      <trkpt lat="38.541601784527302" lon="-2.519375290721655">
        <ele>1317</ele>
        <time>2019-11-02T13:49:09Z</time>
      </trkpt>
      <trkpt lat="38.541575632989407" lon="-2.519417116418481">
        <ele>1317.199951171875</ele>
        <time>2019-11-02T13:49:11Z</time>
      </trkpt>
      <trkpt lat="38.541473876684904" lon="-2.519577378407121">
        <ele>1318</ele>
        <time>2019-11-02T13:49:19Z</time>
      </trkpt>
      <trkpt lat="38.541364073753357" lon="-2.519703777506948">
        <ele>1318.800048828125</ele>
        <time>2019-11-02T13:49:26Z</time>
      </trkpt>
      <trkpt lat="38.541331803426147" lon="-2.519743759185076">
        <ele>1319</ele>
        <time>2019-11-02T13:49:28Z</time>
      </trkpt>
      <trkpt lat="38.541261814534664" lon="-2.519816011190414">
        <ele>1319.199951171875</ele>
        <time>2019-11-02T13:49:32Z</time>
      </trkpt>
      <trkpt lat="38.54112770408392" lon="-2.519937548786402">
        <ele>1318.5999755859375</ele>
        <time>2019-11-02T13:49:39Z</time>
      </trkpt>
      <trkpt lat="38.540987139567733" lon="-2.520102085545659">
        <ele>1318.800048828125</ele>
        <time>2019-11-02T13:49:46Z</time>
      </trkpt>
      <trkpt lat="38.540872056037188" lon="-2.520225550979376">
        <ele>1319</ele>
        <time>2019-11-02T13:49:51Z</time>
      </trkpt>
      <trkpt lat="38.540805419906974" lon="-2.520293276757002">
        <ele>1318.800048828125</ele>
        <time>2019-11-02T13:49:54Z</time>
      </trkpt>
      <trkpt lat="38.540657898411155" lon="-2.520457562059164">
        <ele>1319.199951171875</ele>
        <time>2019-11-02T13:50:01Z</time>
      </trkpt>
      <trkpt lat="38.540533678606153" lon="-2.520594522356987">
        <ele>1320</ele>
        <time>2019-11-02T13:50:07Z</time>
      </trkpt>
      <trkpt lat="38.540496546775103" lon="-2.52064062282443">
        <ele>1321</ele>
        <time>2019-11-02T13:50:09Z</time>
      </trkpt>
      <trkpt lat="38.540481543168426" lon="-2.520663170143962">
        <ele>1321.199951171875</ele>
        <time>2019-11-02T13:50:10Z</time>
      </trkpt>
      <trkpt lat="38.540401747450233" lon="-2.520814631134272">
        <ele>1321.800048828125</ele>
        <time>2019-11-02T13:50:16Z</time>
      </trkpt>
      <trkpt lat="38.54038942605257" lon="-2.520962152630091">
        <ele>1322.199951171875</ele>
        <time>2019-11-02T13:50:21Z</time>
      </trkpt>
      <trkpt lat="38.540389006957412" lon="-2.521023927256465">
        <ele>1322.800048828125</ele>
        <time>2019-11-02T13:50:23Z</time>
      </trkpt>
      <trkpt lat="38.54039085097611" lon="-2.521082013845444">
        <ele>1323.4000244140625</ele>
        <time>2019-11-02T13:50:25Z</time>
      </trkpt>
      <trkpt lat="38.540431084111333" lon="-2.521257111802697">
        <ele>1324.5999755859375</ele>
        <time>2019-11-02T13:50:30Z</time>
      </trkpt>
      <trkpt lat="38.540527811273932" lon="-2.521459199488163">
        <ele>1325.5999755859375</ele>
        <time>2019-11-02T13:50:37Z</time>
      </trkpt>
      <trkpt lat="38.540541222319007" lon="-2.521486524492502">
        <ele>1325.800048828125</ele>
        <time>2019-11-02T13:50:38Z</time>
      </trkpt>
      <trkpt lat="38.540610121563077" lon="-2.52167209982872">
        <ele>1326.800048828125</ele>
        <time>2019-11-02T13:50:44Z</time>
      </trkpt>
      <trkpt lat="38.540618671104312" lon="-2.521702777594328">
        <ele>1327</ele>
        <time>2019-11-02T13:50:45Z</time>
      </trkpt>
      <trkpt lat="38.540603583678603" lon="-2.521872008219361">
        <ele>1327.199951171875</ele>
        <time>2019-11-02T13:50:50Z</time>
      </trkpt>
      <trkpt lat="38.540475759655237" lon="-2.522028414532542">
        <ele>1327.199951171875</ele>
        <time>2019-11-02T13:50:56Z</time>
      </trkpt>
      <trkpt lat="38.54035715572536" lon="-2.522196639329195">
        <ele>1327.199951171875</ele>
        <time>2019-11-02T13:51:02Z</time>
      </trkpt>
      <trkpt lat="38.540298566222191" lon="-2.522383304312825">
        <ele>1326.800048828125</ele>
        <time>2019-11-02T13:51:07Z</time>
      </trkpt>
      <trkpt lat="38.540265457704663" lon="-2.522622104734182">
        <ele>1326.800048828125</ele>
        <time>2019-11-02T13:51:14Z</time>
      </trkpt>
      <trkpt lat="38.540242910385132" lon="-2.522757053375244">
        <ele>1326.5999755859375</ele>
        <time>2019-11-02T13:51:21Z</time>
      </trkpt>
      <trkpt lat="38.540244000032544" lon="-2.522763255983591">
        <ele>1326.5999755859375</ele>
        <time>2019-11-02T13:51:32Z</time>
      </trkpt>
      <trkpt lat="38.5402428265661" lon="-2.522761663421988">
        <ele>1326.4000244140625</ele>
        <time>2019-11-02T13:51:48Z</time>
      </trkpt>
      <trkpt lat="38.54023109190166" lon="-2.522793179377913">
        <ele>1326.4000244140625</ele>
        <time>2019-11-02T13:52:01Z</time>
      </trkpt>
      <trkpt lat="38.540131095796824" lon="-2.522961907088757">
        <ele>1326.199951171875</ele>
        <time>2019-11-02T13:52:07Z</time>
      </trkpt>
      <trkpt lat="38.540035961195827" lon="-2.523152930662036">
        <ele>1325.4000244140625</ele>
        <time>2019-11-02T13:52:12Z</time>
      </trkpt>
      <trkpt lat="38.539935210719705" lon="-2.523410087451339">
        <ele>1324.5999755859375</ele>
        <time>2019-11-02T13:52:18Z</time>
      </trkpt>
      <trkpt lat="38.539931187406182" lon="-2.523457445204258">
        <ele>1324.199951171875</ele>
        <time>2019-11-02T13:52:19Z</time>
      </trkpt>
      <trkpt lat="38.539943676441908" lon="-2.523564314469695">
        <ele>1323.800048828125</ele>
        <time>2019-11-02T13:52:21Z</time>
      </trkpt>
      <trkpt lat="38.539962284266949" lon="-2.52362516708672">
        <ele>1323.5999755859375</ele>
        <time>2019-11-02T13:52:22Z</time>
      </trkpt>
      <trkpt lat="38.540061190724373" lon="-2.52381619066">
        <ele>1322.4000244140625</ele>
        <time>2019-11-02T13:52:25Z</time>
      </trkpt>
      <trkpt lat="38.540100334212184" lon="-2.523877462372184">
        <ele>1322</ele>
        <time>2019-11-02T13:52:26Z</time>
      </trkpt>
      <trkpt lat="38.54020033031702" lon="-2.523978799581528">
        <ele>1321.199951171875</ele>
        <time>2019-11-02T13:52:28Z</time>
      </trkpt>
      <trkpt lat="38.540313150733709" lon="-2.524065468460321">
        <ele>1320.4000244140625</ele>
        <time>2019-11-02T13:52:30Z</time>
      </trkpt>
      <trkpt lat="38.540378278121352" lon="-2.524094050750136">
        <ele>1319.800048828125</ele>
        <time>2019-11-02T13:52:31Z</time>
      </trkpt>
      <trkpt lat="38.540531750768423" lon="-2.524121962487698">
        <ele>1318.800048828125</ele>
        <time>2019-11-02T13:52:33Z</time>
      </trkpt>
      <trkpt lat="38.540609953925014" lon="-2.524125734344125">
        <ele>1318.4000244140625</ele>
        <time>2019-11-02T13:52:34Z</time>
      </trkpt>
      <trkpt lat="38.540766024962068" lon="-2.524118106812239">
        <ele>1317</ele>
        <time>2019-11-02T13:52:36Z</time>
      </trkpt>
      <trkpt lat="38.540927041321993" lon="-2.524111988022923">
        <ele>1316.199951171875</ele>
        <time>2019-11-02T13:52:38Z</time>
      </trkpt>
      <trkpt lat="38.541000969707966" lon="-2.524107880890369">
        <ele>1315.800048828125</ele>
        <time>2019-11-02T13:52:39Z</time>
      </trkpt>
      <trkpt lat="38.541120495647192" lon="-2.524103354662657">
        <ele>1315.4000244140625</ele>
        <time>2019-11-02T13:52:41Z</time>
      </trkpt>
      <trkpt lat="38.541214289143682" lon="-2.524108635261655">
        <ele>1314.5999755859375</ele>
        <time>2019-11-02T13:52:43Z</time>
      </trkpt>
      <trkpt lat="38.541289307177067" lon="-2.52412548288703">
        <ele>1314.199951171875</ele>
        <time>2019-11-02T13:52:45Z</time>
      </trkpt>
      <trkpt lat="38.541342113167048" lon="-2.524196896702051">
        <ele>1313.5999755859375</ele>
        <time>2019-11-02T13:52:48Z</time>
      </trkpt>
      <trkpt lat="38.541340101510286" lon="-2.524236710742116">
        <ele>1313.4000244140625</ele>
        <time>2019-11-02T13:52:49Z</time>
      </trkpt>
      <trkpt lat="38.541260808706284" lon="-2.52434735186398">
        <ele>1312.800048828125</ele>
        <time>2019-11-02T13:52:52Z</time>
      </trkpt>
      <trkpt lat="38.541216216981411" lon="-2.524377945810556">
        <ele>1312.199951171875</ele>
        <time>2019-11-02T13:52:53Z</time>
      </trkpt>
      <trkpt lat="38.54110574349761" lon="-2.524444665759802">
        <ele>1311</ele>
        <time>2019-11-02T13:52:55Z</time>
      </trkpt>
      <trkpt lat="38.541046902537346" lon="-2.524487162008882">
        <ele>1310.5999755859375</ele>
        <time>2019-11-02T13:52:56Z</time>
      </trkpt>
      <trkpt lat="38.540989570319653" lon="-2.524533346295357">
        <ele>1309.5999755859375</ele>
        <time>2019-11-02T13:52:57Z</time>
      </trkpt>
      <trkpt lat="38.540878761559725" lon="-2.524639125913382">
        <ele>1308</ele>
        <time>2019-11-02T13:52:59Z</time>
      </trkpt>
      <trkpt lat="38.540779436007142" lon="-2.524783546105027">
        <ele>1306.800048828125</ele>
        <time>2019-11-02T13:53:01Z</time>
      </trkpt>
      <trkpt lat="38.540690336376429" lon="-2.52494690939784">
        <ele>1305.4000244140625</ele>
        <time>2019-11-02T13:53:03Z</time>
      </trkpt>
      <trkpt lat="38.540632165968418" lon="-2.525034667924047">
        <ele>1304.5999755859375</ele>
        <time>2019-11-02T13:53:04Z</time>
      </trkpt>
      <trkpt lat="38.540565613657236" lon="-2.525118067860603">
        <ele>1303.5999755859375</ele>
        <time>2019-11-02T13:53:05Z</time>
      </trkpt>
      <trkpt lat="38.54049788787961" lon="-2.525189984589815">
        <ele>1302.5999755859375</ele>
        <time>2019-11-02T13:53:06Z</time>
      </trkpt>
      <trkpt lat="38.540370231494308" lon="-2.525331974029541">
        <ele>1301.199951171875</ele>
        <time>2019-11-02T13:53:08Z</time>
      </trkpt>
      <trkpt lat="38.540312564000487" lon="-2.52541545778513">
        <ele>1300.4000244140625</ele>
        <time>2019-11-02T13:53:09Z</time>
      </trkpt>
      <trkpt lat="38.540258836001158" lon="-2.52550732344389">
        <ele>1299.4000244140625</ele>
        <time>2019-11-02T13:53:10Z</time>
      </trkpt>
      <trkpt lat="38.540206365287304" lon="-2.525607151910663">
        <ele>1298</ele>
        <time>2019-11-02T13:53:11Z</time>
      </trkpt>
      <trkpt lat="38.540154984220862" lon="-2.525708992034197">
        <ele>1297</ele>
        <time>2019-11-02T13:53:12Z</time>
      </trkpt>
      <trkpt lat="38.540060101076961" lon="-2.525911750271916">
        <ele>1295.199951171875</ele>
        <time>2019-11-02T13:53:14Z</time>
      </trkpt>
      <trkpt lat="38.540014335885644" lon="-2.526010656729341">
        <ele>1294.199951171875</ele>
        <time>2019-11-02T13:53:15Z</time>
      </trkpt>
      <trkpt lat="38.539913753047585" lon="-2.526182988658547">
        <ele>1292.800048828125</ele>
        <time>2019-11-02T13:53:17Z</time>
      </trkpt>
      <trkpt lat="38.539862874895334" lon="-2.526261107996106">
        <ele>1291.5999755859375</ele>
        <time>2019-11-02T13:53:18Z</time>
      </trkpt>
      <trkpt lat="38.539827167987823" lon="-2.526345262303948">
        <ele>1290.199951171875</ele>
        <time>2019-11-02T13:53:19Z</time>
      </trkpt>
      <trkpt lat="38.539789533242583" lon="-2.526518516242504">
        <ele>1289</ele>
        <time>2019-11-02T13:53:21Z</time>
      </trkpt>
      <trkpt lat="38.53978450410068" lon="-2.526604263111949">
        <ele>1288</ele>
        <time>2019-11-02T13:53:22Z</time>
      </trkpt>
      <trkpt lat="38.539794394746423" lon="-2.526693781837821">
        <ele>1287.4000244140625</ele>
        <time>2019-11-02T13:53:23Z</time>
      </trkpt>
      <trkpt lat="38.53984066285193" lon="-2.526846248656511">
        <ele>1286.199951171875</ele>
        <time>2019-11-02T13:53:25Z</time>
      </trkpt>
      <trkpt lat="38.539924900978804" lon="-2.526967786252499">
        <ele>1285.199951171875</ele>
        <time>2019-11-02T13:53:27Z</time>
      </trkpt>
      <trkpt lat="38.539972677826881" lon="-2.527021514251828">
        <ele>1284.5999755859375</ele>
        <time>2019-11-02T13:53:28Z</time>
      </trkpt>
      <trkpt lat="38.540012575685978" lon="-2.527069291099906">
        <ele>1284.4000244140625</ele>
        <time>2019-11-02T13:53:29Z</time>
      </trkpt>
      <trkpt lat="38.540035793557763" lon="-2.527124779298902">
        <ele>1284</ele>
        <time>2019-11-02T13:53:30Z</time>
      </trkpt>
      <trkpt lat="38.540032021701336" lon="-2.52724883146584">
        <ele>1283.199951171875</ele>
        <time>2019-11-02T13:53:32Z</time>
      </trkpt>
      <trkpt lat="38.540003774687648" lon="-2.527321251109242">
        <ele>1282.800048828125</ele>
        <time>2019-11-02T13:53:33Z</time>
      </trkpt>
      <trkpt lat="38.539926996454597" lon="-2.527494253590703">
        <ele>1281</ele>
        <time>2019-11-02T13:53:35Z</time>
      </trkpt>
      <trkpt lat="38.539889194071293" lon="-2.527588466182351">
        <ele>1280.4000244140625</ele>
        <time>2019-11-02T13:53:36Z</time>
      </trkpt>
      <trkpt lat="38.539853822439909" lon="-2.527681002393365">
        <ele>1279.800048828125</ele>
        <time>2019-11-02T13:53:37Z</time>
      </trkpt>
      <trkpt lat="38.539781486615539" lon="-2.527978057041764">
        <ele>1278</ele>
        <time>2019-11-02T13:53:40Z</time>
      </trkpt>
      <trkpt lat="38.539754329249263" lon="-2.528188358992338">
        <ele>1276.4000244140625</ele>
        <time>2019-11-02T13:53:42Z</time>
      </trkpt>
      <trkpt lat="38.539744270965457" lon="-2.528292713686824">
        <ele>1275</ele>
        <time>2019-11-02T13:53:43Z</time>
      </trkpt>
      <trkpt lat="38.539743516594172" lon="-2.528498070314527">
        <ele>1273.4000244140625</ele>
        <time>2019-11-02T13:53:45Z</time>
      </trkpt>
      <trkpt lat="38.539745025336742" lon="-2.528597982600331">
        <ele>1272.800048828125</ele>
        <time>2019-11-02T13:53:46Z</time>
      </trkpt>
      <trkpt lat="38.539744522422552" lon="-2.528697308152914">
        <ele>1272</ele>
        <time>2019-11-02T13:53:47Z</time>
      </trkpt>
      <trkpt lat="38.539739493280649" lon="-2.528796633705497">
        <ele>1270.199951171875</ele>
        <time>2019-11-02T13:53:48Z</time>
      </trkpt>
      <trkpt lat="38.539733709767461" lon="-2.529003331437707">
        <ele>1267.800048828125</ele>
        <time>2019-11-02T13:53:50Z</time>
      </trkpt>
      <trkpt lat="38.539735469967127" lon="-2.529103327542543">
        <ele>1266.800048828125</ele>
        <time>2019-11-02T13:53:51Z</time>
      </trkpt>
      <trkpt lat="38.539742091670632" lon="-2.529208352789283">
        <ele>1265.800048828125</ele>
        <time>2019-11-02T13:53:52Z</time>
      </trkpt>
      <trkpt lat="38.539752988144755" lon="-2.529397364705801">
        <ele>1264.4000244140625</ele>
        <time>2019-11-02T13:53:54Z</time>
      </trkpt>
      <trkpt lat="38.539775535464287" lon="-2.529594004154205">
        <ele>1262.800048828125</ele>
        <time>2019-11-02T13:53:56Z</time>
      </trkpt>
      <trkpt lat="38.539793724194169" lon="-2.529691820964217">
        <ele>1261.5999755859375</ele>
        <time>2019-11-02T13:53:57Z</time>
      </trkpt>
      <trkpt lat="38.539815098047256" lon="-2.529787039384246">
        <ele>1260.5999755859375</ele>
        <time>2019-11-02T13:53:58Z</time>
      </trkpt>
      <trkpt lat="38.539838064461946" lon="-2.529885526746511">
        <ele>1259.199951171875</ele>
        <time>2019-11-02T13:53:59Z</time>
      </trkpt>
      <trkpt lat="38.539892546832561" lon="-2.530097085982561">
        <ele>1257.4000244140625</ele>
        <time>2019-11-02T13:54:01Z</time>
      </trkpt>
      <trkpt lat="38.53992230258882" lon="-2.530214684084058">
        <ele>1256.199951171875</ele>
        <time>2019-11-02T13:54:02Z</time>
      </trkpt>
      <trkpt lat="38.53995356708765" lon="-2.530335718765855">
        <ele>1254.4000244140625</ele>
        <time>2019-11-02T13:54:03Z</time>
      </trkpt>
      <trkpt lat="38.539983574301004" lon="-2.530460860580206">
        <ele>1253</ele>
        <time>2019-11-02T13:54:04Z</time>
      </trkpt>
      <trkpt lat="38.54001265950501" lon="-2.530588349327445">
        <ele>1252</ele>
        <time>2019-11-02T13:54:05Z</time>
      </trkpt>
      <trkpt lat="38.540041409432888" lon="-2.53072103485465">
        <ele>1250.5999755859375</ele>
        <time>2019-11-02T13:54:06Z</time>
      </trkpt>
      <trkpt lat="38.540066638961434" lon="-2.530859420076013">
        <ele>1249</ele>
        <time>2019-11-02T13:54:07Z</time>
      </trkpt>
      <trkpt lat="38.540092706680298" lon="-2.530992859974504">
        <ele>1247.5999755859375</ele>
        <time>2019-11-02T13:54:08Z</time>
      </trkpt>
      <trkpt lat="38.540117768570781" lon="-2.531122611835599">
        <ele>1246.5999755859375</ele>
        <time>2019-11-02T13:54:09Z</time>
      </trkpt>
      <trkpt lat="38.54014023207128" lon="-2.531247334554791">
        <ele>1245.4000244140625</ele>
        <time>2019-11-02T13:54:10Z</time>
      </trkpt>
      <trkpt lat="38.540156409144402" lon="-2.531363926827908">
        <ele>1244</ele>
        <time>2019-11-02T13:54:11Z</time>
      </trkpt>
      <trkpt lat="38.540164791047573" lon="-2.531475657597184">
        <ele>1243.199951171875</ele>
        <time>2019-11-02T13:54:12Z</time>
      </trkpt>
      <trkpt lat="38.540163701400161" lon="-2.531584370881319">
        <ele>1242</ele>
        <time>2019-11-02T13:54:13Z</time>
      </trkpt>
      <trkpt lat="38.54015096090734" lon="-2.531773801892996">
        <ele>1240.5999755859375</ele>
        <time>2019-11-02T13:54:15Z</time>
      </trkpt>
      <trkpt lat="38.540152721107006" lon="-2.53203590400517">
        <ele>1239.5999755859375</ele>
        <time>2019-11-02T13:54:18Z</time>
      </trkpt>
      <trkpt lat="38.540166132152081" lon="-2.532106731086969">
        <ele>1239.4000244140625</ele>
        <time>2019-11-02T13:54:19Z</time>
      </trkpt>
      <trkpt lat="38.540274426341057" lon="-2.532346956431866">
        <ele>1239</ele>
        <time>2019-11-02T13:54:23Z</time>
      </trkpt>
      <trkpt lat="38.540338212624192" lon="-2.532445779070258">
        <ele>1238.800048828125</ele>
        <time>2019-11-02T13:54:25Z</time>
      </trkpt>
      <trkpt lat="38.540429240092635" lon="-2.532562455162406">
        <ele>1238.5999755859375</ele>
        <time>2019-11-02T13:54:28Z</time>
      </trkpt>
      <trkpt lat="38.540458409115672" lon="-2.532595479860902">
        <ele>1238.4000244140625</ele>
        <time>2019-11-02T13:54:29Z</time>
      </trkpt>
      <trkpt lat="38.540621688589454" lon="-2.532774601131678">
        <ele>1237.4000244140625</ele>
        <time>2019-11-02T13:54:34Z</time>
      </trkpt>
      <trkpt lat="38.540856130421162" lon="-2.533056065440178">
        <ele>1236.4000244140625</ele>
        <time>2019-11-02T13:54:41Z</time>
      </trkpt>
      <trkpt lat="38.540882617235184" lon="-2.533099567517638">
        <ele>1236.4000244140625</ele>
        <time>2019-11-02T13:54:42Z</time>
      </trkpt>
      <trkpt lat="38.541014213114977" lon="-2.533331159502268">
        <ele>1235.4000244140625</ele>
        <time>2019-11-02T13:54:47Z</time>
      </trkpt>
      <trkpt lat="38.541043382138014" lon="-2.533383797854185">
        <ele>1235.4000244140625</ele>
        <time>2019-11-02T13:54:48Z</time>
      </trkpt>
      <trkpt lat="38.541069533675909" lon="-2.53344708122313">
        <ele>1235.199951171875</ele>
        <time>2019-11-02T13:54:49Z</time>
      </trkpt>
      <trkpt lat="38.541124267503619" lon="-2.533672135323286">
        <ele>1234.199951171875</ele>
        <time>2019-11-02T13:54:52Z</time>
      </trkpt>
      <trkpt lat="38.541144551709294" lon="-2.533752266317606">
        <ele>1233.4000244140625</ele>
        <time>2019-11-02T13:54:53Z</time>
      </trkpt>
      <trkpt lat="38.541168943047523" lon="-2.533834995701909">
        <ele>1232.800048828125</ele>
        <time>2019-11-02T13:54:54Z</time>
      </trkpt>
      <trkpt lat="38.541200459003448" lon="-2.53391470760107">
        <ele>1232.4000244140625</ele>
        <time>2019-11-02T13:54:55Z</time>
      </trkpt>
      <trkpt lat="38.541276985779405" lon="-2.53406667150557">
        <ele>1232</ele>
        <time>2019-11-02T13:54:57Z</time>
      </trkpt>
      <trkpt lat="38.541359463706613" lon="-2.534218970686197">
        <ele>1231.4000244140625</ele>
        <time>2019-11-02T13:54:59Z</time>
      </trkpt>
      <trkpt lat="38.54149273596704" lon="-2.534428182989359">
        <ele>1229.800048828125</ele>
        <time>2019-11-02T13:55:02Z</time>
      </trkpt>
      <trkpt lat="38.541532382369041" lon="-2.534483084455132">
        <ele>1229.4000244140625</ele>
        <time>2019-11-02T13:55:03Z</time>
      </trkpt>
      <trkpt lat="38.541640928015113" lon="-2.534632785245776">
        <ele>1228.800048828125</ele>
        <time>2019-11-02T13:55:07Z</time>
      </trkpt>
      <trkpt lat="38.541656099259853" lon="-2.534658014774323">
        <ele>1228.800048828125</ele>
        <time>2019-11-02T13:55:08Z</time>
      </trkpt>
      <trkpt lat="38.541751569136977" lon="-2.534784749150276">
        <ele>1228.4000244140625</ele>
        <time>2019-11-02T13:55:13Z</time>
      </trkpt>
      <trkpt lat="38.541921805590391" lon="-2.534982226788998">
        <ele>1228.800048828125</ele>
        <time>2019-11-02T13:55:20Z</time>
      </trkpt>
      <trkpt lat="38.54203462600708" lon="-2.535127401351929">
        <ele>1229.4000244140625</ele>
        <time>2019-11-02T13:55:26Z</time>
      </trkpt>
      <trkpt lat="38.542075613513589" lon="-2.535172076895833">
        <ele>1229.800048828125</ele>
        <time>2019-11-02T13:55:28Z</time>
      </trkpt>
      <trkpt lat="38.542144261300564" lon="-2.535263691097498">
        <ele>1230.800048828125</ele>
        <time>2019-11-02T13:55:32Z</time>
      </trkpt>
      <trkpt lat="38.542178794741631" lon="-2.535295709967613">
        <ele>1231</ele>
        <time>2019-11-02T13:55:34Z</time>
      </trkpt>
      <trkpt lat="38.542267056182027" lon="-2.535377768799663">
        <ele>1231.4000244140625</ele>
        <time>2019-11-02T13:55:39Z</time>
      </trkpt>
      <trkpt lat="38.542316425591707" lon="-2.535424204543233">
        <ele>1232</ele>
        <time>2019-11-02T13:55:42Z</time>
      </trkpt>
      <trkpt lat="38.542392365634441" lon="-2.535489834845066">
        <ele>1232.5999755859375</ele>
        <time>2019-11-02T13:55:47Z</time>
      </trkpt>
      <trkpt lat="38.542457409203053" lon="-2.535531911998987">
        <ele>1233.199951171875</ele>
        <time>2019-11-02T13:55:52Z</time>
      </trkpt>
      <trkpt lat="38.542490769177675" lon="-2.535545323044062">
        <ele>1233.4000244140625</ele>
        <time>2019-11-02T13:55:54Z</time>
      </trkpt>
      <trkpt lat="38.542615324258804" lon="-2.535635847598314">
        <ele>1233.800048828125</ele>
        <time>2019-11-02T13:55:59Z</time>
      </trkpt>
      <trkpt lat="38.542801318690181" lon="-2.535855118185282">
        <ele>1231.800048828125</ele>
        <time>2019-11-02T13:56:04Z</time>
      </trkpt>
      <trkpt lat="38.542848341166973" lon="-2.535914294421673">
        <ele>1231.199951171875</ele>
        <time>2019-11-02T13:56:05Z</time>
      </trkpt>
      <trkpt lat="38.542900811880827" lon="-2.535976823419333">
        <ele>1230.5999755859375</ele>
        <time>2019-11-02T13:56:06Z</time>
      </trkpt>
      <trkpt lat="38.542956048622727" lon="-2.536043794825673">
        <ele>1229.5999755859375</ele>
        <time>2019-11-02T13:56:07Z</time>
      </trkpt>
      <trkpt lat="38.543013799935579" lon="-2.536115292459726">
        <ele>1228.5999755859375</ele>
        <time>2019-11-02T13:56:08Z</time>
      </trkpt>
      <trkpt lat="38.543072892352939" lon="-2.536186622455716">
        <ele>1228</ele>
        <time>2019-11-02T13:56:09Z</time>
      </trkpt>
      <trkpt lat="38.543239524587989" lon="-2.536404803395271">
        <ele>1226.4000244140625</ele>
        <time>2019-11-02T13:56:12Z</time>
      </trkpt>
      <trkpt lat="38.543317979201674" lon="-2.536553665995598">
        <ele>1225.199951171875</ele>
        <time>2019-11-02T13:56:14Z</time>
      </trkpt>
      <trkpt lat="38.543351925909519" lon="-2.536624912172556">
        <ele>1224.199951171875</ele>
        <time>2019-11-02T13:56:15Z</time>
      </trkpt>
      <trkpt lat="38.543384112417698" lon="-2.536699343472719">
        <ele>1223.800048828125</ele>
        <time>2019-11-02T13:56:16Z</time>
      </trkpt>
      <trkpt lat="38.543451670557261" lon="-2.53685524687171">
        <ele>1222.800048828125</ele>
        <time>2019-11-02T13:56:18Z</time>
      </trkpt>
      <trkpt lat="38.543510846793652" lon="-2.536989441141486">
        <ele>1221.5999755859375</ele>
        <time>2019-11-02T13:56:20Z</time>
      </trkpt>
      <trkpt lat="38.543576644733548" lon="-2.537143165245652">
        <ele>1220.5999755859375</ele>
        <time>2019-11-02T13:56:24Z</time>
      </trkpt>
      <trkpt lat="38.543582931160927" lon="-2.537171915173531">
        <ele>1219.800048828125</ele>
        <time>2019-11-02T13:56:28Z</time>
      </trkpt>
      <trkpt lat="38.543583685532212" lon="-2.537168730050325">
        <ele>1219.5999755859375</ele>
        <time>2019-11-02T13:56:29Z</time>
      </trkpt>
      <trkpt lat="38.543586200103164" lon="-2.537189852446318">
        <ele>1218.800048828125</ele>
        <time>2019-11-02T13:56:34Z</time>
      </trkpt>
      <trkpt lat="38.543575974181294" lon="-2.53720753826201">
        <ele>1218.800048828125</ele>
        <time>2019-11-02T13:56:35Z</time>
      </trkpt>
      <trkpt lat="38.543499698862433" lon="-2.537182560190558">
        <ele>1218.5999755859375</ele>
        <time>2019-11-02T13:56:38Z</time>
      </trkpt>
      <trkpt lat="38.543426273390651" lon="-2.53715087659657">
        <ele>1218.5999755859375</ele>
        <time>2019-11-02T13:56:40Z</time>
      </trkpt>
      <trkpt lat="38.543281015008688" lon="-2.537078876048326">
        <ele>1218.4000244140625</ele>
        <time>2019-11-02T13:56:44Z</time>
      </trkpt>
      <trkpt lat="38.543077418580651" lon="-2.536998325958848">
        <ele>1218.800048828125</ele>
        <time>2019-11-02T13:56:50Z</time>
      </trkpt>
      <trkpt lat="38.542761001735926" lon="-2.536887768656015">
        <ele>1218.800048828125</ele>
        <time>2019-11-02T13:56:58Z</time>
      </trkpt>
      <trkpt lat="38.542559500783682" lon="-2.5368747767061">
        <ele>1219.4000244140625</ele>
        <time>2019-11-02T13:57:03Z</time>
      </trkpt>
      <trkpt lat="38.542520105838776" lon="-2.536881314590573">
        <ele>1219.4000244140625</ele>
        <time>2019-11-02T13:57:04Z</time>
      </trkpt>
      <trkpt lat="38.542299326509237" lon="-2.53696127794683">
        <ele>1219.800048828125</ele>
        <time>2019-11-02T13:57:10Z</time>
      </trkpt>
      <trkpt lat="38.542222883552313" lon="-2.537022549659014">
        <ele>1219.5999755859375</ele>
        <time>2019-11-02T13:57:12Z</time>
      </trkpt>
      <trkpt lat="38.542147362604737" lon="-2.537127071991563">
        <ele>1219.5999755859375</ele>
        <time>2019-11-02T13:57:14Z</time>
      </trkpt>
      <trkpt lat="38.54205759242177" lon="-2.537384983152151">
        <ele>1219</ele>
        <time>2019-11-02T13:57:18Z</time>
      </trkpt>
      <trkpt lat="38.541954411193728" lon="-2.537682540714741">
        <ele>1220.4000244140625</ele>
        <time>2019-11-02T13:57:25Z</time>
      </trkpt>
      <trkpt lat="38.541942341253161" lon="-2.537719253450632">
        <ele>1220.5999755859375</ele>
        <time>2019-11-02T13:57:26Z</time>
      </trkpt>
      <trkpt lat="38.541892720386386" lon="-2.537859901785851">
        <ele>1221.5999755859375</ele>
        <time>2019-11-02T13:57:30Z</time>
      </trkpt>
      <trkpt lat="38.541850643232465" lon="-2.538007171824574">
        <ele>1222.800048828125</ele>
        <time>2019-11-02T13:57:34Z</time>
      </trkpt>
      <trkpt lat="38.541836477816105" lon="-2.538045141845942">
        <ele>1223</ele>
        <time>2019-11-02T13:57:35Z</time>
      </trkpt>
      <trkpt lat="38.541790461167693" lon="-2.538194758817554">
        <ele>1223.800048828125</ele>
        <time>2019-11-02T13:57:39Z</time>
      </trkpt>
      <trkpt lat="38.54175416752696" lon="-2.538310261443257">
        <ele>1224.5999755859375</ele>
        <time>2019-11-02T13:57:42Z</time>
      </trkpt>
      <trkpt lat="38.541731452569366" lon="-2.538385028019547">
        <ele>1224.800048828125</ele>
        <time>2019-11-02T13:57:44Z</time>
      </trkpt>
      <trkpt lat="38.541675880551338" lon="-2.538559455424547">
        <ele>1225.4000244140625</ele>
        <time>2019-11-02T13:57:49Z</time>
      </trkpt>
      <trkpt lat="38.541607148945332" lon="-2.538769170641899">
        <ele>1226</ele>
        <time>2019-11-02T13:57:55Z</time>
      </trkpt>
      <trkpt lat="38.541594492271543" lon="-2.538807643577456">
        <ele>1226</ele>
        <time>2019-11-02T13:57:56Z</time>
      </trkpt>
      <trkpt lat="38.541508913040161" lon="-2.539052311331034">
        <ele>1227</ele>
        <time>2019-11-02T13:58:03Z</time>
      </trkpt>
      <trkpt lat="38.541443953290582" lon="-2.539261020720005">
        <ele>1227.800048828125</ele>
        <time>2019-11-02T13:58:09Z</time>
      </trkpt>
      <trkpt lat="38.54141260497272" lon="-2.539365962147713">
        <ele>1228</ele>
        <time>2019-11-02T13:58:12Z</time>
      </trkpt>
      <trkpt lat="38.541366253048182" lon="-2.539551286026835">
        <ele>1228.800048828125</ele>
        <time>2019-11-02T13:58:17Z</time>
      </trkpt>
      <trkpt lat="38.541353009641171" lon="-2.539626304060221">
        <ele>1229.199951171875</ele>
        <time>2019-11-02T13:58:19Z</time>
      </trkpt>
      <trkpt lat="38.541319314390421" lon="-2.539800480008125">
        <ele>1230.199951171875</ele>
        <time>2019-11-02T13:58:24Z</time>
      </trkpt>
      <trkpt lat="38.541298359632492" lon="-2.540035927668214">
        <ele>1231.199951171875</ele>
        <time>2019-11-02T13:58:31Z</time>
      </trkpt>
      <trkpt lat="38.541297186166048" lon="-2.540067778900266">
        <ele>1231.199951171875</ele>
        <time>2019-11-02T13:58:32Z</time>
      </trkpt>
      <trkpt lat="38.541296515613794" lon="-2.540195686742663">
        <ele>1232.5999755859375</ele>
        <time>2019-11-02T13:58:36Z</time>
      </trkpt>
      <trkpt lat="38.541297689080238" lon="-2.540327282622457">
        <ele>1233.4000244140625</ele>
        <time>2019-11-02T13:58:40Z</time>
      </trkpt>
      <trkpt lat="38.541300874203444" lon="-2.54036114551127">
        <ele>1233.800048828125</ele>
        <time>2019-11-02T13:58:41Z</time>
      </trkpt>
      <trkpt lat="38.541332054883242" lon="-2.540548145771027">
        <ele>1234.800048828125</ele>
        <time>2019-11-02T13:58:47Z</time>
      </trkpt>
      <trkpt lat="38.541336664929986" lon="-2.540577817708254">
        <ele>1235</ele>
        <time>2019-11-02T13:58:48Z</time>
      </trkpt>
      <trkpt lat="38.541349237784743" lon="-2.540688207373023">
        <ele>1236</ele>
        <time>2019-11-02T13:58:52Z</time>
      </trkpt>
      <trkpt lat="38.541354350745678" lon="-2.540806056931615">
        <ele>1236.4000244140625</ele>
        <time>2019-11-02T13:58:56Z</time>
      </trkpt>
      <trkpt lat="38.541341107338667" lon="-2.541007725521922">
        <ele>1237</ele>
        <time>2019-11-02T13:59:02Z</time>
      </trkpt>
      <trkpt lat="38.541337000206113" lon="-2.541073188185692">
        <ele>1237</ele>
        <time>2019-11-02T13:59:04Z</time>
      </trkpt>
      <trkpt lat="38.541319146752357" lon="-2.541273180395365">
        <ele>1237.800048828125</ele>
        <time>2019-11-02T13:59:10Z</time>
      </trkpt>
      <trkpt lat="38.541303975507617" lon="-2.541369404643774">
        <ele>1238</ele>
        <time>2019-11-02T13:59:13Z</time>
      </trkpt>
      <trkpt lat="38.541282769292593" lon="-2.541540479287505">
        <ele>1239.199951171875</ele>
        <time>2019-11-02T13:59:18Z</time>
      </trkpt>
      <trkpt lat="38.541245805099607" lon="-2.54184365272522">
        <ele>1239.800048828125</ele>
        <time>2019-11-02T13:59:27Z</time>
      </trkpt>
      <trkpt lat="38.541222419589758" lon="-2.54197365604341">
        <ele>1240.4000244140625</ele>
        <time>2019-11-02T13:59:31Z</time>
      </trkpt>
      <trkpt lat="38.541215127333999" lon="-2.542068539187312">
        <ele>1241.199951171875</ele>
        <time>2019-11-02T13:59:34Z</time>
      </trkpt>
      <trkpt lat="38.541211606934667" lon="-2.542134504765272">
        <ele>1241.4000244140625</ele>
        <time>2019-11-02T13:59:36Z</time>
      </trkpt>
      <trkpt lat="38.541229208931327" lon="-2.542307674884796">
        <ele>1241.800048828125</ele>
        <time>2019-11-02T13:59:41Z</time>
      </trkpt>
      <trkpt lat="38.541264999657869" lon="-2.542402977123857">
        <ele>1242.5999755859375</ele>
        <time>2019-11-02T13:59:44Z</time>
      </trkpt>
      <trkpt lat="38.541311267763376" lon="-2.542492244392633">
        <ele>1243.5999755859375</ele>
        <time>2019-11-02T13:59:47Z</time>
      </trkpt>
      <trkpt lat="38.541326941922307" lon="-2.54251847974956">
        <ele>1243.5999755859375</ele>
        <time>2019-11-02T13:59:48Z</time>
      </trkpt>
      <trkpt lat="38.541420986875892" lon="-2.542671449482441">
        <ele>1244.5999755859375</ele>
        <time>2019-11-02T13:59:54Z</time>
      </trkpt>
      <trkpt lat="38.541524419561028" lon="-2.542857024818659">
        <ele>1245.4000244140625</ele>
        <time>2019-11-02T14:00:00Z</time>
      </trkpt>
      <trkpt lat="38.541557695716619" lon="-2.542923158034682">
        <ele>1245.800048828125</ele>
        <time>2019-11-02T14:00:02Z</time>
      </trkpt>
      <trkpt lat="38.541674539446831" lon="-2.543141338974237">
        <ele>1246.4000244140625</ele>
        <time>2019-11-02T14:00:09Z</time>
      </trkpt>
      <trkpt lat="38.541709994897246" lon="-2.543206131085753">
        <ele>1247</ele>
        <time>2019-11-02T14:00:11Z</time>
      </trkpt>
      <trkpt lat="38.54183035902679" lon="-2.543410900980234">
        <ele>1247.5999755859375</ele>
        <time>2019-11-02T14:00:18Z</time>
      </trkpt>
      <trkpt lat="38.541880398988724" lon="-2.543504694476724">
        <ele>1248</ele>
        <time>2019-11-02T14:00:21Z</time>
      </trkpt>
      <trkpt lat="38.541958099231124" lon="-2.543653892353177">
        <ele>1248.4000244140625</ele>
        <time>2019-11-02T14:00:26Z</time>
      </trkpt>
      <trkpt lat="38.542080726474524" lon="-2.543843071907759">
        <ele>1248.800048828125</ele>
        <time>2019-11-02T14:00:34Z</time>
      </trkpt>
      <trkpt lat="38.542095981538296" lon="-2.543867044150829">
        <ele>1249</ele>
        <time>2019-11-02T14:00:35Z</time>
      </trkpt>
      <trkpt lat="38.5421890206635" lon="-2.544013056904078">
        <ele>1250.199951171875</ele>
        <time>2019-11-02T14:00:41Z</time>
      </trkpt>
      <trkpt lat="38.542216010391712" lon="-2.544063096866012">
        <ele>1250.5999755859375</ele>
        <time>2019-11-02T14:00:43Z</time>
      </trkpt>
      <trkpt lat="38.542298404499888" lon="-2.544220006093383">
        <ele>1251.4000244140625</ele>
        <time>2019-11-02T14:00:49Z</time>
      </trkpt>
      <trkpt lat="38.542335452511907" lon="-2.544342465698719">
        <ele>1252.199951171875</ele>
        <time>2019-11-02T14:00:53Z</time>
      </trkpt>
      <trkpt lat="38.542352300137281" lon="-2.544405413791537">
        <ele>1252.4000244140625</ele>
        <time>2019-11-02T14:00:55Z</time>
      </trkpt>
      <trkpt lat="38.542394125834107" lon="-2.544557210057974">
        <ele>1253.199951171875</ele>
        <time>2019-11-02T14:01:00Z</time>
      </trkpt>
      <trkpt lat="38.542408626526594" lon="-2.544618649408221">
        <ele>1253.4000244140625</ele>
        <time>2019-11-02T14:01:02Z</time>
      </trkpt>
      <trkpt lat="38.542432012036443" lon="-2.544839009642601">
        <ele>1254.5999755859375</ele>
        <time>2019-11-02T14:01:09Z</time>
      </trkpt>
      <trkpt lat="38.542432766407728" lon="-2.544871950522065">
        <ele>1254.5999755859375</ele>
        <time>2019-11-02T14:01:10Z</time>
      </trkpt>
      <trkpt lat="38.542433688417077" lon="-2.54518048837781">
        <ele>1255</ele>
        <time>2019-11-02T14:01:19Z</time>
      </trkpt>
      <trkpt lat="38.54242455214262" lon="-2.545497324317694">
        <ele>1255</ele>
        <time>2019-11-02T14:01:27Z</time>
      </trkpt>
      <trkpt lat="38.542408877983689" lon="-2.545778704807162">
        <ele>1255</ele>
        <time>2019-11-02T14:01:34Z</time>
      </trkpt>
      <trkpt lat="38.542383145540953" lon="-2.546004680916667">
        <ele>1255.199951171875</ele>
        <time>2019-11-02T14:01:41Z</time>
      </trkpt>
      <trkpt lat="38.542315000668168" lon="-2.546324701979756">
        <ele>1254.4000244140625</ele>
        <time>2019-11-02T14:01:50Z</time>
      </trkpt>
      <trkpt lat="38.542245514690876" lon="-2.546537350863218">
        <ele>1254</ele>
        <time>2019-11-02T14:01:56Z</time>
      </trkpt>
      <trkpt lat="38.542221542447805" lon="-2.546636089682579">
        <ele>1253.5999755859375</ele>
        <time>2019-11-02T14:01:59Z</time>
      </trkpt>
      <trkpt lat="38.542189439758658" lon="-2.546754777431488">
        <ele>1253</ele>
        <time>2019-11-02T14:02:04Z</time>
      </trkpt>
      <trkpt lat="38.542187763378024" lon="-2.546767350286245">
        <ele>1252.5999755859375</ele>
        <time>2019-11-02T14:02:09Z</time>
      </trkpt>
      <trkpt lat="38.542188098654151" lon="-2.546767853200436">
        <ele>1252.5999755859375</ele>
        <time>2019-11-02T14:02:10Z</time>
      </trkpt>
      <trkpt lat="38.542169239372015" lon="-2.546801632270217">
        <ele>1252</ele>
        <time>2019-11-02T14:02:22Z</time>
      </trkpt>
      <trkpt lat="38.542107380926609" lon="-2.54691906273365">
        <ele>1252.4000244140625</ele>
        <time>2019-11-02T14:02:27Z</time>
      </trkpt>
      <trkpt lat="38.541972935199738" lon="-2.547143865376711">
        <ele>1251.800048828125</ele>
        <time>2019-11-02T14:02:34Z</time>
      </trkpt>
      <trkpt lat="38.541949465870857" lon="-2.547175213694572">
        <ele>1251.5999755859375</ele>
        <time>2019-11-02T14:02:35Z</time>
      </trkpt>
      <trkpt lat="38.541795574128628" lon="-2.547345031052828">
        <ele>1250.5999755859375</ele>
        <time>2019-11-02T14:02:41Z</time>
      </trkpt>
      <trkpt lat="38.541606729850173" lon="-2.547504035755992">
        <ele>1249.5999755859375</ele>
        <time>2019-11-02T14:02:48Z</time>
      </trkpt>
      <trkpt lat="38.541581332683563" lon="-2.547524990513921">
        <ele>1249.4000244140625</ele>
        <time>2019-11-02T14:02:49Z</time>
      </trkpt>
      <trkpt lat="38.541344124823809" lon="-2.547665806487203">
        <ele>1248.5999755859375</ele>
        <time>2019-11-02T14:02:57Z</time>
      </trkpt>
      <trkpt lat="38.541264664381742" lon="-2.547701932489872">
        <ele>1248.4000244140625</ele>
        <time>2019-11-02T14:02:59Z</time>
      </trkpt>
      <trkpt lat="38.541224012151361" lon="-2.547723641619086">
        <ele>1248.4000244140625</ele>
        <time>2019-11-02T14:03:00Z</time>
      </trkpt>
      <trkpt lat="38.541120998561382" lon="-2.547801090404391">
        <ele>1248.4000244140625</ele>
        <time>2019-11-02T14:03:03Z</time>
      </trkpt>
      <trkpt lat="38.540934165939689" lon="-2.547977026551962">
        <ele>1248.800048828125</ele>
        <time>2019-11-02T14:03:10Z</time>
      </trkpt>
      <trkpt lat="38.540729060769081" lon="-2.548105018213391">
        <ele>1248</ele>
        <time>2019-11-02T14:03:17Z</time>
      </trkpt>
      <trkpt lat="38.540652031078935" lon="-2.548139551654458">
        <ele>1247.199951171875</ele>
        <time>2019-11-02T14:03:19Z</time>
      </trkpt>
      <trkpt lat="38.540502414107323" lon="-2.548214066773653">
        <ele>1246</ele>
        <time>2019-11-02T14:03:24Z</time>
      </trkpt>
      <trkpt lat="38.540246095508337" lon="-2.548295790329576">
        <ele>1245.800048828125</ele>
        <time>2019-11-02T14:03:32Z</time>
      </trkpt>
      <trkpt lat="38.540003942325711" lon="-2.548324540257454">
        <ele>1247</ele>
        <time>2019-11-02T14:03:39Z</time>
      </trkpt>
      <trkpt lat="38.539968905970454" lon="-2.548324959352612">
        <ele>1247.199951171875</ele>
        <time>2019-11-02T14:03:40Z</time>
      </trkpt>
      <trkpt lat="38.539770757779479" lon="-2.548299226909876">
        <ele>1246.5999755859375</ele>
        <time>2019-11-02T14:03:46Z</time>
      </trkpt>
      <trkpt lat="38.539696661755443" lon="-2.548286905512214">
        <ele>1246</ele>
        <time>2019-11-02T14:03:48Z</time>
      </trkpt>
      <trkpt lat="38.539537154138088" lon="-2.54828623495996">
        <ele>1245.4000244140625</ele>
        <time>2019-11-02T14:03:52Z</time>
      </trkpt>
      <trkpt lat="38.539462219923735" lon="-2.54830626770854">
        <ele>1245.4000244140625</ele>
        <time>2019-11-02T14:03:54Z</time>
      </trkpt>
      <trkpt lat="38.539274213835597" lon="-2.548391008749604">
        <ele>1245</ele>
        <time>2019-11-02T14:03:59Z</time>
      </trkpt>
      <trkpt lat="38.539183856919408" lon="-2.548430236056447">
        <ele>1245</ele>
        <time>2019-11-02T14:04:01Z</time>
      </trkpt>
      <trkpt lat="38.539132811129093" lon="-2.54844699986279">
        <ele>1244.800048828125</ele>
        <time>2019-11-02T14:04:02Z</time>
      </trkpt>
      <trkpt lat="38.538966933265328" lon="-2.548469379544258">
        <ele>1243.5999755859375</ele>
        <time>2019-11-02T14:04:05Z</time>
      </trkpt>
      <trkpt lat="38.538916306570172" lon="-2.548461416736245">
        <ele>1243</ele>
        <time>2019-11-02T14:04:06Z</time>
      </trkpt>
      <trkpt lat="38.538866518065333" lon="-2.548445658758283">
        <ele>1242.199951171875</ele>
        <time>2019-11-02T14:04:07Z</time>
      </trkpt>
      <trkpt lat="38.538817316293716" lon="-2.548423614352942">
        <ele>1241.199951171875</ele>
        <time>2019-11-02T14:04:08Z</time>
      </trkpt>
      <trkpt lat="38.538724109530449" lon="-2.548356223851442">
        <ele>1239.199951171875</ele>
        <time>2019-11-02T14:04:10Z</time>
      </trkpt>
      <trkpt lat="38.53867381811142" lon="-2.548309788107872">
        <ele>1238.5999755859375</ele>
        <time>2019-11-02T14:04:11Z</time>
      </trkpt>
      <trkpt lat="38.538628136739135" lon="-2.548261256888509">
        <ele>1238.199951171875</ele>
        <time>2019-11-02T14:04:12Z</time>
      </trkpt>
      <trkpt lat="38.538549346849322" lon="-2.548160422593355">
        <ele>1236.5999755859375</ele>
        <time>2019-11-02T14:04:14Z</time>
      </trkpt>
      <trkpt lat="38.538511963561177" lon="-2.548105102032423">
        <ele>1236</ele>
        <time>2019-11-02T14:04:15Z</time>
      </trkpt>
      <trkpt lat="38.538476256653666" lon="-2.548044333234429">
        <ele>1235</ele>
        <time>2019-11-02T14:04:16Z</time>
      </trkpt>
      <trkpt lat="38.538440382108092" lon="-2.547979289665818">
        <ele>1234</ele>
        <time>2019-11-02T14:04:17Z</time>
      </trkpt>
      <trkpt lat="38.538363855332136" lon="-2.547831432893872">
        <ele>1232.800048828125</ele>
        <time>2019-11-02T14:04:19Z</time>
      </trkpt>
      <trkpt lat="38.538324292749166" lon="-2.547752559185028">
        <ele>1232.5999755859375</ele>
        <time>2019-11-02T14:04:20Z</time>
      </trkpt>
      <trkpt lat="38.538244664669037" lon="-2.547611743211746">
        <ele>1231.800048828125</ele>
        <time>2019-11-02T14:04:22Z</time>
      </trkpt>
      <trkpt lat="38.538147518411279" lon="-2.54750688560307">
        <ele>1231</ele>
        <time>2019-11-02T14:04:24Z</time>
      </trkpt>
      <trkpt lat="38.537956159561872" lon="-2.547384593635798">
        <ele>1231</ele>
        <time>2019-11-02T14:04:28Z</time>
      </trkpt>
      <trkpt lat="38.537803189828992" lon="-2.547261631116271">
        <ele>1231.5999755859375</ele>
        <time>2019-11-02T14:04:33Z</time>
      </trkpt>
      <trkpt lat="38.537678299471736" lon="-2.54713405855">
        <ele>1231.5999755859375</ele>
        <time>2019-11-02T14:04:37Z</time>
      </trkpt>
      <trkpt lat="38.53762716986239" lon="-2.547062309458852">
        <ele>1231.5999755859375</ele>
        <time>2019-11-02T14:04:39Z</time>
      </trkpt>
      <trkpt lat="38.537604371085763" lon="-2.547030709683895">
        <ele>1231.5999755859375</ele>
        <time>2019-11-02T14:04:40Z</time>
      </trkpt>
      <trkpt lat="38.537462465465069" lon="-2.546801045536995">
        <ele>1231.5999755859375</ele>
        <time>2019-11-02T14:04:47Z</time>
      </trkpt>
      <trkpt lat="38.537347801029682" lon="-2.546718651428819">
        <ele>1232.199951171875</ele>
        <time>2019-11-02T14:04:51Z</time>
      </trkpt>
      <trkpt lat="38.537174295634031" lon="-2.546568112447858">
        <ele>1232.800048828125</ele>
        <time>2019-11-02T14:04:57Z</time>
      </trkpt>
      <trkpt lat="38.537145210430026" lon="-2.546537099406123">
        <ele>1232.800048828125</ele>
        <time>2019-11-02T14:04:58Z</time>
      </trkpt>
      <trkpt lat="38.536963993683457" lon="-2.546398295089602">
        <ele>1233.199951171875</ele>
        <time>2019-11-02T14:05:04Z</time>
      </trkpt>
      <trkpt lat="38.536932142451406" lon="-2.546406509354711">
        <ele>1233.199951171875</ele>
        <time>2019-11-02T14:05:05Z</time>
      </trkpt>
      <trkpt lat="38.536885706707835" lon="-2.546449592337012">
        <ele>1233.199951171875</ele>
        <time>2019-11-02T14:05:07Z</time>
      </trkpt>
      <trkpt lat="38.536859219893813" lon="-2.546590575948358">
        <ele>1233.199951171875</ele>
        <time>2019-11-02T14:05:12Z</time>
      </trkpt>
      <trkpt lat="38.536853268742561" lon="-2.546646064147353">
        <ele>1233.4000244140625</ele>
        <time>2019-11-02T14:05:14Z</time>
      </trkpt>
      <trkpt lat="38.536824937909842" lon="-2.546741114929318">
        <ele>1233.800048828125</ele>
        <time>2019-11-02T14:05:18Z</time>
      </trkpt>
      <trkpt lat="38.536813789978623" lon="-2.54675536416471">
        <ele>1233.800048828125</ele>
        <time>2019-11-02T14:05:19Z</time>
      </trkpt>
      <trkpt lat="38.536737011745572" lon="-2.546847816556692">
        <ele>1234.800048828125</ele>
        <time>2019-11-02T14:05:25Z</time>
      </trkpt>
      <trkpt lat="38.536730976775289" lon="-2.54701042547822">
        <ele>1235.4000244140625</ele>
        <time>2019-11-02T14:05:31Z</time>
      </trkpt>
      <trkpt lat="38.536744052544236" lon="-2.5470338948071">
        <ele>1235.800048828125</ele>
        <time>2019-11-02T14:05:32Z</time>
      </trkpt>
      <trkpt lat="38.536813035607338" lon="-2.547096759080887">
        <ele>1236.5999755859375</ele>
        <time>2019-11-02T14:05:36Z</time>
      </trkpt>
      <trkpt lat="38.536832230165601" lon="-2.547107068821788">
        <ele>1236.800048828125</ele>
        <time>2019-11-02T14:05:37Z</time>
      </trkpt>
      <trkpt lat="38.536925353109837" lon="-2.547164568677545">
        <ele>1237.199951171875</ele>
        <time>2019-11-02T14:05:42Z</time>
      </trkpt>
      <trkpt lat="38.537019062787294" lon="-2.547276802361012">
        <ele>1237.4000244140625</ele>
        <time>2019-11-02T14:05:48Z</time>
      </trkpt>
      <trkpt lat="38.53706574998796" lon="-2.547364812344313">
        <ele>1237.800048828125</ele>
        <time>2019-11-02T14:05:52Z</time>
      </trkpt>
      <trkpt lat="38.537088297307491" lon="-2.547416277229786">
        <ele>1238</ele>
        <time>2019-11-02T14:05:54Z</time>
      </trkpt>
      <trkpt lat="38.537138756364584" lon="-2.547538401558995">
        <ele>1238.800048828125</ele>
        <time>2019-11-02T14:05:59Z</time>
      </trkpt>
      <trkpt lat="38.537172535434365" lon="-2.547633703798056">
        <ele>1239.199951171875</ele>
        <time>2019-11-02T14:06:03Z</time>
      </trkpt>
      <trkpt lat="38.537238165736198" lon="-2.547825817018747">
        <ele>1239.5999755859375</ele>
        <time>2019-11-02T14:06:11Z</time>
      </trkpt>
      <trkpt lat="38.537254510447383" lon="-2.547878539189696">
        <ele>1239.800048828125</ele>
        <time>2019-11-02T14:06:13Z</time>
      </trkpt>
      <trkpt lat="38.537283930927515" lon="-2.548038717359304">
        <ele>1240.5999755859375</ele>
        <time>2019-11-02T14:06:19Z</time>
      </trkpt>
      <trkpt lat="38.537287954241037" lon="-2.54806587472558">
        <ele>1241</ele>
        <time>2019-11-02T14:06:20Z</time>
      </trkpt>
      <trkpt lat="38.537295078858733" lon="-2.548205433413386">
        <ele>1242</ele>
        <time>2019-11-02T14:06:25Z</time>
      </trkpt>
      <trkpt lat="38.537291139364243" lon="-2.548266118392348">
        <ele>1242.199951171875</ele>
        <time>2019-11-02T14:06:27Z</time>
      </trkpt>
      <trkpt lat="38.537293570116162" lon="-2.548501649871469">
        <ele>1243.199951171875</ele>
        <time>2019-11-02T14:06:34Z</time>
      </trkpt>
      <trkpt lat="38.537296336144209" lon="-2.548535177484155">
        <ele>1243.4000244140625</ele>
        <time>2019-11-02T14:06:35Z</time>
      </trkpt>
      <trkpt lat="38.537335814908147" lon="-2.548800632357597">
        <ele>1244</ele>
        <time>2019-11-02T14:06:43Z</time>
      </trkpt>
      <trkpt lat="38.537358865141869" lon="-2.548928875476122">
        <ele>1244.199951171875</ele>
        <time>2019-11-02T14:06:47Z</time>
      </trkpt>
      <trkpt lat="38.537387866526842" lon="-2.549056112766266">
        <ele>1244.5999755859375</ele>
        <time>2019-11-02T14:06:51Z</time>
      </trkpt>
      <trkpt lat="38.537408653646708" lon="-2.54921268671751">
        <ele>1245.199951171875</ele>
        <time>2019-11-02T14:06:56Z</time>
      </trkpt>
      <trkpt lat="38.537414520978928" lon="-2.549363225698471">
        <ele>1246.4000244140625</ele>
        <time>2019-11-02T14:07:01Z</time>
      </trkpt>
      <trkpt lat="38.537384010851383" lon="-2.549558524042368">
        <ele>1247.4000244140625</ele>
        <time>2019-11-02T14:07:08Z</time>
      </trkpt>
      <trkpt lat="38.537377472966909" lon="-2.549585849046707">
        <ele>1247.4000244140625</ele>
        <time>2019-11-02T14:07:09Z</time>
      </trkpt>
      <trkpt lat="38.53734084405005" lon="-2.549707889556885">
        <ele>1248.4000244140625</ele>
        <time>2019-11-02T14:07:14Z</time>
      </trkpt>
      <trkpt lat="38.537306813523173" lon="-2.549775866791606">
        <ele>1249</ele>
        <time>2019-11-02T14:07:17Z</time>
      </trkpt>
      <trkpt lat="38.53718938305974" lon="-2.549954988062382">
        <ele>1249.5999755859375</ele>
        <time>2019-11-02T14:07:26Z</time>
      </trkpt>
      <trkpt lat="38.53706382215023" lon="-2.550084823742509">
        <ele>1250.5999755859375</ele>
        <time>2019-11-02T14:07:34Z</time>
      </trkpt>
      <trkpt lat="38.537048483267426" lon="-2.550102090463042">
        <ele>1250.800048828125</ele>
        <time>2019-11-02T14:07:35Z</time>
      </trkpt>
      <trkpt lat="38.536967094987631" lon="-2.550176437944174">
        <ele>1251.800048828125</ele>
        <time>2019-11-02T14:07:40Z</time>
      </trkpt>
      <trkpt lat="38.536933902651072" lon="-2.550211641937494">
        <ele>1252.4000244140625</ele>
        <time>2019-11-02T14:07:42Z</time>
      </trkpt>
      <trkpt lat="38.53680188767612" lon="-2.550308117642999">
        <ele>1253</ele>
        <time>2019-11-02T14:07:49Z</time>
      </trkpt>
      <trkpt lat="38.536659479141235" lon="-2.550405347719789">
        <ele>1253.5999755859375</ele>
        <time>2019-11-02T14:07:56Z</time>
      </trkpt>
      <trkpt lat="38.536563087254763" lon="-2.550474666059017">
        <ele>1254</ele>
        <time>2019-11-02T14:08:01Z</time>
      </trkpt>
      <trkpt lat="38.536528889089823" lon="-2.550507271662354">
        <ele>1254.199951171875</ele>
        <time>2019-11-02T14:08:03Z</time>
      </trkpt>
      <trkpt lat="38.536377511918545" lon="-2.55062822252512">
        <ele>1255</ele>
        <time>2019-11-02T14:08:11Z</time>
      </trkpt>
      <trkpt lat="38.536358736455441" lon="-2.550643896684051">
        <ele>1255.199951171875</ele>
        <time>2019-11-02T14:08:12Z</time>
      </trkpt>
      <trkpt lat="38.536306517198682" lon="-2.550795525312424">
        <ele>1255.800048828125</ele>
        <time>2019-11-02T14:08:18Z</time>
      </trkpt>
      <trkpt lat="38.536336272954941" lon="-2.550878254696727">
        <ele>1256.199951171875</ele>
        <time>2019-11-02T14:08:21Z</time>
      </trkpt>
      <trkpt lat="38.53637189604342" lon="-2.550951847806573">
        <ele>1257.199951171875</ele>
        <time>2019-11-02T14:08:24Z</time>
      </trkpt>
      <trkpt lat="38.536395113915205" lon="-2.55099811591208">
        <ele>1257.4000244140625</ele>
        <time>2019-11-02T14:08:26Z</time>
      </trkpt>
      <trkpt lat="38.536445908248425" lon="-2.551122922450304">
        <ele>1258.199951171875</ele>
        <time>2019-11-02T14:08:31Z</time>
      </trkpt>
      <trkpt lat="38.536473400890827" lon="-2.551198359578848">
        <ele>1259.199951171875</ele>
        <time>2019-11-02T14:08:34Z</time>
      </trkpt>
      <trkpt lat="38.536481615155935" lon="-2.551222499459982">
        <ele>1259.4000244140625</ele>
        <time>2019-11-02T14:08:35Z</time>
      </trkpt>
      <trkpt lat="38.536519920453429" lon="-2.551319478079677">
        <ele>1260.4000244140625</ele>
        <time>2019-11-02T14:08:39Z</time>
      </trkpt>
      <trkpt lat="38.536563171073794" lon="-2.551423916593194">
        <ele>1261</ele>
        <time>2019-11-02T14:08:43Z</time>
      </trkpt>
      <trkpt lat="38.536632908508182" lon="-2.551535563543439">
        <ele>1261.5999755859375</ele>
        <time>2019-11-02T14:08:48Z</time>
      </trkpt>
      <trkpt lat="38.536691078916192" lon="-2.551627093926072">
        <ele>1262.4000244140625</ele>
        <time>2019-11-02T14:08:52Z</time>
      </trkpt>
      <trkpt lat="38.536738520488143" lon="-2.551705967634916">
        <ele>1262.5999755859375</ele>
        <time>2019-11-02T14:08:55Z</time>
      </trkpt>
      <trkpt lat="38.536806413903832" lon="-2.551852483302355">
        <ele>1262.800048828125</ele>
        <time>2019-11-02T14:09:00Z</time>
      </trkpt>
      <trkpt lat="38.536855112761259" lon="-2.552005704492331">
        <ele>1263.5999755859375</ele>
        <time>2019-11-02T14:09:05Z</time>
      </trkpt>
      <trkpt lat="38.536867517977953" lon="-2.552136294543743">
        <ele>1264.4000244140625</ele>
        <time>2019-11-02T14:09:09Z</time>
      </trkpt>
      <trkpt lat="38.536853939294815" lon="-2.552200583741069">
        <ele>1264.800048828125</ele>
        <time>2019-11-02T14:09:11Z</time>
      </trkpt>
      <trkpt lat="38.536837846040726" lon="-2.552326731383801">
        <ele>1265.4000244140625</ele>
        <time>2019-11-02T14:09:15Z</time>
      </trkpt>
      <trkpt lat="38.53680482134223" lon="-2.552554719150066">
        <ele>1265.800048828125</ele>
        <time>2019-11-02T14:09:23Z</time>
      </trkpt>
      <trkpt lat="38.536823680624366" lon="-2.552727051079273">
        <ele>1266.4000244140625</ele>
        <time>2019-11-02T14:09:29Z</time>
      </trkpt>
      <trkpt lat="38.536847233772278" lon="-2.55277281627059">
        <ele>1267</ele>
        <time>2019-11-02T14:09:31Z</time>
      </trkpt>
      <trkpt lat="38.536912947893143" lon="-2.552852192893624">
        <ele>1268.4000244140625</ele>
        <time>2019-11-02T14:09:35Z</time>
      </trkpt>
      <trkpt lat="38.536931555718184" lon="-2.552873147651553">
        <ele>1268.5999755859375</ele>
        <time>2019-11-02T14:09:36Z</time>
      </trkpt>
      <trkpt lat="38.536994839087129" lon="-2.553035337477922">
        <ele>1269.199951171875</ele>
        <time>2019-11-02T14:09:42Z</time>
      </trkpt>
      <trkpt lat="38.536997521296144" lon="-2.553068194538355">
        <ele>1269.4000244140625</ele>
        <time>2019-11-02T14:09:43Z</time>
      </trkpt>
      <trkpt lat="38.536961143836379" lon="-2.553250081837177">
        <ele>1270.199951171875</ele>
        <time>2019-11-02T14:09:49Z</time>
      </trkpt>
      <trkpt lat="38.536948068067431" lon="-2.553278747946024">
        <ele>1270.4000244140625</ele>
        <time>2019-11-02T14:09:50Z</time>
      </trkpt>
      <trkpt lat="38.536915211006999" lon="-2.553494246676564">
        <ele>1271.4000244140625</ele>
        <time>2019-11-02T14:09:56Z</time>
      </trkpt>
      <trkpt lat="38.536925856024027" lon="-2.553532216697931">
        <ele>1271.4000244140625</ele>
        <time>2019-11-02T14:09:57Z</time>
      </trkpt>
      <trkpt lat="38.536995090544224" lon="-2.553692143410444">
        <ele>1271.5999755859375</ele>
        <time>2019-11-02T14:10:02Z</time>
      </trkpt>
      <trkpt lat="38.537100786343217" lon="-2.55397972650826">
        <ele>1272.199951171875</ele>
        <time>2019-11-02T14:10:11Z</time>
      </trkpt>
      <trkpt lat="38.537121992558241" lon="-2.554058348760009">
        <ele>1272.5999755859375</ele>
        <time>2019-11-02T14:10:13Z</time>
      </trkpt>
      <trkpt lat="38.537184773012996" lon="-2.554239146411419">
        <ele>1273.4000244140625</ele>
        <time>2019-11-02T14:10:18Z</time>
      </trkpt>
      <trkpt lat="38.537208996713161" lon="-2.554299915209413">
        <ele>1273.5999755859375</ele>
        <time>2019-11-02T14:10:20Z</time>
      </trkpt>
      <trkpt lat="38.537246463820338" lon="-2.554405778646469">
        <ele>1274.199951171875</ele>
        <time>2019-11-02T14:10:25Z</time>
      </trkpt>
      <trkpt lat="38.537244200706482" lon="-2.554416004568338">
        <ele>1274.4000244140625</ele>
        <time>2019-11-02T14:10:32Z</time>
      </trkpt>
      <trkpt lat="38.537243865430355" lon="-2.554416675120592">
        <ele>1274.5999755859375</ele>
        <time>2019-11-02T14:10:34Z</time>
      </trkpt>
      <trkpt lat="38.537242524325848" lon="-2.554419692605734">
        <ele>1274.800048828125</ele>
        <time>2019-11-02T14:10:47Z</time>
      </trkpt>
      <trkpt lat="38.537242105230689" lon="-2.554418183863163">
        <ele>1274.199951171875</ele>
        <time>2019-11-02T14:11:04Z</time>
      </trkpt>
      <trkpt lat="38.537241937592626" lon="-2.554418435320258">
        <ele>1274.800048828125</ele>
        <time>2019-11-02T14:11:30Z</time>
      </trkpt>
      <trkpt lat="38.537241853773594" lon="-2.554418351501226">
        <ele>1275</ele>
        <time>2019-11-02T14:12:07Z</time>
      </trkpt>
      <trkpt lat="38.537241769954562" lon="-2.554419273510575">
        <ele>1274.800048828125</ele>
        <time>2019-11-02T14:12:29Z</time>
      </trkpt>
      <trkpt lat="38.537249565124512" lon="-2.554448107257485">
        <ele>1275.199951171875</ele>
        <time>2019-11-02T14:12:43Z</time>
      </trkpt>
      <trkpt lat="38.537252163514495" lon="-2.554491525515914">
        <ele>1275.4000244140625</ele>
        <time>2019-11-02T14:12:45Z</time>
      </trkpt>
      <trkpt lat="38.537270938977599" lon="-2.554595461115241">
        <ele>1275.800048828125</ele>
        <time>2019-11-02T14:12:49Z</time>
      </trkpt>
      <trkpt lat="38.537286780774593" lon="-2.55475421436131">
        <ele>1276</ele>
        <time>2019-11-02T14:12:55Z</time>
      </trkpt>
      <trkpt lat="38.537249062210321" lon="-2.55494968034327">
        <ele>1276.4000244140625</ele>
        <time>2019-11-02T14:13:01Z</time>
      </trkpt>
      <trkpt lat="38.537229867652059" lon="-2.555017489939928">
        <ele>1276.5999755859375</ele>
        <time>2019-11-02T14:13:03Z</time>
      </trkpt>
      <trkpt lat="38.537178318947554" lon="-2.55516417324543">
        <ele>1277.4000244140625</ele>
        <time>2019-11-02T14:13:08Z</time>
      </trkpt>
      <trkpt lat="38.53714931756258" lon="-2.555233491584659">
        <ele>1278.199951171875</ele>
        <time>2019-11-02T14:13:11Z</time>
      </trkpt>
      <trkpt lat="38.537120819091797" lon="-2.555300630629063">
        <ele>1278.5999755859375</ele>
        <time>2019-11-02T14:13:14Z</time>
      </trkpt>
      <trkpt lat="38.537063570693135" lon="-2.55542459897697">
        <ele>1278.800048828125</ele>
        <time>2019-11-02T14:13:19Z</time>
      </trkpt>
      <trkpt lat="38.536955192685127" lon="-2.555608162656426">
        <ele>1279.800048828125</ele>
        <time>2019-11-02T14:13:27Z</time>
      </trkpt>
      <trkpt lat="38.536796607077122" lon="-2.555770687758923">
        <ele>1279.199951171875</ele>
        <time>2019-11-02T14:13:35Z</time>
      </trkpt>
      <trkpt lat="38.536699209362268" lon="-2.555890213698149">
        <ele>1278.5999755859375</ele>
        <time>2019-11-02T14:13:40Z</time>
      </trkpt>
      <trkpt lat="38.536638943478465" lon="-2.555978558957577">
        <ele>1278.4000244140625</ele>
        <time>2019-11-02T14:13:43Z</time>
      </trkpt>
      <trkpt lat="38.536504497751594" lon="-2.556164134293795">
        <ele>1277.800048828125</ele>
        <time>2019-11-02T14:13:49Z</time>
      </trkpt>
      <trkpt lat="38.536332249641418" lon="-2.556274607777596">
        <ele>1278</ele>
        <time>2019-11-02T14:13:55Z</time>
      </trkpt>
      <trkpt lat="38.536143489181995" lon="-2.556304028257728">
        <ele>1277.5999755859375</ele>
        <time>2019-11-02T14:14:00Z</time>
      </trkpt>
      <trkpt lat="38.536103256046772" lon="-2.556311571970582">
        <ele>1277.4000244140625</ele>
        <time>2019-11-02T14:14:01Z</time>
      </trkpt>
      <trkpt lat="38.535992195829749" lon="-2.556357337161899">
        <ele>1276.4000244140625</ele>
        <time>2019-11-02T14:14:04Z</time>
      </trkpt>
      <trkpt lat="38.535883734002709" lon="-2.556401006877422">
        <ele>1275.800048828125</ele>
        <time>2019-11-02T14:14:07Z</time>
      </trkpt>
      <trkpt lat="38.535760268568993" lon="-2.556439060717821">
        <ele>1275.4000244140625</ele>
        <time>2019-11-02T14:14:10Z</time>
      </trkpt>
      <trkpt lat="38.535609729588032" lon="-2.55650938488543">
        <ele>1274.800048828125</ele>
        <time>2019-11-02T14:14:14Z</time>
      </trkpt>
      <trkpt lat="38.535495400428772" lon="-2.556593706831336">
        <ele>1274.199951171875</ele>
        <time>2019-11-02T14:14:18Z</time>
      </trkpt>
      <trkpt lat="38.535442845895886" lon="-2.556627234444022">
        <ele>1274</ele>
        <time>2019-11-02T14:14:20Z</time>
      </trkpt>
      <trkpt lat="38.535285769030452" lon="-2.556716669350863">
        <ele>1274.199951171875</ele>
        <time>2019-11-02T14:14:26Z</time>
      </trkpt>
      <trkpt lat="38.535133888944983" lon="-2.556773414835334">
        <ele>1274.4000244140625</ele>
        <time>2019-11-02T14:14:32Z</time>
      </trkpt>
      <trkpt lat="38.535089883953333" lon="-2.556819682940841">
        <ele>1274.4000244140625</ele>
        <time>2019-11-02T14:14:34Z</time>
      </trkpt>
      <trkpt lat="38.535078819841146" lon="-2.556864442303777">
        <ele>1274.4000244140625</ele>
        <time>2019-11-02T14:14:35Z</time>
      </trkpt>
      <trkpt lat="38.535101367160678" lon="-2.557049933820963">
        <ele>1274.199951171875</ele>
        <time>2019-11-02T14:14:39Z</time>
      </trkpt>
      <trkpt lat="38.535113353282213" lon="-2.557091759517789">
        <ele>1274.199951171875</ele>
        <time>2019-11-02T14:14:40Z</time>
      </trkpt>
      <trkpt lat="38.535111760720611" lon="-2.557255122810602">
        <ele>1274</ele>
        <time>2019-11-02T14:14:44Z</time>
      </trkpt>
      <trkpt lat="38.535014446824789" lon="-2.557305162772536">
        <ele>1273.4000244140625</ele>
        <time>2019-11-02T14:14:47Z</time>
      </trkpt>
      <trkpt lat="38.534937249496579" lon="-2.557280268520117">
        <ele>1273.199951171875</ele>
        <time>2019-11-02T14:14:49Z</time>
      </trkpt>
      <trkpt lat="38.534898776561022" lon="-2.557268533855677">
        <ele>1273</ele>
        <time>2019-11-02T14:14:50Z</time>
      </trkpt>
      <trkpt lat="38.534857537597418" lon="-2.557263253256679">
        <ele>1272.800048828125</ele>
        <time>2019-11-02T14:14:51Z</time>
      </trkpt>
      <trkpt lat="38.534648157656193" lon="-2.55732536315918">
        <ele>1272</ele>
        <time>2019-11-02T14:14:56Z</time>
      </trkpt>
      <trkpt lat="38.534608762711287" lon="-2.557345815002918">
        <ele>1272</ele>
        <time>2019-11-02T14:14:57Z</time>
      </trkpt>
      <trkpt lat="38.534387061372399" lon="-2.557451510801911">
        <ele>1270.800048828125</ele>
        <time>2019-11-02T14:15:03Z</time>
      </trkpt>
      <trkpt lat="38.534348923712969" lon="-2.557464754208922">
        <ele>1270.5999755859375</ele>
        <time>2019-11-02T14:15:04Z</time>
      </trkpt>
      <trkpt lat="38.534183464944363" lon="-2.557509681209922">
        <ele>1270</ele>
        <time>2019-11-02T14:15:08Z</time>
      </trkpt>
      <trkpt lat="38.534104339778423" lon="-2.557512111961842">
        <ele>1269.800048828125</ele>
        <time>2019-11-02T14:15:10Z</time>
      </trkpt>
      <trkpt lat="38.534019598737359" lon="-2.557477075606585">
        <ele>1269.5999755859375</ele>
        <time>2019-11-02T14:15:12Z</time>
      </trkpt>
      <trkpt lat="38.533937036991119" lon="-2.557419408112764">
        <ele>1269.199951171875</ele>
        <time>2019-11-02T14:15:14Z</time>
      </trkpt>
      <trkpt lat="38.533803429454565" lon="-2.557338941842318">
        <ele>1268.4000244140625</ele>
        <time>2019-11-02T14:15:17Z</time>
      </trkpt>
      <trkpt lat="38.533658673986793" lon="-2.557283286005259">
        <ele>1267.800048828125</ele>
        <time>2019-11-02T14:15:20Z</time>
      </trkpt>
      <trkpt lat="38.533553397282958" lon="-2.557250093668699">
        <ele>1267.199951171875</ele>
        <time>2019-11-02T14:15:22Z</time>
      </trkpt>
      <trkpt lat="38.533446192741394" lon="-2.557244813069701">
        <ele>1266.800048828125</ele>
        <time>2019-11-02T14:15:24Z</time>
      </trkpt>
      <trkpt lat="38.533394560217857" lon="-2.557251015678048">
        <ele>1266.800048828125</ele>
        <time>2019-11-02T14:15:25Z</time>
      </trkpt>
      <trkpt lat="38.533234214410186" lon="-2.557263839989901">
        <ele>1266</ele>
        <time>2019-11-02T14:15:28Z</time>
      </trkpt>
      <trkpt lat="38.533177804201841" lon="-2.557260571047664">
        <ele>1266</ele>
        <time>2019-11-02T14:15:29Z</time>
      </trkpt>
      <trkpt lat="38.533068001270294" lon="-2.557242047041655">
        <ele>1265.4000244140625</ele>
        <time>2019-11-02T14:15:31Z</time>
      </trkpt>
      <trkpt lat="38.532898686826229" lon="-2.557094777002931">
        <ele>1265</ele>
        <time>2019-11-02T14:15:35Z</time>
      </trkpt>
      <trkpt lat="38.532748818397522" lon="-2.556904004886746">
        <ele>1264.800048828125</ele>
        <time>2019-11-02T14:15:39Z</time>
      </trkpt>
      <trkpt lat="38.532706070691347" lon="-2.556860083714128">
        <ele>1264.800048828125</ele>
        <time>2019-11-02T14:15:40Z</time>
      </trkpt>
      <trkpt lat="38.532659634947777" lon="-2.556820688769221">
        <ele>1264.800048828125</ele>
        <time>2019-11-02T14:15:41Z</time>
      </trkpt>
      <trkpt lat="38.532494511455297" lon="-2.556741898879409">
        <ele>1264.800048828125</ele>
        <time>2019-11-02T14:15:44Z</time>
      </trkpt>
      <trkpt lat="38.532437849789858" lon="-2.556721027940512">
        <ele>1264.5999755859375</ele>
        <time>2019-11-02T14:15:45Z</time>
      </trkpt>
      <trkpt lat="38.532273564487696" lon="-2.556649278849363">
        <ele>1264.5999755859375</ele>
        <time>2019-11-02T14:15:48Z</time>
      </trkpt>
      <trkpt lat="38.532140962779522" lon="-2.556529082357883">
        <ele>1264.800048828125</ele>
        <time>2019-11-02T14:15:51Z</time>
      </trkpt>
      <trkpt lat="38.531843824312091" lon="-2.556234458461404">
        <ele>1264.5999755859375</ele>
        <time>2019-11-02T14:15:58Z</time>
      </trkpt>
      <trkpt lat="38.531620530411601" lon="-2.556036729365587">
        <ele>1265.199951171875</ele>
        <time>2019-11-02T14:16:03Z</time>
      </trkpt>
      <trkpt lat="38.531405786052346" lon="-2.555770603939891">
        <ele>1264.800048828125</ele>
        <time>2019-11-02T14:16:08Z</time>
      </trkpt>
      <trkpt lat="38.531262371689081" lon="-2.555538257583976">
        <ele>1264.4000244140625</ele>
        <time>2019-11-02T14:16:12Z</time>
      </trkpt>
      <trkpt lat="38.53122959844768" lon="-2.555480087175965">
        <ele>1264.5999755859375</ele>
        <time>2019-11-02T14:16:13Z</time>
      </trkpt>
      <trkpt lat="38.531091380864382" lon="-2.555392412468791">
        <ele>1264.4000244140625</ele>
        <time>2019-11-02T14:16:16Z</time>
      </trkpt>
      <trkpt lat="38.530969172716141" lon="-2.555497270077467">
        <ele>1264.199951171875</ele>
        <time>2019-11-02T14:16:19Z</time>
      </trkpt>
      <trkpt lat="38.530929693952203" lon="-2.555552758276463">
        <ele>1264</ele>
        <time>2019-11-02T14:16:20Z</time>
      </trkpt>
      <trkpt lat="38.53088703006506" lon="-2.555603720247746">
        <ele>1264</ele>
        <time>2019-11-02T14:16:21Z</time>
      </trkpt>
      <trkpt lat="38.530787453055382" lon="-2.555657783523202">
        <ele>1263.4000244140625</ele>
        <time>2019-11-02T14:16:23Z</time>
      </trkpt>
      <trkpt lat="38.530736826360226" lon="-2.555665411055088">
        <ele>1263.199951171875</ele>
        <time>2019-11-02T14:16:24Z</time>
      </trkpt>
      <trkpt lat="38.530625514686108" lon="-2.555628279224038">
        <ele>1263</ele>
        <time>2019-11-02T14:16:26Z</time>
      </trkpt>
      <trkpt lat="38.530504899099469" lon="-2.555589973926544">
        <ele>1262.199951171875</ele>
        <time>2019-11-02T14:16:28Z</time>
      </trkpt>
      <trkpt lat="38.530366430059075" lon="-2.555607659742236">
        <ele>1260.5999755859375</ele>
        <time>2019-11-02T14:16:30Z</time>
      </trkpt>
      <trkpt lat="38.53029677644372" lon="-2.555649569258094">
        <ele>1259</ele>
        <time>2019-11-02T14:16:31Z</time>
      </trkpt>
      <trkpt lat="38.530160067602992" lon="-2.555778482928872">
        <ele>1257.5999755859375</ele>
        <time>2019-11-02T14:16:33Z</time>
      </trkpt>
      <trkpt lat="38.530046157538891" lon="-2.555938744917512">
        <ele>1256.5999755859375</ele>
        <time>2019-11-02T14:16:35Z</time>
      </trkpt>
      <trkpt lat="38.529990585520864" lon="-2.555997166782618">
        <ele>1256.199951171875</ele>
        <time>2019-11-02T14:16:36Z</time>
      </trkpt>
      <trkpt lat="38.52986385114491" lon="-2.55603538826108">
        <ele>1255.199951171875</ele>
        <time>2019-11-02T14:16:38Z</time>
      </trkpt>
      <trkpt lat="38.529715994372964" lon="-2.556010577827692">
        <ele>1254</ele>
        <time>2019-11-02T14:16:40Z</time>
      </trkpt>
      <trkpt lat="38.529634522274137" lon="-2.556005716323853">
        <ele>1253.5999755859375</ele>
        <time>2019-11-02T14:16:41Z</time>
      </trkpt>
      <trkpt lat="38.529468728229403" lon="-2.556040836498141">
        <ele>1252.5999755859375</ele>
        <time>2019-11-02T14:16:43Z</time>
      </trkpt>
      <trkpt lat="38.529397314414382" lon="-2.556083332747221">
        <ele>1251.5999755859375</ele>
        <time>2019-11-02T14:16:44Z</time>
      </trkpt>
      <trkpt lat="38.529328079894185" lon="-2.556121218949556">
        <ele>1251.199951171875</ele>
        <time>2019-11-02T14:16:45Z</time>
      </trkpt>
      <trkpt lat="38.52911819703877" lon="-2.556159775704145">
        <ele>1250.4000244140625</ele>
        <time>2019-11-02T14:16:48Z</time>
      </trkpt>
      <trkpt lat="38.529048627242446" lon="-2.556175030767918">
        <ele>1250</ele>
        <time>2019-11-02T14:16:49Z</time>
      </trkpt>
      <trkpt lat="38.528870176523924" lon="-2.556298580020666">
        <ele>1249.4000244140625</ele>
        <time>2019-11-02T14:16:52Z</time>
      </trkpt>
      <trkpt lat="38.52883187122643" lon="-2.55636278539896">
        <ele>1249</ele>
        <time>2019-11-02T14:16:53Z</time>
      </trkpt>
      <trkpt lat="38.528755679726601" lon="-2.556495806202292">
        <ele>1248.4000244140625</ele>
        <time>2019-11-02T14:16:55Z</time>
      </trkpt>
      <trkpt lat="38.528714273124933" lon="-2.556556323543191">
        <ele>1248.199951171875</ele>
        <time>2019-11-02T14:16:56Z</time>
      </trkpt>
      <trkpt lat="38.528624000027776" lon="-2.556665288284421">
        <ele>1247.800048828125</ele>
        <time>2019-11-02T14:16:58Z</time>
      </trkpt>
      <trkpt lat="38.528530457988381" lon="-2.55674977786839">
        <ele>1247.5999755859375</ele>
        <time>2019-11-02T14:17:00Z</time>
      </trkpt>
      <trkpt lat="38.528482178226113" lon="-2.556785400956869">
        <ele>1247.4000244140625</ele>
        <time>2019-11-02T14:17:01Z</time>
      </trkpt>
      <trkpt lat="38.528335830196738" lon="-2.55686653777957">
        <ele>1247.199951171875</ele>
        <time>2019-11-02T14:17:04Z</time>
      </trkpt>
      <trkpt lat="38.528112452477217" lon="-2.556928815320134">
        <ele>1247</ele>
        <time>2019-11-02T14:17:09Z</time>
      </trkpt>
      <trkpt lat="38.527966858819127" lon="-2.556924289092422">
        <ele>1247</ele>
        <time>2019-11-02T14:17:12Z</time>
      </trkpt>
      <trkpt lat="38.527875747531652" lon="-2.556881038472056">
        <ele>1246.800048828125</ele>
        <time>2019-11-02T14:17:14Z</time>
      </trkpt>
      <trkpt lat="38.52776519022882" lon="-2.556712813675404">
        <ele>1246.199951171875</ele>
        <time>2019-11-02T14:17:17Z</time>
      </trkpt>
      <trkpt lat="38.527718335390091" lon="-2.556652128696442">
        <ele>1246</ele>
        <time>2019-11-02T14:17:18Z</time>
      </trkpt>
      <trkpt lat="38.527591517195106" lon="-2.556542493402958">
        <ele>1245</ele>
        <time>2019-11-02T14:17:20Z</time>
      </trkpt>
      <trkpt lat="38.527451539412141" lon="-2.556455237790942">
        <ele>1243.199951171875</ele>
        <time>2019-11-02T14:17:22Z</time>
      </trkpt>
      <trkpt lat="38.527344670146704" lon="-2.556351888924837">
        <ele>1242.199951171875</ele>
        <time>2019-11-02T14:17:24Z</time>
      </trkpt>
      <trkpt lat="38.527292450889945" lon="-2.556118285283446">
        <ele>1240</ele>
        <time>2019-11-02T14:17:27Z</time>
      </trkpt>
      <trkpt lat="38.527308460325003" lon="-2.555933883413672">
        <ele>1238.5999755859375</ele>
        <time>2019-11-02T14:17:29Z</time>
      </trkpt>
      <trkpt lat="38.527308376505971" lon="-2.555849058553576">
        <ele>1237.5999755859375</ele>
        <time>2019-11-02T14:17:30Z</time>
      </trkpt>
      <trkpt lat="38.527246937155724" lon="-2.555743111297488">
        <ele>1236</ele>
        <time>2019-11-02T14:17:32Z</time>
      </trkpt>
      <trkpt lat="38.52712070569396" lon="-2.555721485987306">
        <ele>1234.5999755859375</ele>
        <time>2019-11-02T14:17:34Z</time>
      </trkpt>
      <trkpt lat="38.527056919410825" lon="-2.555738668888807">
        <ele>1233.5999755859375</ele>
        <time>2019-11-02T14:17:35Z</time>
      </trkpt>
      <trkpt lat="38.526993719860911" lon="-2.555755767971277">
        <ele>1233</ele>
        <time>2019-11-02T14:17:36Z</time>
      </trkpt>
      <trkpt lat="38.526792638003826" lon="-2.555804550647736">
        <ele>1232.199951171875</ele>
        <time>2019-11-02T14:17:39Z</time>
      </trkpt>
      <trkpt lat="38.526719883084297" lon="-2.555805053561926">
        <ele>1231.5999755859375</ele>
        <time>2019-11-02T14:17:40Z</time>
      </trkpt>
      <trkpt lat="38.526574205607176" lon="-2.555779907852411">
        <ele>1230.4000244140625</ele>
        <time>2019-11-02T14:17:42Z</time>
      </trkpt>
      <trkpt lat="38.526528188958764" lon="-2.555749900639057">
        <ele>1229.4000244140625</ele>
        <time>2019-11-02T14:17:43Z</time>
      </trkpt>
      <trkpt lat="38.526488374918699" lon="-2.555715451017022">
        <ele>1228.800048828125</ele>
        <time>2019-11-02T14:17:44Z</time>
      </trkpt>
      <trkpt lat="38.526468593627214" lon="-2.555592991411686">
        <ele>1227.800048828125</ele>
        <time>2019-11-02T14:17:46Z</time>
      </trkpt>
      <trkpt lat="38.526487536728382" lon="-2.555524427443743">
        <ele>1227.4000244140625</ele>
        <time>2019-11-02T14:17:47Z</time>
      </trkpt>
      <trkpt lat="38.52656364440918" lon="-2.555402889847755">
        <ele>1226.5999755859375</ele>
        <time>2019-11-02T14:17:49Z</time>
      </trkpt>
      <trkpt lat="38.526609325781465" lon="-2.555332649499178">
        <ele>1226.4000244140625</ele>
        <time>2019-11-02T14:17:50Z</time>
      </trkpt>
      <trkpt lat="38.526687528938055" lon="-2.555162999778986">
        <ele>1225.199951171875</ele>
        <time>2019-11-02T14:17:52Z</time>
      </trkpt>
      <trkpt lat="38.526717368513346" lon="-2.555072559043765">
        <ele>1224.5999755859375</ele>
        <time>2019-11-02T14:17:53Z</time>
      </trkpt>
      <trkpt lat="38.526745028793812" lon="-2.554977759718895">
        <ele>1223.800048828125</ele>
        <time>2019-11-02T14:17:54Z</time>
      </trkpt>
      <trkpt lat="38.526785848662257" lon="-2.55479377694428">
        <ele>1222.5999755859375</ele>
        <time>2019-11-02T14:17:56Z</time>
      </trkpt>
      <trkpt lat="38.526777382940054" lon="-2.554617170244455">
        <ele>1221.5999755859375</ele>
        <time>2019-11-02T14:17:58Z</time>
      </trkpt>
      <trkpt lat="38.526750896126032" lon="-2.554539553821087">
        <ele>1220.800048828125</ele>
        <time>2019-11-02T14:17:59Z</time>
      </trkpt>
      <trkpt lat="38.526722816750407" lon="-2.554466966539621">
        <ele>1220.199951171875</ele>
        <time>2019-11-02T14:18:00Z</time>
      </trkpt>
      <trkpt lat="38.526704628020525" lon="-2.554389853030443">
        <ele>1219.800048828125</ele>
        <time>2019-11-02T14:18:01Z</time>
      </trkpt>
      <trkpt lat="38.526697419583797" lon="-2.554301926866174">
        <ele>1219.4000244140625</ele>
        <time>2019-11-02T14:18:02Z</time>
      </trkpt>
      <trkpt lat="38.526771012693644" lon="-2.554032448679209">
        <ele>1218.4000244140625</ele>
        <time>2019-11-02T14:18:05Z</time>
      </trkpt>
      <trkpt lat="38.526849886402488" lon="-2.553867911919951">
        <ele>1217</ele>
        <time>2019-11-02T14:18:07Z</time>
      </trkpt>
      <trkpt lat="38.52687637321651" lon="-2.553793899714947">
        <ele>1216</ele>
        <time>2019-11-02T14:18:08Z</time>
      </trkpt>
      <trkpt lat="38.52688861079514" lon="-2.553725754842162">
        <ele>1214.800048828125</ele>
        <time>2019-11-02T14:18:09Z</time>
      </trkpt>
      <trkpt lat="38.526877127587795" lon="-2.553601618856192">
        <ele>1213.199951171875</ele>
        <time>2019-11-02T14:18:11Z</time>
      </trkpt>
      <trkpt lat="38.526849299669266" lon="-2.553543196991086">
        <ele>1212.5999755859375</ele>
        <time>2019-11-02T14:18:12Z</time>
      </trkpt>
      <trkpt lat="38.526804288849235" lon="-2.553482428193092">
        <ele>1211.800048828125</ele>
        <time>2019-11-02T14:18:13Z</time>
      </trkpt>
      <trkpt lat="38.526699095964432" lon="-2.553375223651528">
        <ele>1210.4000244140625</ele>
        <time>2019-11-02T14:18:15Z</time>
      </trkpt>
      <trkpt lat="38.526552580296993" lon="-2.553155198693275">
        <ele>1209.4000244140625</ele>
        <time>2019-11-02T14:18:18Z</time>
      </trkpt>
      <trkpt lat="38.526514191180468" lon="-2.553074145689607">
        <ele>1208.800048828125</ele>
        <time>2019-11-02T14:18:19Z</time>
      </trkpt>
      <trkpt lat="38.526488291099668" lon="-2.552997702732682">
        <ele>1208.199951171875</ele>
        <time>2019-11-02T14:18:20Z</time>
      </trkpt>
      <trkpt lat="38.526416122913361" lon="-2.552877254784107">
        <ele>1207</ele>
        <time>2019-11-02T14:18:22Z</time>
      </trkpt>
      <trkpt lat="38.526292825117707" lon="-2.55285881459713">
        <ele>1205.199951171875</ele>
        <time>2019-11-02T14:18:24Z</time>
      </trkpt>
      <trkpt lat="38.526153601706028" lon="-2.552910279482603">
        <ele>1204.4000244140625</ele>
        <time>2019-11-02T14:18:26Z</time>
      </trkpt>
      <trkpt lat="38.526076236739755" lon="-2.55292871966958">
        <ele>1204</ele>
        <time>2019-11-02T14:18:27Z</time>
      </trkpt>
      <trkpt lat="38.525992836803198" lon="-2.552940119057894">
        <ele>1203.199951171875</ele>
        <time>2019-11-02T14:18:28Z</time>
      </trkpt>
      <trkpt lat="38.525905162096024" lon="-2.552948836237192">
        <ele>1202.5999755859375</ele>
        <time>2019-11-02T14:18:29Z</time>
      </trkpt>
      <trkpt lat="38.525723274797201" lon="-2.552949422970414">
        <ele>1201.199951171875</ele>
        <time>2019-11-02T14:18:31Z</time>
      </trkpt>
      <trkpt lat="38.525554798543453" lon="-2.55292821675539">
        <ele>1200.199951171875</ele>
        <time>2019-11-02T14:18:33Z</time>
      </trkpt>
      <trkpt lat="38.525414150208235" lon="-2.552892006933689">
        <ele>1199.800048828125</ele>
        <time>2019-11-02T14:18:35Z</time>
      </trkpt>
      <trkpt lat="38.525267550721765" lon="-2.552898796275258">
        <ele>1199.5999755859375</ele>
        <time>2019-11-02T14:18:37Z</time>
      </trkpt>
      <trkpt lat="38.525121286511421" lon="-2.55295654758811">
        <ele>1198.800048828125</ele>
        <time>2019-11-02T14:18:39Z</time>
      </trkpt>
      <trkpt lat="38.525049788877368" lon="-2.552999965846539">
        <ele>1198.5999755859375</ele>
        <time>2019-11-02T14:18:40Z</time>
      </trkpt>
      <trkpt lat="38.524988181889057" lon="-2.553034666925669">
        <ele>1198.199951171875</ele>
        <time>2019-11-02T14:18:41Z</time>
      </trkpt>
      <trkpt lat="38.524932358413935" lon="-2.553039444610476">
        <ele>1197.800048828125</ele>
        <time>2019-11-02T14:18:42Z</time>
      </trkpt>
      <trkpt lat="38.524825908243656" lon="-2.552999379113317">
        <ele>1196.800048828125</ele>
        <time>2019-11-02T14:18:44Z</time>
      </trkpt>
      <trkpt lat="38.524738065898418" lon="-2.552920505404472">
        <ele>1196.199951171875</ele>
        <time>2019-11-02T14:18:46Z</time>
      </trkpt>
      <trkpt lat="38.52462524548173" lon="-2.552799135446548">
        <ele>1196</ele>
        <time>2019-11-02T14:18:49Z</time>
      </trkpt>
      <trkpt lat="38.524517621845007" lon="-2.552667623385787">
        <ele>1195.5999755859375</ele>
        <time>2019-11-02T14:18:52Z</time>
      </trkpt>
      <trkpt lat="38.524483172222972" lon="-2.552612135186791">
        <ele>1195.4000244140625</ele>
        <time>2019-11-02T14:18:53Z</time>
      </trkpt>
      <trkpt lat="38.52439759299159" lon="-2.552407532930374">
        <ele>1195.199951171875</ele>
        <time>2019-11-02T14:18:56Z</time>
      </trkpt>
      <trkpt lat="38.52433992549777" lon="-2.552252383902669">
        <ele>1194.4000244140625</ele>
        <time>2019-11-02T14:18:58Z</time>
      </trkpt>
      <trkpt lat="38.524237750098109" lon="-2.552108885720372">
        <ele>1193.4000244140625</ele>
        <time>2019-11-02T14:19:00Z</time>
      </trkpt>
      <trkpt lat="38.524178909137845" lon="-2.552046608179808">
        <ele>1193</ele>
        <time>2019-11-02T14:19:01Z</time>
      </trkpt>
      <trkpt lat="38.524123588576913" lon="-2.551979385316372">
        <ele>1192.800048828125</ele>
        <time>2019-11-02T14:19:02Z</time>
      </trkpt>
      <trkpt lat="38.524043876677752" lon="-2.551822979003191">
        <ele>1192</ele>
        <time>2019-11-02T14:19:04Z</time>
      </trkpt>
      <trkpt lat="38.52400959469378" lon="-2.551648300141096">
        <ele>1190.800048828125</ele>
        <time>2019-11-02T14:19:06Z</time>
      </trkpt>
      <trkpt lat="38.52400029078126" lon="-2.551551656797528">
        <ele>1190.4000244140625</ele>
        <time>2019-11-02T14:19:07Z</time>
      </trkpt>
      <trkpt lat="38.523990316316485" lon="-2.551449649035931">
        <ele>1189.800048828125</ele>
        <time>2019-11-02T14:19:08Z</time>
      </trkpt>
      <trkpt lat="38.523972379043698" lon="-2.55124144256115">
        <ele>1188.4000244140625</ele>
        <time>2019-11-02T14:19:10Z</time>
      </trkpt>
      <trkpt lat="38.523960309103131" lon="-2.551124934107065">
        <ele>1186.800048828125</ele>
        <time>2019-11-02T14:19:11Z</time>
      </trkpt>
      <trkpt lat="38.52395243011415" lon="-2.551000798121095">
        <ele>1185.5999755859375</ele>
        <time>2019-11-02T14:19:12Z</time>
      </trkpt>
      <trkpt lat="38.523946227505803" lon="-2.550877248868346">
        <ele>1184.4000244140625</ele>
        <time>2019-11-02T14:19:13Z</time>
      </trkpt>
      <trkpt lat="38.523940527811646" lon="-2.550760572776198">
        <ele>1183.199951171875</ele>
        <time>2019-11-02T14:19:14Z</time>
      </trkpt>
      <trkpt lat="38.523929296061397" lon="-2.550551779568195">
        <ele>1181.199951171875</ele>
        <time>2019-11-02T14:19:16Z</time>
      </trkpt>
      <trkpt lat="38.523906664922833" lon="-2.55034969188273">
        <ele>1179.800048828125</ele>
        <time>2019-11-02T14:19:18Z</time>
      </trkpt>
      <trkpt lat="38.52389132604003" lon="-2.550253802910447">
        <ele>1178.800048828125</ele>
        <time>2019-11-02T14:19:19Z</time>
      </trkpt>
      <trkpt lat="38.523846734315157" lon="-2.550077866762877">
        <ele>1177.5999755859375</ele>
        <time>2019-11-02T14:19:21Z</time>
      </trkpt>
      <trkpt lat="38.52379753254354" lon="-2.549907127395272">
        <ele>1176.4000244140625</ele>
        <time>2019-11-02T14:19:23Z</time>
      </trkpt>
      <trkpt lat="38.523750090971589" lon="-2.549751056358218">
        <ele>1175.199951171875</ele>
        <time>2019-11-02T14:19:25Z</time>
      </trkpt>
      <trkpt lat="38.523714803159237" lon="-2.5496172811836">
        <ele>1174.5999755859375</ele>
        <time>2019-11-02T14:19:27Z</time>
      </trkpt>
      <trkpt lat="38.523658309131861" lon="-2.549449056386948">
        <ele>1174.199951171875</ele>
        <time>2019-11-02T14:19:30Z</time>
      </trkpt>
      <trkpt lat="38.523633414879441" lon="-2.549398932605982">
        <ele>1174.199951171875</ele>
        <time>2019-11-02T14:19:31Z</time>
      </trkpt>
      <trkpt lat="38.523579770699143" lon="-2.549313940107822">
        <ele>1174.199951171875</ele>
        <time>2019-11-02T14:19:33Z</time>
      </trkpt>
      <trkpt lat="38.523459490388632" lon="-2.549188295379281">
        <ele>1174.199951171875</ele>
        <time>2019-11-02T14:19:36Z</time>
      </trkpt>
      <trkpt lat="38.523363266140223" lon="-2.549109170213342">
        <ele>1173.800048828125</ele>
        <time>2019-11-02T14:19:38Z</time>
      </trkpt>
      <trkpt lat="38.523148940876126" lon="-2.548953099176288">
        <ele>1173.5999755859375</ele>
        <time>2019-11-02T14:19:43Z</time>
      </trkpt>
      <trkpt lat="38.523033605888486" lon="-2.548876656219363">
        <ele>1174.199951171875</ele>
        <time>2019-11-02T14:19:47Z</time>
      </trkpt>
      <trkpt lat="38.522904356941581" lon="-2.548750005662441">
        <ele>1175.4000244140625</ele>
        <time>2019-11-02T14:19:52Z</time>
      </trkpt>
      <trkpt lat="38.522879211232066" lon="-2.548718824982643">
        <ele>1175.5999755859375</ele>
        <time>2019-11-02T14:19:53Z</time>
      </trkpt>
      <trkpt lat="38.522734539583325" lon="-2.548645734786987">
        <ele>1175.4000244140625</ele>
        <time>2019-11-02T14:19:58Z</time>
      </trkpt>
      <trkpt lat="38.522605458274484" lon="-2.548606172204018">
        <ele>1175.199951171875</ele>
        <time>2019-11-02T14:20:03Z</time>
      </trkpt>
      <trkpt lat="38.522451734170318" lon="-2.548594772815704">
        <ele>1174.5999755859375</ele>
        <time>2019-11-02T14:20:08Z</time>
      </trkpt>
      <trkpt lat="38.522368669509888" lon="-2.548588821664453">
        <ele>1174.199951171875</ele>
        <time>2019-11-02T14:20:10Z</time>
      </trkpt>
      <trkpt lat="38.522328101098537" lon="-2.54857792519033">
        <ele>1174</ele>
        <time>2019-11-02T14:20:11Z</time>
      </trkpt>
      <trkpt lat="38.522288957610726" lon="-2.548571974039078">
        <ele>1173.800048828125</ele>
        <time>2019-11-02T14:20:12Z</time>
      </trkpt>
      <trkpt lat="38.522063819691539" lon="-2.548598712310195">
        <ele>1173.800048828125</ele>
        <time>2019-11-02T14:20:18Z</time>
      </trkpt>
      <trkpt lat="38.521897774189711" lon="-2.548604998737574">
        <ele>1175</ele>
        <time>2019-11-02T14:20:24Z</time>
      </trkpt>
      <trkpt lat="38.521862737834454" lon="-2.548583960160613">
        <ele>1175.800048828125</ele>
        <time>2019-11-02T14:20:26Z</time>
      </trkpt>
      <trkpt lat="38.521845974028111" lon="-2.548563675954938">
        <ele>1176</ele>
        <time>2019-11-02T14:20:27Z</time>
      </trkpt>
      <trkpt lat="38.521817307919264" lon="-2.548522017896175">
        <ele>1176.4000244140625</ele>
        <time>2019-11-02T14:20:29Z</time>
      </trkpt>
      <trkpt lat="38.521790904924273" lon="-2.548485053703189">
        <ele>1177.4000244140625</ele>
        <time>2019-11-02T14:20:31Z</time>
      </trkpt>
      <trkpt lat="38.521751342341304" lon="-2.548440461978316">
        <ele>1178</ele>
        <time>2019-11-02T14:20:35Z</time>
      </trkpt>
      <trkpt lat="38.521752934902906" lon="-2.54844062961638">
        <ele>1178</ele>
        <time>2019-11-02T14:20:46Z</time>
      </trkpt>
      <trkpt lat="38.521753856912255" lon="-2.54844113253057">
        <ele>1178.199951171875</ele>
        <time>2019-11-02T14:20:48Z</time>
      </trkpt>
      <trkpt lat="38.521716808900237" lon="-2.548421770334244">
        <ele>1178.199951171875</ele>
        <time>2019-11-02T14:20:57Z</time>
      </trkpt>
      <trkpt lat="38.521613292396069" lon="-2.54841816611588">
        <ele>1178.5999755859375</ele>
        <time>2019-11-02T14:21:02Z</time>
      </trkpt>
      <trkpt lat="38.521477254107594" lon="-2.548480192199349">
        <ele>1178</ele>
        <time>2019-11-02T14:21:07Z</time>
      </trkpt>
      <trkpt lat="38.521346664056182" lon="-2.548603657633066">
        <ele>1178</ele>
        <time>2019-11-02T14:21:11Z</time>
      </trkpt>
      <trkpt lat="38.521316656842828" lon="-2.548645567148924">
        <ele>1177.800048828125</ele>
        <time>2019-11-02T14:21:12Z</time>
      </trkpt>
      <trkpt lat="38.521232921630144" lon="-2.548852683976293">
        <ele>1177.199951171875</ele>
        <time>2019-11-02T14:21:16Z</time>
      </trkpt>
      <trkpt lat="38.521264186128974" lon="-2.549082264304161">
        <ele>1176.800048828125</ele>
        <time>2019-11-02T14:21:20Z</time>
      </trkpt>
      <trkpt lat="38.521409947425127" lon="-2.549267085269094">
        <ele>1176.4000244140625</ele>
        <time>2019-11-02T14:21:25Z</time>
      </trkpt>
      <trkpt lat="38.521519917994738" lon="-2.54937537945807">
        <ele>1176.5999755859375</ele>
        <time>2019-11-02T14:21:29Z</time>
      </trkpt>
      <trkpt lat="38.521625697612762" lon="-2.549520051106811">
        <ele>1176.800048828125</ele>
        <time>2019-11-02T14:21:33Z</time>
      </trkpt>
      <trkpt lat="38.521673977375031" lon="-2.549596577882767">
        <ele>1177</ele>
        <time>2019-11-02T14:21:35Z</time>
      </trkpt>
      <trkpt lat="38.521825019270182" lon="-2.54972624592483">
        <ele>1177</ele>
        <time>2019-11-02T14:21:40Z</time>
      </trkpt>
      <trkpt lat="38.521977737545967" lon="-2.54978927783668">
        <ele>1177</ele>
        <time>2019-11-02T14:21:45Z</time>
      </trkpt>
      <trkpt lat="38.522131880745292" lon="-2.549846861511469">
        <ele>1176.800048828125</ele>
        <time>2019-11-02T14:21:50Z</time>
      </trkpt>
      <trkpt lat="38.52216993458569" lon="-2.549868067726493">
        <ele>1176.5999755859375</ele>
        <time>2019-11-02T14:21:51Z</time>
      </trkpt>
      <trkpt lat="38.522254256531596" lon="-2.549997819587588">
        <ele>1176.4000244140625</ele>
        <time>2019-11-02T14:21:54Z</time>
      </trkpt>
      <trkpt lat="38.522266410291195" lon="-2.550052385777235">
        <ele>1176.199951171875</ele>
        <time>2019-11-02T14:21:55Z</time>
      </trkpt>
      <trkpt lat="38.522275295108557" lon="-2.550109634175897">
        <ele>1176</ele>
        <time>2019-11-02T14:21:56Z</time>
      </trkpt>
      <trkpt lat="38.522277558222413" lon="-2.550278445705771">
        <ele>1175.5999755859375</ele>
        <time>2019-11-02T14:21:59Z</time>
      </trkpt>
      <trkpt lat="38.522277474403381" lon="-2.550383387133479">
        <ele>1175.5999755859375</ele>
        <time>2019-11-02T14:22:01Z</time>
      </trkpt>
      <trkpt lat="38.522302201017737" lon="-2.550544571131468">
        <ele>1175.5999755859375</ele>
        <time>2019-11-02T14:22:04Z</time>
      </trkpt>
      <trkpt lat="38.522376548498869" lon="-2.550884792581201">
        <ele>1175.4000244140625</ele>
        <time>2019-11-02T14:22:10Z</time>
      </trkpt>
      <trkpt lat="38.52240202948451" lon="-2.550999289378524">
        <ele>1175.199951171875</ele>
        <time>2019-11-02T14:22:12Z</time>
      </trkpt>
      <trkpt lat="38.522425498813391" lon="-2.551107415929437">
        <ele>1175.199951171875</ele>
        <time>2019-11-02T14:22:14Z</time>
      </trkpt>
      <trkpt lat="38.522444441914558" lon="-2.551215374842286">
        <ele>1175.199951171875</ele>
        <time>2019-11-02T14:22:16Z</time>
      </trkpt>
      <trkpt lat="38.522507809102535" lon="-2.551452247425914">
        <ele>1175.199951171875</ele>
        <time>2019-11-02T14:22:21Z</time>
      </trkpt>
      <trkpt lat="38.522543851286173" lon="-2.551650479435921">
        <ele>1175.199951171875</ele>
        <time>2019-11-02T14:22:25Z</time>
      </trkpt>
      <trkpt lat="38.522546617314219" lon="-2.551708566024899">
        <ele>1175.4000244140625</ele>
        <time>2019-11-02T14:22:26Z</time>
      </trkpt>
      <trkpt lat="38.522532703354955" lon="-2.551871761679649">
        <ele>1175.5999755859375</ele>
        <time>2019-11-02T14:22:29Z</time>
      </trkpt>
      <trkpt lat="38.522517196834087" lon="-2.551966561004519">
        <ele>1175.5999755859375</ele>
        <time>2019-11-02T14:22:31Z</time>
      </trkpt>
      <trkpt lat="38.522503953427076" lon="-2.552267890423536">
        <ele>1176</ele>
        <time>2019-11-02T14:22:37Z</time>
      </trkpt>
      <trkpt lat="38.522526081651449" lon="-2.552531249821186">
        <ele>1176</ele>
        <time>2019-11-02T14:22:42Z</time>
      </trkpt>
      <trkpt lat="38.522540330886841" lon="-2.55275865085423">
        <ele>1175.4000244140625</ele>
        <time>2019-11-02T14:22:46Z</time>
      </trkpt>
      <trkpt lat="38.522572349756956" lon="-2.552874069660902">
        <ele>1174.800048828125</ele>
        <time>2019-11-02T14:22:48Z</time>
      </trkpt>
      <trkpt lat="38.522685170173645" lon="-2.55316911265254">
        <ele>1174.199951171875</ele>
        <time>2019-11-02T14:22:53Z</time>
      </trkpt>
      <trkpt lat="38.522812658920884" lon="-2.553304145112634">
        <ele>1173.800048828125</ele>
        <time>2019-11-02T14:22:56Z</time>
      </trkpt>
      <trkpt lat="38.522862615063787" lon="-2.553337588906288">
        <ele>1173.5999755859375</ele>
        <time>2019-11-02T14:22:57Z</time>
      </trkpt>
      <trkpt lat="38.522954313084483" lon="-2.553416378796101">
        <ele>1173.4000244140625</ele>
        <time>2019-11-02T14:22:59Z</time>
      </trkpt>
      <trkpt lat="38.523018434643745" lon="-2.553528361022472">
        <ele>1173.4000244140625</ele>
        <time>2019-11-02T14:23:01Z</time>
      </trkpt>
      <trkpt lat="38.523073336109519" lon="-2.553718881681561">
        <ele>1172.800048828125</ele>
        <time>2019-11-02T14:23:04Z</time>
      </trkpt>
      <trkpt lat="38.523102421313524" lon="-2.553843939676881">
        <ele>1172.5999755859375</ele>
        <time>2019-11-02T14:23:06Z</time>
      </trkpt>
      <trkpt lat="38.523147096857429" lon="-2.554023480042815">
        <ele>1172.5999755859375</ele>
        <time>2019-11-02T14:23:09Z</time>
      </trkpt>
      <trkpt lat="38.523169308900833" lon="-2.554085003212094">
        <ele>1172.4000244140625</ele>
        <time>2019-11-02T14:23:10Z</time>
      </trkpt>
      <trkpt lat="38.523225970566273" lon="-2.554364958778024">
        <ele>1172</ele>
        <time>2019-11-02T14:23:14Z</time>
      </trkpt>
      <trkpt lat="38.523223623633385" lon="-2.554448358714581">
        <ele>1172</ele>
        <time>2019-11-02T14:23:15Z</time>
      </trkpt>
      <trkpt lat="38.523228652775288" lon="-2.554626222699881">
        <ele>1171.4000244140625</ele>
        <time>2019-11-02T14:23:17Z</time>
      </trkpt>
      <trkpt lat="38.523285733535886" lon="-2.55491204559803">
        <ele>1170</ele>
        <time>2019-11-02T14:23:20Z</time>
      </trkpt>
      <trkpt lat="38.523377599194646" lon="-2.555206585675478">
        <ele>1168.800048828125</ele>
        <time>2019-11-02T14:23:23Z</time>
      </trkpt>
      <trkpt lat="38.523459322750568" lon="-2.555409511551261">
        <ele>1167.5999755859375</ele>
        <time>2019-11-02T14:23:25Z</time>
      </trkpt>
      <trkpt lat="38.52355026639998" lon="-2.555603301152587">
        <ele>1166</ele>
        <time>2019-11-02T14:23:27Z</time>
      </trkpt>
      <trkpt lat="38.523572897538543" lon="-2.555692065507174">
        <ele>1165.4000244140625</ele>
        <time>2019-11-02T14:23:28Z</time>
      </trkpt>
      <trkpt lat="38.523573400452733" lon="-2.555777560919523">
        <ele>1165</ele>
        <time>2019-11-02T14:23:29Z</time>
      </trkpt>
      <trkpt lat="38.523533083498478" lon="-2.55594989284873">
        <ele>1164.4000244140625</ele>
        <time>2019-11-02T14:23:31Z</time>
      </trkpt>
      <trkpt lat="38.523510284721851" lon="-2.556030610576272">
        <ele>1164.4000244140625</ele>
        <time>2019-11-02T14:23:32Z</time>
      </trkpt>
      <trkpt lat="38.523468626663089" lon="-2.556181820109487">
        <ele>1164.4000244140625</ele>
        <time>2019-11-02T14:23:34Z</time>
      </trkpt>
      <trkpt lat="38.52344230748713" lon="-2.556343674659729">
        <ele>1164.4000244140625</ele>
        <time>2019-11-02T14:23:36Z</time>
      </trkpt>
      <trkpt lat="38.523440714925528" lon="-2.556426152586937">
        <ele>1164.199951171875</ele>
        <time>2019-11-02T14:23:37Z</time>
      </trkpt>
      <trkpt lat="38.523464603349566" lon="-2.556582475081086">
        <ele>1164</ele>
        <time>2019-11-02T14:23:39Z</time>
      </trkpt>
      <trkpt lat="38.523512883111835" lon="-2.556814821437001">
        <ele>1164</ele>
        <time>2019-11-02T14:23:42Z</time>
      </trkpt>
      <trkpt lat="38.523522103205323" lon="-2.556894030421972">
        <ele>1163.5999755859375</ele>
        <time>2019-11-02T14:23:43Z</time>
      </trkpt>
      <trkpt lat="38.523523360490799" lon="-2.556971479207277">
        <ele>1163.4000244140625</ele>
        <time>2019-11-02T14:23:44Z</time>
      </trkpt>
      <trkpt lat="38.523515984416008" lon="-2.557047251611948">
        <ele>1163.199951171875</ele>
        <time>2019-11-02T14:23:45Z</time>
      </trkpt>
      <trkpt lat="38.523515230044723" lon="-2.557307090610266">
        <ele>1162.4000244140625</ele>
        <time>2019-11-02T14:23:48Z</time>
      </trkpt>
      <trkpt lat="38.52351900190115" lon="-2.557394932955503">
        <ele>1162.199951171875</ele>
        <time>2019-11-02T14:23:49Z</time>
      </trkpt>
      <trkpt lat="38.523511542007327" lon="-2.557582519948483">
        <ele>1161.800048828125</ele>
        <time>2019-11-02T14:23:51Z</time>
      </trkpt>
      <trkpt lat="38.523501064628363" lon="-2.5576835218817">
        <ele>1161.4000244140625</ele>
        <time>2019-11-02T14:23:52Z</time>
      </trkpt>
      <trkpt lat="38.523486647754908" lon="-2.557788547128439">
        <ele>1161</ele>
        <time>2019-11-02T14:23:53Z</time>
      </trkpt>
      <trkpt lat="38.523476086556911" lon="-2.557889046147466">
        <ele>1160.5999755859375</ele>
        <time>2019-11-02T14:23:54Z</time>
      </trkpt>
      <trkpt lat="38.523482708260417" lon="-2.557988036423922">
        <ele>1160</ele>
        <time>2019-11-02T14:23:55Z</time>
      </trkpt>
      <trkpt lat="38.52350533939898" lon="-2.558083422482014">
        <ele>1159.5999755859375</ele>
        <time>2019-11-02T14:23:56Z</time>
      </trkpt>
      <trkpt lat="38.523559235036373" lon="-2.558277463540435">
        <ele>1158.5999755859375</ele>
        <time>2019-11-02T14:23:58Z</time>
      </trkpt>
      <trkpt lat="38.523620674386621" lon="-2.558497153222561">
        <ele>1157.4000244140625</ele>
        <time>2019-11-02T14:24:00Z</time>
      </trkpt>
      <trkpt lat="38.523655878379941" lon="-2.558613158762455">
        <ele>1156.800048828125</ele>
        <time>2019-11-02T14:24:01Z</time>
      </trkpt>
      <trkpt lat="38.523688400164247" lon="-2.558734193444252">
        <ele>1156</ele>
        <time>2019-11-02T14:24:02Z</time>
      </trkpt>
      <trkpt lat="38.523750426247716" lon="-2.558986572548747">
        <ele>1154.5999755859375</ele>
        <time>2019-11-02T14:24:04Z</time>
      </trkpt>
      <trkpt lat="38.523782948032022" lon="-2.559118252247572">
        <ele>1153.4000244140625</ele>
        <time>2019-11-02T14:24:05Z</time>
      </trkpt>
      <trkpt lat="38.523817649111152" lon="-2.559251943603158">
        <ele>1152.199951171875</ele>
        <time>2019-11-02T14:24:06Z</time>
      </trkpt>
      <trkpt lat="38.523855619132519" lon="-2.559383707121015">
        <ele>1151</ele>
        <time>2019-11-02T14:24:07Z</time>
      </trkpt>
      <trkpt lat="38.523957207798958" lon="-2.559787631034851">
        <ele>1149.800048828125</ele>
        <time>2019-11-02T14:24:10Z</time>
      </trkpt>
      <trkpt lat="38.524008169770241" lon="-2.560057193040848">
        <ele>1148.4000244140625</ele>
        <time>2019-11-02T14:24:12Z</time>
      </trkpt>
      <trkpt lat="38.524031136184931" lon="-2.560188537463546">
        <ele>1148</ele>
        <time>2019-11-02T14:24:13Z</time>
      </trkpt>
      <trkpt lat="38.524072458967566" lon="-2.560434630140662">
        <ele>1147.4000244140625</ele>
        <time>2019-11-02T14:24:15Z</time>
      </trkpt>
      <trkpt lat="38.524155523627996" lon="-2.560885408893228">
        <ele>1146.800048828125</ele>
        <time>2019-11-02T14:24:19Z</time>
      </trkpt>
      <trkpt lat="38.524292232468724" lon="-2.561475327238441">
        <ele>1146.199951171875</ele>
        <time>2019-11-02T14:24:25Z</time>
      </trkpt>
      <trkpt lat="38.52452608756721" lon="-2.562122996896505">
        <ele>1146</ele>
        <time>2019-11-02T14:24:32Z</time>
      </trkpt>
      <trkpt lat="38.524752650409937" lon="-2.56250923499465">
        <ele>1146.199951171875</ele>
        <time>2019-11-02T14:24:37Z</time>
      </trkpt>
      <trkpt lat="38.525008466094732" lon="-2.5629538949579">
        <ele>1145.5999755859375</ele>
        <time>2019-11-02T14:24:43Z</time>
      </trkpt>
      <trkpt lat="38.525038054212928" lon="-2.563030170276761">
        <ele>1145.5999755859375</ele>
        <time>2019-11-02T14:24:44Z</time>
      </trkpt>
      <trkpt lat="38.525114078074694" lon="-2.563345413655043">
        <ele>1145.800048828125</ele>
        <time>2019-11-02T14:24:48Z</time>
      </trkpt>
      <trkpt lat="38.525192365050316" lon="-2.563861487433314">
        <ele>1146</ele>
        <time>2019-11-02T14:24:55Z</time>
      </trkpt>
      <trkpt lat="38.525256989523768" lon="-2.564279241487384">
        <ele>1146.5999755859375</ele>
        <time>2019-11-02T14:25:01Z</time>
      </trkpt>
      <trkpt lat="38.525283643975854" lon="-2.564663048833609">
        <ele>1147.5999755859375</ele>
        <time>2019-11-02T14:25:07Z</time>
      </trkpt>
      <trkpt lat="38.525312896817923" lon="-2.565056243911386">
        <ele>1148.5999755859375</ele>
        <time>2019-11-02T14:25:13Z</time>
      </trkpt>
      <trkpt lat="38.525316417217255" lon="-2.565124221146107">
        <ele>1148.800048828125</ele>
        <time>2019-11-02T14:25:14Z</time>
      </trkpt>
      <trkpt lat="38.525317758321762" lon="-2.565313903614879">
        <ele>1149</ele>
        <time>2019-11-02T14:25:17Z</time>
      </trkpt>
      <trkpt lat="38.525306275114417" lon="-2.565428484231234">
        <ele>1149.4000244140625</ele>
        <time>2019-11-02T14:25:19Z</time>
      </trkpt>
      <trkpt lat="38.52529713883996" lon="-2.565542561933398">
        <ele>1149.5999755859375</ele>
        <time>2019-11-02T14:25:21Z</time>
      </trkpt>
      <trkpt lat="38.525291858240962" lon="-2.565595703199506">
        <ele>1149.800048828125</ele>
        <time>2019-11-02T14:25:22Z</time>
      </trkpt>
      <trkpt lat="38.525266963988543" lon="-2.565746074542403">
        <ele>1150.199951171875</ele>
        <time>2019-11-02T14:25:25Z</time>
      </trkpt>
      <trkpt lat="38.525209380313754" lon="-2.565906587988138">
        <ele>1151</ele>
        <time>2019-11-02T14:25:29Z</time>
      </trkpt>
      <trkpt lat="38.525174092501402" lon="-2.565967021510005">
        <ele>1151.4000244140625</ele>
        <time>2019-11-02T14:25:31Z</time>
      </trkpt>
      <trkpt lat="38.52508214302361" lon="-2.56607280112803">
        <ele>1152.4000244140625</ele>
        <time>2019-11-02T14:25:35Z</time>
      </trkpt>
      <trkpt lat="38.524987762793899" lon="-2.566153351217508">
        <ele>1153.199951171875</ele>
        <time>2019-11-02T14:25:39Z</time>
      </trkpt>
      <trkpt lat="38.524940405040979" lon="-2.566184783354402">
        <ele>1153.5999755859375</ele>
        <time>2019-11-02T14:25:41Z</time>
      </trkpt>
      <trkpt lat="38.524842672049999" lon="-2.56622577086091">
        <ele>1154.5999755859375</ele>
        <time>2019-11-02T14:25:45Z</time>
      </trkpt>
      <trkpt lat="38.524818364530802" lon="-2.566234320402145">
        <ele>1155</ele>
        <time>2019-11-02T14:25:46Z</time>
      </trkpt>
      <trkpt lat="38.524715099483728" lon="-2.566252928227186">
        <ele>1155.800048828125</ele>
        <time>2019-11-02T14:25:50Z</time>
      </trkpt>
      <trkpt lat="38.524636309593916" lon="-2.566251838579774">
        <ele>1156.4000244140625</ele>
        <time>2019-11-02T14:25:53Z</time>
      </trkpt>
      <trkpt lat="38.524561207741499" lon="-2.566237673163414">
        <ele>1157</ele>
        <time>2019-11-02T14:25:56Z</time>
      </trkpt>
      <trkpt lat="38.524466911330819" lon="-2.566217640414834">
        <ele>1157.5999755859375</ele>
        <time>2019-11-02T14:26:00Z</time>
      </trkpt>
      <trkpt lat="38.524400275200605" lon="-2.566198697313666">
        <ele>1158</ele>
        <time>2019-11-02T14:26:03Z</time>
      </trkpt>
      <trkpt lat="38.524310505017638" lon="-2.566168522462249">
        <ele>1158.5999755859375</ele>
        <time>2019-11-02T14:26:07Z</time>
      </trkpt>
      <trkpt lat="38.524241438135505" lon="-2.566148405894637">
        <ele>1159.199951171875</ele>
        <time>2019-11-02T14:26:10Z</time>
      </trkpt>
      <trkpt lat="38.524172035977244" lon="-2.566150082275271">
        <ele>1159.800048828125</ele>
        <time>2019-11-02T14:26:13Z</time>
      </trkpt>
      <trkpt lat="38.524108920246363" lon="-2.56616810336709">
        <ele>1160.4000244140625</ele>
        <time>2019-11-02T14:26:16Z</time>
      </trkpt>
      <trkpt lat="38.524005403742194" lon="-2.566202217712998">
        <ele>1161.199951171875</ele>
        <time>2019-11-02T14:26:21Z</time>
      </trkpt>
      <trkpt lat="38.523963745683432" lon="-2.566214539110661">
        <ele>1161.4000244140625</ele>
        <time>2019-11-02T14:26:23Z</time>
      </trkpt>
      <trkpt lat="38.523860312998295" lon="-2.566253514960408">
        <ele>1162.199951171875</ele>
        <time>2019-11-02T14:26:28Z</time>
      </trkpt>
      <trkpt lat="38.523797700181603" lon="-2.56627363152802">
        <ele>1162.5999755859375</ele>
        <time>2019-11-02T14:26:31Z</time>
      </trkpt>
      <trkpt lat="38.52369393222034" lon="-2.566311517730355">
        <ele>1163.4000244140625</ele>
        <time>2019-11-02T14:26:36Z</time>
      </trkpt>
      <trkpt lat="38.523652860894799" lon="-2.56632199510932">
        <ele>1163.800048828125</ele>
        <time>2019-11-02T14:26:38Z</time>
      </trkpt>
      <trkpt lat="38.523520259186625" lon="-2.566355103626847">
        <ele>1164.5999755859375</ele>
        <time>2019-11-02T14:26:44Z</time>
      </trkpt>
      <trkpt lat="38.523495532572269" lon="-2.566354600712657">
        <ele>1164.800048828125</ele>
        <time>2019-11-02T14:26:45Z</time>
      </trkpt>
      <trkpt lat="38.523376425728202" lon="-2.566355187445879">
        <ele>1165.5999755859375</ele>
        <time>2019-11-02T14:26:50Z</time>
      </trkpt>
      <trkpt lat="38.523352034389973" lon="-2.566360468044877">
        <ele>1165.800048828125</ele>
        <time>2019-11-02T14:26:51Z</time>
      </trkpt>
      <trkpt lat="38.523257067427039" lon="-2.566362312063575">
        <ele>1166.199951171875</ele>
        <time>2019-11-02T14:26:55Z</time>
      </trkpt>
      <trkpt lat="38.523190263658762" lon="-2.566373124718666">
        <ele>1166.800048828125</ele>
        <time>2019-11-02T14:26:58Z</time>
      </trkpt>
      <trkpt lat="38.523098733276129" lon="-2.566385949030519">
        <ele>1167.199951171875</ele>
        <time>2019-11-02T14:27:02Z</time>
      </trkpt>
      <trkpt lat="38.52301181294024" lon="-2.566395420581102">
        <ele>1167.800048828125</ele>
        <time>2019-11-02T14:27:06Z</time>
      </trkpt>
      <trkpt lat="38.522918941453099" lon="-2.566399443894625">
        <ele>1169</ele>
        <time>2019-11-02T14:27:10Z</time>
      </trkpt>
      <trkpt lat="38.522775946184993" lon="-2.566429534927011">
        <ele>1170</ele>
        <time>2019-11-02T14:27:16Z</time>
      </trkpt>
      <trkpt lat="38.522749794647098" lon="-2.566435486078262">
        <ele>1170.199951171875</ele>
        <time>2019-11-02T14:27:17Z</time>
      </trkpt>
      <trkpt lat="38.522608643397689" lon="-2.566503211855888">
        <ele>1171.199951171875</ele>
        <time>2019-11-02T14:27:23Z</time>
      </trkpt>
      <trkpt lat="38.522566566243768" lon="-2.566527016460896">
        <ele>1171.4000244140625</ele>
        <time>2019-11-02T14:27:25Z</time>
      </trkpt>
      <trkpt lat="38.522479142993689" lon="-2.56656926125288">
        <ele>1172.199951171875</ele>
        <time>2019-11-02T14:27:29Z</time>
      </trkpt>
      <trkpt lat="38.52239029482007" lon="-2.566607566550374">
        <ele>1172.800048828125</ele>
        <time>2019-11-02T14:27:33Z</time>
      </trkpt>
      <trkpt lat="38.522346708923578" lon="-2.566625084728003">
        <ele>1173.4000244140625</ele>
        <time>2019-11-02T14:27:35Z</time>
      </trkpt>
      <trkpt lat="38.522233972325921" lon="-2.566644279286265">
        <ele>1174</ele>
        <time>2019-11-02T14:27:40Z</time>
      </trkpt>
      <trkpt lat="38.52214646525681" lon="-2.566657019779086">
        <ele>1174.4000244140625</ele>
        <time>2019-11-02T14:27:44Z</time>
      </trkpt>
      <trkpt lat="38.522079074755311" lon="-2.566660875454545">
        <ele>1174.5999755859375</ele>
        <time>2019-11-02T14:27:47Z</time>
      </trkpt>
      <trkpt lat="38.521947646513581" lon="-2.566748550161719">
        <ele>1175.199951171875</ele>
        <time>2019-11-02T14:27:53Z</time>
      </trkpt>
      <trkpt lat="38.521954268217087" lon="-2.566877380013466">
        <ele>1175.4000244140625</ele>
        <time>2019-11-02T14:27:57Z</time>
      </trkpt>
      <trkpt lat="38.521966673433781" lon="-2.566905627027154">
        <ele>1175.5999755859375</ele>
        <time>2019-11-02T14:27:58Z</time>
      </trkpt>
      <trkpt lat="38.522051582112908" lon="-2.56699045188725">
        <ele>1176</ele>
        <time>2019-11-02T14:28:03Z</time>
      </trkpt>
      <trkpt lat="38.52210053242743" lon="-2.567019453272223">
        <ele>1176.5999755859375</ele>
        <time>2019-11-02T14:28:06Z</time>
      </trkpt>
      <trkpt lat="38.522108495235443" lon="-2.567024147138">
        <ele>1176.800048828125</ele>
        <time>2019-11-02T14:28:09Z</time>
      </trkpt>
      <trkpt lat="38.522109752520919" lon="-2.567029092460871">
        <ele>1176.800048828125</ele>
        <time>2019-11-02T14:28:26Z</time>
      </trkpt>
      <trkpt lat="38.522110087797046" lon="-2.567034289240837">
        <ele>1176.5999755859375</ele>
        <time>2019-11-02T14:28:40Z</time>
      </trkpt>
      <trkpt lat="38.522109584882855" lon="-2.567039402201772">
        <ele>1176.5999755859375</ele>
        <time>2019-11-02T14:28:57Z</time>
      </trkpt>
      <trkpt lat="38.522109501063824" lon="-2.567038731649518">
        <ele>1177</ele>
        <time>2019-11-02T14:29:11Z</time>
      </trkpt>
      <trkpt lat="38.522115955129266" lon="-2.567048203200102">
        <ele>1177</ele>
        <time>2019-11-02T14:29:16Z</time>
      </trkpt>
      <trkpt lat="38.522132216021419" lon="-2.56707158870995">
        <ele>1177.199951171875</ele>
        <time>2019-11-02T14:29:18Z</time>
      </trkpt>
      <trkpt lat="38.522154008969665" lon="-2.567094303667545">
        <ele>1177.5999755859375</ele>
        <time>2019-11-02T14:29:20Z</time>
      </trkpt>
      <trkpt lat="38.522251239046454" lon="-2.567167477682233">
        <ele>1178.199951171875</ele>
        <time>2019-11-02T14:29:26Z</time>
      </trkpt>
      <trkpt lat="38.522307062521577" lon="-2.5672020111233">
        <ele>1178.5999755859375</ele>
        <time>2019-11-02T14:29:29Z</time>
      </trkpt>
      <trkpt lat="38.522358946502209" lon="-2.567260097712278">
        <ele>1179.199951171875</ele>
        <time>2019-11-02T14:29:32Z</time>
      </trkpt>
      <trkpt lat="38.522433964535594" lon="-2.567335199564695">
        <ele>1179.800048828125</ele>
        <time>2019-11-02T14:29:36Z</time>
      </trkpt>
      <trkpt lat="38.522477298974991" lon="-2.567395465448499">
        <ele>1180.199951171875</ele>
        <time>2019-11-02T14:29:39Z</time>
      </trkpt>
      <trkpt lat="38.522556088864803" lon="-2.567513985559344">
        <ele>1181</ele>
        <time>2019-11-02T14:29:45Z</time>
      </trkpt>
      <trkpt lat="38.522572852671146" lon="-2.567531922832131">
        <ele>1181</ele>
        <time>2019-11-02T14:29:46Z</time>
      </trkpt>
      <trkpt lat="38.522680811583996" lon="-2.567639630287886">
        <ele>1181.5999755859375</ele>
        <time>2019-11-02T14:29:53Z</time>
      </trkpt>
      <trkpt lat="38.522710232064128" lon="-2.567663853988051">
        <ele>1182</ele>
        <time>2019-11-02T14:29:55Z</time>
      </trkpt>
      <trkpt lat="38.522788854315877" lon="-2.567725880071521">
        <ele>1182.5999755859375</ele>
        <time>2019-11-02T14:30:00Z</time>
      </trkpt>
      <trkpt lat="38.522866135463119" lon="-2.567791175097227">
        <ele>1183.199951171875</ele>
        <time>2019-11-02T14:30:05Z</time>
      </trkpt>
      <trkpt lat="38.522879630327225" lon="-2.567806513980031">
        <ele>1183.199951171875</ele>
        <time>2019-11-02T14:30:06Z</time>
      </trkpt>
      <trkpt lat="38.522981470450759" lon="-2.567918580025434">
        <ele>1184</ele>
        <time>2019-11-02T14:30:13Z</time>
      </trkpt>
      <trkpt lat="38.522995300590992" lon="-2.567936601117253">
        <ele>1184.199951171875</ele>
        <time>2019-11-02T14:30:14Z</time>
      </trkpt>
      <trkpt lat="38.523077359423041" lon="-2.568034920841455">
        <ele>1185.5999755859375</ele>
        <time>2019-11-02T14:30:20Z</time>
      </trkpt>
      <trkpt lat="38.523107869550586" lon="-2.568064760416746">
        <ele>1185.800048828125</ele>
        <time>2019-11-02T14:30:22Z</time>
      </trkpt>
      <trkpt lat="38.523194203153253" lon="-2.568177413195372">
        <ele>1186.5999755859375</ele>
        <time>2019-11-02T14:30:29Z</time>
      </trkpt>
      <trkpt lat="38.52328984066844" lon="-2.568276738747954">
        <ele>1187.800048828125</ele>
        <time>2019-11-02T14:30:36Z</time>
      </trkpt>
      <trkpt lat="38.523361254483461" lon="-2.568370616063476">
        <ele>1188.800048828125</ele>
        <time>2019-11-02T14:30:42Z</time>
      </trkpt>
      <trkpt lat="38.523382544517517" lon="-2.568403892219067">
        <ele>1189.199951171875</ele>
        <time>2019-11-02T14:30:44Z</time>
      </trkpt>
      <trkpt lat="38.523449935019016" lon="-2.56849248893559">
        <ele>1190</ele>
        <time>2019-11-02T14:30:49Z</time>
      </trkpt>
      <trkpt lat="38.523464854806662" lon="-2.568508414551616">
        <ele>1190.199951171875</ele>
        <time>2019-11-02T14:30:50Z</time>
      </trkpt>
      <trkpt lat="38.523527216166258" lon="-2.568578738719225">
        <ele>1191.199951171875</ele>
        <time>2019-11-02T14:30:55Z</time>
      </trkpt>
      <trkpt lat="38.523612208664417" lon="-2.568641016259789">
        <ele>1192.199951171875</ele>
        <time>2019-11-02T14:31:01Z</time>
      </trkpt>
      <trkpt lat="38.523717233911157" lon="-2.568722320720553">
        <ele>1193.199951171875</ele>
        <time>2019-11-02T14:31:07Z</time>
      </trkpt>
      <trkpt lat="38.523736177012324" lon="-2.568739335983992">
        <ele>1193.4000244140625</ele>
        <time>2019-11-02T14:31:08Z</time>
      </trkpt>
      <trkpt lat="38.523846734315157" lon="-2.56886824965477">
        <ele>1194.4000244140625</ele>
        <time>2019-11-02T14:31:15Z</time>
      </trkpt>
      <trkpt lat="38.523861151188612" lon="-2.56889171898365">
        <ele>1194.5999755859375</ele>
        <time>2019-11-02T14:31:16Z</time>
      </trkpt>
      <trkpt lat="38.523933738470078" lon="-2.568992301821709">
        <ele>1195.4000244140625</ele>
        <time>2019-11-02T14:31:21Z</time>
      </trkpt>
      <trkpt lat="38.523979671299458" lon="-2.56905198097229">
        <ele>1195.5999755859375</ele>
        <time>2019-11-02T14:31:24Z</time>
      </trkpt>
      <trkpt lat="38.524058880284429" lon="-2.569169076159596">
        <ele>1196.800048828125</ele>
        <time>2019-11-02T14:31:30Z</time>
      </trkpt>
      <trkpt lat="38.524071034044027" lon="-2.569189444184303">
        <ele>1197</ele>
        <time>2019-11-02T14:31:31Z</time>
      </trkpt>
      <trkpt lat="38.524115877225995" lon="-2.569269826635718">
        <ele>1197.800048828125</ele>
        <time>2019-11-02T14:31:35Z</time>
      </trkpt>
      <trkpt lat="38.524145297706127" lon="-2.569334954023361">
        <ele>1198.4000244140625</ele>
        <time>2019-11-02T14:31:38Z</time>
      </trkpt>
      <trkpt lat="38.524153344333172" lon="-2.569459425285459">
        <ele>1199</ele>
        <time>2019-11-02T14:31:43Z</time>
      </trkpt>
      <trkpt lat="38.524150494486094" lon="-2.56948440335691">
        <ele>1199.199951171875</ele>
        <time>2019-11-02T14:31:44Z</time>
      </trkpt>
      <trkpt lat="38.524100873619318" lon="-2.569607784971595">
        <ele>1200.4000244140625</ele>
        <time>2019-11-02T14:31:50Z</time>
      </trkpt>
      <trkpt lat="38.524090312421322" lon="-2.569623962044716">
        <ele>1200.5999755859375</ele>
        <time>2019-11-02T14:31:51Z</time>
      </trkpt>
      <trkpt lat="38.52401495911181" lon="-2.569756479933858">
        <ele>1201.4000244140625</ele>
        <time>2019-11-02T14:31:58Z</time>
      </trkpt>
      <trkpt lat="38.523917561396956" lon="-2.569898134097457">
        <ele>1202.5999755859375</ele>
        <time>2019-11-02T14:32:06Z</time>
      </trkpt>
      <trkpt lat="38.523863581940532" lon="-2.569998297840357">
        <ele>1203.5999755859375</ele>
        <time>2019-11-02T14:32:11Z</time>
      </trkpt>
      <trkpt lat="38.523843046277761" lon="-2.570039704442024">
        <ele>1204</ele>
        <time>2019-11-02T14:32:13Z</time>
      </trkpt>
      <trkpt lat="38.523789318278432" lon="-2.570141963660717">
        <ele>1204.5999755859375</ele>
        <time>2019-11-02T14:32:18Z</time>
      </trkpt>
      <trkpt lat="38.523781355470419" lon="-2.570163002237678">
        <ele>1204.800048828125</ele>
        <time>2019-11-02T14:32:19Z</time>
      </trkpt>
      <trkpt lat="38.523762663826346" lon="-2.570307590067387">
        <ele>1206</ele>
        <time>2019-11-02T14:32:26Z</time>
      </trkpt>
      <trkpt lat="38.523766603320837" lon="-2.570329215377569">
        <ele>1206</ele>
        <time>2019-11-02T14:32:27Z</time>
      </trkpt>
      <trkpt lat="38.523812619969249" lon="-2.570458380505443">
        <ele>1207</ele>
        <time>2019-11-02T14:32:33Z</time>
      </trkpt>
      <trkpt lat="38.523822007700801" lon="-2.570474976673722">
        <ele>1207.199951171875</ele>
        <time>2019-11-02T14:32:34Z</time>
      </trkpt>
      <trkpt lat="38.523872718214989" lon="-2.570604896172881">
        <ele>1208.199951171875</ele>
        <time>2019-11-02T14:32:40Z</time>
      </trkpt>
      <trkpt lat="38.523889565840364" lon="-2.570650493726134">
        <ele>1208.5999755859375</ele>
        <time>2019-11-02T14:32:42Z</time>
      </trkpt>
      <trkpt lat="38.523929547518492" lon="-2.570794830098748">
        <ele>1209.4000244140625</ele>
        <time>2019-11-02T14:32:48Z</time>
      </trkpt>
      <trkpt lat="38.523936169221997" lon="-2.570818299427629">
        <ele>1209.5999755859375</ele>
        <time>2019-11-02T14:32:49Z</time>
      </trkpt>
      <trkpt lat="38.523971373215318" lon="-2.570920642465353">
        <ele>1210</ele>
        <time>2019-11-02T14:32:54Z</time>
      </trkpt>
      <trkpt lat="38.524005487561226" lon="-2.571003623306751">
        <ele>1210.4000244140625</ele>
        <time>2019-11-02T14:32:58Z</time>
      </trkpt>
      <trkpt lat="38.524037590250373" lon="-2.571069337427616">
        <ele>1211</ele>
        <time>2019-11-02T14:33:01Z</time>
      </trkpt>
      <trkpt lat="38.524091653525829" lon="-2.571179559454322">
        <ele>1211.5999755859375</ele>
        <time>2019-11-02T14:33:06Z</time>
      </trkpt>
      <trkpt lat="38.524130377918482" lon="-2.571237729862332">
        <ele>1212.199951171875</ele>
        <time>2019-11-02T14:33:09Z</time>
      </trkpt>
      <trkpt lat="38.524199528619647" lon="-2.571326661854982">
        <ele>1213</ele>
        <time>2019-11-02T14:33:14Z</time>
      </trkpt>
      <trkpt lat="38.524228697642684" lon="-2.571360440924764">
        <ele>1213.4000244140625</ele>
        <time>2019-11-02T14:33:16Z</time>
      </trkpt>
      <trkpt lat="38.524284018203616" lon="-2.571430681273341">
        <ele>1214</ele>
        <time>2019-11-02T14:33:20Z</time>
      </trkpt>
      <trkpt lat="38.52438191883266" lon="-2.571528749540448">
        <ele>1215</ele>
        <time>2019-11-02T14:33:26Z</time>
      </trkpt>
      <trkpt lat="38.524396168068051" lon="-2.57154400460422">
        <ele>1215.199951171875</ele>
        <time>2019-11-02T14:33:27Z</time>
      </trkpt>
      <trkpt lat="38.524507731199265" lon="-2.571625979617238">
        <ele>1216.199951171875</ele>
        <time>2019-11-02T14:33:34Z</time>
      </trkpt>
      <trkpt lat="38.524522315710783" lon="-2.571633104234934">
        <ele>1216.199951171875</ele>
        <time>2019-11-02T14:33:35Z</time>
      </trkpt>
      <trkpt lat="38.524606386199594" lon="-2.571662776172161">
        <ele>1217.199951171875</ele>
        <time>2019-11-02T14:33:40Z</time>
      </trkpt>
      <trkpt lat="38.524625832214952" lon="-2.571671660989523">
        <ele>1217.4000244140625</ele>
        <time>2019-11-02T14:33:41Z</time>
      </trkpt>
      <trkpt lat="38.524735970422626" lon="-2.571736788377166">
        <ele>1218.4000244140625</ele>
        <time>2019-11-02T14:33:47Z</time>
      </trkpt>
      <trkpt lat="38.524761954322457" lon="-2.571774087846279">
        <ele>1218.800048828125</ele>
        <time>2019-11-02T14:33:49Z</time>
      </trkpt>
      <trkpt lat="38.524790955707431" lon="-2.571817757561803">
        <ele>1219.199951171875</ele>
        <time>2019-11-02T14:33:52Z</time>
      </trkpt>
      <trkpt lat="38.524805121123791" lon="-2.571862852200866">
        <ele>1219.5999755859375</ele>
        <time>2019-11-02T14:33:54Z</time>
      </trkpt>
      <trkpt lat="38.524872763082385" lon="-2.572088409215212">
        <ele>1220.5999755859375</ele>
        <time>2019-11-02T14:34:03Z</time>
      </trkpt>
      <trkpt lat="38.524887096136808" lon="-2.572145825251937">
        <ele>1220.800048828125</ele>
        <time>2019-11-02T14:34:05Z</time>
      </trkpt>
      <trkpt lat="38.524955492466688" lon="-2.57228379137814">
        <ele>1221.800048828125</ele>
        <time>2019-11-02T14:34:11Z</time>
      </trkpt>
      <trkpt lat="38.524963371455669" lon="-2.572307009249926">
        <ele>1221.800048828125</ele>
        <time>2019-11-02T14:34:12Z</time>
      </trkpt>
      <trkpt lat="38.525026990100741" lon="-2.572465259581804">
        <ele>1223</ele>
        <time>2019-11-02T14:34:19Z</time>
      </trkpt>
      <trkpt lat="38.525068815797567" lon="-2.572624934837222">
        <ele>1224</ele>
        <time>2019-11-02T14:34:25Z</time>
      </trkpt>
      <trkpt lat="38.525095973163843" lon="-2.572835404425859">
        <ele>1224.800048828125</ele>
        <time>2019-11-02T14:34:33Z</time>
      </trkpt>
      <trkpt lat="38.52509337477386" lon="-2.572915451601148">
        <ele>1225.199951171875</ele>
        <time>2019-11-02T14:34:36Z</time>
      </trkpt>
      <trkpt lat="38.525095218792558" lon="-2.57304847240448">
        <ele>1226.199951171875</ele>
        <time>2019-11-02T14:34:41Z</time>
      </trkpt>
      <trkpt lat="38.525093290954828" lon="-2.573073701933026">
        <ele>1226.5999755859375</ele>
        <time>2019-11-02T14:34:42Z</time>
      </trkpt>
      <trkpt lat="38.525089602917433" lon="-2.573150228708982">
        <ele>1227.5999755859375</ele>
        <time>2019-11-02T14:34:45Z</time>
      </trkpt>
      <trkpt lat="38.525087339803576" lon="-2.573228934779763">
        <ele>1228</ele>
        <time>2019-11-02T14:34:48Z</time>
      </trkpt>
      <trkpt lat="38.525071581825614" lon="-2.573379976674914">
        <ele>1228.800048828125</ele>
        <time>2019-11-02T14:34:54Z</time>
      </trkpt>
      <trkpt lat="38.525063702836633" lon="-2.573456503450871">
        <ele>1229.199951171875</ele>
        <time>2019-11-02T14:34:57Z</time>
      </trkpt>
      <trkpt lat="38.525042831897736" lon="-2.573660016059875">
        <ele>1229.800048828125</ele>
        <time>2019-11-02T14:35:05Z</time>
      </trkpt>
      <trkpt lat="38.525039227679372" lon="-2.573789265006781">
        <ele>1231</ele>
        <time>2019-11-02T14:35:11Z</time>
      </trkpt>
      <trkpt lat="38.525038054212928" lon="-2.573793372139335">
        <ele>1231</ele>
        <time>2019-11-02T14:35:12Z</time>
      </trkpt>
      <trkpt lat="38.525040401145816" lon="-2.573815584182739">
        <ele>1231.199951171875</ele>
        <time>2019-11-02T14:35:24Z</time>
      </trkpt>
      <trkpt lat="38.525031181052327" lon="-2.573910718783736">
        <ele>1232</ele>
        <time>2019-11-02T14:35:29Z</time>
      </trkpt>
      <trkpt lat="38.525048866868019" lon="-2.574122445657849">
        <ele>1230.5999755859375</ele>
        <time>2019-11-02T14:35:35Z</time>
      </trkpt>
      <trkpt lat="38.525074431672692" lon="-2.574263010174036">
        <ele>1229.800048828125</ele>
        <time>2019-11-02T14:35:38Z</time>
      </trkpt>
      <trkpt lat="38.525123214349151" lon="-2.5743926782161">
        <ele>1228.5999755859375</ele>
        <time>2019-11-02T14:35:41Z</time>
      </trkpt>
      <trkpt lat="38.525180630385876" lon="-2.574497200548649">
        <ele>1227.4000244140625</ele>
        <time>2019-11-02T14:35:43Z</time>
      </trkpt>
      <trkpt lat="38.525260929018259" lon="-2.574608260765672">
        <ele>1226.4000244140625</ele>
        <time>2019-11-02T14:35:45Z</time>
      </trkpt>
      <trkpt lat="38.525358410552144" lon="-2.574720242992043">
        <ele>1225</ele>
        <time>2019-11-02T14:35:47Z</time>
      </trkpt>
      <trkpt lat="38.525457149371505" lon="-2.57483147084713">
        <ele>1224</ele>
        <time>2019-11-02T14:35:49Z</time>
      </trkpt>
      <trkpt lat="38.525496376678348" lon="-2.574896598234773">
        <ele>1223.5999755859375</ele>
        <time>2019-11-02T14:35:50Z</time>
      </trkpt>
      <trkpt lat="38.525541303679347" lon="-2.575043113902211">
        <ele>1222.5999755859375</ele>
        <time>2019-11-02T14:35:52Z</time>
      </trkpt>
      <trkpt lat="38.525546500459313" lon="-2.57512416690588">
        <ele>1221.800048828125</ele>
        <time>2019-11-02T14:35:53Z</time>
      </trkpt>
      <trkpt lat="38.525545746088028" lon="-2.575213182717562">
        <ele>1221.199951171875</ele>
        <time>2019-11-02T14:35:54Z</time>
      </trkpt>
      <trkpt lat="38.525572903454304" lon="-2.575484085828066">
        <ele>1220</ele>
        <time>2019-11-02T14:35:57Z</time>
      </trkpt>
      <trkpt lat="38.525597713887691" lon="-2.575580477714539">
        <ele>1219.4000244140625</ele>
        <time>2019-11-02T14:35:58Z</time>
      </trkpt>
      <trkpt lat="38.525640210136771" lon="-2.575668822973967">
        <ele>1218.199951171875</ele>
        <time>2019-11-02T14:35:59Z</time>
      </trkpt>
      <trkpt lat="38.525753449648619" lon="-2.575834365561604">
        <ele>1217</ele>
        <time>2019-11-02T14:36:01Z</time>
      </trkpt>
      <trkpt lat="38.525885716080666" lon="-2.575983814895153">
        <ele>1215.5999755859375</ele>
        <time>2019-11-02T14:36:03Z</time>
      </trkpt>
      <trkpt lat="38.526018988341093" lon="-2.576107364147902">
        <ele>1214</ele>
        <time>2019-11-02T14:36:05Z</time>
      </trkpt>
      <trkpt lat="38.526076655834913" lon="-2.576174670830369">
        <ele>1213</ele>
        <time>2019-11-02T14:36:06Z</time>
      </trkpt>
      <trkpt lat="38.526120409369469" lon="-2.57625631056726">
        <ele>1212</ele>
        <time>2019-11-02T14:36:07Z</time>
      </trkpt>
      <trkpt lat="38.526149075478315" lon="-2.576345577836037">
        <ele>1211.4000244140625</ele>
        <time>2019-11-02T14:36:08Z</time>
      </trkpt>
      <trkpt lat="38.526155026629567" lon="-2.576440293341875">
        <ele>1210.800048828125</ele>
        <time>2019-11-02T14:36:09Z</time>
      </trkpt>
      <trkpt lat="38.526129210367799" lon="-2.576625198125839">
        <ele>1209.800048828125</ele>
        <time>2019-11-02T14:36:11Z</time>
      </trkpt>
      <trkpt lat="38.526087384670973" lon="-2.576707508414984">
        <ele>1209</ele>
        <time>2019-11-02T14:36:12Z</time>
      </trkpt>
      <trkpt lat="38.525969870388508" lon="-2.576841870322824">
        <ele>1207.800048828125</ele>
        <time>2019-11-02T14:36:14Z</time>
      </trkpt>
      <trkpt lat="38.525841124355793" lon="-2.576932813972235">
        <ele>1205.5999755859375</ele>
        <time>2019-11-02T14:36:16Z</time>
      </trkpt>
      <trkpt lat="38.525788821280003" lon="-2.576996264979243">
        <ele>1204.5999755859375</ele>
        <time>2019-11-02T14:36:17Z</time>
      </trkpt>
      <trkpt lat="38.525716233998537" lon="-2.577156024053693">
        <ele>1203.4000244140625</ele>
        <time>2019-11-02T14:36:19Z</time>
      </trkpt>
      <trkpt lat="38.525669127702713" lon="-2.577361715957522">
        <ele>1202.4000244140625</ele>
        <time>2019-11-02T14:36:21Z</time>
      </trkpt>
      <trkpt lat="38.525634258985519" lon="-2.577575873583555">
        <ele>1200.4000244140625</ele>
        <time>2019-11-02T14:36:23Z</time>
      </trkpt>
      <trkpt lat="38.525626715272665" lon="-2.577691543847322">
        <ele>1199.199951171875</ele>
        <time>2019-11-02T14:36:24Z</time>
      </trkpt>
      <trkpt lat="38.52562939748168" lon="-2.577811740338802">
        <ele>1198.4000244140625</ele>
        <time>2019-11-02T14:36:25Z</time>
      </trkpt>
      <trkpt lat="38.525634007528424" lon="-2.577927326783538">
        <ele>1197.5999755859375</ele>
        <time>2019-11-02T14:36:26Z</time>
      </trkpt>
      <trkpt lat="38.525665774941444" lon="-2.578141987323761">
        <ele>1195.800048828125</ele>
        <time>2019-11-02T14:36:28Z</time>
      </trkpt>
      <trkpt lat="38.525689831003547" lon="-2.578237121924758">
        <ele>1195</ele>
        <time>2019-11-02T14:36:29Z</time>
      </trkpt>
      <trkpt lat="38.525716569274664" lon="-2.578325551003218">
        <ele>1194</ele>
        <time>2019-11-02T14:36:30Z</time>
      </trkpt>
      <trkpt lat="38.525747749954462" lon="-2.578409872949123">
        <ele>1193</ele>
        <time>2019-11-02T14:36:31Z</time>
      </trkpt>
      <trkpt lat="38.525769291445613" lon="-2.578499559313059">
        <ele>1192.5999755859375</ele>
        <time>2019-11-02T14:36:32Z</time>
      </trkpt>
      <trkpt lat="38.525773482397199" lon="-2.578590670600533">
        <ele>1192.199951171875</ele>
        <time>2019-11-02T14:36:33Z</time>
      </trkpt>
      <trkpt lat="38.525763088837266" lon="-2.578682620078325">
        <ele>1191.800048828125</ele>
        <time>2019-11-02T14:36:34Z</time>
      </trkpt>
      <trkpt lat="38.52568605914712" lon="-2.57887196727097">
        <ele>1190.5999755859375</ele>
        <time>2019-11-02T14:36:36Z</time>
      </trkpt>
      <trkpt lat="38.52555706165731" lon="-2.579038431867957">
        <ele>1189.5999755859375</ele>
        <time>2019-11-02T14:36:38Z</time>
      </trkpt>
      <trkpt lat="38.525491515174508" lon="-2.579125016927719">
        <ele>1188.5999755859375</ele>
        <time>2019-11-02T14:36:39Z</time>
      </trkpt>
      <trkpt lat="38.525431165471673" lon="-2.579208081588149">
        <ele>1187.800048828125</ele>
        <time>2019-11-02T14:36:40Z</time>
      </trkpt>
      <trkpt lat="38.525310298427939" lon="-2.579370690509677">
        <ele>1186.199951171875</ele>
        <time>2019-11-02T14:36:42Z</time>
      </trkpt>
      <trkpt lat="38.525249110534787" lon="-2.579456018283963">
        <ele>1185</ele>
        <time>2019-11-02T14:36:43Z</time>
      </trkpt>
      <trkpt lat="38.525135703384876" lon="-2.579636564478278">
        <ele>1183.800048828125</ele>
        <time>2019-11-02T14:36:45Z</time>
      </trkpt>
      <trkpt lat="38.525035036727786" lon="-2.579812416806817">
        <ele>1181.800048828125</ele>
        <time>2019-11-02T14:36:47Z</time>
      </trkpt>
      <trkpt lat="38.525003436952829" lon="-2.579906713217497">
        <ele>1181</ele>
        <time>2019-11-02T14:36:48Z</time>
      </trkpt>
      <trkpt lat="38.524978794157505" lon="-2.579991035163403">
        <ele>1180.4000244140625</ele>
        <time>2019-11-02T14:36:49Z</time>
      </trkpt>
      <trkpt lat="38.525002850219607" lon="-2.580141825601459">
        <ele>1178.800048828125</ele>
        <time>2019-11-02T14:36:51Z</time>
      </trkpt>
      <trkpt lat="38.525029756128788" lon="-2.580211143940687">
        <ele>1178.199951171875</ele>
        <time>2019-11-02T14:36:52Z</time>
      </trkpt>
      <trkpt lat="38.525051381438971" lon="-2.580282306298614">
        <ele>1177.800048828125</ele>
        <time>2019-11-02T14:36:53Z</time>
      </trkpt>
      <trkpt lat="38.52504157461226" lon="-2.580429576337337">
        <ele>1176.4000244140625</ele>
        <time>2019-11-02T14:36:55Z</time>
      </trkpt>
      <trkpt lat="38.524972340092063" lon="-2.580573242157698">
        <ele>1175.199951171875</ele>
        <time>2019-11-02T14:36:57Z</time>
      </trkpt>
      <trkpt lat="38.524936800822616" lon="-2.580656390637159">
        <ele>1174.5999755859375</ele>
        <time>2019-11-02T14:36:58Z</time>
      </trkpt>
      <trkpt lat="38.52491207420826" lon="-2.580753201618791">
        <ele>1174.4000244140625</ele>
        <time>2019-11-02T14:36:59Z</time>
      </trkpt>
      <trkpt lat="38.524893466383219" lon="-2.580856215208769">
        <ele>1174</ele>
        <time>2019-11-02T14:37:00Z</time>
      </trkpt>
      <trkpt lat="38.524865470826626" lon="-2.581207416951656">
        <ele>1172.4000244140625</ele>
        <time>2019-11-02T14:37:03Z</time>
      </trkpt>
      <trkpt lat="38.524846695363522" lon="-2.58132484741509">
        <ele>1171.199951171875</ele>
        <time>2019-11-02T14:37:04Z</time>
      </trkpt>
      <trkpt lat="38.524817191064358" lon="-2.581437081098557">
        <ele>1170.4000244140625</ele>
        <time>2019-11-02T14:37:05Z</time>
      </trkpt>
      <trkpt lat="38.524772683158517" lon="-2.581538669764996">
        <ele>1169.800048828125</ele>
        <time>2019-11-02T14:37:06Z</time>
      </trkpt>
      <trkpt lat="38.524647876620293" lon="-2.581697925925255">
        <ele>1168.199951171875</ele>
        <time>2019-11-02T14:37:08Z</time>
      </trkpt>
      <trkpt lat="38.524569505825639" lon="-2.581757269799709">
        <ele>1167.4000244140625</ele>
        <time>2019-11-02T14:37:09Z</time>
      </trkpt>
      <trkpt lat="38.524485938251019" lon="-2.581819212064147">
        <ele>1166.5999755859375</ele>
        <time>2019-11-02T14:37:10Z</time>
      </trkpt>
      <trkpt lat="38.52440832182765" lon="-2.581883920356631">
        <ele>1165.5999755859375</ele>
        <time>2019-11-02T14:37:11Z</time>
      </trkpt>
      <trkpt lat="38.524334561079741" lon="-2.581960698589683">
        <ele>1164.800048828125</ele>
        <time>2019-11-02T14:37:12Z</time>
      </trkpt>
      <trkpt lat="38.5242675896734" lon="-2.582049379125237">
        <ele>1164</ele>
        <time>2019-11-02T14:37:13Z</time>
      </trkpt>
      <trkpt lat="38.524139598011971" lon="-2.582242581993341">
        <ele>1162.199951171875</ele>
        <time>2019-11-02T14:37:15Z</time>
      </trkpt>
      <trkpt lat="38.524031974375248" lon="-2.582463109865785">
        <ele>1160.5999755859375</ele>
        <time>2019-11-02T14:37:17Z</time>
      </trkpt>
      <trkpt lat="38.523985370993614" lon="-2.58257232606411">
        <ele>1159.800048828125</ele>
        <time>2019-11-02T14:37:18Z</time>
      </trkpt>
      <trkpt lat="38.523942120373249" lon="-2.582680620253086">
        <ele>1158.800048828125</ele>
        <time>2019-11-02T14:37:19Z</time>
      </trkpt>
      <trkpt lat="38.523907084017992" lon="-2.582781706005335">
        <ele>1158.199951171875</ele>
        <time>2019-11-02T14:37:20Z</time>
      </trkpt>
      <trkpt lat="38.523885123431683" lon="-2.582877008244395">
        <ele>1157.800048828125</ele>
        <time>2019-11-02T14:37:21Z</time>
      </trkpt>
      <trkpt lat="38.523878250271082" lon="-2.58296862244606">
        <ele>1157</ele>
        <time>2019-11-02T14:37:22Z</time>
      </trkpt>
      <trkpt lat="38.523877328261733" lon="-2.583054369315505">
        <ele>1156.199951171875</ele>
        <time>2019-11-02T14:37:23Z</time>
      </trkpt>
      <trkpt lat="38.523861151188612" lon="-2.583210943266749">
        <ele>1154.800048828125</ele>
        <time>2019-11-02T14:37:25Z</time>
      </trkpt>
      <trkpt lat="38.523832904174924" lon="-2.583275986835361">
        <ele>1154</ele>
        <time>2019-11-02T14:37:26Z</time>
      </trkpt>
      <trkpt lat="38.523798873648047" lon="-2.583331726491451">
        <ele>1153.199951171875</ele>
        <time>2019-11-02T14:37:27Z</time>
      </trkpt>
      <trkpt lat="38.523689908906817" lon="-2.583418898284435">
        <ele>1152</ele>
        <time>2019-11-02T14:37:30Z</time>
      </trkpt>
      <trkpt lat="38.523634001612663" lon="-2.583407834172249">
        <ele>1150.800048828125</ele>
        <time>2019-11-02T14:37:32Z</time>
      </trkpt>
      <trkpt lat="38.523617153987288" lon="-2.583395848050714">
        <ele>1150.4000244140625</ele>
        <time>2019-11-02T14:37:33Z</time>
      </trkpt>
      <trkpt lat="38.523592762649059" lon="-2.583368439227343">
        <ele>1149.5999755859375</ele>
        <time>2019-11-02T14:37:37Z</time>
      </trkpt>
      <trkpt lat="38.523589409887791" lon="-2.58336441591382">
        <ele>1149.5999755859375</ele>
        <time>2019-11-02T14:37:38Z</time>
      </trkpt>
      <trkpt lat="38.523572729900479" lon="-2.583329295739532">
        <ele>1149.5999755859375</ele>
        <time>2019-11-02T14:37:44Z</time>
      </trkpt>
      <trkpt lat="38.523559821769595" lon="-2.583272131159902">
        <ele>1149.4000244140625</ele>
        <time>2019-11-02T14:37:46Z</time>
      </trkpt>
      <trkpt lat="38.523566275835037" lon="-2.583149001002312">
        <ele>1148.4000244140625</ele>
        <time>2019-11-02T14:37:49Z</time>
      </trkpt>
      <trkpt lat="38.523582452908158" lon="-2.583100385963917">
        <ele>1147.800048828125</ele>
        <time>2019-11-02T14:37:51Z</time>
      </trkpt>
      <trkpt lat="38.523600725457072" lon="-2.583043053746223">
        <ele>1147.4000244140625</ele>
        <time>2019-11-02T14:37:53Z</time>
      </trkpt>
      <trkpt lat="38.523613046854734" lon="-2.583010867238045">
        <ele>1147.199951171875</ele>
        <time>2019-11-02T14:37:54Z</time>
      </trkpt>
      <trkpt lat="38.523681191727519" lon="-2.582810875028372">
        <ele>1146.4000244140625</ele>
        <time>2019-11-02T14:37:59Z</time>
      </trkpt>
      <trkpt lat="38.523693177849054" lon="-2.582751782611012">
        <ele>1146.199951171875</ele>
        <time>2019-11-02T14:38:00Z</time>
      </trkpt>
      <trkpt lat="38.523702817037702" lon="-2.582547515630722">
        <ele>1145.4000244140625</ele>
        <time>2019-11-02T14:38:03Z</time>
      </trkpt>
      <trkpt lat="38.523690914735198" lon="-2.582469061017036">
        <ele>1144.800048828125</ele>
        <time>2019-11-02T14:38:04Z</time>
      </trkpt>
      <trkpt lat="38.52365730330348" lon="-2.582310391589999">
        <ele>1144.4000244140625</ele>
        <time>2019-11-02T14:38:06Z</time>
      </trkpt>
      <trkpt lat="38.523640371859074" lon="-2.58222296833992">
        <ele>1143.800048828125</ele>
        <time>2019-11-02T14:38:07Z</time>
      </trkpt>
      <trkpt lat="38.523627044633031" lon="-2.582128085196018">
        <ele>1143.199951171875</ele>
        <time>2019-11-02T14:38:08Z</time>
      </trkpt>
      <trkpt lat="38.523620674386621" lon="-2.582030519843102">
        <ele>1142.800048828125</ele>
        <time>2019-11-02T14:38:09Z</time>
      </trkpt>
      <trkpt lat="38.523620003834367" lon="-2.581935217604041">
        <ele>1142.4000244140625</ele>
        <time>2019-11-02T14:38:10Z</time>
      </trkpt>
      <trkpt lat="38.523632828146219" lon="-2.581750061362982">
        <ele>1141.4000244140625</ele>
        <time>2019-11-02T14:38:12Z</time>
      </trkpt>
      <trkpt lat="38.523690663278103" lon="-2.581567671149969">
        <ele>1140</ele>
        <time>2019-11-02T14:38:14Z</time>
      </trkpt>
      <trkpt lat="38.523735506460071" lon="-2.581481086090207">
        <ele>1139.4000244140625</ele>
        <time>2019-11-02T14:38:15Z</time>
      </trkpt>
      <trkpt lat="38.523783115670085" lon="-2.581391735002398">
        <ele>1139</ele>
        <time>2019-11-02T14:38:16Z</time>
      </trkpt>
      <trkpt lat="38.523859223350883" lon="-2.581200376152992">
        <ele>1138.199951171875</ele>
        <time>2019-11-02T14:38:18Z</time>
      </trkpt>
      <trkpt lat="38.523879675194621" lon="-2.58109618909657">
        <ele>1138</ele>
        <time>2019-11-02T14:38:19Z</time>
      </trkpt>
      <trkpt lat="38.523864252492785" lon="-2.58078396320343">
        <ele>1136.5999755859375</ele>
        <time>2019-11-02T14:38:22Z</time>
      </trkpt>
      <trkpt lat="38.523801472038031" lon="-2.580586904659867">
        <ele>1135.4000244140625</ele>
        <time>2019-11-02T14:38:24Z</time>
      </trkpt>
      <trkpt lat="38.523718658834696" lon="-2.580412980169058">
        <ele>1135</ele>
        <time>2019-11-02T14:38:26Z</time>
      </trkpt>
      <trkpt lat="38.52362897247076" lon="-2.580267302691936">
        <ele>1135</ele>
        <time>2019-11-02T14:38:28Z</time>
      </trkpt>
      <trkpt lat="38.523576920852065" lon="-2.58020150475204">
        <ele>1134.5999755859375</ele>
        <time>2019-11-02T14:38:29Z</time>
      </trkpt>
      <trkpt lat="38.523516487330198" lon="-2.580152051523328">
        <ele>1134.4000244140625</ele>
        <time>2019-11-02T14:38:30Z</time>
      </trkpt>
      <trkpt lat="38.523375755175948" lon="-2.580130510032177">
        <ele>1133.800048828125</ele>
        <time>2019-11-02T14:38:32Z</time>
      </trkpt>
      <trkpt lat="38.523244075477123" lon="-2.580204103142023">
        <ele>1133</ele>
        <time>2019-11-02T14:38:34Z</time>
      </trkpt>
      <trkpt lat="38.523190682753921" lon="-2.580267051234841">
        <ele>1132.4000244140625</ele>
        <time>2019-11-02T14:38:35Z</time>
      </trkpt>
      <trkpt lat="38.523097224533558" lon="-2.580420859158039">
        <ele>1131.800048828125</ele>
        <time>2019-11-02T14:38:37Z</time>
      </trkpt>
      <trkpt lat="38.522991444915533" lon="-2.580580031499267">
        <ele>1130.5999755859375</ele>
        <time>2019-11-02T14:38:39Z</time>
      </trkpt>
      <trkpt lat="38.522858172655106" lon="-2.580717662349343">
        <ele>1129.4000244140625</ele>
        <time>2019-11-02T14:38:41Z</time>
      </trkpt>
      <trkpt lat="38.522699754685163" lon="-2.580825788900256">
        <ele>1128.5999755859375</ele>
        <time>2019-11-02T14:38:43Z</time>
      </trkpt>
      <trkpt lat="38.522447794675827" lon="-2.580980602651834">
        <ele>1127.199951171875</ele>
        <time>2019-11-02T14:38:46Z</time>
      </trkpt>
      <trkpt lat="38.522358108311892" lon="-2.581022931262851">
        <ele>1126.5999755859375</ele>
        <time>2019-11-02T14:38:47Z</time>
      </trkpt>
      <trkpt lat="38.522265991196036" lon="-2.581056458875537">
        <ele>1126</ele>
        <time>2019-11-02T14:38:48Z</time>
      </trkpt>
      <trkpt lat="38.522083265706897" lon="-2.581103146076202">
        <ele>1124.199951171875</ele>
        <time>2019-11-02T14:38:50Z</time>
      </trkpt>
      <trkpt lat="38.521901126950979" lon="-2.581134075298905">
        <ele>1122.800048828125</ele>
        <time>2019-11-02T14:38:52Z</time>
      </trkpt>
      <trkpt lat="38.521716305986047" lon="-2.581152096390724">
        <ele>1121.4000244140625</ele>
        <time>2019-11-02T14:38:54Z</time>
      </trkpt>
      <trkpt lat="38.521624691784382" lon="-2.581149162724614">
        <ele>1120.5999755859375</ele>
        <time>2019-11-02T14:38:55Z</time>
      </trkpt>
      <trkpt lat="38.521537184715271" lon="-2.581137176603079">
        <ele>1119.800048828125</ele>
        <time>2019-11-02T14:38:56Z</time>
      </trkpt>
      <trkpt lat="38.521382035687566" lon="-2.581099541857839">
        <ele>1118.4000244140625</ele>
        <time>2019-11-02T14:38:58Z</time>
      </trkpt>
      <trkpt lat="38.521318584680557" lon="-2.581072635948658">
        <ele>1117.5999755859375</ele>
        <time>2019-11-02T14:38:59Z</time>
      </trkpt>
      <trkpt lat="38.521264856681228" lon="-2.581033995375037">
        <ele>1117</ele>
        <time>2019-11-02T14:39:00Z</time>
      </trkpt>
      <trkpt lat="38.521219259127975" lon="-2.580976663157344">
        <ele>1116.5999755859375</ele>
        <time>2019-11-02T14:39:01Z</time>
      </trkpt>
      <trkpt lat="38.521182797849178" lon="-2.580820256844163">
        <ele>1115.5999755859375</ele>
        <time>2019-11-02T14:39:03Z</time>
      </trkpt>
      <trkpt lat="38.52119511924684" lon="-2.580730654299259">
        <ele>1115.199951171875</ele>
        <time>2019-11-02T14:39:04Z</time>
      </trkpt>
      <trkpt lat="38.521221186965704" lon="-2.580641722306609">
        <ele>1114.5999755859375</ele>
        <time>2019-11-02T14:39:05Z</time>
      </trkpt>
      <trkpt lat="38.521301569417119" lon="-2.580463690683246">
        <ele>1113.199951171875</ele>
        <time>2019-11-02T14:39:07Z</time>
      </trkpt>
      <trkpt lat="38.521346999332309" lon="-2.580370483919978">
        <ele>1112.800048828125</ele>
        <time>2019-11-02T14:39:08Z</time>
      </trkpt>
      <trkpt lat="38.521446827799082" lon="-2.580177281051874">
        <ele>1111.5999755859375</ele>
        <time>2019-11-02T14:39:10Z</time>
      </trkpt>
      <trkpt lat="38.521634079515934" lon="-2.579892966896296">
        <ele>1110.4000244140625</ele>
        <time>2019-11-02T14:39:13Z</time>
      </trkpt>
      <trkpt lat="38.521682610735297" lon="-2.579794814810157">
        <ele>1109.800048828125</ele>
        <time>2019-11-02T14:39:14Z</time>
      </trkpt>
      <trkpt lat="38.521712198853493" lon="-2.579695992171764">
        <ele>1109</ele>
        <time>2019-11-02T14:39:15Z</time>
      </trkpt>
      <trkpt lat="38.521725526079535" lon="-2.579598342999816">
        <ele>1108.4000244140625</ele>
        <time>2019-11-02T14:39:16Z</time>
      </trkpt>
      <trkpt lat="38.521719155833125" lon="-2.579499268904328">
        <ele>1107.800048828125</ele>
        <time>2019-11-02T14:39:17Z</time>
      </trkpt>
      <trkpt lat="38.521662577986717" lon="-2.579317549243569">
        <ele>1106.4000244140625</ele>
        <time>2019-11-02T14:39:19Z</time>
      </trkpt>
      <trkpt lat="38.52156107313931" lon="-2.579192323610187">
        <ele>1105.4000244140625</ele>
        <time>2019-11-02T14:39:21Z</time>
      </trkpt>
      <trkpt lat="38.521494856104255" lon="-2.579166172072291">
        <ele>1105</ele>
        <time>2019-11-02T14:39:22Z</time>
      </trkpt>
      <trkpt lat="38.521350435912609" lon="-2.57918318733573">
        <ele>1104</ele>
        <time>2019-11-02T14:39:24Z</time>
      </trkpt>
      <trkpt lat="38.521278435364366" lon="-2.57921252399683">
        <ele>1103.5999755859375</ele>
        <time>2019-11-02T14:39:25Z</time>
      </trkpt>
      <trkpt lat="38.521137619391084" lon="-2.579302545636892">
        <ele>1102.4000244140625</ele>
        <time>2019-11-02T14:39:27Z</time>
      </trkpt>
      <trkpt lat="38.521070061251521" lon="-2.579356022179127">
        <ele>1101.800048828125</ele>
        <time>2019-11-02T14:39:28Z</time>
      </trkpt>
      <trkpt lat="38.521001245826483" lon="-2.579410085454583">
        <ele>1101.199951171875</ele>
        <time>2019-11-02T14:39:29Z</time>
      </trkpt>
      <trkpt lat="38.520924802869558" lon="-2.579461382701993">
        <ele>1100.800048828125</ele>
        <time>2019-11-02T14:39:30Z</time>
      </trkpt>
      <trkpt lat="38.520840480923653" lon="-2.579514188691974">
        <ele>1100.199951171875</ele>
        <time>2019-11-02T14:39:31Z</time>
      </trkpt>
      <trkpt lat="38.520667897537351" lon="-2.579627763479948">
        <ele>1099</ele>
        <time>2019-11-02T14:39:33Z</time>
      </trkpt>
      <trkpt lat="38.520480562001467" lon="-2.579740583896637">
        <ele>1097</ele>
        <time>2019-11-02T14:39:35Z</time>
      </trkpt>
      <trkpt lat="38.520384673029184" lon="-2.579790372401476">
        <ele>1096</ele>
        <time>2019-11-02T14:39:36Z</time>
      </trkpt>
      <trkpt lat="38.520293142646551" lon="-2.579829599708319">
        <ele>1095.199951171875</ele>
        <time>2019-11-02T14:39:37Z</time>
      </trkpt>
      <trkpt lat="38.52020169608295" lon="-2.579851225018501">
        <ele>1094.5999755859375</ele>
        <time>2019-11-02T14:39:38Z</time>
      </trkpt>
      <trkpt lat="38.520030872896314" lon="-2.579848291352391">
        <ele>1092.800048828125</ele>
        <time>2019-11-02T14:39:40Z</time>
      </trkpt>
      <trkpt lat="38.51985284127295" lon="-2.579840160906315">
        <ele>1091.199951171875</ele>
        <time>2019-11-02T14:39:42Z</time>
      </trkpt>
      <trkpt lat="38.519671875983477" lon="-2.579870335757732">
        <ele>1090</ele>
        <time>2019-11-02T14:39:44Z</time>
      </trkpt>
      <trkpt lat="38.519483283162117" lon="-2.579907719045877">
        <ele>1088.199951171875</ele>
        <time>2019-11-02T14:39:46Z</time>
      </trkpt>
      <trkpt lat="38.519295109435916" lon="-2.579965889453888">
        <ele>1086.199951171875</ele>
        <time>2019-11-02T14:39:48Z</time>
      </trkpt>
      <trkpt lat="38.519202154129744" lon="-2.580014253035188">
        <ele>1085.800048828125</ele>
        <time>2019-11-02T14:39:49Z</time>
      </trkpt>
      <trkpt lat="38.519111797213554" lon="-2.580064544454217">
        <ele>1084.800048828125</ele>
        <time>2019-11-02T14:39:50Z</time>
      </trkpt>
      <trkpt lat="38.519027810543776" lon="-2.580104190856218">
        <ele>1084.199951171875</ele>
        <time>2019-11-02T14:39:51Z</time>
      </trkpt>
      <trkpt lat="38.518952541053295" lon="-2.580121457576752">
        <ele>1082.800048828125</ele>
        <time>2019-11-02T14:39:52Z</time>
      </trkpt>
      <trkpt lat="38.51881742477417" lon="-2.580067478120327">
        <ele>1081.199951171875</ele>
        <time>2019-11-02T14:39:54Z</time>
      </trkpt>
      <trkpt lat="38.518707454204559" lon="-2.579919286072254">
        <ele>1080</ele>
        <time>2019-11-02T14:39:56Z</time>
      </trkpt>
      <trkpt lat="38.518671412020922" lon="-2.57982331328094">
        <ele>1079.4000244140625</ele>
        <time>2019-11-02T14:39:57Z</time>
      </trkpt>
      <trkpt lat="38.51865079253912" lon="-2.579715689644217">
        <ele>1078.800048828125</ele>
        <time>2019-11-02T14:39:58Z</time>
      </trkpt>
      <trkpt lat="38.518634615465999" lon="-2.57960194721818">
        <ele>1078.199951171875</ele>
        <time>2019-11-02T14:39:59Z</time>
      </trkpt>
      <trkpt lat="38.518613409250975" lon="-2.579488288611174">
        <ele>1077.5999755859375</ele>
        <time>2019-11-02T14:40:00Z</time>
      </trkpt>
      <trkpt lat="38.518528835847974" lon="-2.579273711889982">
        <ele>1076.4000244140625</ele>
        <time>2019-11-02T14:40:02Z</time>
      </trkpt>
      <trkpt lat="38.51847686804831" lon="-2.579169357195497">
        <ele>1075.800048828125</ele>
        <time>2019-11-02T14:40:03Z</time>
      </trkpt>
      <trkpt lat="38.518423475325108" lon="-2.579066175967455">
        <ele>1075.199951171875</ele>
        <time>2019-11-02T14:40:04Z</time>
      </trkpt>
      <trkpt lat="38.518365556374192" lon="-2.578970706090331">
        <ele>1074.4000244140625</ele>
        <time>2019-11-02T14:40:05Z</time>
      </trkpt>
      <trkpt lat="38.51829900406301" lon="-2.578891580924392">
        <ele>1073.199951171875</ele>
        <time>2019-11-02T14:40:06Z</time>
      </trkpt>
      <trkpt lat="38.518226835876703" lon="-2.578839445486665">
        <ele>1071.800048828125</ele>
        <time>2019-11-02T14:40:07Z</time>
      </trkpt>
      <trkpt lat="38.518056934699416" lon="-2.578804912045598">
        <ele>1070.199951171875</ele>
        <time>2019-11-02T14:40:09Z</time>
      </trkpt>
      <trkpt lat="38.517965488135815" lon="-2.578803654760122">
        <ele>1069.4000244140625</ele>
        <time>2019-11-02T14:40:10Z</time>
      </trkpt>
      <trkpt lat="38.517874544486403" lon="-2.578798206523061">
        <ele>1068.800048828125</ele>
        <time>2019-11-02T14:40:11Z</time>
      </trkpt>
      <trkpt lat="38.517788210883737" lon="-2.578785298392177">
        <ele>1067.199951171875</ele>
        <time>2019-11-02T14:40:12Z</time>
      </trkpt>
      <trkpt lat="38.517621411010623" lon="-2.578738778829575">
        <ele>1065.4000244140625</ele>
        <time>2019-11-02T14:40:14Z</time>
      </trkpt>
      <trkpt lat="38.517534406855702" lon="-2.578724278137088">
        <ele>1064.199951171875</ele>
        <time>2019-11-02T14:40:15Z</time>
      </trkpt>
      <trkpt lat="38.517366349697113" lon="-2.57874833419919">
        <ele>1063</ele>
        <time>2019-11-02T14:40:17Z</time>
      </trkpt>
      <trkpt lat="38.517236094921827" lon="-2.578820670023561">
        <ele>1060.800048828125</ele>
        <time>2019-11-02T14:40:19Z</time>
      </trkpt>
      <trkpt lat="38.517187144607306" lon="-2.578858137130737">
        <ele>1060.199951171875</ele>
        <time>2019-11-02T14:40:20Z</time>
      </trkpt>
      <trkpt lat="38.51714825257659" lon="-2.578889904543757">
        <ele>1059.5999755859375</ele>
        <time>2019-11-02T14:40:21Z</time>
      </trkpt>
      <trkpt lat="38.517109444364905" lon="-2.578941620886326">
        <ele>1058.199951171875</ele>
        <time>2019-11-02T14:40:23Z</time>
      </trkpt>
      <trkpt lat="38.5171062592417" lon="-2.578959222882986">
        <ele>1057</ele>
        <time>2019-11-02T14:40:26Z</time>
      </trkpt>
      <trkpt lat="38.517109444364905" lon="-2.57896676659584">
        <ele>1056.800048828125</ele>
        <time>2019-11-02T14:40:27Z</time>
      </trkpt>
      <trkpt lat="38.517109276726842" lon="-2.578969532623887">
        <ele>1056.800048828125</ele>
        <time>2019-11-02T14:40:41Z</time>
      </trkpt>
      <trkpt lat="38.517115898430347" lon="-2.579010184854269">
        <ele>1056.5999755859375</ele>
        <time>2019-11-02T14:40:48Z</time>
      </trkpt>
      <trkpt lat="38.517124531790614" lon="-2.579030217602849">
        <ele>1056.5999755859375</ele>
        <time>2019-11-02T14:40:49Z</time>
      </trkpt>
      <trkpt lat="38.517240704968572" lon="-2.579099368304014">
        <ele>1056</ele>
        <time>2019-11-02T14:40:53Z</time>
      </trkpt>
      <trkpt lat="38.5172806866467" lon="-2.579111186787486">
        <ele>1056</ele>
        <time>2019-11-02T14:40:54Z</time>
      </trkpt>
      <trkpt lat="38.517452096566558" lon="-2.579176062718034">
        <ele>1055.199951171875</ele>
        <time>2019-11-02T14:40:58Z</time>
      </trkpt>
      <trkpt lat="38.517495514824986" lon="-2.579210679978132">
        <ele>1055</ele>
        <time>2019-11-02T14:40:59Z</time>
      </trkpt>
      <trkpt lat="38.517645131796598" lon="-2.579428525641561">
        <ele>1054.199951171875</ele>
        <time>2019-11-02T14:41:03Z</time>
      </trkpt>
      <trkpt lat="38.517675725743175" lon="-2.579500693827868">
        <ele>1054</ele>
        <time>2019-11-02T14:41:04Z</time>
      </trkpt>
      <trkpt lat="38.517706738784909" lon="-2.579578142613173">
        <ele>1053.5999755859375</ele>
        <time>2019-11-02T14:41:05Z</time>
      </trkpt>
      <trkpt lat="38.517769770696759" lon="-2.579737566411495">
        <ele>1052.800048828125</ele>
        <time>2019-11-02T14:41:07Z</time>
      </trkpt>
      <trkpt lat="38.517826432362199" lon="-2.579901600256562">
        <ele>1052</ele>
        <time>2019-11-02T14:41:09Z</time>
      </trkpt>
      <trkpt lat="38.517846381291747" lon="-2.579992124810815">
        <ele>1051.5999755859375</ele>
        <time>2019-11-02T14:41:10Z</time>
      </trkpt>
      <trkpt lat="38.517855852842331" lon="-2.580285659059882">
        <ele>1050.4000244140625</ele>
        <time>2019-11-02T14:41:13Z</time>
      </trkpt>
      <trkpt lat="38.517850069329143" lon="-2.580389007925987">
        <ele>1049.5999755859375</ele>
        <time>2019-11-02T14:41:14Z</time>
      </trkpt>
      <trkpt lat="38.517843447625637" lon="-2.580491350963712">
        <ele>1049</ele>
        <time>2019-11-02T14:41:15Z</time>
      </trkpt>
      <trkpt lat="38.517830707132816" lon="-2.580697126686573">
        <ele>1047.800048828125</ele>
        <time>2019-11-02T14:41:17Z</time>
      </trkpt>
      <trkpt lat="38.51781478151679" lon="-2.580913295969367">
        <ele>1046.4000244140625</ele>
        <time>2019-11-02T14:41:19Z</time>
      </trkpt>
      <trkpt lat="38.517794916406274" lon="-2.581140864640474">
        <ele>1045.800048828125</ele>
        <time>2019-11-02T14:41:21Z</time>
      </trkpt>
      <trkpt lat="38.517785696312785" lon="-2.581262653693557">
        <ele>1045.4000244140625</ele>
        <time>2019-11-02T14:41:22Z</time>
      </trkpt>
      <trkpt lat="38.517763735726476" lon="-2.581505728885531">
        <ele>1044.199951171875</ele>
        <time>2019-11-02T14:41:24Z</time>
      </trkpt>
      <trkpt lat="38.5177365783602" lon="-2.5817577727139">
        <ele>1042.5999755859375</ele>
        <time>2019-11-02T14:41:26Z</time>
      </trkpt>
      <trkpt lat="38.51772191002965" lon="-2.581882663071156">
        <ele>1041.800048828125</ele>
        <time>2019-11-02T14:41:27Z</time>
      </trkpt>
      <trkpt lat="38.517712941393256" lon="-2.582009145990014">
        <ele>1041</ele>
        <time>2019-11-02T14:41:28Z</time>
      </trkpt>
      <trkpt lat="38.517711097374558" lon="-2.582262950018048">
        <ele>1040.199951171875</ele>
        <time>2019-11-02T14:41:30Z</time>
      </trkpt>
      <trkpt lat="38.517729537561536" lon="-2.582388427108526">
        <ele>1039.5999755859375</ele>
        <time>2019-11-02T14:41:31Z</time>
      </trkpt>
      <trkpt lat="38.517762059345841" lon="-2.582510635256767">
        <ele>1038.4000244140625</ele>
        <time>2019-11-02T14:41:32Z</time>
      </trkpt>
      <trkpt lat="38.517839843407273" lon="-2.582746921107173">
        <ele>1037</ele>
        <time>2019-11-02T14:41:34Z</time>
      </trkpt>
      <trkpt lat="38.51787437684834" lon="-2.58287038654089">
        <ele>1036.199951171875</ele>
        <time>2019-11-02T14:41:35Z</time>
      </trkpt>
      <trkpt lat="38.517901198938489" lon="-2.58299988694489">
        <ele>1035.5999755859375</ele>
        <time>2019-11-02T14:41:36Z</time>
      </trkpt>
      <trkpt lat="38.517936738207936" lon="-2.583263916894794">
        <ele>1034.4000244140625</ele>
        <time>2019-11-02T14:41:38Z</time>
      </trkpt>
      <trkpt lat="38.517943359911442" lon="-2.583396518602967">
        <ele>1033.800048828125</ele>
        <time>2019-11-02T14:41:39Z</time>
      </trkpt>
      <trkpt lat="38.517940761521459" lon="-2.583530461415648">
        <ele>1033</ele>
        <time>2019-11-02T14:41:40Z</time>
      </trkpt>
      <trkpt lat="38.517907150089741" lon="-2.583796251565218">
        <ele>1031.4000244140625</ele>
        <time>2019-11-02T14:41:42Z</time>
      </trkpt>
      <trkpt lat="38.517882926389575" lon="-2.583922985941172">
        <ele>1030.5999755859375</ele>
        <time>2019-11-02T14:41:43Z</time>
      </trkpt>
      <trkpt lat="38.517858032137156" lon="-2.584047792479396">
        <ele>1030</ele>
        <time>2019-11-02T14:41:44Z</time>
      </trkpt>
      <trkpt lat="38.51780061610043" lon="-2.584300842136145">
        <ele>1028.199951171875</ele>
        <time>2019-11-02T14:41:46Z</time>
      </trkpt>
      <trkpt lat="38.517733896151185" lon="-2.584553556516767">
        <ele>1026.800048828125</ele>
        <time>2019-11-02T14:41:48Z</time>
      </trkpt>
      <trkpt lat="38.517657369375229" lon="-2.584807360544801">
        <ele>1025.5999755859375</ele>
        <time>2019-11-02T14:41:50Z</time>
      </trkpt>
      <trkpt lat="38.517618477344513" lon="-2.584932753816247">
        <ele>1024.5999755859375</ele>
        <time>2019-11-02T14:41:51Z</time>
      </trkpt>
      <trkpt lat="38.517552344128489" lon="-2.585182283073664">
        <ele>1023</ele>
        <time>2019-11-02T14:41:53Z</time>
      </trkpt>
      <trkpt lat="38.5175362508744" lon="-2.585309185087681">
        <ele>1022.20001220703125</ele>
        <time>2019-11-02T14:41:54Z</time>
      </trkpt>
      <trkpt lat="38.517536921426654" lon="-2.58543960750103">
        <ele>1021.79998779296875</ele>
        <time>2019-11-02T14:41:55Z</time>
      </trkpt>
      <trkpt lat="38.517579501494765" lon="-2.585696512833238">
        <ele>1020.20001220703125</ele>
        <time>2019-11-02T14:41:57Z</time>
      </trkpt>
      <trkpt lat="38.517608419060707" lon="-2.585820397362113">
        <ele>1019.5999755859375</ele>
        <time>2019-11-02T14:41:58Z</time>
      </trkpt>
      <trkpt lat="38.517636246979237" lon="-2.585946209728718">
        <ele>1018.5999755859375</ele>
        <time>2019-11-02T14:41:59Z</time>
      </trkpt>
      <trkpt lat="38.517689220607281" lon="-2.586198337376118">
        <ele>1017.5999755859375</ele>
        <time>2019-11-02T14:42:01Z</time>
      </trkpt>
      <trkpt lat="38.517743954434991" lon="-2.586438981816173">
        <ele>1016.20001220703125</ele>
        <time>2019-11-02T14:42:03Z</time>
      </trkpt>
      <trkpt lat="38.517775135114789" lon="-2.586546186357737">
        <ele>1015.79998779296875</ele>
        <time>2019-11-02T14:42:04Z</time>
      </trkpt>
      <trkpt lat="38.517837915569544" lon="-2.586721703410149">
        <ele>1014.79998779296875</ele>
        <time>2019-11-02T14:42:06Z</time>
      </trkpt>
      <trkpt lat="38.517864737659693" lon="-2.5867760181427">
        <ele>1014</ele>
        <time>2019-11-02T14:42:07Z</time>
      </trkpt>
      <trkpt lat="38.517887620255351" lon="-2.586811557412148">
        <ele>1013.4000244140625</ele>
        <time>2019-11-02T14:42:08Z</time>
      </trkpt>
      <trkpt lat="38.517918046563864" lon="-2.586837960407138">
        <ele>1012.5999755859375</ele>
        <time>2019-11-02T14:42:10Z</time>
      </trkpt>
      <trkpt lat="38.517926428467035" lon="-2.586844246834517">
        <ele>1012.4000244140625</ele>
        <time>2019-11-02T14:42:11Z</time>
      </trkpt>
      <trkpt lat="38.517932714894414" lon="-2.586850868538022">
        <ele>1012.4000244140625</ele>
        <time>2019-11-02T14:42:12Z</time>
      </trkpt>
      <trkpt lat="38.517970433458686" lon="-2.586879199370742">
        <ele>1012</ele>
        <time>2019-11-02T14:42:16Z</time>
      </trkpt>
      <trkpt lat="38.518061460927129" lon="-2.586964275687933">
        <ele>1011.5999755859375</ele>
        <time>2019-11-02T14:42:20Z</time>
      </trkpt>
      <trkpt lat="38.518131198361516" lon="-2.587021859362721">
        <ele>1011.20001220703125</ele>
        <time>2019-11-02T14:42:22Z</time>
      </trkpt>
      <trkpt lat="38.518260531127453" lon="-2.587131075561047">
        <ele>1010.20001220703125</ele>
        <time>2019-11-02T14:42:25Z</time>
      </trkpt>
      <trkpt lat="38.518462283536792" lon="-2.587310113012791">
        <ele>1009</ele>
        <time>2019-11-02T14:42:29Z</time>
      </trkpt>
      <trkpt lat="38.518571918830276" lon="-2.587416814640164">
        <ele>1008.20001220703125</ele>
        <time>2019-11-02T14:42:31Z</time>
      </trkpt>
      <trkpt lat="38.518628496676683" lon="-2.587472219020128">
        <ele>1007.79998779296875</ele>
        <time>2019-11-02T14:42:32Z</time>
      </trkpt>
      <trkpt lat="38.518682811409235" lon="-2.5875324010849">
        <ele>1007.4000244140625</ele>
        <time>2019-11-02T14:42:33Z</time>
      </trkpt>
      <trkpt lat="38.518779622390866" lon="-2.58766776882112">
        <ele>1007</ele>
        <time>2019-11-02T14:42:35Z</time>
      </trkpt>
      <trkpt lat="38.518820609897375" lon="-2.587742703035474">
        <ele>1006.79998779296875</ele>
        <time>2019-11-02T14:42:36Z</time>
      </trkpt>
      <trkpt lat="38.518901914358139" lon="-2.587984772399068">
        <ele>1005.79998779296875</ele>
        <time>2019-11-02T14:42:39Z</time>
      </trkpt>
      <trkpt lat="38.518913313746452" lon="-2.588069261983037">
        <ele>1005.5999755859375</ele>
        <time>2019-11-02T14:42:40Z</time>
      </trkpt>
      <trkpt lat="38.518928401172161" lon="-2.5882404204458">
        <ele>1004.79998779296875</ele>
        <time>2019-11-02T14:42:42Z</time>
      </trkpt>
      <trkpt lat="38.518938291817904" lon="-2.588326083496213">
        <ele>1004.20001220703125</ele>
        <time>2019-11-02T14:42:43Z</time>
      </trkpt>
      <trkpt lat="38.518954887986183" lon="-2.588408896699548">
        <ele>1003.79998779296875</ele>
        <time>2019-11-02T14:42:44Z</time>
      </trkpt>
      <trkpt lat="38.518982883542776" lon="-2.588486010208726">
        <ele>1003.20001220703125</ele>
        <time>2019-11-02T14:42:45Z</time>
      </trkpt>
      <trkpt lat="38.519072402268648" lon="-2.588615091517568">
        <ele>1002.4000244140625</ele>
        <time>2019-11-02T14:42:47Z</time>
      </trkpt>
      <trkpt lat="38.51913208141923" lon="-2.588663958013058">
        <ele>1002.20001220703125</ele>
        <time>2019-11-02T14:42:48Z</time>
      </trkpt>
      <trkpt lat="38.519197292625904" lon="-2.588705867528915">
        <ele>1001.79998779296875</ele>
        <time>2019-11-02T14:42:49Z</time>
      </trkpt>
      <trkpt lat="38.519265605136752" lon="-2.588747190311551">
        <ele>1001.4000244140625</ele>
        <time>2019-11-02T14:42:50Z</time>
      </trkpt>
      <trkpt lat="38.51947708055377" lon="-2.588885072618723">
        <ele>1000.20001220703125</ele>
        <time>2019-11-02T14:42:53Z</time>
      </trkpt>
      <trkpt lat="38.519543884322047" lon="-2.588946595788002">
        <ele>999.79998779296875</ele>
        <time>2019-11-02T14:42:54Z</time>
      </trkpt>
      <trkpt lat="38.519660644233227" lon="-2.589097553864121">
        <ele>999</ele>
        <time>2019-11-02T14:42:56Z</time>
      </trkpt>
      <trkpt lat="38.519772542640567" lon="-2.589265359565616">
        <ele>998.5999755859375</ele>
        <time>2019-11-02T14:42:58Z</time>
      </trkpt>
      <trkpt lat="38.51999843493104" lon="-2.589442552998662">
        <ele>998</ele>
        <time>2019-11-02T14:43:01Z</time>
      </trkpt>
      <trkpt lat="38.520161043852568" lon="-2.58948010392487">
        <ele>997.5999755859375</ele>
        <time>2019-11-02T14:43:03Z</time>
      </trkpt>
      <trkpt lat="38.520234720781446" lon="-2.589503405615687">
        <ele>997.4000244140625</ele>
        <time>2019-11-02T14:43:04Z</time>
      </trkpt>
      <trkpt lat="38.52030286565423" lon="-2.589542716741562">
        <ele>997.20001220703125</ele>
        <time>2019-11-02T14:43:05Z</time>
      </trkpt>
      <trkpt lat="38.520401017740369" lon="-2.589683616533875">
        <ele>997</ele>
        <time>2019-11-02T14:43:07Z</time>
      </trkpt>
      <trkpt lat="38.520425073802471" lon="-2.589778332039714">
        <ele>996.79998779296875</ele>
        <time>2019-11-02T14:43:08Z</time>
      </trkpt>
      <trkpt lat="38.520441502332687" lon="-2.589875059202313">
        <ele>996.5999755859375</ele>
        <time>2019-11-02T14:43:09Z</time>
      </trkpt>
      <trkpt lat="38.52045776322484" lon="-2.589972373098135">
        <ele>996.4000244140625</ele>
        <time>2019-11-02T14:43:10Z</time>
      </trkpt>
      <trkpt lat="38.52050076238811" lon="-2.590165911242366">
        <ele>995.79998779296875</ele>
        <time>2019-11-02T14:43:12Z</time>
      </trkpt>
      <trkpt lat="38.520593717694283" lon="-2.590457685291767">
        <ele>994.79998779296875</ele>
        <time>2019-11-02T14:43:15Z</time>
      </trkpt>
      <trkpt lat="38.520634705200791" lon="-2.590552736073732">
        <ele>994.4000244140625</ele>
        <time>2019-11-02T14:43:16Z</time>
      </trkpt>
      <trkpt lat="38.520754147320986" lon="-2.590716937556863">
        <ele>993.20001220703125</ele>
        <time>2019-11-02T14:43:18Z</time>
      </trkpt>
      <trkpt lat="38.520998982712626" lon="-2.590837804600596">
        <ele>992</ele>
        <time>2019-11-02T14:43:21Z</time>
      </trkpt>
      <trkpt lat="38.521073749288917" lon="-2.59085750207305">
        <ele>991.4000244140625</ele>
        <time>2019-11-02T14:43:22Z</time>
      </trkpt>
      <trkpt lat="38.521139128133655" lon="-2.590886000543833">
        <ele>991</ele>
        <time>2019-11-02T14:43:23Z</time>
      </trkpt>
      <trkpt lat="38.521193778142333" lon="-2.590937465429306">
        <ele>990.4000244140625</ele>
        <time>2019-11-02T14:43:24Z</time>
      </trkpt>
      <trkpt lat="38.521268628537655" lon="-2.591094290837646">
        <ele>989.5999755859375</ele>
        <time>2019-11-02T14:43:26Z</time>
      </trkpt>
      <trkpt lat="38.521297043189406" lon="-2.591184228658676">
        <ele>988.79998779296875</ele>
        <time>2019-11-02T14:43:27Z</time>
      </trkpt>
      <trkpt lat="38.521344233304262" lon="-2.591365529224277">
        <ele>988.20001220703125</ele>
        <time>2019-11-02T14:43:29Z</time>
      </trkpt>
      <trkpt lat="38.521394273266196" lon="-2.591637186706066">
        <ele>987.4000244140625</ele>
        <time>2019-11-02T14:43:32Z</time>
      </trkpt>
      <trkpt lat="38.521374575793743" lon="-2.591812117025256">
        <ele>987.20001220703125</ele>
        <time>2019-11-02T14:43:34Z</time>
      </trkpt>
      <trkpt lat="38.52134557440877" lon="-2.591890068724751">
        <ele>987</ele>
        <time>2019-11-02T14:43:35Z</time>
      </trkpt>
      <trkpt lat="38.521261336281896" lon="-2.592028537765145">
        <ele>986.79998779296875</ele>
        <time>2019-11-02T14:43:37Z</time>
      </trkpt>
      <trkpt lat="38.521159160882235" lon="-2.592150578275323">
        <ele>986.4000244140625</ele>
        <time>2019-11-02T14:43:39Z</time>
      </trkpt>
      <trkpt lat="38.520985823124647" lon="-2.592317126691341">
        <ele>986.20001220703125</ele>
        <time>2019-11-02T14:43:42Z</time>
      </trkpt>
      <trkpt lat="38.520734282210469" lon="-2.592539917677641">
        <ele>985</ele>
        <time>2019-11-02T14:43:46Z</time>
      </trkpt>
      <trkpt lat="38.520532362163067" lon="-2.592709315940738">
        <ele>984</ele>
        <time>2019-11-02T14:43:49Z</time>
      </trkpt>
      <trkpt lat="38.520340668037534" lon="-2.592888604849577">
        <ele>982.5999755859375</ele>
        <time>2019-11-02T14:43:52Z</time>
      </trkpt>
      <trkpt lat="38.520281324163079" lon="-2.592953983694315">
        <ele>982.20001220703125</ele>
        <time>2019-11-02T14:43:53Z</time>
      </trkpt>
      <trkpt lat="38.520021820440888" lon="-2.593339215964079">
        <ele>981</ele>
        <time>2019-11-02T14:43:58Z</time>
      </trkpt>
      <trkpt lat="38.519909419119358" lon="-2.593495957553387">
        <ele>980</ele>
        <time>2019-11-02T14:44:00Z</time>
      </trkpt>
      <trkpt lat="38.519727280363441" lon="-2.593724615871906">
        <ele>978.5999755859375</ele>
        <time>2019-11-02T14:44:03Z</time>
      </trkpt>
      <trkpt lat="38.519597947597504" lon="-2.593881692737341">
        <ele>977.4000244140625</ele>
        <time>2019-11-02T14:44:05Z</time>
      </trkpt>
      <trkpt lat="38.519402146339417" lon="-2.594103896990418">
        <ele>976.20001220703125</ele>
        <time>2019-11-02T14:44:08Z</time>
      </trkpt>
      <trkpt lat="38.519280273467302" lon="-2.59425644762814">
        <ele>975</ele>
        <time>2019-11-02T14:44:10Z</time>
      </trkpt>
      <trkpt lat="38.519171895459294" lon="-2.59442743845284">
        <ele>973.79998779296875</ele>
        <time>2019-11-02T14:44:12Z</time>
      </trkpt>
      <trkpt lat="38.51906955242157" lon="-2.594612259417772">
        <ele>972.5999755859375</ele>
        <time>2019-11-02T14:44:14Z</time>
      </trkpt>
      <trkpt lat="38.51896595209837" lon="-2.59480370208621">
        <ele>971.5999755859375</ele>
        <time>2019-11-02T14:44:16Z</time>
      </trkpt>
      <trkpt lat="38.518854640424252" lon="-2.594994055107236">
        <ele>970</ele>
        <time>2019-11-02T14:44:18Z</time>
      </trkpt>
      <trkpt lat="38.518735198304057" lon="-2.595175188034773">
        <ele>968.5999755859375</ele>
        <time>2019-11-02T14:44:20Z</time>
      </trkpt>
      <trkpt lat="38.518609972670674" lon="-2.595350118353963">
        <ele>967.20001220703125</ele>
        <time>2019-11-02T14:44:22Z</time>
      </trkpt>
      <trkpt lat="38.518545599654317" lon="-2.595438882708549">
        <ele>966.20001220703125</ele>
        <time>2019-11-02T14:44:23Z</time>
      </trkpt>
      <trkpt lat="38.518480472266674" lon="-2.595527395606041">
        <ele>965.5999755859375</ele>
        <time>2019-11-02T14:44:24Z</time>
      </trkpt>
      <trkpt lat="38.518347032368183" lon="-2.595706852152944">
        <ele>964.4000244140625</ele>
        <time>2019-11-02T14:44:26Z</time>
      </trkpt>
      <trkpt lat="38.518209652975202" lon="-2.595889242365956">
        <ele>963</ele>
        <time>2019-11-02T14:44:28Z</time>
      </trkpt>
      <trkpt lat="38.51807864382863" lon="-2.596084708347917">
        <ele>961.5999755859375</ele>
        <time>2019-11-02T14:44:30Z</time>
      </trkpt>
      <trkpt lat="38.518018713220954" lon="-2.596188895404339">
        <ele>960.5999755859375</ele>
        <time>2019-11-02T14:44:31Z</time>
      </trkpt>
      <trkpt lat="38.51790614426136" lon="-2.596407076343894">
        <ele>959.20001220703125</ele>
        <time>2019-11-02T14:44:33Z</time>
      </trkpt>
      <trkpt lat="38.517852667719126" lon="-2.596520567312837">
        <ele>958</ele>
        <time>2019-11-02T14:44:34Z</time>
      </trkpt>
      <trkpt lat="38.517753593623638" lon="-2.596745369955897">
        <ele>956.5999755859375</ele>
        <time>2019-11-02T14:44:36Z</time>
      </trkpt>
      <trkpt lat="38.51765594445169" lon="-2.596967658028007">
        <ele>955.4000244140625</ele>
        <time>2019-11-02T14:44:38Z</time>
      </trkpt>
      <trkpt lat="38.517553517594934" lon="-2.59717745706439">
        <ele>953.79998779296875</ele>
        <time>2019-11-02T14:44:40Z</time>
      </trkpt>
      <trkpt lat="38.517453018575907" lon="-2.597384490072727">
        <ele>952.20001220703125</ele>
        <time>2019-11-02T14:44:42Z</time>
      </trkpt>
      <trkpt lat="38.517398787662387" lon="-2.59748624637723">
        <ele>951.20001220703125</ele>
        <time>2019-11-02T14:44:43Z</time>
      </trkpt>
      <trkpt lat="38.517343131825328" lon="-2.597586326301098">
        <ele>950.4000244140625</ele>
        <time>2019-11-02T14:44:44Z</time>
      </trkpt>
      <trkpt lat="38.517232742160559" lon="-2.597758071497083">
        <ele>949.4000244140625</ele>
        <time>2019-11-02T14:44:46Z</time>
      </trkpt>
      <trkpt lat="38.517189072445035" lon="-2.597817750647664">
        <ele>948.20001220703125</ele>
        <time>2019-11-02T14:44:47Z</time>
      </trkpt>
      <trkpt lat="38.517131991684437" lon="-2.597893103957176">
        <ele>946.79998779296875</ele>
        <time>2019-11-02T14:44:49Z</time>
      </trkpt>
      <trkpt lat="38.517117239534855" lon="-2.597911795601249">
        <ele>946</ele>
        <time>2019-11-02T14:44:50Z</time>
      </trkpt>
      <trkpt lat="38.517108773812652" lon="-2.597921183332801">
        <ele>945.5999755859375</ele>
        <time>2019-11-02T14:44:51Z</time>
      </trkpt>
      <trkpt lat="38.517109612002969" lon="-2.597918333485723">
        <ele>945.20001220703125</ele>
        <time>2019-11-02T14:44:54Z</time>
      </trkpt>
      <trkpt lat="38.517060410231352" lon="-2.597936606034636">
        <ele>944.79998779296875</ele>
        <time>2019-11-02T14:45:03Z</time>
      </trkpt>
      <trkpt lat="38.517012549564242" lon="-2.597975078970194">
        <ele>944.5999755859375</ele>
        <time>2019-11-02T14:45:05Z</time>
      </trkpt>
      <trkpt lat="38.516920348629355" lon="-2.598067028447986">
        <ele>944.20001220703125</ele>
        <time>2019-11-02T14:45:08Z</time>
      </trkpt>
      <trkpt lat="38.516843067482114" lon="-2.598144058138132">
        <ele>943.4000244140625</ele>
        <time>2019-11-02T14:45:10Z</time>
      </trkpt>
      <trkpt lat="38.516698814928532" lon="-2.598277078941464">
        <ele>942.4000244140625</ele>
        <time>2019-11-02T14:45:13Z</time>
      </trkpt>
      <trkpt lat="38.51655556820333" lon="-2.598457708954811">
        <ele>941.4000244140625</ele>
        <time>2019-11-02T14:45:16Z</time>
      </trkpt>
      <trkpt lat="38.516488093882799" lon="-2.598623335361481">
        <ele>940.20001220703125</ele>
        <time>2019-11-02T14:45:18Z</time>
      </trkpt>
      <trkpt lat="38.516455572098494" lon="-2.59881729260087">
        <ele>939</ele>
        <time>2019-11-02T14:45:20Z</time>
      </trkpt>
      <trkpt lat="38.516458673402667" lon="-2.599023319780827">
        <ele>937.79998779296875</ele>
        <time>2019-11-02T14:45:22Z</time>
      </trkpt>
      <trkpt lat="38.516494799405336" lon="-2.599234376102686">
        <ele>937</ele>
        <time>2019-11-02T14:45:24Z</time>
      </trkpt>
      <trkpt lat="38.516516759991646" lon="-2.599345184862614">
        <ele>936.5999755859375</ele>
        <time>2019-11-02T14:45:25Z</time>
      </trkpt>
      <trkpt lat="38.516560848802328" lon="-2.599573759362102">
        <ele>935.4000244140625</ele>
        <time>2019-11-02T14:45:27Z</time>
      </trkpt>
      <trkpt lat="38.516608290374279" lon="-2.599814236164093">
        <ele>933.79998779296875</ele>
        <time>2019-11-02T14:45:29Z</time>
      </trkpt>
      <trkpt lat="38.516658246517181" lon="-2.600067453458905">
        <ele>932.4000244140625</ele>
        <time>2019-11-02T14:45:31Z</time>
      </trkpt>
      <trkpt lat="38.516703089699149" lon="-2.600316731259227">
        <ele>930.79998779296875</ele>
        <time>2019-11-02T14:45:33Z</time>
      </trkpt>
      <trkpt lat="38.516726978123188" lon="-2.600436257198453">
        <ele>930.20001220703125</ele>
        <time>2019-11-02T14:45:34Z</time>
      </trkpt>
      <trkpt lat="38.516750112175941" lon="-2.600553687661886">
        <ele>929.5999755859375</ele>
        <time>2019-11-02T14:45:35Z</time>
      </trkpt>
      <trkpt lat="38.516810294240713" lon="-2.600893741473556">
        <ele>928.20001220703125</ele>
        <time>2019-11-02T14:45:38Z</time>
      </trkpt>
      <trkpt lat="38.516851868480444" lon="-2.601099433377385">
        <ele>927.5999755859375</ele>
        <time>2019-11-02T14:45:40Z</time>
      </trkpt>
      <trkpt lat="38.516936358064413" lon="-2.601376874372363">
        <ele>927</ele>
        <time>2019-11-02T14:45:43Z</time>
      </trkpt>
      <trkpt lat="38.516997043043375" lon="-2.601541075855494">
        <ele>926.79998779296875</ele>
        <time>2019-11-02T14:45:45Z</time>
      </trkpt>
      <trkpt lat="38.5170544590801" lon="-2.601780965924263">
        <ele>926.5999755859375</ele>
        <time>2019-11-02T14:45:48Z</time>
      </trkpt>
      <trkpt lat="38.517080778256059" lon="-2.601944329217076">
        <ele>926.5999755859375</ele>
        <time>2019-11-02T14:45:50Z</time>
      </trkpt>
      <trkpt lat="38.517180606722832" lon="-2.602575235068798">
        <ele>926.4000244140625</ele>
        <time>2019-11-02T14:45:58Z</time>
      </trkpt>
      <trkpt lat="38.51726015098393" lon="-2.603103462606668">
        <ele>926.5999755859375</ele>
        <time>2019-11-02T14:46:05Z</time>
      </trkpt>
      <trkpt lat="38.517268029972911" lon="-2.603477714583278">
        <ele>926</ele>
        <time>2019-11-02T14:46:10Z</time>
      </trkpt>
      <trkpt lat="38.517266688868403" lon="-2.603557510301471">
        <ele>926</ele>
        <time>2019-11-02T14:46:11Z</time>
      </trkpt>
      <trkpt lat="38.517234334722161" lon="-2.604056317359209">
        <ele>925</ele>
        <time>2019-11-02T14:46:17Z</time>
      </trkpt>
      <trkpt lat="38.517215307801962" lon="-2.60413896292448">
        <ele>924.79998779296875</ele>
        <time>2019-11-02T14:46:18Z</time>
      </trkpt>
      <trkpt lat="38.517120508477092" lon="-2.604371309280396">
        <ele>923.4000244140625</ele>
        <time>2019-11-02T14:46:21Z</time>
      </trkpt>
      <trkpt lat="38.517078850418329" lon="-2.604447836056352">
        <ele>923.20001220703125</ele>
        <time>2019-11-02T14:46:22Z</time>
      </trkpt>
      <trkpt lat="38.516992349177599" lon="-2.604603320360184">
        <ele>922.20001220703125</ele>
        <time>2019-11-02T14:46:24Z</time>
      </trkpt>
      <trkpt lat="38.516899142414331" lon="-2.604764420539141">
        <ele>921.20001220703125</ele>
        <time>2019-11-02T14:46:26Z</time>
      </trkpt>
      <trkpt lat="38.516806270927191" lon="-2.604928286746144">
        <ele>920</ele>
        <time>2019-11-02T14:46:28Z</time>
      </trkpt>
      <trkpt lat="38.516757655888796" lon="-2.605009842664003">
        <ele>919.5999755859375</ele>
        <time>2019-11-02T14:46:29Z</time>
      </trkpt>
      <trkpt lat="38.516606194898486" lon="-2.605230705812573">
        <ele>918.79998779296875</ele>
        <time>2019-11-02T14:46:32Z</time>
      </trkpt>
      <trkpt lat="38.516551544889808" lon="-2.605293402448297">
        <ele>918.79998779296875</ele>
        <time>2019-11-02T14:46:33Z</time>
      </trkpt>
      <trkpt lat="38.516494128853083" lon="-2.605348890647292">
        <ele>918.5999755859375</ele>
        <time>2019-11-02T14:46:34Z</time>
      </trkpt>
      <trkpt lat="38.516256166622043" lon="-2.605554917827249">
        <ele>917.79998779296875</ele>
        <time>2019-11-02T14:46:38Z</time>
      </trkpt>
      <trkpt lat="38.51606891490519" lon="-2.605716772377491">
        <ele>916.5999755859375</ele>
        <time>2019-11-02T14:46:41Z</time>
      </trkpt>
      <trkpt lat="38.516012504696846" lon="-2.605778127908707">
        <ele>916.4000244140625</ele>
        <time>2019-11-02T14:46:42Z</time>
      </trkpt>
      <trkpt lat="38.515769764780998" lon="-2.606121031567454">
        <ele>915.4000244140625</ele>
        <time>2019-11-02T14:46:47Z</time>
      </trkpt>
      <trkpt lat="38.515727268531919" lon="-2.606193702667952">
        <ele>915.20001220703125</ele>
        <time>2019-11-02T14:46:48Z</time>
      </trkpt>
      <trkpt lat="38.515566922724247" lon="-2.606594106182456">
        <ele>914.79998779296875</ele>
        <time>2019-11-02T14:46:53Z</time>
      </trkpt>
      <trkpt lat="38.515501543879509" lon="-2.607018398120999">
        <ele>914.5999755859375</ele>
        <time>2019-11-02T14:46:58Z</time>
      </trkpt>
      <trkpt lat="38.515495508909225" lon="-2.607102887704968">
        <ele>914.4000244140625</ele>
        <time>2019-11-02T14:46:59Z</time>
      </trkpt>
      <trkpt lat="38.515486204996705" lon="-2.607428021728992">
        <ele>914.5999755859375</ele>
        <time>2019-11-02T14:47:03Z</time>
      </trkpt>
      <trkpt lat="38.51550112478435" lon="-2.607581578195095">
        <ele>915</ele>
        <time>2019-11-02T14:47:05Z</time>
      </trkpt>
      <trkpt lat="38.515540771186352" lon="-2.607791963964701">
        <ele>915.79998779296875</ele>
        <time>2019-11-02T14:47:08Z</time>
      </trkpt>
      <trkpt lat="38.515578657388687" lon="-2.60797418653965">
        <ele>915.79998779296875</ele>
        <time>2019-11-02T14:47:11Z</time>
      </trkpt>
      <trkpt lat="38.515667673200369" lon="-2.608383977785707">
        <ele>916.4000244140625</ele>
        <time>2019-11-02T14:47:18Z</time>
      </trkpt>
      <trkpt lat="38.515716791152954" lon="-2.608541892841458">
        <ele>916.79998779296875</ele>
        <time>2019-11-02T14:47:21Z</time>
      </trkpt>
      <trkpt lat="38.515787785872817" lon="-2.608734173700213">
        <ele>917</ele>
        <time>2019-11-02T14:47:25Z</time>
      </trkpt>
      <trkpt lat="38.515930781140924" lon="-2.608986552804708">
        <ele>917.5999755859375</ele>
        <time>2019-11-02T14:47:31Z</time>
      </trkpt>
      <trkpt lat="38.516014516353607" lon="-2.60908923111856">
        <ele>918</ele>
        <time>2019-11-02T14:47:34Z</time>
      </trkpt>
      <trkpt lat="38.516096323728561" lon="-2.609171876683831">
        <ele>918.20001220703125</ele>
        <time>2019-11-02T14:47:37Z</time>
      </trkpt>
      <trkpt lat="38.516300674527884" lon="-2.609352925792336">
        <ele>918.5999755859375</ele>
        <time>2019-11-02T14:47:45Z</time>
      </trkpt>
      <trkpt lat="38.516450542956591" lon="-2.609492316842079">
        <ele>919</ele>
        <time>2019-11-02T14:47:51Z</time>
      </trkpt>
      <trkpt lat="38.516474766656756" lon="-2.609517797827721">
        <ele>919.20001220703125</ele>
        <time>2019-11-02T14:47:52Z</time>
      </trkpt>
      <trkpt lat="38.516657324507833" lon="-2.609685519710183">
        <ele>919.4000244140625</ele>
        <time>2019-11-02T14:47:59Z</time>
      </trkpt>
      <trkpt lat="38.516763271763921" lon="-2.609776211902499">
        <ele>920.20001220703125</ele>
        <time>2019-11-02T14:48:03Z</time>
      </trkpt>
      <trkpt lat="38.516841474920511" lon="-2.609843937680125">
        <ele>921</ele>
        <time>2019-11-02T14:48:06Z</time>
      </trkpt>
      <trkpt lat="38.516924371942878" lon="-2.609921051189303">
        <ele>921.20001220703125</ele>
        <time>2019-11-02T14:48:09Z</time>
      </trkpt>
      <trkpt lat="38.517013723030686" lon="-2.610000008717179">
        <ele>921.5999755859375</ele>
        <time>2019-11-02T14:48:12Z</time>
      </trkpt>
      <trkpt lat="38.517218492925167" lon="-2.610191535204649">
        <ele>922.20001220703125</ele>
        <time>2019-11-02T14:48:19Z</time>
      </trkpt>
      <trkpt lat="38.517268868163228" lon="-2.610244005918503">
        <ele>922.4000244140625</ele>
        <time>2019-11-02T14:48:21Z</time>
      </trkpt>
      <trkpt lat="38.517339779064059" lon="-2.610349450260401">
        <ele>923.20001220703125</ele>
        <time>2019-11-02T14:48:25Z</time>
      </trkpt>
      <trkpt lat="38.517356207594275" lon="-2.610371578484774">
        <ele>923.5999755859375</ele>
        <time>2019-11-02T14:48:26Z</time>
      </trkpt>
      <trkpt lat="38.517422843724489" lon="-2.61046914383769">
        <ele>924.20001220703125</ele>
        <time>2019-11-02T14:48:31Z</time>
      </trkpt>
      <trkpt lat="38.517424101009965" lon="-2.610491858795285">
        <ele>924.20001220703125</ele>
        <time>2019-11-02T14:48:32Z</time>
      </trkpt>
      <trkpt lat="38.517406079918146" lon="-2.610544916242361">
        <ele>924</ele>
        <time>2019-11-02T14:48:35Z</time>
      </trkpt>
      <trkpt lat="38.517376994714141" lon="-2.610571151599288">
        <ele>924</ele>
        <time>2019-11-02T14:48:37Z</time>
      </trkpt>
      <trkpt lat="38.517343634739518" lon="-2.610596297308803">
        <ele>924.20001220703125</ele>
        <time>2019-11-02T14:48:40Z</time>
      </trkpt>
      <trkpt lat="38.517317650839686" lon="-2.610605852678418">
        <ele>924</ele>
        <time>2019-11-02T14:48:42Z</time>
      </trkpt>
      <trkpt lat="38.517274735495448" lon="-2.610621359199286">
        <ele>923.79998779296875</ele>
        <time>2019-11-02T14:48:46Z</time>
      </trkpt>
      <trkpt lat="38.517264844849706" lon="-2.610625885426998">
        <ele>924.20001220703125</ele>
        <time>2019-11-02T14:48:52Z</time>
      </trkpt>
      <trkpt lat="38.5175940" lon="-2.6105600">
        <ele>918.6</ele>
        <time>2019-11-03T08:16:25Z</time>
      </trkpt>
      <trkpt lat="38.5175780" lon="-2.6105520">
        <ele>918.6</ele>
        <time>2019-11-03T08:16:26Z</time>
      </trkpt>
      <trkpt lat="38.5175780" lon="-2.6105490">
        <ele>918.6</ele>
        <time>2019-11-03T08:16:27Z</time>
      </trkpt>
      <trkpt lat="38.5175730" lon="-2.6105460">
        <ele>918.6</ele>
        <time>2019-11-03T08:16:28Z</time>
      </trkpt>
      <trkpt lat="38.5175730" lon="-2.6105410">
        <ele>918.6</ele>
        <time>2019-11-03T08:16:29Z</time>
      </trkpt>
      <trkpt lat="38.5175730" lon="-2.6105340">
        <ele>918.6</ele>
        <time>2019-11-03T08:16:30Z</time>
      </trkpt>
      <trkpt lat="38.5175730" lon="-2.6105240">
        <ele>918.6</ele>
        <time>2019-11-03T08:16:31Z</time>
      </trkpt>
      <trkpt lat="38.5175710" lon="-2.6105160">
        <ele>918.6</ele>
        <time>2019-11-03T08:16:32Z</time>
      </trkpt>
      <trkpt lat="38.5175650" lon="-2.6105100">
        <ele>918.6</ele>
        <time>2019-11-03T08:16:33Z</time>
      </trkpt>
      <trkpt lat="38.5175600" lon="-2.6105020">
        <ele>918.6</ele>
        <time>2019-11-03T08:16:34Z</time>
      </trkpt>
      <trkpt lat="38.5175530" lon="-2.6104940">
        <ele>918.6</ele>
        <time>2019-11-03T08:16:35Z</time>
      </trkpt>
      <trkpt lat="38.5175450" lon="-2.6104880">
        <ele>918.6</ele>
        <time>2019-11-03T08:16:36Z</time>
      </trkpt>
      <trkpt lat="38.5175370" lon="-2.6104830">
        <ele>918.6</ele>
        <time>2019-11-03T08:16:37Z</time>
      </trkpt>
      <trkpt lat="38.5175320" lon="-2.6104790">
        <ele>918.6</ele>
        <time>2019-11-03T08:16:38Z</time>
      </trkpt>
      <trkpt lat="38.5175240" lon="-2.6104750">
        <ele>918.6</ele>
        <time>2019-11-03T08:16:39Z</time>
      </trkpt>
      <trkpt lat="38.5175220" lon="-2.6104700">
        <ele>918.6</ele>
        <time>2019-11-03T08:16:40Z</time>
      </trkpt>
      <trkpt lat="38.5174140" lon="-2.6104010">
        <ele>918.6</ele>
        <time>2019-11-03T08:17:13Z</time>
      </trkpt>
      <trkpt lat="38.5173940" lon="-2.6103330">
        <ele>918.6</ele>
        <time>2019-11-03T08:17:18Z</time>
      </trkpt>
      <trkpt lat="38.5173530" lon="-2.6102700">
        <ele>918.6</ele>
        <time>2019-11-03T08:17:21Z</time>
      </trkpt>
      <trkpt lat="38.5172890" lon="-2.6101940">
        <ele>918.6</ele>
        <time>2019-11-03T08:17:24Z</time>
      </trkpt>
      <trkpt lat="38.5172280" lon="-2.6101360">
        <ele>918.6</ele>
        <time>2019-11-03T08:17:26Z</time>
      </trkpt>
      <trkpt lat="38.5171640" lon="-2.6100730">
        <ele>918.6</ele>
        <time>2019-11-03T08:17:28Z</time>
      </trkpt>
      <trkpt lat="38.5170870" lon="-2.6100090">
        <ele>918.6</ele>
        <time>2019-11-03T08:17:30Z</time>
      </trkpt>
      <trkpt lat="38.5170050" lon="-2.6099460">
        <ele>917.5</ele>
        <time>2019-11-03T08:17:32Z</time>
      </trkpt>
      <trkpt lat="38.5169250" lon="-2.6098840">
        <ele>917.5</ele>
        <time>2019-11-03T08:17:34Z</time>
      </trkpt>
      <trkpt lat="38.5168490" lon="-2.6098210">
        <ele>917.5</ele>
        <time>2019-11-03T08:17:36Z</time>
      </trkpt>
      <trkpt lat="38.5167670" lon="-2.6097550">
        <ele>916.3</ele>
        <time>2019-11-03T08:17:38Z</time>
      </trkpt>
      <trkpt lat="38.5167230" lon="-2.6097210">
        <ele>916.3</ele>
        <time>2019-11-03T08:17:39Z</time>
      </trkpt>
      <trkpt lat="38.5166820" lon="-2.6096840">
        <ele>916.3</ele>
        <time>2019-11-03T08:17:40Z</time>
      </trkpt>
      <trkpt lat="38.5165900" lon="-2.6096080">
        <ele>916.3</ele>
        <time>2019-11-03T08:17:42Z</time>
      </trkpt>
      <trkpt lat="38.5165440" lon="-2.6095680">
        <ele>916.3</ele>
        <time>2019-11-03T08:17:43Z</time>
      </trkpt>
      <trkpt lat="38.5164980" lon="-2.6095280">
        <ele>915.1</ele>
        <time>2019-11-03T08:17:44Z</time>
      </trkpt>
      <trkpt lat="38.5164490" lon="-2.6094870">
        <ele>915.1</ele>
        <time>2019-11-03T08:17:45Z</time>
      </trkpt>
      <trkpt lat="38.5164010" lon="-2.6094450">
        <ele>915.1</ele>
        <time>2019-11-03T08:17:46Z</time>
      </trkpt>
      <trkpt lat="38.5163550" lon="-2.6094070">
        <ele>915.1</ele>
        <time>2019-11-03T08:17:47Z</time>
      </trkpt>
      <trkpt lat="38.5163080" lon="-2.6093670">
        <ele>915.1</ele>
        <time>2019-11-03T08:17:48Z</time>
      </trkpt>
      <trkpt lat="38.5162620" lon="-2.6093280">
        <ele>915.1</ele>
        <time>2019-11-03T08:17:49Z</time>
      </trkpt>
      <trkpt lat="38.5162190" lon="-2.6092920">
        <ele>913.9</ele>
        <time>2019-11-03T08:17:50Z</time>
      </trkpt>
      <trkpt lat="38.5161750" lon="-2.6092550">
        <ele>913.9</ele>
        <time>2019-11-03T08:17:51Z</time>
      </trkpt>
      <trkpt lat="38.5161320" lon="-2.6092170">
        <ele>913.9</ele>
        <time>2019-11-03T08:17:53Z</time>
      </trkpt>
      <trkpt lat="38.5160860" lon="-2.6091730">
        <ele>913.9</ele>
        <time>2019-11-03T08:17:54Z</time>
      </trkpt>
      <trkpt lat="38.5160400" lon="-2.6091300">
        <ele>913.9</ele>
        <time>2019-11-03T08:17:55Z</time>
      </trkpt>
      <trkpt lat="38.5159960" lon="-2.6090900">
        <ele>913.9</ele>
        <time>2019-11-03T08:17:56Z</time>
      </trkpt>
      <trkpt lat="38.5159190" lon="-2.6090120">
        <ele>912.6</ele>
        <time>2019-11-03T08:17:58Z</time>
      </trkpt>
      <trkpt lat="38.5158580" lon="-2.6089370">
        <ele>912.6</ele>
        <time>2019-11-03T08:18:00Z</time>
      </trkpt>
      <trkpt lat="38.5158020" lon="-2.6088570">
        <ele>912.6</ele>
        <time>2019-11-03T08:18:02Z</time>
      </trkpt>
      <trkpt lat="38.5157480" lon="-2.6087670">
        <ele>912.6</ele>
        <time>2019-11-03T08:18:04Z</time>
      </trkpt>
      <trkpt lat="38.5157040" lon="-2.6086720">
        <ele>912.6</ele>
        <time>2019-11-03T08:18:06Z</time>
      </trkpt>
      <trkpt lat="38.5156660" lon="-2.6085700">
        <ele>912.6</ele>
        <time>2019-11-03T08:18:08Z</time>
      </trkpt>
      <trkpt lat="38.5156400" lon="-2.6084600">
        <ele>912.6</ele>
        <time>2019-11-03T08:18:10Z</time>
      </trkpt>
      <trkpt lat="38.5156150" lon="-2.6083440">
        <ele>912.6</ele>
        <time>2019-11-03T08:18:12Z</time>
      </trkpt>
      <trkpt lat="38.5155870" lon="-2.6082240">
        <ele>912.6</ele>
        <time>2019-11-03T08:18:14Z</time>
      </trkpt>
      <trkpt lat="38.5155640" lon="-2.6081100">
        <ele>911.5</ele>
        <time>2019-11-03T08:18:16Z</time>
      </trkpt>
      <trkpt lat="38.5155400" lon="-2.6079930">
        <ele>911.5</ele>
        <time>2019-11-03T08:18:18Z</time>
      </trkpt>
      <trkpt lat="38.5155150" lon="-2.6078810">
        <ele>911.5</ele>
        <time>2019-11-03T08:18:20Z</time>
      </trkpt>
      <trkpt lat="38.5154870" lon="-2.6077680">
        <ele>911.5</ele>
        <time>2019-11-03T08:18:22Z</time>
      </trkpt>
      <trkpt lat="38.5154640" lon="-2.6076550">
        <ele>911.5</ele>
        <time>2019-11-03T08:18:24Z</time>
      </trkpt>
      <trkpt lat="38.5154530" lon="-2.6075980">
        <ele>911.5</ele>
        <time>2019-11-03T08:18:25Z</time>
      </trkpt>
      <trkpt lat="38.5154360" lon="-2.6074840">
        <ele>911.5</ele>
        <time>2019-11-03T08:18:27Z</time>
      </trkpt>
      <trkpt lat="38.5154230" lon="-2.6073720">
        <ele>911.5</ele>
        <time>2019-11-03T08:18:29Z</time>
      </trkpt>
      <trkpt lat="38.5154150" lon="-2.6072580">
        <ele>911.5</ele>
        <time>2019-11-03T08:18:31Z</time>
      </trkpt>
      <trkpt lat="38.5154200" lon="-2.6071480">
        <ele>910.3</ele>
        <time>2019-11-03T08:18:33Z</time>
      </trkpt>
      <trkpt lat="38.5154280" lon="-2.6070320">
        <ele>910.3</ele>
        <time>2019-11-03T08:18:35Z</time>
      </trkpt>
      <trkpt lat="38.5154380" lon="-2.6069160">
        <ele>913.6</ele>
        <time>2019-11-03T08:18:37Z</time>
      </trkpt>
      <trkpt lat="38.5154460" lon="-2.6068590">
        <ele>913.6</ele>
        <time>2019-11-03T08:18:38Z</time>
      </trkpt>
      <trkpt lat="38.5154640" lon="-2.6067450">
        <ele>913.6</ele>
        <time>2019-11-03T08:18:40Z</time>
      </trkpt>
      <trkpt lat="38.5154840" lon="-2.6066330">
        <ele>913.6</ele>
        <time>2019-11-03T08:18:42Z</time>
      </trkpt>
      <trkpt lat="38.5155100" lon="-2.6065290">
        <ele>913.6</ele>
        <time>2019-11-03T08:18:44Z</time>
      </trkpt>
      <trkpt lat="38.5155400" lon="-2.6064270">
        <ele>913.6</ele>
        <time>2019-11-03T08:18:46Z</time>
      </trkpt>
      <trkpt lat="38.5155840" lon="-2.6063250">
        <ele>913.6</ele>
        <time>2019-11-03T08:18:48Z</time>
      </trkpt>
      <trkpt lat="38.5156300" lon="-2.6062280">
        <ele>913.6</ele>
        <time>2019-11-03T08:18:50Z</time>
      </trkpt>
      <trkpt lat="38.5156790" lon="-2.6061320">
        <ele>913.6</ele>
        <time>2019-11-03T08:18:52Z</time>
      </trkpt>
      <trkpt lat="38.5157270" lon="-2.6060420">
        <ele>913.6</ele>
        <time>2019-11-03T08:18:54Z</time>
      </trkpt>
      <trkpt lat="38.5157790" lon="-2.6059580">
        <ele>913.6</ele>
        <time>2019-11-03T08:18:56Z</time>
      </trkpt>
      <trkpt lat="38.5158300" lon="-2.6058740">
        <ele>913.6</ele>
        <time>2019-11-03T08:18:58Z</time>
      </trkpt>
      <trkpt lat="38.5158890" lon="-2.6057980">
        <ele>913.6</ele>
        <time>2019-11-03T08:19:00Z</time>
      </trkpt>
      <trkpt lat="38.5159530" lon="-2.6057270">
        <ele>913.6</ele>
        <time>2019-11-03T08:19:02Z</time>
      </trkpt>
      <trkpt lat="38.5160170" lon="-2.6056570">
        <ele>913.6</ele>
        <time>2019-11-03T08:19:04Z</time>
      </trkpt>
      <trkpt lat="38.5160780" lon="-2.6055920">
        <ele>913.6</ele>
        <time>2019-11-03T08:19:06Z</time>
      </trkpt>
      <trkpt lat="38.5161450" lon="-2.6055290">
        <ele>913.6</ele>
        <time>2019-11-03T08:19:08Z</time>
      </trkpt>
      <trkpt lat="38.5162110" lon="-2.6054700">
        <ele>914.9</ele>
        <time>2019-11-03T08:19:10Z</time>
      </trkpt>
      <trkpt lat="38.5162780" lon="-2.6054150">
        <ele>914.9</ele>
        <time>2019-11-03T08:19:12Z</time>
      </trkpt>
      <trkpt lat="38.5163470" lon="-2.6053630">
        <ele>914.9</ele>
        <time>2019-11-03T08:19:14Z</time>
      </trkpt>
      <trkpt lat="38.5164110" lon="-2.6053080">
        <ele>914.9</ele>
        <time>2019-11-03T08:19:16Z</time>
      </trkpt>
      <trkpt lat="38.5164720" lon="-2.6052510">
        <ele>914.9</ele>
        <time>2019-11-03T08:19:18Z</time>
      </trkpt>
      <trkpt lat="38.5165290" lon="-2.6051870">
        <ele>914.9</ele>
        <time>2019-11-03T08:19:20Z</time>
      </trkpt>
      <trkpt lat="38.5165880" lon="-2.6051150">
        <ele>916.2</ele>
        <time>2019-11-03T08:19:22Z</time>
      </trkpt>
      <trkpt lat="38.5166690" lon="-2.6049990">
        <ele>916.2</ele>
        <time>2019-11-03T08:19:25Z</time>
      </trkpt>
      <trkpt lat="38.5167510" lon="-2.6048730">
        <ele>916.2</ele>
        <time>2019-11-03T08:19:28Z</time>
      </trkpt>
      <trkpt lat="38.5168000" lon="-2.6047920">
        <ele>916.2</ele>
        <time>2019-11-03T08:19:30Z</time>
      </trkpt>
      <trkpt lat="38.5168610" lon="-2.6046790">
        <ele>917.3</ele>
        <time>2019-11-03T08:19:33Z</time>
      </trkpt>
      <trkpt lat="38.5169020" lon="-2.6046040">
        <ele>917.3</ele>
        <time>2019-11-03T08:19:35Z</time>
      </trkpt>
      <trkpt lat="38.5169380" lon="-2.6045340">
        <ele>917.3</ele>
        <time>2019-11-03T08:19:37Z</time>
      </trkpt>
      <trkpt lat="38.5169720" lon="-2.6044670">
        <ele>918.5</ele>
        <time>2019-11-03T08:19:39Z</time>
      </trkpt>
      <trkpt lat="38.5170050" lon="-2.6044020">
        <ele>918.5</ele>
        <time>2019-11-03T08:19:41Z</time>
      </trkpt>
      <trkpt lat="38.5170410" lon="-2.6043390">
        <ele>918.5</ele>
        <time>2019-11-03T08:19:43Z</time>
      </trkpt>
      <trkpt lat="38.5170710" lon="-2.6042770">
        <ele>919.9</ele>
        <time>2019-11-03T08:19:45Z</time>
      </trkpt>
      <trkpt lat="38.5171020" lon="-2.6042080">
        <ele>919.9</ele>
        <time>2019-11-03T08:19:47Z</time>
      </trkpt>
      <trkpt lat="38.5171330" lon="-2.6041370">
        <ele>921.2</ele>
        <time>2019-11-03T08:19:49Z</time>
      </trkpt>
      <trkpt lat="38.5171560" lon="-2.6040640">
        <ele>921.2</ele>
        <time>2019-11-03T08:19:51Z</time>
      </trkpt>
      <trkpt lat="38.5171740" lon="-2.6039880">
        <ele>921.2</ele>
        <time>2019-11-03T08:19:53Z</time>
      </trkpt>
      <trkpt lat="38.5171840" lon="-2.6039130">
        <ele>922.3</ele>
        <time>2019-11-03T08:19:55Z</time>
      </trkpt>
      <trkpt lat="38.5171970" lon="-2.6038330">
        <ele>922.3</ele>
        <time>2019-11-03T08:19:57Z</time>
      </trkpt>
      <trkpt lat="38.5172040" lon="-2.6037580">
        <ele>922.3</ele>
        <time>2019-11-03T08:19:59Z</time>
      </trkpt>
      <trkpt lat="38.5172070" lon="-2.6036780">
        <ele>922.3</ele>
        <time>2019-11-03T08:20:01Z</time>
      </trkpt>
      <trkpt lat="38.5172120" lon="-2.6035960">
        <ele>922.3</ele>
        <time>2019-11-03T08:20:03Z</time>
      </trkpt>
      <trkpt lat="38.5172120" lon="-2.6035180">
        <ele>923.6</ele>
        <time>2019-11-03T08:20:05Z</time>
      </trkpt>
      <trkpt lat="38.5172150" lon="-2.6034370">
        <ele>923.6</ele>
        <time>2019-11-03T08:20:07Z</time>
      </trkpt>
      <trkpt lat="38.5172200" lon="-2.6033590">
        <ele>923.6</ele>
        <time>2019-11-03T08:20:09Z</time>
      </trkpt>
      <trkpt lat="38.5172200" lon="-2.6032760">
        <ele>923.6</ele>
        <time>2019-11-03T08:20:11Z</time>
      </trkpt>
      <trkpt lat="38.5172150" lon="-2.6031910">
        <ele>923.6</ele>
        <time>2019-11-03T08:20:13Z</time>
      </trkpt>
      <trkpt lat="38.5172120" lon="-2.6031030">
        <ele>923.6</ele>
        <time>2019-11-03T08:20:15Z</time>
      </trkpt>
      <trkpt lat="38.5172040" lon="-2.6030160">
        <ele>923.6</ele>
        <time>2019-11-03T08:20:17Z</time>
      </trkpt>
      <trkpt lat="38.5171890" lon="-2.6029230">
        <ele>923.6</ele>
        <time>2019-11-03T08:20:19Z</time>
      </trkpt>
      <trkpt lat="38.5171740" lon="-2.6028350">
        <ele>923.6</ele>
        <time>2019-11-03T08:20:21Z</time>
      </trkpt>
      <trkpt lat="38.5171580" lon="-2.6027400">
        <ele>923.6</ele>
        <time>2019-11-03T08:20:23Z</time>
      </trkpt>
      <trkpt lat="38.5171430" lon="-2.6026430">
        <ele>923.6</ele>
        <time>2019-11-03T08:20:25Z</time>
      </trkpt>
      <trkpt lat="38.5171280" lon="-2.6025420">
        <ele>924.8</ele>
        <time>2019-11-03T08:20:27Z</time>
      </trkpt>
      <trkpt lat="38.5171120" lon="-2.6024400">
        <ele>924.8</ele>
        <time>2019-11-03T08:20:29Z</time>
      </trkpt>
      <trkpt lat="38.5170970" lon="-2.6023430">
        <ele>924.8</ele>
        <time>2019-11-03T08:20:31Z</time>
      </trkpt>
      <trkpt lat="38.5170820" lon="-2.6022380">
        <ele>924.8</ele>
        <time>2019-11-03T08:20:33Z</time>
      </trkpt>
      <trkpt lat="38.5170640" lon="-2.6021300">
        <ele>924.8</ele>
        <time>2019-11-03T08:20:35Z</time>
      </trkpt>
      <trkpt lat="38.5170480" lon="-2.6020250">
        <ele>924.8</ele>
        <time>2019-11-03T08:20:37Z</time>
      </trkpt>
      <trkpt lat="38.5170330" lon="-2.6019230">
        <ele>924.8</ele>
        <time>2019-11-03T08:20:39Z</time>
      </trkpt>
      <trkpt lat="38.5170120" lon="-2.6018200">
        <ele>924.8</ele>
        <time>2019-11-03T08:20:41Z</time>
      </trkpt>
      <trkpt lat="38.5169950" lon="-2.6017130">
        <ele>924.8</ele>
        <time>2019-11-03T08:20:43Z</time>
      </trkpt>
      <trkpt lat="38.5169690" lon="-2.6016060">
        <ele>924.8</ele>
        <time>2019-11-03T08:20:45Z</time>
      </trkpt>
      <trkpt lat="38.5169410" lon="-2.6015020">
        <ele>924.8</ele>
        <time>2019-11-03T08:20:47Z</time>
      </trkpt>
      <trkpt lat="38.5169100" lon="-2.6014030">
        <ele>924.8</ele>
        <time>2019-11-03T08:20:49Z</time>
      </trkpt>
      <trkpt lat="38.5168770" lon="-2.6012980">
        <ele>924.8</ele>
        <time>2019-11-03T08:20:51Z</time>
      </trkpt>
      <trkpt lat="38.5168410" lon="-2.6011950">
        <ele>924.8</ele>
        <time>2019-11-03T08:20:53Z</time>
      </trkpt>
      <trkpt lat="38.5168150" lon="-2.6010920">
        <ele>924.8</ele>
        <time>2019-11-03T08:20:55Z</time>
      </trkpt>
      <trkpt lat="38.5167920" lon="-2.6009860">
        <ele>924.8</ele>
        <time>2019-11-03T08:20:57Z</time>
      </trkpt>
      <trkpt lat="38.5167690" lon="-2.6008790">
        <ele>924.8</ele>
        <time>2019-11-03T08:20:59Z</time>
      </trkpt>
      <trkpt lat="38.5167510" lon="-2.6007640">
        <ele>924.8</ele>
        <time>2019-11-03T08:21:01Z</time>
      </trkpt>
      <trkpt lat="38.5167310" lon="-2.6006550">
        <ele>924.8</ele>
        <time>2019-11-03T08:21:03Z</time>
      </trkpt>
      <trkpt lat="38.5167160" lon="-2.6005450">
        <ele>924.8</ele>
        <time>2019-11-03T08:21:05Z</time>
      </trkpt>
      <trkpt lat="38.5166980" lon="-2.6004440">
        <ele>924.8</ele>
        <time>2019-11-03T08:21:07Z</time>
      </trkpt>
      <trkpt lat="38.5166770" lon="-2.6003520">
        <ele>926.1</ele>
        <time>2019-11-03T08:21:09Z</time>
      </trkpt>
      <trkpt lat="38.5166590" lon="-2.6002620">
        <ele>926.1</ele>
        <time>2019-11-03T08:21:11Z</time>
      </trkpt>
      <trkpt lat="38.5166440" lon="-2.6001820">
        <ele>927.3</ele>
        <time>2019-11-03T08:21:13Z</time>
      </trkpt>
      <trkpt lat="38.5166310" lon="-2.6001020">
        <ele>927.3</ele>
        <time>2019-11-03T08:21:15Z</time>
      </trkpt>
      <trkpt lat="38.5166160" lon="-2.6000250">
        <ele>927.3</ele>
        <time>2019-11-03T08:21:17Z</time>
      </trkpt>
      <trkpt lat="38.5166050" lon="-2.5999530">
        <ele>927.3</ele>
        <time>2019-11-03T08:21:19Z</time>
      </trkpt>
      <trkpt lat="38.5165900" lon="-2.5998860">
        <ele>928.5</ele>
        <time>2019-11-03T08:21:21Z</time>
      </trkpt>
      <trkpt lat="38.5165800" lon="-2.5998210">
        <ele>928.5</ele>
        <time>2019-11-03T08:21:23Z</time>
      </trkpt>
      <trkpt lat="38.5165670" lon="-2.5997600">
        <ele>928.5</ele>
        <time>2019-11-03T08:21:25Z</time>
      </trkpt>
      <trkpt lat="38.5165590" lon="-2.5996980">
        <ele>929.9</ele>
        <time>2019-11-03T08:21:27Z</time>
      </trkpt>
      <trkpt lat="38.5165410" lon="-2.5996100">
        <ele>929.9</ele>
        <time>2019-11-03T08:21:30Z</time>
      </trkpt>
      <trkpt lat="38.5165210" lon="-2.5995250">
        <ele>929.9</ele>
        <time>2019-11-03T08:21:33Z</time>
      </trkpt>
      <trkpt lat="38.5165110" lon="-2.5994670">
        <ele>931.1</ele>
        <time>2019-11-03T08:21:35Z</time>
      </trkpt>
      <trkpt lat="38.5164900" lon="-2.5993810">
        <ele>931.1</ele>
        <time>2019-11-03T08:21:38Z</time>
      </trkpt>
      <trkpt lat="38.5164750" lon="-2.5992940">
        <ele>932.3</ele>
        <time>2019-11-03T08:21:41Z</time>
      </trkpt>
      <trkpt lat="38.5164650" lon="-2.5992030">
        <ele>932.3</ele>
        <time>2019-11-03T08:21:44Z</time>
      </trkpt>
      <trkpt lat="38.5164490" lon="-2.5991100">
        <ele>933.5</ele>
        <time>2019-11-03T08:21:47Z</time>
      </trkpt>
      <trkpt lat="38.5164420" lon="-2.5990460">
        <ele>933.5</ele>
        <time>2019-11-03T08:21:49Z</time>
      </trkpt>
      <trkpt lat="38.5164260" lon="-2.5989510">
        <ele>934.7</ele>
        <time>2019-11-03T08:21:52Z</time>
      </trkpt>
      <trkpt lat="38.5164210" lon="-2.5988860">
        <ele>934.7</ele>
        <time>2019-11-03T08:21:54Z</time>
      </trkpt>
      <trkpt lat="38.5164190" lon="-2.5988210">
        <ele>934.7</ele>
        <time>2019-11-03T08:21:56Z</time>
      </trkpt>
      <trkpt lat="38.5164210" lon="-2.5987220">
        <ele>935.9</ele>
        <time>2019-11-03T08:21:59Z</time>
      </trkpt>
      <trkpt lat="38.5164290" lon="-2.5986520">
        <ele>935.9</ele>
        <time>2019-11-03T08:22:01Z</time>
      </trkpt>
      <trkpt lat="38.5164420" lon="-2.5985840">
        <ele>937.1</ele>
        <time>2019-11-03T08:22:03Z</time>
      </trkpt>
      <trkpt lat="38.5164600" lon="-2.5985210">
        <ele>937.1</ele>
        <time>2019-11-03T08:22:05Z</time>
      </trkpt>
      <trkpt lat="38.5164800" lon="-2.5984600">
        <ele>937.1</ele>
        <time>2019-11-03T08:22:07Z</time>
      </trkpt>
      <trkpt lat="38.5165210" lon="-2.5983740">
        <ele>937.1</ele>
        <time>2019-11-03T08:22:10Z</time>
      </trkpt>
      <trkpt lat="38.5165570" lon="-2.5983210">
        <ele>938.3</ele>
        <time>2019-11-03T08:22:12Z</time>
      </trkpt>
      <trkpt lat="38.5165950" lon="-2.5982730">
        <ele>938.3</ele>
        <time>2019-11-03T08:22:14Z</time>
      </trkpt>
      <trkpt lat="38.5166520" lon="-2.5982080">
        <ele>938.3</ele>
        <time>2019-11-03T08:22:17Z</time>
      </trkpt>
      <trkpt lat="38.5166900" lon="-2.5981650">
        <ele>939.6</ele>
        <time>2019-11-03T08:22:19Z</time>
      </trkpt>
      <trkpt lat="38.5167310" lon="-2.5981250">
        <ele>939.6</ele>
        <time>2019-11-03T08:22:21Z</time>
      </trkpt>
      <trkpt lat="38.5167740" lon="-2.5980870">
        <ele>939.6</ele>
        <time>2019-11-03T08:22:23Z</time>
      </trkpt>
      <trkpt lat="38.5168310" lon="-2.5980340">
        <ele>940.8</ele>
        <time>2019-11-03T08:22:26Z</time>
      </trkpt>
      <trkpt lat="38.5168870" lon="-2.5979880">
        <ele>940.8</ele>
        <time>2019-11-03T08:22:29Z</time>
      </trkpt>
      <trkpt lat="38.5169380" lon="-2.5979430">
        <ele>942.1</ele>
        <time>2019-11-03T08:22:32Z</time>
      </trkpt>
      <trkpt lat="38.5169870" lon="-2.5979020">
        <ele>942.1</ele>
        <time>2019-11-03T08:22:35Z</time>
      </trkpt>
      <trkpt lat="38.5170280" lon="-2.5978600">
        <ele>942.1</ele>
        <time>2019-11-03T08:22:38Z</time>
      </trkpt>
      <trkpt lat="38.5170660" lon="-2.5978130">
        <ele>942.1</ele>
        <time>2019-11-03T08:22:41Z</time>
      </trkpt>
      <trkpt lat="38.5171050" lon="-2.5977640">
        <ele>943.3</ele>
        <time>2019-11-03T08:22:44Z</time>
      </trkpt>
      <trkpt lat="38.5171430" lon="-2.5977160">
        <ele>943.3</ele>
        <time>2019-11-03T08:22:47Z</time>
      </trkpt>
      <trkpt lat="38.5171810" lon="-2.5976670">
        <ele>944.5</ele>
        <time>2019-11-03T08:22:50Z</time>
      </trkpt>
      <trkpt lat="38.5172220" lon="-2.5976110">
        <ele>944.5</ele>
        <time>2019-11-03T08:22:53Z</time>
      </trkpt>
      <trkpt lat="38.5172660" lon="-2.5975490">
        <ele>944.5</ele>
        <time>2019-11-03T08:22:56Z</time>
      </trkpt>
      <trkpt lat="38.5173070" lon="-2.5974880">
        <ele>945.7</ele>
        <time>2019-11-03T08:22:59Z</time>
      </trkpt>
      <trkpt lat="38.5173450" lon="-2.5974220">
        <ele>945.7</ele>
        <time>2019-11-03T08:23:02Z</time>
      </trkpt>
      <trkpt lat="38.5173840" lon="-2.5973530">
        <ele>947.0</ele>
        <time>2019-11-03T08:23:05Z</time>
      </trkpt>
      <trkpt lat="38.5174220" lon="-2.5972830">
        <ele>947.0</ele>
        <time>2019-11-03T08:23:08Z</time>
      </trkpt>
      <trkpt lat="38.5174600" lon="-2.5972120">
        <ele>948.2</ele>
        <time>2019-11-03T08:23:11Z</time>
      </trkpt>
      <trkpt lat="38.5174990" lon="-2.5971400">
        <ele>948.2</ele>
        <time>2019-11-03T08:23:14Z</time>
      </trkpt>
      <trkpt lat="38.5175370" lon="-2.5970660">
        <ele>948.2</ele>
        <time>2019-11-03T08:23:17Z</time>
      </trkpt>
      <trkpt lat="38.5175630" lon="-2.5970170">
        <ele>949.3</ele>
        <time>2019-11-03T08:23:19Z</time>
      </trkpt>
      <trkpt lat="38.5175960" lon="-2.5969440">
        <ele>949.3</ele>
        <time>2019-11-03T08:23:22Z</time>
      </trkpt>
      <trkpt lat="38.5176320" lon="-2.5968700">
        <ele>950.6</ele>
        <time>2019-11-03T08:23:25Z</time>
      </trkpt>
      <trkpt lat="38.5176630" lon="-2.5967960">
        <ele>950.6</ele>
        <time>2019-11-03T08:23:28Z</time>
      </trkpt>
      <trkpt lat="38.5176960" lon="-2.5967210">
        <ele>951.8</ele>
        <time>2019-11-03T08:23:31Z</time>
      </trkpt>
      <trkpt lat="38.5177320" lon="-2.5966480">
        <ele>951.8</ele>
        <time>2019-11-03T08:23:34Z</time>
      </trkpt>
      <trkpt lat="38.5177570" lon="-2.5965730">
        <ele>951.8</ele>
        <time>2019-11-03T08:23:37Z</time>
      </trkpt>
      <trkpt lat="38.5177910" lon="-2.5964990">
        <ele>953.0</ele>
        <time>2019-11-03T08:23:40Z</time>
      </trkpt>
      <trkpt lat="38.5178210" lon="-2.5964240">
        <ele>953.0</ele>
        <time>2019-11-03T08:23:43Z</time>
      </trkpt>
      <trkpt lat="38.5178570" lon="-2.5963490">
        <ele>954.2</ele>
        <time>2019-11-03T08:23:46Z</time>
      </trkpt>
      <trkpt lat="38.5178880" lon="-2.5962760">
        <ele>954.2</ele>
        <time>2019-11-03T08:23:49Z</time>
      </trkpt>
      <trkpt lat="38.5179190" lon="-2.5962050">
        <ele>954.2</ele>
        <time>2019-11-03T08:23:52Z</time>
      </trkpt>
      <trkpt lat="38.5179550" lon="-2.5961340">
        <ele>955.3</ele>
        <time>2019-11-03T08:23:55Z</time>
      </trkpt>
      <trkpt lat="38.5179930" lon="-2.5960640">
        <ele>955.3</ele>
        <time>2019-11-03T08:23:58Z</time>
      </trkpt>
      <trkpt lat="38.5180310" lon="-2.5959950">
        <ele>956.6</ele>
        <time>2019-11-03T08:24:01Z</time>
      </trkpt>
      <trkpt lat="38.5180750" lon="-2.5959310">
        <ele>956.6</ele>
        <time>2019-11-03T08:24:04Z</time>
      </trkpt>
      <trkpt lat="38.5181130" lon="-2.5958680">
        <ele>956.6</ele>
        <time>2019-11-03T08:24:07Z</time>
      </trkpt>
      <trkpt lat="38.5181540" lon="-2.5958050">
        <ele>957.8</ele>
        <time>2019-11-03T08:24:10Z</time>
      </trkpt>
      <trkpt lat="38.5182000" lon="-2.5957470">
        <ele>957.8</ele>
        <time>2019-11-03T08:24:13Z</time>
      </trkpt>
      <trkpt lat="38.5182490" lon="-2.5956830">
        <ele>957.8</ele>
        <time>2019-11-03T08:24:16Z</time>
      </trkpt>
      <trkpt lat="38.5182800" lon="-2.5956400">
        <ele>959.0</ele>
        <time>2019-11-03T08:24:18Z</time>
      </trkpt>
      <trkpt lat="38.5183260" lon="-2.5955770">
        <ele>959.0</ele>
        <time>2019-11-03T08:24:21Z</time>
      </trkpt>
      <trkpt lat="38.5183740" lon="-2.5955180">
        <ele>959.0</ele>
        <time>2019-11-03T08:24:24Z</time>
      </trkpt>
      <trkpt lat="38.5184200" lon="-2.5954580">
        <ele>959.0</ele>
        <time>2019-11-03T08:24:27Z</time>
      </trkpt>
      <trkpt lat="38.5184670" lon="-2.5953960">
        <ele>959.0</ele>
        <time>2019-11-03T08:24:30Z</time>
      </trkpt>
      <trkpt lat="38.5185180" lon="-2.5953320">
        <ele>959.0</ele>
        <time>2019-11-03T08:24:33Z</time>
      </trkpt>
      <trkpt lat="38.5185660" lon="-2.5952700">
        <ele>959.0</ele>
        <time>2019-11-03T08:24:36Z</time>
      </trkpt>
      <trkpt lat="38.5186000" lon="-2.5952290">
        <ele>959.0</ele>
        <time>2019-11-03T08:24:38Z</time>
      </trkpt>
      <trkpt lat="38.5186460" lon="-2.5951650">
        <ele>959.0</ele>
        <time>2019-11-03T08:24:41Z</time>
      </trkpt>
      <trkpt lat="38.5186920" lon="-2.5951020">
        <ele>959.0</ele>
        <time>2019-11-03T08:24:44Z</time>
      </trkpt>
      <trkpt lat="38.5187330" lon="-2.5950390">
        <ele>959.0</ele>
        <time>2019-11-03T08:24:47Z</time>
      </trkpt>
      <trkpt lat="38.5187760" lon="-2.5949780">
        <ele>959.0</ele>
        <time>2019-11-03T08:24:50Z</time>
      </trkpt>
      <trkpt lat="38.5188220" lon="-2.5949120">
        <ele>959.0</ele>
        <time>2019-11-03T08:24:53Z</time>
      </trkpt>
      <trkpt lat="38.5188630" lon="-2.5948460">
        <ele>959.0</ele>
        <time>2019-11-03T08:24:56Z</time>
      </trkpt>
      <trkpt lat="38.5189070" lon="-2.5947760">
        <ele>959.0</ele>
        <time>2019-11-03T08:24:59Z</time>
      </trkpt>
      <trkpt lat="38.5189430" lon="-2.5947060">
        <ele>959.0</ele>
        <time>2019-11-03T08:25:02Z</time>
      </trkpt>
      <trkpt lat="38.5189810" lon="-2.5946350">
        <ele>959.0</ele>
        <time>2019-11-03T08:25:05Z</time>
      </trkpt>
      <trkpt lat="38.5190200" lon="-2.5945660">
        <ele>959.0</ele>
        <time>2019-11-03T08:25:08Z</time>
      </trkpt>
      <trkpt lat="38.5190550" lon="-2.5945000">
        <ele>959.0</ele>
        <time>2019-11-03T08:25:11Z</time>
      </trkpt>
      <trkpt lat="38.5190810" lon="-2.5944540">
        <ele>968.2</ele>
        <time>2019-11-03T08:25:13Z</time>
      </trkpt>
      <trkpt lat="38.5191140" lon="-2.5943890">
        <ele>968.2</ele>
        <time>2019-11-03T08:25:16Z</time>
      </trkpt>
      <trkpt lat="38.5191530" lon="-2.5943260">
        <ele>968.2</ele>
        <time>2019-11-03T08:25:19Z</time>
      </trkpt>
      <trkpt lat="38.5191910" lon="-2.5942590">
        <ele>968.2</ele>
        <time>2019-11-03T08:25:22Z</time>
      </trkpt>
      <trkpt lat="38.5192290" lon="-2.5941950">
        <ele>970.2</ele>
        <time>2019-11-03T08:25:25Z</time>
      </trkpt>
      <trkpt lat="38.5192580" lon="-2.5941530">
        <ele>970.2</ele>
        <time>2019-11-03T08:25:27Z</time>
      </trkpt>
      <trkpt lat="38.5193010" lon="-2.5940920">
        <ele>970.2</ele>
        <time>2019-11-03T08:25:30Z</time>
      </trkpt>
      <trkpt lat="38.5193470" lon="-2.5940360">
        <ele>970.2</ele>
        <time>2019-11-03T08:25:33Z</time>
      </trkpt>
      <trkpt lat="38.5193980" lon="-2.5939800">
        <ele>970.2</ele>
        <time>2019-11-03T08:25:36Z</time>
      </trkpt>
      <trkpt lat="38.5194470" lon="-2.5939170">
        <ele>970.2</ele>
        <time>2019-11-03T08:25:39Z</time>
      </trkpt>
      <trkpt lat="38.5195010" lon="-2.5938520">
        <ele>972.6</ele>
        <time>2019-11-03T08:25:42Z</time>
      </trkpt>
      <trkpt lat="38.5195390" lon="-2.5938100">
        <ele>972.6</ele>
        <time>2019-11-03T08:25:44Z</time>
      </trkpt>
      <trkpt lat="38.5195930" lon="-2.5937510">
        <ele>972.6</ele>
        <time>2019-11-03T08:25:47Z</time>
      </trkpt>
      <trkpt lat="38.5196490" lon="-2.5936920">
        <ele>972.6</ele>
        <time>2019-11-03T08:25:50Z</time>
      </trkpt>
      <trkpt lat="38.5196980" lon="-2.5936290">
        <ele>972.6</ele>
        <time>2019-11-03T08:25:53Z</time>
      </trkpt>
      <trkpt lat="38.5197340" lon="-2.5935860">
        <ele>972.6</ele>
        <time>2019-11-03T08:25:55Z</time>
      </trkpt>
      <trkpt lat="38.5197820" lon="-2.5935240">
        <ele>975.1</ele>
        <time>2019-11-03T08:25:58Z</time>
      </trkpt>
      <trkpt lat="38.5198180" lon="-2.5934820">
        <ele>975.1</ele>
        <time>2019-11-03T08:26:00Z</time>
      </trkpt>
      <trkpt lat="38.5198670" lon="-2.5934150">
        <ele>975.1</ele>
        <time>2019-11-03T08:26:03Z</time>
      </trkpt>
      <trkpt lat="38.5199160" lon="-2.5933480">
        <ele>975.1</ele>
        <time>2019-11-03T08:26:06Z</time>
      </trkpt>
      <trkpt lat="38.5199590" lon="-2.5932790">
        <ele>975.1</ele>
        <time>2019-11-03T08:26:09Z</time>
      </trkpt>
      <trkpt lat="38.5199920" lon="-2.5932290">
        <ele>975.1</ele>
        <time>2019-11-03T08:26:11Z</time>
      </trkpt>
      <trkpt lat="38.5200230" lon="-2.5931790">
        <ele>977.7</ele>
        <time>2019-11-03T08:26:13Z</time>
      </trkpt>
      <trkpt lat="38.5200540" lon="-2.5931280">
        <ele>977.7</ele>
        <time>2019-11-03T08:26:15Z</time>
      </trkpt>
      <trkpt lat="38.5200840" lon="-2.5930770">
        <ele>977.7</ele>
        <time>2019-11-03T08:26:17Z</time>
      </trkpt>
      <trkpt lat="38.5201330" lon="-2.5930050">
        <ele>977.7</ele>
        <time>2019-11-03T08:26:20Z</time>
      </trkpt>
      <trkpt lat="38.5201690" lon="-2.5929580">
        <ele>977.7</ele>
        <time>2019-11-03T08:26:22Z</time>
      </trkpt>
      <trkpt lat="38.5202150" lon="-2.5928890">
        <ele>977.7</ele>
        <time>2019-11-03T08:26:25Z</time>
      </trkpt>
      <trkpt lat="38.5202710" lon="-2.5928220">
        <ele>977.7</ele>
        <time>2019-11-03T08:26:28Z</time>
      </trkpt>
      <trkpt lat="38.5203120" lon="-2.5927810">
        <ele>980.5</ele>
        <time>2019-11-03T08:26:30Z</time>
      </trkpt>
      <trkpt lat="38.5203560" lon="-2.5927430">
        <ele>980.5</ele>
        <time>2019-11-03T08:26:32Z</time>
      </trkpt>
      <trkpt lat="38.5203940" lon="-2.5927050">
        <ele>980.5</ele>
        <time>2019-11-03T08:26:34Z</time>
      </trkpt>
      <trkpt lat="38.5204580" lon="-2.5926500">
        <ele>980.5</ele>
        <time>2019-11-03T08:26:37Z</time>
      </trkpt>
      <trkpt lat="38.5204990" lon="-2.5926140">
        <ele>980.5</ele>
        <time>2019-11-03T08:26:39Z</time>
      </trkpt>
      <trkpt lat="38.5205450" lon="-2.5925760">
        <ele>980.5</ele>
        <time>2019-11-03T08:26:41Z</time>
      </trkpt>
      <trkpt lat="38.5205890" lon="-2.5925390">
        <ele>980.5</ele>
        <time>2019-11-03T08:26:43Z</time>
      </trkpt>
      <trkpt lat="38.5206530" lon="-2.5924830">
        <ele>983.2</ele>
        <time>2019-11-03T08:26:46Z</time>
      </trkpt>
      <trkpt lat="38.5206940" lon="-2.5924450">
        <ele>983.2</ele>
        <time>2019-11-03T08:26:48Z</time>
      </trkpt>
      <trkpt lat="38.5207530" lon="-2.5923920">
        <ele>983.2</ele>
        <time>2019-11-03T08:26:51Z</time>
      </trkpt>
      <trkpt lat="38.5207910" lon="-2.5923550">
        <ele>983.2</ele>
        <time>2019-11-03T08:26:53Z</time>
      </trkpt>
      <trkpt lat="38.5208470" lon="-2.5923000">
        <ele>983.2</ele>
        <time>2019-11-03T08:26:56Z</time>
      </trkpt>
      <trkpt lat="38.5208860" lon="-2.5922640">
        <ele>983.2</ele>
        <time>2019-11-03T08:26:58Z</time>
      </trkpt>
      <trkpt lat="38.5209420" lon="-2.5922060">
        <ele>985.8</ele>
        <time>2019-11-03T08:27:01Z</time>
      </trkpt>
      <trkpt lat="38.5209800" lon="-2.5921650">
        <ele>985.8</ele>
        <time>2019-11-03T08:27:03Z</time>
      </trkpt>
      <trkpt lat="38.5210160" lon="-2.5921250">
        <ele>985.8</ele>
        <time>2019-11-03T08:27:05Z</time>
      </trkpt>
      <trkpt lat="38.5210730" lon="-2.5920690">
        <ele>985.8</ele>
        <time>2019-11-03T08:27:08Z</time>
      </trkpt>
      <trkpt lat="38.5211290" lon="-2.5920140">
        <ele>985.8</ele>
        <time>2019-11-03T08:27:11Z</time>
      </trkpt>
      <trkpt lat="38.5211650" lon="-2.5919740">
        <ele>985.8</ele>
        <time>2019-11-03T08:27:13Z</time>
      </trkpt>
      <trkpt lat="38.5212130" lon="-2.5919070">
        <ele>985.8</ele>
        <time>2019-11-03T08:27:16Z</time>
      </trkpt>
      <trkpt lat="38.5212440" lon="-2.5918590">
        <ele>988.3</ele>
        <time>2019-11-03T08:27:18Z</time>
      </trkpt>
      <trkpt lat="38.5212750" lon="-2.5918030">
        <ele>988.3</ele>
        <time>2019-11-03T08:27:20Z</time>
      </trkpt>
      <trkpt lat="38.5213060" lon="-2.5917090">
        <ele>988.3</ele>
        <time>2019-11-03T08:27:23Z</time>
      </trkpt>
      <trkpt lat="38.5213130" lon="-2.5916420">
        <ele>988.3</ele>
        <time>2019-11-03T08:27:25Z</time>
      </trkpt>
      <trkpt lat="38.5213130" lon="-2.5915670">
        <ele>988.3</ele>
        <time>2019-11-03T08:27:27Z</time>
      </trkpt>
      <trkpt lat="38.5213000" lon="-2.5914900">
        <ele>988.3</ele>
        <time>2019-11-03T08:27:29Z</time>
      </trkpt>
      <trkpt lat="38.5212850" lon="-2.5914170">
        <ele>988.3</ele>
        <time>2019-11-03T08:27:31Z</time>
      </trkpt>
      <trkpt lat="38.5212700" lon="-2.5913450">
        <ele>990.8</ele>
        <time>2019-11-03T08:27:33Z</time>
      </trkpt>
      <trkpt lat="38.5212520" lon="-2.5912750">
        <ele>990.8</ele>
        <time>2019-11-03T08:27:35Z</time>
      </trkpt>
      <trkpt lat="38.5212310" lon="-2.5912050">
        <ele>990.8</ele>
        <time>2019-11-03T08:27:37Z</time>
      </trkpt>
      <trkpt lat="38.5212190" lon="-2.5911420">
        <ele>990.8</ele>
        <time>2019-11-03T08:27:39Z</time>
      </trkpt>
      <trkpt lat="38.5211960" lon="-2.5910570">
        <ele>990.8</ele>
        <time>2019-11-03T08:27:42Z</time>
      </trkpt>
      <trkpt lat="38.5211800" lon="-2.5909990">
        <ele>990.8</ele>
        <time>2019-11-03T08:27:44Z</time>
      </trkpt>
      <trkpt lat="38.5211440" lon="-2.5909270">
        <ele>990.8</ele>
        <time>2019-11-03T08:27:47Z</time>
      </trkpt>
      <trkpt lat="38.5211140" lon="-2.5908850">
        <ele>993.3</ele>
        <time>2019-11-03T08:27:49Z</time>
      </trkpt>
      <trkpt lat="38.5210750" lon="-2.5908500">
        <ele>993.3</ele>
        <time>2019-11-03T08:27:51Z</time>
      </trkpt>
      <trkpt lat="38.5210110" lon="-2.5908120">
        <ele>993.3</ele>
        <time>2019-11-03T08:27:54Z</time>
      </trkpt>
      <trkpt lat="38.5209470" lon="-2.5907900">
        <ele>993.3</ele>
        <time>2019-11-03T08:27:57Z</time>
      </trkpt>
      <trkpt lat="38.5208780" lon="-2.5907720">
        <ele>993.3</ele>
        <time>2019-11-03T08:28:00Z</time>
      </trkpt>
      <trkpt lat="38.5208170" lon="-2.5907470">
        <ele>993.3</ele>
        <time>2019-11-03T08:28:03Z</time>
      </trkpt>
      <trkpt lat="38.5207630" lon="-2.5907200">
        <ele>995.8</ele>
        <time>2019-11-03T08:28:06Z</time>
      </trkpt>
      <trkpt lat="38.5207070" lon="-2.5906840">
        <ele>995.8</ele>
        <time>2019-11-03T08:28:09Z</time>
      </trkpt>
      <trkpt lat="38.5206600" lon="-2.5906430">
        <ele>995.8</ele>
        <time>2019-11-03T08:28:12Z</time>
      </trkpt>
      <trkpt lat="38.5206140" lon="-2.5905900">
        <ele>995.8</ele>
        <time>2019-11-03T08:28:15Z</time>
      </trkpt>
      <trkpt lat="38.5205730" lon="-2.5905250">
        <ele>995.8</ele>
        <time>2019-11-03T08:28:18Z</time>
      </trkpt>
      <trkpt lat="38.5205430" lon="-2.5904540">
        <ele>998.1</ele>
        <time>2019-11-03T08:28:21Z</time>
      </trkpt>
      <trkpt lat="38.5205220" lon="-2.5904010">
        <ele>998.1</ele>
        <time>2019-11-03T08:28:23Z</time>
      </trkpt>
      <trkpt lat="38.5204970" lon="-2.5903250">
        <ele>998.1</ele>
        <time>2019-11-03T08:28:26Z</time>
      </trkpt>
      <trkpt lat="38.5204680" lon="-2.5902500">
        <ele>998.1</ele>
        <time>2019-11-03T08:28:29Z</time>
      </trkpt>
      <trkpt lat="38.5204480" lon="-2.5901750">
        <ele>998.1</ele>
        <time>2019-11-03T08:28:32Z</time>
      </trkpt>
      <trkpt lat="38.5204250" lon="-2.5901020">
        <ele>998.1</ele>
        <time>2019-11-03T08:28:35Z</time>
      </trkpt>
      <trkpt lat="38.5204040" lon="-2.5900270">
        <ele>1000.3</ele>
        <time>2019-11-03T08:28:38Z</time>
      </trkpt>
      <trkpt lat="38.5203870" lon="-2.5899430">
        <ele>1000.3</ele>
        <time>2019-11-03T08:28:41Z</time>
      </trkpt>
      <trkpt lat="38.5203740" lon="-2.5898880">
        <ele>1000.3</ele>
        <time>2019-11-03T08:28:43Z</time>
      </trkpt>
      <trkpt lat="38.5203580" lon="-2.5898080">
        <ele>1000.3</ele>
        <time>2019-11-03T08:28:46Z</time>
      </trkpt>
      <trkpt lat="38.5203430" lon="-2.5897300">
        <ele>1000.3</ele>
        <time>2019-11-03T08:28:49Z</time>
      </trkpt>
      <trkpt lat="38.5203280" lon="-2.5896450">
        <ele>1000.3</ele>
        <time>2019-11-03T08:28:52Z</time>
      </trkpt>
      <trkpt lat="38.5203120" lon="-2.5895930">
        <ele>1002.5</ele>
        <time>2019-11-03T08:28:54Z</time>
      </trkpt>
      <trkpt lat="38.5202710" lon="-2.5895280">
        <ele>1002.5</ele>
        <time>2019-11-03T08:28:57Z</time>
      </trkpt>
      <trkpt lat="38.5202180" lon="-2.5894840">
        <ele>1002.5</ele>
        <time>2019-11-03T08:29:00Z</time>
      </trkpt>
      <trkpt lat="38.5201560" lon="-2.5894540">
        <ele>1002.5</ele>
        <time>2019-11-03T08:29:03Z</time>
      </trkpt>
      <trkpt lat="38.5200870" lon="-2.5894350">
        <ele>1002.5</ele>
        <time>2019-11-03T08:29:06Z</time>
      </trkpt>
      <trkpt lat="38.5200230" lon="-2.5894190">
        <ele>1004.8</ele>
        <time>2019-11-03T08:29:09Z</time>
      </trkpt>
      <trkpt lat="38.5199770" lon="-2.5894100">
        <ele>1004.8</ele>
        <time>2019-11-03T08:29:11Z</time>
      </trkpt>
      <trkpt lat="38.5199080" lon="-2.5893940">
        <ele>1004.8</ele>
        <time>2019-11-03T08:29:14Z</time>
      </trkpt>
      <trkpt lat="38.5198490" lon="-2.5893670">
        <ele>1004.8</ele>
        <time>2019-11-03T08:29:17Z</time>
      </trkpt>
      <trkpt lat="38.5197900" lon="-2.5893290">
        <ele>1004.8</ele>
        <time>2019-11-03T08:29:20Z</time>
      </trkpt>
      <trkpt lat="38.5197360" lon="-2.5892810">
        <ele>1004.8</ele>
        <time>2019-11-03T08:29:23Z</time>
      </trkpt>
      <trkpt lat="38.5196900" lon="-2.5892170">
        <ele>1007.0</ele>
        <time>2019-11-03T08:29:26Z</time>
      </trkpt>
      <trkpt lat="38.5196540" lon="-2.5891440">
        <ele>1007.0</ele>
        <time>2019-11-03T08:29:29Z</time>
      </trkpt>
      <trkpt lat="38.5196110" lon="-2.5890680">
        <ele>1007.0</ele>
        <time>2019-11-03T08:29:32Z</time>
      </trkpt>
      <trkpt lat="38.5195650" lon="-2.5889960">
        <ele>1007.0</ele>
        <time>2019-11-03T08:29:35Z</time>
      </trkpt>
      <trkpt lat="38.5195160" lon="-2.5889300">
        <ele>1007.0</ele>
        <time>2019-11-03T08:29:38Z</time>
      </trkpt>
      <trkpt lat="38.5194600" lon="-2.5888720">
        <ele>1007.0</ele>
        <time>2019-11-03T08:29:41Z</time>
      </trkpt>
      <trkpt lat="38.5194160" lon="-2.5888380">
        <ele>1009.1</ele>
        <time>2019-11-03T08:29:43Z</time>
      </trkpt>
      <trkpt lat="38.5193750" lon="-2.5888040">
        <ele>1009.1</ele>
        <time>2019-11-03T08:29:45Z</time>
      </trkpt>
      <trkpt lat="38.5193090" lon="-2.5887610">
        <ele>1009.1</ele>
        <time>2019-11-03T08:29:48Z</time>
      </trkpt>
      <trkpt lat="38.5192450" lon="-2.5887240">
        <ele>1009.1</ele>
        <time>2019-11-03T08:29:51Z</time>
      </trkpt>
      <trkpt lat="38.5191810" lon="-2.5886810">
        <ele>1009.1</ele>
        <time>2019-11-03T08:29:54Z</time>
      </trkpt>
      <trkpt lat="38.5191140" lon="-2.5886390">
        <ele>1009.1</ele>
        <time>2019-11-03T08:29:57Z</time>
      </trkpt>
      <trkpt lat="38.5190550" lon="-2.5885920">
        <ele>1009.1</ele>
        <time>2019-11-03T08:30:00Z</time>
      </trkpt>
      <trkpt lat="38.5190170" lon="-2.5885580">
        <ele>1011.1</ele>
        <time>2019-11-03T08:30:02Z</time>
      </trkpt>
      <trkpt lat="38.5189660" lon="-2.5885020">
        <ele>1011.1</ele>
        <time>2019-11-03T08:30:05Z</time>
      </trkpt>
      <trkpt lat="38.5189270" lon="-2.5884390">
        <ele>1011.1</ele>
        <time>2019-11-03T08:30:08Z</time>
      </trkpt>
      <trkpt lat="38.5188940" lon="-2.5883620">
        <ele>1011.1</ele>
        <time>2019-11-03T08:30:11Z</time>
      </trkpt>
      <trkpt lat="38.5188760" lon="-2.5882670">
        <ele>1011.1</ele>
        <time>2019-11-03T08:30:14Z</time>
      </trkpt>
      <trkpt lat="38.5188630" lon="-2.5882000">
        <ele>1011.1</ele>
        <time>2019-11-03T08:30:16Z</time>
      </trkpt>
      <trkpt lat="38.5188610" lon="-2.5881330">
        <ele>1013.1</ele>
        <time>2019-11-03T08:30:18Z</time>
      </trkpt>
      <trkpt lat="38.5188530" lon="-2.5880670">
        <ele>1013.1</ele>
        <time>2019-11-03T08:30:20Z</time>
      </trkpt>
      <trkpt lat="38.5188530" lon="-2.5880020">
        <ele>1013.1</ele>
        <time>2019-11-03T08:30:22Z</time>
      </trkpt>
      <trkpt lat="38.5188400" lon="-2.5879090">
        <ele>1013.1</ele>
        <time>2019-11-03T08:30:25Z</time>
      </trkpt>
      <trkpt lat="38.5188250" lon="-2.5878450">
        <ele>1013.1</ele>
        <time>2019-11-03T08:30:27Z</time>
      </trkpt>
      <trkpt lat="38.5187940" lon="-2.5877540">
        <ele>1013.1</ele>
        <time>2019-11-03T08:30:30Z</time>
      </trkpt>
      <trkpt lat="38.5187710" lon="-2.5876950">
        <ele>1013.1</ele>
        <time>2019-11-03T08:30:32Z</time>
      </trkpt>
      <trkpt lat="38.5187460" lon="-2.5876380">
        <ele>1013.1</ele>
        <time>2019-11-03T08:30:34Z</time>
      </trkpt>
      <trkpt lat="38.5187170" lon="-2.5875830">
        <ele>1013.1</ele>
        <time>2019-11-03T08:30:36Z</time>
      </trkpt>
      <trkpt lat="38.5186890" lon="-2.5875370">
        <ele>1015.2</ele>
        <time>2019-11-03T08:30:38Z</time>
      </trkpt>
      <trkpt lat="38.5186300" lon="-2.5874650">
        <ele>1015.2</ele>
        <time>2019-11-03T08:30:41Z</time>
      </trkpt>
      <trkpt lat="38.5185920" lon="-2.5874210">
        <ele>1015.2</ele>
        <time>2019-11-03T08:30:43Z</time>
      </trkpt>
      <trkpt lat="38.5185510" lon="-2.5873790">
        <ele>1015.2</ele>
        <time>2019-11-03T08:30:45Z</time>
      </trkpt>
      <trkpt lat="38.5185050" lon="-2.5873380">
        <ele>1015.2</ele>
        <time>2019-11-03T08:30:47Z</time>
      </trkpt>
      <trkpt lat="38.5184670" lon="-2.5873000">
        <ele>1015.2</ele>
        <time>2019-11-03T08:30:49Z</time>
      </trkpt>
      <trkpt lat="38.5184030" lon="-2.5872410">
        <ele>1015.2</ele>
        <time>2019-11-03T08:30:52Z</time>
      </trkpt>
      <trkpt lat="38.5183590" lon="-2.5872040">
        <ele>1015.2</ele>
        <time>2019-11-03T08:30:54Z</time>
      </trkpt>
      <trkpt lat="38.5183160" lon="-2.5871640">
        <ele>1017.2</ele>
        <time>2019-11-03T08:30:56Z</time>
      </trkpt>
      <trkpt lat="38.5182720" lon="-2.5871240">
        <ele>1017.2</ele>
        <time>2019-11-03T08:30:58Z</time>
      </trkpt>
      <trkpt lat="38.5182110" lon="-2.5870690">
        <ele>1017.2</ele>
        <time>2019-11-03T08:31:01Z</time>
      </trkpt>
      <trkpt lat="38.5181700" lon="-2.5870320">
        <ele>1017.2</ele>
        <time>2019-11-03T08:31:03Z</time>
      </trkpt>
      <trkpt lat="38.5181060" lon="-2.5869770">
        <ele>1017.2</ele>
        <time>2019-11-03T08:31:06Z</time>
      </trkpt>
      <trkpt lat="38.5180620" lon="-2.5869410">
        <ele>1017.2</ele>
        <time>2019-11-03T08:31:08Z</time>
      </trkpt>
      <trkpt lat="38.5180010" lon="-2.5868870">
        <ele>1019.2</ele>
        <time>2019-11-03T08:31:11Z</time>
      </trkpt>
      <trkpt lat="38.5179600" lon="-2.5868490">
        <ele>1019.2</ele>
        <time>2019-11-03T08:31:13Z</time>
      </trkpt>
      <trkpt lat="38.5179210" lon="-2.5868130">
        <ele>1019.2</ele>
        <time>2019-11-03T08:31:15Z</time>
      </trkpt>
      <trkpt lat="38.5178800" lon="-2.5867710">
        <ele>1019.2</ele>
        <time>2019-11-03T08:31:17Z</time>
      </trkpt>
      <trkpt lat="38.5178290" lon="-2.5866990">
        <ele>1019.2</ele>
        <time>2019-11-03T08:31:20Z</time>
      </trkpt>
      <trkpt lat="38.5177980" lon="-2.5866500">
        <ele>1019.2</ele>
        <time>2019-11-03T08:31:22Z</time>
      </trkpt>
      <trkpt lat="38.5177600" lon="-2.5865720">
        <ele>1019.2</ele>
        <time>2019-11-03T08:31:25Z</time>
      </trkpt>
      <trkpt lat="38.5177320" lon="-2.5864920">
        <ele>1019.2</ele>
        <time>2019-11-03T08:31:28Z</time>
      </trkpt>
      <trkpt lat="38.5177090" lon="-2.5864200">
        <ele>1021.3</ele>
        <time>2019-11-03T08:31:31Z</time>
      </trkpt>
      <trkpt lat="38.5176880" lon="-2.5863430">
        <ele>1021.3</ele>
        <time>2019-11-03T08:31:34Z</time>
      </trkpt>
      <trkpt lat="38.5176730" lon="-2.5862580">
        <ele>1021.3</ele>
        <time>2019-11-03T08:31:37Z</time>
      </trkpt>
      <trkpt lat="38.5176550" lon="-2.5861690">
        <ele>1021.3</ele>
        <time>2019-11-03T08:31:40Z</time>
      </trkpt>
      <trkpt lat="38.5176470" lon="-2.5861120">
        <ele>1021.3</ele>
        <time>2019-11-03T08:31:42Z</time>
      </trkpt>
      <trkpt lat="38.5176270" lon="-2.5860200">
        <ele>1021.3</ele>
        <time>2019-11-03T08:31:45Z</time>
      </trkpt>
      <trkpt lat="38.5176090" lon="-2.5859300">
        <ele>1021.3</ele>
        <time>2019-11-03T08:31:48Z</time>
      </trkpt>
      <trkpt lat="38.5175940" lon="-2.5858730">
        <ele>1023.8</ele>
        <time>2019-11-03T08:31:50Z</time>
      </trkpt>
      <trkpt lat="38.5175810" lon="-2.5858140">
        <ele>1023.8</ele>
        <time>2019-11-03T08:31:52Z</time>
      </trkpt>
      <trkpt lat="38.5175650" lon="-2.5857300">
        <ele>1023.8</ele>
        <time>2019-11-03T08:31:55Z</time>
      </trkpt>
      <trkpt lat="38.5175480" lon="-2.5856450">
        <ele>1023.8</ele>
        <time>2019-11-03T08:31:58Z</time>
      </trkpt>
      <trkpt lat="38.5175300" lon="-2.5855580">
        <ele>1023.8</ele>
        <time>2019-11-03T08:32:01Z</time>
      </trkpt>
      <trkpt lat="38.5175140" lon="-2.5854700">
        <ele>1023.8</ele>
        <time>2019-11-03T08:32:04Z</time>
      </trkpt>
      <trkpt lat="38.5175010" lon="-2.5854140">
        <ele>1025.9</ele>
        <time>2019-11-03T08:32:06Z</time>
      </trkpt>
      <trkpt lat="38.5174860" lon="-2.5853320">
        <ele>1025.9</ele>
        <time>2019-11-03T08:32:09Z</time>
      </trkpt>
      <trkpt lat="38.5174780" lon="-2.5852460">
        <ele>1025.9</ele>
        <time>2019-11-03T08:32:12Z</time>
      </trkpt>
      <trkpt lat="38.5174760" lon="-2.5851610">
        <ele>1025.9</ele>
        <time>2019-11-03T08:32:15Z</time>
      </trkpt>
      <trkpt lat="38.5174910" lon="-2.5850790">
        <ele>1025.9</ele>
        <time>2019-11-03T08:32:18Z</time>
      </trkpt>
      <trkpt lat="38.5175090" lon="-2.5849960">
        <ele>1025.9</ele>
        <time>2019-11-03T08:32:21Z</time>
      </trkpt>
      <trkpt lat="38.5175370" lon="-2.5849120">
        <ele>1027.9</ele>
        <time>2019-11-03T08:32:24Z</time>
      </trkpt>
      <trkpt lat="38.5175630" lon="-2.5848300">
        <ele>1027.9</ele>
        <time>2019-11-03T08:32:27Z</time>
      </trkpt>
      <trkpt lat="38.5175880" lon="-2.5847470">
        <ele>1027.9</ele>
        <time>2019-11-03T08:32:30Z</time>
      </trkpt>
      <trkpt lat="38.5176170" lon="-2.5846650">
        <ele>1027.9</ele>
        <time>2019-11-03T08:32:33Z</time>
      </trkpt>
      <trkpt lat="38.5176400" lon="-2.5845860">
        <ele>1027.9</ele>
        <time>2019-11-03T08:32:36Z</time>
      </trkpt>
      <trkpt lat="38.5176630" lon="-2.5845070">
        <ele>1027.9</ele>
        <time>2019-11-03T08:32:39Z</time>
      </trkpt>
      <trkpt lat="38.5176810" lon="-2.5844280">
        <ele>1030.0</ele>
        <time>2019-11-03T08:32:42Z</time>
      </trkpt>
      <trkpt lat="38.5177040" lon="-2.5843490">
        <ele>1030.0</ele>
        <time>2019-11-03T08:32:45Z</time>
      </trkpt>
      <trkpt lat="38.5177270" lon="-2.5842690">
        <ele>1030.0</ele>
        <time>2019-11-03T08:32:48Z</time>
      </trkpt>
      <trkpt lat="38.5177420" lon="-2.5841860">
        <ele>1030.0</ele>
        <time>2019-11-03T08:32:51Z</time>
      </trkpt>
      <trkpt lat="38.5177600" lon="-2.5841070">
        <ele>1030.0</ele>
        <time>2019-11-03T08:32:54Z</time>
      </trkpt>
      <trkpt lat="38.5177750" lon="-2.5840280">
        <ele>1030.0</ele>
        <time>2019-11-03T08:32:57Z</time>
      </trkpt>
      <trkpt lat="38.5177960" lon="-2.5839490">
        <ele>1032.0</ele>
        <time>2019-11-03T08:33:00Z</time>
      </trkpt>
      <trkpt lat="38.5178110" lon="-2.5838700">
        <ele>1032.0</ele>
        <time>2019-11-03T08:33:03Z</time>
      </trkpt>
      <trkpt lat="38.5178270" lon="-2.5837930">
        <ele>1032.0</ele>
        <time>2019-11-03T08:33:06Z</time>
      </trkpt>
      <trkpt lat="38.5178420" lon="-2.5837210">
        <ele>1032.0</ele>
        <time>2019-11-03T08:33:09Z</time>
      </trkpt>
      <trkpt lat="38.5178520" lon="-2.5836480">
        <ele>1032.0</ele>
        <time>2019-11-03T08:33:12Z</time>
      </trkpt>
      <trkpt lat="38.5178650" lon="-2.5835680">
        <ele>1034.1</ele>
        <time>2019-11-03T08:33:15Z</time>
      </trkpt>
      <trkpt lat="38.5178750" lon="-2.5834870">
        <ele>1034.1</ele>
        <time>2019-11-03T08:33:18Z</time>
      </trkpt>
      <trkpt lat="38.5178800" lon="-2.5834080">
        <ele>1034.1</ele>
        <time>2019-11-03T08:33:21Z</time>
      </trkpt>
      <trkpt lat="38.5178830" lon="-2.5833280">
        <ele>1034.1</ele>
        <time>2019-11-03T08:33:24Z</time>
      </trkpt>
      <trkpt lat="38.5178800" lon="-2.5832470">
        <ele>1034.1</ele>
        <time>2019-11-03T08:33:27Z</time>
      </trkpt>
      <trkpt lat="38.5178750" lon="-2.5831690">
        <ele>1034.1</ele>
        <time>2019-11-03T08:33:30Z</time>
      </trkpt>
      <trkpt lat="38.5178730" lon="-2.5831140">
        <ele>1036.1</ele>
        <time>2019-11-03T08:33:32Z</time>
      </trkpt>
      <trkpt lat="38.5178680" lon="-2.5830340">
        <ele>1036.1</ele>
        <time>2019-11-03T08:33:35Z</time>
      </trkpt>
      <trkpt lat="38.5178600" lon="-2.5829530">
        <ele>1036.1</ele>
        <time>2019-11-03T08:33:38Z</time>
      </trkpt>
      <trkpt lat="38.5178500" lon="-2.5828740">
        <ele>1036.1</ele>
        <time>2019-11-03T08:33:41Z</time>
      </trkpt>
      <trkpt lat="38.5178340" lon="-2.5827970">
        <ele>1038.2</ele>
        <time>2019-11-03T08:33:44Z</time>
      </trkpt>
      <trkpt lat="38.5178190" lon="-2.5827180">
        <ele>1038.2</ele>
        <time>2019-11-03T08:33:47Z</time>
      </trkpt>
      <trkpt lat="38.5177980" lon="-2.5826410">
        <ele>1038.2</ele>
        <time>2019-11-03T08:33:50Z</time>
      </trkpt>
      <trkpt lat="38.5177680" lon="-2.5825660">
        <ele>1038.2</ele>
        <time>2019-11-03T08:33:53Z</time>
      </trkpt>
      <trkpt lat="38.5177420" lon="-2.5824920">
        <ele>1038.2</ele>
        <time>2019-11-03T08:33:56Z</time>
      </trkpt>
      <trkpt lat="38.5177160" lon="-2.5824230">
        <ele>1040.2</ele>
        <time>2019-11-03T08:33:59Z</time>
      </trkpt>
      <trkpt lat="38.5176930" lon="-2.5823550">
        <ele>1040.2</ele>
        <time>2019-11-03T08:34:02Z</time>
      </trkpt>
      <trkpt lat="38.5176730" lon="-2.5822820">
        <ele>1040.2</ele>
        <time>2019-11-03T08:34:05Z</time>
      </trkpt>
      <trkpt lat="38.5176550" lon="-2.5821800">
        <ele>1040.2</ele>
        <time>2019-11-03T08:34:09Z</time>
      </trkpt>
      <trkpt lat="38.5176470" lon="-2.5821010">
        <ele>1040.2</ele>
        <time>2019-11-03T08:34:12Z</time>
      </trkpt>
      <trkpt lat="38.5176470" lon="-2.5820200">
        <ele>1042.4</ele>
        <time>2019-11-03T08:34:15Z</time>
      </trkpt>
      <trkpt lat="38.5176550" lon="-2.5819420">
        <ele>1042.4</ele>
        <time>2019-11-03T08:34:18Z</time>
      </trkpt>
      <trkpt lat="38.5176630" lon="-2.5818640">
        <ele>1042.4</ele>
        <time>2019-11-03T08:34:21Z</time>
      </trkpt>
      <trkpt lat="38.5176700" lon="-2.5817880">
        <ele>1042.4</ele>
        <time>2019-11-03T08:34:24Z</time>
      </trkpt>
      <trkpt lat="38.5176780" lon="-2.5817130">
        <ele>1042.4</ele>
        <time>2019-11-03T08:34:27Z</time>
      </trkpt>
      <trkpt lat="38.5176930" lon="-2.5816350">
        <ele>1044.6</ele>
        <time>2019-11-03T08:34:30Z</time>
      </trkpt>
      <trkpt lat="38.5177010" lon="-2.5815580">
        <ele>1044.6</ele>
        <time>2019-11-03T08:34:33Z</time>
      </trkpt>
      <trkpt lat="38.5177090" lon="-2.5814760">
        <ele>1044.6</ele>
        <time>2019-11-03T08:34:36Z</time>
      </trkpt>
      <trkpt lat="38.5177110" lon="-2.5814230">
        <ele>1010.7</ele>
        <time>2019-11-03T08:34:38Z</time>
      </trkpt>
      <trkpt lat="38.5177240" lon="-2.5813390">
        <ele>1010.7</ele>
        <time>2019-11-03T08:34:41Z</time>
      </trkpt>
      <trkpt lat="38.5177320" lon="-2.5812600">
        <ele>1010.7</ele>
        <time>2019-11-03T08:34:44Z</time>
      </trkpt>
      <trkpt lat="38.5177340" lon="-2.5812070">
        <ele>1012.9</ele>
        <time>2019-11-03T08:34:46Z</time>
      </trkpt>
      <trkpt lat="38.5177420" lon="-2.5811320">
        <ele>1012.9</ele>
        <time>2019-11-03T08:34:49Z</time>
      </trkpt>
      <trkpt lat="38.5177500" lon="-2.5810550">
        <ele>1012.9</ele>
        <time>2019-11-03T08:34:52Z</time>
      </trkpt>
      <trkpt lat="38.5177570" lon="-2.5809770">
        <ele>1012.9</ele>
        <time>2019-11-03T08:34:55Z</time>
      </trkpt>
      <trkpt lat="38.5177650" lon="-2.5808970">
        <ele>1012.9</ele>
        <time>2019-11-03T08:34:58Z</time>
      </trkpt>
      <trkpt lat="38.5177680" lon="-2.5808200">
        <ele>1015.3</ele>
        <time>2019-11-03T08:35:01Z</time>
      </trkpt>
      <trkpt lat="38.5177730" lon="-2.5807660">
        <ele>1015.3</ele>
        <time>2019-11-03T08:35:03Z</time>
      </trkpt>
      <trkpt lat="38.5177830" lon="-2.5806890">
        <ele>1015.3</ele>
        <time>2019-11-03T08:35:06Z</time>
      </trkpt>
      <trkpt lat="38.5177880" lon="-2.5806120">
        <ele>1015.3</ele>
        <time>2019-11-03T08:35:09Z</time>
      </trkpt>
      <trkpt lat="38.5177960" lon="-2.5805370">
        <ele>1015.3</ele>
        <time>2019-11-03T08:35:12Z</time>
      </trkpt>
      <trkpt lat="38.5178040" lon="-2.5804620">
        <ele>1015.3</ele>
        <time>2019-11-03T08:35:15Z</time>
      </trkpt>
      <trkpt lat="38.5178060" lon="-2.5803820">
        <ele>1017.6</ele>
        <time>2019-11-03T08:35:18Z</time>
      </trkpt>
      <trkpt lat="38.5178060" lon="-2.5803020">
        <ele>1017.6</ele>
        <time>2019-11-03T08:35:21Z</time>
      </trkpt>
      <trkpt lat="38.5178110" lon="-2.5802280">
        <ele>1017.6</ele>
        <time>2019-11-03T08:35:24Z</time>
      </trkpt>
      <trkpt lat="38.5178140" lon="-2.5801440">
        <ele>1017.6</ele>
        <time>2019-11-03T08:35:27Z</time>
      </trkpt>
      <trkpt lat="38.5178110" lon="-2.5800590">
        <ele>1017.6</ele>
        <time>2019-11-03T08:35:30Z</time>
      </trkpt>
      <trkpt lat="38.5178040" lon="-2.5799780">
        <ele>1020.0</ele>
        <time>2019-11-03T08:35:33Z</time>
      </trkpt>
      <trkpt lat="38.5177960" lon="-2.5799270">
        <ele>1020.0</ele>
        <time>2019-11-03T08:35:35Z</time>
      </trkpt>
      <trkpt lat="38.5177750" lon="-2.5798510">
        <ele>1020.0</ele>
        <time>2019-11-03T08:35:38Z</time>
      </trkpt>
      <trkpt lat="38.5177500" lon="-2.5797730">
        <ele>1020.0</ele>
        <time>2019-11-03T08:35:41Z</time>
      </trkpt>
      <trkpt lat="38.5177240" lon="-2.5796990">
        <ele>1020.0</ele>
        <time>2019-11-03T08:35:44Z</time>
      </trkpt>
      <trkpt lat="38.5176930" lon="-2.5796240">
        <ele>1020.0</ele>
        <time>2019-11-03T08:35:47Z</time>
      </trkpt>
      <trkpt lat="38.5176630" lon="-2.5795490">
        <ele>1022.3</ele>
        <time>2019-11-03T08:35:50Z</time>
      </trkpt>
      <trkpt lat="38.5176320" lon="-2.5794750">
        <ele>1022.3</ele>
        <time>2019-11-03T08:35:53Z</time>
      </trkpt>
      <trkpt lat="38.5176010" lon="-2.5794020">
        <ele>1022.3</ele>
        <time>2019-11-03T08:35:56Z</time>
      </trkpt>
      <trkpt lat="38.5175650" lon="-2.5793360">
        <ele>1022.3</ele>
        <time>2019-11-03T08:35:59Z</time>
      </trkpt>
      <trkpt lat="38.5175300" lon="-2.5792720">
        <ele>1022.3</ele>
        <time>2019-11-03T08:36:02Z</time>
      </trkpt>
      <trkpt lat="38.5174780" lon="-2.5792210">
        <ele>1024.9</ele>
        <time>2019-11-03T08:36:05Z</time>
      </trkpt>
      <trkpt lat="38.5174400" lon="-2.5791960">
        <ele>1024.9</ele>
        <time>2019-11-03T08:36:07Z</time>
      </trkpt>
      <trkpt lat="38.5173790" lon="-2.5791680">
        <ele>1024.9</ele>
        <time>2019-11-03T08:36:10Z</time>
      </trkpt>
      <trkpt lat="38.5173200" lon="-2.5791480">
        <ele>1024.9</ele>
        <time>2019-11-03T08:36:13Z</time>
      </trkpt>
      <trkpt lat="38.5172530" lon="-2.5791350">
        <ele>1024.9</ele>
        <time>2019-11-03T08:36:16Z</time>
      </trkpt>
      <trkpt lat="38.5171890" lon="-2.5791220">
        <ele>1024.9</ele>
        <time>2019-11-03T08:36:19Z</time>
      </trkpt>
      <trkpt lat="38.5171250" lon="-2.5791080">
        <ele>1027.1</ele>
        <time>2019-11-03T08:36:22Z</time>
      </trkpt>
      <trkpt lat="38.5170660" lon="-2.5790950">
        <ele>1027.1</ele>
        <time>2019-11-03T08:36:25Z</time>
      </trkpt>
      <trkpt lat="38.5170050" lon="-2.5790880">
        <ele>1027.1</ele>
        <time>2019-11-03T08:36:28Z</time>
      </trkpt>
      <trkpt lat="38.5169380" lon="-2.5790890">
        <ele>1027.1</ele>
        <time>2019-11-03T08:36:31Z</time>
      </trkpt>
      <trkpt lat="38.5168720" lon="-2.5790960">
        <ele>1027.1</ele>
        <time>2019-11-03T08:36:34Z</time>
      </trkpt>
      <trkpt lat="38.5168080" lon="-2.5791080">
        <ele>1030.3</ele>
        <time>2019-11-03T08:36:37Z</time>
      </trkpt>
      <trkpt lat="38.5167670" lon="-2.5791190">
        <ele>1030.3</ele>
        <time>2019-11-03T08:36:39Z</time>
      </trkpt>
      <trkpt lat="38.5167050" lon="-2.5791390">
        <ele>1030.3</ele>
        <time>2019-11-03T08:36:42Z</time>
      </trkpt>
      <trkpt lat="38.5166390" lon="-2.5791610">
        <ele>1030.3</ele>
        <time>2019-11-03T08:36:45Z</time>
      </trkpt>
      <trkpt lat="38.5165720" lon="-2.5791830">
        <ele>1030.3</ele>
        <time>2019-11-03T08:36:48Z</time>
      </trkpt>
      <trkpt lat="38.5165030" lon="-2.5792010">
        <ele>1030.3</ele>
        <time>2019-11-03T08:36:51Z</time>
      </trkpt>
      <trkpt lat="38.5164340" lon="-2.5792200">
        <ele>1032.7</ele>
        <time>2019-11-03T08:36:54Z</time>
      </trkpt>
      <trkpt lat="38.5163880" lon="-2.5792320">
        <ele>1032.7</ele>
        <time>2019-11-03T08:36:56Z</time>
      </trkpt>
      <trkpt lat="38.5163160" lon="-2.5792470">
        <ele>1032.7</ele>
        <time>2019-11-03T08:36:59Z</time>
      </trkpt>
      <trkpt lat="38.5162470" lon="-2.5792560">
        <ele>1032.7</ele>
        <time>2019-11-03T08:37:02Z</time>
      </trkpt>
      <trkpt lat="38.5161980" lon="-2.5792620">
        <ele>1032.7</ele>
        <time>2019-11-03T08:37:04Z</time>
      </trkpt>
      <trkpt lat="38.5161240" lon="-2.5792730">
        <ele>1032.7</ele>
        <time>2019-11-03T08:37:07Z</time>
      </trkpt>
      <trkpt lat="38.5160520" lon="-2.5792840">
        <ele>1035.2</ele>
        <time>2019-11-03T08:37:10Z</time>
      </trkpt>
      <trkpt lat="38.5159810" lon="-2.5792910">
        <ele>1035.2</ele>
        <time>2019-11-03T08:37:13Z</time>
      </trkpt>
      <trkpt lat="38.5159120" lon="-2.5793000">
        <ele>1035.2</ele>
        <time>2019-11-03T08:37:16Z</time>
      </trkpt>
      <trkpt lat="38.5158430" lon="-2.5793080">
        <ele>1035.2</ele>
        <time>2019-11-03T08:37:19Z</time>
      </trkpt>
      <trkpt lat="38.5157960" lon="-2.5793080">
        <ele>1035.2</ele>
        <time>2019-11-03T08:37:21Z</time>
      </trkpt>
      <trkpt lat="38.5157270" lon="-2.5793090">
        <ele>1035.2</ele>
        <time>2019-11-03T08:37:24Z</time>
      </trkpt>
      <trkpt lat="38.5156810" lon="-2.5793110">
        <ele>1037.5</ele>
        <time>2019-11-03T08:37:26Z</time>
      </trkpt>
      <trkpt lat="38.5156100" lon="-2.5793090">
        <ele>1037.5</ele>
        <time>2019-11-03T08:37:29Z</time>
      </trkpt>
      <trkpt lat="38.5155380" lon="-2.5792950">
        <ele>1037.5</ele>
        <time>2019-11-03T08:37:32Z</time>
      </trkpt>
      <trkpt lat="38.5154640" lon="-2.5792560">
        <ele>1037.5</ele>
        <time>2019-11-03T08:37:35Z</time>
      </trkpt>
      <trkpt lat="38.5154150" lon="-2.5792180">
        <ele>1037.5</ele>
        <time>2019-11-03T08:37:37Z</time>
      </trkpt>
      <trkpt lat="38.5153660" lon="-2.5791790">
        <ele>1037.5</ele>
        <time>2019-11-03T08:37:39Z</time>
      </trkpt>
      <trkpt lat="38.5153150" lon="-2.5791280">
        <ele>1039.7</ele>
        <time>2019-11-03T08:37:41Z</time>
      </trkpt>
      <trkpt lat="38.5152610" lon="-2.5790720">
        <ele>1039.7</ele>
        <time>2019-11-03T08:37:43Z</time>
      </trkpt>
      <trkpt lat="38.5152130" lon="-2.5790120">
        <ele>1039.7</ele>
        <time>2019-11-03T08:37:45Z</time>
      </trkpt>
      <trkpt lat="38.5151410" lon="-2.5789200">
        <ele>1039.7</ele>
        <time>2019-11-03T08:37:48Z</time>
      </trkpt>
      <trkpt lat="38.5150950" lon="-2.5788630">
        <ele>1039.7</ele>
        <time>2019-11-03T08:37:50Z</time>
      </trkpt>
      <trkpt lat="38.5150460" lon="-2.5788050">
        <ele>1039.7</ele>
        <time>2019-11-03T08:37:52Z</time>
      </trkpt>
      <trkpt lat="38.5149950" lon="-2.5787420">
        <ele>1039.7</ele>
        <time>2019-11-03T08:37:54Z</time>
      </trkpt>
      <trkpt lat="38.5149470" lon="-2.5786830">
        <ele>1039.7</ele>
        <time>2019-11-03T08:37:56Z</time>
      </trkpt>
      <trkpt lat="38.5149000" lon="-2.5786260">
        <ele>1039.7</ele>
        <time>2019-11-03T08:37:58Z</time>
      </trkpt>
      <trkpt lat="38.5148600" lon="-2.5785740">
        <ele>1041.7</ele>
        <time>2019-11-03T08:38:00Z</time>
      </trkpt>
      <trkpt lat="38.5148160" lon="-2.5785190">
        <ele>1041.7</ele>
        <time>2019-11-03T08:38:02Z</time>
      </trkpt>
      <trkpt lat="38.5147750" lon="-2.5784660">
        <ele>1041.7</ele>
        <time>2019-11-03T08:38:04Z</time>
      </trkpt>
      <trkpt lat="38.5147320" lon="-2.5784110">
        <ele>1041.7</ele>
        <time>2019-11-03T08:38:06Z</time>
      </trkpt>
      <trkpt lat="38.5146930" lon="-2.5783590">
        <ele>1041.7</ele>
        <time>2019-11-03T08:38:08Z</time>
      </trkpt>
      <trkpt lat="38.5146520" lon="-2.5783110">
        <ele>1041.7</ele>
        <time>2019-11-03T08:38:10Z</time>
      </trkpt>
      <trkpt lat="38.5146110" lon="-2.5782620">
        <ele>1041.7</ele>
        <time>2019-11-03T08:38:12Z</time>
      </trkpt>
      <trkpt lat="38.5145800" lon="-2.5782160">
        <ele>1041.7</ele>
        <time>2019-11-03T08:38:14Z</time>
      </trkpt>
      <trkpt lat="38.5145450" lon="-2.5781650">
        <ele>1043.7</ele>
        <time>2019-11-03T08:38:16Z</time>
      </trkpt>
      <trkpt lat="38.5145110" lon="-2.5781070">
        <ele>1043.7</ele>
        <time>2019-11-03T08:38:18Z</time>
      </trkpt>
      <trkpt lat="38.5144810" lon="-2.5780530">
        <ele>1043.7</ele>
        <time>2019-11-03T08:38:20Z</time>
      </trkpt>
      <trkpt lat="38.5144550" lon="-2.5779910">
        <ele>1043.7</ele>
        <time>2019-11-03T08:38:22Z</time>
      </trkpt>
      <trkpt lat="38.5144270" lon="-2.5779320">
        <ele>1043.7</ele>
        <time>2019-11-03T08:38:24Z</time>
      </trkpt>
      <trkpt lat="38.5144010" lon="-2.5778670">
        <ele>1043.7</ele>
        <time>2019-11-03T08:38:26Z</time>
      </trkpt>
      <trkpt lat="38.5143730" lon="-2.5778070">
        <ele>1043.7</ele>
        <time>2019-11-03T08:38:28Z</time>
      </trkpt>
      <trkpt lat="38.5143480" lon="-2.5777450">
        <ele>1043.7</ele>
        <time>2019-11-03T08:38:30Z</time>
      </trkpt>
      <trkpt lat="38.5143190" lon="-2.5776850">
        <ele>1043.7</ele>
        <time>2019-11-03T08:38:32Z</time>
      </trkpt>
      <trkpt lat="38.5142890" lon="-2.5776250">
        <ele>1045.8</ele>
        <time>2019-11-03T08:38:34Z</time>
      </trkpt>
      <trkpt lat="38.5142630" lon="-2.5775690">
        <ele>1045.8</ele>
        <time>2019-11-03T08:38:36Z</time>
      </trkpt>
      <trkpt lat="38.5142370" lon="-2.5775160">
        <ele>1045.8</ele>
        <time>2019-11-03T08:38:38Z</time>
      </trkpt>
      <trkpt lat="38.5141940" lon="-2.5774390">
        <ele>1045.8</ele>
        <time>2019-11-03T08:38:41Z</time>
      </trkpt>
      <trkpt lat="38.5141630" lon="-2.5773900">
        <ele>1045.8</ele>
        <time>2019-11-03T08:38:43Z</time>
      </trkpt>
      <trkpt lat="38.5141070" lon="-2.5773190">
        <ele>1045.8</ele>
        <time>2019-11-03T08:38:46Z</time>
      </trkpt>
      <trkpt lat="38.5140680" lon="-2.5772840">
        <ele>1047.8</ele>
        <time>2019-11-03T08:38:48Z</time>
      </trkpt>
      <trkpt lat="38.5140220" lon="-2.5772590">
        <ele>1047.8</ele>
        <time>2019-11-03T08:38:50Z</time>
      </trkpt>
      <trkpt lat="38.5139510" lon="-2.5772310">
        <ele>1047.8</ele>
        <time>2019-11-03T08:38:53Z</time>
      </trkpt>
      <trkpt lat="38.5138820" lon="-2.5772140">
        <ele>1047.8</ele>
        <time>2019-11-03T08:38:56Z</time>
      </trkpt>
      <trkpt lat="38.5138120" lon="-2.5772020">
        <ele>1047.8</ele>
        <time>2019-11-03T08:38:59Z</time>
      </trkpt>
      <trkpt lat="38.5137480" lon="-2.5771790">
        <ele>1049.9</ele>
        <time>2019-11-03T08:39:02Z</time>
      </trkpt>
      <trkpt lat="38.5136840" lon="-2.5771430">
        <ele>1049.9</ele>
        <time>2019-11-03T08:39:05Z</time>
      </trkpt>
      <trkpt lat="38.5136310" lon="-2.5770960">
        <ele>1049.9</ele>
        <time>2019-11-03T08:39:08Z</time>
      </trkpt>
      <trkpt lat="38.5135870" lon="-2.5770460">
        <ele>1049.9</ele>
        <time>2019-11-03T08:39:11Z</time>
      </trkpt>
      <trkpt lat="38.5135490" lon="-2.5769940">
        <ele>1049.9</ele>
        <time>2019-11-03T08:39:13Z</time>
      </trkpt>
      <trkpt lat="38.5135100" lon="-2.5769440">
        <ele>1049.9</ele>
        <time>2019-11-03T08:39:15Z</time>
      </trkpt>
      <trkpt lat="38.5134820" lon="-2.5768960">
        <ele>1049.9</ele>
        <time>2019-11-03T08:39:17Z</time>
      </trkpt>
      <trkpt lat="38.5134520" lon="-2.5768480">
        <ele>1052.0</ele>
        <time>2019-11-03T08:39:19Z</time>
      </trkpt>
      <trkpt lat="38.5134080" lon="-2.5767790">
        <ele>1052.0</ele>
        <time>2019-11-03T08:39:22Z</time>
      </trkpt>
      <trkpt lat="38.5133700" lon="-2.5767080">
        <ele>1052.0</ele>
        <time>2019-11-03T08:39:25Z</time>
      </trkpt>
      <trkpt lat="38.5133310" lon="-2.5766380">
        <ele>1052.0</ele>
        <time>2019-11-03T08:39:28Z</time>
      </trkpt>
      <trkpt lat="38.5132900" lon="-2.5765670">
        <ele>1052.0</ele>
        <time>2019-11-03T08:39:31Z</time>
      </trkpt>
      <trkpt lat="38.5132600" lon="-2.5765170">
        <ele>1052.0</ele>
        <time>2019-11-03T08:39:33Z</time>
      </trkpt>
      <trkpt lat="38.5132060" lon="-2.5764430">
        <ele>1054.0</ele>
        <time>2019-11-03T08:39:36Z</time>
      </trkpt>
      <trkpt lat="38.5131570" lon="-2.5763680">
        <ele>1054.0</ele>
        <time>2019-11-03T08:39:39Z</time>
      </trkpt>
      <trkpt lat="38.5131190" lon="-2.5763190">
        <ele>1054.0</ele>
        <time>2019-11-03T08:39:41Z</time>
      </trkpt>
      <trkpt lat="38.5130800" lon="-2.5762680">
        <ele>1054.0</ele>
        <time>2019-11-03T08:39:43Z</time>
      </trkpt>
      <trkpt lat="38.5130420" lon="-2.5762120">
        <ele>1054.0</ele>
        <time>2019-11-03T08:39:45Z</time>
      </trkpt>
      <trkpt lat="38.5130040" lon="-2.5761600">
        <ele>1054.0</ele>
        <time>2019-11-03T08:39:47Z</time>
      </trkpt>
      <trkpt lat="38.5129630" lon="-2.5761020">
        <ele>1054.0</ele>
        <time>2019-11-03T08:39:49Z</time>
      </trkpt>
      <trkpt lat="38.5129240" lon="-2.5760500">
        <ele>1056.1</ele>
        <time>2019-11-03T08:39:51Z</time>
      </trkpt>
      <trkpt lat="38.5128860" lon="-2.5759970">
        <ele>1056.1</ele>
        <time>2019-11-03T08:39:53Z</time>
      </trkpt>
      <trkpt lat="38.5128520" lon="-2.5759450">
        <ele>1056.1</ele>
        <time>2019-11-03T08:39:55Z</time>
      </trkpt>
      <trkpt lat="38.5128170" lon="-2.5758910">
        <ele>1056.1</ele>
        <time>2019-11-03T08:39:57Z</time>
      </trkpt>
      <trkpt lat="38.5127830" lon="-2.5758340">
        <ele>1056.1</ele>
        <time>2019-11-03T08:39:59Z</time>
      </trkpt>
      <trkpt lat="38.5127600" lon="-2.5757790">
        <ele>1056.1</ele>
        <time>2019-11-03T08:40:01Z</time>
      </trkpt>
      <trkpt lat="38.5127350" lon="-2.5757200">
        <ele>1056.1</ele>
        <time>2019-11-03T08:40:03Z</time>
      </trkpt>
      <trkpt lat="38.5127120" lon="-2.5756310">
        <ele>1056.1</ele>
        <time>2019-11-03T08:40:06Z</time>
      </trkpt>
      <trkpt lat="38.5126990" lon="-2.5755350">
        <ele>1056.1</ele>
        <time>2019-11-03T08:40:09Z</time>
      </trkpt>
      <trkpt lat="38.5126990" lon="-2.5754700">
        <ele>1058.2</ele>
        <time>2019-11-03T08:40:11Z</time>
      </trkpt>
      <trkpt lat="38.5127070" lon="-2.5754020">
        <ele>1058.2</ele>
        <time>2019-11-03T08:40:13Z</time>
      </trkpt>
      <trkpt lat="38.5127270" lon="-2.5753020">
        <ele>1058.2</ele>
        <time>2019-11-03T08:40:16Z</time>
      </trkpt>
      <trkpt lat="38.5127450" lon="-2.5752390">
        <ele>1058.2</ele>
        <time>2019-11-03T08:40:18Z</time>
      </trkpt>
      <trkpt lat="38.5127680" lon="-2.5751760">
        <ele>1058.2</ele>
        <time>2019-11-03T08:40:20Z</time>
      </trkpt>
      <trkpt lat="38.5127860" lon="-2.5751130">
        <ele>1058.2</ele>
        <time>2019-11-03T08:40:22Z</time>
      </trkpt>
      <trkpt lat="38.5127990" lon="-2.5750490">
        <ele>1058.2</ele>
        <time>2019-11-03T08:40:24Z</time>
      </trkpt>
      <trkpt lat="38.5127940" lon="-2.5749860">
        <ele>1058.2</ele>
        <time>2019-11-03T08:40:26Z</time>
      </trkpt>
      <trkpt lat="38.5127530" lon="-2.5749030">
        <ele>1060.2</ele>
        <time>2019-11-03T08:40:29Z</time>
      </trkpt>
      <trkpt lat="38.5127070" lon="-2.5748570">
        <ele>1060.2</ele>
        <time>2019-11-03T08:40:31Z</time>
      </trkpt>
      <trkpt lat="38.5126580" lon="-2.5748220">
        <ele>1060.2</ele>
        <time>2019-11-03T08:40:33Z</time>
      </trkpt>
      <trkpt lat="38.5126040" lon="-2.5747960">
        <ele>1060.2</ele>
        <time>2019-11-03T08:40:35Z</time>
      </trkpt>
      <trkpt lat="38.5125500" lon="-2.5747790">
        <ele>1060.2</ele>
        <time>2019-11-03T08:40:37Z</time>
      </trkpt>
      <trkpt lat="38.5124970" lon="-2.5747710">
        <ele>1060.2</ele>
        <time>2019-11-03T08:40:39Z</time>
      </trkpt>
      <trkpt lat="38.5124480" lon="-2.5747690">
        <ele>1060.2</ele>
        <time>2019-11-03T08:40:41Z</time>
      </trkpt>
      <trkpt lat="38.5123940" lon="-2.5747740">
        <ele>1060.2</ele>
        <time>2019-11-03T08:40:43Z</time>
      </trkpt>
      <trkpt lat="38.5123170" lon="-2.5747920">
        <ele>1062.3</ele>
        <time>2019-11-03T08:40:46Z</time>
      </trkpt>
      <trkpt lat="38.5122460" lon="-2.5748100">
        <ele>1062.3</ele>
        <time>2019-11-03T08:40:49Z</time>
      </trkpt>
      <trkpt lat="38.5121950" lon="-2.5748190">
        <ele>1062.3</ele>
        <time>2019-11-03T08:40:51Z</time>
      </trkpt>
      <trkpt lat="38.5121230" lon="-2.5748160">
        <ele>1062.3</ele>
        <time>2019-11-03T08:40:54Z</time>
      </trkpt>
      <trkpt lat="38.5120590" lon="-2.5747950">
        <ele>1062.3</ele>
        <time>2019-11-03T08:40:57Z</time>
      </trkpt>
      <trkpt lat="38.5119970" lon="-2.5747490">
        <ele>1062.3</ele>
        <time>2019-11-03T08:41:00Z</time>
      </trkpt>
      <trkpt lat="38.5119490" lon="-2.5746860">
        <ele>1062.3</ele>
        <time>2019-11-03T08:41:03Z</time>
      </trkpt>
      <trkpt lat="38.5119180" lon="-2.5746380">
        <ele>1064.3</ele>
        <time>2019-11-03T08:41:05Z</time>
      </trkpt>
      <trkpt lat="38.5118900" lon="-2.5745810">
        <ele>1064.3</ele>
        <time>2019-11-03T08:41:07Z</time>
      </trkpt>
      <trkpt lat="38.5118520" lon="-2.5744930">
        <ele>1064.3</ele>
        <time>2019-11-03T08:41:10Z</time>
      </trkpt>
      <trkpt lat="38.5118360" lon="-2.5744320">
        <ele>1064.3</ele>
        <time>2019-11-03T08:41:12Z</time>
      </trkpt>
      <trkpt lat="38.5118210" lon="-2.5743670">
        <ele>1064.3</ele>
        <time>2019-11-03T08:41:14Z</time>
      </trkpt>
      <trkpt lat="38.5118110" lon="-2.5743020">
        <ele>1064.3</ele>
        <time>2019-11-03T08:41:16Z</time>
      </trkpt>
      <trkpt lat="38.5117950" lon="-2.5742070">
        <ele>1064.3</ele>
        <time>2019-11-03T08:41:19Z</time>
      </trkpt>
      <trkpt lat="38.5117820" lon="-2.5741440">
        <ele>1064.3</ele>
        <time>2019-11-03T08:41:21Z</time>
      </trkpt>
      <trkpt lat="38.5117720" lon="-2.5740780">
        <ele>1064.3</ele>
        <time>2019-11-03T08:41:23Z</time>
      </trkpt>
      <trkpt lat="38.5117570" lon="-2.5739850">
        <ele>1066.3</ele>
        <time>2019-11-03T08:41:26Z</time>
      </trkpt>
      <trkpt lat="38.5117390" lon="-2.5738950">
        <ele>1066.3</ele>
        <time>2019-11-03T08:41:29Z</time>
      </trkpt>
      <trkpt lat="38.5117240" lon="-2.5738050">
        <ele>1066.3</ele>
        <time>2019-11-03T08:41:32Z</time>
      </trkpt>
      <trkpt lat="38.5117110" lon="-2.5737180">
        <ele>1066.3</ele>
        <time>2019-11-03T08:41:35Z</time>
      </trkpt>
      <trkpt lat="38.5117030" lon="-2.5736270">
        <ele>1066.3</ele>
        <time>2019-11-03T08:41:38Z</time>
      </trkpt>
      <trkpt lat="38.5117030" lon="-2.5735370">
        <ele>1068.4</ele>
        <time>2019-11-03T08:41:41Z</time>
      </trkpt>
      <trkpt lat="38.5117080" lon="-2.5734770">
        <ele>1068.4</ele>
        <time>2019-11-03T08:41:43Z</time>
      </trkpt>
      <trkpt lat="38.5117110" lon="-2.5734170">
        <ele>1068.4</ele>
        <time>2019-11-03T08:41:45Z</time>
      </trkpt>
      <trkpt lat="38.5117180" lon="-2.5732940">
        <ele>1068.4</ele>
        <time>2019-11-03T08:41:49Z</time>
      </trkpt>
      <trkpt lat="38.5117260" lon="-2.5732350">
        <ele>1068.4</ele>
        <time>2019-11-03T08:41:51Z</time>
      </trkpt>
      <trkpt lat="38.5117390" lon="-2.5731460">
        <ele>1068.4</ele>
        <time>2019-11-03T08:41:54Z</time>
      </trkpt>
      <trkpt lat="38.5117410" lon="-2.5730880">
        <ele>1070.4</ele>
        <time>2019-11-03T08:41:56Z</time>
      </trkpt>
      <trkpt lat="38.5117490" lon="-2.5730260">
        <ele>1070.4</ele>
        <time>2019-11-03T08:41:58Z</time>
      </trkpt>
      <trkpt lat="38.5117570" lon="-2.5729330">
        <ele>1070.4</ele>
        <time>2019-11-03T08:42:01Z</time>
      </trkpt>
      <trkpt lat="38.5117620" lon="-2.5728420">
        <ele>1070.4</ele>
        <time>2019-11-03T08:42:04Z</time>
      </trkpt>
      <trkpt lat="38.5117640" lon="-2.5727490">
        <ele>1070.4</ele>
        <time>2019-11-03T08:42:07Z</time>
      </trkpt>
      <trkpt lat="38.5117750" lon="-2.5726530">
        <ele>1070.4</ele>
        <time>2019-11-03T08:42:10Z</time>
      </trkpt>
      <trkpt lat="38.5117820" lon="-2.5725910">
        <ele>1072.5</ele>
        <time>2019-11-03T08:42:12Z</time>
      </trkpt>
      <trkpt lat="38.5117900" lon="-2.5725210">
        <ele>1072.5</ele>
        <time>2019-11-03T08:42:14Z</time>
      </trkpt>
      <trkpt lat="38.5117980" lon="-2.5724520">
        <ele>1072.5</ele>
        <time>2019-11-03T08:42:16Z</time>
      </trkpt>
      <trkpt lat="38.5118030" lon="-2.5723850">
        <ele>1072.5</ele>
        <time>2019-11-03T08:42:18Z</time>
      </trkpt>
      <trkpt lat="38.5118050" lon="-2.5723210">
        <ele>1072.5</ele>
        <time>2019-11-03T08:42:20Z</time>
      </trkpt>
      <trkpt lat="38.5118110" lon="-2.5722570">
        <ele>1072.5</ele>
        <time>2019-11-03T08:42:22Z</time>
      </trkpt>
      <trkpt lat="38.5118130" lon="-2.5721670">
        <ele>1072.5</ele>
        <time>2019-11-03T08:42:25Z</time>
      </trkpt>
      <trkpt lat="38.5118110" lon="-2.5720800">
        <ele>1074.5</ele>
        <time>2019-11-03T08:42:28Z</time>
      </trkpt>
      <trkpt lat="38.5118030" lon="-2.5720200">
        <ele>1074.5</ele>
        <time>2019-11-03T08:42:30Z</time>
      </trkpt>
      <trkpt lat="38.5117800" lon="-2.5719350">
        <ele>1074.5</ele>
        <time>2019-11-03T08:42:33Z</time>
      </trkpt>
      <trkpt lat="38.5117470" lon="-2.5718670">
        <ele>1074.5</ele>
        <time>2019-11-03T08:42:36Z</time>
      </trkpt>
      <trkpt lat="38.5116930" lon="-2.5718200">
        <ele>1074.5</ele>
        <time>2019-11-03T08:42:39Z</time>
      </trkpt>
      <trkpt lat="38.5116260" lon="-2.5718050">
        <ele>1076.5</ele>
        <time>2019-11-03T08:42:42Z</time>
      </trkpt>
      <trkpt lat="38.5115620" lon="-2.5718260">
        <ele>1076.5</ele>
        <time>2019-11-03T08:42:45Z</time>
      </trkpt>
      <trkpt lat="38.5115060" lon="-2.5718700">
        <ele>1076.5</ele>
        <time>2019-11-03T08:42:48Z</time>
      </trkpt>
      <trkpt lat="38.5114620" lon="-2.5719220">
        <ele>1076.5</ele>
        <time>2019-11-03T08:42:51Z</time>
      </trkpt>
      <trkpt lat="38.5114210" lon="-2.5719860">
        <ele>1076.5</ele>
        <time>2019-11-03T08:42:54Z</time>
      </trkpt>
      <trkpt lat="38.5113910" lon="-2.5720330">
        <ele>1078.6</ele>
        <time>2019-11-03T08:42:56Z</time>
      </trkpt>
      <trkpt lat="38.5113420" lon="-2.5720930">
        <ele>1078.6</ele>
        <time>2019-11-03T08:42:59Z</time>
      </trkpt>
      <trkpt lat="38.5112830" lon="-2.5721460">
        <ele>1078.6</ele>
        <time>2019-11-03T08:43:02Z</time>
      </trkpt>
      <trkpt lat="38.5112190" lon="-2.5721880">
        <ele>1078.6</ele>
        <time>2019-11-03T08:43:05Z</time>
      </trkpt>
      <trkpt lat="38.5111550" lon="-2.5722320">
        <ele>1078.6</ele>
        <time>2019-11-03T08:43:08Z</time>
      </trkpt>
      <trkpt lat="38.5111120" lon="-2.5722600">
        <ele>1080.7</ele>
        <time>2019-11-03T08:43:10Z</time>
      </trkpt>
      <trkpt lat="38.5110710" lon="-2.5722890">
        <ele>1080.7</ele>
        <time>2019-11-03T08:43:12Z</time>
      </trkpt>
      <trkpt lat="38.5110040" lon="-2.5723290">
        <ele>1080.7</ele>
        <time>2019-11-03T08:43:15Z</time>
      </trkpt>
      <trkpt lat="38.5109400" lon="-2.5723680">
        <ele>1082.9</ele>
        <time>2019-11-03T08:43:18Z</time>
      </trkpt>
      <trkpt lat="38.5108990" lon="-2.5723970">
        <ele>1082.9</ele>
        <time>2019-11-03T08:43:20Z</time>
      </trkpt>
      <trkpt lat="38.5108450" lon="-2.5724460">
        <ele>1082.9</ele>
        <time>2019-11-03T08:43:23Z</time>
      </trkpt>
      <trkpt lat="38.5108040" lon="-2.5724820">
        <ele>1082.9</ele>
        <time>2019-11-03T08:43:25Z</time>
      </trkpt>
      <trkpt lat="38.5107530" lon="-2.5725430">
        <ele>1082.9</ele>
        <time>2019-11-03T08:43:28Z</time>
      </trkpt>
      <trkpt lat="38.5107230" lon="-2.5725880">
        <ele>1082.9</ele>
        <time>2019-11-03T08:43:30Z</time>
      </trkpt>
      <trkpt lat="38.5106690" lon="-2.5726630">
        <ele>1082.9</ele>
        <time>2019-11-03T08:43:33Z</time>
      </trkpt>
      <trkpt lat="38.5106300" lon="-2.5727140">
        <ele>1085.5</ele>
        <time>2019-11-03T08:43:35Z</time>
      </trkpt>
      <trkpt lat="38.5105890" lon="-2.5727620">
        <ele>1085.5</ele>
        <time>2019-11-03T08:43:37Z</time>
      </trkpt>
      <trkpt lat="38.5105430" lon="-2.5728100">
        <ele>1085.5</ele>
        <time>2019-11-03T08:43:39Z</time>
      </trkpt>
      <trkpt lat="38.5104970" lon="-2.5728560">
        <ele>1085.5</ele>
        <time>2019-11-03T08:43:41Z</time>
      </trkpt>
      <trkpt lat="38.5104560" lon="-2.5728980">
        <ele>1085.5</ele>
        <time>2019-11-03T08:43:43Z</time>
      </trkpt>
      <trkpt lat="38.5103920" lon="-2.5729600">
        <ele>1085.5</ele>
        <time>2019-11-03T08:43:46Z</time>
      </trkpt>
      <trkpt lat="38.5103460" lon="-2.5730020">
        <ele>1085.5</ele>
        <time>2019-11-03T08:43:48Z</time>
      </trkpt>
      <trkpt lat="38.5102950" lon="-2.5730410">
        <ele>1088.3</ele>
        <time>2019-11-03T08:43:50Z</time>
      </trkpt>
      <trkpt lat="38.5102230" lon="-2.5730920">
        <ele>1088.3</ele>
        <time>2019-11-03T08:43:53Z</time>
      </trkpt>
      <trkpt lat="38.5101820" lon="-2.5731180">
        <ele>1088.3</ele>
        <time>2019-11-03T08:43:55Z</time>
      </trkpt>
      <trkpt lat="38.5101130" lon="-2.5731500">
        <ele>1088.3</ele>
        <time>2019-11-03T08:43:58Z</time>
      </trkpt>
      <trkpt lat="38.5100440" lon="-2.5731720">
        <ele>1088.3</ele>
        <time>2019-11-03T08:44:01Z</time>
      </trkpt>
      <trkpt lat="38.5099750" lon="-2.5731770">
        <ele>1088.3</ele>
        <time>2019-11-03T08:44:04Z</time>
      </trkpt>
      <trkpt lat="38.5099060" lon="-2.5731660">
        <ele>1090.6</ele>
        <time>2019-11-03T08:44:07Z</time>
      </trkpt>
      <trkpt lat="38.5098390" lon="-2.5731350">
        <ele>1090.6</ele>
        <time>2019-11-03T08:44:10Z</time>
      </trkpt>
      <trkpt lat="38.5097780" lon="-2.5730850">
        <ele>1090.6</ele>
        <time>2019-11-03T08:44:13Z</time>
      </trkpt>
      <trkpt lat="38.5097190" lon="-2.5730250">
        <ele>1090.6</ele>
        <time>2019-11-03T08:44:16Z</time>
      </trkpt>
      <trkpt lat="38.5096860" lon="-2.5729770">
        <ele>1090.6</ele>
        <time>2019-11-03T08:44:18Z</time>
      </trkpt>
      <trkpt lat="38.5096470" lon="-2.5729260">
        <ele>1090.6</ele>
        <time>2019-11-03T08:44:20Z</time>
      </trkpt>
      <trkpt lat="38.5096140" lon="-2.5728780">
        <ele>1090.6</ele>
        <time>2019-11-03T08:44:22Z</time>
      </trkpt>
      <trkpt lat="38.5095760" lon="-2.5728290">
        <ele>1092.6</ele>
        <time>2019-11-03T08:44:24Z</time>
      </trkpt>
      <trkpt lat="38.5095300" lon="-2.5727830">
        <ele>1092.6</ele>
        <time>2019-11-03T08:44:26Z</time>
      </trkpt>
      <trkpt lat="38.5094860" lon="-2.5727470">
        <ele>1092.6</ele>
        <time>2019-11-03T08:44:28Z</time>
      </trkpt>
      <trkpt lat="38.5094430" lon="-2.5727200">
        <ele>1092.6</ele>
        <time>2019-11-03T08:44:30Z</time>
      </trkpt>
      <trkpt lat="38.5093910" lon="-2.5726950">
        <ele>1092.6</ele>
        <time>2019-11-03T08:44:32Z</time>
      </trkpt>
      <trkpt lat="38.5093430" lon="-2.5726780">
        <ele>1092.6</ele>
        <time>2019-11-03T08:44:34Z</time>
      </trkpt>
      <trkpt lat="38.5092660" lon="-2.5726610">
        <ele>1092.6</ele>
        <time>2019-11-03T08:44:37Z</time>
      </trkpt>
      <trkpt lat="38.5092170" lon="-2.5726490">
        <ele>1094.6</ele>
        <time>2019-11-03T08:44:39Z</time>
      </trkpt>
      <trkpt lat="38.5091660" lon="-2.5726370">
        <ele>1094.6</ele>
        <time>2019-11-03T08:44:41Z</time>
      </trkpt>
      <trkpt lat="38.5090970" lon="-2.5726170">
        <ele>1094.6</ele>
        <time>2019-11-03T08:44:44Z</time>
      </trkpt>
      <trkpt lat="38.5090300" lon="-2.5725910">
        <ele>1094.6</ele>
        <time>2019-11-03T08:44:47Z</time>
      </trkpt>
      <trkpt lat="38.5089640" lon="-2.5725600">
        <ele>1094.6</ele>
        <time>2019-11-03T08:44:50Z</time>
      </trkpt>
      <trkpt lat="38.5089000" lon="-2.5725190">
        <ele>1094.6</ele>
        <time>2019-11-03T08:44:53Z</time>
      </trkpt>
      <trkpt lat="38.5088440" lon="-2.5724700">
        <ele>1096.7</ele>
        <time>2019-11-03T08:44:56Z</time>
      </trkpt>
      <trkpt lat="38.5087900" lon="-2.5724170">
        <ele>1096.7</ele>
        <time>2019-11-03T08:44:59Z</time>
      </trkpt>
      <trkpt lat="38.5087310" lon="-2.5723630">
        <ele>1096.7</ele>
        <time>2019-11-03T08:45:02Z</time>
      </trkpt>
      <trkpt lat="38.5086900" lon="-2.5723250">
        <ele>1096.7</ele>
        <time>2019-11-03T08:45:04Z</time>
      </trkpt>
      <trkpt lat="38.5086340" lon="-2.5722730">
        <ele>1096.7</ele>
        <time>2019-11-03T08:45:07Z</time>
      </trkpt>
      <trkpt lat="38.5085750" lon="-2.5722190">
        <ele>1096.7</ele>
        <time>2019-11-03T08:45:10Z</time>
      </trkpt>
      <trkpt lat="38.5085260" lon="-2.5721540">
        <ele>1098.7</ele>
        <time>2019-11-03T08:45:13Z</time>
      </trkpt>
      <trkpt lat="38.5084850" lon="-2.5720830">
        <ele>1098.7</ele>
        <time>2019-11-03T08:45:16Z</time>
      </trkpt>
      <trkpt lat="38.5084470" lon="-2.5720120">
        <ele>1098.7</ele>
        <time>2019-11-03T08:45:19Z</time>
      </trkpt>
      <trkpt lat="38.5084160" lon="-2.5719300">
        <ele>1098.7</ele>
        <time>2019-11-03T08:45:22Z</time>
      </trkpt>
      <trkpt lat="38.5084010" lon="-2.5718740">
        <ele>1098.7</ele>
        <time>2019-11-03T08:45:24Z</time>
      </trkpt>
      <trkpt lat="38.5083780" lon="-2.5717880">
        <ele>1100.8</ele>
        <time>2019-11-03T08:45:27Z</time>
      </trkpt>
      <trkpt lat="38.5083650" lon="-2.5717320">
        <ele>1100.8</ele>
        <time>2019-11-03T08:45:29Z</time>
      </trkpt>
      <trkpt lat="38.5083390" lon="-2.5716430">
        <ele>1100.8</ele>
        <time>2019-11-03T08:45:32Z</time>
      </trkpt>
      <trkpt lat="38.5083160" lon="-2.5715540">
        <ele>1100.8</ele>
        <time>2019-11-03T08:45:35Z</time>
      </trkpt>
      <trkpt lat="38.5082930" lon="-2.5714620">
        <ele>1100.8</ele>
        <time>2019-11-03T08:45:38Z</time>
      </trkpt>
      <trkpt lat="38.5082780" lon="-2.5714000">
        <ele>1100.8</ele>
        <time>2019-11-03T08:45:40Z</time>
      </trkpt>
      <trkpt lat="38.5082520" lon="-2.5713120">
        <ele>1103.1</ele>
        <time>2019-11-03T08:45:43Z</time>
      </trkpt>
      <trkpt lat="38.5082160" lon="-2.5712310">
        <ele>1103.1</ele>
        <time>2019-11-03T08:45:46Z</time>
      </trkpt>
      <trkpt lat="38.5081630" lon="-2.5711650">
        <ele>1103.1</ele>
        <time>2019-11-03T08:45:49Z</time>
      </trkpt>
      <trkpt lat="38.5080990" lon="-2.5711200">
        <ele>1103.1</ele>
        <time>2019-11-03T08:45:52Z</time>
      </trkpt>
      <trkpt lat="38.5080580" lon="-2.5710970">
        <ele>1103.1</ele>
        <time>2019-11-03T08:45:54Z</time>
      </trkpt>
      <trkpt lat="38.5079910" lon="-2.5710650">
        <ele>1103.1</ele>
        <time>2019-11-03T08:45:57Z</time>
      </trkpt>
      <trkpt lat="38.5079450" lon="-2.5710440">
        <ele>1105.2</ele>
        <time>2019-11-03T08:45:59Z</time>
      </trkpt>
      <trkpt lat="38.5078860" lon="-2.5710000">
        <ele>1105.2</ele>
        <time>2019-11-03T08:46:02Z</time>
      </trkpt>
      <trkpt lat="38.5078270" lon="-2.5709440">
        <ele>1105.2</ele>
        <time>2019-11-03T08:46:05Z</time>
      </trkpt>
      <trkpt lat="38.5077790" lon="-2.5708850">
        <ele>1105.2</ele>
        <time>2019-11-03T08:46:08Z</time>
      </trkpt>
      <trkpt lat="38.5077270" lon="-2.5708140">
        <ele>1105.2</ele>
        <time>2019-11-03T08:46:11Z</time>
      </trkpt>
      <trkpt lat="38.5076860" lon="-2.5707390">
        <ele>1107.3</ele>
        <time>2019-11-03T08:46:14Z</time>
      </trkpt>
      <trkpt lat="38.5076560" lon="-2.5706880">
        <ele>1107.3</ele>
        <time>2019-11-03T08:46:16Z</time>
      </trkpt>
      <trkpt lat="38.5076170" lon="-2.5706170">
        <ele>1107.3</ele>
        <time>2019-11-03T08:46:19Z</time>
      </trkpt>
      <trkpt lat="38.5075840" lon="-2.5705510">
        <ele>1107.3</ele>
        <time>2019-11-03T08:46:22Z</time>
      </trkpt>
      <trkpt lat="38.5075480" lon="-2.5704850">
        <ele>1107.3</ele>
        <time>2019-11-03T08:46:25Z</time>
      </trkpt>
      <trkpt lat="38.5075120" lon="-2.5704200">
        <ele>1107.3</ele>
        <time>2019-11-03T08:46:28Z</time>
      </trkpt>
      <trkpt lat="38.5074690" lon="-2.5703500">
        <ele>1109.6</ele>
        <time>2019-11-03T08:46:31Z</time>
      </trkpt>
      <trkpt lat="38.5074150" lon="-2.5702850">
        <ele>1109.6</ele>
        <time>2019-11-03T08:46:34Z</time>
      </trkpt>
      <trkpt lat="38.5073610" lon="-2.5702270">
        <ele>1109.6</ele>
        <time>2019-11-03T08:46:37Z</time>
      </trkpt>
      <trkpt lat="38.5073020" lon="-2.5701750">
        <ele>1109.6</ele>
        <time>2019-11-03T08:46:40Z</time>
      </trkpt>
      <trkpt lat="38.5072560" lon="-2.5701410">
        <ele>1109.6</ele>
        <time>2019-11-03T08:46:42Z</time>
      </trkpt>
      <trkpt lat="38.5071900" lon="-2.5700880">
        <ele>1109.6</ele>
        <time>2019-11-03T08:46:45Z</time>
      </trkpt>
      <trkpt lat="38.5071510" lon="-2.5700530">
        <ele>1111.9</ele>
        <time>2019-11-03T08:46:47Z</time>
      </trkpt>
      <trkpt lat="38.5070950" lon="-2.5700000">
        <ele>1111.9</ele>
        <time>2019-11-03T08:46:50Z</time>
      </trkpt>
      <trkpt lat="38.5070620" lon="-2.5699600">
        <ele>1111.9</ele>
        <time>2019-11-03T08:46:52Z</time>
      </trkpt>
      <trkpt lat="38.5070110" lon="-2.5699000">
        <ele>1111.9</ele>
        <time>2019-11-03T08:46:55Z</time>
      </trkpt>
      <trkpt lat="38.5069640" lon="-2.5698320">
        <ele>1111.9</ele>
        <time>2019-11-03T08:46:58Z</time>
      </trkpt>
      <trkpt lat="38.5069310" lon="-2.5697600">
        <ele>1111.9</ele>
        <time>2019-11-03T08:47:01Z</time>
      </trkpt>
      <trkpt lat="38.5069080" lon="-2.5697100">
        <ele>1114.1</ele>
        <time>2019-11-03T08:47:03Z</time>
      </trkpt>
      <trkpt lat="38.5068830" lon="-2.5696310">
        <ele>1114.1</ele>
        <time>2019-11-03T08:47:06Z</time>
      </trkpt>
      <trkpt lat="38.5068620" lon="-2.5695440">
        <ele>1114.1</ele>
        <time>2019-11-03T08:47:09Z</time>
      </trkpt>
      <trkpt lat="38.5068540" lon="-2.5694840">
        <ele>1114.1</ele>
        <time>2019-11-03T08:47:11Z</time>
      </trkpt>
      <trkpt lat="38.5068520" lon="-2.5693970">
        <ele>1114.1</ele>
        <time>2019-11-03T08:47:14Z</time>
      </trkpt>
      <trkpt lat="38.5068470" lon="-2.5693060">
        <ele>1114.1</ele>
        <time>2019-11-03T08:47:17Z</time>
      </trkpt>
      <trkpt lat="38.5068470" lon="-2.5692480">
        <ele>1116.3</ele>
        <time>2019-11-03T08:47:19Z</time>
      </trkpt>
      <trkpt lat="38.5068520" lon="-2.5691590">
        <ele>1116.3</ele>
        <time>2019-11-03T08:47:22Z</time>
      </trkpt>
      <trkpt lat="38.5068540" lon="-2.5690670">
        <ele>1116.3</ele>
        <time>2019-11-03T08:47:25Z</time>
      </trkpt>
      <trkpt lat="38.5068600" lon="-2.5689770">
        <ele>1116.3</ele>
        <time>2019-11-03T08:47:28Z</time>
      </trkpt>
      <trkpt lat="38.5068670" lon="-2.5688850">
        <ele>1116.3</ele>
        <time>2019-11-03T08:47:31Z</time>
      </trkpt>
      <trkpt lat="38.5068700" lon="-2.5687970">
        <ele>1116.3</ele>
        <time>2019-11-03T08:47:34Z</time>
      </trkpt>
      <trkpt lat="38.5068750" lon="-2.5687360">
        <ele>1118.3</ele>
        <time>2019-11-03T08:47:36Z</time>
      </trkpt>
      <trkpt lat="38.5068770" lon="-2.5686480">
        <ele>1118.3</ele>
        <time>2019-11-03T08:47:39Z</time>
      </trkpt>
      <trkpt lat="38.5068830" lon="-2.5685600">
        <ele>1118.3</ele>
        <time>2019-11-03T08:47:42Z</time>
      </trkpt>
      <trkpt lat="38.5068830" lon="-2.5684710">
        <ele>1118.3</ele>
        <time>2019-11-03T08:47:45Z</time>
      </trkpt>
      <trkpt lat="38.5068750" lon="-2.5683790">
        <ele>1118.3</ele>
        <time>2019-11-03T08:47:48Z</time>
      </trkpt>
      <trkpt lat="38.5068670" lon="-2.5682880">
        <ele>1120.4</ele>
        <time>2019-11-03T08:47:51Z</time>
      </trkpt>
      <trkpt lat="38.5068600" lon="-2.5682280">
        <ele>1120.4</ele>
        <time>2019-11-03T08:47:53Z</time>
      </trkpt>
      <trkpt lat="38.5068440" lon="-2.5681410">
        <ele>1120.4</ele>
        <time>2019-11-03T08:47:56Z</time>
      </trkpt>
      <trkpt lat="38.5068240" lon="-2.5680600">
        <ele>1120.4</ele>
        <time>2019-11-03T08:47:59Z</time>
      </trkpt>
      <trkpt lat="38.5067980" lon="-2.5679780">
        <ele>1120.4</ele>
        <time>2019-11-03T08:48:02Z</time>
      </trkpt>
      <trkpt lat="38.5067700" lon="-2.5678980">
        <ele>1120.4</ele>
        <time>2019-11-03T08:48:05Z</time>
      </trkpt>
      <trkpt lat="38.5067420" lon="-2.5678150">
        <ele>1122.4</ele>
        <time>2019-11-03T08:48:08Z</time>
      </trkpt>
      <trkpt lat="38.5067210" lon="-2.5677570">
        <ele>1122.4</ele>
        <time>2019-11-03T08:48:10Z</time>
      </trkpt>
      <trkpt lat="38.5067030" lon="-2.5677010">
        <ele>1122.4</ele>
        <time>2019-11-03T08:48:12Z</time>
      </trkpt>
      <trkpt lat="38.5066800" lon="-2.5676170">
        <ele>1122.4</ele>
        <time>2019-11-03T08:48:15Z</time>
      </trkpt>
      <trkpt lat="38.5066600" lon="-2.5675360">
        <ele>1122.4</ele>
        <time>2019-11-03T08:48:18Z</time>
      </trkpt>
      <trkpt lat="38.5066370" lon="-2.5674570">
        <ele>1122.4</ele>
        <time>2019-11-03T08:48:21Z</time>
      </trkpt>
      <trkpt lat="38.5066140" lon="-2.5673780">
        <ele>1124.5</ele>
        <time>2019-11-03T08:48:24Z</time>
      </trkpt>
      <trkpt lat="38.5066040" lon="-2.5673220">
        <ele>1124.5</ele>
        <time>2019-11-03T08:48:26Z</time>
      </trkpt>
      <trkpt lat="38.5065910" lon="-2.5672260">
        <ele>1124.5</ele>
        <time>2019-11-03T08:48:29Z</time>
      </trkpt>
      <trkpt lat="38.5065830" lon="-2.5671640">
        <ele>1124.5</ele>
        <time>2019-11-03T08:48:31Z</time>
      </trkpt>
      <trkpt lat="38.5065830" lon="-2.5670680">
        <ele>1124.5</ele>
        <time>2019-11-03T08:48:34Z</time>
      </trkpt>
      <trkpt lat="38.5065880" lon="-2.5670000">
        <ele>1124.5</ele>
        <time>2019-11-03T08:48:36Z</time>
      </trkpt>
      <trkpt lat="38.5065910" lon="-2.5669240">
        <ele>1124.5</ele>
        <time>2019-11-03T08:48:38Z</time>
      </trkpt>
      <trkpt lat="38.5066040" lon="-2.5668470">
        <ele>1124.5</ele>
        <time>2019-11-03T08:48:40Z</time>
      </trkpt>
      <trkpt lat="38.5066140" lon="-2.5667680">
        <ele>1126.5</ele>
        <time>2019-11-03T08:48:42Z</time>
      </trkpt>
      <trkpt lat="38.5066290" lon="-2.5666910">
        <ele>1126.5</ele>
        <time>2019-11-03T08:48:44Z</time>
      </trkpt>
      <trkpt lat="38.5066440" lon="-2.5666150">
        <ele>1126.5</ele>
        <time>2019-11-03T08:48:46Z</time>
      </trkpt>
      <trkpt lat="38.5066570" lon="-2.5665450">
        <ele>1126.5</ele>
        <time>2019-11-03T08:48:48Z</time>
      </trkpt>
      <trkpt lat="38.5066730" lon="-2.5664790">
        <ele>1126.5</ele>
        <time>2019-11-03T08:48:50Z</time>
      </trkpt>
      <trkpt lat="38.5066830" lon="-2.5664110">
        <ele>1126.5</ele>
        <time>2019-11-03T08:48:52Z</time>
      </trkpt>
      <trkpt lat="38.5066960" lon="-2.5663410">
        <ele>1126.5</ele>
        <time>2019-11-03T08:48:54Z</time>
      </trkpt>
      <trkpt lat="38.5067030" lon="-2.5662710">
        <ele>1126.5</ele>
        <time>2019-11-03T08:48:56Z</time>
      </trkpt>
      <trkpt lat="38.5067060" lon="-2.5662040">
        <ele>1128.5</ele>
        <time>2019-11-03T08:48:58Z</time>
      </trkpt>
      <trkpt lat="38.5067110" lon="-2.5661140">
        <ele>1128.5</ele>
        <time>2019-11-03T08:49:01Z</time>
      </trkpt>
      <trkpt lat="38.5067030" lon="-2.5660430">
        <ele>1128.5</ele>
        <time>2019-11-03T08:49:04Z</time>
      </trkpt>
      <trkpt lat="38.5066910" lon="-2.5659760">
        <ele>1128.5</ele>
        <time>2019-11-03T08:49:07Z</time>
      </trkpt>
      <trkpt lat="38.5066750" lon="-2.5658990">
        <ele>1128.5</ele>
        <time>2019-11-03T08:49:10Z</time>
      </trkpt>
      <trkpt lat="38.5066520" lon="-2.5658160">
        <ele>1128.5</ele>
        <time>2019-11-03T08:49:13Z</time>
      </trkpt>
      <trkpt lat="38.5066190" lon="-2.5657330">
        <ele>1130.5</ele>
        <time>2019-11-03T08:49:16Z</time>
      </trkpt>
      <trkpt lat="38.5065830" lon="-2.5656500">
        <ele>1130.5</ele>
        <time>2019-11-03T08:49:19Z</time>
      </trkpt>
      <trkpt lat="38.5065420" lon="-2.5655690">
        <ele>1130.5</ele>
        <time>2019-11-03T08:49:22Z</time>
      </trkpt>
      <trkpt lat="38.5065110" lon="-2.5655150">
        <ele>1130.5</ele>
        <time>2019-11-03T08:49:24Z</time>
      </trkpt>
      <trkpt lat="38.5064810" lon="-2.5654610">
        <ele>1130.5</ele>
        <time>2019-11-03T08:49:26Z</time>
      </trkpt>
      <trkpt lat="38.5064470" lon="-2.5654120">
        <ele>1130.5</ele>
        <time>2019-11-03T08:49:28Z</time>
      </trkpt>
      <trkpt lat="38.5063960" lon="-2.5653430">
        <ele>1132.6</ele>
        <time>2019-11-03T08:49:31Z</time>
      </trkpt>
      <trkpt lat="38.5063600" lon="-2.5653100">
        <ele>1132.6</ele>
        <time>2019-11-03T08:49:33Z</time>
      </trkpt>
      <trkpt lat="38.5063010" lon="-2.5652680">
        <ele>1132.6</ele>
        <time>2019-11-03T08:49:36Z</time>
      </trkpt>
      <trkpt lat="38.5062400" lon="-2.5652280">
        <ele>1132.6</ele>
        <time>2019-11-03T08:49:39Z</time>
      </trkpt>
      <trkpt lat="38.5061790" lon="-2.5652070">
        <ele>1132.6</ele>
        <time>2019-11-03T08:49:42Z</time>
      </trkpt>
      <trkpt lat="38.5061120" lon="-2.5651930">
        <ele>1134.6</ele>
        <time>2019-11-03T08:49:45Z</time>
      </trkpt>
      <trkpt lat="38.5060380" lon="-2.5651830">
        <ele>1134.6</ele>
        <time>2019-11-03T08:49:48Z</time>
      </trkpt>
      <trkpt lat="38.5059580" lon="-2.5651740">
        <ele>1134.6</ele>
        <time>2019-11-03T08:49:51Z</time>
      </trkpt>
      <trkpt lat="38.5059100" lon="-2.5651680">
        <ele>1134.6</ele>
        <time>2019-11-03T08:49:53Z</time>
      </trkpt>
      <trkpt lat="38.5058590" lon="-2.5651600">
        <ele>1134.6</ele>
        <time>2019-11-03T08:49:55Z</time>
      </trkpt>
      <trkpt lat="38.5057890" lon="-2.5651420">
        <ele>1136.8</ele>
        <time>2019-11-03T08:49:58Z</time>
      </trkpt>
      <trkpt lat="38.5057230" lon="-2.5651090">
        <ele>1136.8</ele>
        <time>2019-11-03T08:50:01Z</time>
      </trkpt>
      <trkpt lat="38.5056610" lon="-2.5650630">
        <ele>1136.8</ele>
        <time>2019-11-03T08:50:04Z</time>
      </trkpt>
      <trkpt lat="38.5056080" lon="-2.5650010">
        <ele>1136.8</ele>
        <time>2019-11-03T08:50:07Z</time>
      </trkpt>
      <trkpt lat="38.5055620" lon="-2.5649260">
        <ele>1136.8</ele>
        <time>2019-11-03T08:50:10Z</time>
      </trkpt>
      <trkpt lat="38.5055310" lon="-2.5648410">
        <ele>1136.8</ele>
        <time>2019-11-03T08:50:13Z</time>
      </trkpt>
      <trkpt lat="38.5055160" lon="-2.5647800">
        <ele>1139.1</ele>
        <time>2019-11-03T08:50:15Z</time>
      </trkpt>
      <trkpt lat="38.5055000" lon="-2.5647150">
        <ele>1139.1</ele>
        <time>2019-11-03T08:50:17Z</time>
      </trkpt>
      <trkpt lat="38.5054920" lon="-2.5646470">
        <ele>1139.1</ele>
        <time>2019-11-03T08:50:19Z</time>
      </trkpt>
      <trkpt lat="38.5054850" lon="-2.5645780">
        <ele>1139.1</ele>
        <time>2019-11-03T08:50:21Z</time>
      </trkpt>
      <trkpt lat="38.5054770" lon="-2.5645110">
        <ele>1139.1</ele>
        <time>2019-11-03T08:50:23Z</time>
      </trkpt>
      <trkpt lat="38.5054770" lon="-2.5644140">
        <ele>1139.1</ele>
        <time>2019-11-03T08:50:26Z</time>
      </trkpt>
      <trkpt lat="38.5054770" lon="-2.5643520">
        <ele>1139.1</ele>
        <time>2019-11-03T08:50:28Z</time>
      </trkpt>
      <trkpt lat="38.5054820" lon="-2.5642850">
        <ele>1141.5</ele>
        <time>2019-11-03T08:50:30Z</time>
      </trkpt>
      <trkpt lat="38.5054850" lon="-2.5642210">
        <ele>1141.5</ele>
        <time>2019-11-03T08:50:32Z</time>
      </trkpt>
      <trkpt lat="38.5054900" lon="-2.5641570">
        <ele>1141.5</ele>
        <time>2019-11-03T08:50:34Z</time>
      </trkpt>
      <trkpt lat="38.5055050" lon="-2.5640640">
        <ele>1141.5</ele>
        <time>2019-11-03T08:50:37Z</time>
      </trkpt>
      <trkpt lat="38.5055210" lon="-2.5640020">
        <ele>1141.9</ele>
        <time>2019-11-03T08:50:39Z</time>
      </trkpt>
      <trkpt lat="38.5055440" lon="-2.5639110">
        <ele>1141.9</ele>
        <time>2019-11-03T08:50:42Z</time>
      </trkpt>
      <trkpt lat="38.5055620" lon="-2.5638520">
        <ele>1141.9</ele>
        <time>2019-11-03T08:50:44Z</time>
      </trkpt>
      <trkpt lat="38.5055920" lon="-2.5637580">
        <ele>1144.3</ele>
        <time>2019-11-03T08:50:47Z</time>
      </trkpt>
      <trkpt lat="38.5056150" lon="-2.5636980">
        <ele>1144.3</ele>
        <time>2019-11-03T08:50:49Z</time>
      </trkpt>
      <trkpt lat="38.5056380" lon="-2.5636400">
        <ele>1144.3</ele>
        <time>2019-11-03T08:50:51Z</time>
      </trkpt>
      <trkpt lat="38.5056770" lon="-2.5635540">
        <ele>1144.3</ele>
        <time>2019-11-03T08:50:54Z</time>
      </trkpt>
      <trkpt lat="38.5057000" lon="-2.5634900">
        <ele>1144.3</ele>
        <time>2019-11-03T08:50:56Z</time>
      </trkpt>
      <trkpt lat="38.5057180" lon="-2.5634290">
        <ele>1144.3</ele>
        <time>2019-11-03T08:50:58Z</time>
      </trkpt>
      <trkpt lat="38.5057380" lon="-2.5633680">
        <ele>1144.3</ele>
        <time>2019-11-03T08:51:00Z</time>
      </trkpt>
      <trkpt lat="38.5057610" lon="-2.5633100">
        <ele>1146.7</ele>
        <time>2019-11-03T08:51:02Z</time>
      </trkpt>
      <trkpt lat="38.5057790" lon="-2.5632570">
        <ele>1146.7</ele>
        <time>2019-11-03T08:51:04Z</time>
      </trkpt>
      <trkpt lat="38.5058100" lon="-2.5631770">
        <ele>1146.7</ele>
        <time>2019-11-03T08:51:07Z</time>
      </trkpt>
      <trkpt lat="38.5058360" lon="-2.5630900">
        <ele>1146.7</ele>
        <time>2019-11-03T08:51:10Z</time>
      </trkpt>
      <trkpt lat="38.5058510" lon="-2.5630020">
        <ele>1146.7</ele>
        <time>2019-11-03T08:51:13Z</time>
      </trkpt>
      <trkpt lat="38.5058510" lon="-2.5629090">
        <ele>1146.7</ele>
        <time>2019-11-03T08:51:16Z</time>
      </trkpt>
      <trkpt lat="38.5058360" lon="-2.5628160">
        <ele>1149.1</ele>
        <time>2019-11-03T08:51:19Z</time>
      </trkpt>
      <trkpt lat="38.5057970" lon="-2.5627370">
        <ele>1149.1</ele>
        <time>2019-11-03T08:51:22Z</time>
      </trkpt>
      <trkpt lat="38.5057480" lon="-2.5626920">
        <ele>1149.1</ele>
        <time>2019-11-03T08:51:25Z</time>
      </trkpt>
      <trkpt lat="38.5056790" lon="-2.5626760">
        <ele>1149.1</ele>
        <time>2019-11-03T08:51:28Z</time>
      </trkpt>
      <trkpt lat="38.5056100" lon="-2.5626810">
        <ele>1149.1</ele>
        <time>2019-11-03T08:51:31Z</time>
      </trkpt>
      <trkpt lat="38.5055670" lon="-2.5626900">
        <ele>1149.1</ele>
        <time>2019-11-03T08:51:33Z</time>
      </trkpt>
      <trkpt lat="38.5055210" lon="-2.5627070">
        <ele>1151.8</ele>
        <time>2019-11-03T08:51:35Z</time>
      </trkpt>
      <trkpt lat="38.5054540" lon="-2.5627340">
        <ele>1151.8</ele>
        <time>2019-11-03T08:51:38Z</time>
      </trkpt>
      <trkpt lat="38.5054080" lon="-2.5627580">
        <ele>1151.8</ele>
        <time>2019-11-03T08:51:40Z</time>
      </trkpt>
      <trkpt lat="38.5053410" lon="-2.5628010">
        <ele>1151.8</ele>
        <time>2019-11-03T08:51:43Z</time>
      </trkpt>
      <trkpt lat="38.5052950" lon="-2.5628300">
        <ele>1151.8</ele>
        <time>2019-11-03T08:51:45Z</time>
      </trkpt>
      <trkpt lat="38.5052110" lon="-2.5628910">
        <ele>1151.8</ele>
        <time>2019-11-03T08:51:49Z</time>
      </trkpt>
      <trkpt lat="38.5051700" lon="-2.5629260">
        <ele>1154.8</ele>
        <time>2019-11-03T08:51:51Z</time>
      </trkpt>
      <trkpt lat="38.5051110" lon="-2.5629760">
        <ele>1154.8</ele>
        <time>2019-11-03T08:51:54Z</time>
      </trkpt>
      <trkpt lat="38.5050500" lon="-2.5630220">
        <ele>1154.8</ele>
        <time>2019-11-03T08:51:57Z</time>
      </trkpt>
      <trkpt lat="38.5049860" lon="-2.5630690">
        <ele>1154.8</ele>
        <time>2019-11-03T08:52:00Z</time>
      </trkpt>
      <trkpt lat="38.5049290" lon="-2.5631130">
        <ele>1154.8</ele>
        <time>2019-11-03T08:52:03Z</time>
      </trkpt>
      <trkpt lat="38.5048630" lon="-2.5631570">
        <ele>1157.1</ele>
        <time>2019-11-03T08:52:06Z</time>
      </trkpt>
      <trkpt lat="38.5048190" lon="-2.5631850">
        <ele>1157.1</ele>
        <time>2019-11-03T08:52:08Z</time>
      </trkpt>
      <trkpt lat="38.5047680" lon="-2.5632120">
        <ele>1157.1</ele>
        <time>2019-11-03T08:52:10Z</time>
      </trkpt>
      <trkpt lat="38.5047140" lon="-2.5632390">
        <ele>1157.1</ele>
        <time>2019-11-03T08:52:12Z</time>
      </trkpt>
      <trkpt lat="38.5046580" lon="-2.5632660">
        <ele>1157.1</ele>
        <time>2019-11-03T08:52:14Z</time>
      </trkpt>
      <trkpt lat="38.5046170" lon="-2.5633050">
        <ele>1157.1</ele>
        <time>2019-11-03T08:52:16Z</time>
      </trkpt>
      <trkpt lat="38.5045730" lon="-2.5633810">
        <ele>1157.1</ele>
        <time>2019-11-03T08:52:19Z</time>
      </trkpt>
      <trkpt lat="38.5045500" lon="-2.5634440">
        <ele>1157.1</ele>
        <time>2019-11-03T08:52:21Z</time>
      </trkpt>
      <trkpt lat="38.5045400" lon="-2.5635080">
        <ele>1159.3</ele>
        <time>2019-11-03T08:52:23Z</time>
      </trkpt>
      <trkpt lat="38.5045250" lon="-2.5635710">
        <ele>1159.3</ele>
        <time>2019-11-03T08:52:25Z</time>
      </trkpt>
      <trkpt lat="38.5044970" lon="-2.5636600">
        <ele>1159.3</ele>
        <time>2019-11-03T08:52:28Z</time>
      </trkpt>
      <trkpt lat="38.5044740" lon="-2.5637420">
        <ele>1159.3</ele>
        <time>2019-11-03T08:52:31Z</time>
      </trkpt>
      <trkpt lat="38.5044430" lon="-2.5638280">
        <ele>1159.3</ele>
        <time>2019-11-03T08:52:34Z</time>
      </trkpt>
      <trkpt lat="38.5044220" lon="-2.5639130">
        <ele>1159.3</ele>
        <time>2019-11-03T08:52:37Z</time>
      </trkpt>
      <trkpt lat="38.5044020" lon="-2.5639720">
        <ele>1161.8</ele>
        <time>2019-11-03T08:52:39Z</time>
      </trkpt>
      <trkpt lat="38.5043760" lon="-2.5640510">
        <ele>1161.8</ele>
        <time>2019-11-03T08:52:42Z</time>
      </trkpt>
      <trkpt lat="38.5043460" lon="-2.5641270">
        <ele>1161.8</ele>
        <time>2019-11-03T08:52:45Z</time>
      </trkpt>
      <trkpt lat="38.5043070" lon="-2.5642020">
        <ele>1161.8</ele>
        <time>2019-11-03T08:52:48Z</time>
      </trkpt>
      <trkpt lat="38.5042610" lon="-2.5642700">
        <ele>1161.8</ele>
        <time>2019-11-03T08:52:51Z</time>
      </trkpt>
      <trkpt lat="38.5042120" lon="-2.5643370">
        <ele>1164.1</ele>
        <time>2019-11-03T08:52:54Z</time>
      </trkpt>
      <trkpt lat="38.5041820" lon="-2.5643820">
        <ele>1164.1</ele>
        <time>2019-11-03T08:52:56Z</time>
      </trkpt>
      <trkpt lat="38.5041280" lon="-2.5644570">
        <ele>1164.1</ele>
        <time>2019-11-03T08:52:59Z</time>
      </trkpt>
      <trkpt lat="38.5040920" lon="-2.5645090">
        <ele>1164.1</ele>
        <time>2019-11-03T08:53:01Z</time>
      </trkpt>
      <trkpt lat="38.5040510" lon="-2.5645560">
        <ele>1164.1</ele>
        <time>2019-11-03T08:53:03Z</time>
      </trkpt>
      <trkpt lat="38.5040100" lon="-2.5646030">
        <ele>1164.1</ele>
        <time>2019-11-03T08:53:05Z</time>
      </trkpt>
      <trkpt lat="38.5039490" lon="-2.5646570">
        <ele>1164.1</ele>
        <time>2019-11-03T08:53:08Z</time>
      </trkpt>
      <trkpt lat="38.5038980" lon="-2.5646800">
        <ele>1166.3</ele>
        <time>2019-11-03T08:53:10Z</time>
      </trkpt>
      <trkpt lat="38.5038490" lon="-2.5646910">
        <ele>1166.3</ele>
        <time>2019-11-03T08:53:12Z</time>
      </trkpt>
      <trkpt lat="38.5037950" lon="-2.5646920">
        <ele>1166.3</ele>
        <time>2019-11-03T08:53:14Z</time>
      </trkpt>
      <trkpt lat="38.5037470" lon="-2.5646830">
        <ele>1166.3</ele>
        <time>2019-11-03T08:53:16Z</time>
      </trkpt>
      <trkpt lat="38.5036770" lon="-2.5646520">
        <ele>1166.3</ele>
        <time>2019-11-03T08:53:19Z</time>
      </trkpt>
      <trkpt lat="38.5036160" lon="-2.5645950">
        <ele>1166.3</ele>
        <time>2019-11-03T08:53:22Z</time>
      </trkpt>
      <trkpt lat="38.5035750" lon="-2.5645210">
        <ele>1166.3</ele>
        <time>2019-11-03T08:53:25Z</time>
      </trkpt>
      <trkpt lat="38.5035550" lon="-2.5644620">
        <ele>1168.3</ele>
        <time>2019-11-03T08:53:27Z</time>
      </trkpt>
      <trkpt lat="38.5035440" lon="-2.5644010">
        <ele>1168.3</ele>
        <time>2019-11-03T08:53:29Z</time>
      </trkpt>
      <trkpt lat="38.5035290" lon="-2.5643120">
        <ele>1168.3</ele>
        <time>2019-11-03T08:53:32Z</time>
      </trkpt>
      <trkpt lat="38.5035210" lon="-2.5642200">
        <ele>1168.3</ele>
        <time>2019-11-03T08:53:35Z</time>
      </trkpt>
      <trkpt lat="38.5035160" lon="-2.5641300">
        <ele>1168.3</ele>
        <time>2019-11-03T08:53:38Z</time>
      </trkpt>
      <trkpt lat="38.5035080" lon="-2.5640500">
        <ele>1168.3</ele>
        <time>2019-11-03T08:53:41Z</time>
      </trkpt>
      <trkpt lat="38.5035080" lon="-2.5639650">
        <ele>1168.3</ele>
        <time>2019-11-03T08:53:44Z</time>
      </trkpt>
      <trkpt lat="38.5035080" lon="-2.5639080">
        <ele>1170.4</ele>
        <time>2019-11-03T08:53:46Z</time>
      </trkpt>
      <trkpt lat="38.5035140" lon="-2.5638180">
        <ele>1170.4</ele>
        <time>2019-11-03T08:53:49Z</time>
      </trkpt>
      <trkpt lat="38.5035160" lon="-2.5637250">
        <ele>1170.4</ele>
        <time>2019-11-03T08:53:52Z</time>
      </trkpt>
      <trkpt lat="38.5035210" lon="-2.5636330">
        <ele>1170.4</ele>
        <time>2019-11-03T08:53:55Z</time>
      </trkpt>
      <trkpt lat="38.5035210" lon="-2.5635440">
        <ele>1172.4</ele>
        <time>2019-11-03T08:53:58Z</time>
      </trkpt>
      <trkpt lat="38.5035240" lon="-2.5634820">
        <ele>1172.4</ele>
        <time>2019-11-03T08:54:00Z</time>
      </trkpt>
      <trkpt lat="38.5035290" lon="-2.5633900">
        <ele>1172.4</ele>
        <time>2019-11-03T08:54:03Z</time>
      </trkpt>
      <trkpt lat="38.5035320" lon="-2.5632960">
        <ele>1172.4</ele>
        <time>2019-11-03T08:54:06Z</time>
      </trkpt>
      <trkpt lat="38.5035320" lon="-2.5632310">
        <ele>1172.4</ele>
        <time>2019-11-03T08:54:08Z</time>
      </trkpt>
      <trkpt lat="38.5035320" lon="-2.5631380">
        <ele>1172.4</ele>
        <time>2019-11-03T08:54:11Z</time>
      </trkpt>
      <trkpt lat="38.5035320" lon="-2.5630440">
        <ele>1174.6</ele>
        <time>2019-11-03T08:54:14Z</time>
      </trkpt>
      <trkpt lat="38.5035320" lon="-2.5629780">
        <ele>1174.6</ele>
        <time>2019-11-03T08:54:16Z</time>
      </trkpt>
      <trkpt lat="38.5035290" lon="-2.5629160">
        <ele>1174.6</ele>
        <time>2019-11-03T08:54:18Z</time>
      </trkpt>
      <trkpt lat="38.5035240" lon="-2.5628260">
        <ele>1174.6</ele>
        <time>2019-11-03T08:54:21Z</time>
      </trkpt>
      <trkpt lat="38.5035140" lon="-2.5627320">
        <ele>1174.6</ele>
        <time>2019-11-03T08:54:24Z</time>
      </trkpt>
      <trkpt lat="38.5035010" lon="-2.5626370">
        <ele>1174.6</ele>
        <time>2019-11-03T08:54:27Z</time>
      </trkpt>
      <trkpt lat="38.5034930" lon="-2.5625730">
        <ele>1174.6</ele>
        <time>2019-11-03T08:54:29Z</time>
      </trkpt>
      <trkpt lat="38.5034830" lon="-2.5625120">
        <ele>1176.9</ele>
        <time>2019-11-03T08:54:31Z</time>
      </trkpt>
      <trkpt lat="38.5034780" lon="-2.5624490">
        <ele>1176.9</ele>
        <time>2019-11-03T08:54:33Z</time>
      </trkpt>
      <trkpt lat="38.5034650" lon="-2.5623560">
        <ele>1176.9</ele>
        <time>2019-11-03T08:54:36Z</time>
      </trkpt>
      <trkpt lat="38.5034520" lon="-2.5622650">
        <ele>1172.6</ele>
        <time>2019-11-03T08:54:39Z</time>
      </trkpt>
      <trkpt lat="38.5034370" lon="-2.5621770">
        <ele>1172.6</ele>
        <time>2019-11-03T08:54:42Z</time>
      </trkpt>
      <trkpt lat="38.5034210" lon="-2.5621200">
        <ele>1172.6</ele>
        <time>2019-11-03T08:54:44Z</time>
      </trkpt>
      <trkpt lat="38.5033960" lon="-2.5620400">
        <ele>1174.8</ele>
        <time>2019-11-03T08:54:47Z</time>
      </trkpt>
      <trkpt lat="38.5033600" lon="-2.5619640">
        <ele>1174.8</ele>
        <time>2019-11-03T08:54:50Z</time>
      </trkpt>
      <trkpt lat="38.5033110" lon="-2.5619020">
        <ele>1174.8</ele>
        <time>2019-11-03T08:54:53Z</time>
      </trkpt>
      <trkpt lat="38.5032730" lon="-2.5618690">
        <ele>1174.8</ele>
        <time>2019-11-03T08:54:55Z</time>
      </trkpt>
      <trkpt lat="38.5032040" lon="-2.5618440">
        <ele>1174.8</ele>
        <time>2019-11-03T08:54:58Z</time>
      </trkpt>
      <trkpt lat="38.5031550" lon="-2.5618410">
        <ele>1174.8</ele>
        <time>2019-11-03T08:55:00Z</time>
      </trkpt>
      <trkpt lat="38.5030780" lon="-2.5618550">
        <ele>1176.9</ele>
        <time>2019-11-03T08:55:03Z</time>
      </trkpt>
      <trkpt lat="38.5030070" lon="-2.5618740">
        <ele>1176.9</ele>
        <time>2019-11-03T08:55:06Z</time>
      </trkpt>
      <trkpt lat="38.5029560" lon="-2.5618850">
        <ele>1176.9</ele>
        <time>2019-11-03T08:55:08Z</time>
      </trkpt>
      <trkpt lat="38.5028840" lon="-2.5619060">
        <ele>1176.9</ele>
        <time>2019-11-03T08:55:11Z</time>
      </trkpt>
      <trkpt lat="38.5028350" lon="-2.5619180">
        <ele>1176.9</ele>
        <time>2019-11-03T08:55:13Z</time>
      </trkpt>
      <trkpt lat="38.5027610" lon="-2.5619360">
        <ele>1176.9</ele>
        <time>2019-11-03T08:55:16Z</time>
      </trkpt>
      <trkpt lat="38.5026940" lon="-2.5619610">
        <ele>1179.1</ele>
        <time>2019-11-03T08:55:19Z</time>
      </trkpt>
      <trkpt lat="38.5026510" lon="-2.5619860">
        <ele>1179.1</ele>
        <time>2019-11-03T08:55:21Z</time>
      </trkpt>
      <trkpt lat="38.5025890" lon="-2.5620360">
        <ele>1179.1</ele>
        <time>2019-11-03T08:55:24Z</time>
      </trkpt>
      <trkpt lat="38.5025200" lon="-2.5620860">
        <ele>1179.1</ele>
        <time>2019-11-03T08:55:27Z</time>
      </trkpt>
      <trkpt lat="38.5024790" lon="-2.5621250">
        <ele>1179.1</ele>
        <time>2019-11-03T08:55:29Z</time>
      </trkpt>
      <trkpt lat="38.5024380" lon="-2.5621660">
        <ele>1179.1</ele>
        <time>2019-11-03T08:55:31Z</time>
      </trkpt>
      <trkpt lat="38.5024000" lon="-2.5622100">
        <ele>1179.1</ele>
        <time>2019-11-03T08:55:33Z</time>
      </trkpt>
      <trkpt lat="38.5023560" lon="-2.5622560">
        <ele>1181.2</ele>
        <time>2019-11-03T08:55:35Z</time>
      </trkpt>
      <trkpt lat="38.5023160" lon="-2.5623010">
        <ele>1181.2</ele>
        <time>2019-11-03T08:55:37Z</time>
      </trkpt>
      <trkpt lat="38.5022750" lon="-2.5623460">
        <ele>1181.2</ele>
        <time>2019-11-03T08:55:39Z</time>
      </trkpt>
      <trkpt lat="38.5022280" lon="-2.5623910">
        <ele>1181.2</ele>
        <time>2019-11-03T08:55:41Z</time>
      </trkpt>
      <trkpt lat="38.5021770" lon="-2.5624360">
        <ele>1181.2</ele>
        <time>2019-11-03T08:55:43Z</time>
      </trkpt>
      <trkpt lat="38.5021310" lon="-2.5624820">
        <ele>1181.2</ele>
        <time>2019-11-03T08:55:45Z</time>
      </trkpt>
      <trkpt lat="38.5020900" lon="-2.5625280">
        <ele>1181.2</ele>
        <time>2019-11-03T08:55:47Z</time>
      </trkpt>
      <trkpt lat="38.5020490" lon="-2.5625760">
        <ele>1181.2</ele>
        <time>2019-11-03T08:55:49Z</time>
      </trkpt>
      <trkpt lat="38.5020110" lon="-2.5626270">
        <ele>1183.4</ele>
        <time>2019-11-03T08:55:51Z</time>
      </trkpt>
      <trkpt lat="38.5019720" lon="-2.5626760">
        <ele>1183.4</ele>
        <time>2019-11-03T08:55:53Z</time>
      </trkpt>
      <trkpt lat="38.5019110" lon="-2.5627410">
        <ele>1183.4</ele>
        <time>2019-11-03T08:55:56Z</time>
      </trkpt>
      <trkpt lat="38.5018620" lon="-2.5627850">
        <ele>1183.4</ele>
        <time>2019-11-03T08:55:58Z</time>
      </trkpt>
      <trkpt lat="38.5018110" lon="-2.5628270">
        <ele>1183.4</ele>
        <time>2019-11-03T08:56:00Z</time>
      </trkpt>
      <trkpt lat="38.5017570" lon="-2.5628670">
        <ele>1183.4</ele>
        <time>2019-11-03T08:56:02Z</time>
      </trkpt>
      <trkpt lat="38.5017090" lon="-2.5629040">
        <ele>1183.4</ele>
        <time>2019-11-03T08:56:04Z</time>
      </trkpt>
      <trkpt lat="38.5016550" lon="-2.5629360">
        <ele>1185.5</ele>
        <time>2019-11-03T08:56:06Z</time>
      </trkpt>
      <trkpt lat="38.5016010" lon="-2.5629660">
        <ele>1185.5</ele>
        <time>2019-11-03T08:56:08Z</time>
      </trkpt>
      <trkpt lat="38.5015480" lon="-2.5629900">
        <ele>1185.5</ele>
        <time>2019-11-03T08:56:10Z</time>
      </trkpt>
      <trkpt lat="38.5014910" lon="-2.5629990">
        <ele>1185.5</ele>
        <time>2019-11-03T08:56:12Z</time>
      </trkpt>
      <trkpt lat="38.5014370" lon="-2.5629970">
        <ele>1185.5</ele>
        <time>2019-11-03T08:56:14Z</time>
      </trkpt>
      <trkpt lat="38.5013840" lon="-2.5629900">
        <ele>1185.5</ele>
        <time>2019-11-03T08:56:16Z</time>
      </trkpt>
      <trkpt lat="38.5013320" lon="-2.5629760">
        <ele>1185.5</ele>
        <time>2019-11-03T08:56:18Z</time>
      </trkpt>
      <trkpt lat="38.5012790" lon="-2.5629560">
        <ele>1185.5</ele>
        <time>2019-11-03T08:56:20Z</time>
      </trkpt>
      <trkpt lat="38.5012250" lon="-2.5629310">
        <ele>1185.5</ele>
        <time>2019-11-03T08:56:22Z</time>
      </trkpt>
      <trkpt lat="38.5011660" lon="-2.5629020">
        <ele>1187.5</ele>
        <time>2019-11-03T08:56:24Z</time>
      </trkpt>
      <trkpt lat="38.5011170" lon="-2.5628670">
        <ele>1187.5</ele>
        <time>2019-11-03T08:56:26Z</time>
      </trkpt>
      <trkpt lat="38.5010710" lon="-2.5628230">
        <ele>1187.5</ele>
        <time>2019-11-03T08:56:28Z</time>
      </trkpt>
      <trkpt lat="38.5010300" lon="-2.5627730">
        <ele>1187.5</ele>
        <time>2019-11-03T08:56:30Z</time>
      </trkpt>
      <trkpt lat="38.5009920" lon="-2.5627230">
        <ele>1187.5</ele>
        <time>2019-11-03T08:56:32Z</time>
      </trkpt>
      <trkpt lat="38.5009590" lon="-2.5626710">
        <ele>1187.5</ele>
        <time>2019-11-03T08:56:34Z</time>
      </trkpt>
      <trkpt lat="38.5009200" lon="-2.5626180">
        <ele>1187.5</ele>
        <time>2019-11-03T08:56:36Z</time>
      </trkpt>
      <trkpt lat="38.5008770" lon="-2.5625640">
        <ele>1187.6</ele>
        <time>2019-11-03T08:56:38Z</time>
      </trkpt>
      <trkpt lat="38.5008380" lon="-2.5625110">
        <ele>1187.6</ele>
        <time>2019-11-03T08:56:40Z</time>
      </trkpt>
      <trkpt lat="38.5008000" lon="-2.5624670">
        <ele>1189.6</ele>
        <time>2019-11-03T08:56:42Z</time>
      </trkpt>
      <trkpt lat="38.5007590" lon="-2.5624310">
        <ele>1189.6</ele>
        <time>2019-11-03T08:56:44Z</time>
      </trkpt>
      <trkpt lat="38.5007130" lon="-2.5624010">
        <ele>1189.6</ele>
        <time>2019-11-03T08:56:46Z</time>
      </trkpt>
      <trkpt lat="38.5006640" lon="-2.5623720">
        <ele>1189.6</ele>
        <time>2019-11-03T08:56:48Z</time>
      </trkpt>
      <trkpt lat="38.5005950" lon="-2.5623320">
        <ele>1189.6</ele>
        <time>2019-11-03T08:56:51Z</time>
      </trkpt>
      <trkpt lat="38.5005490" lon="-2.5623080">
        <ele>1189.6</ele>
        <time>2019-11-03T08:56:53Z</time>
      </trkpt>
      <trkpt lat="38.5005000" lon="-2.5622860">
        <ele>1189.6</ele>
        <time>2019-11-03T08:56:55Z</time>
      </trkpt>
      <trkpt lat="38.5004260" lon="-2.5622470">
        <ele>1189.6</ele>
        <time>2019-11-03T08:56:58Z</time>
      </trkpt>
      <trkpt lat="38.5003780" lon="-2.5622220">
        <ele>1189.6</ele>
        <time>2019-11-03T08:57:00Z</time>
      </trkpt>
      <trkpt lat="38.5003240" lon="-2.5622000">
        <ele>1189.6</ele>
        <time>2019-11-03T08:57:02Z</time>
      </trkpt>
      <trkpt lat="38.5002700" lon="-2.5621790">
        <ele>1189.6</ele>
        <time>2019-11-03T08:57:04Z</time>
      </trkpt>
      <trkpt lat="38.5002210" lon="-2.5621620">
        <ele>1191.6</ele>
        <time>2019-11-03T08:57:06Z</time>
      </trkpt>
      <trkpt lat="38.5001650" lon="-2.5621470">
        <ele>1191.6</ele>
        <time>2019-11-03T08:57:08Z</time>
      </trkpt>
      <trkpt lat="38.5001110" lon="-2.5621360">
        <ele>1191.6</ele>
        <time>2019-11-03T08:57:10Z</time>
      </trkpt>
      <trkpt lat="38.5000580" lon="-2.5621310">
        <ele>1191.6</ele>
        <time>2019-11-03T08:57:12Z</time>
      </trkpt>
      <trkpt lat="38.5000060" lon="-2.5621330">
        <ele>1191.6</ele>
        <time>2019-11-03T08:57:14Z</time>
      </trkpt>
      <trkpt lat="38.4999270" lon="-2.5621350">
        <ele>1191.6</ele>
        <time>2019-11-03T08:57:17Z</time>
      </trkpt>
      <trkpt lat="38.4998730" lon="-2.5621390">
        <ele>1191.6</ele>
        <time>2019-11-03T08:57:19Z</time>
      </trkpt>
      <trkpt lat="38.4998170" lon="-2.5621440">
        <ele>1191.6</ele>
        <time>2019-11-03T08:57:21Z</time>
      </trkpt>
      <trkpt lat="38.4997380" lon="-2.5621510">
        <ele>1191.6</ele>
        <time>2019-11-03T08:57:24Z</time>
      </trkpt>
      <trkpt lat="38.4996840" lon="-2.5621590">
        <ele>1194.2</ele>
        <time>2019-11-03T08:57:26Z</time>
      </trkpt>
      <trkpt lat="38.4996330" lon="-2.5621630">
        <ele>1194.2</ele>
        <time>2019-11-03T08:57:28Z</time>
      </trkpt>
      <trkpt lat="38.4995810" lon="-2.5621630">
        <ele>1194.2</ele>
        <time>2019-11-03T08:57:30Z</time>
      </trkpt>
      <trkpt lat="38.4995300" lon="-2.5621680">
        <ele>1194.2</ele>
        <time>2019-11-03T08:57:32Z</time>
      </trkpt>
      <trkpt lat="38.4994380" lon="-2.5621800">
        <ele>1194.2</ele>
        <time>2019-11-03T08:57:36Z</time>
      </trkpt>
      <trkpt lat="38.4993720" lon="-2.5621930">
        <ele>1194.2</ele>
        <time>2019-11-03T08:57:39Z</time>
      </trkpt>
      <trkpt lat="38.4992970" lon="-2.5621950">
        <ele>1194.2</ele>
        <time>2019-11-03T08:57:42Z</time>
      </trkpt>
      <trkpt lat="38.4992490" lon="-2.5621970">
        <ele>1196.2</ele>
        <time>2019-11-03T08:57:44Z</time>
      </trkpt>
      <trkpt lat="38.4991720" lon="-2.5621980">
        <ele>1196.2</ele>
        <time>2019-11-03T08:57:47Z</time>
      </trkpt>
      <trkpt lat="38.4991160" lon="-2.5621960">
        <ele>1196.2</ele>
        <time>2019-11-03T08:57:49Z</time>
      </trkpt>
      <trkpt lat="38.4990570" lon="-2.5621940">
        <ele>1196.2</ele>
        <time>2019-11-03T08:57:51Z</time>
      </trkpt>
      <trkpt lat="38.4990000" lon="-2.5621880">
        <ele>1196.2</ele>
        <time>2019-11-03T08:57:53Z</time>
      </trkpt>
      <trkpt lat="38.4989440" lon="-2.5621790">
        <ele>1196.2</ele>
        <time>2019-11-03T08:57:55Z</time>
      </trkpt>
      <trkpt lat="38.4988900" lon="-2.5621730">
        <ele>1196.2</ele>
        <time>2019-11-03T08:57:57Z</time>
      </trkpt>
      <trkpt lat="38.4988060" lon="-2.5621680">
        <ele>1196.2</ele>
        <time>2019-11-03T08:58:00Z</time>
      </trkpt>
      <trkpt lat="38.4987520" lon="-2.5621700">
        <ele>1198.2</ele>
        <time>2019-11-03T08:58:02Z</time>
      </trkpt>
      <trkpt lat="38.4987030" lon="-2.5621750">
        <ele>1198.2</ele>
        <time>2019-11-03T08:58:04Z</time>
      </trkpt>
      <trkpt lat="38.4986520" lon="-2.5621820">
        <ele>1198.2</ele>
        <time>2019-11-03T08:58:06Z</time>
      </trkpt>
      <trkpt lat="38.4985780" lon="-2.5621920">
        <ele>1198.2</ele>
        <time>2019-11-03T08:58:09Z</time>
      </trkpt>
      <trkpt lat="38.4985270" lon="-2.5621980">
        <ele>1198.2</ele>
        <time>2019-11-03T08:58:11Z</time>
      </trkpt>
      <trkpt lat="38.4984470" lon="-2.5622050">
        <ele>1198.2</ele>
        <time>2019-11-03T08:58:14Z</time>
      </trkpt>
      <trkpt lat="38.4983940" lon="-2.5622010">
        <ele>1198.2</ele>
        <time>2019-11-03T08:58:16Z</time>
      </trkpt>
      <trkpt lat="38.4983370" lon="-2.5621900">
        <ele>1198.2</ele>
        <time>2019-11-03T08:58:18Z</time>
      </trkpt>
      <trkpt lat="38.4982780" lon="-2.5621730">
        <ele>1200.3</ele>
        <time>2019-11-03T08:58:20Z</time>
      </trkpt>
      <trkpt lat="38.4982220" lon="-2.5621500">
        <ele>1200.3</ele>
        <time>2019-11-03T08:58:22Z</time>
      </trkpt>
      <trkpt lat="38.4981680" lon="-2.5621180">
        <ele>1200.3</ele>
        <time>2019-11-03T08:58:24Z</time>
      </trkpt>
      <trkpt lat="38.4981200" lon="-2.5620800">
        <ele>1200.3</ele>
        <time>2019-11-03T08:58:26Z</time>
      </trkpt>
      <trkpt lat="38.4980660" lon="-2.5620380">
        <ele>1200.3</ele>
        <time>2019-11-03T08:58:28Z</time>
      </trkpt>
      <trkpt lat="38.4980170" lon="-2.5619850">
        <ele>1200.3</ele>
        <time>2019-11-03T08:58:30Z</time>
      </trkpt>
      <trkpt lat="38.4979710" lon="-2.5619340">
        <ele>1200.3</ele>
        <time>2019-11-03T08:58:32Z</time>
      </trkpt>
      <trkpt lat="38.4979280" lon="-2.5618840">
        <ele>1202.3</ele>
        <time>2019-11-03T08:58:34Z</time>
      </trkpt>
      <trkpt lat="38.4978820" lon="-2.5618360">
        <ele>1202.3</ele>
        <time>2019-11-03T08:58:36Z</time>
      </trkpt>
      <trkpt lat="38.4978410" lon="-2.5617920">
        <ele>1202.3</ele>
        <time>2019-11-03T08:58:38Z</time>
      </trkpt>
      <trkpt lat="38.4978000" lon="-2.5617460">
        <ele>1202.3</ele>
        <time>2019-11-03T08:58:40Z</time>
      </trkpt>
      <trkpt lat="38.4977560" lon="-2.5616950">
        <ele>1202.3</ele>
        <time>2019-11-03T08:58:42Z</time>
      </trkpt>
      <trkpt lat="38.4977150" lon="-2.5616440">
        <ele>1202.3</ele>
        <time>2019-11-03T08:58:44Z</time>
      </trkpt>
      <trkpt lat="38.4976740" lon="-2.5615910">
        <ele>1202.3</ele>
        <time>2019-11-03T08:58:46Z</time>
      </trkpt>
      <trkpt lat="38.4976310" lon="-2.5615400">
        <ele>1204.4</ele>
        <time>2019-11-03T08:58:48Z</time>
      </trkpt>
      <trkpt lat="38.4975900" lon="-2.5614850">
        <ele>1204.4</ele>
        <time>2019-11-03T08:58:50Z</time>
      </trkpt>
      <trkpt lat="38.4975460" lon="-2.5614300">
        <ele>1204.4</ele>
        <time>2019-11-03T08:58:52Z</time>
      </trkpt>
      <trkpt lat="38.4975000" lon="-2.5613770">
        <ele>1204.4</ele>
        <time>2019-11-03T08:58:54Z</time>
      </trkpt>
      <trkpt lat="38.4974590" lon="-2.5613240">
        <ele>1204.4</ele>
        <time>2019-11-03T08:58:56Z</time>
      </trkpt>
      <trkpt lat="38.4974260" lon="-2.5612670">
        <ele>1204.4</ele>
        <time>2019-11-03T08:58:58Z</time>
      </trkpt>
      <trkpt lat="38.4973950" lon="-2.5612050">
        <ele>1204.4</ele>
        <time>2019-11-03T08:59:00Z</time>
      </trkpt>
      <trkpt lat="38.4973670" lon="-2.5611390">
        <ele>1206.7</ele>
        <time>2019-11-03T08:59:02Z</time>
      </trkpt>
      <trkpt lat="38.4973410" lon="-2.5610730">
        <ele>1206.7</ele>
        <time>2019-11-03T08:59:04Z</time>
      </trkpt>
      <trkpt lat="38.4973210" lon="-2.5610050">
        <ele>1206.7</ele>
        <time>2019-11-03T08:59:06Z</time>
      </trkpt>
      <trkpt lat="38.4973030" lon="-2.5609440">
        <ele>1206.7</ele>
        <time>2019-11-03T08:59:08Z</time>
      </trkpt>
      <trkpt lat="38.4972800" lon="-2.5608520">
        <ele>1206.7</ele>
        <time>2019-11-03T08:59:11Z</time>
      </trkpt>
      <trkpt lat="38.4972700" lon="-2.5607920">
        <ele>1206.7</ele>
        <time>2019-11-03T08:59:13Z</time>
      </trkpt>
      <trkpt lat="38.4972650" lon="-2.5606970">
        <ele>1206.7</ele>
        <time>2019-11-03T08:59:16Z</time>
      </trkpt>
      <trkpt lat="38.4972720" lon="-2.5605960">
        <ele>1208.9</ele>
        <time>2019-11-03T08:59:19Z</time>
      </trkpt>
      <trkpt lat="38.4972800" lon="-2.5605280">
        <ele>1208.9</ele>
        <time>2019-11-03T08:59:21Z</time>
      </trkpt>
      <trkpt lat="38.4972850" lon="-2.5604570">
        <ele>1208.9</ele>
        <time>2019-11-03T08:59:23Z</time>
      </trkpt>
      <trkpt lat="38.4972850" lon="-2.5603880">
        <ele>1208.9</ele>
        <time>2019-11-03T08:59:25Z</time>
      </trkpt>
      <trkpt lat="38.4972800" lon="-2.5603200">
        <ele>1208.9</ele>
        <time>2019-11-03T08:59:27Z</time>
      </trkpt>
      <trkpt lat="38.4972700" lon="-2.5602560">
        <ele>1208.9</ele>
        <time>2019-11-03T08:59:29Z</time>
      </trkpt>
      <trkpt lat="38.4972570" lon="-2.5601890">
        <ele>1208.9</ele>
        <time>2019-11-03T08:59:31Z</time>
      </trkpt>
      <trkpt lat="38.4972420" lon="-2.5601210">
        <ele>1208.9</ele>
        <time>2019-11-03T08:59:33Z</time>
      </trkpt>
      <trkpt lat="38.4972110" lon="-2.5600300">
        <ele>1211.2</ele>
        <time>2019-11-03T08:59:36Z</time>
      </trkpt>
      <trkpt lat="38.4971720" lon="-2.5599500">
        <ele>1211.2</ele>
        <time>2019-11-03T08:59:39Z</time>
      </trkpt>
      <trkpt lat="38.4971420" lon="-2.5598660">
        <ele>1211.2</ele>
        <time>2019-11-03T08:59:42Z</time>
      </trkpt>
      <trkpt lat="38.4971110" lon="-2.5597760">
        <ele>1211.2</ele>
        <time>2019-11-03T08:59:45Z</time>
      </trkpt>
      <trkpt lat="38.4970980" lon="-2.5597110">
        <ele>1211.2</ele>
        <time>2019-11-03T08:59:47Z</time>
      </trkpt>
      <trkpt lat="38.4970780" lon="-2.5596390">
        <ele>1211.2</ele>
        <time>2019-11-03T08:59:49Z</time>
      </trkpt>
      <trkpt lat="38.4970620" lon="-2.5595720">
        <ele>1213.4</ele>
        <time>2019-11-03T08:59:51Z</time>
      </trkpt>
      <trkpt lat="38.4970440" lon="-2.5595020">
        <ele>1213.4</ele>
        <time>2019-11-03T08:59:53Z</time>
      </trkpt>
      <trkpt lat="38.4970290" lon="-2.5594320">
        <ele>1213.4</ele>
        <time>2019-11-03T08:59:55Z</time>
      </trkpt>
      <trkpt lat="38.4970140" lon="-2.5593620">
        <ele>1213.4</ele>
        <time>2019-11-03T08:59:57Z</time>
      </trkpt>
      <trkpt lat="38.4969930" lon="-2.5592900">
        <ele>1213.4</ele>
        <time>2019-11-03T08:59:59Z</time>
      </trkpt>
      <trkpt lat="38.4969780" lon="-2.5592200">
        <ele>1213.4</ele>
        <time>2019-11-03T09:00:01Z</time>
      </trkpt>
      <trkpt lat="38.4969680" lon="-2.5591540">
        <ele>1213.4</ele>
        <time>2019-11-03T09:00:03Z</time>
      </trkpt>
      <trkpt lat="38.4969520" lon="-2.5590840">
        <ele>1213.4</ele>
        <time>2019-11-03T09:00:05Z</time>
      </trkpt>
      <trkpt lat="38.4969370" lon="-2.5590150">
        <ele>1215.5</ele>
        <time>2019-11-03T09:00:07Z</time>
      </trkpt>
      <trkpt lat="38.4969220" lon="-2.5589510">
        <ele>1215.5</ele>
        <time>2019-11-03T09:00:09Z</time>
      </trkpt>
      <trkpt lat="38.4969060" lon="-2.5588840">
        <ele>1215.5</ele>
        <time>2019-11-03T09:00:11Z</time>
      </trkpt>
      <trkpt lat="38.4968910" lon="-2.5588150">
        <ele>1215.5</ele>
        <time>2019-11-03T09:00:13Z</time>
      </trkpt>
      <trkpt lat="38.4968760" lon="-2.5587470">
        <ele>1215.5</ele>
        <time>2019-11-03T09:00:15Z</time>
      </trkpt>
      <trkpt lat="38.4968650" lon="-2.5586780">
        <ele>1215.5</ele>
        <time>2019-11-03T09:00:17Z</time>
      </trkpt>
      <trkpt lat="38.4968520" lon="-2.5586070">
        <ele>1215.5</ele>
        <time>2019-11-03T09:00:19Z</time>
      </trkpt>
      <trkpt lat="38.4968420" lon="-2.5585340">
        <ele>1215.5</ele>
        <time>2019-11-03T09:00:21Z</time>
      </trkpt>
      <trkpt lat="38.4968350" lon="-2.5584650">
        <ele>1217.7</ele>
        <time>2019-11-03T09:00:23Z</time>
      </trkpt>
      <trkpt lat="38.4968350" lon="-2.5583940">
        <ele>1217.7</ele>
        <time>2019-11-03T09:00:25Z</time>
      </trkpt>
      <trkpt lat="38.4968350" lon="-2.5583210">
        <ele>1217.7</ele>
        <time>2019-11-03T09:00:27Z</time>
      </trkpt>
      <trkpt lat="38.4968370" lon="-2.5582520">
        <ele>1217.7</ele>
        <time>2019-11-03T09:00:29Z</time>
      </trkpt>
      <trkpt lat="38.4968420" lon="-2.5581770">
        <ele>1217.7</ele>
        <time>2019-11-03T09:00:31Z</time>
      </trkpt>
      <trkpt lat="38.4968500" lon="-2.5581030">
        <ele>1217.7</ele>
        <time>2019-11-03T09:00:33Z</time>
      </trkpt>
      <trkpt lat="38.4968600" lon="-2.5580340">
        <ele>1217.7</ele>
        <time>2019-11-03T09:00:35Z</time>
      </trkpt>
      <trkpt lat="38.4968730" lon="-2.5579630">
        <ele>1217.7</ele>
        <time>2019-11-03T09:00:37Z</time>
      </trkpt>
      <trkpt lat="38.4968830" lon="-2.5578940">
        <ele>1220.0</ele>
        <time>2019-11-03T09:00:39Z</time>
      </trkpt>
      <trkpt lat="38.4968960" lon="-2.5578240">
        <ele>1220.0</ele>
        <time>2019-11-03T09:00:41Z</time>
      </trkpt>
      <trkpt lat="38.4969040" lon="-2.5577490">
        <ele>1220.0</ele>
        <time>2019-11-03T09:00:43Z</time>
      </trkpt>
      <trkpt lat="38.4969040" lon="-2.5576750">
        <ele>1220.0</ele>
        <time>2019-11-03T09:00:45Z</time>
      </trkpt>
      <trkpt lat="38.4968960" lon="-2.5576040">
        <ele>1220.0</ele>
        <time>2019-11-03T09:00:47Z</time>
      </trkpt>
      <trkpt lat="38.4968830" lon="-2.5575360">
        <ele>1220.0</ele>
        <time>2019-11-03T09:00:49Z</time>
      </trkpt>
      <trkpt lat="38.4968730" lon="-2.5574690">
        <ele>1220.0</ele>
        <time>2019-11-03T09:00:51Z</time>
      </trkpt>
      <trkpt lat="38.4968580" lon="-2.5573970">
        <ele>1220.0</ele>
        <time>2019-11-03T09:00:53Z</time>
      </trkpt>
      <trkpt lat="38.4968370" lon="-2.5573310">
        <ele>1222.3</ele>
        <time>2019-11-03T09:00:55Z</time>
      </trkpt>
      <trkpt lat="38.4968140" lon="-2.5572620">
        <ele>1222.3</ele>
        <time>2019-11-03T09:00:57Z</time>
      </trkpt>
      <trkpt lat="38.4967960" lon="-2.5571950">
        <ele>1222.3</ele>
        <time>2019-11-03T09:00:59Z</time>
      </trkpt>
      <trkpt lat="38.4967730" lon="-2.5571300">
        <ele>1222.3</ele>
        <time>2019-11-03T09:01:01Z</time>
      </trkpt>
      <trkpt lat="38.4967500" lon="-2.5570610">
        <ele>1222.3</ele>
        <time>2019-11-03T09:01:03Z</time>
      </trkpt>
      <trkpt lat="38.4967270" lon="-2.5569950">
        <ele>1222.3</ele>
        <time>2019-11-03T09:01:05Z</time>
      </trkpt>
      <trkpt lat="38.4967010" lon="-2.5569270">
        <ele>1222.3</ele>
        <time>2019-11-03T09:01:07Z</time>
      </trkpt>
      <trkpt lat="38.4966780" lon="-2.5568620">
        <ele>1222.3</ele>
        <time>2019-11-03T09:01:09Z</time>
      </trkpt>
      <trkpt lat="38.4966500" lon="-2.5567960">
        <ele>1224.5</ele>
        <time>2019-11-03T09:01:11Z</time>
      </trkpt>
      <trkpt lat="38.4966270" lon="-2.5567290">
        <ele>1224.5</ele>
        <time>2019-11-03T09:01:13Z</time>
      </trkpt>
      <trkpt lat="38.4965960" lon="-2.5566630">
        <ele>1224.5</ele>
        <time>2019-11-03T09:01:15Z</time>
      </trkpt>
      <trkpt lat="38.4965710" lon="-2.5566010">
        <ele>1224.5</ele>
        <time>2019-11-03T09:01:17Z</time>
      </trkpt>
      <trkpt lat="38.4965350" lon="-2.5565330">
        <ele>1224.5</ele>
        <time>2019-11-03T09:01:19Z</time>
      </trkpt>
      <trkpt lat="38.4965070" lon="-2.5564670">
        <ele>1224.5</ele>
        <time>2019-11-03T09:01:21Z</time>
      </trkpt>
      <trkpt lat="38.4964760" lon="-2.5564040">
        <ele>1224.5</ele>
        <time>2019-11-03T09:01:23Z</time>
      </trkpt>
      <trkpt lat="38.4964400" lon="-2.5563430">
        <ele>1224.5</ele>
        <time>2019-11-03T09:01:25Z</time>
      </trkpt>
      <trkpt lat="38.4964100" lon="-2.5562820">
        <ele>1226.6</ele>
        <time>2019-11-03T09:01:27Z</time>
      </trkpt>
      <trkpt lat="38.4963760" lon="-2.5562190">
        <ele>1226.6</ele>
        <time>2019-11-03T09:01:29Z</time>
      </trkpt>
      <trkpt lat="38.4963400" lon="-2.5561570">
        <ele>1226.6</ele>
        <time>2019-11-03T09:01:31Z</time>
      </trkpt>
      <trkpt lat="38.4962920" lon="-2.5560670">
        <ele>1226.6</ele>
        <time>2019-11-03T09:01:34Z</time>
      </trkpt>
      <trkpt lat="38.4962590" lon="-2.5560070">
        <ele>1226.6</ele>
        <time>2019-11-03T09:01:36Z</time>
      </trkpt>
      <trkpt lat="38.4962200" lon="-2.5559430">
        <ele>1226.6</ele>
        <time>2019-11-03T09:01:38Z</time>
      </trkpt>
      <trkpt lat="38.4961840" lon="-2.5558770">
        <ele>1226.6</ele>
        <time>2019-11-03T09:01:40Z</time>
      </trkpt>
      <trkpt lat="38.4961590" lon="-2.5558080">
        <ele>1228.8</ele>
        <time>2019-11-03T09:01:42Z</time>
      </trkpt>
      <trkpt lat="38.4961330" lon="-2.5557320">
        <ele>1228.8</ele>
        <time>2019-11-03T09:01:44Z</time>
      </trkpt>
      <trkpt lat="38.4961130" lon="-2.5556560">
        <ele>1228.8</ele>
        <time>2019-11-03T09:01:46Z</time>
      </trkpt>
      <trkpt lat="38.4961020" lon="-2.5555780">
        <ele>1228.8</ele>
        <time>2019-11-03T09:01:48Z</time>
      </trkpt>
      <trkpt lat="38.4960970" lon="-2.5554980">
        <ele>1228.8</ele>
        <time>2019-11-03T09:01:50Z</time>
      </trkpt>
      <trkpt lat="38.4961020" lon="-2.5554070">
        <ele>1228.8</ele>
        <time>2019-11-03T09:01:52Z</time>
      </trkpt>
      <trkpt lat="38.4961100" lon="-2.5553150">
        <ele>1228.8</ele>
        <time>2019-11-03T09:01:54Z</time>
      </trkpt>
      <trkpt lat="38.4961180" lon="-2.5552280">
        <ele>1228.8</ele>
        <time>2019-11-03T09:01:56Z</time>
      </trkpt>
      <trkpt lat="38.4961280" lon="-2.5551360">
        <ele>1231.1</ele>
        <time>2019-11-03T09:01:58Z</time>
      </trkpt>
      <trkpt lat="38.4961410" lon="-2.5550520">
        <ele>1231.1</ele>
        <time>2019-11-03T09:02:00Z</time>
      </trkpt>
      <trkpt lat="38.4961460" lon="-2.5549730">
        <ele>1231.1</ele>
        <time>2019-11-03T09:02:02Z</time>
      </trkpt>
      <trkpt lat="38.4961540" lon="-2.5548910">
        <ele>1231.1</ele>
        <time>2019-11-03T09:02:04Z</time>
      </trkpt>
      <trkpt lat="38.4961590" lon="-2.5548070">
        <ele>1231.1</ele>
        <time>2019-11-03T09:02:06Z</time>
      </trkpt>
      <trkpt lat="38.4961540" lon="-2.5547210">
        <ele>1231.1</ele>
        <time>2019-11-03T09:02:08Z</time>
      </trkpt>
      <trkpt lat="38.4961460" lon="-2.5546400">
        <ele>1231.1</ele>
        <time>2019-11-03T09:02:10Z</time>
      </trkpt>
      <trkpt lat="38.4961250" lon="-2.5545590">
        <ele>1231.1</ele>
        <time>2019-11-03T09:02:12Z</time>
      </trkpt>
      <trkpt lat="38.4960950" lon="-2.5544830">
        <ele>1233.4</ele>
        <time>2019-11-03T09:02:14Z</time>
      </trkpt>
      <trkpt lat="38.4960590" lon="-2.5544160">
        <ele>1233.4</ele>
        <time>2019-11-03T09:02:16Z</time>
      </trkpt>
      <trkpt lat="38.4960180" lon="-2.5543490">
        <ele>1233.4</ele>
        <time>2019-11-03T09:02:18Z</time>
      </trkpt>
      <trkpt lat="38.4959720" lon="-2.5542930">
        <ele>1233.4</ele>
        <time>2019-11-03T09:02:20Z</time>
      </trkpt>
      <trkpt lat="38.4959180" lon="-2.5542460">
        <ele>1233.4</ele>
        <time>2019-11-03T09:02:22Z</time>
      </trkpt>
      <trkpt lat="38.4958620" lon="-2.5542140">
        <ele>1233.4</ele>
        <time>2019-11-03T09:02:24Z</time>
      </trkpt>
      <trkpt lat="38.4957950" lon="-2.5541970">
        <ele>1233.4</ele>
        <time>2019-11-03T09:02:26Z</time>
      </trkpt>
      <trkpt lat="38.4957310" lon="-2.5542000">
        <ele>1233.4</ele>
        <time>2019-11-03T09:02:28Z</time>
      </trkpt>
      <trkpt lat="38.4956620" lon="-2.5542180">
        <ele>1235.8</ele>
        <time>2019-11-03T09:02:30Z</time>
      </trkpt>
      <trkpt lat="38.4955980" lon="-2.5542430">
        <ele>1235.8</ele>
        <time>2019-11-03T09:02:32Z</time>
      </trkpt>
      <trkpt lat="38.4955420" lon="-2.5542760">
        <ele>1235.8</ele>
        <time>2019-11-03T09:02:34Z</time>
      </trkpt>
      <trkpt lat="38.4954800" lon="-2.5543130">
        <ele>1235.8</ele>
        <time>2019-11-03T09:02:36Z</time>
      </trkpt>
      <trkpt lat="38.4954270" lon="-2.5543630">
        <ele>1240.0</ele>
        <time>2019-11-03T09:02:38Z</time>
      </trkpt>
      <trkpt lat="38.4953980" lon="-2.5543910">
        <ele>1240.0</ele>
        <time>2019-11-03T09:02:39Z</time>
      </trkpt>
      <trkpt lat="38.4953400" lon="-2.5544440">
        <ele>1240.0</ele>
        <time>2019-11-03T09:02:41Z</time>
      </trkpt>
      <trkpt lat="38.4952730" lon="-2.5544960">
        <ele>1240.0</ele>
        <time>2019-11-03T09:02:43Z</time>
      </trkpt>
      <trkpt lat="38.4952010" lon="-2.5545510">
        <ele>1240.0</ele>
        <time>2019-11-03T09:02:45Z</time>
      </trkpt>
      <trkpt lat="38.4951370" lon="-2.5546060">
        <ele>1242.3</ele>
        <time>2019-11-03T09:02:47Z</time>
      </trkpt>
      <trkpt lat="38.4950680" lon="-2.5546650">
        <ele>1242.3</ele>
        <time>2019-11-03T09:02:49Z</time>
      </trkpt>
      <trkpt lat="38.4950140" lon="-2.5547180">
        <ele>1242.3</ele>
        <time>2019-11-03T09:02:51Z</time>
      </trkpt>
      <trkpt lat="38.4949660" lon="-2.5547710">
        <ele>1242.3</ele>
        <time>2019-11-03T09:02:53Z</time>
      </trkpt>
      <trkpt lat="38.4949150" lon="-2.5548190">
        <ele>1242.3</ele>
        <time>2019-11-03T09:02:55Z</time>
      </trkpt>
      <trkpt lat="38.4948760" lon="-2.5548660">
        <ele>1242.3</ele>
        <time>2019-11-03T09:02:57Z</time>
      </trkpt>
      <trkpt lat="38.4948380" lon="-2.5549050">
        <ele>1242.3</ele>
        <time>2019-11-03T09:02:59Z</time>
      </trkpt>
      <trkpt lat="38.4947870" lon="-2.5549520">
        <ele>1244.7</ele>
        <time>2019-11-03T09:03:02Z</time>
      </trkpt>
      <trkpt lat="38.4947430" lon="-2.5549980">
        <ele>1244.7</ele>
        <time>2019-11-03T09:03:05Z</time>
      </trkpt>
      <trkpt lat="38.4947170" lon="-2.5550420">
        <ele>1244.7</ele>
        <time>2019-11-03T09:03:09Z</time>
      </trkpt>
      <trkpt lat="38.4946050" lon="-2.5550300">
        <ele>1248.8</ele>
        <time>2019-11-03T09:06:44Z</time>
      </trkpt>
      <trkpt lat="38.4945950" lon="-2.5550420">
        <ele>1250.8</ele>
        <time>2019-11-03T09:06:46Z</time>
      </trkpt>
      <trkpt lat="38.4945480" lon="-2.5550970">
        <ele>1250.8</ele>
        <time>2019-11-03T09:06:50Z</time>
      </trkpt>
      <trkpt lat="38.4945020" lon="-2.5551400">
        <ele>1250.8</ele>
        <time>2019-11-03T09:06:53Z</time>
      </trkpt>
      <trkpt lat="38.4944410" lon="-2.5551850">
        <ele>1250.8</ele>
        <time>2019-11-03T09:06:56Z</time>
      </trkpt>
      <trkpt lat="38.4943820" lon="-2.5552340">
        <ele>1250.8</ele>
        <time>2019-11-03T09:06:59Z</time>
      </trkpt>
      <trkpt lat="38.4943390" lon="-2.5552700">
        <ele>1250.8</ele>
        <time>2019-11-03T09:07:01Z</time>
      </trkpt>
      <trkpt lat="38.4942750" lon="-2.5553270">
        <ele>1250.8</ele>
        <time>2019-11-03T09:07:04Z</time>
      </trkpt>
      <trkpt lat="38.4942310" lon="-2.5553730">
        <ele>1252.8</ele>
        <time>2019-11-03T09:07:06Z</time>
      </trkpt>
      <trkpt lat="38.4941900" lon="-2.5554320">
        <ele>1252.8</ele>
        <time>2019-11-03T09:07:08Z</time>
      </trkpt>
      <trkpt lat="38.4941440" lon="-2.5555080">
        <ele>1252.8</ele>
        <time>2019-11-03T09:07:10Z</time>
      </trkpt>
      <trkpt lat="38.4940900" lon="-2.5556020">
        <ele>1252.8</ele>
        <time>2019-11-03T09:07:12Z</time>
      </trkpt>
      <trkpt lat="38.4940340" lon="-2.5557150">
        <ele>1252.8</ele>
        <time>2019-11-03T09:07:14Z</time>
      </trkpt>
      <trkpt lat="38.4940010" lon="-2.5557720">
        <ele>1252.8</ele>
        <time>2019-11-03T09:07:15Z</time>
      </trkpt>
      <trkpt lat="38.4939650" lon="-2.5558330">
        <ele>1252.8</ele>
        <time>2019-11-03T09:07:16Z</time>
      </trkpt>
      <trkpt lat="38.4939030" lon="-2.5558990">
        <ele>1252.8</ele>
        <time>2019-11-03T09:07:17Z</time>
      </trkpt>
      <trkpt lat="38.4938470" lon="-2.5559650">
        <ele>1252.8</ele>
        <time>2019-11-03T09:07:18Z</time>
      </trkpt>
      <trkpt lat="38.4937910" lon="-2.5560300">
        <ele>1252.8</ele>
        <time>2019-11-03T09:07:19Z</time>
      </trkpt>
      <trkpt lat="38.4937320" lon="-2.5560920">
        <ele>1252.8</ele>
        <time>2019-11-03T09:07:20Z</time>
      </trkpt>
      <trkpt lat="38.4936630" lon="-2.5561540">
        <ele>1252.8</ele>
        <time>2019-11-03T09:07:21Z</time>
      </trkpt>
      <trkpt lat="38.4935910" lon="-2.5562180">
        <ele>1252.8</ele>
        <time>2019-11-03T09:07:22Z</time>
      </trkpt>
      <trkpt lat="38.4935070" lon="-2.5562790">
        <ele>1252.8</ele>
        <time>2019-11-03T09:07:23Z</time>
      </trkpt>
      <trkpt lat="38.4934250" lon="-2.5563350">
        <ele>1252.8</ele>
        <time>2019-11-03T09:07:24Z</time>
      </trkpt>
      <trkpt lat="38.4933430" lon="-2.5563850">
        <ele>1255.3</ele>
        <time>2019-11-03T09:07:25Z</time>
      </trkpt>
      <trkpt lat="38.4932580" lon="-2.5564390">
        <ele>1255.3</ele>
        <time>2019-11-03T09:07:26Z</time>
      </trkpt>
      <trkpt lat="38.4931790" lon="-2.5564940">
        <ele>1255.3</ele>
        <time>2019-11-03T09:07:27Z</time>
      </trkpt>
      <trkpt lat="38.4931070" lon="-2.5565580">
        <ele>1255.3</ele>
        <time>2019-11-03T09:07:28Z</time>
      </trkpt>
      <trkpt lat="38.4930460" lon="-2.5566330">
        <ele>1255.3</ele>
        <time>2019-11-03T09:07:29Z</time>
      </trkpt>
      <trkpt lat="38.4929970" lon="-2.5567150">
        <ele>1255.3</ele>
        <time>2019-11-03T09:07:30Z</time>
      </trkpt>
      <trkpt lat="38.4929430" lon="-2.5568030">
        <ele>1255.3</ele>
        <time>2019-11-03T09:07:31Z</time>
      </trkpt>
      <trkpt lat="38.4928970" lon="-2.5568850">
        <ele>1255.3</ele>
        <time>2019-11-03T09:07:32Z</time>
      </trkpt>
      <trkpt lat="38.4928410" lon="-2.5569700">
        <ele>1255.3</ele>
        <time>2019-11-03T09:07:33Z</time>
      </trkpt>
      <trkpt lat="38.4927820" lon="-2.5570450">
        <ele>1255.3</ele>
        <time>2019-11-03T09:07:34Z</time>
      </trkpt>
      <trkpt lat="38.4927180" lon="-2.5571120">
        <ele>1255.3</ele>
        <time>2019-11-03T09:07:35Z</time>
      </trkpt>
      <trkpt lat="38.4926490" lon="-2.5571700">
        <ele>1255.3</ele>
        <time>2019-11-03T09:07:36Z</time>
      </trkpt>
      <trkpt lat="38.4925770" lon="-2.5572160">
        <ele>1255.3</ele>
        <time>2019-11-03T09:07:37Z</time>
      </trkpt>
      <trkpt lat="38.4925000" lon="-2.5572490">
        <ele>1255.3</ele>
        <time>2019-11-03T09:07:38Z</time>
      </trkpt>
      <trkpt lat="38.4924210" lon="-2.5572660">
        <ele>1255.3</ele>
        <time>2019-11-03T09:07:39Z</time>
      </trkpt>
      <trkpt lat="38.4923390" lon="-2.5572680">
        <ele>1255.3</ele>
        <time>2019-11-03T09:07:40Z</time>
      </trkpt>
      <trkpt lat="38.4922600" lon="-2.5572600">
        <ele>1255.3</ele>
        <time>2019-11-03T09:07:41Z</time>
      </trkpt>
      <trkpt lat="38.4921800" lon="-2.5572400">
        <ele>1255.3</ele>
        <time>2019-11-03T09:07:42Z</time>
      </trkpt>
      <trkpt lat="38.4920990" lon="-2.5572130">
        <ele>1255.3</ele>
        <time>2019-11-03T09:07:43Z</time>
      </trkpt>
      <trkpt lat="38.4920190" lon="-2.5571820">
        <ele>1255.3</ele>
        <time>2019-11-03T09:07:44Z</time>
      </trkpt>
      <trkpt lat="38.4919400" lon="-2.5571580">
        <ele>1255.3</ele>
        <time>2019-11-03T09:07:45Z</time>
      </trkpt>
      <trkpt lat="38.4918600" lon="-2.5571480">
        <ele>1255.3</ele>
        <time>2019-11-03T09:07:46Z</time>
      </trkpt>
      <trkpt lat="38.4917860" lon="-2.5571550">
        <ele>1255.3</ele>
        <time>2019-11-03T09:07:47Z</time>
      </trkpt>
      <trkpt lat="38.4917090" lon="-2.5571720">
        <ele>1255.3</ele>
        <time>2019-11-03T09:07:48Z</time>
      </trkpt>
      <trkpt lat="38.4916350" lon="-2.5571900">
        <ele>1255.3</ele>
        <time>2019-11-03T09:07:49Z</time>
      </trkpt>
      <trkpt lat="38.4915580" lon="-2.5572040">
        <ele>1255.3</ele>
        <time>2019-11-03T09:07:50Z</time>
      </trkpt>
      <trkpt lat="38.4914740" lon="-2.5572140">
        <ele>1255.3</ele>
        <time>2019-11-03T09:07:51Z</time>
      </trkpt>
      <trkpt lat="38.4913890" lon="-2.5572150">
        <ele>1255.3</ele>
        <time>2019-11-03T09:07:52Z</time>
      </trkpt>
      <trkpt lat="38.4913020" lon="-2.5572030">
        <ele>1255.3</ele>
        <time>2019-11-03T09:07:53Z</time>
      </trkpt>
      <trkpt lat="38.4912150" lon="-2.5571810">
        <ele>1255.3</ele>
        <time>2019-11-03T09:07:54Z</time>
      </trkpt>
      <trkpt lat="38.4911230" lon="-2.5571540">
        <ele>1255.3</ele>
        <time>2019-11-03T09:07:55Z</time>
      </trkpt>
      <trkpt lat="38.4909520" lon="-2.5570910">
        <ele>1255.3</ele>
        <time>2019-11-03T09:07:57Z</time>
      </trkpt>
      <trkpt lat="38.4907670" lon="-2.5570150">
        <ele>1255.3</ele>
        <time>2019-11-03T09:07:59Z</time>
      </trkpt>
      <trkpt lat="38.4906800" lon="-2.5569780">
        <ele>1255.3</ele>
        <time>2019-11-03T09:08:00Z</time>
      </trkpt>
      <trkpt lat="38.4905960" lon="-2.5569370">
        <ele>1255.3</ele>
        <time>2019-11-03T09:08:01Z</time>
      </trkpt>
      <trkpt lat="38.4905160" lon="-2.5568930">
        <ele>1255.3</ele>
        <time>2019-11-03T09:08:02Z</time>
      </trkpt>
      <trkpt lat="38.4904470" lon="-2.5568460">
        <ele>1255.3</ele>
        <time>2019-11-03T09:08:03Z</time>
      </trkpt>
      <trkpt lat="38.4903860" lon="-2.5567910">
        <ele>1255.3</ele>
        <time>2019-11-03T09:08:04Z</time>
      </trkpt>
      <trkpt lat="38.4903270" lon="-2.5567280">
        <ele>1255.3</ele>
        <time>2019-11-03T09:08:05Z</time>
      </trkpt>
      <trkpt lat="38.4902810" lon="-2.5566620">
        <ele>1255.3</ele>
        <time>2019-11-03T09:08:06Z</time>
      </trkpt>
      <trkpt lat="38.4902370" lon="-2.5565880">
        <ele>1255.3</ele>
        <time>2019-11-03T09:08:07Z</time>
      </trkpt>
      <trkpt lat="38.4902070" lon="-2.5565000">
        <ele>1255.3</ele>
        <time>2019-11-03T09:08:08Z</time>
      </trkpt>
      <trkpt lat="38.4901890" lon="-2.5564120">
        <ele>1255.3</ele>
        <time>2019-11-03T09:08:09Z</time>
      </trkpt>
      <trkpt lat="38.4901840" lon="-2.5563230">
        <ele>1255.3</ele>
        <time>2019-11-03T09:08:10Z</time>
      </trkpt>
      <trkpt lat="38.4901910" lon="-2.5562360">
        <ele>1255.3</ele>
        <time>2019-11-03T09:08:11Z</time>
      </trkpt>
      <trkpt lat="38.4902200" lon="-2.5561520">
        <ele>1255.3</ele>
        <time>2019-11-03T09:08:12Z</time>
      </trkpt>
      <trkpt lat="38.4902450" lon="-2.5560750">
        <ele>1255.3</ele>
        <time>2019-11-03T09:08:13Z</time>
      </trkpt>
      <trkpt lat="38.4902890" lon="-2.5559920">
        <ele>1255.3</ele>
        <time>2019-11-03T09:08:14Z</time>
      </trkpt>
      <trkpt lat="38.4903350" lon="-2.5559100">
        <ele>1255.3</ele>
        <time>2019-11-03T09:08:15Z</time>
      </trkpt>
      <trkpt lat="38.4903830" lon="-2.5558260">
        <ele>1255.3</ele>
        <time>2019-11-03T09:08:16Z</time>
      </trkpt>
      <trkpt lat="38.4904320" lon="-2.5557380">
        <ele>1255.3</ele>
        <time>2019-11-03T09:08:17Z</time>
      </trkpt>
      <trkpt lat="38.4904760" lon="-2.5556540">
        <ele>1255.3</ele>
        <time>2019-11-03T09:08:18Z</time>
      </trkpt>
      <trkpt lat="38.4905140" lon="-2.5555610">
        <ele>1255.3</ele>
        <time>2019-11-03T09:08:19Z</time>
      </trkpt>
      <trkpt lat="38.4905320" lon="-2.5554680">
        <ele>1255.3</ele>
        <time>2019-11-03T09:08:20Z</time>
      </trkpt>
      <trkpt lat="38.4905370" lon="-2.5553850">
        <ele>1255.3</ele>
        <time>2019-11-03T09:08:21Z</time>
      </trkpt>
      <trkpt lat="38.4905140" lon="-2.5553050">
        <ele>1255.3</ele>
        <time>2019-11-03T09:08:22Z</time>
      </trkpt>
      <trkpt lat="38.4904760" lon="-2.5552390">
        <ele>1255.3</ele>
        <time>2019-11-03T09:08:23Z</time>
      </trkpt>
      <trkpt lat="38.4903940" lon="-2.5551780">
        <ele>1255.3</ele>
        <time>2019-11-03T09:08:24Z</time>
      </trkpt>
      <trkpt lat="38.4903140" lon="-2.5551600">
        <ele>1255.3</ele>
        <time>2019-11-03T09:08:25Z</time>
      </trkpt>
      <trkpt lat="38.4902450" lon="-2.5551630">
        <ele>1255.3</ele>
        <time>2019-11-03T09:08:26Z</time>
      </trkpt>
      <trkpt lat="38.4901890" lon="-2.5551820">
        <ele>1255.3</ele>
        <time>2019-11-03T09:08:27Z</time>
      </trkpt>
      <trkpt lat="38.4901320" lon="-2.5552090">
        <ele>1255.3</ele>
        <time>2019-11-03T09:08:28Z</time>
      </trkpt>
      <trkpt lat="38.4900790" lon="-2.5552400">
        <ele>1255.3</ele>
        <time>2019-11-03T09:08:29Z</time>
      </trkpt>
      <trkpt lat="38.4900200" lon="-2.5552760">
        <ele>1255.3</ele>
        <time>2019-11-03T09:08:30Z</time>
      </trkpt>
      <trkpt lat="38.4899610" lon="-2.5553100">
        <ele>1255.3</ele>
        <time>2019-11-03T09:08:31Z</time>
      </trkpt>
      <trkpt lat="38.4899000" lon="-2.5553460">
        <ele>1255.3</ele>
        <time>2019-11-03T09:08:32Z</time>
      </trkpt>
      <trkpt lat="38.4898330" lon="-2.5553830">
        <ele>1255.3</ele>
        <time>2019-11-03T09:08:33Z</time>
      </trkpt>
      <trkpt lat="38.4897690" lon="-2.5554190">
        <ele>1255.3</ele>
        <time>2019-11-03T09:08:34Z</time>
      </trkpt>
      <trkpt lat="38.4897000" lon="-2.5554480">
        <ele>1255.3</ele>
        <time>2019-11-03T09:08:35Z</time>
      </trkpt>
      <trkpt lat="38.4896310" lon="-2.5554680">
        <ele>1255.3</ele>
        <time>2019-11-03T09:08:36Z</time>
      </trkpt>
      <trkpt lat="38.4895670" lon="-2.5554800">
        <ele>1255.3</ele>
        <time>2019-11-03T09:08:37Z</time>
      </trkpt>
      <trkpt lat="38.4894950" lon="-2.5554760">
        <ele>1255.3</ele>
        <time>2019-11-03T09:08:38Z</time>
      </trkpt>
      <trkpt lat="38.4894360" lon="-2.5554570">
        <ele>1255.3</ele>
        <time>2019-11-03T09:08:39Z</time>
      </trkpt>
      <trkpt lat="38.4893850" lon="-2.5554220">
        <ele>1255.3</ele>
        <time>2019-11-03T09:08:40Z</time>
      </trkpt>
      <trkpt lat="38.4893340" lon="-2.5553650">
        <ele>1255.3</ele>
        <time>2019-11-03T09:08:41Z</time>
      </trkpt>
      <trkpt lat="38.4892950" lon="-2.5552960">
        <ele>1255.3</ele>
        <time>2019-11-03T09:08:42Z</time>
      </trkpt>
      <trkpt lat="38.4892620" lon="-2.5552220">
        <ele>1255.3</ele>
        <time>2019-11-03T09:08:43Z</time>
      </trkpt>
      <trkpt lat="38.4892240" lon="-2.5551540">
        <ele>1255.3</ele>
        <time>2019-11-03T09:08:44Z</time>
      </trkpt>
      <trkpt lat="38.4891850" lon="-2.5550910">
        <ele>1255.3</ele>
        <time>2019-11-03T09:08:45Z</time>
      </trkpt>
      <trkpt lat="38.4891370" lon="-2.5550390">
        <ele>1255.3</ele>
        <time>2019-11-03T09:08:46Z</time>
      </trkpt>
      <trkpt lat="38.4890780" lon="-2.5549970">
        <ele>1255.3</ele>
        <time>2019-11-03T09:08:47Z</time>
      </trkpt>
      <trkpt lat="38.4890160" lon="-2.5549660">
        <ele>1255.3</ele>
        <time>2019-11-03T09:08:48Z</time>
      </trkpt>
      <trkpt lat="38.4889500" lon="-2.5549430">
        <ele>1255.3</ele>
        <time>2019-11-03T09:08:49Z</time>
      </trkpt>
      <trkpt lat="38.4888760" lon="-2.5549270">
        <ele>1255.3</ele>
        <time>2019-11-03T09:08:50Z</time>
      </trkpt>
      <trkpt lat="38.4888040" lon="-2.5549160">
        <ele>1253.2</ele>
        <time>2019-11-03T09:08:51Z</time>
      </trkpt>
      <trkpt lat="38.4887240" lon="-2.5549070">
        <ele>1253.2</ele>
        <time>2019-11-03T09:08:52Z</time>
      </trkpt>
      <trkpt lat="38.4886400" lon="-2.5549000">
        <ele>1253.2</ele>
        <time>2019-11-03T09:08:53Z</time>
      </trkpt>
      <trkpt lat="38.4885610" lon="-2.5548950">
        <ele>1253.2</ele>
        <time>2019-11-03T09:08:54Z</time>
      </trkpt>
      <trkpt lat="38.4884680" lon="-2.5548900">
        <ele>1253.2</ele>
        <time>2019-11-03T09:08:55Z</time>
      </trkpt>
      <trkpt lat="38.4883840" lon="-2.5548840">
        <ele>1253.2</ele>
        <time>2019-11-03T09:08:56Z</time>
      </trkpt>
      <trkpt lat="38.4882970" lon="-2.5548740">
        <ele>1253.2</ele>
        <time>2019-11-03T09:08:57Z</time>
      </trkpt>
      <trkpt lat="38.4882120" lon="-2.5548620">
        <ele>1253.2</ele>
        <time>2019-11-03T09:08:58Z</time>
      </trkpt>
      <trkpt lat="38.4881330" lon="-2.5548390">
        <ele>1253.2</ele>
        <time>2019-11-03T09:08:59Z</time>
      </trkpt>
      <trkpt lat="38.4880590" lon="-2.5548050">
        <ele>1253.2</ele>
        <time>2019-11-03T09:09:00Z</time>
      </trkpt>
      <trkpt lat="38.4879950" lon="-2.5547570">
        <ele>1253.2</ele>
        <time>2019-11-03T09:09:01Z</time>
      </trkpt>
      <trkpt lat="38.4879330" lon="-2.5546990">
        <ele>1253.2</ele>
        <time>2019-11-03T09:09:02Z</time>
      </trkpt>
      <trkpt lat="38.4878800" lon="-2.5546320">
        <ele>1253.2</ele>
        <time>2019-11-03T09:09:03Z</time>
      </trkpt>
      <trkpt lat="38.4878280" lon="-2.5545660">
        <ele>1253.2</ele>
        <time>2019-11-03T09:09:04Z</time>
      </trkpt>
      <trkpt lat="38.4877670" lon="-2.5544800">
        <ele>1253.2</ele>
        <time>2019-11-03T09:09:05Z</time>
      </trkpt>
      <trkpt lat="38.4876980" lon="-2.5544000">
        <ele>1253.2</ele>
        <time>2019-11-03T09:09:06Z</time>
      </trkpt>
      <trkpt lat="38.4876210" lon="-2.5543350">
        <ele>1253.2</ele>
        <time>2019-11-03T09:09:07Z</time>
      </trkpt>
      <trkpt lat="38.4875370" lon="-2.5542770">
        <ele>1253.2</ele>
        <time>2019-11-03T09:09:08Z</time>
      </trkpt>
      <trkpt lat="38.4874550" lon="-2.5542180">
        <ele>1253.2</ele>
        <time>2019-11-03T09:09:09Z</time>
      </trkpt>
      <trkpt lat="38.4873700" lon="-2.5541580">
        <ele>1251.1</ele>
        <time>2019-11-03T09:09:10Z</time>
      </trkpt>
      <trkpt lat="38.4872880" lon="-2.5541030">
        <ele>1251.1</ele>
        <time>2019-11-03T09:09:11Z</time>
      </trkpt>
      <trkpt lat="38.4872010" lon="-2.5540410">
        <ele>1251.1</ele>
        <time>2019-11-03T09:09:12Z</time>
      </trkpt>
      <trkpt lat="38.4871240" lon="-2.5539740">
        <ele>1251.1</ele>
        <time>2019-11-03T09:09:13Z</time>
      </trkpt>
      <trkpt lat="38.4870580" lon="-2.5539000">
        <ele>1251.1</ele>
        <time>2019-11-03T09:09:14Z</time>
      </trkpt>
      <trkpt lat="38.4869960" lon="-2.5538210">
        <ele>1251.1</ele>
        <time>2019-11-03T09:09:15Z</time>
      </trkpt>
      <trkpt lat="38.4869430" lon="-2.5537380">
        <ele>1251.1</ele>
        <time>2019-11-03T09:09:16Z</time>
      </trkpt>
      <trkpt lat="38.4868990" lon="-2.5536480">
        <ele>1251.1</ele>
        <time>2019-11-03T09:09:17Z</time>
      </trkpt>
      <trkpt lat="38.4868660" lon="-2.5535540">
        <ele>1251.1</ele>
        <time>2019-11-03T09:09:18Z</time>
      </trkpt>
      <trkpt lat="38.4868400" lon="-2.5534640">
        <ele>1251.1</ele>
        <time>2019-11-03T09:09:19Z</time>
      </trkpt>
      <trkpt lat="38.4868200" lon="-2.5533630">
        <ele>1251.1</ele>
        <time>2019-11-03T09:09:20Z</time>
      </trkpt>
      <trkpt lat="38.4867970" lon="-2.5532630">
        <ele>1251.1</ele>
        <time>2019-11-03T09:09:21Z</time>
      </trkpt>
      <trkpt lat="38.4867660" lon="-2.5531710">
        <ele>1251.1</ele>
        <time>2019-11-03T09:09:22Z</time>
      </trkpt>
      <trkpt lat="38.4867250" lon="-2.5530940">
        <ele>1251.1</ele>
        <time>2019-11-03T09:09:23Z</time>
      </trkpt>
      <trkpt lat="38.4866710" lon="-2.5530350">
        <ele>1249.0</ele>
        <time>2019-11-03T09:09:24Z</time>
      </trkpt>
      <trkpt lat="38.4866100" lon="-2.5529920">
        <ele>1249.0</ele>
        <time>2019-11-03T09:09:25Z</time>
      </trkpt>
      <trkpt lat="38.4865460" lon="-2.5529640">
        <ele>1249.0</ele>
        <time>2019-11-03T09:09:26Z</time>
      </trkpt>
      <trkpt lat="38.4864770" lon="-2.5529440">
        <ele>1249.0</ele>
        <time>2019-11-03T09:09:27Z</time>
      </trkpt>
      <trkpt lat="38.4864000" lon="-2.5529330">
        <ele>1249.0</ele>
        <time>2019-11-03T09:09:28Z</time>
      </trkpt>
      <trkpt lat="38.4863230" lon="-2.5529290">
        <ele>1249.0</ele>
        <time>2019-11-03T09:09:29Z</time>
      </trkpt>
      <trkpt lat="38.4862520" lon="-2.5529270">
        <ele>1249.0</ele>
        <time>2019-11-03T09:09:30Z</time>
      </trkpt>
      <trkpt lat="38.4861750" lon="-2.5529160">
        <ele>1249.0</ele>
        <time>2019-11-03T09:09:31Z</time>
      </trkpt>
      <trkpt lat="38.4861060" lon="-2.5528950">
        <ele>1249.0</ele>
        <time>2019-11-03T09:09:32Z</time>
      </trkpt>
      <trkpt lat="38.4860420" lon="-2.5528530">
        <ele>1249.0</ele>
        <time>2019-11-03T09:09:33Z</time>
      </trkpt>
      <trkpt lat="38.4859930" lon="-2.5527960">
        <ele>1249.0</ele>
        <time>2019-11-03T09:09:34Z</time>
      </trkpt>
      <trkpt lat="38.4859550" lon="-2.5527250">
        <ele>1249.0</ele>
        <time>2019-11-03T09:09:35Z</time>
      </trkpt>
      <trkpt lat="38.4859160" lon="-2.5526400">
        <ele>1249.0</ele>
        <time>2019-11-03T09:09:36Z</time>
      </trkpt>
      <trkpt lat="38.4858930" lon="-2.5525480">
        <ele>1247.0</ele>
        <time>2019-11-03T09:09:37Z</time>
      </trkpt>
      <trkpt lat="38.4858780" lon="-2.5524600">
        <ele>1247.0</ele>
        <time>2019-11-03T09:09:38Z</time>
      </trkpt>
      <trkpt lat="38.4858550" lon="-2.5523820">
        <ele>1247.0</ele>
        <time>2019-11-03T09:09:39Z</time>
      </trkpt>
      <trkpt lat="38.4858240" lon="-2.5523140">
        <ele>1247.0</ele>
        <time>2019-11-03T09:09:40Z</time>
      </trkpt>
      <trkpt lat="38.4857780" lon="-2.5522520">
        <ele>1247.0</ele>
        <time>2019-11-03T09:09:41Z</time>
      </trkpt>
      <trkpt lat="38.4857240" lon="-2.5521980">
        <ele>1247.0</ele>
        <time>2019-11-03T09:09:42Z</time>
      </trkpt>
      <trkpt lat="38.4856600" lon="-2.5521540">
        <ele>1247.0</ele>
        <time>2019-11-03T09:09:43Z</time>
      </trkpt>
      <trkpt lat="38.4855880" lon="-2.5521230">
        <ele>1247.0</ele>
        <time>2019-11-03T09:09:44Z</time>
      </trkpt>
      <trkpt lat="38.4855170" lon="-2.5521030">
        <ele>1247.0</ele>
        <time>2019-11-03T09:09:45Z</time>
      </trkpt>
      <trkpt lat="38.4854430" lon="-2.5520860">
        <ele>1247.0</ele>
        <time>2019-11-03T09:09:46Z</time>
      </trkpt>
      <trkpt lat="38.4853660" lon="-2.5520630">
        <ele>1247.0</ele>
        <time>2019-11-03T09:09:47Z</time>
      </trkpt>
      <trkpt lat="38.4852940" lon="-2.5520290">
        <ele>1247.0</ele>
        <time>2019-11-03T09:09:48Z</time>
      </trkpt>
      <trkpt lat="38.4852170" lon="-2.5519860">
        <ele>1245.0</ele>
        <time>2019-11-03T09:09:49Z</time>
      </trkpt>
      <trkpt lat="38.4851460" lon="-2.5519370">
        <ele>1245.0</ele>
        <time>2019-11-03T09:09:50Z</time>
      </trkpt>
      <trkpt lat="38.4850740" lon="-2.5518840">
        <ele>1245.0</ele>
        <time>2019-11-03T09:09:51Z</time>
      </trkpt>
      <trkpt lat="38.4849360" lon="-2.5517850">
        <ele>1245.0</ele>
        <time>2019-11-03T09:09:53Z</time>
      </trkpt>
      <trkpt lat="38.4848640" lon="-2.5517450">
        <ele>1245.0</ele>
        <time>2019-11-03T09:09:54Z</time>
      </trkpt>
      <trkpt lat="38.4847900" lon="-2.5517210">
        <ele>1245.0</ele>
        <time>2019-11-03T09:09:55Z</time>
      </trkpt>
      <trkpt lat="38.4847180" lon="-2.5517180">
        <ele>1245.0</ele>
        <time>2019-11-03T09:09:56Z</time>
      </trkpt>
      <trkpt lat="38.4846540" lon="-2.5517410">
        <ele>1245.0</ele>
        <time>2019-11-03T09:09:57Z</time>
      </trkpt>
      <trkpt lat="38.4845950" lon="-2.5518380">
        <ele>1245.0</ele>
        <time>2019-11-03T09:09:58Z</time>
      </trkpt>
      <trkpt lat="38.4845470" lon="-2.5519270">
        <ele>1245.0</ele>
        <time>2019-11-03T09:09:59Z</time>
      </trkpt>
      <trkpt lat="38.4845000" lon="-2.5520290">
        <ele>1245.0</ele>
        <time>2019-11-03T09:10:00Z</time>
      </trkpt>
      <trkpt lat="38.4844600" lon="-2.5521230">
        <ele>1242.9</ele>
        <time>2019-11-03T09:10:01Z</time>
      </trkpt>
      <trkpt lat="38.4844210" lon="-2.5522050">
        <ele>1242.9</ele>
        <time>2019-11-03T09:10:02Z</time>
      </trkpt>
      <trkpt lat="38.4843670" lon="-2.5522790">
        <ele>1242.9</ele>
        <time>2019-11-03T09:10:03Z</time>
      </trkpt>
      <trkpt lat="38.4843140" lon="-2.5523400">
        <ele>1242.9</ele>
        <time>2019-11-03T09:10:04Z</time>
      </trkpt>
      <trkpt lat="38.4842570" lon="-2.5523760">
        <ele>1242.9</ele>
        <time>2019-11-03T09:10:05Z</time>
      </trkpt>
      <trkpt lat="38.4841960" lon="-2.5523870">
        <ele>1242.9</ele>
        <time>2019-11-03T09:10:06Z</time>
      </trkpt>
      <trkpt lat="38.4841420" lon="-2.5523600">
        <ele>1242.9</ele>
        <time>2019-11-03T09:10:07Z</time>
      </trkpt>
      <trkpt lat="38.4840880" lon="-2.5523130">
        <ele>1242.9</ele>
        <time>2019-11-03T09:10:08Z</time>
      </trkpt>
      <trkpt lat="38.4840630" lon="-2.5522740">
        <ele>1242.9</ele>
        <time>2019-11-03T09:10:09Z</time>
      </trkpt>
      <trkpt lat="38.4839550" lon="-2.5521370">
        <ele>1240.8</ele>
        <time>2019-11-03T09:10:11Z</time>
      </trkpt>
      <trkpt lat="38.4839070" lon="-2.5520540">
        <ele>1240.8</ele>
        <time>2019-11-03T09:10:12Z</time>
      </trkpt>
      <trkpt lat="38.4838550" lon="-2.5519740">
        <ele>1240.8</ele>
        <time>2019-11-03T09:10:13Z</time>
      </trkpt>
      <trkpt lat="38.4837910" lon="-2.5518990">
        <ele>1240.8</ele>
        <time>2019-11-03T09:10:14Z</time>
      </trkpt>
      <trkpt lat="38.4837300" lon="-2.5518500">
        <ele>1240.8</ele>
        <time>2019-11-03T09:10:15Z</time>
      </trkpt>
      <trkpt lat="38.4836660" lon="-2.5518300">
        <ele>1240.8</ele>
        <time>2019-11-03T09:10:16Z</time>
      </trkpt>
      <trkpt lat="38.4835970" lon="-2.5518410">
        <ele>1240.8</ele>
        <time>2019-11-03T09:10:17Z</time>
      </trkpt>
      <trkpt lat="38.4835280" lon="-2.5518850">
        <ele>1240.8</ele>
        <time>2019-11-03T09:10:18Z</time>
      </trkpt>
      <trkpt lat="38.4834710" lon="-2.5519450">
        <ele>1240.8</ele>
        <time>2019-11-03T09:10:19Z</time>
      </trkpt>
      <trkpt lat="38.4834100" lon="-2.5520330">
        <ele>1240.8</ele>
        <time>2019-11-03T09:10:20Z</time>
      </trkpt>
      <trkpt lat="38.4833480" lon="-2.5521330">
        <ele>1238.0</ele>
        <time>2019-11-03T09:10:21Z</time>
      </trkpt>
      <trkpt lat="38.4832870" lon="-2.5522360">
        <ele>1238.0</ele>
        <time>2019-11-03T09:10:22Z</time>
      </trkpt>
      <trkpt lat="38.4832260" lon="-2.5523410">
        <ele>1238.0</ele>
        <time>2019-11-03T09:10:23Z</time>
      </trkpt>
      <trkpt lat="38.4831620" lon="-2.5524410">
        <ele>1238.0</ele>
        <time>2019-11-03T09:10:24Z</time>
      </trkpt>
      <trkpt lat="38.4830920" lon="-2.5525490">
        <ele>1238.0</ele>
        <time>2019-11-03T09:10:25Z</time>
      </trkpt>
      <trkpt lat="38.4830230" lon="-2.5526550">
        <ele>1238.0</ele>
        <time>2019-11-03T09:10:26Z</time>
      </trkpt>
      <trkpt lat="38.4829590" lon="-2.5527620">
        <ele>1238.0</ele>
        <time>2019-11-03T09:10:27Z</time>
      </trkpt>
      <trkpt lat="38.4829030" lon="-2.5528700">
        <ele>1238.0</ele>
        <time>2019-11-03T09:10:28Z</time>
      </trkpt>
      <trkpt lat="38.4828520" lon="-2.5529790">
        <ele>1238.0</ele>
        <time>2019-11-03T09:10:29Z</time>
      </trkpt>
      <trkpt lat="38.4828030" lon="-2.5530920">
        <ele>1238.0</ele>
        <time>2019-11-03T09:10:30Z</time>
      </trkpt>
      <trkpt lat="38.4827620" lon="-2.5532060">
        <ele>1235.9</ele>
        <time>2019-11-03T09:10:31Z</time>
      </trkpt>
      <trkpt lat="38.4827190" lon="-2.5533130">
        <ele>1235.9</ele>
        <time>2019-11-03T09:10:32Z</time>
      </trkpt>
      <trkpt lat="38.4826700" lon="-2.5534100">
        <ele>1235.9</ele>
        <time>2019-11-03T09:10:33Z</time>
      </trkpt>
      <trkpt lat="38.4826140" lon="-2.5534930">
        <ele>1235.9</ele>
        <time>2019-11-03T09:10:34Z</time>
      </trkpt>
      <trkpt lat="38.4825470" lon="-2.5535610">
        <ele>1235.9</ele>
        <time>2019-11-03T09:10:35Z</time>
      </trkpt>
      <trkpt lat="38.4824700" lon="-2.5536190">
        <ele>1235.9</ele>
        <time>2019-11-03T09:10:36Z</time>
      </trkpt>
      <trkpt lat="38.4823910" lon="-2.5536690">
        <ele>1233.5</ele>
        <time>2019-11-03T09:10:37Z</time>
      </trkpt>
      <trkpt lat="38.4823070" lon="-2.5537150">
        <ele>1233.5</ele>
        <time>2019-11-03T09:10:38Z</time>
      </trkpt>
      <trkpt lat="38.4822090" lon="-2.5537590">
        <ele>1233.5</ele>
        <time>2019-11-03T09:10:39Z</time>
      </trkpt>
      <trkpt lat="38.4821170" lon="-2.5537910">
        <ele>1233.5</ele>
        <time>2019-11-03T09:10:40Z</time>
      </trkpt>
      <trkpt lat="38.4820220" lon="-2.5538120">
        <ele>1233.5</ele>
        <time>2019-11-03T09:10:41Z</time>
      </trkpt>
      <trkpt lat="38.4819330" lon="-2.5538210">
        <ele>1233.5</ele>
        <time>2019-11-03T09:10:42Z</time>
      </trkpt>
      <trkpt lat="38.4818510" lon="-2.5538110">
        <ele>1233.5</ele>
        <time>2019-11-03T09:10:43Z</time>
      </trkpt>
      <trkpt lat="38.4817690" lon="-2.5537840">
        <ele>1233.5</ele>
        <time>2019-11-03T09:10:44Z</time>
      </trkpt>
      <trkpt lat="38.4817000" lon="-2.5537390">
        <ele>1233.5</ele>
        <time>2019-11-03T09:10:45Z</time>
      </trkpt>
      <trkpt lat="38.4816410" lon="-2.5536760">
        <ele>1231.3</ele>
        <time>2019-11-03T09:10:46Z</time>
      </trkpt>
      <trkpt lat="38.4815870" lon="-2.5536060">
        <ele>1231.3</ele>
        <time>2019-11-03T09:10:47Z</time>
      </trkpt>
      <trkpt lat="38.4815360" lon="-2.5535170">
        <ele>1231.3</ele>
        <time>2019-11-03T09:10:48Z</time>
      </trkpt>
      <trkpt lat="38.4815030" lon="-2.5534230">
        <ele>1231.3</ele>
        <time>2019-11-03T09:10:49Z</time>
      </trkpt>
      <trkpt lat="38.4814820" lon="-2.5533280">
        <ele>1231.3</ele>
        <time>2019-11-03T09:10:50Z</time>
      </trkpt>
      <trkpt lat="38.4814820" lon="-2.5532300">
        <ele>1231.3</ele>
        <time>2019-11-03T09:10:51Z</time>
      </trkpt>
      <trkpt lat="38.4814900" lon="-2.5531270">
        <ele>1231.3</ele>
        <time>2019-11-03T09:10:52Z</time>
      </trkpt>
      <trkpt lat="38.4815050" lon="-2.5530240">
        <ele>1228.0</ele>
        <time>2019-11-03T09:10:53Z</time>
      </trkpt>
      <trkpt lat="38.4815180" lon="-2.5529120">
        <ele>1228.0</ele>
        <time>2019-11-03T09:10:54Z</time>
      </trkpt>
      <trkpt lat="38.4815260" lon="-2.5527920">
        <ele>1228.0</ele>
        <time>2019-11-03T09:10:55Z</time>
      </trkpt>
      <trkpt lat="38.4815210" lon="-2.5526540">
        <ele>1228.0</ele>
        <time>2019-11-03T09:10:56Z</time>
      </trkpt>
      <trkpt lat="38.4815100" lon="-2.5525300">
        <ele>1228.0</ele>
        <time>2019-11-03T09:10:57Z</time>
      </trkpt>
      <trkpt lat="38.4814800" lon="-2.5524030">
        <ele>1228.0</ele>
        <time>2019-11-03T09:10:58Z</time>
      </trkpt>
      <trkpt lat="38.4814410" lon="-2.5522830">
        <ele>1228.0</ele>
        <time>2019-11-03T09:10:59Z</time>
      </trkpt>
      <trkpt lat="38.4813930" lon="-2.5521690">
        <ele>1228.0</ele>
        <time>2019-11-03T09:11:00Z</time>
      </trkpt>
      <trkpt lat="38.4813390" lon="-2.5520580">
        <ele>1225.7</ele>
        <time>2019-11-03T09:11:01Z</time>
      </trkpt>
      <trkpt lat="38.4812770" lon="-2.5519540">
        <ele>1225.7</ele>
        <time>2019-11-03T09:11:02Z</time>
      </trkpt>
      <trkpt lat="38.4812080" lon="-2.5518650">
        <ele>1225.7</ele>
        <time>2019-11-03T09:11:03Z</time>
      </trkpt>
      <trkpt lat="38.4811290" lon="-2.5517850">
        <ele>1225.7</ele>
        <time>2019-11-03T09:11:04Z</time>
      </trkpt>
      <trkpt lat="38.4810420" lon="-2.5517260">
        <ele>1225.7</ele>
        <time>2019-11-03T09:11:05Z</time>
      </trkpt>
      <trkpt lat="38.4809500" lon="-2.5516940">
        <ele>1225.7</ele>
        <time>2019-11-03T09:11:06Z</time>
      </trkpt>
      <trkpt lat="38.4808580" lon="-2.5516870">
        <ele>1225.7</ele>
        <time>2019-11-03T09:11:07Z</time>
      </trkpt>
      <trkpt lat="38.4807650" lon="-2.5516970">
        <ele>1225.7</ele>
        <time>2019-11-03T09:11:08Z</time>
      </trkpt>
      <trkpt lat="38.4806680" lon="-2.5517250">
        <ele>1221.7</ele>
        <time>2019-11-03T09:11:09Z</time>
      </trkpt>
      <trkpt lat="38.4805710" lon="-2.5517610">
        <ele>1221.7</ele>
        <time>2019-11-03T09:11:10Z</time>
      </trkpt>
      <trkpt lat="38.4804740" lon="-2.5518110">
        <ele>1221.7</ele>
        <time>2019-11-03T09:11:11Z</time>
      </trkpt>
      <trkpt lat="38.4803740" lon="-2.5518650">
        <ele>1221.7</ele>
        <time>2019-11-03T09:11:12Z</time>
      </trkpt>
      <trkpt lat="38.4802740" lon="-2.5519170">
        <ele>1221.7</ele>
        <time>2019-11-03T09:11:13Z</time>
      </trkpt>
      <trkpt lat="38.4801740" lon="-2.5519640">
        <ele>1221.7</ele>
        <time>2019-11-03T09:11:14Z</time>
      </trkpt>
      <trkpt lat="38.4800790" lon="-2.5520070">
        <ele>1221.7</ele>
        <time>2019-11-03T09:11:15Z</time>
      </trkpt>
      <trkpt lat="38.4799770" lon="-2.5520470">
        <ele>1219.7</ele>
        <time>2019-11-03T09:11:16Z</time>
      </trkpt>
      <trkpt lat="38.4798770" lon="-2.5520750">
        <ele>1219.7</ele>
        <time>2019-11-03T09:11:17Z</time>
      </trkpt>
      <trkpt lat="38.4797900" lon="-2.5520910">
        <ele>1219.7</ele>
        <time>2019-11-03T09:11:18Z</time>
      </trkpt>
      <trkpt lat="38.4797060" lon="-2.5520900">
        <ele>1219.7</ele>
        <time>2019-11-03T09:11:19Z</time>
      </trkpt>
      <trkpt lat="38.4796190" lon="-2.5520670">
        <ele>1219.7</ele>
        <time>2019-11-03T09:11:20Z</time>
      </trkpt>
      <trkpt lat="38.4795420" lon="-2.5520290">
        <ele>1219.7</ele>
        <time>2019-11-03T09:11:21Z</time>
      </trkpt>
      <trkpt lat="38.4794780" lon="-2.5519690">
        <ele>1219.7</ele>
        <time>2019-11-03T09:11:22Z</time>
      </trkpt>
      <trkpt lat="38.4794270" lon="-2.5518940">
        <ele>1219.7</ele>
        <time>2019-11-03T09:11:23Z</time>
      </trkpt>
      <trkpt lat="38.4793960" lon="-2.5518080">
        <ele>1217.4</ele>
        <time>2019-11-03T09:11:24Z</time>
      </trkpt>
      <trkpt lat="38.4793780" lon="-2.5517150">
        <ele>1215.0</ele>
        <time>2019-11-03T09:11:25Z</time>
      </trkpt>
      <trkpt lat="38.4793780" lon="-2.5516210">
        <ele>1215.0</ele>
        <time>2019-11-03T09:11:26Z</time>
      </trkpt>
      <trkpt lat="38.4793860" lon="-2.5515310">
        <ele>1215.0</ele>
        <time>2019-11-03T09:11:27Z</time>
      </trkpt>
      <trkpt lat="38.4794040" lon="-2.5514410">
        <ele>1215.0</ele>
        <time>2019-11-03T09:11:28Z</time>
      </trkpt>
      <trkpt lat="38.4794340" lon="-2.5513510">
        <ele>1215.0</ele>
        <time>2019-11-03T09:11:29Z</time>
      </trkpt>
      <trkpt lat="38.4794780" lon="-2.5512630">
        <ele>1215.0</ele>
        <time>2019-11-03T09:11:30Z</time>
      </trkpt>
      <trkpt lat="38.4795320" lon="-2.5511830">
        <ele>1215.0</ele>
        <time>2019-11-03T09:11:31Z</time>
      </trkpt>
      <trkpt lat="38.4795960" lon="-2.5511100">
        <ele>1213.0</ele>
        <time>2019-11-03T09:11:32Z</time>
      </trkpt>
      <trkpt lat="38.4796650" lon="-2.5510560">
        <ele>1213.0</ele>
        <time>2019-11-03T09:11:33Z</time>
      </trkpt>
      <trkpt lat="38.4797390" lon="-2.5510170">
        <ele>1213.0</ele>
        <time>2019-11-03T09:11:34Z</time>
      </trkpt>
      <trkpt lat="38.4798160" lon="-2.5509950">
        <ele>1213.0</ele>
        <time>2019-11-03T09:11:35Z</time>
      </trkpt>
      <trkpt lat="38.4798920" lon="-2.5509870">
        <ele>1213.0</ele>
        <time>2019-11-03T09:11:36Z</time>
      </trkpt>
      <trkpt lat="38.4799870" lon="-2.5509940">
        <ele>1213.0</ele>
        <time>2019-11-03T09:11:37Z</time>
      </trkpt>
      <trkpt lat="38.4800770" lon="-2.5510060">
        <ele>1213.0</ele>
        <time>2019-11-03T09:11:38Z</time>
      </trkpt>
      <trkpt lat="38.4801660" lon="-2.5510220">
        <ele>1213.0</ele>
        <time>2019-11-03T09:11:39Z</time>
      </trkpt>
      <trkpt lat="38.4802590" lon="-2.5510400">
        <ele>1210.8</ele>
        <time>2019-11-03T09:11:40Z</time>
      </trkpt>
      <trkpt lat="38.4803530" lon="-2.5510600">
        <ele>1208.3</ele>
        <time>2019-11-03T09:11:41Z</time>
      </trkpt>
      <trkpt lat="38.4804530" lon="-2.5510780">
        <ele>1208.3</ele>
        <time>2019-11-03T09:11:42Z</time>
      </trkpt>
      <trkpt lat="38.4805560" lon="-2.5510950">
        <ele>1208.3</ele>
        <time>2019-11-03T09:11:43Z</time>
      </trkpt>
      <trkpt lat="38.4806550" lon="-2.5511130">
        <ele>1208.3</ele>
        <time>2019-11-03T09:11:44Z</time>
      </trkpt>
      <trkpt lat="38.4807580" lon="-2.5511310">
        <ele>1208.3</ele>
        <time>2019-11-03T09:11:45Z</time>
      </trkpt>
      <trkpt lat="38.4808550" lon="-2.5511470">
        <ele>1208.3</ele>
        <time>2019-11-03T09:11:46Z</time>
      </trkpt>
      <trkpt lat="38.4809520" lon="-2.5511570">
        <ele>1208.3</ele>
        <time>2019-11-03T09:11:47Z</time>
      </trkpt>
      <trkpt lat="38.4810500" lon="-2.5511570">
        <ele>1208.3</ele>
        <time>2019-11-03T09:11:48Z</time>
      </trkpt>
      <trkpt lat="38.4811470" lon="-2.5511380">
        <ele>1206.1</ele>
        <time>2019-11-03T09:11:49Z</time>
      </trkpt>
      <trkpt lat="38.4812390" lon="-2.5510930">
        <ele>1206.1</ele>
        <time>2019-11-03T09:11:50Z</time>
      </trkpt>
      <trkpt lat="38.4813110" lon="-2.5510320">
        <ele>1206.1</ele>
        <time>2019-11-03T09:11:51Z</time>
      </trkpt>
      <trkpt lat="38.4813700" lon="-2.5509400">
        <ele>1206.1</ele>
        <time>2019-11-03T09:11:52Z</time>
      </trkpt>
      <trkpt lat="38.4814110" lon="-2.5508360">
        <ele>1206.1</ele>
        <time>2019-11-03T09:11:53Z</time>
      </trkpt>
      <trkpt lat="38.4814260" lon="-2.5507240">
        <ele>1206.1</ele>
        <time>2019-11-03T09:11:54Z</time>
      </trkpt>
      <trkpt lat="38.4814310" lon="-2.5506130">
        <ele>1206.1</ele>
        <time>2019-11-03T09:11:55Z</time>
      </trkpt>
      <trkpt lat="38.4814230" lon="-2.5504880">
        <ele>1206.1</ele>
        <time>2019-11-03T09:11:56Z</time>
      </trkpt>
      <trkpt lat="38.4814030" lon="-2.5503600">
        <ele>1201.1</ele>
        <time>2019-11-03T09:11:57Z</time>
      </trkpt>
      <trkpt lat="38.4813800" lon="-2.5502420">
        <ele>1201.1</ele>
        <time>2019-11-03T09:11:58Z</time>
      </trkpt>
      <trkpt lat="38.4813540" lon="-2.5501200">
        <ele>1201.1</ele>
        <time>2019-11-03T09:11:59Z</time>
      </trkpt>
      <trkpt lat="38.4813240" lon="-2.5499990">
        <ele>1201.1</ele>
        <time>2019-11-03T09:12:00Z</time>
      </trkpt>
      <trkpt lat="38.4812930" lon="-2.5498800">
        <ele>1201.1</ele>
        <time>2019-11-03T09:12:01Z</time>
      </trkpt>
      <trkpt lat="38.4812700" lon="-2.5497580">
        <ele>1201.1</ele>
        <time>2019-11-03T09:12:02Z</time>
      </trkpt>
      <trkpt lat="38.4812600" lon="-2.5496470">
        <ele>1201.1</ele>
        <time>2019-11-03T09:12:03Z</time>
      </trkpt>
      <trkpt lat="38.4812620" lon="-2.5495530">
        <ele>1198.9</ele>
        <time>2019-11-03T09:12:04Z</time>
      </trkpt>
      <trkpt lat="38.4812830" lon="-2.5494740">
        <ele>1198.9</ele>
        <time>2019-11-03T09:12:05Z</time>
      </trkpt>
      <trkpt lat="38.4813160" lon="-2.5494120">
        <ele>1198.9</ele>
        <time>2019-11-03T09:12:06Z</time>
      </trkpt>
      <trkpt lat="38.4813720" lon="-2.5493610">
        <ele>1198.9</ele>
        <time>2019-11-03T09:12:07Z</time>
      </trkpt>
      <trkpt lat="38.4814390" lon="-2.5493210">
        <ele>1198.9</ele>
        <time>2019-11-03T09:12:08Z</time>
      </trkpt>
      <trkpt lat="38.4815100" lon="-2.5492860">
        <ele>1198.9</ele>
        <time>2019-11-03T09:12:09Z</time>
      </trkpt>
      <trkpt lat="38.4815870" lon="-2.5492500">
        <ele>1198.9</ele>
        <time>2019-11-03T09:12:10Z</time>
      </trkpt>
      <trkpt lat="38.4816590" lon="-2.5492110">
        <ele>1196.8</ele>
        <time>2019-11-03T09:12:11Z</time>
      </trkpt>
      <trkpt lat="38.4817430" lon="-2.5491530">
        <ele>1196.8</ele>
        <time>2019-11-03T09:12:12Z</time>
      </trkpt>
      <trkpt lat="38.4818280" lon="-2.5490870">
        <ele>1193.1</ele>
        <time>2019-11-03T09:12:13Z</time>
      </trkpt>
      <trkpt lat="38.4819070" lon="-2.5490200">
        <ele>1193.1</ele>
        <time>2019-11-03T09:12:14Z</time>
      </trkpt>
      <trkpt lat="38.4819920" lon="-2.5489380">
        <ele>1193.1</ele>
        <time>2019-11-03T09:12:15Z</time>
      </trkpt>
      <trkpt lat="38.4820710" lon="-2.5488600">
        <ele>1193.1</ele>
        <time>2019-11-03T09:12:16Z</time>
      </trkpt>
      <trkpt lat="38.4821500" lon="-2.5487810">
        <ele>1193.1</ele>
        <time>2019-11-03T09:12:17Z</time>
      </trkpt>
      <trkpt lat="38.4822400" lon="-2.5486950">
        <ele>1193.1</ele>
        <time>2019-11-03T09:12:18Z</time>
      </trkpt>
      <trkpt lat="38.4823220" lon="-2.5486150">
        <ele>1193.1</ele>
        <time>2019-11-03T09:12:19Z</time>
      </trkpt>
      <trkpt lat="38.4823990" lon="-2.5485410">
        <ele>1191.0</ele>
        <time>2019-11-03T09:12:20Z</time>
      </trkpt>
      <trkpt lat="38.4824860" lon="-2.5484620">
        <ele>1191.0</ele>
        <time>2019-11-03T09:12:21Z</time>
      </trkpt>
      <trkpt lat="38.4825750" lon="-2.5483890">
        <ele>1191.0</ele>
        <time>2019-11-03T09:12:22Z</time>
      </trkpt>
      <trkpt lat="38.4826620" lon="-2.5483280">
        <ele>1191.0</ele>
        <time>2019-11-03T09:12:23Z</time>
      </trkpt>
      <trkpt lat="38.4827470" lon="-2.5482750">
        <ele>1191.0</ele>
        <time>2019-11-03T09:12:24Z</time>
      </trkpt>
      <trkpt lat="38.4828190" lon="-2.5482180">
        <ele>1191.0</ele>
        <time>2019-11-03T09:12:25Z</time>
      </trkpt>
      <trkpt lat="38.4828750" lon="-2.5481560">
        <ele>1191.0</ele>
        <time>2019-11-03T09:12:26Z</time>
      </trkpt>
      <trkpt lat="38.4829110" lon="-2.5480950">
        <ele>1189.0</ele>
        <time>2019-11-03T09:12:27Z</time>
      </trkpt>
      <trkpt lat="38.4829130" lon="-2.5480490">
        <ele>1189.0</ele>
        <time>2019-11-03T09:12:28Z</time>
      </trkpt>
      <trkpt lat="38.4828650" lon="-2.5479820">
        <ele>1184.5</ele>
        <time>2019-11-03T09:12:30Z</time>
      </trkpt>
      <trkpt lat="38.4827390" lon="-2.5479770">
        <ele>1184.5</ele>
        <time>2019-11-03T09:12:32Z</time>
      </trkpt>
      <trkpt lat="38.4826730" lon="-2.5479930">
        <ele>1184.5</ele>
        <time>2019-11-03T09:12:33Z</time>
      </trkpt>
      <trkpt lat="38.4826060" lon="-2.5480130">
        <ele>1184.5</ele>
        <time>2019-11-03T09:12:34Z</time>
      </trkpt>
      <trkpt lat="38.4825290" lon="-2.5480400">
        <ele>1184.5</ele>
        <time>2019-11-03T09:12:35Z</time>
      </trkpt>
      <trkpt lat="38.4824520" lon="-2.5480660">
        <ele>1182.4</ele>
        <time>2019-11-03T09:12:36Z</time>
      </trkpt>
      <trkpt lat="38.4823680" lon="-2.5481060">
        <ele>1182.4</ele>
        <time>2019-11-03T09:12:37Z</time>
      </trkpt>
      <trkpt lat="38.4822810" lon="-2.5481450">
        <ele>1182.4</ele>
        <time>2019-11-03T09:12:38Z</time>
      </trkpt>
      <trkpt lat="38.4821960" lon="-2.5481800">
        <ele>1182.4</ele>
        <time>2019-11-03T09:12:39Z</time>
      </trkpt>
      <trkpt lat="38.4821020" lon="-2.5482180">
        <ele>1182.4</ele>
        <time>2019-11-03T09:12:40Z</time>
      </trkpt>
      <trkpt lat="38.4820070" lon="-2.5482570">
        <ele>1182.4</ele>
        <time>2019-11-03T09:12:41Z</time>
      </trkpt>
      <trkpt lat="38.4819170" lon="-2.5482960">
        <ele>1182.4</ele>
        <time>2019-11-03T09:12:42Z</time>
      </trkpt>
      <trkpt lat="38.4818200" lon="-2.5483350">
        <ele>1180.3</ele>
        <time>2019-11-03T09:12:43Z</time>
      </trkpt>
      <trkpt lat="38.4817230" lon="-2.5483660">
        <ele>1180.3</ele>
        <time>2019-11-03T09:12:44Z</time>
      </trkpt>
      <trkpt lat="38.4816280" lon="-2.5483870">
        <ele>1175.9</ele>
        <time>2019-11-03T09:12:45Z</time>
      </trkpt>
      <trkpt lat="38.4815360" lon="-2.5483930">
        <ele>1175.9</ele>
        <time>2019-11-03T09:12:46Z</time>
      </trkpt>
      <trkpt lat="38.4814410" lon="-2.5483810">
        <ele>1175.9</ele>
        <time>2019-11-03T09:12:47Z</time>
      </trkpt>
      <trkpt lat="38.4813390" lon="-2.5483580">
        <ele>1175.9</ele>
        <time>2019-11-03T09:12:48Z</time>
      </trkpt>
      <trkpt lat="38.4812390" lon="-2.5483320">
        <ele>1175.9</ele>
        <time>2019-11-03T09:12:49Z</time>
      </trkpt>
      <trkpt lat="38.4811320" lon="-2.5483020">
        <ele>1175.9</ele>
        <time>2019-11-03T09:12:50Z</time>
      </trkpt>
      <trkpt lat="38.4810290" lon="-2.5482790">
        <ele>1175.9</ele>
        <time>2019-11-03T09:12:51Z</time>
      </trkpt>
      <trkpt lat="38.4809220" lon="-2.5482600">
        <ele>1173.7</ele>
        <time>2019-11-03T09:12:52Z</time>
      </trkpt>
      <trkpt lat="38.4808170" lon="-2.5482480">
        <ele>1173.7</ele>
        <time>2019-11-03T09:12:53Z</time>
      </trkpt>
      <trkpt lat="38.4807090" lon="-2.5482560">
        <ele>1173.7</ele>
        <time>2019-11-03T09:12:54Z</time>
      </trkpt>
      <trkpt lat="38.4806140" lon="-2.5482710">
        <ele>1173.7</ele>
        <time>2019-11-03T09:12:55Z</time>
      </trkpt>
      <trkpt lat="38.4805170" lon="-2.5483010">
        <ele>1173.7</ele>
        <time>2019-11-03T09:12:56Z</time>
      </trkpt>
      <trkpt lat="38.4804430" lon="-2.5483410">
        <ele>1173.7</ele>
        <time>2019-11-03T09:12:57Z</time>
      </trkpt>
      <trkpt lat="38.4803740" lon="-2.5484040">
        <ele>1173.7</ele>
        <time>2019-11-03T09:12:58Z</time>
      </trkpt>
      <trkpt lat="38.4803230" lon="-2.5484810">
        <ele>1171.5</ele>
        <time>2019-11-03T09:12:59Z</time>
      </trkpt>
      <trkpt lat="38.4802870" lon="-2.5485700">
        <ele>1171.5</ele>
        <time>2019-11-03T09:13:00Z</time>
      </trkpt>
      <trkpt lat="38.4802560" lon="-2.5486670">
        <ele>1167.2</ele>
        <time>2019-11-03T09:13:01Z</time>
      </trkpt>
      <trkpt lat="38.4802330" lon="-2.5487670">
        <ele>1167.2</ele>
        <time>2019-11-03T09:13:02Z</time>
      </trkpt>
      <trkpt lat="38.4802050" lon="-2.5488660">
        <ele>1167.2</ele>
        <time>2019-11-03T09:13:03Z</time>
      </trkpt>
      <trkpt lat="38.4801740" lon="-2.5489540">
        <ele>1167.2</ele>
        <time>2019-11-03T09:13:04Z</time>
      </trkpt>
      <trkpt lat="38.4801360" lon="-2.5490360">
        <ele>1167.2</ele>
        <time>2019-11-03T09:13:05Z</time>
      </trkpt>
      <trkpt lat="38.4800920" lon="-2.5490960">
        <ele>1167.2</ele>
        <time>2019-11-03T09:13:06Z</time>
      </trkpt>
      <trkpt lat="38.4800460" lon="-2.5491290">
        <ele>1167.2</ele>
        <time>2019-11-03T09:13:07Z</time>
      </trkpt>
      <trkpt lat="38.4800000" lon="-2.5491200">
        <ele>1164.9</ele>
        <time>2019-11-03T09:13:08Z</time>
      </trkpt>
      <trkpt lat="38.4799540" lon="-2.5490900">
        <ele>1164.9</ele>
        <time>2019-11-03T09:13:09Z</time>
      </trkpt>
      <trkpt lat="38.4799130" lon="-2.5490300">
        <ele>1164.9</ele>
        <time>2019-11-03T09:13:10Z</time>
      </trkpt>
      <trkpt lat="38.4798520" lon="-2.5489720">
        <ele>1164.9</ele>
        <time>2019-11-03T09:13:11Z</time>
      </trkpt>
      <trkpt lat="38.4797850" lon="-2.5489250">
        <ele>1164.9</ele>
        <time>2019-11-03T09:13:12Z</time>
      </trkpt>
      <trkpt lat="38.4797060" lon="-2.5488970">
        <ele>1164.9</ele>
        <time>2019-11-03T09:13:13Z</time>
      </trkpt>
      <trkpt lat="38.4796210" lon="-2.5488860">
        <ele>1162.8</ele>
        <time>2019-11-03T09:13:14Z</time>
      </trkpt>
      <trkpt lat="38.4795390" lon="-2.5488880">
        <ele>1162.8</ele>
        <time>2019-11-03T09:13:15Z</time>
      </trkpt>
      <trkpt lat="38.4794570" lon="-2.5489070">
        <ele>1162.8</ele>
        <time>2019-11-03T09:13:16Z</time>
      </trkpt>
      <trkpt lat="38.4793730" lon="-2.5489340">
        <ele>1158.3</ele>
        <time>2019-11-03T09:13:17Z</time>
      </trkpt>
      <trkpt lat="38.4792860" lon="-2.5489680">
        <ele>1158.3</ele>
        <time>2019-11-03T09:13:18Z</time>
      </trkpt>
      <trkpt lat="38.4791990" lon="-2.5490080">
        <ele>1158.3</ele>
        <time>2019-11-03T09:13:19Z</time>
      </trkpt>
      <trkpt lat="38.4791120" lon="-2.5490570">
        <ele>1158.3</ele>
        <time>2019-11-03T09:13:20Z</time>
      </trkpt>
      <trkpt lat="38.4790270" lon="-2.5491090">
        <ele>1158.3</ele>
        <time>2019-11-03T09:13:21Z</time>
      </trkpt>
      <trkpt lat="38.4789400" lon="-2.5491690">
        <ele>1158.3</ele>
        <time>2019-11-03T09:13:22Z</time>
      </trkpt>
      <trkpt lat="38.4788480" lon="-2.5492270">
        <ele>1156.2</ele>
        <time>2019-11-03T09:13:23Z</time>
      </trkpt>
      <trkpt lat="38.4787560" lon="-2.5492810">
        <ele>1156.2</ele>
        <time>2019-11-03T09:13:24Z</time>
      </trkpt>
      <trkpt lat="38.4786710" lon="-2.5493250">
        <ele>1156.2</ele>
        <time>2019-11-03T09:13:25Z</time>
      </trkpt>
      <trkpt lat="38.4785770" lon="-2.5493720">
        <ele>1156.2</ele>
        <time>2019-11-03T09:13:26Z</time>
      </trkpt>
      <trkpt lat="38.4784920" lon="-2.5494230">
        <ele>1156.2</ele>
        <time>2019-11-03T09:13:27Z</time>
      </trkpt>
      <trkpt lat="38.4784200" lon="-2.5494770">
        <ele>1156.2</ele>
        <time>2019-11-03T09:13:28Z</time>
      </trkpt>
      <trkpt lat="38.4783560" lon="-2.5495440">
        <ele>1154.1</ele>
        <time>2019-11-03T09:13:29Z</time>
      </trkpt>
      <trkpt lat="38.4783030" lon="-2.5496110">
        <ele>1154.1</ele>
        <time>2019-11-03T09:13:30Z</time>
      </trkpt>
      <trkpt lat="38.4782590" lon="-2.5496780">
        <ele>1154.1</ele>
        <time>2019-11-03T09:13:31Z</time>
      </trkpt>
      <trkpt lat="38.4782110" lon="-2.5497440">
        <ele>1154.1</ele>
        <time>2019-11-03T09:13:32Z</time>
      </trkpt>
      <trkpt lat="38.4781620" lon="-2.5497970">
        <ele>1148.9</ele>
        <time>2019-11-03T09:13:33Z</time>
      </trkpt>
      <trkpt lat="38.4781080" lon="-2.5498330">
        <ele>1148.9</ele>
        <time>2019-11-03T09:13:34Z</time>
      </trkpt>
      <trkpt lat="38.4780470" lon="-2.5498230">
        <ele>1148.9</ele>
        <time>2019-11-03T09:13:35Z</time>
      </trkpt>
      <trkpt lat="38.4779930" lon="-2.5498110">
        <ele>1148.9</ele>
        <time>2019-11-03T09:13:36Z</time>
      </trkpt>
      <trkpt lat="38.4779390" lon="-2.5497710">
        <ele>1148.9</ele>
        <time>2019-11-03T09:13:37Z</time>
      </trkpt>
      <trkpt lat="38.4778930" lon="-2.5497140">
        <ele>1148.9</ele>
        <time>2019-11-03T09:13:38Z</time>
      </trkpt>
      <trkpt lat="38.4778470" lon="-2.5496560">
        <ele>1146.8</ele>
        <time>2019-11-03T09:13:39Z</time>
      </trkpt>
      <trkpt lat="38.4777980" lon="-2.5496060">
        <ele>1146.8</ele>
        <time>2019-11-03T09:13:40Z</time>
      </trkpt>
      <trkpt lat="38.4777450" lon="-2.5495940">
        <ele>1146.8</ele>
        <time>2019-11-03T09:13:41Z</time>
      </trkpt>
      <trkpt lat="38.4776810" lon="-2.5495940">
        <ele>1146.8</ele>
        <time>2019-11-03T09:13:42Z</time>
      </trkpt>
      <trkpt lat="38.4776120" lon="-2.5496050">
        <ele>1146.8</ele>
        <time>2019-11-03T09:13:43Z</time>
      </trkpt>
      <trkpt lat="38.4775320" lon="-2.5496270">
        <ele>1146.8</ele>
        <time>2019-11-03T09:13:44Z</time>
      </trkpt>
      <trkpt lat="38.4774430" lon="-2.5496500">
        <ele>1144.7</ele>
        <time>2019-11-03T09:13:45Z</time>
      </trkpt>
      <trkpt lat="38.4773560" lon="-2.5496680">
        <ele>1144.7</ele>
        <time>2019-11-03T09:13:46Z</time>
      </trkpt>
      <trkpt lat="38.4772680" lon="-2.5496800">
        <ele>1144.7</ele>
        <time>2019-11-03T09:13:47Z</time>
      </trkpt>
      <trkpt lat="38.4771740" lon="-2.5496940">
        <ele>1144.7</ele>
        <time>2019-11-03T09:13:48Z</time>
      </trkpt>
      <trkpt lat="38.4770820" lon="-2.5497070">
        <ele>1139.3</ele>
        <time>2019-11-03T09:13:49Z</time>
      </trkpt>
      <trkpt lat="38.4769790" lon="-2.5497150">
        <ele>1139.3</ele>
        <time>2019-11-03T09:13:50Z</time>
      </trkpt>
      <trkpt lat="38.4768740" lon="-2.5497150">
        <ele>1139.3</ele>
        <time>2019-11-03T09:13:51Z</time>
      </trkpt>
      <trkpt lat="38.4767770" lon="-2.5497090">
        <ele>1139.3</ele>
        <time>2019-11-03T09:13:52Z</time>
      </trkpt>
      <trkpt lat="38.4766770" lon="-2.5497010">
        <ele>1139.3</ele>
        <time>2019-11-03T09:13:53Z</time>
      </trkpt>
      <trkpt lat="38.4765770" lon="-2.5496910">
        <ele>1139.3</ele>
        <time>2019-11-03T09:13:54Z</time>
      </trkpt>
      <trkpt lat="38.4764700" lon="-2.5496720">
        <ele>1137.2</ele>
        <time>2019-11-03T09:13:55Z</time>
      </trkpt>
      <trkpt lat="38.4763650" lon="-2.5496520">
        <ele>1137.2</ele>
        <time>2019-11-03T09:13:56Z</time>
      </trkpt>
      <trkpt lat="38.4762550" lon="-2.5496320">
        <ele>1137.2</ele>
        <time>2019-11-03T09:13:57Z</time>
      </trkpt>
      <trkpt lat="38.4761550" lon="-2.5496120">
        <ele>1137.2</ele>
        <time>2019-11-03T09:13:58Z</time>
      </trkpt>
      <trkpt lat="38.4760470" lon="-2.5495970">
        <ele>1137.2</ele>
        <time>2019-11-03T09:13:59Z</time>
      </trkpt>
      <trkpt lat="38.4759480" lon="-2.5495950">
        <ele>1137.2</ele>
        <time>2019-11-03T09:14:00Z</time>
      </trkpt>
      <trkpt lat="38.4758660" lon="-2.5496100">
        <ele>1135.0</ele>
        <time>2019-11-03T09:14:01Z</time>
      </trkpt>
      <trkpt lat="38.4757760" lon="-2.5496460">
        <ele>1135.0</ele>
        <time>2019-11-03T09:14:02Z</time>
      </trkpt>
      <trkpt lat="38.4756990" lon="-2.5496900">
        <ele>1135.0</ele>
        <time>2019-11-03T09:14:03Z</time>
      </trkpt>
      <trkpt lat="38.4756200" lon="-2.5497500">
        <ele>1135.0</ele>
        <time>2019-11-03T09:14:04Z</time>
      </trkpt>
      <trkpt lat="38.4755480" lon="-2.5498120">
        <ele>1129.1</ele>
        <time>2019-11-03T09:14:05Z</time>
      </trkpt>
      <trkpt lat="38.4754020" lon="-2.5499250">
        <ele>1129.1</ele>
        <time>2019-11-03T09:14:07Z</time>
      </trkpt>
      <trkpt lat="38.4753250" lon="-2.5499690">
        <ele>1129.1</ele>
        <time>2019-11-03T09:14:08Z</time>
      </trkpt>
      <trkpt lat="38.4752460" lon="-2.5499990">
        <ele>1129.1</ele>
        <time>2019-11-03T09:14:09Z</time>
      </trkpt>
      <trkpt lat="38.4751620" lon="-2.5500090">
        <ele>1129.1</ele>
        <time>2019-11-03T09:14:10Z</time>
      </trkpt>
      <trkpt lat="38.4750750" lon="-2.5500050">
        <ele>1127.0</ele>
        <time>2019-11-03T09:14:11Z</time>
      </trkpt>
      <trkpt lat="38.4749820" lon="-2.5499890">
        <ele>1127.0</ele>
        <time>2019-11-03T09:14:12Z</time>
      </trkpt>
      <trkpt lat="38.4748930" lon="-2.5499650">
        <ele>1127.0</ele>
        <time>2019-11-03T09:14:13Z</time>
      </trkpt>
      <trkpt lat="38.4747960" lon="-2.5499300">
        <ele>1127.0</ele>
        <time>2019-11-03T09:14:14Z</time>
      </trkpt>
      <trkpt lat="38.4747010" lon="-2.5498930">
        <ele>1127.0</ele>
        <time>2019-11-03T09:14:15Z</time>
      </trkpt>
      <trkpt lat="38.4746090" lon="-2.5498570">
        <ele>1127.0</ele>
        <time>2019-11-03T09:14:16Z</time>
      </trkpt>
      <trkpt lat="38.4745060" lon="-2.5498160">
        <ele>1124.8</ele>
        <time>2019-11-03T09:14:17Z</time>
      </trkpt>
      <trkpt lat="38.4744060" lon="-2.5497720">
        <ele>1124.8</ele>
        <time>2019-11-03T09:14:18Z</time>
      </trkpt>
      <trkpt lat="38.4743120" lon="-2.5497240">
        <ele>1124.8</ele>
        <time>2019-11-03T09:14:19Z</time>
      </trkpt>
      <trkpt lat="38.4742200" lon="-2.5496770">
        <ele>1124.8</ele>
        <time>2019-11-03T09:14:20Z</time>
      </trkpt>
      <trkpt lat="38.4741250" lon="-2.5496310">
        <ele>1118.8</ele>
        <time>2019-11-03T09:14:21Z</time>
      </trkpt>
      <trkpt lat="38.4740450" lon="-2.5495950">
        <ele>1118.8</ele>
        <time>2019-11-03T09:14:22Z</time>
      </trkpt>
      <trkpt lat="38.4739560" lon="-2.5495600">
        <ele>1118.8</ele>
        <time>2019-11-03T09:14:23Z</time>
      </trkpt>
      <trkpt lat="38.4738760" lon="-2.5495250">
        <ele>1118.8</ele>
        <time>2019-11-03T09:14:24Z</time>
      </trkpt>
      <trkpt lat="38.4737970" lon="-2.5494950">
        <ele>1118.8</ele>
        <time>2019-11-03T09:14:25Z</time>
      </trkpt>
      <trkpt lat="38.4737200" lon="-2.5494660">
        <ele>1118.8</ele>
        <time>2019-11-03T09:14:26Z</time>
      </trkpt>
      <trkpt lat="38.4736510" lon="-2.5494440">
        <ele>1116.5</ele>
        <time>2019-11-03T09:14:27Z</time>
      </trkpt>
      <trkpt lat="38.4735900" lon="-2.5494230">
        <ele>1116.5</ele>
        <time>2019-11-03T09:14:28Z</time>
      </trkpt>
      <trkpt lat="38.4735390" lon="-2.5493980">
        <ele>1116.5</ele>
        <time>2019-11-03T09:14:29Z</time>
      </trkpt>
      <trkpt lat="38.4735030" lon="-2.5493750">
        <ele>1116.5</ele>
        <time>2019-11-03T09:14:30Z</time>
      </trkpt>
      <trkpt lat="38.4734570" lon="-2.5493250">
        <ele>1116.5</ele>
        <time>2019-11-03T09:14:32Z</time>
      </trkpt>
      <trkpt lat="38.4734720" lon="-2.5494010">
        <ele>1106.2</ele>
        <time>2019-11-03T09:21:49Z</time>
      </trkpt>
      <trkpt lat="38.4734000" lon="-2.5494900">
        <ele>1104.1</ele>
        <time>2019-11-03T09:21:53Z</time>
      </trkpt>
      <trkpt lat="38.4733240" lon="-2.5495560">
        <ele>1104.1</ele>
        <time>2019-11-03T09:21:55Z</time>
      </trkpt>
      <trkpt lat="38.4732770" lon="-2.5495940">
        <ele>1098.2</ele>
        <time>2019-11-03T09:21:56Z</time>
      </trkpt>
      <trkpt lat="38.4732290" lon="-2.5496350">
        <ele>1098.2</ele>
        <time>2019-11-03T09:21:57Z</time>
      </trkpt>
      <trkpt lat="38.4731780" lon="-2.5496760">
        <ele>1098.2</ele>
        <time>2019-11-03T09:21:58Z</time>
      </trkpt>
      <trkpt lat="38.4731260" lon="-2.5497240">
        <ele>1098.2</ele>
        <time>2019-11-03T09:21:59Z</time>
      </trkpt>
      <trkpt lat="38.4730750" lon="-2.5497780">
        <ele>1098.2</ele>
        <time>2019-11-03T09:22:00Z</time>
      </trkpt>
      <trkpt lat="38.4730210" lon="-2.5498380">
        <ele>1098.2</ele>
        <time>2019-11-03T09:22:01Z</time>
      </trkpt>
      <trkpt lat="38.4729780" lon="-2.5499020">
        <ele>1098.2</ele>
        <time>2019-11-03T09:22:02Z</time>
      </trkpt>
      <trkpt lat="38.4729340" lon="-2.5499660">
        <ele>1096.0</ele>
        <time>2019-11-03T09:22:03Z</time>
      </trkpt>
      <trkpt lat="38.4728930" lon="-2.5500290">
        <ele>1096.0</ele>
        <time>2019-11-03T09:22:04Z</time>
      </trkpt>
      <trkpt lat="38.4728630" lon="-2.5500880">
        <ele>1096.0</ele>
        <time>2019-11-03T09:22:05Z</time>
      </trkpt>
      <trkpt lat="38.4728090" lon="-2.5502180">
        <ele>1096.0</ele>
        <time>2019-11-03T09:22:07Z</time>
      </trkpt>
      <trkpt lat="38.4727860" lon="-2.5502890">
        <ele>1096.0</ele>
        <time>2019-11-03T09:22:08Z</time>
      </trkpt>
      <trkpt lat="38.4727710" lon="-2.5503580">
        <ele>1096.0</ele>
        <time>2019-11-03T09:22:09Z</time>
      </trkpt>
      <trkpt lat="38.4727550" lon="-2.5504370">
        <ele>1093.7</ele>
        <time>2019-11-03T09:22:10Z</time>
      </trkpt>
      <trkpt lat="38.4727400" lon="-2.5505160">
        <ele>1093.7</ele>
        <time>2019-11-03T09:22:11Z</time>
      </trkpt>
      <trkpt lat="38.4727170" lon="-2.5506770">
        <ele>1088.1</ele>
        <time>2019-11-03T09:22:13Z</time>
      </trkpt>
      <trkpt lat="38.4727070" lon="-2.5507610">
        <ele>1088.1</ele>
        <time>2019-11-03T09:22:14Z</time>
      </trkpt>
      <trkpt lat="38.4726940" lon="-2.5508460">
        <ele>1088.1</ele>
        <time>2019-11-03T09:22:15Z</time>
      </trkpt>
      <trkpt lat="38.4726840" lon="-2.5509300">
        <ele>1088.1</ele>
        <time>2019-11-03T09:22:16Z</time>
      </trkpt>
      <trkpt lat="38.4726760" lon="-2.5510140">
        <ele>1088.1</ele>
        <time>2019-11-03T09:22:17Z</time>
      </trkpt>
      <trkpt lat="38.4726630" lon="-2.5510930">
        <ele>1088.1</ele>
        <time>2019-11-03T09:22:18Z</time>
      </trkpt>
      <trkpt lat="38.4726530" lon="-2.5511810">
        <ele>1085.7</ele>
        <time>2019-11-03T09:22:19Z</time>
      </trkpt>
      <trkpt lat="38.4726370" lon="-2.5512700">
        <ele>1085.7</ele>
        <time>2019-11-03T09:22:20Z</time>
      </trkpt>
      <trkpt lat="38.4726220" lon="-2.5513580">
        <ele>1085.7</ele>
        <time>2019-11-03T09:22:21Z</time>
      </trkpt>
      <trkpt lat="38.4726090" lon="-2.5514400">
        <ele>1085.7</ele>
        <time>2019-11-03T09:22:22Z</time>
      </trkpt>
      <trkpt lat="38.4725960" lon="-2.5515280">
        <ele>1085.7</ele>
        <time>2019-11-03T09:22:23Z</time>
      </trkpt>
      <trkpt lat="38.4725810" lon="-2.5516110">
        <ele>1085.7</ele>
        <time>2019-11-03T09:22:24Z</time>
      </trkpt>
      <trkpt lat="38.4725680" lon="-2.5516890">
        <ele>1085.7</ele>
        <time>2019-11-03T09:22:25Z</time>
      </trkpt>
      <trkpt lat="38.4725530" lon="-2.5517600">
        <ele>1083.4</ele>
        <time>2019-11-03T09:22:26Z</time>
      </trkpt>
      <trkpt lat="38.4725430" lon="-2.5518240">
        <ele>1083.4</ele>
        <time>2019-11-03T09:22:27Z</time>
      </trkpt>
      <trkpt lat="38.4725270" lon="-2.5519290">
        <ele>1077.7</ele>
        <time>2019-11-03T09:22:29Z</time>
      </trkpt>
      <trkpt lat="38.4725120" lon="-2.5520070">
        <ele>1077.7</ele>
        <time>2019-11-03T09:22:31Z</time>
      </trkpt>
      <trkpt lat="38.4724970" lon="-2.5520810">
        <ele>1077.7</ele>
        <time>2019-11-03T09:22:33Z</time>
      </trkpt>
      <trkpt lat="38.4724810" lon="-2.5521590">
        <ele>1075.5</ele>
        <time>2019-11-03T09:22:35Z</time>
      </trkpt>
      <trkpt lat="38.4724740" lon="-2.5522340">
        <ele>1075.5</ele>
        <time>2019-11-03T09:22:37Z</time>
      </trkpt>
      <trkpt lat="38.4724740" lon="-2.5523110">
        <ele>1075.5</ele>
        <time>2019-11-03T09:22:39Z</time>
      </trkpt>
      <trkpt lat="38.4724760" lon="-2.5523910">
        <ele>1075.5</ele>
        <time>2019-11-03T09:22:41Z</time>
      </trkpt>
      <trkpt lat="38.4724810" lon="-2.5524780">
        <ele>1073.3</ele>
        <time>2019-11-03T09:22:43Z</time>
      </trkpt>
      <trkpt lat="38.4724890" lon="-2.5525560">
        <ele>1073.3</ele>
        <time>2019-11-03T09:22:45Z</time>
      </trkpt>
      <trkpt lat="38.4724990" lon="-2.5526210">
        <ele>1073.3</ele>
        <time>2019-11-03T09:22:47Z</time>
      </trkpt>
      <trkpt lat="38.4725070" lon="-2.5526760">
        <ele>1073.3</ele>
        <time>2019-11-03T09:22:49Z</time>
      </trkpt>
      <trkpt lat="38.4725070" lon="-2.5527570">
        <ele>1073.3</ele>
        <time>2019-11-03T09:22:52Z</time>
      </trkpt>
      <trkpt lat="38.4725040" lon="-2.5528420">
        <ele>1071.8</ele>
        <time>2019-11-03T09:22:55Z</time>
      </trkpt>
      <trkpt lat="38.4724840" lon="-2.5529380">
        <ele>1070.4</ele>
        <time>2019-11-03T09:22:58Z</time>
      </trkpt>
      <trkpt lat="38.4724510" lon="-2.5530060">
        <ele>1070.4</ele>
        <time>2019-11-03T09:23:00Z</time>
      </trkpt>
      <trkpt lat="38.4723940" lon="-2.5530590">
        <ele>1069.3</ele>
        <time>2019-11-03T09:23:02Z</time>
      </trkpt>
      <trkpt lat="38.4723200" lon="-2.5530640">
        <ele>1068.1</ele>
        <time>2019-11-03T09:23:04Z</time>
      </trkpt>
      <trkpt lat="38.4722330" lon="-2.5530170">
        <ele>1068.1</ele>
        <time>2019-11-03T09:23:06Z</time>
      </trkpt>
      <trkpt lat="38.4721790" lon="-2.5529710">
        <ele>1066.6</ele>
        <time>2019-11-03T09:23:07Z</time>
      </trkpt>
      <trkpt lat="38.4721150" lon="-2.5529130">
        <ele>1066.6</ele>
        <time>2019-11-03T09:23:08Z</time>
      </trkpt>
      <trkpt lat="38.4720540" lon="-2.5528530">
        <ele>1065.4</ele>
        <time>2019-11-03T09:23:09Z</time>
      </trkpt>
      <trkpt lat="38.4719850" lon="-2.5527820">
        <ele>1065.4</ele>
        <time>2019-11-03T09:23:10Z</time>
      </trkpt>
      <trkpt lat="38.4719210" lon="-2.5527130">
        <ele>1063.8</ele>
        <time>2019-11-03T09:23:11Z</time>
      </trkpt>
      <trkpt lat="38.4718590" lon="-2.5526450">
        <ele>1063.8</ele>
        <time>2019-11-03T09:23:12Z</time>
      </trkpt>
      <trkpt lat="38.4717950" lon="-2.5525690">
        <ele>1062.4</ele>
        <time>2019-11-03T09:23:13Z</time>
      </trkpt>
      <trkpt lat="38.4717290" lon="-2.5524960">
        <ele>1062.4</ele>
        <time>2019-11-03T09:23:14Z</time>
      </trkpt>
      <trkpt lat="38.4716650" lon="-2.5524140">
        <ele>1060.9</ele>
        <time>2019-11-03T09:23:15Z</time>
      </trkpt>
      <trkpt lat="38.4715930" lon="-2.5523360">
        <ele>1060.9</ele>
        <time>2019-11-03T09:23:16Z</time>
      </trkpt>
      <trkpt lat="38.4715240" lon="-2.5522600">
        <ele>1060.9</ele>
        <time>2019-11-03T09:23:17Z</time>
      </trkpt>
      <trkpt lat="38.4714620" lon="-2.5521920">
        <ele>1059.6</ele>
        <time>2019-11-03T09:23:18Z</time>
      </trkpt>
      <trkpt lat="38.4714010" lon="-2.5521210">
        <ele>1059.6</ele>
        <time>2019-11-03T09:23:19Z</time>
      </trkpt>
      <trkpt lat="38.4713450" lon="-2.5520530">
        <ele>1059.6</ele>
        <time>2019-11-03T09:23:20Z</time>
      </trkpt>
      <trkpt lat="38.4712910" lon="-2.5519880">
        <ele>1059.6</ele>
        <time>2019-11-03T09:23:21Z</time>
      </trkpt>
      <trkpt lat="38.4712420" lon="-2.5519220">
        <ele>1059.6</ele>
        <time>2019-11-03T09:23:22Z</time>
      </trkpt>
      <trkpt lat="38.4712140" lon="-2.5518780">
        <ele>1059.6</ele>
        <time>2019-11-03T09:23:23Z</time>
      </trkpt>
      <trkpt lat="38.4711450" lon="-2.5517480">
        <ele>1059.6</ele>
        <time>2019-11-03T09:23:25Z</time>
      </trkpt>
      <trkpt lat="38.4711120" lon="-2.5516840">
        <ele>1059.6</ele>
        <time>2019-11-03T09:23:26Z</time>
      </trkpt>
      <trkpt lat="38.4710760" lon="-2.5516120">
        <ele>1059.6</ele>
        <time>2019-11-03T09:23:27Z</time>
      </trkpt>
      <trkpt lat="38.4710430" lon="-2.5515300">
        <ele>1059.6</ele>
        <time>2019-11-03T09:23:28Z</time>
      </trkpt>
      <trkpt lat="38.4710200" lon="-2.5514600">
        <ele>1059.6</ele>
        <time>2019-11-03T09:23:29Z</time>
      </trkpt>
      <trkpt lat="38.4709940" lon="-2.5513840">
        <ele>1059.6</ele>
        <time>2019-11-03T09:23:30Z</time>
      </trkpt>
      <trkpt lat="38.4709710" lon="-2.5513050">
        <ele>1059.6</ele>
        <time>2019-11-03T09:23:31Z</time>
      </trkpt>
      <trkpt lat="38.4709480" lon="-2.5512300">
        <ele>1059.6</ele>
        <time>2019-11-03T09:23:32Z</time>
      </trkpt>
      <trkpt lat="38.4709320" lon="-2.5511550">
        <ele>1059.6</ele>
        <time>2019-11-03T09:23:33Z</time>
      </trkpt>
      <trkpt lat="38.4709120" lon="-2.5510850">
        <ele>1059.6</ele>
        <time>2019-11-03T09:23:34Z</time>
      </trkpt>
      <trkpt lat="38.4708970" lon="-2.5510150">
        <ele>1059.6</ele>
        <time>2019-11-03T09:23:35Z</time>
      </trkpt>
      <trkpt lat="38.4708810" lon="-2.5509390">
        <ele>1059.6</ele>
        <time>2019-11-03T09:23:36Z</time>
      </trkpt>
      <trkpt lat="38.4708630" lon="-2.5508630">
        <ele>1059.6</ele>
        <time>2019-11-03T09:23:37Z</time>
      </trkpt>
      <trkpt lat="38.4708450" lon="-2.5507880">
        <ele>1059.6</ele>
        <time>2019-11-03T09:23:38Z</time>
      </trkpt>
      <trkpt lat="38.4708250" lon="-2.5507180">
        <ele>1059.6</ele>
        <time>2019-11-03T09:23:39Z</time>
      </trkpt>
      <trkpt lat="38.4708020" lon="-2.5506450">
        <ele>1059.6</ele>
        <time>2019-11-03T09:23:40Z</time>
      </trkpt>
      <trkpt lat="38.4707760" lon="-2.5505750">
        <ele>1059.6</ele>
        <time>2019-11-03T09:23:41Z</time>
      </trkpt>
      <trkpt lat="38.4707480" lon="-2.5505110">
        <ele>1059.6</ele>
        <time>2019-11-03T09:23:42Z</time>
      </trkpt>
      <trkpt lat="38.4707170" lon="-2.5504460">
        <ele>1059.6</ele>
        <time>2019-11-03T09:23:43Z</time>
      </trkpt>
      <trkpt lat="38.4706870" lon="-2.5503900">
        <ele>1059.6</ele>
        <time>2019-11-03T09:23:44Z</time>
      </trkpt>
      <trkpt lat="38.4706150" lon="-2.5502830">
        <ele>1059.6</ele>
        <time>2019-11-03T09:23:46Z</time>
      </trkpt>
      <trkpt lat="38.4705770" lon="-2.5502370">
        <ele>1059.6</ele>
        <time>2019-11-03T09:23:47Z</time>
      </trkpt>
      <trkpt lat="38.4705380" lon="-2.5501960">
        <ele>1059.6</ele>
        <time>2019-11-03T09:23:48Z</time>
      </trkpt>
      <trkpt lat="38.4704560" lon="-2.5501300">
        <ele>1059.6</ele>
        <time>2019-11-03T09:23:50Z</time>
      </trkpt>
      <trkpt lat="38.4703670" lon="-2.5500790">
        <ele>1059.6</ele>
        <time>2019-11-03T09:23:52Z</time>
      </trkpt>
      <trkpt lat="38.4702820" lon="-2.5500380">
        <ele>1059.6</ele>
        <time>2019-11-03T09:23:54Z</time>
      </trkpt>
      <trkpt lat="38.4702110" lon="-2.5499970">
        <ele>1059.6</ele>
        <time>2019-11-03T09:23:56Z</time>
      </trkpt>
      <trkpt lat="38.4701160" lon="-2.5499250">
        <ele>1059.6</ele>
        <time>2019-11-03T09:23:59Z</time>
      </trkpt>
      <trkpt lat="38.4700620" lon="-2.5498610">
        <ele>1060.8</ele>
        <time>2019-11-03T09:24:01Z</time>
      </trkpt>
      <trkpt lat="38.4700160" lon="-2.5497830">
        <ele>1060.8</ele>
        <time>2019-11-03T09:24:03Z</time>
      </trkpt>
      <trkpt lat="38.4699780" lon="-2.5496930">
        <ele>1060.8</ele>
        <time>2019-11-03T09:24:05Z</time>
      </trkpt>
      <trkpt lat="38.4699520" lon="-2.5495960">
        <ele>1060.8</ele>
        <time>2019-11-03T09:24:07Z</time>
      </trkpt>
      <trkpt lat="38.4699390" lon="-2.5494930">
        <ele>1062.3</ele>
        <time>2019-11-03T09:24:09Z</time>
      </trkpt>
      <trkpt lat="38.4699440" lon="-2.5493990">
        <ele>1062.3</ele>
        <time>2019-11-03T09:24:11Z</time>
      </trkpt>
      <trkpt lat="38.4699670" lon="-2.5493080">
        <ele>1062.3</ele>
        <time>2019-11-03T09:24:13Z</time>
      </trkpt>
      <trkpt lat="38.4700010" lon="-2.5492180">
        <ele>1062.3</ele>
        <time>2019-11-03T09:24:15Z</time>
      </trkpt>
      <trkpt lat="38.4700440" lon="-2.5491310">
        <ele>1062.3</ele>
        <time>2019-11-03T09:24:17Z</time>
      </trkpt>
      <trkpt lat="38.4700950" lon="-2.5490430">
        <ele>1062.3</ele>
        <time>2019-11-03T09:24:19Z</time>
      </trkpt>
      <trkpt lat="38.4701540" lon="-2.5489510">
        <ele>1062.3</ele>
        <time>2019-11-03T09:24:21Z</time>
      </trkpt>
      <trkpt lat="38.4702160" lon="-2.5488500">
        <ele>1062.3</ele>
        <time>2019-11-03T09:24:23Z</time>
      </trkpt>
      <trkpt lat="38.4702770" lon="-2.5487310">
        <ele>1062.3</ele>
        <time>2019-11-03T09:24:25Z</time>
      </trkpt>
      <trkpt lat="38.4703050" lon="-2.5486670">
        <ele>1060.9</ele>
        <time>2019-11-03T09:24:26Z</time>
      </trkpt>
      <trkpt lat="38.4703280" lon="-2.5486030">
        <ele>1060.9</ele>
        <time>2019-11-03T09:24:27Z</time>
      </trkpt>
      <trkpt lat="38.4703510" lon="-2.5485360">
        <ele>1060.9</ele>
        <time>2019-11-03T09:24:28Z</time>
      </trkpt>
      <trkpt lat="38.4703740" lon="-2.5484690">
        <ele>1060.9</ele>
        <time>2019-11-03T09:24:29Z</time>
      </trkpt>
      <trkpt lat="38.4703950" lon="-2.5483880">
        <ele>1059.5</ele>
        <time>2019-11-03T09:24:30Z</time>
      </trkpt>
      <trkpt lat="38.4704130" lon="-2.5483090">
        <ele>1059.5</ele>
        <time>2019-11-03T09:24:31Z</time>
      </trkpt>
      <trkpt lat="38.4704330" lon="-2.5482340">
        <ele>1059.5</ele>
        <time>2019-11-03T09:24:32Z</time>
      </trkpt>
      <trkpt lat="38.4704490" lon="-2.5481560">
        <ele>1059.5</ele>
        <time>2019-11-03T09:24:33Z</time>
      </trkpt>
      <trkpt lat="38.4704640" lon="-2.5480770">
        <ele>1059.5</ele>
        <time>2019-11-03T09:24:34Z</time>
      </trkpt>
      <trkpt lat="38.4704770" lon="-2.5479900">
        <ele>1058.4</ele>
        <time>2019-11-03T09:24:35Z</time>
      </trkpt>
      <trkpt lat="38.4704920" lon="-2.5479030">
        <ele>1058.4</ele>
        <time>2019-11-03T09:24:36Z</time>
      </trkpt>
      <trkpt lat="38.4704970" lon="-2.5478070">
        <ele>1058.4</ele>
        <time>2019-11-03T09:24:37Z</time>
      </trkpt>
      <trkpt lat="38.4705050" lon="-2.5477130">
        <ele>1058.4</ele>
        <time>2019-11-03T09:24:38Z</time>
      </trkpt>
      <trkpt lat="38.4705200" lon="-2.5476160">
        <ele>1056.9</ele>
        <time>2019-11-03T09:24:39Z</time>
      </trkpt>
      <trkpt lat="38.4705360" lon="-2.5475180">
        <ele>1056.9</ele>
        <time>2019-11-03T09:24:40Z</time>
      </trkpt>
      <trkpt lat="38.4705460" lon="-2.5474240">
        <ele>1056.9</ele>
        <time>2019-11-03T09:24:41Z</time>
      </trkpt>
      <trkpt lat="38.4705460" lon="-2.5473190">
        <ele>1055.5</ele>
        <time>2019-11-03T09:24:42Z</time>
      </trkpt>
      <trkpt lat="38.4705360" lon="-2.5472170">
        <ele>1055.5</ele>
        <time>2019-11-03T09:24:43Z</time>
      </trkpt>
      <trkpt lat="38.4705200" lon="-2.5471180">
        <ele>1054.4</ele>
        <time>2019-11-03T09:24:44Z</time>
      </trkpt>
      <trkpt lat="38.4704970" lon="-2.5470220">
        <ele>1054.4</ele>
        <time>2019-11-03T09:24:45Z</time>
      </trkpt>
      <trkpt lat="38.4704720" lon="-2.5469270">
        <ele>1053.2</ele>
        <time>2019-11-03T09:24:46Z</time>
      </trkpt>
      <trkpt lat="38.4704490" lon="-2.5468280">
        <ele>1053.2</ele>
        <time>2019-11-03T09:24:47Z</time>
      </trkpt>
      <trkpt lat="38.4704280" lon="-2.5467280">
        <ele>1051.7</ele>
        <time>2019-11-03T09:24:48Z</time>
      </trkpt>
      <trkpt lat="38.4704130" lon="-2.5466280">
        <ele>1051.7</ele>
        <time>2019-11-03T09:24:49Z</time>
      </trkpt>
      <trkpt lat="38.4704030" lon="-2.5465300">
        <ele>1051.7</ele>
        <time>2019-11-03T09:24:50Z</time>
      </trkpt>
      <trkpt lat="38.4703950" lon="-2.5464320">
        <ele>1050.1</ele>
        <time>2019-11-03T09:24:51Z</time>
      </trkpt>
      <trkpt lat="38.4703900" lon="-2.5463390">
        <ele>1050.1</ele>
        <time>2019-11-03T09:24:52Z</time>
      </trkpt>
      <trkpt lat="38.4703900" lon="-2.5462330">
        <ele>1048.9</ele>
        <time>2019-11-03T09:24:53Z</time>
      </trkpt>
      <trkpt lat="38.4703950" lon="-2.5461280">
        <ele>1048.9</ele>
        <time>2019-11-03T09:24:54Z</time>
      </trkpt>
      <trkpt lat="38.4704030" lon="-2.5460190">
        <ele>1047.6</ele>
        <time>2019-11-03T09:24:55Z</time>
      </trkpt>
      <trkpt lat="38.4704130" lon="-2.5459110">
        <ele>1047.6</ele>
        <time>2019-11-03T09:24:56Z</time>
      </trkpt>
      <trkpt lat="38.4704260" lon="-2.5458020">
        <ele>1046.4</ele>
        <time>2019-11-03T09:24:57Z</time>
      </trkpt>
      <trkpt lat="38.4704360" lon="-2.5456930">
        <ele>1046.4</ele>
        <time>2019-11-03T09:24:58Z</time>
      </trkpt>
      <trkpt lat="38.4704490" lon="-2.5455830">
        <ele>1046.4</ele>
        <time>2019-11-03T09:24:59Z</time>
      </trkpt>
      <trkpt lat="38.4704640" lon="-2.5454810">
        <ele>1044.6</ele>
        <time>2019-11-03T09:25:00Z</time>
      </trkpt>
      <trkpt lat="38.4704740" lon="-2.5453800">
        <ele>1044.6</ele>
        <time>2019-11-03T09:25:01Z</time>
      </trkpt>
      <trkpt lat="38.4704900" lon="-2.5452700">
        <ele>1043.4</ele>
        <time>2019-11-03T09:25:02Z</time>
      </trkpt>
      <trkpt lat="38.4705000" lon="-2.5451720">
        <ele>1043.4</ele>
        <time>2019-11-03T09:25:03Z</time>
      </trkpt>
      <trkpt lat="38.4705150" lon="-2.5450750">
        <ele>1042.3</ele>
        <time>2019-11-03T09:25:04Z</time>
      </trkpt>
      <trkpt lat="38.4705380" lon="-2.5449720">
        <ele>1042.3</ele>
        <time>2019-11-03T09:25:05Z</time>
      </trkpt>
      <trkpt lat="38.4705610" lon="-2.5448740">
        <ele>1042.3</ele>
        <time>2019-11-03T09:25:06Z</time>
      </trkpt>
      <trkpt lat="38.4705840" lon="-2.5447850">
        <ele>1040.8</ele>
        <time>2019-11-03T09:25:07Z</time>
      </trkpt>
      <trkpt lat="38.4706150" lon="-2.5446870">
        <ele>1040.8</ele>
        <time>2019-11-03T09:25:08Z</time>
      </trkpt>
      <trkpt lat="38.4706460" lon="-2.5445890">
        <ele>1040.8</ele>
        <time>2019-11-03T09:25:09Z</time>
      </trkpt>
      <trkpt lat="38.4706840" lon="-2.5444940">
        <ele>1039.6</ele>
        <time>2019-11-03T09:25:10Z</time>
      </trkpt>
      <trkpt lat="38.4707250" lon="-2.5443980">
        <ele>1039.6</ele>
        <time>2019-11-03T09:25:11Z</time>
      </trkpt>
      <trkpt lat="38.4707710" lon="-2.5443010">
        <ele>1039.6</ele>
        <time>2019-11-03T09:25:12Z</time>
      </trkpt>
      <trkpt lat="38.4708150" lon="-2.5442090">
        <ele>1038.4</ele>
        <time>2019-11-03T09:25:13Z</time>
      </trkpt>
      <trkpt lat="38.4708610" lon="-2.5441080">
        <ele>1038.4</ele>
        <time>2019-11-03T09:25:14Z</time>
      </trkpt>
      <trkpt lat="38.4709040" lon="-2.5440080">
        <ele>1038.4</ele>
        <time>2019-11-03T09:25:15Z</time>
      </trkpt>
      <trkpt lat="38.4709430" lon="-2.5439100">
        <ele>1036.9</ele>
        <time>2019-11-03T09:25:16Z</time>
      </trkpt>
      <trkpt lat="38.4709890" lon="-2.5438120">
        <ele>1036.9</ele>
        <time>2019-11-03T09:25:17Z</time>
      </trkpt>
      <trkpt lat="38.4710270" lon="-2.5437240">
        <ele>1035.7</ele>
        <time>2019-11-03T09:25:18Z</time>
      </trkpt>
      <trkpt lat="38.4710730" lon="-2.5436280">
        <ele>1035.7</ele>
        <time>2019-11-03T09:25:19Z</time>
      </trkpt>
      <trkpt lat="38.4711190" lon="-2.5435330">
        <ele>1034.5</ele>
        <time>2019-11-03T09:25:20Z</time>
      </trkpt>
      <trkpt lat="38.4711650" lon="-2.5434380">
        <ele>1034.5</ele>
        <time>2019-11-03T09:25:21Z</time>
      </trkpt>
      <trkpt lat="38.4712060" lon="-2.5433490">
        <ele>1033.4</ele>
        <time>2019-11-03T09:25:22Z</time>
      </trkpt>
      <trkpt lat="38.4712450" lon="-2.5432580">
        <ele>1033.4</ele>
        <time>2019-11-03T09:25:23Z</time>
      </trkpt>
      <trkpt lat="38.4712910" lon="-2.5431580">
        <ele>1033.4</ele>
        <time>2019-11-03T09:25:24Z</time>
      </trkpt>
      <trkpt lat="38.4713290" lon="-2.5430590">
        <ele>1031.7</ele>
        <time>2019-11-03T09:25:25Z</time>
      </trkpt>
      <trkpt lat="38.4713600" lon="-2.5429600">
        <ele>1031.7</ele>
        <time>2019-11-03T09:25:26Z</time>
      </trkpt>
      <trkpt lat="38.4713910" lon="-2.5428560">
        <ele>1031.7</ele>
        <time>2019-11-03T09:25:27Z</time>
      </trkpt>
      <trkpt lat="38.4714160" lon="-2.5427470">
        <ele>1030.1</ele>
        <time>2019-11-03T09:25:28Z</time>
      </trkpt>
      <trkpt lat="38.4714390" lon="-2.5426340">
        <ele>1030.1</ele>
        <time>2019-11-03T09:25:29Z</time>
      </trkpt>
      <trkpt lat="38.4714620" lon="-2.5425140">
        <ele>1028.6</ele>
        <time>2019-11-03T09:25:30Z</time>
      </trkpt>
      <trkpt lat="38.4714800" lon="-2.5423870">
        <ele>1028.6</ele>
        <time>2019-11-03T09:25:31Z</time>
      </trkpt>
      <trkpt lat="38.4715010" lon="-2.5422660">
        <ele>1027.1</ele>
        <time>2019-11-03T09:25:32Z</time>
      </trkpt>
      <trkpt lat="38.4715160" lon="-2.5421410">
        <ele>1027.1</ele>
        <time>2019-11-03T09:25:33Z</time>
      </trkpt>
      <trkpt lat="38.4715320" lon="-2.5420030">
        <ele>1025.5</ele>
        <time>2019-11-03T09:25:34Z</time>
      </trkpt>
      <trkpt lat="38.4715470" lon="-2.5418640">
        <ele>1025.5</ele>
        <time>2019-11-03T09:25:35Z</time>
      </trkpt>
      <trkpt lat="38.4715620" lon="-2.5417330">
        <ele>1023.9</ele>
        <time>2019-11-03T09:25:36Z</time>
      </trkpt>
      <trkpt lat="38.4715780" lon="-2.5415990">
        <ele>1023.9</ele>
        <time>2019-11-03T09:25:37Z</time>
      </trkpt>
      <trkpt lat="38.4715880" lon="-2.5414650">
        <ele>1022.6</ele>
        <time>2019-11-03T09:25:38Z</time>
      </trkpt>
      <trkpt lat="38.4716030" lon="-2.5413310">
        <ele>1022.6</ele>
        <time>2019-11-03T09:25:39Z</time>
      </trkpt>
      <trkpt lat="38.4716190" lon="-2.5411900">
        <ele>1022.6</ele>
        <time>2019-11-03T09:25:40Z</time>
      </trkpt>
      <trkpt lat="38.4716310" lon="-2.5410630">
        <ele>1021.4</ele>
        <time>2019-11-03T09:25:41Z</time>
      </trkpt>
      <trkpt lat="38.4716440" lon="-2.5409350">
        <ele>1021.4</ele>
        <time>2019-11-03T09:25:42Z</time>
      </trkpt>
      <trkpt lat="38.4716570" lon="-2.5408080">
        <ele>1021.4</ele>
        <time>2019-11-03T09:25:43Z</time>
      </trkpt>
      <trkpt lat="38.4716720" lon="-2.5406750">
        <ele>1021.4</ele>
        <time>2019-11-03T09:25:44Z</time>
      </trkpt>
      <trkpt lat="38.4716880" lon="-2.5405480">
        <ele>1020.2</ele>
        <time>2019-11-03T09:25:45Z</time>
      </trkpt>
      <trkpt lat="38.4717030" lon="-2.5404320">
        <ele>1020.2</ele>
        <time>2019-11-03T09:25:46Z</time>
      </trkpt>
      <trkpt lat="38.4717180" lon="-2.5403090">
        <ele>1020.2</ele>
        <time>2019-11-03T09:25:47Z</time>
      </trkpt>
      <trkpt lat="38.4717340" lon="-2.5401890">
        <ele>1020.2</ele>
        <time>2019-11-03T09:25:48Z</time>
      </trkpt>
      <trkpt lat="38.4717440" lon="-2.5400780">
        <ele>1020.2</ele>
        <time>2019-11-03T09:25:49Z</time>
      </trkpt>
      <trkpt lat="38.4717590" lon="-2.5399600">
        <ele>1020.2</ele>
        <time>2019-11-03T09:25:50Z</time>
      </trkpt>
      <trkpt lat="38.4717720" lon="-2.5398520">
        <ele>1020.2</ele>
        <time>2019-11-03T09:25:51Z</time>
      </trkpt>
      <trkpt lat="38.4717820" lon="-2.5397460">
        <ele>1020.2</ele>
        <time>2019-11-03T09:25:52Z</time>
      </trkpt>
      <trkpt lat="38.4717980" lon="-2.5396330">
        <ele>1020.2</ele>
        <time>2019-11-03T09:25:53Z</time>
      </trkpt>
      <trkpt lat="38.4718110" lon="-2.5395240">
        <ele>1020.2</ele>
        <time>2019-11-03T09:25:54Z</time>
      </trkpt>
      <trkpt lat="38.4718210" lon="-2.5394250">
        <ele>1020.2</ele>
        <time>2019-11-03T09:25:55Z</time>
      </trkpt>
      <trkpt lat="38.4718310" lon="-2.5393180">
        <ele>1020.2</ele>
        <time>2019-11-03T09:25:56Z</time>
      </trkpt>
      <trkpt lat="38.4718440" lon="-2.5392180">
        <ele>1020.2</ele>
        <time>2019-11-03T09:25:57Z</time>
      </trkpt>
      <trkpt lat="38.4718540" lon="-2.5391070">
        <ele>1018.9</ele>
        <time>2019-11-03T09:25:58Z</time>
      </trkpt>
      <trkpt lat="38.4718670" lon="-2.5389970">
        <ele>1018.9</ele>
        <time>2019-11-03T09:25:59Z</time>
      </trkpt>
      <trkpt lat="38.4718770" lon="-2.5388890">
        <ele>1018.9</ele>
        <time>2019-11-03T09:26:00Z</time>
      </trkpt>
      <trkpt lat="38.4718920" lon="-2.5387800">
        <ele>1018.9</ele>
        <time>2019-11-03T09:26:01Z</time>
      </trkpt>
      <trkpt lat="38.4719050" lon="-2.5386820">
        <ele>1018.9</ele>
        <time>2019-11-03T09:26:02Z</time>
      </trkpt>
      <trkpt lat="38.4719160" lon="-2.5385780">
        <ele>1018.9</ele>
        <time>2019-11-03T09:26:03Z</time>
      </trkpt>
      <trkpt lat="38.4719280" lon="-2.5384780">
        <ele>1018.9</ele>
        <time>2019-11-03T09:26:04Z</time>
      </trkpt>
      <trkpt lat="38.4719360" lon="-2.5383800">
        <ele>1018.9</ele>
        <time>2019-11-03T09:26:05Z</time>
      </trkpt>
      <trkpt lat="38.4719460" lon="-2.5382810">
        <ele>1018.9</ele>
        <time>2019-11-03T09:26:06Z</time>
      </trkpt>
      <trkpt lat="38.4719510" lon="-2.5381840">
        <ele>1018.9</ele>
        <time>2019-11-03T09:26:07Z</time>
      </trkpt>
      <trkpt lat="38.4719590" lon="-2.5380910">
        <ele>1018.9</ele>
        <time>2019-11-03T09:26:08Z</time>
      </trkpt>
      <trkpt lat="38.4719670" lon="-2.5379880">
        <ele>1018.9</ele>
        <time>2019-11-03T09:26:09Z</time>
      </trkpt>
      <trkpt lat="38.4719770" lon="-2.5378820">
        <ele>1018.9</ele>
        <time>2019-11-03T09:26:10Z</time>
      </trkpt>
      <trkpt lat="38.4719850" lon="-2.5377760">
        <ele>1020.2</ele>
        <time>2019-11-03T09:26:11Z</time>
      </trkpt>
      <trkpt lat="38.4719900" lon="-2.5376680">
        <ele>1020.2</ele>
        <time>2019-11-03T09:26:12Z</time>
      </trkpt>
      <trkpt lat="38.4719920" lon="-2.5375630">
        <ele>1020.2</ele>
        <time>2019-11-03T09:26:13Z</time>
      </trkpt>
      <trkpt lat="38.4719900" lon="-2.5374590">
        <ele>1020.2</ele>
        <time>2019-11-03T09:26:14Z</time>
      </trkpt>
      <trkpt lat="38.4719770" lon="-2.5373570">
        <ele>1020.2</ele>
        <time>2019-11-03T09:26:15Z</time>
      </trkpt>
      <trkpt lat="38.4719670" lon="-2.5372530">
        <ele>1020.2</ele>
        <time>2019-11-03T09:26:16Z</time>
      </trkpt>
      <trkpt lat="38.4719510" lon="-2.5371580">
        <ele>1020.2</ele>
        <time>2019-11-03T09:26:17Z</time>
      </trkpt>
      <trkpt lat="38.4719310" lon="-2.5370530">
        <ele>1020.2</ele>
        <time>2019-11-03T09:26:18Z</time>
      </trkpt>
      <trkpt lat="38.4719050" lon="-2.5369510">
        <ele>1020.2</ele>
        <time>2019-11-03T09:26:19Z</time>
      </trkpt>
      <trkpt lat="38.4718750" lon="-2.5368500">
        <ele>1020.2</ele>
        <time>2019-11-03T09:26:20Z</time>
      </trkpt>
      <trkpt lat="38.4718440" lon="-2.5367550">
        <ele>1020.2</ele>
        <time>2019-11-03T09:26:21Z</time>
      </trkpt>
      <trkpt lat="38.4718110" lon="-2.5366510">
        <ele>1020.2</ele>
        <time>2019-11-03T09:26:22Z</time>
      </trkpt>
      <trkpt lat="38.4717750" lon="-2.5365460">
        <ele>1020.2</ele>
        <time>2019-11-03T09:26:23Z</time>
      </trkpt>
      <trkpt lat="38.4717410" lon="-2.5364450">
        <ele>1020.2</ele>
        <time>2019-11-03T09:26:24Z</time>
      </trkpt>
      <trkpt lat="38.4717060" lon="-2.5363370">
        <ele>1020.2</ele>
        <time>2019-11-03T09:26:25Z</time>
      </trkpt>
      <trkpt lat="38.4716650" lon="-2.5362320">
        <ele>1020.2</ele>
        <time>2019-11-03T09:26:26Z</time>
      </trkpt>
      <trkpt lat="38.4716260" lon="-2.5361270">
        <ele>1020.2</ele>
        <time>2019-11-03T09:26:27Z</time>
      </trkpt>
      <trkpt lat="38.4715850" lon="-2.5360210">
        <ele>1020.2</ele>
        <time>2019-11-03T09:26:28Z</time>
      </trkpt>
      <trkpt lat="38.4715420" lon="-2.5359140">
        <ele>1020.2</ele>
        <time>2019-11-03T09:26:29Z</time>
      </trkpt>
      <trkpt lat="38.4714960" lon="-2.5358060">
        <ele>1020.2</ele>
        <time>2019-11-03T09:26:30Z</time>
      </trkpt>
      <trkpt lat="38.4714550" lon="-2.5356940">
        <ele>1020.2</ele>
        <time>2019-11-03T09:26:31Z</time>
      </trkpt>
      <trkpt lat="38.4714160" lon="-2.5355800">
        <ele>1020.2</ele>
        <time>2019-11-03T09:26:32Z</time>
      </trkpt>
      <trkpt lat="38.4713780" lon="-2.5354750">
        <ele>1020.2</ele>
        <time>2019-11-03T09:26:33Z</time>
      </trkpt>
      <trkpt lat="38.4713370" lon="-2.5353610">
        <ele>1020.2</ele>
        <time>2019-11-03T09:26:34Z</time>
      </trkpt>
      <trkpt lat="38.4712930" lon="-2.5352470">
        <ele>1020.2</ele>
        <time>2019-11-03T09:26:35Z</time>
      </trkpt>
      <trkpt lat="38.4712520" lon="-2.5351300">
        <ele>1020.2</ele>
        <time>2019-11-03T09:26:36Z</time>
      </trkpt>
      <trkpt lat="38.4712140" lon="-2.5350110">
        <ele>1020.2</ele>
        <time>2019-11-03T09:26:37Z</time>
      </trkpt>
      <trkpt lat="38.4711730" lon="-2.5348930">
        <ele>1020.2</ele>
        <time>2019-11-03T09:26:38Z</time>
      </trkpt>
      <trkpt lat="38.4711300" lon="-2.5347760">
        <ele>1020.2</ele>
        <time>2019-11-03T09:26:39Z</time>
      </trkpt>
      <trkpt lat="38.4710890" lon="-2.5346570">
        <ele>1020.2</ele>
        <time>2019-11-03T09:26:40Z</time>
      </trkpt>
      <trkpt lat="38.4710480" lon="-2.5345360">
        <ele>1020.2</ele>
        <time>2019-11-03T09:26:41Z</time>
      </trkpt>
      <trkpt lat="38.4710020" lon="-2.5344170">
        <ele>1020.2</ele>
        <time>2019-11-03T09:26:42Z</time>
      </trkpt>
      <trkpt lat="38.4709580" lon="-2.5343020">
        <ele>1020.2</ele>
        <time>2019-11-03T09:26:43Z</time>
      </trkpt>
      <trkpt lat="38.4709120" lon="-2.5341720">
        <ele>1020.2</ele>
        <time>2019-11-03T09:26:44Z</time>
      </trkpt>
      <trkpt lat="38.4708660" lon="-2.5340420">
        <ele>1020.2</ele>
        <time>2019-11-03T09:26:45Z</time>
      </trkpt>
      <trkpt lat="38.4708170" lon="-2.5339080">
        <ele>1020.2</ele>
        <time>2019-11-03T09:26:46Z</time>
      </trkpt>
      <trkpt lat="38.4707710" lon="-2.5337830">
        <ele>1020.2</ele>
        <time>2019-11-03T09:26:47Z</time>
      </trkpt>
      <trkpt lat="38.4707150" lon="-2.5336570">
        <ele>1020.2</ele>
        <time>2019-11-03T09:26:48Z</time>
      </trkpt>
      <trkpt lat="38.4706280" lon="-2.5335420">
        <ele>1020.2</ele>
        <time>2019-11-03T09:26:49Z</time>
      </trkpt>
      <trkpt lat="38.4705230" lon="-2.5334340">
        <ele>1020.2</ele>
        <time>2019-11-03T09:26:50Z</time>
      </trkpt>
      <trkpt lat="38.4704330" lon="-2.5333470">
        <ele>1020.2</ele>
        <time>2019-11-03T09:26:51Z</time>
      </trkpt>
      <trkpt lat="38.4703210" lon="-2.5332590">
        <ele>1020.2</ele>
        <time>2019-11-03T09:26:52Z</time>
      </trkpt>
      <trkpt lat="38.4702080" lon="-2.5331780">
        <ele>1020.2</ele>
        <time>2019-11-03T09:26:53Z</time>
      </trkpt>
      <trkpt lat="38.4700850" lon="-2.5331010">
        <ele>1012.5</ele>
        <time>2019-11-03T09:26:54Z</time>
      </trkpt>
      <trkpt lat="38.4699620" lon="-2.5330260">
        <ele>1006.5</ele>
        <time>2019-11-03T09:26:55Z</time>
      </trkpt>
      <trkpt lat="38.4698340" lon="-2.5329540">
        <ele>1001.9</ele>
        <time>2019-11-03T09:26:56Z</time>
      </trkpt>
      <trkpt lat="38.4697060" lon="-2.5328860">
        <ele>998.4</ele>
        <time>2019-11-03T09:26:57Z</time>
      </trkpt>
      <trkpt lat="38.4695810" lon="-2.5328170">
        <ele>995.5</ele>
        <time>2019-11-03T09:26:58Z</time>
      </trkpt>
      <trkpt lat="38.4694630" lon="-2.5327530">
        <ele>993.1</ele>
        <time>2019-11-03T09:26:59Z</time>
      </trkpt>
      <trkpt lat="38.4693320" lon="-2.5326840">
        <ele>991.2</ele>
        <time>2019-11-03T09:27:00Z</time>
      </trkpt>
      <trkpt lat="38.4692070" lon="-2.5326150">
        <ele>989.7</ele>
        <time>2019-11-03T09:27:01Z</time>
      </trkpt>
      <trkpt lat="38.4690790" lon="-2.5325490">
        <ele>988.5</ele>
        <time>2019-11-03T09:27:02Z</time>
      </trkpt>
      <trkpt lat="38.4689560" lon="-2.5324880">
        <ele>988.5</ele>
        <time>2019-11-03T09:27:03Z</time>
      </trkpt>
      <trkpt lat="38.4688260" lon="-2.5324210">
        <ele>986.7</ele>
        <time>2019-11-03T09:27:04Z</time>
      </trkpt>
      <trkpt lat="38.4687000" lon="-2.5323530">
        <ele>986.7</ele>
        <time>2019-11-03T09:27:05Z</time>
      </trkpt>
      <trkpt lat="38.4685770" lon="-2.5322910">
        <ele>985.1</ele>
        <time>2019-11-03T09:27:06Z</time>
      </trkpt>
      <trkpt lat="38.4684520" lon="-2.5322200">
        <ele>985.1</ele>
        <time>2019-11-03T09:27:07Z</time>
      </trkpt>
      <trkpt lat="38.4683240" lon="-2.5321510">
        <ele>983.5</ele>
        <time>2019-11-03T09:27:08Z</time>
      </trkpt>
      <trkpt lat="38.4681930" lon="-2.5320850">
        <ele>983.5</ele>
        <time>2019-11-03T09:27:09Z</time>
      </trkpt>
      <trkpt lat="38.4680680" lon="-2.5320220">
        <ele>981.5</ele>
        <time>2019-11-03T09:27:10Z</time>
      </trkpt>
      <trkpt lat="38.4679370" lon="-2.5319620">
        <ele>981.5</ele>
        <time>2019-11-03T09:27:11Z</time>
      </trkpt>
      <trkpt lat="38.4678070" lon="-2.5319070">
        <ele>979.5</ele>
        <time>2019-11-03T09:27:12Z</time>
      </trkpt>
      <trkpt lat="38.4676710" lon="-2.5318500">
        <ele>979.5</ele>
        <time>2019-11-03T09:27:13Z</time>
      </trkpt>
      <trkpt lat="38.4675380" lon="-2.5317980">
        <ele>977.5</ele>
        <time>2019-11-03T09:27:14Z</time>
      </trkpt>
      <trkpt lat="38.4674020" lon="-2.5317500">
        <ele>977.5</ele>
        <time>2019-11-03T09:27:15Z</time>
      </trkpt>
      <trkpt lat="38.4672820" lon="-2.5317090">
        <ele>975.3</ele>
        <time>2019-11-03T09:27:16Z</time>
      </trkpt>
      <trkpt lat="38.4671510" lon="-2.5316660">
        <ele>973.9</ele>
        <time>2019-11-03T09:27:17Z</time>
      </trkpt>
      <trkpt lat="38.4670340" lon="-2.5316290">
        <ele>973.9</ele>
        <time>2019-11-03T09:27:18Z</time>
      </trkpt>
      <trkpt lat="38.4669110" lon="-2.5315880">
        <ele>972.1</ele>
        <time>2019-11-03T09:27:19Z</time>
      </trkpt>
      <trkpt lat="38.4667980" lon="-2.5315510">
        <ele>972.1</ele>
        <time>2019-11-03T09:27:20Z</time>
      </trkpt>
      <trkpt lat="38.4666930" lon="-2.5315210">
        <ele>972.1</ele>
        <time>2019-11-03T09:27:21Z</time>
      </trkpt>
      <trkpt lat="38.4665800" lon="-2.5314880">
        <ele>970.6</ele>
        <time>2019-11-03T09:27:22Z</time>
      </trkpt>
      <trkpt lat="38.4664650" lon="-2.5314560">
        <ele>970.6</ele>
        <time>2019-11-03T09:27:23Z</time>
      </trkpt>
      <trkpt lat="38.4663550" lon="-2.5314250">
        <ele>970.6</ele>
        <time>2019-11-03T09:27:24Z</time>
      </trkpt>
      <trkpt lat="38.4662430" lon="-2.5313920">
        <ele>970.6</ele>
        <time>2019-11-03T09:27:25Z</time>
      </trkpt>
      <trkpt lat="38.4661380" lon="-2.5313530">
        <ele>970.6</ele>
        <time>2019-11-03T09:27:26Z</time>
      </trkpt>
      <trkpt lat="38.4660380" lon="-2.5313110">
        <ele>968.5</ele>
        <time>2019-11-03T09:27:27Z</time>
      </trkpt>
      <trkpt lat="38.4659280" lon="-2.5312330">
        <ele>968.5</ele>
        <time>2019-11-03T09:27:28Z</time>
      </trkpt>
      <trkpt lat="38.4658330" lon="-2.5311500">
        <ele>966.8</ele>
        <time>2019-11-03T09:27:29Z</time>
      </trkpt>
      <trkpt lat="38.4657410" lon="-2.5310600">
        <ele>966.8</ele>
        <time>2019-11-03T09:27:30Z</time>
      </trkpt>
      <trkpt lat="38.4656590" lon="-2.5309620">
        <ele>966.8</ele>
        <time>2019-11-03T09:27:31Z</time>
      </trkpt>
      <trkpt lat="38.4655920" lon="-2.5308640">
        <ele>965.6</ele>
        <time>2019-11-03T09:27:32Z</time>
      </trkpt>
      <trkpt lat="38.4655560" lon="-2.5307330">
        <ele>965.6</ele>
        <time>2019-11-03T09:27:33Z</time>
      </trkpt>
      <trkpt lat="38.4655310" lon="-2.5306070">
        <ele>965.6</ele>
        <time>2019-11-03T09:27:34Z</time>
      </trkpt>
      <trkpt lat="38.4655030" lon="-2.5304750">
        <ele>965.6</ele>
        <time>2019-11-03T09:27:35Z</time>
      </trkpt>
      <trkpt lat="38.4654850" lon="-2.5303400">
        <ele>965.6</ele>
        <time>2019-11-03T09:27:36Z</time>
      </trkpt>
      <trkpt lat="38.4654640" lon="-2.5301920">
        <ele>965.6</ele>
        <time>2019-11-03T09:27:37Z</time>
      </trkpt>
      <trkpt lat="38.4654540" lon="-2.5300450">
        <ele>965.6</ele>
        <time>2019-11-03T09:27:38Z</time>
      </trkpt>
      <trkpt lat="38.4654460" lon="-2.5298980">
        <ele>965.6</ele>
        <time>2019-11-03T09:27:39Z</time>
      </trkpt>
      <trkpt lat="38.4654310" lon="-2.5297550">
        <ele>965.6</ele>
        <time>2019-11-03T09:27:40Z</time>
      </trkpt>
      <trkpt lat="38.4654080" lon="-2.5296120">
        <ele>964.5</ele>
        <time>2019-11-03T09:27:41Z</time>
      </trkpt>
      <trkpt lat="38.4653670" lon="-2.5294940">
        <ele>964.5</ele>
        <time>2019-11-03T09:27:42Z</time>
      </trkpt>
      <trkpt lat="38.4653160" lon="-2.5293740">
        <ele>964.5</ele>
        <time>2019-11-03T09:27:43Z</time>
      </trkpt>
      <trkpt lat="38.4652440" lon="-2.5292650">
        <ele>962.4</ele>
        <time>2019-11-03T09:27:44Z</time>
      </trkpt>
      <trkpt lat="38.4651650" lon="-2.5291640">
        <ele>960.9</ele>
        <time>2019-11-03T09:27:45Z</time>
      </trkpt>
      <trkpt lat="38.4650830" lon="-2.5290900">
        <ele>959.6</ele>
        <time>2019-11-03T09:27:46Z</time>
      </trkpt>
      <trkpt lat="38.4649960" lon="-2.5290260">
        <ele>959.6</ele>
        <time>2019-11-03T09:27:47Z</time>
      </trkpt>
      <trkpt lat="38.4648930" lon="-2.5289850">
        <ele>957.6</ele>
        <time>2019-11-03T09:27:48Z</time>
      </trkpt>
      <trkpt lat="38.4647860" lon="-2.5289590">
        <ele>957.6</ele>
        <time>2019-11-03T09:27:49Z</time>
      </trkpt>
      <trkpt lat="38.4645730" lon="-2.5289490">
        <ele>955.8</ele>
        <time>2019-11-03T09:27:51Z</time>
      </trkpt>
      <trkpt lat="38.4643560" lon="-2.5289830">
        <ele>954.5</ele>
        <time>2019-11-03T09:27:53Z</time>
      </trkpt>
      <trkpt lat="38.4642460" lon="-2.5290060">
        <ele>952.8</ele>
        <time>2019-11-03T09:27:54Z</time>
      </trkpt>
      <trkpt lat="38.4641380" lon="-2.5290300">
        <ele>952.8</ele>
        <time>2019-11-03T09:27:55Z</time>
      </trkpt>
      <trkpt lat="38.4640360" lon="-2.5290470">
        <ele>952.8</ele>
        <time>2019-11-03T09:27:56Z</time>
      </trkpt>
      <trkpt lat="38.4639160" lon="-2.5290660">
        <ele>951.5</ele>
        <time>2019-11-03T09:27:57Z</time>
      </trkpt>
      <trkpt lat="38.4638110" lon="-2.5290440">
        <ele>951.5</ele>
        <time>2019-11-03T09:27:58Z</time>
      </trkpt>
      <trkpt lat="38.4637110" lon="-2.5290060">
        <ele>951.5</ele>
        <time>2019-11-03T09:27:59Z</time>
      </trkpt>
      <trkpt lat="38.4636160" lon="-2.5289510">
        <ele>951.5</ele>
        <time>2019-11-03T09:28:00Z</time>
      </trkpt>
      <trkpt lat="38.4635240" lon="-2.5288820">
        <ele>951.5</ele>
        <time>2019-11-03T09:28:01Z</time>
      </trkpt>
      <trkpt lat="38.4634370" lon="-2.5288000">
        <ele>951.5</ele>
        <time>2019-11-03T09:28:02Z</time>
      </trkpt>
      <trkpt lat="38.4633470" lon="-2.5287080">
        <ele>951.5</ele>
        <time>2019-11-03T09:28:03Z</time>
      </trkpt>
      <trkpt lat="38.4632650" lon="-2.5286090">
        <ele>951.5</ele>
        <time>2019-11-03T09:28:04Z</time>
      </trkpt>
      <trkpt lat="38.4631830" lon="-2.5285030">
        <ele>951.5</ele>
        <time>2019-11-03T09:28:05Z</time>
      </trkpt>
      <trkpt lat="38.4631120" lon="-2.5283990">
        <ele>951.5</ele>
        <time>2019-11-03T09:28:06Z</time>
      </trkpt>
      <trkpt lat="38.4630400" lon="-2.5282730">
        <ele>951.5</ele>
        <time>2019-11-03T09:28:07Z</time>
      </trkpt>
      <trkpt lat="38.4629790" lon="-2.5281530">
        <ele>951.5</ele>
        <time>2019-11-03T09:28:08Z</time>
      </trkpt>
      <trkpt lat="38.4629250" lon="-2.5280120">
        <ele>951.5</ele>
        <time>2019-11-03T09:28:09Z</time>
      </trkpt>
      <trkpt lat="38.4628790" lon="-2.5278680">
        <ele>951.5</ele>
        <time>2019-11-03T09:28:10Z</time>
      </trkpt>
      <trkpt lat="38.4628480" lon="-2.5277170">
        <ele>951.5</ele>
        <time>2019-11-03T09:28:11Z</time>
      </trkpt>
      <trkpt lat="38.4628250" lon="-2.5275610">
        <ele>951.5</ele>
        <time>2019-11-03T09:28:12Z</time>
      </trkpt>
      <trkpt lat="38.4628150" lon="-2.5274030">
        <ele>951.5</ele>
        <time>2019-11-03T09:28:13Z</time>
      </trkpt>
      <trkpt lat="38.4628070" lon="-2.5272420">
        <ele>951.5</ele>
        <time>2019-11-03T09:28:14Z</time>
      </trkpt>
      <trkpt lat="38.4628020" lon="-2.5270880">
        <ele>951.5</ele>
        <time>2019-11-03T09:28:15Z</time>
      </trkpt>
      <trkpt lat="38.4627990" lon="-2.5269160">
        <ele>951.5</ele>
        <time>2019-11-03T09:28:16Z</time>
      </trkpt>
      <trkpt lat="38.4627990" lon="-2.5267450">
        <ele>951.5</ele>
        <time>2019-11-03T09:28:17Z</time>
      </trkpt>
      <trkpt lat="38.4627990" lon="-2.5265750">
        <ele>951.5</ele>
        <time>2019-11-03T09:28:18Z</time>
      </trkpt>
      <trkpt lat="38.4627990" lon="-2.5264090">
        <ele>951.5</ele>
        <time>2019-11-03T09:28:19Z</time>
      </trkpt>
      <trkpt lat="38.4627940" lon="-2.5262490">
        <ele>951.5</ele>
        <time>2019-11-03T09:28:20Z</time>
      </trkpt>
      <trkpt lat="38.4627840" lon="-2.5260920">
        <ele>950.3</ele>
        <time>2019-11-03T09:28:21Z</time>
      </trkpt>
      <trkpt lat="38.4627640" lon="-2.5259390">
        <ele>945.1</ele>
        <time>2019-11-03T09:28:22Z</time>
      </trkpt>
      <trkpt lat="38.4627350" lon="-2.5257870">
        <ele>941.8</ele>
        <time>2019-11-03T09:28:23Z</time>
      </trkpt>
      <trkpt lat="38.4627070" lon="-2.5256460">
        <ele>939.4</ele>
        <time>2019-11-03T09:28:24Z</time>
      </trkpt>
      <trkpt lat="38.4626690" lon="-2.5255060">
        <ele>937.5</ele>
        <time>2019-11-03T09:28:25Z</time>
      </trkpt>
      <trkpt lat="38.4626200" lon="-2.5253600">
        <ele>936.1</ele>
        <time>2019-11-03T09:28:26Z</time>
      </trkpt>
      <trkpt lat="38.4625740" lon="-2.5252210">
        <ele>936.1</ele>
        <time>2019-11-03T09:28:27Z</time>
      </trkpt>
      <trkpt lat="38.4625250" lon="-2.5250710">
        <ele>934.2</ele>
        <time>2019-11-03T09:28:28Z</time>
      </trkpt>
      <trkpt lat="38.4624720" lon="-2.5249230">
        <ele>934.2</ele>
        <time>2019-11-03T09:28:29Z</time>
      </trkpt>
      <trkpt lat="38.4624260" lon="-2.5247860">
        <ele>932.5</ele>
        <time>2019-11-03T09:28:30Z</time>
      </trkpt>
      <trkpt lat="38.4623740" lon="-2.5246340">
        <ele>932.5</ele>
        <time>2019-11-03T09:28:31Z</time>
      </trkpt>
      <trkpt lat="38.4623310" lon="-2.5244930">
        <ele>931.3</ele>
        <time>2019-11-03T09:28:32Z</time>
      </trkpt>
      <trkpt lat="38.4622800" lon="-2.5243410">
        <ele>931.3</ele>
        <time>2019-11-03T09:28:33Z</time>
      </trkpt>
      <trkpt lat="38.4622310" lon="-2.5241910">
        <ele>931.3</ele>
        <time>2019-11-03T09:28:34Z</time>
      </trkpt>
      <trkpt lat="38.4621800" lon="-2.5240440">
        <ele>930.1</ele>
        <time>2019-11-03T09:28:35Z</time>
      </trkpt>
      <trkpt lat="38.4621360" lon="-2.5239000">
        <ele>930.1</ele>
        <time>2019-11-03T09:28:36Z</time>
      </trkpt>
      <trkpt lat="38.4620850" lon="-2.5237570">
        <ele>930.1</ele>
        <time>2019-11-03T09:28:37Z</time>
      </trkpt>
      <trkpt lat="38.4620360" lon="-2.5236130">
        <ele>930.1</ele>
        <time>2019-11-03T09:28:38Z</time>
      </trkpt>
      <trkpt lat="38.4619850" lon="-2.5234720">
        <ele>930.1</ele>
        <time>2019-11-03T09:28:39Z</time>
      </trkpt>
      <trkpt lat="38.4619440" lon="-2.5233430">
        <ele>930.1</ele>
        <time>2019-11-03T09:28:40Z</time>
      </trkpt>
      <trkpt lat="38.4619030" lon="-2.5232090">
        <ele>930.1</ele>
        <time>2019-11-03T09:28:41Z</time>
      </trkpt>
      <trkpt lat="38.4618520" lon="-2.5230690">
        <ele>930.1</ele>
        <time>2019-11-03T09:28:42Z</time>
      </trkpt>
      <trkpt lat="38.4618060" lon="-2.5229340">
        <ele>930.1</ele>
        <time>2019-11-03T09:28:43Z</time>
      </trkpt>
      <trkpt lat="38.4617570" lon="-2.5228040">
        <ele>930.1</ele>
        <time>2019-11-03T09:28:44Z</time>
      </trkpt>
      <trkpt lat="38.4617040" lon="-2.5226750">
        <ele>930.1</ele>
        <time>2019-11-03T09:28:45Z</time>
      </trkpt>
      <trkpt lat="38.4616500" lon="-2.5225490">
        <ele>930.1</ele>
        <time>2019-11-03T09:28:46Z</time>
      </trkpt>
      <trkpt lat="38.4615910" lon="-2.5224290">
        <ele>930.1</ele>
        <time>2019-11-03T09:28:47Z</time>
      </trkpt>
      <trkpt lat="38.4615220" lon="-2.5223180">
        <ele>930.1</ele>
        <time>2019-11-03T09:28:48Z</time>
      </trkpt>
      <trkpt lat="38.4614550" lon="-2.5222190">
        <ele>930.1</ele>
        <time>2019-11-03T09:28:49Z</time>
      </trkpt>
      <trkpt lat="38.4613840" lon="-2.5221230">
        <ele>930.1</ele>
        <time>2019-11-03T09:28:50Z</time>
      </trkpt>
      <trkpt lat="38.4613150" lon="-2.5220270">
        <ele>930.1</ele>
        <time>2019-11-03T09:28:51Z</time>
      </trkpt>
      <trkpt lat="38.4612380" lon="-2.5219240">
        <ele>930.1</ele>
        <time>2019-11-03T09:28:52Z</time>
      </trkpt>
      <trkpt lat="38.4611640" lon="-2.5218280">
        <ele>930.1</ele>
        <time>2019-11-03T09:28:53Z</time>
      </trkpt>
      <trkpt lat="38.4610870" lon="-2.5217370">
        <ele>930.1</ele>
        <time>2019-11-03T09:28:54Z</time>
      </trkpt>
      <trkpt lat="38.4610100" lon="-2.5216450">
        <ele>930.1</ele>
        <time>2019-11-03T09:28:55Z</time>
      </trkpt>
      <trkpt lat="38.4609380" lon="-2.5215460">
        <ele>930.1</ele>
        <time>2019-11-03T09:28:56Z</time>
      </trkpt>
      <trkpt lat="38.4608640" lon="-2.5214480">
        <ele>930.1</ele>
        <time>2019-11-03T09:28:57Z</time>
      </trkpt>
      <trkpt lat="38.4607970" lon="-2.5213540">
        <ele>930.1</ele>
        <time>2019-11-03T09:28:58Z</time>
      </trkpt>
      <trkpt lat="38.4607280" lon="-2.5212640">
        <ele>930.1</ele>
        <time>2019-11-03T09:28:59Z</time>
      </trkpt>
      <trkpt lat="38.4606520" lon="-2.5211690">
        <ele>930.1</ele>
        <time>2019-11-03T09:29:00Z</time>
      </trkpt>
      <trkpt lat="38.4605750" lon="-2.5210780">
        <ele>930.1</ele>
        <time>2019-11-03T09:29:01Z</time>
      </trkpt>
      <trkpt lat="38.4604980" lon="-2.5209940">
        <ele>930.1</ele>
        <time>2019-11-03T09:29:02Z</time>
      </trkpt>
      <trkpt lat="38.4604240" lon="-2.5209070">
        <ele>930.1</ele>
        <time>2019-11-03T09:29:03Z</time>
      </trkpt>
      <trkpt lat="38.4603420" lon="-2.5208250">
        <ele>930.1</ele>
        <time>2019-11-03T09:29:04Z</time>
      </trkpt>
      <trkpt lat="38.4602620" lon="-2.5207520">
        <ele>930.1</ele>
        <time>2019-11-03T09:29:05Z</time>
      </trkpt>
      <trkpt lat="38.4601860" lon="-2.5206900">
        <ele>930.1</ele>
        <time>2019-11-03T09:29:06Z</time>
      </trkpt>
      <trkpt lat="38.4601010" lon="-2.5206310">
        <ele>930.1</ele>
        <time>2019-11-03T09:29:07Z</time>
      </trkpt>
      <trkpt lat="38.4600220" lon="-2.5205780">
        <ele>930.1</ele>
        <time>2019-11-03T09:29:08Z</time>
      </trkpt>
      <trkpt lat="38.4599370" lon="-2.5205250">
        <ele>930.1</ele>
        <time>2019-11-03T09:29:09Z</time>
      </trkpt>
      <trkpt lat="38.4598500" lon="-2.5204700">
        <ele>930.1</ele>
        <time>2019-11-03T09:29:10Z</time>
      </trkpt>
      <trkpt lat="38.4597630" lon="-2.5204170">
        <ele>921.5</ele>
        <time>2019-11-03T09:29:11Z</time>
      </trkpt>
      <trkpt lat="38.4596740" lon="-2.5203670">
        <ele>916.4</ele>
        <time>2019-11-03T09:29:12Z</time>
      </trkpt>
      <trkpt lat="38.4595870" lon="-2.5203190">
        <ele>912.6</ele>
        <time>2019-11-03T09:29:13Z</time>
      </trkpt>
      <trkpt lat="38.4595020" lon="-2.5202710">
        <ele>910.0</ele>
        <time>2019-11-03T09:29:14Z</time>
      </trkpt>
      <trkpt lat="38.4594230" lon="-2.5202310">
        <ele>908.5</ele>
        <time>2019-11-03T09:29:15Z</time>
      </trkpt>
      <trkpt lat="38.4593360" lon="-2.5201900">
        <ele>907.2</ele>
        <time>2019-11-03T09:29:16Z</time>
      </trkpt>
      <trkpt lat="38.4592490" lon="-2.5201530">
        <ele>906.0</ele>
        <time>2019-11-03T09:29:17Z</time>
      </trkpt>
      <trkpt lat="38.4591590" lon="-2.5201170">
        <ele>906.0</ele>
        <time>2019-11-03T09:29:18Z</time>
      </trkpt>
      <trkpt lat="38.4590770" lon="-2.5200850">
        <ele>906.0</ele>
        <time>2019-11-03T09:29:19Z</time>
      </trkpt>
      <trkpt lat="38.4589930" lon="-2.5200550">
        <ele>906.0</ele>
        <time>2019-11-03T09:29:20Z</time>
      </trkpt>
      <trkpt lat="38.4589080" lon="-2.5200250">
        <ele>906.0</ele>
        <time>2019-11-03T09:29:21Z</time>
      </trkpt>
      <trkpt lat="38.4588290" lon="-2.5199960">
        <ele>906.0</ele>
        <time>2019-11-03T09:29:22Z</time>
      </trkpt>
      <trkpt lat="38.4587390" lon="-2.5199660">
        <ele>906.0</ele>
        <time>2019-11-03T09:29:23Z</time>
      </trkpt>
      <trkpt lat="38.4586520" lon="-2.5199350">
        <ele>904.7</ele>
        <time>2019-11-03T09:29:24Z</time>
      </trkpt>
      <trkpt lat="38.4585730" lon="-2.5199050">
        <ele>904.7</ele>
        <time>2019-11-03T09:29:25Z</time>
      </trkpt>
      <trkpt lat="38.4584960" lon="-2.5198720">
        <ele>904.7</ele>
        <time>2019-11-03T09:29:26Z</time>
      </trkpt>
      <trkpt lat="38.4584190" lon="-2.5198330">
        <ele>904.7</ele>
        <time>2019-11-03T09:29:27Z</time>
      </trkpt>
      <trkpt lat="38.4583420" lon="-2.5197910">
        <ele>902.8</ele>
        <time>2019-11-03T09:29:28Z</time>
      </trkpt>
      <trkpt lat="38.4582760" lon="-2.5197530">
        <ele>902.8</ele>
        <time>2019-11-03T09:29:29Z</time>
      </trkpt>
      <trkpt lat="38.4582140" lon="-2.5197190">
        <ele>905.1</ele>
        <time>2019-11-03T09:29:30Z</time>
      </trkpt>
      <trkpt lat="38.4581610" lon="-2.5196890">
        <ele>907.0</ele>
        <time>2019-11-03T09:29:31Z</time>
      </trkpt>
      <trkpt lat="38.4581320" lon="-2.5196720">
        <ele>908.4</ele>
        <time>2019-11-03T09:29:32Z</time>
      </trkpt>
      <trkpt lat="38.4580920" lon="-2.5196560">
        <ele>910.1</ele>
        <time>2019-11-03T09:29:35Z</time>
      </trkpt>
      <trkpt lat="38.4580660" lon="-2.5195980">
        <ele>911.4</ele>
        <time>2019-11-03T09:30:49Z</time>
      </trkpt>
      <trkpt lat="38.4580200" lon="-2.5195250">
        <ele>911.4</ele>
        <time>2019-11-03T09:30:53Z</time>
      </trkpt>
      <trkpt lat="38.4579690" lon="-2.5194400">
        <ele>911.4</ele>
        <time>2019-11-03T09:30:56Z</time>
      </trkpt>
      <trkpt lat="38.4579300" lon="-2.5193800">
        <ele>911.4</ele>
        <time>2019-11-03T09:30:58Z</time>
      </trkpt>
      <trkpt lat="38.4578970" lon="-2.5193290">
        <ele>911.4</ele>
        <time>2019-11-03T09:31:00Z</time>
      </trkpt>
      <trkpt lat="38.4578510" lon="-2.5192600">
        <ele>911.4</ele>
        <time>2019-11-03T09:31:05Z</time>
      </trkpt>
      <trkpt lat="38.4578480" lon="-2.5192600">
        <ele>911.4</ele>
        <time>2019-11-03T09:31:15Z</time>
      </trkpt>
      <trkpt lat="38.4577150" lon="-2.5194510">
        <ele>911.4</ele>
        <time>2019-11-03T09:32:58Z</time>
      </trkpt>
      <trkpt lat="38.4576490" lon="-2.5194130">
        <ele>911.4</ele>
        <time>2019-11-03T09:33:01Z</time>
      </trkpt>
      <trkpt lat="38.4575850" lon="-2.5193810">
        <ele>911.4</ele>
        <time>2019-11-03T09:33:03Z</time>
      </trkpt>
      <trkpt lat="38.4575080" lon="-2.5193450">
        <ele>910.2</ele>
        <time>2019-11-03T09:33:05Z</time>
      </trkpt>
      <trkpt lat="38.4574160" lon="-2.5193090">
        <ele>910.2</ele>
        <time>2019-11-03T09:33:07Z</time>
      </trkpt>
      <trkpt lat="38.4573130" lon="-2.5192880">
        <ele>910.2</ele>
        <time>2019-11-03T09:33:09Z</time>
      </trkpt>
      <trkpt lat="38.4572570" lon="-2.5192850">
        <ele>910.2</ele>
        <time>2019-11-03T09:33:10Z</time>
      </trkpt>
      <trkpt lat="38.4571980" lon="-2.5192900">
        <ele>910.2</ele>
        <time>2019-11-03T09:33:11Z</time>
      </trkpt>
      <trkpt lat="38.4571470" lon="-2.5192990">
        <ele>910.2</ele>
        <time>2019-11-03T09:33:12Z</time>
      </trkpt>
      <trkpt lat="38.4570880" lon="-2.5193140">
        <ele>910.2</ele>
        <time>2019-11-03T09:33:13Z</time>
      </trkpt>
      <trkpt lat="38.4570320" lon="-2.5193350">
        <ele>909.0</ele>
        <time>2019-11-03T09:33:14Z</time>
      </trkpt>
      <trkpt lat="38.4569700" lon="-2.5193610">
        <ele>909.0</ele>
        <time>2019-11-03T09:33:15Z</time>
      </trkpt>
      <trkpt lat="38.4569140" lon="-2.5193890">
        <ele>909.0</ele>
        <time>2019-11-03T09:33:16Z</time>
      </trkpt>
      <trkpt lat="38.4568600" lon="-2.5194190">
        <ele>909.0</ele>
        <time>2019-11-03T09:33:17Z</time>
      </trkpt>
      <trkpt lat="38.4568060" lon="-2.5194520">
        <ele>909.0</ele>
        <time>2019-11-03T09:33:18Z</time>
      </trkpt>
      <trkpt lat="38.4567450" lon="-2.5194870">
        <ele>909.0</ele>
        <time>2019-11-03T09:33:19Z</time>
      </trkpt>
      <trkpt lat="38.4566840" lon="-2.5195210">
        <ele>907.8</ele>
        <time>2019-11-03T09:33:20Z</time>
      </trkpt>
      <trkpt lat="38.4566270" lon="-2.5195530">
        <ele>907.8</ele>
        <time>2019-11-03T09:33:21Z</time>
      </trkpt>
      <trkpt lat="38.4565660" lon="-2.5195790">
        <ele>907.8</ele>
        <time>2019-11-03T09:33:22Z</time>
      </trkpt>
      <trkpt lat="38.4565040" lon="-2.5196000">
        <ele>907.8</ele>
        <time>2019-11-03T09:33:23Z</time>
      </trkpt>
      <trkpt lat="38.4564510" lon="-2.5196140">
        <ele>907.8</ele>
        <time>2019-11-03T09:33:24Z</time>
      </trkpt>
      <trkpt lat="38.4563870" lon="-2.5196180">
        <ele>907.8</ele>
        <time>2019-11-03T09:33:25Z</time>
      </trkpt>
      <trkpt lat="38.4563230" lon="-2.5196110">
        <ele>907.8</ele>
        <time>2019-11-03T09:33:26Z</time>
      </trkpt>
      <trkpt lat="38.4562610" lon="-2.5195940">
        <ele>907.8</ele>
        <time>2019-11-03T09:33:27Z</time>
      </trkpt>
      <trkpt lat="38.4562000" lon="-2.5195680">
        <ele>906.5</ele>
        <time>2019-11-03T09:33:28Z</time>
      </trkpt>
      <trkpt lat="38.4561380" lon="-2.5195390">
        <ele>906.5</ele>
        <time>2019-11-03T09:33:29Z</time>
      </trkpt>
      <trkpt lat="38.4560770" lon="-2.5195050">
        <ele>906.5</ele>
        <time>2019-11-03T09:33:30Z</time>
      </trkpt>
      <trkpt lat="38.4560130" lon="-2.5194680">
        <ele>906.5</ele>
        <time>2019-11-03T09:33:31Z</time>
      </trkpt>
      <trkpt lat="38.4559510" lon="-2.5194270">
        <ele>906.5</ele>
        <time>2019-11-03T09:33:32Z</time>
      </trkpt>
      <trkpt lat="38.4558900" lon="-2.5193870">
        <ele>906.5</ele>
        <time>2019-11-03T09:33:33Z</time>
      </trkpt>
      <trkpt lat="38.4558260" lon="-2.5193420">
        <ele>906.5</ele>
        <time>2019-11-03T09:33:34Z</time>
      </trkpt>
      <trkpt lat="38.4557640" lon="-2.5192990">
        <ele>906.5</ele>
        <time>2019-11-03T09:33:35Z</time>
      </trkpt>
      <trkpt lat="38.4557000" lon="-2.5192520">
        <ele>906.5</ele>
        <time>2019-11-03T09:33:36Z</time>
      </trkpt>
      <trkpt lat="38.4556310" lon="-2.5192060">
        <ele>905.3</ele>
        <time>2019-11-03T09:33:37Z</time>
      </trkpt>
      <trkpt lat="38.4555670" lon="-2.5191590">
        <ele>905.3</ele>
        <time>2019-11-03T09:33:38Z</time>
      </trkpt>
      <trkpt lat="38.4555010" lon="-2.5191120">
        <ele>905.3</ele>
        <time>2019-11-03T09:33:39Z</time>
      </trkpt>
      <trkpt lat="38.4554370" lon="-2.5190650">
        <ele>905.3</ele>
        <time>2019-11-03T09:33:40Z</time>
      </trkpt>
      <trkpt lat="38.4553730" lon="-2.5189990">
        <ele>905.3</ele>
        <time>2019-11-03T09:33:41Z</time>
      </trkpt>
      <trkpt lat="38.4553290" lon="-2.5189330">
        <ele>905.3</ele>
        <time>2019-11-03T09:33:42Z</time>
      </trkpt>
      <trkpt lat="38.4552680" lon="-2.5188750">
        <ele>905.3</ele>
        <time>2019-11-03T09:33:43Z</time>
      </trkpt>
      <trkpt lat="38.4552120" lon="-2.5188190">
        <ele>905.3</ele>
        <time>2019-11-03T09:33:44Z</time>
      </trkpt>
      <trkpt lat="38.4551480" lon="-2.5187680">
        <ele>905.3</ele>
        <time>2019-11-03T09:33:45Z</time>
      </trkpt>
      <trkpt lat="38.4550810" lon="-2.5187200">
        <ele>905.3</ele>
        <time>2019-11-03T09:33:46Z</time>
      </trkpt>
      <trkpt lat="38.4550170" lon="-2.5186700">
        <ele>904.0</ele>
        <time>2019-11-03T09:33:47Z</time>
      </trkpt>
      <trkpt lat="38.4549610" lon="-2.5186260">
        <ele>904.0</ele>
        <time>2019-11-03T09:33:48Z</time>
      </trkpt>
      <trkpt lat="38.4548990" lon="-2.5185800">
        <ele>904.0</ele>
        <time>2019-11-03T09:33:49Z</time>
      </trkpt>
      <trkpt lat="38.4548450" lon="-2.5185350">
        <ele>904.0</ele>
        <time>2019-11-03T09:33:50Z</time>
      </trkpt>
      <trkpt lat="38.4547890" lon="-2.5184820">
        <ele>904.0</ele>
        <time>2019-11-03T09:33:51Z</time>
      </trkpt>
      <trkpt lat="38.4547350" lon="-2.5184250">
        <ele>904.0</ele>
        <time>2019-11-03T09:33:52Z</time>
      </trkpt>
      <trkpt lat="38.4546840" lon="-2.5183660">
        <ele>904.0</ele>
        <time>2019-11-03T09:33:53Z</time>
      </trkpt>
      <trkpt lat="38.4546430" lon="-2.5183080">
        <ele>904.0</ele>
        <time>2019-11-03T09:33:54Z</time>
      </trkpt>
      <trkpt lat="38.4545970" lon="-2.5182450">
        <ele>904.0</ele>
        <time>2019-11-03T09:33:55Z</time>
      </trkpt>
      <trkpt lat="38.4545560" lon="-2.5181790">
        <ele>904.0</ele>
        <time>2019-11-03T09:33:56Z</time>
      </trkpt>
      <trkpt lat="38.4545180" lon="-2.5181110">
        <ele>904.0</ele>
        <time>2019-11-03T09:33:57Z</time>
      </trkpt>
      <trkpt lat="38.4544790" lon="-2.5180470">
        <ele>902.7</ele>
        <time>2019-11-03T09:33:58Z</time>
      </trkpt>
      <trkpt lat="38.4544410" lon="-2.5179790">
        <ele>902.7</ele>
        <time>2019-11-03T09:33:59Z</time>
      </trkpt>
      <trkpt lat="38.4543950" lon="-2.5179050">
        <ele>902.7</ele>
        <time>2019-11-03T09:34:00Z</time>
      </trkpt>
      <trkpt lat="38.4543540" lon="-2.5178250">
        <ele>902.7</ele>
        <time>2019-11-03T09:34:01Z</time>
      </trkpt>
      <trkpt lat="38.4543100" lon="-2.5177520">
        <ele>902.7</ele>
        <time>2019-11-03T09:34:02Z</time>
      </trkpt>
      <trkpt lat="38.4542690" lon="-2.5176780">
        <ele>902.7</ele>
        <time>2019-11-03T09:34:03Z</time>
      </trkpt>
      <trkpt lat="38.4542280" lon="-2.5176070">
        <ele>902.7</ele>
        <time>2019-11-03T09:34:04Z</time>
      </trkpt>
      <trkpt lat="38.4541850" lon="-2.5175300">
        <ele>902.7</ele>
        <time>2019-11-03T09:34:05Z</time>
      </trkpt>
      <trkpt lat="38.4541390" lon="-2.5174480">
        <ele>902.7</ele>
        <time>2019-11-03T09:34:06Z</time>
      </trkpt>
      <trkpt lat="38.4540930" lon="-2.5173660">
        <ele>902.7</ele>
        <time>2019-11-03T09:34:07Z</time>
      </trkpt>
      <trkpt lat="38.4540520" lon="-2.5172900">
        <ele>902.7</ele>
        <time>2019-11-03T09:34:08Z</time>
      </trkpt>
      <trkpt lat="38.4540130" lon="-2.5172000">
        <ele>902.7</ele>
        <time>2019-11-03T09:34:09Z</time>
      </trkpt>
      <trkpt lat="38.4539670" lon="-2.5171310">
        <ele>902.7</ele>
        <time>2019-11-03T09:34:10Z</time>
      </trkpt>
      <trkpt lat="38.4539210" lon="-2.5170590">
        <ele>901.5</ele>
        <time>2019-11-03T09:34:11Z</time>
      </trkpt>
      <trkpt lat="38.4538800" lon="-2.5169840">
        <ele>901.5</ele>
        <time>2019-11-03T09:34:12Z</time>
      </trkpt>
      <trkpt lat="38.4538040" lon="-2.5168240">
        <ele>901.5</ele>
        <time>2019-11-03T09:34:14Z</time>
      </trkpt>
      <trkpt lat="38.4537240" lon="-2.5166760">
        <ele>901.5</ele>
        <time>2019-11-03T09:34:16Z</time>
      </trkpt>
      <trkpt lat="38.4536860" lon="-2.5166060">
        <ele>901.5</ele>
        <time>2019-11-03T09:34:17Z</time>
      </trkpt>
      <trkpt lat="38.4536450" lon="-2.5165310">
        <ele>901.5</ele>
        <time>2019-11-03T09:34:18Z</time>
      </trkpt>
      <trkpt lat="38.4536010" lon="-2.5164640">
        <ele>901.5</ele>
        <time>2019-11-03T09:34:19Z</time>
      </trkpt>
      <trkpt lat="38.4535600" lon="-2.5164030">
        <ele>901.5</ele>
        <time>2019-11-03T09:34:20Z</time>
      </trkpt>
      <trkpt lat="38.4535170" lon="-2.5163420">
        <ele>901.5</ele>
        <time>2019-11-03T09:34:21Z</time>
      </trkpt>
      <trkpt lat="38.4534730" lon="-2.5162840">
        <ele>901.5</ele>
        <time>2019-11-03T09:34:22Z</time>
      </trkpt>
      <trkpt lat="38.4534220" lon="-2.5162280">
        <ele>901.5</ele>
        <time>2019-11-03T09:34:23Z</time>
      </trkpt>
      <trkpt lat="38.4533680" lon="-2.5161810">
        <ele>901.5</ele>
        <time>2019-11-03T09:34:24Z</time>
      </trkpt>
      <trkpt lat="38.4533150" lon="-2.5161440">
        <ele>901.5</ele>
        <time>2019-11-03T09:34:25Z</time>
      </trkpt>
      <trkpt lat="38.4532630" lon="-2.5161160">
        <ele>901.5</ele>
        <time>2019-11-03T09:34:26Z</time>
      </trkpt>
      <trkpt lat="38.4532040" lon="-2.5160960">
        <ele>901.5</ele>
        <time>2019-11-03T09:34:27Z</time>
      </trkpt>
      <trkpt lat="38.4531480" lon="-2.5160840">
        <ele>901.5</ele>
        <time>2019-11-03T09:34:28Z</time>
      </trkpt>
      <trkpt lat="38.4530920" lon="-2.5160760">
        <ele>901.5</ele>
        <time>2019-11-03T09:34:29Z</time>
      </trkpt>
      <trkpt lat="38.4530330" lon="-2.5160710">
        <ele>901.5</ele>
        <time>2019-11-03T09:34:30Z</time>
      </trkpt>
      <trkpt lat="38.4529790" lon="-2.5160690">
        <ele>901.5</ele>
        <time>2019-11-03T09:34:31Z</time>
      </trkpt>
      <trkpt lat="38.4529230" lon="-2.5160690">
        <ele>901.5</ele>
        <time>2019-11-03T09:34:32Z</time>
      </trkpt>
      <trkpt lat="38.4528690" lon="-2.5160710">
        <ele>901.5</ele>
        <time>2019-11-03T09:34:33Z</time>
      </trkpt>
      <trkpt lat="38.4528150" lon="-2.5160730">
        <ele>901.5</ele>
        <time>2019-11-03T09:34:34Z</time>
      </trkpt>
      <trkpt lat="38.4527590" lon="-2.5160750">
        <ele>901.5</ele>
        <time>2019-11-03T09:34:35Z</time>
      </trkpt>
      <trkpt lat="38.4527050" lon="-2.5160760">
        <ele>901.5</ele>
        <time>2019-11-03T09:34:36Z</time>
      </trkpt>
      <trkpt lat="38.4526520" lon="-2.5160790">
        <ele>901.5</ele>
        <time>2019-11-03T09:34:37Z</time>
      </trkpt>
      <trkpt lat="38.4526030" lon="-2.5160820">
        <ele>901.5</ele>
        <time>2019-11-03T09:34:38Z</time>
      </trkpt>
      <trkpt lat="38.4525520" lon="-2.5160840">
        <ele>902.7</ele>
        <time>2019-11-03T09:34:39Z</time>
      </trkpt>
      <trkpt lat="38.4525000" lon="-2.5160860">
        <ele>902.7</ele>
        <time>2019-11-03T09:34:40Z</time>
      </trkpt>
      <trkpt lat="38.4523960" lon="-2.5160890">
        <ele>902.7</ele>
        <time>2019-11-03T09:34:42Z</time>
      </trkpt>
      <trkpt lat="38.4523470" lon="-2.5160900">
        <ele>902.7</ele>
        <time>2019-11-03T09:34:43Z</time>
      </trkpt>
      <trkpt lat="38.4522390" lon="-2.5160890">
        <ele>902.7</ele>
        <time>2019-11-03T09:34:45Z</time>
      </trkpt>
      <trkpt lat="38.4521910" lon="-2.5160900">
        <ele>902.7</ele>
        <time>2019-11-03T09:34:46Z</time>
      </trkpt>
      <trkpt lat="38.4521370" lon="-2.5160920">
        <ele>902.7</ele>
        <time>2019-11-03T09:34:47Z</time>
      </trkpt>
      <trkpt lat="38.4520350" lon="-2.5160960">
        <ele>902.7</ele>
        <time>2019-11-03T09:34:49Z</time>
      </trkpt>
      <trkpt lat="38.4519830" lon="-2.5160960">
        <ele>902.7</ele>
        <time>2019-11-03T09:34:50Z</time>
      </trkpt>
      <trkpt lat="38.4518810" lon="-2.5160940">
        <ele>902.7</ele>
        <time>2019-11-03T09:34:52Z</time>
      </trkpt>
      <trkpt lat="38.4518270" lon="-2.5160960">
        <ele>902.7</ele>
        <time>2019-11-03T09:34:53Z</time>
      </trkpt>
      <trkpt lat="38.4517790" lon="-2.5160960">
        <ele>902.7</ele>
        <time>2019-11-03T09:34:54Z</time>
      </trkpt>
      <trkpt lat="38.4516710" lon="-2.5160950">
        <ele>902.7</ele>
        <time>2019-11-03T09:34:56Z</time>
      </trkpt>
      <trkpt lat="38.4516150" lon="-2.5160940">
        <ele>902.7</ele>
        <time>2019-11-03T09:34:57Z</time>
      </trkpt>
      <trkpt lat="38.4515580" lon="-2.5160940">
        <ele>902.7</ele>
        <time>2019-11-03T09:34:58Z</time>
      </trkpt>
      <trkpt lat="38.4515000" lon="-2.5160940">
        <ele>902.7</ele>
        <time>2019-11-03T09:34:59Z</time>
      </trkpt>
      <trkpt lat="38.4514430" lon="-2.5160950">
        <ele>902.7</ele>
        <time>2019-11-03T09:35:00Z</time>
      </trkpt>
      <trkpt lat="38.4513820" lon="-2.5160970">
        <ele>902.7</ele>
        <time>2019-11-03T09:35:01Z</time>
      </trkpt>
      <trkpt lat="38.4513200" lon="-2.5160980">
        <ele>902.7</ele>
        <time>2019-11-03T09:35:02Z</time>
      </trkpt>
      <trkpt lat="38.4512590" lon="-2.5161000">
        <ele>902.7</ele>
        <time>2019-11-03T09:35:03Z</time>
      </trkpt>
      <trkpt lat="38.4511950" lon="-2.5161010">
        <ele>902.7</ele>
        <time>2019-11-03T09:35:04Z</time>
      </trkpt>
      <trkpt lat="38.4511310" lon="-2.5161000">
        <ele>902.7</ele>
        <time>2019-11-03T09:35:05Z</time>
      </trkpt>
      <trkpt lat="38.4510640" lon="-2.5161000">
        <ele>902.7</ele>
        <time>2019-11-03T09:35:06Z</time>
      </trkpt>
      <trkpt lat="38.4510000" lon="-2.5161010">
        <ele>902.7</ele>
        <time>2019-11-03T09:35:07Z</time>
      </trkpt>
      <trkpt lat="38.4509360" lon="-2.5161000">
        <ele>902.7</ele>
        <time>2019-11-03T09:35:08Z</time>
      </trkpt>
      <trkpt lat="38.4508670" lon="-2.5161000">
        <ele>902.7</ele>
        <time>2019-11-03T09:35:09Z</time>
      </trkpt>
      <trkpt lat="38.4508010" lon="-2.5161000">
        <ele>901.5</ele>
        <time>2019-11-03T09:35:10Z</time>
      </trkpt>
      <trkpt lat="38.4507340" lon="-2.5160990">
        <ele>901.5</ele>
        <time>2019-11-03T09:35:11Z</time>
      </trkpt>
      <trkpt lat="38.4506650" lon="-2.5160990">
        <ele>901.5</ele>
        <time>2019-11-03T09:35:12Z</time>
      </trkpt>
      <trkpt lat="38.4506040" lon="-2.5160990">
        <ele>901.5</ele>
        <time>2019-11-03T09:35:13Z</time>
      </trkpt>
      <trkpt lat="38.4505340" lon="-2.5160980">
        <ele>901.5</ele>
        <time>2019-11-03T09:35:14Z</time>
      </trkpt>
      <trkpt lat="38.4504650" lon="-2.5160970">
        <ele>901.5</ele>
        <time>2019-11-03T09:35:15Z</time>
      </trkpt>
      <trkpt lat="38.4504010" lon="-2.5160940">
        <ele>901.5</ele>
        <time>2019-11-03T09:35:16Z</time>
      </trkpt>
      <trkpt lat="38.4503320" lon="-2.5160870">
        <ele>901.5</ele>
        <time>2019-11-03T09:35:17Z</time>
      </trkpt>
      <trkpt lat="38.4502630" lon="-2.5160770">
        <ele>901.5</ele>
        <time>2019-11-03T09:35:18Z</time>
      </trkpt>
      <trkpt lat="38.4501990" lon="-2.5160640">
        <ele>901.5</ele>
        <time>2019-11-03T09:35:19Z</time>
      </trkpt>
      <trkpt lat="38.4501350" lon="-2.5160440">
        <ele>901.5</ele>
        <time>2019-11-03T09:35:20Z</time>
      </trkpt>
      <trkpt lat="38.4500760" lon="-2.5160190">
        <ele>901.5</ele>
        <time>2019-11-03T09:35:21Z</time>
      </trkpt>
      <trkpt lat="38.4500120" lon="-2.5159830">
        <ele>901.5</ele>
        <time>2019-11-03T09:35:22Z</time>
      </trkpt>
      <trkpt lat="38.4499580" lon="-2.5159430">
        <ele>901.5</ele>
        <time>2019-11-03T09:35:23Z</time>
      </trkpt>
      <trkpt lat="38.4499050" lon="-2.5158910">
        <ele>900.3</ele>
        <time>2019-11-03T09:35:24Z</time>
      </trkpt>
      <trkpt lat="38.4498560" lon="-2.5158360">
        <ele>900.3</ele>
        <time>2019-11-03T09:35:25Z</time>
      </trkpt>
      <trkpt lat="38.4498150" lon="-2.5157690">
        <ele>900.3</ele>
        <time>2019-11-03T09:35:26Z</time>
      </trkpt>
      <trkpt lat="38.4497720" lon="-2.5156960">
        <ele>900.3</ele>
        <time>2019-11-03T09:35:27Z</time>
      </trkpt>
      <trkpt lat="38.4497330" lon="-2.5156240">
        <ele>900.3</ele>
        <time>2019-11-03T09:35:28Z</time>
      </trkpt>
      <trkpt lat="38.4497000" lon="-2.5155470">
        <ele>900.3</ele>
        <time>2019-11-03T09:35:29Z</time>
      </trkpt>
      <trkpt lat="38.4496640" lon="-2.5154620">
        <ele>900.3</ele>
        <time>2019-11-03T09:35:30Z</time>
      </trkpt>
      <trkpt lat="38.4496310" lon="-2.5153770">
        <ele>900.3</ele>
        <time>2019-11-03T09:35:31Z</time>
      </trkpt>
      <trkpt lat="38.4495970" lon="-2.5152820">
        <ele>899.1</ele>
        <time>2019-11-03T09:35:32Z</time>
      </trkpt>
      <trkpt lat="38.4495590" lon="-2.5151930">
        <ele>899.1</ele>
        <time>2019-11-03T09:35:33Z</time>
      </trkpt>
      <trkpt lat="38.4495310" lon="-2.5151060">
        <ele>899.1</ele>
        <time>2019-11-03T09:35:34Z</time>
      </trkpt>
      <trkpt lat="38.4495050" lon="-2.5150150">
        <ele>899.1</ele>
        <time>2019-11-03T09:35:35Z</time>
      </trkpt>
      <trkpt lat="38.4494820" lon="-2.5149140">
        <ele>899.1</ele>
        <time>2019-11-03T09:35:36Z</time>
      </trkpt>
      <trkpt lat="38.4494540" lon="-2.5148190">
        <ele>899.1</ele>
        <time>2019-11-03T09:35:37Z</time>
      </trkpt>
      <trkpt lat="38.4494180" lon="-2.5147280">
        <ele>899.1</ele>
        <time>2019-11-03T09:35:38Z</time>
      </trkpt>
      <trkpt lat="38.4493800" lon="-2.5146430">
        <ele>897.9</ele>
        <time>2019-11-03T09:35:39Z</time>
      </trkpt>
      <trkpt lat="38.4493340" lon="-2.5145570">
        <ele>897.9</ele>
        <time>2019-11-03T09:35:40Z</time>
      </trkpt>
      <trkpt lat="38.4492750" lon="-2.5144720">
        <ele>897.9</ele>
        <time>2019-11-03T09:35:41Z</time>
      </trkpt>
      <trkpt lat="38.4492190" lon="-2.5143940">
        <ele>897.9</ele>
        <time>2019-11-03T09:35:42Z</time>
      </trkpt>
      <trkpt lat="38.4491550" lon="-2.5143240">
        <ele>897.9</ele>
        <time>2019-11-03T09:35:43Z</time>
      </trkpt>
      <trkpt lat="38.4490850" lon="-2.5142600">
        <ele>897.9</ele>
        <time>2019-11-03T09:35:44Z</time>
      </trkpt>
      <trkpt lat="38.4490140" lon="-2.5142040">
        <ele>897.9</ele>
        <time>2019-11-03T09:35:45Z</time>
      </trkpt>
      <trkpt lat="38.4489370" lon="-2.5141570">
        <ele>897.9</ele>
        <time>2019-11-03T09:35:46Z</time>
      </trkpt>
      <trkpt lat="38.4488580" lon="-2.5141180">
        <ele>897.9</ele>
        <time>2019-11-03T09:35:47Z</time>
      </trkpt>
      <trkpt lat="38.4487680" lon="-2.5140860">
        <ele>897.9</ele>
        <time>2019-11-03T09:35:48Z</time>
      </trkpt>
      <trkpt lat="38.4486810" lon="-2.5140650">
        <ele>897.9</ele>
        <time>2019-11-03T09:35:49Z</time>
      </trkpt>
      <trkpt lat="38.4485940" lon="-2.5140510">
        <ele>896.6</ele>
        <time>2019-11-03T09:35:50Z</time>
      </trkpt>
      <trkpt lat="38.4485040" lon="-2.5140410">
        <ele>896.6</ele>
        <time>2019-11-03T09:35:51Z</time>
      </trkpt>
      <trkpt lat="38.4484170" lon="-2.5140350">
        <ele>896.6</ele>
        <time>2019-11-03T09:35:52Z</time>
      </trkpt>
      <trkpt lat="38.4483330" lon="-2.5140280">
        <ele>896.6</ele>
        <time>2019-11-03T09:35:53Z</time>
      </trkpt>
      <trkpt lat="38.4482610" lon="-2.5140240">
        <ele>896.6</ele>
        <time>2019-11-03T09:35:54Z</time>
      </trkpt>
      <trkpt lat="38.4481890" lon="-2.5140230">
        <ele>896.6</ele>
        <time>2019-11-03T09:35:55Z</time>
      </trkpt>
      <trkpt lat="38.4481200" lon="-2.5140240">
        <ele>896.6</ele>
        <time>2019-11-03T09:35:56Z</time>
      </trkpt>
      <trkpt lat="38.4480560" lon="-2.5140420">
        <ele>896.6</ele>
        <time>2019-11-03T09:35:57Z</time>
      </trkpt>
      <trkpt lat="38.4479870" lon="-2.5140560">
        <ele>896.6</ele>
        <time>2019-11-03T09:35:58Z</time>
      </trkpt>
      <trkpt lat="38.4479330" lon="-2.5140590">
        <ele>897.8</ele>
        <time>2019-11-03T09:35:59Z</time>
      </trkpt>
      <trkpt lat="38.4478850" lon="-2.5140590">
        <ele>897.8</ele>
        <time>2019-11-03T09:36:00Z</time>
      </trkpt>
      <trkpt lat="38.4478340" lon="-2.5140620">
        <ele>897.8</ele>
        <time>2019-11-03T09:36:01Z</time>
      </trkpt>
      <trkpt lat="38.4477340" lon="-2.5140810">
        <ele>899.0</ele>
        <time>2019-11-03T09:36:03Z</time>
      </trkpt>
      <trkpt lat="38.4476360" lon="-2.5141010">
        <ele>781.3</ele>
        <time>2019-11-03T09:36:05Z</time>
      </trkpt>
      <trkpt lat="38.4475900" lon="-2.5141180">
        <ele>781.3</ele>
        <time>2019-11-03T09:36:06Z</time>
      </trkpt>
      <trkpt lat="38.4475110" lon="-2.5141570">
        <ele>781.3</ele>
        <time>2019-11-03T09:36:08Z</time>
      </trkpt>
      <trkpt lat="38.4474340" lon="-2.5142090">
        <ele>782.5</ele>
        <time>2019-11-03T09:36:10Z</time>
      </trkpt>
      <trkpt lat="38.4473600" lon="-2.5142730">
        <ele>782.5</ele>
        <time>2019-11-03T09:36:12Z</time>
      </trkpt>
      <trkpt lat="38.4473010" lon="-2.5143410">
        <ele>782.5</ele>
        <time>2019-11-03T09:36:14Z</time>
      </trkpt>
      <trkpt lat="38.4472420" lon="-2.5144030">
        <ele>783.8</ele>
        <time>2019-11-03T09:36:16Z</time>
      </trkpt>
      <trkpt lat="38.4471880" lon="-2.5144620">
        <ele>783.8</ele>
        <time>2019-11-03T09:36:18Z</time>
      </trkpt>
      <trkpt lat="38.4471420" lon="-2.5145150">
        <ele>784.9</ele>
        <time>2019-11-03T09:36:20Z</time>
      </trkpt>
      <trkpt lat="38.4471010" lon="-2.5145680">
        <ele>784.9</ele>
        <time>2019-11-03T09:36:22Z</time>
      </trkpt>
      <trkpt lat="38.4470630" lon="-2.5146180">
        <ele>786.3</ele>
        <time>2019-11-03T09:36:24Z</time>
      </trkpt>
      <trkpt lat="38.4470250" lon="-2.5146690">
        <ele>786.3</ele>
        <time>2019-11-03T09:36:26Z</time>
      </trkpt>
      <trkpt lat="38.4469840" lon="-2.5147240">
        <ele>787.8</ele>
        <time>2019-11-03T09:36:28Z</time>
      </trkpt>
      <trkpt lat="38.4469400" lon="-2.5147730">
        <ele>787.8</ele>
        <time>2019-11-03T09:36:30Z</time>
      </trkpt>
      <trkpt lat="38.4468990" lon="-2.5148160">
        <ele>787.8</ele>
        <time>2019-11-03T09:36:32Z</time>
      </trkpt>
      <trkpt lat="38.4468610" lon="-2.5148560">
        <ele>787.8</ele>
        <time>2019-11-03T09:36:34Z</time>
      </trkpt>
      <trkpt lat="38.4468070" lon="-2.5149280">
        <ele>789.2</ele>
        <time>2019-11-03T09:36:37Z</time>
      </trkpt>
      <trkpt lat="38.4467760" lon="-2.5149780">
        <ele>789.2</ele>
        <time>2019-11-03T09:36:39Z</time>
      </trkpt>
      <trkpt lat="38.4467380" lon="-2.5150270">
        <ele>789.2</ele>
        <time>2019-11-03T09:36:41Z</time>
      </trkpt>
      <trkpt lat="38.4467050" lon="-2.5150710">
        <ele>790.7</ele>
        <time>2019-11-03T09:36:43Z</time>
      </trkpt>
      <trkpt lat="38.4466660" lon="-2.5151150">
        <ele>790.7</ele>
        <time>2019-11-03T09:36:45Z</time>
      </trkpt>
      <trkpt lat="38.4466120" lon="-2.5151770">
        <ele>790.7</ele>
        <time>2019-11-03T09:36:48Z</time>
      </trkpt>
      <trkpt lat="38.4465590" lon="-2.5152380">
        <ele>792.0</ele>
        <time>2019-11-03T09:36:51Z</time>
      </trkpt>
      <trkpt lat="38.4465080" lon="-2.5153020">
        <ele>792.0</ele>
        <time>2019-11-03T09:36:54Z</time>
      </trkpt>
      <trkpt lat="38.4464540" lon="-2.5153620">
        <ele>792.0</ele>
        <time>2019-11-03T09:36:57Z</time>
      </trkpt>
      <trkpt lat="38.4464000" lon="-2.5154180">
        <ele>793.2</ele>
        <time>2019-11-03T09:37:00Z</time>
      </trkpt>
      <trkpt lat="38.4463440" lon="-2.5154810">
        <ele>793.2</ele>
        <time>2019-11-03T09:37:03Z</time>
      </trkpt>
      <trkpt lat="38.4463050" lon="-2.5155280">
        <ele>794.5</ele>
        <time>2019-11-03T09:37:05Z</time>
      </trkpt>
      <trkpt lat="38.4462620" lon="-2.5155680">
        <ele>794.5</ele>
        <time>2019-11-03T09:37:07Z</time>
      </trkpt>
      <trkpt lat="38.4462160" lon="-2.5156060">
        <ele>794.5</ele>
        <time>2019-11-03T09:37:09Z</time>
      </trkpt>
      <trkpt lat="38.4461750" lon="-2.5156430">
        <ele>795.8</ele>
        <time>2019-11-03T09:37:11Z</time>
      </trkpt>
      <trkpt lat="38.4461290" lon="-2.5156760">
        <ele>795.8</ele>
        <time>2019-11-03T09:37:13Z</time>
      </trkpt>
      <trkpt lat="38.4460830" lon="-2.5156960">
        <ele>795.8</ele>
        <time>2019-11-03T09:37:15Z</time>
      </trkpt>
      <trkpt lat="38.4460110" lon="-2.5157080">
        <ele>797.4</ele>
        <time>2019-11-03T09:37:18Z</time>
      </trkpt>
      <trkpt lat="38.4459620" lon="-2.5157080">
        <ele>797.4</ele>
        <time>2019-11-03T09:37:20Z</time>
      </trkpt>
      <trkpt lat="38.4458880" lon="-2.5156860">
        <ele>797.4</ele>
        <time>2019-11-03T09:37:23Z</time>
      </trkpt>
      <trkpt lat="38.4458190" lon="-2.5156460">
        <ele>798.6</ele>
        <time>2019-11-03T09:37:26Z</time>
      </trkpt>
      <trkpt lat="38.4457730" lon="-2.5156170">
        <ele>799.8</ele>
        <time>2019-11-03T09:37:28Z</time>
      </trkpt>
      <trkpt lat="38.4457160" lon="-2.5155700">
        <ele>799.8</ele>
        <time>2019-11-03T09:37:31Z</time>
      </trkpt>
      <trkpt lat="38.4456600" lon="-2.5155240">
        <ele>799.8</ele>
        <time>2019-11-03T09:37:34Z</time>
      </trkpt>
      <trkpt lat="38.4456010" lon="-2.5154840">
        <ele>799.8</ele>
        <time>2019-11-03T09:37:37Z</time>
      </trkpt>
      <trkpt lat="38.4455420" lon="-2.5154570">
        <ele>799.8</ele>
        <time>2019-11-03T09:37:40Z</time>
      </trkpt>
      <trkpt lat="38.4454730" lon="-2.5154350">
        <ele>799.8</ele>
        <time>2019-11-03T09:37:43Z</time>
      </trkpt>
      <trkpt lat="38.4454040" lon="-2.5154260">
        <ele>799.8</ele>
        <time>2019-11-03T09:37:46Z</time>
      </trkpt>
      <trkpt lat="38.4453270" lon="-2.5154460">
        <ele>799.8</ele>
        <time>2019-11-03T09:37:49Z</time>
      </trkpt>
      <trkpt lat="38.4452790" lon="-2.5154840">
        <ele>799.8</ele>
        <time>2019-11-03T09:37:51Z</time>
      </trkpt>
      <trkpt lat="38.4452250" lon="-2.5155310">
        <ele>799.8</ele>
        <time>2019-11-03T09:37:53Z</time>
      </trkpt>
      <trkpt lat="38.4451640" lon="-2.5155820">
        <ele>799.8</ele>
        <time>2019-11-03T09:37:55Z</time>
      </trkpt>
      <trkpt lat="38.4451070" lon="-2.5156360">
        <ele>799.8</ele>
        <time>2019-11-03T09:37:57Z</time>
      </trkpt>
      <trkpt lat="38.4450410" lon="-2.5156960">
        <ele>799.8</ele>
        <time>2019-11-03T09:37:59Z</time>
      </trkpt>
      <trkpt lat="38.4449660" lon="-2.5157560">
        <ele>799.8</ele>
        <time>2019-11-03T09:38:01Z</time>
      </trkpt>
      <trkpt lat="38.4448820" lon="-2.5158180">
        <ele>799.8</ele>
        <time>2019-11-03T09:38:03Z</time>
      </trkpt>
      <trkpt lat="38.4447900" lon="-2.5158820">
        <ele>799.8</ele>
        <time>2019-11-03T09:38:05Z</time>
      </trkpt>
      <trkpt lat="38.4446950" lon="-2.5159450">
        <ele>799.8</ele>
        <time>2019-11-03T09:38:07Z</time>
      </trkpt>
      <trkpt lat="38.4446490" lon="-2.5159720">
        <ele>799.8</ele>
        <time>2019-11-03T09:38:08Z</time>
      </trkpt>
      <trkpt lat="38.4446000" lon="-2.5160020">
        <ele>799.8</ele>
        <time>2019-11-03T09:38:09Z</time>
      </trkpt>
      <trkpt lat="38.4445470" lon="-2.5160300">
        <ele>799.8</ele>
        <time>2019-11-03T09:38:10Z</time>
      </trkpt>
      <trkpt lat="38.4444390" lon="-2.5160840">
        <ele>799.8</ele>
        <time>2019-11-03T09:38:12Z</time>
      </trkpt>
      <trkpt lat="38.4443900" lon="-2.5161100">
        <ele>799.8</ele>
        <time>2019-11-03T09:38:13Z</time>
      </trkpt>
      <trkpt lat="38.4443320" lon="-2.5161390">
        <ele>799.8</ele>
        <time>2019-11-03T09:38:14Z</time>
      </trkpt>
      <trkpt lat="38.4442780" lon="-2.5161690">
        <ele>799.8</ele>
        <time>2019-11-03T09:38:15Z</time>
      </trkpt>
      <trkpt lat="38.4442210" lon="-2.5161990">
        <ele>799.8</ele>
        <time>2019-11-03T09:38:16Z</time>
      </trkpt>
      <trkpt lat="38.4441730" lon="-2.5162280">
        <ele>799.8</ele>
        <time>2019-11-03T09:38:17Z</time>
      </trkpt>
      <trkpt lat="38.4441140" lon="-2.5162600">
        <ele>799.8</ele>
        <time>2019-11-03T09:38:18Z</time>
      </trkpt>
      <trkpt lat="38.4440520" lon="-2.5162940">
        <ele>799.8</ele>
        <time>2019-11-03T09:38:19Z</time>
      </trkpt>
      <trkpt lat="38.4439960" lon="-2.5163260">
        <ele>799.8</ele>
        <time>2019-11-03T09:38:20Z</time>
      </trkpt>
      <trkpt lat="38.4439400" lon="-2.5163610">
        <ele>799.8</ele>
        <time>2019-11-03T09:38:21Z</time>
      </trkpt>
      <trkpt lat="38.4438780" lon="-2.5164040">
        <ele>799.8</ele>
        <time>2019-11-03T09:38:22Z</time>
      </trkpt>
      <trkpt lat="38.4438170" lon="-2.5164500">
        <ele>799.8</ele>
        <time>2019-11-03T09:38:23Z</time>
      </trkpt>
      <trkpt lat="38.4437560" lon="-2.5165010">
        <ele>799.8</ele>
        <time>2019-11-03T09:38:24Z</time>
      </trkpt>
      <trkpt lat="38.4437020" lon="-2.5165570">
        <ele>793.5</ele>
        <time>2019-11-03T09:38:25Z</time>
      </trkpt>
      <trkpt lat="38.4436530" lon="-2.5166120">
        <ele>789.7</ele>
        <time>2019-11-03T09:38:26Z</time>
      </trkpt>
      <trkpt lat="38.4436040" lon="-2.5166750">
        <ele>785.4</ele>
        <time>2019-11-03T09:38:27Z</time>
      </trkpt>
      <trkpt lat="38.4435530" lon="-2.5167400">
        <ele>782.8</ele>
        <time>2019-11-03T09:38:28Z</time>
      </trkpt>
      <trkpt lat="38.4435050" lon="-2.5168080">
        <ele>779.3</ele>
        <time>2019-11-03T09:38:29Z</time>
      </trkpt>
      <trkpt lat="38.4434590" lon="-2.5168770">
        <ele>777.7</ele>
        <time>2019-11-03T09:38:30Z</time>
      </trkpt>
      <trkpt lat="38.4434120" lon="-2.5169450">
        <ele>776.5</ele>
        <time>2019-11-03T09:38:31Z</time>
      </trkpt>
      <trkpt lat="38.4433660" lon="-2.5170130">
        <ele>776.5</ele>
        <time>2019-11-03T09:38:32Z</time>
      </trkpt>
      <trkpt lat="38.4433200" lon="-2.5170790">
        <ele>774.8</ele>
        <time>2019-11-03T09:38:33Z</time>
      </trkpt>
      <trkpt lat="38.4432790" lon="-2.5171400">
        <ele>774.8</ele>
        <time>2019-11-03T09:38:34Z</time>
      </trkpt>
      <trkpt lat="38.4432310" lon="-2.5172000">
        <ele>773.3</ele>
        <time>2019-11-03T09:38:35Z</time>
      </trkpt>
      <trkpt lat="38.4431770" lon="-2.5172630">
        <ele>773.3</ele>
        <time>2019-11-03T09:38:36Z</time>
      </trkpt>
      <trkpt lat="38.4431260" lon="-2.5173190">
        <ele>773.3</ele>
        <time>2019-11-03T09:38:37Z</time>
      </trkpt>
      <trkpt lat="38.4430670" lon="-2.5173770">
        <ele>771.7</ele>
        <time>2019-11-03T09:38:38Z</time>
      </trkpt>
      <trkpt lat="38.4430050" lon="-2.5174310">
        <ele>771.7</ele>
        <time>2019-11-03T09:38:39Z</time>
      </trkpt>
      <trkpt lat="38.4429440" lon="-2.5174800">
        <ele>771.7</ele>
        <time>2019-11-03T09:38:40Z</time>
      </trkpt>
      <trkpt lat="38.4428830" lon="-2.5175230">
        <ele>770.5</ele>
        <time>2019-11-03T09:38:41Z</time>
      </trkpt>
      <trkpt lat="38.4428190" lon="-2.5175630">
        <ele>770.5</ele>
        <time>2019-11-03T09:38:42Z</time>
      </trkpt>
      <trkpt lat="38.4427440" lon="-2.5176010">
        <ele>770.5</ele>
        <time>2019-11-03T09:38:43Z</time>
      </trkpt>
      <trkpt lat="38.4426780" lon="-2.5176330">
        <ele>770.5</ele>
        <time>2019-11-03T09:38:44Z</time>
      </trkpt>
      <trkpt lat="38.4426040" lon="-2.5176620">
        <ele>770.5</ele>
        <time>2019-11-03T09:38:45Z</time>
      </trkpt>
      <trkpt lat="38.4425320" lon="-2.5176870">
        <ele>770.5</ele>
        <time>2019-11-03T09:38:46Z</time>
      </trkpt>
      <trkpt lat="38.4424630" lon="-2.5177070">
        <ele>770.5</ele>
        <time>2019-11-03T09:38:47Z</time>
      </trkpt>
      <trkpt lat="38.4423910" lon="-2.5177240">
        <ele>769.3</ele>
        <time>2019-11-03T09:38:48Z</time>
      </trkpt>
      <trkpt lat="38.4423170" lon="-2.5177380">
        <ele>769.3</ele>
        <time>2019-11-03T09:38:49Z</time>
      </trkpt>
      <trkpt lat="38.4422430" lon="-2.5177490">
        <ele>769.3</ele>
        <time>2019-11-03T09:38:50Z</time>
      </trkpt>
      <trkpt lat="38.4421680" lon="-2.5177570">
        <ele>769.3</ele>
        <time>2019-11-03T09:38:51Z</time>
      </trkpt>
      <trkpt lat="38.4420970" lon="-2.5177640">
        <ele>769.3</ele>
        <time>2019-11-03T09:38:52Z</time>
      </trkpt>
      <trkpt lat="38.4420250" lon="-2.5177690">
        <ele>769.3</ele>
        <time>2019-11-03T09:38:53Z</time>
      </trkpt>
      <trkpt lat="38.4419560" lon="-2.5177730">
        <ele>769.3</ele>
        <time>2019-11-03T09:38:54Z</time>
      </trkpt>
      <trkpt lat="38.4418870" lon="-2.5177730">
        <ele>769.3</ele>
        <time>2019-11-03T09:38:55Z</time>
      </trkpt>
      <trkpt lat="38.4418150" lon="-2.5177750">
        <ele>769.3</ele>
        <time>2019-11-03T09:38:56Z</time>
      </trkpt>
      <trkpt lat="38.4417460" lon="-2.5177790">
        <ele>769.3</ele>
        <time>2019-11-03T09:38:57Z</time>
      </trkpt>
      <trkpt lat="38.4416740" lon="-2.5177810">
        <ele>769.3</ele>
        <time>2019-11-03T09:38:58Z</time>
      </trkpt>
      <trkpt lat="38.4416080" lon="-2.5177830">
        <ele>769.3</ele>
        <time>2019-11-03T09:38:59Z</time>
      </trkpt>
      <trkpt lat="38.4415440" lon="-2.5177860">
        <ele>769.3</ele>
        <time>2019-11-03T09:39:00Z</time>
      </trkpt>
      <trkpt lat="38.4414750" lon="-2.5177890">
        <ele>769.3</ele>
        <time>2019-11-03T09:39:01Z</time>
      </trkpt>
      <trkpt lat="38.4414030" lon="-2.5177910">
        <ele>769.3</ele>
        <time>2019-11-03T09:39:02Z</time>
      </trkpt>
      <trkpt lat="38.4413340" lon="-2.5177950">
        <ele>769.3</ele>
        <time>2019-11-03T09:39:03Z</time>
      </trkpt>
      <trkpt lat="38.4412700" lon="-2.5178000">
        <ele>769.3</ele>
        <time>2019-11-03T09:39:04Z</time>
      </trkpt>
      <trkpt lat="38.4412030" lon="-2.5178050">
        <ele>769.3</ele>
        <time>2019-11-03T09:39:05Z</time>
      </trkpt>
      <trkpt lat="38.4411390" lon="-2.5178100">
        <ele>769.3</ele>
        <time>2019-11-03T09:39:06Z</time>
      </trkpt>
      <trkpt lat="38.4410680" lon="-2.5178170">
        <ele>769.3</ele>
        <time>2019-11-03T09:39:07Z</time>
      </trkpt>
      <trkpt lat="38.4409930" lon="-2.5178250">
        <ele>769.3</ele>
        <time>2019-11-03T09:39:08Z</time>
      </trkpt>
      <trkpt lat="38.4409270" lon="-2.5178380">
        <ele>769.3</ele>
        <time>2019-11-03T09:39:09Z</time>
      </trkpt>
      <trkpt lat="38.4408520" lon="-2.5178550">
        <ele>769.3</ele>
        <time>2019-11-03T09:39:10Z</time>
      </trkpt>
      <trkpt lat="38.4407810" lon="-2.5178770">
        <ele>769.3</ele>
        <time>2019-11-03T09:39:11Z</time>
      </trkpt>
      <trkpt lat="38.4407090" lon="-2.5178960">
        <ele>769.3</ele>
        <time>2019-11-03T09:39:12Z</time>
      </trkpt>
      <trkpt lat="38.4406350" lon="-2.5179370">
        <ele>769.3</ele>
        <time>2019-11-03T09:39:13Z</time>
      </trkpt>
      <trkpt lat="38.4405630" lon="-2.5179980">
        <ele>769.3</ele>
        <time>2019-11-03T09:39:14Z</time>
      </trkpt>
      <trkpt lat="38.4404860" lon="-2.5180620">
        <ele>769.3</ele>
        <time>2019-11-03T09:39:15Z</time>
      </trkpt>
      <trkpt lat="38.4404220" lon="-2.5181280">
        <ele>769.3</ele>
        <time>2019-11-03T09:39:16Z</time>
      </trkpt>
      <trkpt lat="38.4403580" lon="-2.5182000">
        <ele>769.3</ele>
        <time>2019-11-03T09:39:17Z</time>
      </trkpt>
      <trkpt lat="38.4402970" lon="-2.5182760">
        <ele>769.3</ele>
        <time>2019-11-03T09:39:18Z</time>
      </trkpt>
      <trkpt lat="38.4402360" lon="-2.5183530">
        <ele>769.3</ele>
        <time>2019-11-03T09:39:19Z</time>
      </trkpt>
      <trkpt lat="38.4401770" lon="-2.5184290">
        <ele>769.3</ele>
        <time>2019-11-03T09:39:20Z</time>
      </trkpt>
      <trkpt lat="38.4401280" lon="-2.5184990">
        <ele>769.3</ele>
        <time>2019-11-03T09:39:21Z</time>
      </trkpt>
      <trkpt lat="38.4400720" lon="-2.5185750">
        <ele>769.3</ele>
        <time>2019-11-03T09:39:22Z</time>
      </trkpt>
      <trkpt lat="38.4399560" lon="-2.5187180">
        <ele>769.3</ele>
        <time>2019-11-03T09:39:24Z</time>
      </trkpt>
      <trkpt lat="38.4398950" lon="-2.5187800">
        <ele>769.3</ele>
        <time>2019-11-03T09:39:25Z</time>
      </trkpt>
      <trkpt lat="38.4398310" lon="-2.5188390">
        <ele>769.3</ele>
        <time>2019-11-03T09:39:26Z</time>
      </trkpt>
      <trkpt lat="38.4397590" lon="-2.5189010">
        <ele>769.3</ele>
        <time>2019-11-03T09:39:27Z</time>
      </trkpt>
      <trkpt lat="38.4396850" lon="-2.5189590">
        <ele>769.3</ele>
        <time>2019-11-03T09:39:28Z</time>
      </trkpt>
      <trkpt lat="38.4396080" lon="-2.5190140">
        <ele>769.3</ele>
        <time>2019-11-03T09:39:29Z</time>
      </trkpt>
      <trkpt lat="38.4395370" lon="-2.5190690">
        <ele>769.3</ele>
        <time>2019-11-03T09:39:30Z</time>
      </trkpt>
      <trkpt lat="38.4394650" lon="-2.5191200">
        <ele>769.3</ele>
        <time>2019-11-03T09:39:31Z</time>
      </trkpt>
      <trkpt lat="38.4393880" lon="-2.5191750">
        <ele>769.3</ele>
        <time>2019-11-03T09:39:32Z</time>
      </trkpt>
      <trkpt lat="38.4393110" lon="-2.5192300">
        <ele>769.3</ele>
        <time>2019-11-03T09:39:33Z</time>
      </trkpt>
      <trkpt lat="38.4392350" lon="-2.5192910">
        <ele>769.3</ele>
        <time>2019-11-03T09:39:34Z</time>
      </trkpt>
      <trkpt lat="38.4391680" lon="-2.5193600">
        <ele>769.3</ele>
        <time>2019-11-03T09:39:35Z</time>
      </trkpt>
      <trkpt lat="38.4390990" lon="-2.5194320">
        <ele>769.3</ele>
        <time>2019-11-03T09:39:36Z</time>
      </trkpt>
      <trkpt lat="38.4390320" lon="-2.5195050">
        <ele>769.3</ele>
        <time>2019-11-03T09:39:37Z</time>
      </trkpt>
      <trkpt lat="38.4389680" lon="-2.5195820">
        <ele>769.3</ele>
        <time>2019-11-03T09:39:38Z</time>
      </trkpt>
      <trkpt lat="38.4389120" lon="-2.5196630">
        <ele>769.3</ele>
        <time>2019-11-03T09:39:39Z</time>
      </trkpt>
      <trkpt lat="38.4388450" lon="-2.5197480">
        <ele>769.3</ele>
        <time>2019-11-03T09:39:40Z</time>
      </trkpt>
      <trkpt lat="38.4387870" lon="-2.5198340">
        <ele>769.3</ele>
        <time>2019-11-03T09:39:41Z</time>
      </trkpt>
      <trkpt lat="38.4387200" lon="-2.5199210">
        <ele>769.3</ele>
        <time>2019-11-03T09:39:42Z</time>
      </trkpt>
      <trkpt lat="38.4386560" lon="-2.5200050">
        <ele>769.3</ele>
        <time>2019-11-03T09:39:43Z</time>
      </trkpt>
      <trkpt lat="38.4385870" lon="-2.5200850">
        <ele>769.3</ele>
        <time>2019-11-03T09:39:44Z</time>
      </trkpt>
      <trkpt lat="38.4385150" lon="-2.5201600">
        <ele>769.3</ele>
        <time>2019-11-03T09:39:45Z</time>
      </trkpt>
      <trkpt lat="38.4384380" lon="-2.5202310">
        <ele>769.3</ele>
        <time>2019-11-03T09:39:46Z</time>
      </trkpt>
      <trkpt lat="38.4383620" lon="-2.5202990">
        <ele>769.3</ele>
        <time>2019-11-03T09:39:47Z</time>
      </trkpt>
      <trkpt lat="38.4382820" lon="-2.5203630">
        <ele>769.3</ele>
        <time>2019-11-03T09:39:48Z</time>
      </trkpt>
      <trkpt lat="38.4382030" lon="-2.5204250">
        <ele>769.3</ele>
        <time>2019-11-03T09:39:49Z</time>
      </trkpt>
      <trkpt lat="38.4381210" lon="-2.5204860">
        <ele>769.3</ele>
        <time>2019-11-03T09:39:50Z</time>
      </trkpt>
      <trkpt lat="38.4380420" lon="-2.5205460">
        <ele>769.3</ele>
        <time>2019-11-03T09:39:51Z</time>
      </trkpt>
      <trkpt lat="38.4379620" lon="-2.5206030">
        <ele>769.3</ele>
        <time>2019-11-03T09:39:52Z</time>
      </trkpt>
      <trkpt lat="38.4378850" lon="-2.5206590">
        <ele>769.3</ele>
        <time>2019-11-03T09:39:53Z</time>
      </trkpt>
      <trkpt lat="38.4378010" lon="-2.5207250">
        <ele>769.3</ele>
        <time>2019-11-03T09:39:54Z</time>
      </trkpt>
      <trkpt lat="38.4377220" lon="-2.5207920">
        <ele>769.3</ele>
        <time>2019-11-03T09:39:55Z</time>
      </trkpt>
      <trkpt lat="38.4376420" lon="-2.5208590">
        <ele>769.3</ele>
        <time>2019-11-03T09:39:56Z</time>
      </trkpt>
      <trkpt lat="38.4375600" lon="-2.5209240">
        <ele>769.3</ele>
        <time>2019-11-03T09:39:57Z</time>
      </trkpt>
      <trkpt lat="38.4374840" lon="-2.5209890">
        <ele>769.3</ele>
        <time>2019-11-03T09:39:58Z</time>
      </trkpt>
      <trkpt lat="38.4374120" lon="-2.5210550">
        <ele>769.3</ele>
        <time>2019-11-03T09:39:59Z</time>
      </trkpt>
      <trkpt lat="38.4373320" lon="-2.5211320">
        <ele>769.3</ele>
        <time>2019-11-03T09:40:00Z</time>
      </trkpt>
      <trkpt lat="38.4372560" lon="-2.5212100">
        <ele>769.3</ele>
        <time>2019-11-03T09:40:01Z</time>
      </trkpt>
      <trkpt lat="38.4371870" lon="-2.5212890">
        <ele>769.3</ele>
        <time>2019-11-03T09:40:02Z</time>
      </trkpt>
      <trkpt lat="38.4371170" lon="-2.5213710">
        <ele>769.3</ele>
        <time>2019-11-03T09:40:03Z</time>
      </trkpt>
      <trkpt lat="38.4370530" lon="-2.5214550">
        <ele>769.3</ele>
        <time>2019-11-03T09:40:04Z</time>
      </trkpt>
      <trkpt lat="38.4369920" lon="-2.5215330">
        <ele>769.3</ele>
        <time>2019-11-03T09:40:05Z</time>
      </trkpt>
      <trkpt lat="38.4369310" lon="-2.5216130">
        <ele>769.3</ele>
        <time>2019-11-03T09:40:06Z</time>
      </trkpt>
      <trkpt lat="38.4368740" lon="-2.5216900">
        <ele>769.3</ele>
        <time>2019-11-03T09:40:07Z</time>
      </trkpt>
      <trkpt lat="38.4367490" lon="-2.5218470">
        <ele>769.3</ele>
        <time>2019-11-03T09:40:09Z</time>
      </trkpt>
      <trkpt lat="38.4366850" lon="-2.5219240">
        <ele>769.3</ele>
        <time>2019-11-03T09:40:10Z</time>
      </trkpt>
      <trkpt lat="38.4366230" lon="-2.5220000">
        <ele>769.3</ele>
        <time>2019-11-03T09:40:11Z</time>
      </trkpt>
      <trkpt lat="38.4365640" lon="-2.5220770">
        <ele>769.3</ele>
        <time>2019-11-03T09:40:12Z</time>
      </trkpt>
      <trkpt lat="38.4365080" lon="-2.5221510">
        <ele>769.3</ele>
        <time>2019-11-03T09:40:13Z</time>
      </trkpt>
      <trkpt lat="38.4364520" lon="-2.5222240">
        <ele>769.3</ele>
        <time>2019-11-03T09:40:14Z</time>
      </trkpt>
      <trkpt lat="38.4363980" lon="-2.5222960">
        <ele>769.3</ele>
        <time>2019-11-03T09:40:15Z</time>
      </trkpt>
      <trkpt lat="38.4363390" lon="-2.5223690">
        <ele>769.3</ele>
        <time>2019-11-03T09:40:16Z</time>
      </trkpt>
      <trkpt lat="38.4362910" lon="-2.5224360">
        <ele>769.3</ele>
        <time>2019-11-03T09:40:17Z</time>
      </trkpt>
      <trkpt lat="38.4362370" lon="-2.5225120">
        <ele>769.3</ele>
        <time>2019-11-03T09:40:18Z</time>
      </trkpt>
      <trkpt lat="38.4361830" lon="-2.5225900">
        <ele>769.3</ele>
        <time>2019-11-03T09:40:19Z</time>
      </trkpt>
      <trkpt lat="38.4361340" lon="-2.5226650">
        <ele>769.3</ele>
        <time>2019-11-03T09:40:20Z</time>
      </trkpt>
      <trkpt lat="38.4360810" lon="-2.5227460">
        <ele>769.3</ele>
        <time>2019-11-03T09:40:21Z</time>
      </trkpt>
      <trkpt lat="38.4360240" lon="-2.5228250">
        <ele>769.3</ele>
        <time>2019-11-03T09:40:22Z</time>
      </trkpt>
      <trkpt lat="38.4359710" lon="-2.5228970">
        <ele>769.3</ele>
        <time>2019-11-03T09:40:23Z</time>
      </trkpt>
      <trkpt lat="38.4359170" lon="-2.5229700">
        <ele>767.3</ele>
        <time>2019-11-03T09:40:24Z</time>
      </trkpt>
      <trkpt lat="38.4358600" lon="-2.5230470">
        <ele>767.3</ele>
        <time>2019-11-03T09:40:25Z</time>
      </trkpt>
      <trkpt lat="38.4358020" lon="-2.5231230">
        <ele>767.3</ele>
        <time>2019-11-03T09:40:26Z</time>
      </trkpt>
      <trkpt lat="38.4357450" lon="-2.5231990">
        <ele>767.3</ele>
        <time>2019-11-03T09:40:27Z</time>
      </trkpt>
      <trkpt lat="38.4356920" lon="-2.5232700">
        <ele>767.3</ele>
        <time>2019-11-03T09:40:28Z</time>
      </trkpt>
      <trkpt lat="38.4356300" lon="-2.5233450">
        <ele>767.3</ele>
        <time>2019-11-03T09:40:29Z</time>
      </trkpt>
      <trkpt lat="38.4355690" lon="-2.5234200">
        <ele>767.3</ele>
        <time>2019-11-03T09:40:30Z</time>
      </trkpt>
      <trkpt lat="38.4355100" lon="-2.5234970">
        <ele>767.3</ele>
        <time>2019-11-03T09:40:31Z</time>
      </trkpt>
      <trkpt lat="38.4354480" lon="-2.5235750">
        <ele>767.3</ele>
        <time>2019-11-03T09:40:32Z</time>
      </trkpt>
      <trkpt lat="38.4353890" lon="-2.5236470">
        <ele>767.3</ele>
        <time>2019-11-03T09:40:33Z</time>
      </trkpt>
      <trkpt lat="38.4353380" lon="-2.5237200">
        <ele>767.3</ele>
        <time>2019-11-03T09:40:34Z</time>
      </trkpt>
      <trkpt lat="38.4352770" lon="-2.5238020">
        <ele>767.3</ele>
        <time>2019-11-03T09:40:35Z</time>
      </trkpt>
      <trkpt lat="38.4352150" lon="-2.5238820">
        <ele>767.3</ele>
        <time>2019-11-03T09:40:36Z</time>
      </trkpt>
      <trkpt lat="38.4351540" lon="-2.5239580">
        <ele>767.3</ele>
        <time>2019-11-03T09:40:37Z</time>
      </trkpt>
      <trkpt lat="38.4350900" lon="-2.5240350">
        <ele>767.3</ele>
        <time>2019-11-03T09:40:38Z</time>
      </trkpt>
      <trkpt lat="38.4350310" lon="-2.5241090">
        <ele>767.3</ele>
        <time>2019-11-03T09:40:39Z</time>
      </trkpt>
      <trkpt lat="38.4349700" lon="-2.5241880">
        <ele>767.3</ele>
        <time>2019-11-03T09:40:40Z</time>
      </trkpt>
      <trkpt lat="38.4349130" lon="-2.5242690">
        <ele>767.3</ele>
        <time>2019-11-03T09:40:41Z</time>
      </trkpt>
      <trkpt lat="38.4348570" lon="-2.5243440">
        <ele>767.3</ele>
        <time>2019-11-03T09:40:42Z</time>
      </trkpt>
      <trkpt lat="38.4347980" lon="-2.5244270">
        <ele>767.3</ele>
        <time>2019-11-03T09:40:43Z</time>
      </trkpt>
      <trkpt lat="38.4347390" lon="-2.5245090">
        <ele>767.3</ele>
        <time>2019-11-03T09:40:44Z</time>
      </trkpt>
      <trkpt lat="38.4346780" lon="-2.5245860">
        <ele>767.3</ele>
        <time>2019-11-03T09:40:45Z</time>
      </trkpt>
      <trkpt lat="38.4346190" lon="-2.5246620">
        <ele>767.3</ele>
        <time>2019-11-03T09:40:46Z</time>
      </trkpt>
      <trkpt lat="38.4345680" lon="-2.5247300">
        <ele>767.3</ele>
        <time>2019-11-03T09:40:47Z</time>
      </trkpt>
      <trkpt lat="38.4345090" lon="-2.5248050">
        <ele>767.3</ele>
        <time>2019-11-03T09:40:48Z</time>
      </trkpt>
      <trkpt lat="38.4344550" lon="-2.5248790">
        <ele>767.3</ele>
        <time>2019-11-03T09:40:49Z</time>
      </trkpt>
      <trkpt lat="38.4344060" lon="-2.5249480">
        <ele>765.2</ele>
        <time>2019-11-03T09:40:50Z</time>
      </trkpt>
      <trkpt lat="38.4343580" lon="-2.5250190">
        <ele>765.2</ele>
        <time>2019-11-03T09:40:51Z</time>
      </trkpt>
      <trkpt lat="38.4343040" lon="-2.5250870">
        <ele>765.2</ele>
        <time>2019-11-03T09:40:52Z</time>
      </trkpt>
      <trkpt lat="38.4342500" lon="-2.5251560">
        <ele>765.2</ele>
        <time>2019-11-03T09:40:53Z</time>
      </trkpt>
      <trkpt lat="38.4341960" lon="-2.5252200">
        <ele>765.2</ele>
        <time>2019-11-03T09:40:54Z</time>
      </trkpt>
      <trkpt lat="38.4341430" lon="-2.5252900">
        <ele>765.2</ele>
        <time>2019-11-03T09:40:55Z</time>
      </trkpt>
      <trkpt lat="38.4340890" lon="-2.5253640">
        <ele>765.2</ele>
        <time>2019-11-03T09:40:56Z</time>
      </trkpt>
      <trkpt lat="38.4340400" lon="-2.5254340">
        <ele>765.2</ele>
        <time>2019-11-03T09:40:57Z</time>
      </trkpt>
      <trkpt lat="38.4339920" lon="-2.5255030">
        <ele>765.2</ele>
        <time>2019-11-03T09:40:58Z</time>
      </trkpt>
      <trkpt lat="38.4339400" lon="-2.5255710">
        <ele>765.2</ele>
        <time>2019-11-03T09:40:59Z</time>
      </trkpt>
      <trkpt lat="38.4338870" lon="-2.5256410">
        <ele>765.2</ele>
        <time>2019-11-03T09:41:00Z</time>
      </trkpt>
      <trkpt lat="38.4338380" lon="-2.5257090">
        <ele>765.2</ele>
        <time>2019-11-03T09:41:01Z</time>
      </trkpt>
      <trkpt lat="38.4337840" lon="-2.5257720">
        <ele>765.2</ele>
        <time>2019-11-03T09:41:02Z</time>
      </trkpt>
      <trkpt lat="38.4337360" lon="-2.5258300">
        <ele>765.2</ele>
        <time>2019-11-03T09:41:03Z</time>
      </trkpt>
      <trkpt lat="38.4336900" lon="-2.5258970">
        <ele>765.2</ele>
        <time>2019-11-03T09:41:04Z</time>
      </trkpt>
      <trkpt lat="38.4336310" lon="-2.5259670">
        <ele>765.2</ele>
        <time>2019-11-03T09:41:05Z</time>
      </trkpt>
      <trkpt lat="38.4335740" lon="-2.5260290">
        <ele>765.2</ele>
        <time>2019-11-03T09:41:06Z</time>
      </trkpt>
      <trkpt lat="38.4335260" lon="-2.5260890">
        <ele>765.2</ele>
        <time>2019-11-03T09:41:07Z</time>
      </trkpt>
      <trkpt lat="38.4334750" lon="-2.5261510">
        <ele>765.2</ele>
        <time>2019-11-03T09:41:08Z</time>
      </trkpt>
      <trkpt lat="38.4334260" lon="-2.5262170">
        <ele>765.2</ele>
        <time>2019-11-03T09:41:09Z</time>
      </trkpt>
      <trkpt lat="38.4333770" lon="-2.5262810">
        <ele>765.2</ele>
        <time>2019-11-03T09:41:10Z</time>
      </trkpt>
      <trkpt lat="38.4333310" lon="-2.5263460">
        <ele>765.2</ele>
        <time>2019-11-03T09:41:11Z</time>
      </trkpt>
      <trkpt lat="38.4332850" lon="-2.5264060">
        <ele>765.2</ele>
        <time>2019-11-03T09:41:12Z</time>
      </trkpt>
      <trkpt lat="38.4332390" lon="-2.5264680">
        <ele>765.2</ele>
        <time>2019-11-03T09:41:13Z</time>
      </trkpt>
      <trkpt lat="38.4331900" lon="-2.5265360">
        <ele>763.1</ele>
        <time>2019-11-03T09:41:14Z</time>
      </trkpt>
      <trkpt lat="38.4331390" lon="-2.5266040">
        <ele>763.1</ele>
        <time>2019-11-03T09:41:15Z</time>
      </trkpt>
      <trkpt lat="38.4330850" lon="-2.5266720">
        <ele>763.1</ele>
        <time>2019-11-03T09:41:16Z</time>
      </trkpt>
      <trkpt lat="38.4330390" lon="-2.5267350">
        <ele>763.1</ele>
        <time>2019-11-03T09:41:17Z</time>
      </trkpt>
      <trkpt lat="38.4329980" lon="-2.5267930">
        <ele>763.1</ele>
        <time>2019-11-03T09:41:18Z</time>
      </trkpt>
      <trkpt lat="38.4329500" lon="-2.5268610">
        <ele>763.1</ele>
        <time>2019-11-03T09:41:19Z</time>
      </trkpt>
      <trkpt lat="38.4329040" lon="-2.5269250">
        <ele>763.1</ele>
        <time>2019-11-03T09:41:20Z</time>
      </trkpt>
      <trkpt lat="38.4328580" lon="-2.5269870">
        <ele>763.1</ele>
        <time>2019-11-03T09:41:21Z</time>
      </trkpt>
      <trkpt lat="38.4328170" lon="-2.5270450">
        <ele>763.1</ele>
        <time>2019-11-03T09:41:22Z</time>
      </trkpt>
      <trkpt lat="38.4327780" lon="-2.5271020">
        <ele>763.1</ele>
        <time>2019-11-03T09:41:23Z</time>
      </trkpt>
      <trkpt lat="38.4327350" lon="-2.5271600">
        <ele>763.1</ele>
        <time>2019-11-03T09:41:24Z</time>
      </trkpt>
      <trkpt lat="38.4326940" lon="-2.5272160">
        <ele>763.1</ele>
        <time>2019-11-03T09:41:25Z</time>
      </trkpt>
      <trkpt lat="38.4326500" lon="-2.5272710">
        <ele>763.1</ele>
        <time>2019-11-03T09:41:26Z</time>
      </trkpt>
      <trkpt lat="38.4326170" lon="-2.5273210">
        <ele>763.1</ele>
        <time>2019-11-03T09:41:27Z</time>
      </trkpt>
      <trkpt lat="38.4325790" lon="-2.5273700">
        <ele>763.1</ele>
        <time>2019-11-03T09:41:28Z</time>
      </trkpt>
      <trkpt lat="38.4325400" lon="-2.5274210">
        <ele>763.1</ele>
        <time>2019-11-03T09:41:29Z</time>
      </trkpt>
      <trkpt lat="38.4325020" lon="-2.5274710">
        <ele>763.1</ele>
        <time>2019-11-03T09:41:30Z</time>
      </trkpt>
      <trkpt lat="38.4324630" lon="-2.5275210">
        <ele>763.1</ele>
        <time>2019-11-03T09:41:31Z</time>
      </trkpt>
      <trkpt lat="38.4324280" lon="-2.5275680">
        <ele>763.1</ele>
        <time>2019-11-03T09:41:32Z</time>
      </trkpt>
      <trkpt lat="38.4323920" lon="-2.5276170">
        <ele>763.1</ele>
        <time>2019-11-03T09:41:33Z</time>
      </trkpt>
      <trkpt lat="38.4323510" lon="-2.5276710">
        <ele>761.1</ele>
        <time>2019-11-03T09:41:34Z</time>
      </trkpt>
      <trkpt lat="38.4323070" lon="-2.5277240">
        <ele>761.1</ele>
        <time>2019-11-03T09:41:35Z</time>
      </trkpt>
      <trkpt lat="38.4322690" lon="-2.5277770">
        <ele>761.1</ele>
        <time>2019-11-03T09:41:36Z</time>
      </trkpt>
      <trkpt lat="38.4322330" lon="-2.5278270">
        <ele>761.1</ele>
        <time>2019-11-03T09:41:37Z</time>
      </trkpt>
      <trkpt lat="38.4321950" lon="-2.5278810">
        <ele>761.1</ele>
        <time>2019-11-03T09:41:38Z</time>
      </trkpt>
      <trkpt lat="38.4321510" lon="-2.5279360">
        <ele>761.1</ele>
        <time>2019-11-03T09:41:39Z</time>
      </trkpt>
      <trkpt lat="38.4321180" lon="-2.5279880">
        <ele>761.1</ele>
        <time>2019-11-03T09:41:40Z</time>
      </trkpt>
      <trkpt lat="38.4320790" lon="-2.5280390">
        <ele>761.1</ele>
        <time>2019-11-03T09:41:41Z</time>
      </trkpt>
      <trkpt lat="38.4320410" lon="-2.5280890">
        <ele>761.1</ele>
        <time>2019-11-03T09:41:42Z</time>
      </trkpt>
      <trkpt lat="38.4319640" lon="-2.5281910">
        <ele>761.1</ele>
        <time>2019-11-03T09:41:44Z</time>
      </trkpt>
      <trkpt lat="38.4319260" lon="-2.5282380">
        <ele>761.1</ele>
        <time>2019-11-03T09:41:45Z</time>
      </trkpt>
      <trkpt lat="38.4318870" lon="-2.5282900">
        <ele>761.1</ele>
        <time>2019-11-03T09:41:46Z</time>
      </trkpt>
      <trkpt lat="38.4318520" lon="-2.5283370">
        <ele>761.1</ele>
        <time>2019-11-03T09:41:47Z</time>
      </trkpt>
      <trkpt lat="38.4318130" lon="-2.5283850">
        <ele>761.1</ele>
        <time>2019-11-03T09:41:48Z</time>
      </trkpt>
      <trkpt lat="38.4317750" lon="-2.5284380">
        <ele>761.1</ele>
        <time>2019-11-03T09:41:49Z</time>
      </trkpt>
      <trkpt lat="38.4317360" lon="-2.5284860">
        <ele>761.1</ele>
        <time>2019-11-03T09:41:50Z</time>
      </trkpt>
      <trkpt lat="38.4316980" lon="-2.5285350">
        <ele>761.1</ele>
        <time>2019-11-03T09:41:51Z</time>
      </trkpt>
      <trkpt lat="38.4316650" lon="-2.5285850">
        <ele>758.8</ele>
        <time>2019-11-03T09:41:52Z</time>
      </trkpt>
      <trkpt lat="38.4316210" lon="-2.5286370">
        <ele>758.8</ele>
        <time>2019-11-03T09:41:53Z</time>
      </trkpt>
      <trkpt lat="38.4315830" lon="-2.5286870">
        <ele>758.8</ele>
        <time>2019-11-03T09:41:54Z</time>
      </trkpt>
      <trkpt lat="38.4315440" lon="-2.5287370">
        <ele>758.8</ele>
        <time>2019-11-03T09:41:55Z</time>
      </trkpt>
      <trkpt lat="38.4315110" lon="-2.5287840">
        <ele>758.8</ele>
        <time>2019-11-03T09:41:56Z</time>
      </trkpt>
      <trkpt lat="38.4314390" lon="-2.5288820">
        <ele>758.8</ele>
        <time>2019-11-03T09:41:58Z</time>
      </trkpt>
      <trkpt lat="38.4314010" lon="-2.5289320">
        <ele>758.8</ele>
        <time>2019-11-03T09:41:59Z</time>
      </trkpt>
      <trkpt lat="38.4313630" lon="-2.5289810">
        <ele>758.8</ele>
        <time>2019-11-03T09:42:00Z</time>
      </trkpt>
      <trkpt lat="38.4313320" lon="-2.5290270">
        <ele>758.8</ele>
        <time>2019-11-03T09:42:01Z</time>
      </trkpt>
      <trkpt lat="38.4313010" lon="-2.5290700">
        <ele>758.8</ele>
        <time>2019-11-03T09:42:02Z</time>
      </trkpt>
      <trkpt lat="38.4312290" lon="-2.5291670">
        <ele>758.8</ele>
        <time>2019-11-03T09:42:04Z</time>
      </trkpt>
      <trkpt lat="38.4311550" lon="-2.5292620">
        <ele>758.8</ele>
        <time>2019-11-03T09:42:06Z</time>
      </trkpt>
      <trkpt lat="38.4311220" lon="-2.5293080">
        <ele>758.8</ele>
        <time>2019-11-03T09:42:07Z</time>
      </trkpt>
      <trkpt lat="38.4310580" lon="-2.5293980">
        <ele>756.8</ele>
        <time>2019-11-03T09:42:09Z</time>
      </trkpt>
      <trkpt lat="38.4309910" lon="-2.5294840">
        <ele>756.8</ele>
        <time>2019-11-03T09:42:11Z</time>
      </trkpt>
      <trkpt lat="38.4309220" lon="-2.5295700">
        <ele>756.8</ele>
        <time>2019-11-03T09:42:13Z</time>
      </trkpt>
      <trkpt lat="38.4308560" lon="-2.5296600">
        <ele>756.8</ele>
        <time>2019-11-03T09:42:15Z</time>
      </trkpt>
      <trkpt lat="38.4307870" lon="-2.5297480">
        <ele>756.8</ele>
        <time>2019-11-03T09:42:17Z</time>
      </trkpt>
      <trkpt lat="38.4307170" lon="-2.5298390">
        <ele>756.8</ele>
        <time>2019-11-03T09:42:19Z</time>
      </trkpt>
      <trkpt lat="38.4306530" lon="-2.5299290">
        <ele>756.8</ele>
        <time>2019-11-03T09:42:21Z</time>
      </trkpt>
      <trkpt lat="38.4306180" lon="-2.5299760">
        <ele>756.8</ele>
        <time>2019-11-03T09:42:22Z</time>
      </trkpt>
      <trkpt lat="38.4305480" lon="-2.5300690">
        <ele>754.8</ele>
        <time>2019-11-03T09:42:24Z</time>
      </trkpt>
      <trkpt lat="38.4305130" lon="-2.5301160">
        <ele>754.8</ele>
        <time>2019-11-03T09:42:25Z</time>
      </trkpt>
      <trkpt lat="38.4304770" lon="-2.5301640">
        <ele>754.8</ele>
        <time>2019-11-03T09:42:26Z</time>
      </trkpt>
      <trkpt lat="38.4304080" lon="-2.5302540">
        <ele>754.8</ele>
        <time>2019-11-03T09:42:28Z</time>
      </trkpt>
      <trkpt lat="38.4303390" lon="-2.5303460">
        <ele>754.8</ele>
        <time>2019-11-03T09:42:30Z</time>
      </trkpt>
      <trkpt lat="38.4303030" lon="-2.5303920">
        <ele>754.8</ele>
        <time>2019-11-03T09:42:31Z</time>
      </trkpt>
      <trkpt lat="38.4302340" lon="-2.5304840">
        <ele>754.8</ele>
        <time>2019-11-03T09:42:33Z</time>
      </trkpt>
      <trkpt lat="38.4301980" lon="-2.5305300">
        <ele>754.8</ele>
        <time>2019-11-03T09:42:34Z</time>
      </trkpt>
      <trkpt lat="38.4301310" lon="-2.5306230">
        <ele>754.8</ele>
        <time>2019-11-03T09:42:36Z</time>
      </trkpt>
      <trkpt lat="38.4300620" lon="-2.5307140">
        <ele>754.8</ele>
        <time>2019-11-03T09:42:38Z</time>
      </trkpt>
      <trkpt lat="38.4299930" lon="-2.5308020">
        <ele>752.2</ele>
        <time>2019-11-03T09:42:40Z</time>
      </trkpt>
      <trkpt lat="38.4299570" lon="-2.5308450">
        <ele>752.2</ele>
        <time>2019-11-03T09:42:41Z</time>
      </trkpt>
      <trkpt lat="38.4299290" lon="-2.5308860">
        <ele>752.2</ele>
        <time>2019-11-03T09:42:42Z</time>
      </trkpt>
      <trkpt lat="38.4298620" lon="-2.5309670">
        <ele>752.2</ele>
        <time>2019-11-03T09:42:44Z</time>
      </trkpt>
      <trkpt lat="38.4298010" lon="-2.5310450">
        <ele>752.2</ele>
        <time>2019-11-03T09:42:46Z</time>
      </trkpt>
      <trkpt lat="38.4297340" lon="-2.5311170">
        <ele>752.2</ele>
        <time>2019-11-03T09:42:48Z</time>
      </trkpt>
      <trkpt lat="38.4296650" lon="-2.5311870">
        <ele>752.2</ele>
        <time>2019-11-03T09:42:50Z</time>
      </trkpt>
      <trkpt lat="38.4295960" lon="-2.5312490">
        <ele>752.2</ele>
        <time>2019-11-03T09:42:52Z</time>
      </trkpt>
      <trkpt lat="38.4295190" lon="-2.5313090">
        <ele>752.2</ele>
        <time>2019-11-03T09:42:54Z</time>
      </trkpt>
      <trkpt lat="38.4294430" lon="-2.5313580">
        <ele>749.6</ele>
        <time>2019-11-03T09:42:56Z</time>
      </trkpt>
      <trkpt lat="38.4294040" lon="-2.5313780">
        <ele>749.6</ele>
        <time>2019-11-03T09:42:57Z</time>
      </trkpt>
      <trkpt lat="38.4293300" lon="-2.5314150">
        <ele>749.6</ele>
        <time>2019-11-03T09:42:59Z</time>
      </trkpt>
      <trkpt lat="38.4292530" lon="-2.5314510">
        <ele>749.6</ele>
        <time>2019-11-03T09:43:01Z</time>
      </trkpt>
      <trkpt lat="38.4291740" lon="-2.5314900">
        <ele>749.6</ele>
        <time>2019-11-03T09:43:03Z</time>
      </trkpt>
      <trkpt lat="38.4290920" lon="-2.5315250">
        <ele>749.6</ele>
        <time>2019-11-03T09:43:05Z</time>
      </trkpt>
      <trkpt lat="38.4290070" lon="-2.5315560">
        <ele>749.6</ele>
        <time>2019-11-03T09:43:07Z</time>
      </trkpt>
      <trkpt lat="38.4289250" lon="-2.5315890">
        <ele>749.6</ele>
        <time>2019-11-03T09:43:09Z</time>
      </trkpt>
      <trkpt lat="38.4288360" lon="-2.5316240">
        <ele>749.6</ele>
        <time>2019-11-03T09:43:11Z</time>
      </trkpt>
      <trkpt lat="38.4287490" lon="-2.5316580">
        <ele>747.1</ele>
        <time>2019-11-03T09:43:13Z</time>
      </trkpt>
      <trkpt lat="38.4287030" lon="-2.5316740">
        <ele>747.1</ele>
        <time>2019-11-03T09:43:14Z</time>
      </trkpt>
      <trkpt lat="38.4286110" lon="-2.5317020">
        <ele>747.1</ele>
        <time>2019-11-03T09:43:16Z</time>
      </trkpt>
      <trkpt lat="38.4285240" lon="-2.5317320">
        <ele>747.1</ele>
        <time>2019-11-03T09:43:18Z</time>
      </trkpt>
      <trkpt lat="38.4284310" lon="-2.5317640">
        <ele>747.1</ele>
        <time>2019-11-03T09:43:20Z</time>
      </trkpt>
      <trkpt lat="38.4283490" lon="-2.5317960">
        <ele>747.1</ele>
        <time>2019-11-03T09:43:22Z</time>
      </trkpt>
      <trkpt lat="38.4282570" lon="-2.5318290">
        <ele>747.1</ele>
        <time>2019-11-03T09:43:24Z</time>
      </trkpt>
      <trkpt lat="38.4281700" lon="-2.5318610">
        <ele>747.1</ele>
        <time>2019-11-03T09:43:26Z</time>
      </trkpt>
      <trkpt lat="38.4280810" lon="-2.5318870">
        <ele>744.6</ele>
        <time>2019-11-03T09:43:28Z</time>
      </trkpt>
      <trkpt lat="38.4280400" lon="-2.5319000">
        <ele>744.6</ele>
        <time>2019-11-03T09:43:29Z</time>
      </trkpt>
      <trkpt lat="38.4279530" lon="-2.5319280">
        <ele>744.6</ele>
        <time>2019-11-03T09:43:31Z</time>
      </trkpt>
      <trkpt lat="38.4279070" lon="-2.5319430">
        <ele>744.6</ele>
        <time>2019-11-03T09:43:32Z</time>
      </trkpt>
      <trkpt lat="38.4278120" lon="-2.5319720">
        <ele>744.6</ele>
        <time>2019-11-03T09:43:34Z</time>
      </trkpt>
      <trkpt lat="38.4277660" lon="-2.5319850">
        <ele>744.6</ele>
        <time>2019-11-03T09:43:35Z</time>
      </trkpt>
      <trkpt lat="38.4276760" lon="-2.5320140">
        <ele>744.6</ele>
        <time>2019-11-03T09:43:37Z</time>
      </trkpt>
      <trkpt lat="38.4275870" lon="-2.5320590">
        <ele>744.6</ele>
        <time>2019-11-03T09:43:39Z</time>
      </trkpt>
      <trkpt lat="38.4274970" lon="-2.5321150">
        <ele>744.6</ele>
        <time>2019-11-03T09:43:41Z</time>
      </trkpt>
      <trkpt lat="38.4274560" lon="-2.5321420">
        <ele>744.6</ele>
        <time>2019-11-03T09:43:42Z</time>
      </trkpt>
      <trkpt lat="38.4273690" lon="-2.5322040">
        <ele>742.5</ele>
        <time>2019-11-03T09:43:44Z</time>
      </trkpt>
      <trkpt lat="38.4273310" lon="-2.5322340">
        <ele>742.5</ele>
        <time>2019-11-03T09:43:45Z</time>
      </trkpt>
      <trkpt lat="38.4272440" lon="-2.5323070">
        <ele>742.5</ele>
        <time>2019-11-03T09:43:47Z</time>
      </trkpt>
      <trkpt lat="38.4272000" lon="-2.5323470">
        <ele>742.5</ele>
        <time>2019-11-03T09:43:48Z</time>
      </trkpt>
      <trkpt lat="38.4271670" lon="-2.5323860">
        <ele>742.5</ele>
        <time>2019-11-03T09:43:49Z</time>
      </trkpt>
      <trkpt lat="38.4270900" lon="-2.5324780">
        <ele>742.5</ele>
        <time>2019-11-03T09:43:51Z</time>
      </trkpt>
      <trkpt lat="38.4270540" lon="-2.5325280">
        <ele>742.5</ele>
        <time>2019-11-03T09:43:52Z</time>
      </trkpt>
      <trkpt lat="38.4270210" lon="-2.5325800">
        <ele>742.5</ele>
        <time>2019-11-03T09:43:53Z</time>
      </trkpt>
      <trkpt lat="38.4269640" lon="-2.5326850">
        <ele>742.5</ele>
        <time>2019-11-03T09:43:55Z</time>
      </trkpt>
      <trkpt lat="38.4269340" lon="-2.5327400">
        <ele>742.5</ele>
        <time>2019-11-03T09:43:56Z</time>
      </trkpt>
      <trkpt lat="38.4269030" lon="-2.5328010">
        <ele>742.5</ele>
        <time>2019-11-03T09:43:57Z</time>
      </trkpt>
      <trkpt lat="38.4268750" lon="-2.5328640">
        <ele>742.5</ele>
        <time>2019-11-03T09:43:58Z</time>
      </trkpt>
      <trkpt lat="38.4268490" lon="-2.5329290">
        <ele>742.5</ele>
        <time>2019-11-03T09:43:59Z</time>
      </trkpt>
      <trkpt lat="38.4268240" lon="-2.5329960">
        <ele>742.5</ele>
        <time>2019-11-03T09:44:00Z</time>
      </trkpt>
      <trkpt lat="38.4268010" lon="-2.5330590">
        <ele>742.5</ele>
        <time>2019-11-03T09:44:01Z</time>
      </trkpt>
      <trkpt lat="38.4267720" lon="-2.5331310">
        <ele>742.5</ele>
        <time>2019-11-03T09:44:02Z</time>
      </trkpt>
      <trkpt lat="38.4267490" lon="-2.5332030">
        <ele>742.5</ele>
        <time>2019-11-03T09:44:03Z</time>
      </trkpt>
      <trkpt lat="38.4267240" lon="-2.5332780">
        <ele>742.5</ele>
        <time>2019-11-03T09:44:04Z</time>
      </trkpt>
      <trkpt lat="38.4266960" lon="-2.5333480">
        <ele>742.5</ele>
        <time>2019-11-03T09:44:05Z</time>
      </trkpt>
      <trkpt lat="38.4266700" lon="-2.5334250">
        <ele>742.5</ele>
        <time>2019-11-03T09:44:06Z</time>
      </trkpt>
      <trkpt lat="38.4266440" lon="-2.5334970">
        <ele>742.5</ele>
        <time>2019-11-03T09:44:07Z</time>
      </trkpt>
      <trkpt lat="38.4266160" lon="-2.5335770">
        <ele>740.4</ele>
        <time>2019-11-03T09:44:08Z</time>
      </trkpt>
      <trkpt lat="38.4265910" lon="-2.5336510">
        <ele>740.4</ele>
        <time>2019-11-03T09:44:09Z</time>
      </trkpt>
      <trkpt lat="38.4265630" lon="-2.5337290">
        <ele>740.4</ele>
        <time>2019-11-03T09:44:10Z</time>
      </trkpt>
      <trkpt lat="38.4265370" lon="-2.5338070">
        <ele>740.4</ele>
        <time>2019-11-03T09:44:11Z</time>
      </trkpt>
      <trkpt lat="38.4265060" lon="-2.5338910">
        <ele>740.4</ele>
        <time>2019-11-03T09:44:12Z</time>
      </trkpt>
      <trkpt lat="38.4264760" lon="-2.5339680">
        <ele>740.4</ele>
        <time>2019-11-03T09:44:13Z</time>
      </trkpt>
      <trkpt lat="38.4264450" lon="-2.5340520">
        <ele>740.4</ele>
        <time>2019-11-03T09:44:14Z</time>
      </trkpt>
      <trkpt lat="38.4264140" lon="-2.5341380">
        <ele>740.4</ele>
        <time>2019-11-03T09:44:15Z</time>
      </trkpt>
      <trkpt lat="38.4263880" lon="-2.5342120">
        <ele>740.4</ele>
        <time>2019-11-03T09:44:16Z</time>
      </trkpt>
      <trkpt lat="38.4263600" lon="-2.5342950">
        <ele>740.4</ele>
        <time>2019-11-03T09:44:17Z</time>
      </trkpt>
      <trkpt lat="38.4263300" lon="-2.5343780">
        <ele>738.4</ele>
        <time>2019-11-03T09:44:18Z</time>
      </trkpt>
      <trkpt lat="38.4263040" lon="-2.5344620">
        <ele>738.4</ele>
        <time>2019-11-03T09:44:19Z</time>
      </trkpt>
      <trkpt lat="38.4262730" lon="-2.5345460">
        <ele>738.4</ele>
        <time>2019-11-03T09:44:20Z</time>
      </trkpt>
      <trkpt lat="38.4262400" lon="-2.5346310">
        <ele>738.4</ele>
        <time>2019-11-03T09:44:21Z</time>
      </trkpt>
      <trkpt lat="38.4262090" lon="-2.5347160">
        <ele>738.4</ele>
        <time>2019-11-03T09:44:22Z</time>
      </trkpt>
      <trkpt lat="38.4261730" lon="-2.5348010">
        <ele>738.4</ele>
        <time>2019-11-03T09:44:23Z</time>
      </trkpt>
      <trkpt lat="38.4261350" lon="-2.5348900">
        <ele>738.4</ele>
        <time>2019-11-03T09:44:24Z</time>
      </trkpt>
      <trkpt lat="38.4261020" lon="-2.5349780">
        <ele>738.4</ele>
        <time>2019-11-03T09:44:25Z</time>
      </trkpt>
      <trkpt lat="38.4260680" lon="-2.5350570">
        <ele>738.4</ele>
        <time>2019-11-03T09:44:26Z</time>
      </trkpt>
      <trkpt lat="38.4260300" lon="-2.5351350">
        <ele>738.4</ele>
        <time>2019-11-03T09:44:27Z</time>
      </trkpt>
      <trkpt lat="38.4259920" lon="-2.5352160">
        <ele>738.4</ele>
        <time>2019-11-03T09:44:28Z</time>
      </trkpt>
      <trkpt lat="38.4259460" lon="-2.5352950">
        <ele>738.4</ele>
        <time>2019-11-03T09:44:29Z</time>
      </trkpt>
      <trkpt lat="38.4259000" lon="-2.5353700">
        <ele>738.4</ele>
        <time>2019-11-03T09:44:30Z</time>
      </trkpt>
      <trkpt lat="38.4258530" lon="-2.5354410">
        <ele>738.4</ele>
        <time>2019-11-03T09:44:31Z</time>
      </trkpt>
      <trkpt lat="38.4258050" lon="-2.5355040">
        <ele>738.4</ele>
        <time>2019-11-03T09:44:32Z</time>
      </trkpt>
      <trkpt lat="38.4257590" lon="-2.5355660">
        <ele>738.4</ele>
        <time>2019-11-03T09:44:33Z</time>
      </trkpt>
      <trkpt lat="38.4257080" lon="-2.5356270">
        <ele>738.4</ele>
        <time>2019-11-03T09:44:34Z</time>
      </trkpt>
      <trkpt lat="38.4256560" lon="-2.5356860">
        <ele>738.4</ele>
        <time>2019-11-03T09:44:35Z</time>
      </trkpt>
      <trkpt lat="38.4256030" lon="-2.5357430">
        <ele>738.4</ele>
        <time>2019-11-03T09:44:36Z</time>
      </trkpt>
      <trkpt lat="38.4255410" lon="-2.5358020">
        <ele>738.4</ele>
        <time>2019-11-03T09:44:37Z</time>
      </trkpt>
      <trkpt lat="38.4254850" lon="-2.5358580">
        <ele>738.4</ele>
        <time>2019-11-03T09:44:38Z</time>
      </trkpt>
      <trkpt lat="38.4254260" lon="-2.5359120">
        <ele>738.4</ele>
        <time>2019-11-03T09:44:39Z</time>
      </trkpt>
      <trkpt lat="38.4253700" lon="-2.5359640">
        <ele>738.4</ele>
        <time>2019-11-03T09:44:40Z</time>
      </trkpt>
      <trkpt lat="38.4253160" lon="-2.5360140">
        <ele>738.4</ele>
        <time>2019-11-03T09:44:41Z</time>
      </trkpt>
      <trkpt lat="38.4252600" lon="-2.5360630">
        <ele>738.4</ele>
        <time>2019-11-03T09:44:42Z</time>
      </trkpt>
      <trkpt lat="38.4252060" lon="-2.5361120">
        <ele>738.4</ele>
        <time>2019-11-03T09:44:43Z</time>
      </trkpt>
      <trkpt lat="38.4251550" lon="-2.5361610">
        <ele>738.4</ele>
        <time>2019-11-03T09:44:44Z</time>
      </trkpt>
      <trkpt lat="38.4251030" lon="-2.5362070">
        <ele>738.4</ele>
        <time>2019-11-03T09:44:45Z</time>
      </trkpt>
      <trkpt lat="38.4250520" lon="-2.5362560">
        <ele>736.4</ele>
        <time>2019-11-03T09:44:46Z</time>
      </trkpt>
      <trkpt lat="38.4250040" lon="-2.5363090">
        <ele>736.4</ele>
        <time>2019-11-03T09:44:47Z</time>
      </trkpt>
      <trkpt lat="38.4249570" lon="-2.5363620">
        <ele>736.4</ele>
        <time>2019-11-03T09:44:48Z</time>
      </trkpt>
      <trkpt lat="38.4249110" lon="-2.5364150">
        <ele>736.4</ele>
        <time>2019-11-03T09:44:49Z</time>
      </trkpt>
      <trkpt lat="38.4248730" lon="-2.5364650">
        <ele>736.4</ele>
        <time>2019-11-03T09:44:50Z</time>
      </trkpt>
      <trkpt lat="38.4248400" lon="-2.5365150">
        <ele>736.4</ele>
        <time>2019-11-03T09:44:51Z</time>
      </trkpt>
      <trkpt lat="38.4247630" lon="-2.5366360">
        <ele>736.4</ele>
        <time>2019-11-03T09:44:53Z</time>
      </trkpt>
      <trkpt lat="38.4247300" lon="-2.5366930">
        <ele>736.4</ele>
        <time>2019-11-03T09:44:54Z</time>
      </trkpt>
      <trkpt lat="38.4246940" lon="-2.5367550">
        <ele>736.4</ele>
        <time>2019-11-03T09:44:55Z</time>
      </trkpt>
      <trkpt lat="38.4246630" lon="-2.5368180">
        <ele>736.4</ele>
        <time>2019-11-03T09:44:56Z</time>
      </trkpt>
      <trkpt lat="38.4246320" lon="-2.5368800">
        <ele>736.4</ele>
        <time>2019-11-03T09:44:57Z</time>
      </trkpt>
      <trkpt lat="38.4246070" lon="-2.5369440">
        <ele>736.4</ele>
        <time>2019-11-03T09:44:58Z</time>
      </trkpt>
      <trkpt lat="38.4245840" lon="-2.5370030">
        <ele>736.4</ele>
        <time>2019-11-03T09:44:59Z</time>
      </trkpt>
      <trkpt lat="38.4245610" lon="-2.5370680">
        <ele>736.4</ele>
        <time>2019-11-03T09:45:00Z</time>
      </trkpt>
      <trkpt lat="38.4245380" lon="-2.5371330">
        <ele>736.4</ele>
        <time>2019-11-03T09:45:01Z</time>
      </trkpt>
      <trkpt lat="38.4245150" lon="-2.5371990">
        <ele>736.4</ele>
        <time>2019-11-03T09:45:02Z</time>
      </trkpt>
      <trkpt lat="38.4244970" lon="-2.5372620">
        <ele>736.4</ele>
        <time>2019-11-03T09:45:03Z</time>
      </trkpt>
      <trkpt lat="38.4244740" lon="-2.5373320">
        <ele>734.0</ele>
        <time>2019-11-03T09:45:04Z</time>
      </trkpt>
      <trkpt lat="38.4244530" lon="-2.5373980">
        <ele>734.0</ele>
        <time>2019-11-03T09:45:05Z</time>
      </trkpt>
      <trkpt lat="38.4244300" lon="-2.5374730">
        <ele>734.0</ele>
        <time>2019-11-03T09:45:06Z</time>
      </trkpt>
      <trkpt lat="38.4244070" lon="-2.5375490">
        <ele>734.0</ele>
        <time>2019-11-03T09:45:07Z</time>
      </trkpt>
      <trkpt lat="38.4243810" lon="-2.5376260">
        <ele>734.0</ele>
        <time>2019-11-03T09:45:08Z</time>
      </trkpt>
      <trkpt lat="38.4243580" lon="-2.5377030">
        <ele>734.0</ele>
        <time>2019-11-03T09:45:09Z</time>
      </trkpt>
      <trkpt lat="38.4243330" lon="-2.5377820">
        <ele>734.0</ele>
        <time>2019-11-03T09:45:10Z</time>
      </trkpt>
      <trkpt lat="38.4243050" lon="-2.5378630">
        <ele>734.0</ele>
        <time>2019-11-03T09:45:11Z</time>
      </trkpt>
      <trkpt lat="38.4242790" lon="-2.5379540">
        <ele>734.0</ele>
        <time>2019-11-03T09:45:12Z</time>
      </trkpt>
      <trkpt lat="38.4242510" lon="-2.5380460">
        <ele>734.0</ele>
        <time>2019-11-03T09:45:13Z</time>
      </trkpt>
      <trkpt lat="38.4242330" lon="-2.5381270">
        <ele>734.0</ele>
        <time>2019-11-03T09:45:14Z</time>
      </trkpt>
      <trkpt lat="38.4242050" lon="-2.5382180">
        <ele>734.0</ele>
        <time>2019-11-03T09:45:15Z</time>
      </trkpt>
      <trkpt lat="38.4241790" lon="-2.5383120">
        <ele>734.0</ele>
        <time>2019-11-03T09:45:16Z</time>
      </trkpt>
      <trkpt lat="38.4241480" lon="-2.5384090">
        <ele>734.0</ele>
        <time>2019-11-03T09:45:17Z</time>
      </trkpt>
      <trkpt lat="38.4241150" lon="-2.5385040">
        <ele>734.0</ele>
        <time>2019-11-03T09:45:18Z</time>
      </trkpt>
      <trkpt lat="38.4240840" lon="-2.5386000">
        <ele>734.0</ele>
        <time>2019-11-03T09:45:19Z</time>
      </trkpt>
      <trkpt lat="38.4240540" lon="-2.5386960">
        <ele>734.0</ele>
        <time>2019-11-03T09:45:20Z</time>
      </trkpt>
      <trkpt lat="38.4240230" lon="-2.5387940">
        <ele>734.0</ele>
        <time>2019-11-03T09:45:21Z</time>
      </trkpt>
      <trkpt lat="38.4239920" lon="-2.5388930">
        <ele>734.0</ele>
        <time>2019-11-03T09:45:22Z</time>
      </trkpt>
      <trkpt lat="38.4239620" lon="-2.5389940">
        <ele>734.0</ele>
        <time>2019-11-03T09:45:23Z</time>
      </trkpt>
      <trkpt lat="38.4239310" lon="-2.5390960">
        <ele>734.0</ele>
        <time>2019-11-03T09:45:24Z</time>
      </trkpt>
      <trkpt lat="38.4239050" lon="-2.5391990">
        <ele>734.0</ele>
        <time>2019-11-03T09:45:25Z</time>
      </trkpt>
      <trkpt lat="38.4238750" lon="-2.5393030">
        <ele>734.0</ele>
        <time>2019-11-03T09:45:26Z</time>
      </trkpt>
      <trkpt lat="38.4238440" lon="-2.5394060">
        <ele>734.0</ele>
        <time>2019-11-03T09:45:27Z</time>
      </trkpt>
      <trkpt lat="38.4238160" lon="-2.5395090">
        <ele>734.0</ele>
        <time>2019-11-03T09:45:28Z</time>
      </trkpt>
      <trkpt lat="38.4237900" lon="-2.5396110">
        <ele>734.0</ele>
        <time>2019-11-03T09:45:29Z</time>
      </trkpt>
      <trkpt lat="38.4237640" lon="-2.5397060">
        <ele>734.0</ele>
        <time>2019-11-03T09:45:30Z</time>
      </trkpt>
      <trkpt lat="38.4237360" lon="-2.5398120">
        <ele>734.0</ele>
        <time>2019-11-03T09:45:31Z</time>
      </trkpt>
      <trkpt lat="38.4237060" lon="-2.5399220">
        <ele>734.0</ele>
        <time>2019-11-03T09:45:32Z</time>
      </trkpt>
      <trkpt lat="38.4236750" lon="-2.5400290">
        <ele>734.0</ele>
        <time>2019-11-03T09:45:33Z</time>
      </trkpt>
      <trkpt lat="38.4236440" lon="-2.5401340">
        <ele>734.0</ele>
        <time>2019-11-03T09:45:34Z</time>
      </trkpt>
      <trkpt lat="38.4236130" lon="-2.5402380">
        <ele>734.0</ele>
        <time>2019-11-03T09:45:35Z</time>
      </trkpt>
      <trkpt lat="38.4235830" lon="-2.5403390">
        <ele>731.9</ele>
        <time>2019-11-03T09:45:36Z</time>
      </trkpt>
      <trkpt lat="38.4235550" lon="-2.5404340">
        <ele>731.9</ele>
        <time>2019-11-03T09:45:37Z</time>
      </trkpt>
      <trkpt lat="38.4235190" lon="-2.5405340">
        <ele>731.9</ele>
        <time>2019-11-03T09:45:38Z</time>
      </trkpt>
      <trkpt lat="38.4234780" lon="-2.5406340">
        <ele>731.9</ele>
        <time>2019-11-03T09:45:39Z</time>
      </trkpt>
      <trkpt lat="38.4234340" lon="-2.5407280">
        <ele>731.9</ele>
        <time>2019-11-03T09:45:40Z</time>
      </trkpt>
      <trkpt lat="38.4233880" lon="-2.5408160">
        <ele>731.9</ele>
        <time>2019-11-03T09:45:41Z</time>
      </trkpt>
      <trkpt lat="38.4233370" lon="-2.5409000">
        <ele>731.9</ele>
        <time>2019-11-03T09:45:42Z</time>
      </trkpt>
      <trkpt lat="38.4232830" lon="-2.5409780">
        <ele>731.9</ele>
        <time>2019-11-03T09:45:43Z</time>
      </trkpt>
      <trkpt lat="38.4232240" lon="-2.5410490">
        <ele>731.9</ele>
        <time>2019-11-03T09:45:44Z</time>
      </trkpt>
      <trkpt lat="38.4231680" lon="-2.5411140">
        <ele>731.9</ele>
        <time>2019-11-03T09:45:45Z</time>
      </trkpt>
      <trkpt lat="38.4231040" lon="-2.5411710">
        <ele>731.9</ele>
        <time>2019-11-03T09:45:46Z</time>
      </trkpt>
      <trkpt lat="38.4230430" lon="-2.5412210">
        <ele>731.9</ele>
        <time>2019-11-03T09:45:47Z</time>
      </trkpt>
      <trkpt lat="38.4229040" lon="-2.5412990">
        <ele>731.9</ele>
        <time>2019-11-03T09:45:49Z</time>
      </trkpt>
      <trkpt lat="38.4228350" lon="-2.5413300">
        <ele>731.9</ele>
        <time>2019-11-03T09:45:50Z</time>
      </trkpt>
      <trkpt lat="38.4227690" lon="-2.5413590">
        <ele>731.9</ele>
        <time>2019-11-03T09:45:51Z</time>
      </trkpt>
      <trkpt lat="38.4227020" lon="-2.5413800">
        <ele>731.9</ele>
        <time>2019-11-03T09:45:52Z</time>
      </trkpt>
      <trkpt lat="38.4226330" lon="-2.5413830">
        <ele>731.9</ele>
        <time>2019-11-03T09:45:53Z</time>
      </trkpt>
      <trkpt lat="38.4225660" lon="-2.5413890">
        <ele>731.9</ele>
        <time>2019-11-03T09:45:54Z</time>
      </trkpt>
      <trkpt lat="38.4224970" lon="-2.5414010">
        <ele>731.9</ele>
        <time>2019-11-03T09:45:55Z</time>
      </trkpt>
      <trkpt lat="38.4224280" lon="-2.5414110">
        <ele>731.9</ele>
        <time>2019-11-03T09:45:56Z</time>
      </trkpt>
      <trkpt lat="38.4223560" lon="-2.5414210">
        <ele>731.9</ele>
        <time>2019-11-03T09:45:57Z</time>
      </trkpt>
      <trkpt lat="38.4222820" lon="-2.5414310">
        <ele>731.9</ele>
        <time>2019-11-03T09:45:58Z</time>
      </trkpt>
      <trkpt lat="38.4222110" lon="-2.5414390">
        <ele>731.9</ele>
        <time>2019-11-03T09:45:59Z</time>
      </trkpt>
      <trkpt lat="38.4221390" lon="-2.5414480">
        <ele>731.9</ele>
        <time>2019-11-03T09:46:00Z</time>
      </trkpt>
      <trkpt lat="38.4220700" lon="-2.5414590">
        <ele>731.9</ele>
        <time>2019-11-03T09:46:01Z</time>
      </trkpt>
      <trkpt lat="38.4219980" lon="-2.5414720">
        <ele>731.9</ele>
        <time>2019-11-03T09:46:02Z</time>
      </trkpt>
      <trkpt lat="38.4219290" lon="-2.5414890">
        <ele>731.9</ele>
        <time>2019-11-03T09:46:03Z</time>
      </trkpt>
      <trkpt lat="38.4218600" lon="-2.5415100">
        <ele>731.9</ele>
        <time>2019-11-03T09:46:04Z</time>
      </trkpt>
      <trkpt lat="38.4217910" lon="-2.5415350">
        <ele>731.9</ele>
        <time>2019-11-03T09:46:05Z</time>
      </trkpt>
      <trkpt lat="38.4217270" lon="-2.5415650">
        <ele>731.9</ele>
        <time>2019-11-03T09:46:06Z</time>
      </trkpt>
      <trkpt lat="38.4216600" lon="-2.5416000">
        <ele>731.9</ele>
        <time>2019-11-03T09:46:07Z</time>
      </trkpt>
      <trkpt lat="38.4216040" lon="-2.5416360">
        <ele>729.9</ele>
        <time>2019-11-03T09:46:08Z</time>
      </trkpt>
      <trkpt lat="38.4215480" lon="-2.5416800">
        <ele>729.9</ele>
        <time>2019-11-03T09:46:09Z</time>
      </trkpt>
      <trkpt lat="38.4214940" lon="-2.5417290">
        <ele>729.9</ele>
        <time>2019-11-03T09:46:10Z</time>
      </trkpt>
      <trkpt lat="38.4214450" lon="-2.5417770">
        <ele>729.9</ele>
        <time>2019-11-03T09:46:11Z</time>
      </trkpt>
      <trkpt lat="38.4213940" lon="-2.5418320">
        <ele>729.9</ele>
        <time>2019-11-03T09:46:12Z</time>
      </trkpt>
      <trkpt lat="38.4213400" lon="-2.5418900">
        <ele>729.9</ele>
        <time>2019-11-03T09:46:13Z</time>
      </trkpt>
      <trkpt lat="38.4212920" lon="-2.5419480">
        <ele>729.9</ele>
        <time>2019-11-03T09:46:14Z</time>
      </trkpt>
      <trkpt lat="38.4212430" lon="-2.5420080">
        <ele>729.9</ele>
        <time>2019-11-03T09:46:15Z</time>
      </trkpt>
      <trkpt lat="38.4211970" lon="-2.5420620">
        <ele>729.9</ele>
        <time>2019-11-03T09:46:16Z</time>
      </trkpt>
      <trkpt lat="38.4211510" lon="-2.5421200">
        <ele>729.9</ele>
        <time>2019-11-03T09:46:17Z</time>
      </trkpt>
      <trkpt lat="38.4211070" lon="-2.5421740">
        <ele>729.9</ele>
        <time>2019-11-03T09:46:18Z</time>
      </trkpt>
      <trkpt lat="38.4210640" lon="-2.5422300">
        <ele>729.9</ele>
        <time>2019-11-03T09:46:19Z</time>
      </trkpt>
      <trkpt lat="38.4210180" lon="-2.5422910">
        <ele>729.9</ele>
        <time>2019-11-03T09:46:20Z</time>
      </trkpt>
      <trkpt lat="38.4209740" lon="-2.5423490">
        <ele>729.9</ele>
        <time>2019-11-03T09:46:21Z</time>
      </trkpt>
      <trkpt lat="38.4209330" lon="-2.5424070">
        <ele>729.9</ele>
        <time>2019-11-03T09:46:22Z</time>
      </trkpt>
      <trkpt lat="38.4208900" lon="-2.5424630">
        <ele>729.9</ele>
        <time>2019-11-03T09:46:23Z</time>
      </trkpt>
      <trkpt lat="38.4208490" lon="-2.5425160">
        <ele>729.9</ele>
        <time>2019-11-03T09:46:24Z</time>
      </trkpt>
      <trkpt lat="38.4208080" lon="-2.5425700">
        <ele>729.9</ele>
        <time>2019-11-03T09:46:25Z</time>
      </trkpt>
      <trkpt lat="38.4207690" lon="-2.5426250">
        <ele>729.9</ele>
        <time>2019-11-03T09:46:26Z</time>
      </trkpt>
      <trkpt lat="38.4207260" lon="-2.5426800">
        <ele>729.9</ele>
        <time>2019-11-03T09:46:27Z</time>
      </trkpt>
      <trkpt lat="38.4206870" lon="-2.5427340">
        <ele>729.9</ele>
        <time>2019-11-03T09:46:28Z</time>
      </trkpt>
      <trkpt lat="38.4206460" lon="-2.5427880">
        <ele>729.9</ele>
        <time>2019-11-03T09:46:29Z</time>
      </trkpt>
      <trkpt lat="38.4206000" lon="-2.5428420">
        <ele>729.9</ele>
        <time>2019-11-03T09:46:30Z</time>
      </trkpt>
      <trkpt lat="38.4205590" lon="-2.5428950">
        <ele>729.9</ele>
        <time>2019-11-03T09:46:31Z</time>
      </trkpt>
      <trkpt lat="38.4205160" lon="-2.5429470">
        <ele>729.9</ele>
        <time>2019-11-03T09:46:32Z</time>
      </trkpt>
      <trkpt lat="38.4204750" lon="-2.5429980">
        <ele>729.9</ele>
        <time>2019-11-03T09:46:33Z</time>
      </trkpt>
      <trkpt lat="38.4204360" lon="-2.5430480">
        <ele>729.9</ele>
        <time>2019-11-03T09:46:34Z</time>
      </trkpt>
      <trkpt lat="38.4203980" lon="-2.5430950">
        <ele>729.9</ele>
        <time>2019-11-03T09:46:35Z</time>
      </trkpt>
      <trkpt lat="38.4203570" lon="-2.5431460">
        <ele>729.9</ele>
        <time>2019-11-03T09:46:36Z</time>
      </trkpt>
      <trkpt lat="38.4203140" lon="-2.5431960">
        <ele>729.9</ele>
        <time>2019-11-03T09:46:37Z</time>
      </trkpt>
      <trkpt lat="38.4202780" lon="-2.5432430">
        <ele>729.9</ele>
        <time>2019-11-03T09:46:38Z</time>
      </trkpt>
      <trkpt lat="38.4202390" lon="-2.5432920">
        <ele>729.9</ele>
        <time>2019-11-03T09:46:39Z</time>
      </trkpt>
      <trkpt lat="38.4201960" lon="-2.5433410">
        <ele>727.8</ele>
        <time>2019-11-03T09:46:40Z</time>
      </trkpt>
      <trkpt lat="38.4201550" lon="-2.5433940">
        <ele>727.8</ele>
        <time>2019-11-03T09:46:41Z</time>
      </trkpt>
      <trkpt lat="38.4201110" lon="-2.5434420">
        <ele>727.8</ele>
        <time>2019-11-03T09:46:42Z</time>
      </trkpt>
      <trkpt lat="38.4200680" lon="-2.5434950">
        <ele>727.8</ele>
        <time>2019-11-03T09:46:43Z</time>
      </trkpt>
      <trkpt lat="38.4200240" lon="-2.5435470">
        <ele>727.8</ele>
        <time>2019-11-03T09:46:44Z</time>
      </trkpt>
      <trkpt lat="38.4199780" lon="-2.5435990">
        <ele>727.8</ele>
        <time>2019-11-03T09:46:45Z</time>
      </trkpt>
      <trkpt lat="38.4199400" lon="-2.5436480">
        <ele>727.8</ele>
        <time>2019-11-03T09:46:46Z</time>
      </trkpt>
      <trkpt lat="38.4198960" lon="-2.5437040">
        <ele>727.8</ele>
        <time>2019-11-03T09:46:47Z</time>
      </trkpt>
      <trkpt lat="38.4198530" lon="-2.5437600">
        <ele>727.8</ele>
        <time>2019-11-03T09:46:48Z</time>
      </trkpt>
      <trkpt lat="38.4198070" lon="-2.5438180">
        <ele>727.8</ele>
        <time>2019-11-03T09:46:49Z</time>
      </trkpt>
      <trkpt lat="38.4197660" lon="-2.5438750">
        <ele>727.8</ele>
        <time>2019-11-03T09:46:50Z</time>
      </trkpt>
      <trkpt lat="38.4197220" lon="-2.5439280">
        <ele>727.8</ele>
        <time>2019-11-03T09:46:51Z</time>
      </trkpt>
      <trkpt lat="38.4196740" lon="-2.5439870">
        <ele>727.8</ele>
        <time>2019-11-03T09:46:52Z</time>
      </trkpt>
      <trkpt lat="38.4196280" lon="-2.5440450">
        <ele>727.8</ele>
        <time>2019-11-03T09:46:53Z</time>
      </trkpt>
      <trkpt lat="38.4195870" lon="-2.5441030">
        <ele>727.8</ele>
        <time>2019-11-03T09:46:54Z</time>
      </trkpt>
      <trkpt lat="38.4195400" lon="-2.5441600">
        <ele>727.8</ele>
        <time>2019-11-03T09:46:55Z</time>
      </trkpt>
      <trkpt lat="38.4195020" lon="-2.5442130">
        <ele>727.8</ele>
        <time>2019-11-03T09:46:56Z</time>
      </trkpt>
      <trkpt lat="38.4194560" lon="-2.5442700">
        <ele>727.8</ele>
        <time>2019-11-03T09:46:57Z</time>
      </trkpt>
      <trkpt lat="38.4194150" lon="-2.5443220">
        <ele>727.8</ele>
        <time>2019-11-03T09:46:58Z</time>
      </trkpt>
      <trkpt lat="38.4193690" lon="-2.5443780">
        <ele>727.8</ele>
        <time>2019-11-03T09:46:59Z</time>
      </trkpt>
      <trkpt lat="38.4193280" lon="-2.5444330">
        <ele>727.8</ele>
        <time>2019-11-03T09:47:00Z</time>
      </trkpt>
      <trkpt lat="38.4192820" lon="-2.5444890">
        <ele>727.8</ele>
        <time>2019-11-03T09:47:01Z</time>
      </trkpt>
      <trkpt lat="38.4192360" lon="-2.5445450">
        <ele>727.8</ele>
        <time>2019-11-03T09:47:02Z</time>
      </trkpt>
      <trkpt lat="38.4191920" lon="-2.5445960">
        <ele>727.8</ele>
        <time>2019-11-03T09:47:03Z</time>
      </trkpt>
      <trkpt lat="38.4191510" lon="-2.5446500">
        <ele>727.8</ele>
        <time>2019-11-03T09:47:04Z</time>
      </trkpt>
      <trkpt lat="38.4191100" lon="-2.5446990">
        <ele>727.8</ele>
        <time>2019-11-03T09:47:05Z</time>
      </trkpt>
      <trkpt lat="38.4190640" lon="-2.5447520">
        <ele>727.8</ele>
        <time>2019-11-03T09:47:06Z</time>
      </trkpt>
      <trkpt lat="38.4190180" lon="-2.5448050">
        <ele>727.8</ele>
        <time>2019-11-03T09:47:07Z</time>
      </trkpt>
      <trkpt lat="38.4189750" lon="-2.5448580">
        <ele>727.8</ele>
        <time>2019-11-03T09:47:08Z</time>
      </trkpt>
      <trkpt lat="38.4189310" lon="-2.5449130">
        <ele>727.8</ele>
        <time>2019-11-03T09:47:09Z</time>
      </trkpt>
      <trkpt lat="38.4188850" lon="-2.5449690">
        <ele>727.8</ele>
        <time>2019-11-03T09:47:10Z</time>
      </trkpt>
      <trkpt lat="38.4188390" lon="-2.5450260">
        <ele>727.8</ele>
        <time>2019-11-03T09:47:11Z</time>
      </trkpt>
      <trkpt lat="38.4187880" lon="-2.5450830">
        <ele>727.8</ele>
        <time>2019-11-03T09:47:12Z</time>
      </trkpt>
      <trkpt lat="38.4187440" lon="-2.5451410">
        <ele>727.8</ele>
        <time>2019-11-03T09:47:13Z</time>
      </trkpt>
      <trkpt lat="38.4186930" lon="-2.5451990">
        <ele>727.8</ele>
        <time>2019-11-03T09:47:14Z</time>
      </trkpt>
      <trkpt lat="38.4186440" lon="-2.5452570">
        <ele>727.8</ele>
        <time>2019-11-03T09:47:15Z</time>
      </trkpt>
      <trkpt lat="38.4185930" lon="-2.5453130">
        <ele>727.8</ele>
        <time>2019-11-03T09:47:16Z</time>
      </trkpt>
      <trkpt lat="38.4185450" lon="-2.5453660">
        <ele>727.8</ele>
        <time>2019-11-03T09:47:17Z</time>
      </trkpt>
      <trkpt lat="38.4184910" lon="-2.5454170">
        <ele>727.8</ele>
        <time>2019-11-03T09:47:18Z</time>
      </trkpt>
      <trkpt lat="38.4184420" lon="-2.5454620">
        <ele>727.8</ele>
        <time>2019-11-03T09:47:19Z</time>
      </trkpt>
      <trkpt lat="38.4183830" lon="-2.5455070">
        <ele>725.7</ele>
        <time>2019-11-03T09:47:20Z</time>
      </trkpt>
      <trkpt lat="38.4183270" lon="-2.5455490">
        <ele>725.7</ele>
        <time>2019-11-03T09:47:21Z</time>
      </trkpt>
      <trkpt lat="38.4182660" lon="-2.5455870">
        <ele>725.7</ele>
        <time>2019-11-03T09:47:22Z</time>
      </trkpt>
      <trkpt lat="38.4182090" lon="-2.5456220">
        <ele>725.7</ele>
        <time>2019-11-03T09:47:23Z</time>
      </trkpt>
      <trkpt lat="38.4181480" lon="-2.5456550">
        <ele>725.7</ele>
        <time>2019-11-03T09:47:24Z</time>
      </trkpt>
      <trkpt lat="38.4180840" lon="-2.5456850">
        <ele>725.7</ele>
        <time>2019-11-03T09:47:25Z</time>
      </trkpt>
      <trkpt lat="38.4180220" lon="-2.5457120">
        <ele>725.7</ele>
        <time>2019-11-03T09:47:26Z</time>
      </trkpt>
      <trkpt lat="38.4179580" lon="-2.5457360">
        <ele>725.7</ele>
        <time>2019-11-03T09:47:27Z</time>
      </trkpt>
      <trkpt lat="38.4178890" lon="-2.5457580">
        <ele>725.7</ele>
        <time>2019-11-03T09:47:28Z</time>
      </trkpt>
      <trkpt lat="38.4178230" lon="-2.5457800">
        <ele>725.7</ele>
        <time>2019-11-03T09:47:29Z</time>
      </trkpt>
      <trkpt lat="38.4177560" lon="-2.5458010">
        <ele>725.7</ele>
        <time>2019-11-03T09:47:30Z</time>
      </trkpt>
      <trkpt lat="38.4176870" lon="-2.5458220">
        <ele>725.7</ele>
        <time>2019-11-03T09:47:31Z</time>
      </trkpt>
      <trkpt lat="38.4176200" lon="-2.5458410">
        <ele>725.7</ele>
        <time>2019-11-03T09:47:32Z</time>
      </trkpt>
      <trkpt lat="38.4175490" lon="-2.5458620">
        <ele>725.7</ele>
        <time>2019-11-03T09:47:33Z</time>
      </trkpt>
      <trkpt lat="38.4174770" lon="-2.5458840">
        <ele>725.7</ele>
        <time>2019-11-03T09:47:34Z</time>
      </trkpt>
      <trkpt lat="38.4174050" lon="-2.5459070">
        <ele>725.7</ele>
        <time>2019-11-03T09:47:35Z</time>
      </trkpt>
      <trkpt lat="38.4173310" lon="-2.5459300">
        <ele>725.7</ele>
        <time>2019-11-03T09:47:36Z</time>
      </trkpt>
      <trkpt lat="38.4172620" lon="-2.5459520">
        <ele>725.7</ele>
        <time>2019-11-03T09:47:37Z</time>
      </trkpt>
      <trkpt lat="38.4171900" lon="-2.5459740">
        <ele>725.7</ele>
        <time>2019-11-03T09:47:38Z</time>
      </trkpt>
      <trkpt lat="38.4171210" lon="-2.5459950">
        <ele>725.7</ele>
        <time>2019-11-03T09:47:39Z</time>
      </trkpt>
      <trkpt lat="38.4170520" lon="-2.5460150">
        <ele>725.7</ele>
        <time>2019-11-03T09:47:40Z</time>
      </trkpt>
      <trkpt lat="38.4169860" lon="-2.5460340">
        <ele>725.7</ele>
        <time>2019-11-03T09:47:41Z</time>
      </trkpt>
      <trkpt lat="38.4169190" lon="-2.5460520">
        <ele>725.7</ele>
        <time>2019-11-03T09:47:42Z</time>
      </trkpt>
      <trkpt lat="38.4168500" lon="-2.5460730">
        <ele>725.7</ele>
        <time>2019-11-03T09:47:43Z</time>
      </trkpt>
      <trkpt lat="38.4167830" lon="-2.5460940">
        <ele>725.7</ele>
        <time>2019-11-03T09:47:44Z</time>
      </trkpt>
      <trkpt lat="38.4167220" lon="-2.5461140">
        <ele>725.7</ele>
        <time>2019-11-03T09:47:45Z</time>
      </trkpt>
      <trkpt lat="38.4166550" lon="-2.5461380">
        <ele>725.7</ele>
        <time>2019-11-03T09:47:46Z</time>
      </trkpt>
      <trkpt lat="38.4165910" lon="-2.5461610">
        <ele>725.7</ele>
        <time>2019-11-03T09:47:47Z</time>
      </trkpt>
      <trkpt lat="38.4164660" lon="-2.5462120">
        <ele>725.7</ele>
        <time>2019-11-03T09:47:49Z</time>
      </trkpt>
      <trkpt lat="38.4164040" lon="-2.5462400">
        <ele>725.7</ele>
        <time>2019-11-03T09:47:50Z</time>
      </trkpt>
      <trkpt lat="38.4163480" lon="-2.5462680">
        <ele>725.7</ele>
        <time>2019-11-03T09:47:51Z</time>
      </trkpt>
      <trkpt lat="38.4162890" lon="-2.5462980">
        <ele>725.7</ele>
        <time>2019-11-03T09:47:52Z</time>
      </trkpt>
      <trkpt lat="38.4162330" lon="-2.5463260">
        <ele>725.7</ele>
        <time>2019-11-03T09:47:53Z</time>
      </trkpt>
      <trkpt lat="38.4161790" lon="-2.5463550">
        <ele>725.7</ele>
        <time>2019-11-03T09:47:54Z</time>
      </trkpt>
      <trkpt lat="38.4161250" lon="-2.5463830">
        <ele>725.7</ele>
        <time>2019-11-03T09:47:55Z</time>
      </trkpt>
      <trkpt lat="38.4160720" lon="-2.5464120">
        <ele>725.7</ele>
        <time>2019-11-03T09:47:56Z</time>
      </trkpt>
      <trkpt lat="38.4160200" lon="-2.5464420">
        <ele>725.7</ele>
        <time>2019-11-03T09:47:57Z</time>
      </trkpt>
      <trkpt lat="38.4159670" lon="-2.5464700">
        <ele>725.7</ele>
        <time>2019-11-03T09:47:58Z</time>
      </trkpt>
      <trkpt lat="38.4159130" lon="-2.5465000">
        <ele>723.7</ele>
        <time>2019-11-03T09:47:59Z</time>
      </trkpt>
      <trkpt lat="38.4158620" lon="-2.5465300">
        <ele>723.7</ele>
        <time>2019-11-03T09:48:00Z</time>
      </trkpt>
      <trkpt lat="38.4158130" lon="-2.5465590">
        <ele>723.7</ele>
        <time>2019-11-03T09:48:01Z</time>
      </trkpt>
      <trkpt lat="38.4157640" lon="-2.5465860">
        <ele>723.7</ele>
        <time>2019-11-03T09:48:02Z</time>
      </trkpt>
      <trkpt lat="38.4157130" lon="-2.5466090">
        <ele>723.7</ele>
        <time>2019-11-03T09:48:03Z</time>
      </trkpt>
      <trkpt lat="38.4156700" lon="-2.5466320">
        <ele>723.7</ele>
        <time>2019-11-03T09:48:04Z</time>
      </trkpt>
      <trkpt lat="38.4156160" lon="-2.5466560">
        <ele>723.7</ele>
        <time>2019-11-03T09:48:05Z</time>
      </trkpt>
      <trkpt lat="38.4155700" lon="-2.5466770">
        <ele>723.7</ele>
        <time>2019-11-03T09:48:06Z</time>
      </trkpt>
      <trkpt lat="38.4154700" lon="-2.5467190">
        <ele>723.7</ele>
        <time>2019-11-03T09:48:08Z</time>
      </trkpt>
      <trkpt lat="38.4154240" lon="-2.5467370">
        <ele>723.7</ele>
        <time>2019-11-03T09:48:09Z</time>
      </trkpt>
      <trkpt lat="38.4153370" lon="-2.5467720">
        <ele>723.7</ele>
        <time>2019-11-03T09:48:11Z</time>
      </trkpt>
      <trkpt lat="38.4152500" lon="-2.5468020">
        <ele>723.7</ele>
        <time>2019-11-03T09:48:13Z</time>
      </trkpt>
      <trkpt lat="38.4151600" lon="-2.5468290">
        <ele>723.7</ele>
        <time>2019-11-03T09:48:15Z</time>
      </trkpt>
      <trkpt lat="38.4151120" lon="-2.5468400">
        <ele>723.7</ele>
        <time>2019-11-03T09:48:16Z</time>
      </trkpt>
      <trkpt lat="38.4150200" lon="-2.5468600">
        <ele>723.7</ele>
        <time>2019-11-03T09:48:18Z</time>
      </trkpt>
      <trkpt lat="38.4149270" lon="-2.5468760">
        <ele>723.7</ele>
        <time>2019-11-03T09:48:20Z</time>
      </trkpt>
      <trkpt lat="38.4148380" lon="-2.5468870">
        <ele>723.7</ele>
        <time>2019-11-03T09:48:22Z</time>
      </trkpt>
      <trkpt lat="38.4147460" lon="-2.5468960">
        <ele>723.7</ele>
        <time>2019-11-03T09:48:24Z</time>
      </trkpt>
      <trkpt lat="38.4146530" lon="-2.5469050">
        <ele>723.7</ele>
        <time>2019-11-03T09:48:26Z</time>
      </trkpt>
      <trkpt lat="38.4145610" lon="-2.5469130">
        <ele>723.7</ele>
        <time>2019-11-03T09:48:28Z</time>
      </trkpt>
      <trkpt lat="38.4144720" lon="-2.5469220">
        <ele>723.7</ele>
        <time>2019-11-03T09:48:30Z</time>
      </trkpt>
      <trkpt lat="38.4143800" lon="-2.5469300">
        <ele>723.7</ele>
        <time>2019-11-03T09:48:32Z</time>
      </trkpt>
      <trkpt lat="38.4142950" lon="-2.5469330">
        <ele>723.7</ele>
        <time>2019-11-03T09:48:34Z</time>
      </trkpt>
      <trkpt lat="38.4142110" lon="-2.5469390">
        <ele>723.7</ele>
        <time>2019-11-03T09:48:36Z</time>
      </trkpt>
      <trkpt lat="38.4141240" lon="-2.5469440">
        <ele>723.7</ele>
        <time>2019-11-03T09:48:38Z</time>
      </trkpt>
      <trkpt lat="38.4140360" lon="-2.5469480">
        <ele>723.7</ele>
        <time>2019-11-03T09:48:40Z</time>
      </trkpt>
      <trkpt lat="38.4139470" lon="-2.5469530">
        <ele>723.7</ele>
        <time>2019-11-03T09:48:42Z</time>
      </trkpt>
      <trkpt lat="38.4138650" lon="-2.5469610">
        <ele>723.7</ele>
        <time>2019-11-03T09:48:44Z</time>
      </trkpt>
      <trkpt lat="38.4137830" lon="-2.5469700">
        <ele>723.7</ele>
        <time>2019-11-03T09:48:46Z</time>
      </trkpt>
      <trkpt lat="38.4137010" lon="-2.5469810">
        <ele>721.1</ele>
        <time>2019-11-03T09:48:48Z</time>
      </trkpt>
      <trkpt lat="38.4136120" lon="-2.5469860">
        <ele>721.1</ele>
        <time>2019-11-03T09:48:50Z</time>
      </trkpt>
      <trkpt lat="38.4135300" lon="-2.5469890">
        <ele>721.1</ele>
        <time>2019-11-03T09:48:52Z</time>
      </trkpt>
      <trkpt lat="38.4134480" lon="-2.5469950">
        <ele>721.1</ele>
        <time>2019-11-03T09:48:54Z</time>
      </trkpt>
      <trkpt lat="38.4133680" lon="-2.5470040">
        <ele>721.1</ele>
        <time>2019-11-03T09:48:56Z</time>
      </trkpt>
      <trkpt lat="38.4132890" lon="-2.5470130">
        <ele>721.1</ele>
        <time>2019-11-03T09:48:58Z</time>
      </trkpt>
      <trkpt lat="38.4132070" lon="-2.5470210">
        <ele>721.1</ele>
        <time>2019-11-03T09:49:00Z</time>
      </trkpt>
      <trkpt lat="38.4131280" lon="-2.5470300">
        <ele>721.1</ele>
        <time>2019-11-03T09:49:02Z</time>
      </trkpt>
      <trkpt lat="38.4130510" lon="-2.5470390">
        <ele>721.1</ele>
        <time>2019-11-03T09:49:04Z</time>
      </trkpt>
      <trkpt lat="38.4129720" lon="-2.5470450">
        <ele>721.1</ele>
        <time>2019-11-03T09:49:06Z</time>
      </trkpt>
      <trkpt lat="38.4128950" lon="-2.5470480">
        <ele>721.1</ele>
        <time>2019-11-03T09:49:08Z</time>
      </trkpt>
      <trkpt lat="38.4128150" lon="-2.5470570">
        <ele>721.1</ele>
        <time>2019-11-03T09:49:10Z</time>
      </trkpt>
      <trkpt lat="38.4127390" lon="-2.5470670">
        <ele>721.1</ele>
        <time>2019-11-03T09:49:12Z</time>
      </trkpt>
      <trkpt lat="38.4126590" lon="-2.5470770">
        <ele>721.1</ele>
        <time>2019-11-03T09:49:14Z</time>
      </trkpt>
      <trkpt lat="38.4125820" lon="-2.5470840">
        <ele>721.1</ele>
        <time>2019-11-03T09:49:16Z</time>
      </trkpt>
      <trkpt lat="38.4125030" lon="-2.5470920">
        <ele>721.1</ele>
        <time>2019-11-03T09:49:18Z</time>
      </trkpt>
      <trkpt lat="38.4124290" lon="-2.5470980">
        <ele>721.1</ele>
        <time>2019-11-03T09:49:20Z</time>
      </trkpt>
      <trkpt lat="38.4123490" lon="-2.5471010">
        <ele>721.1</ele>
        <time>2019-11-03T09:49:22Z</time>
      </trkpt>
      <trkpt lat="38.4122700" lon="-2.5471070">
        <ele>721.1</ele>
        <time>2019-11-03T09:49:24Z</time>
      </trkpt>
      <trkpt lat="38.4121910" lon="-2.5471090">
        <ele>721.1</ele>
        <time>2019-11-03T09:49:26Z</time>
      </trkpt>
      <trkpt lat="38.4121140" lon="-2.5471100">
        <ele>721.1</ele>
        <time>2019-11-03T09:49:28Z</time>
      </trkpt>
      <trkpt lat="38.4119990" lon="-2.5471180">
        <ele>721.1</ele>
        <time>2019-11-03T09:49:31Z</time>
      </trkpt>
      <trkpt lat="38.4119220" lon="-2.5471240">
        <ele>721.1</ele>
        <time>2019-11-03T09:49:33Z</time>
      </trkpt>
      <trkpt lat="38.4118450" lon="-2.5471300">
        <ele>721.1</ele>
        <time>2019-11-03T09:49:35Z</time>
      </trkpt>
      <trkpt lat="38.4117710" lon="-2.5471380">
        <ele>718.6</ele>
        <time>2019-11-03T09:49:37Z</time>
      </trkpt>
      <trkpt lat="38.4116890" lon="-2.5471410">
        <ele>718.6</ele>
        <time>2019-11-03T09:49:39Z</time>
      </trkpt>
      <trkpt lat="38.4116070" lon="-2.5471470">
        <ele>718.6</ele>
        <time>2019-11-03T09:49:41Z</time>
      </trkpt>
      <trkpt lat="38.4115250" lon="-2.5471550">
        <ele>718.6</ele>
        <time>2019-11-03T09:49:43Z</time>
      </trkpt>
      <trkpt lat="38.4114480" lon="-2.5471640">
        <ele>718.6</ele>
        <time>2019-11-03T09:49:45Z</time>
      </trkpt>
      <trkpt lat="38.4113690" lon="-2.5471700">
        <ele>718.6</ele>
        <time>2019-11-03T09:49:47Z</time>
      </trkpt>
      <trkpt lat="38.4112900" lon="-2.5471720">
        <ele>718.6</ele>
        <time>2019-11-03T09:49:49Z</time>
      </trkpt>
      <trkpt lat="38.4112100" lon="-2.5471760">
        <ele>718.6</ele>
        <time>2019-11-03T09:49:51Z</time>
      </trkpt>
      <trkpt lat="38.4111280" lon="-2.5471830">
        <ele>718.6</ele>
        <time>2019-11-03T09:49:53Z</time>
      </trkpt>
      <trkpt lat="38.4110490" lon="-2.5471930">
        <ele>718.6</ele>
        <time>2019-11-03T09:49:55Z</time>
      </trkpt>
      <trkpt lat="38.4109720" lon="-2.5472050">
        <ele>718.6</ele>
        <time>2019-11-03T09:49:57Z</time>
      </trkpt>
      <trkpt lat="38.4108950" lon="-2.5472170">
        <ele>718.6</ele>
        <time>2019-11-03T09:49:59Z</time>
      </trkpt>
      <trkpt lat="38.4108130" lon="-2.5472260">
        <ele>718.6</ele>
        <time>2019-11-03T09:50:01Z</time>
      </trkpt>
      <trkpt lat="38.4107370" lon="-2.5472330">
        <ele>718.6</ele>
        <time>2019-11-03T09:50:03Z</time>
      </trkpt>
      <trkpt lat="38.4106550" lon="-2.5472420">
        <ele>718.6</ele>
        <time>2019-11-03T09:50:05Z</time>
      </trkpt>
      <trkpt lat="38.4105800" lon="-2.5472500">
        <ele>718.6</ele>
        <time>2019-11-03T09:50:07Z</time>
      </trkpt>
      <trkpt lat="38.4105040" lon="-2.5472540">
        <ele>718.6</ele>
        <time>2019-11-03T09:50:09Z</time>
      </trkpt>
      <trkpt lat="38.4104270" lon="-2.5472580">
        <ele>718.6</ele>
        <time>2019-11-03T09:50:11Z</time>
      </trkpt>
      <trkpt lat="38.4103550" lon="-2.5472640">
        <ele>718.6</ele>
        <time>2019-11-03T09:50:13Z</time>
      </trkpt>
      <trkpt lat="38.4102780" lon="-2.5472710">
        <ele>718.6</ele>
        <time>2019-11-03T09:50:15Z</time>
      </trkpt>
      <trkpt lat="38.4102070" lon="-2.5472780">
        <ele>718.6</ele>
        <time>2019-11-03T09:50:17Z</time>
      </trkpt>
      <trkpt lat="38.4101320" lon="-2.5472860">
        <ele>718.6</ele>
        <time>2019-11-03T09:50:19Z</time>
      </trkpt>
      <trkpt lat="38.4100530" lon="-2.5473010">
        <ele>718.6</ele>
        <time>2019-11-03T09:50:21Z</time>
      </trkpt>
      <trkpt lat="38.4099760" lon="-2.5473210">
        <ele>718.6</ele>
        <time>2019-11-03T09:50:23Z</time>
      </trkpt>
      <trkpt lat="38.4099000" lon="-2.5473490">
        <ele>718.6</ele>
        <time>2019-11-03T09:50:25Z</time>
      </trkpt>
      <trkpt lat="38.4098280" lon="-2.5473820">
        <ele>718.6</ele>
        <time>2019-11-03T09:50:27Z</time>
      </trkpt>
      <trkpt lat="38.4097560" lon="-2.5474200">
        <ele>718.6</ele>
        <time>2019-11-03T09:50:29Z</time>
      </trkpt>
      <trkpt lat="38.4096900" lon="-2.5474610">
        <ele>718.6</ele>
        <time>2019-11-03T09:50:31Z</time>
      </trkpt>
      <trkpt lat="38.4096260" lon="-2.5475070">
        <ele>718.6</ele>
        <time>2019-11-03T09:50:33Z</time>
      </trkpt>
      <trkpt lat="38.4095690" lon="-2.5475570">
        <ele>718.6</ele>
        <time>2019-11-03T09:50:35Z</time>
      </trkpt>
      <trkpt lat="38.4095160" lon="-2.5476100">
        <ele>718.6</ele>
        <time>2019-11-03T09:50:37Z</time>
      </trkpt>
      <trkpt lat="38.4094670" lon="-2.5476640">
        <ele>718.6</ele>
        <time>2019-11-03T09:50:39Z</time>
      </trkpt>
      <trkpt lat="38.4094230" lon="-2.5477170">
        <ele>718.6</ele>
        <time>2019-11-03T09:50:41Z</time>
      </trkpt>
      <trkpt lat="38.4093820" lon="-2.5477740">
        <ele>718.6</ele>
        <time>2019-11-03T09:50:43Z</time>
      </trkpt>
      <trkpt lat="38.4093470" lon="-2.5478300">
        <ele>718.6</ele>
        <time>2019-11-03T09:50:45Z</time>
      </trkpt>
      <trkpt lat="38.4093130" lon="-2.5478910">
        <ele>718.6</ele>
        <time>2019-11-03T09:50:47Z</time>
      </trkpt>
      <trkpt lat="38.4092830" lon="-2.5479560">
        <ele>718.6</ele>
        <time>2019-11-03T09:50:49Z</time>
      </trkpt>
      <trkpt lat="38.4092600" lon="-2.5480230">
        <ele>718.6</ele>
        <time>2019-11-03T09:50:51Z</time>
      </trkpt>
      <trkpt lat="38.4092360" lon="-2.5480900">
        <ele>718.6</ele>
        <time>2019-11-03T09:50:53Z</time>
      </trkpt>
      <trkpt lat="38.4092190" lon="-2.5481600">
        <ele>718.6</ele>
        <time>2019-11-03T09:50:55Z</time>
      </trkpt>
      <trkpt lat="38.4091980" lon="-2.5482290">
        <ele>718.6</ele>
        <time>2019-11-03T09:50:57Z</time>
      </trkpt>
      <trkpt lat="38.4091830" lon="-2.5482970">
        <ele>718.6</ele>
        <time>2019-11-03T09:50:59Z</time>
      </trkpt>
      <trkpt lat="38.4091670" lon="-2.5483690">
        <ele>718.6</ele>
        <time>2019-11-03T09:51:01Z</time>
      </trkpt>
      <trkpt lat="38.4091570" lon="-2.5484370">
        <ele>718.6</ele>
        <time>2019-11-03T09:51:03Z</time>
      </trkpt>
      <trkpt lat="38.4091440" lon="-2.5485080">
        <ele>718.6</ele>
        <time>2019-11-03T09:51:05Z</time>
      </trkpt>
      <trkpt lat="38.4091420" lon="-2.5485760">
        <ele>718.6</ele>
        <time>2019-11-03T09:51:07Z</time>
      </trkpt>
      <trkpt lat="38.4091340" lon="-2.5486690">
        <ele>718.6</ele>
        <time>2019-11-03T09:51:10Z</time>
      </trkpt>
      <trkpt lat="38.4091340" lon="-2.5487330">
        <ele>718.6</ele>
        <time>2019-11-03T09:51:12Z</time>
      </trkpt>
      <trkpt lat="38.4091420" lon="-2.5488200">
        <ele>718.6</ele>
        <time>2019-11-03T09:51:15Z</time>
      </trkpt>
      <trkpt lat="38.4091440" lon="-2.5488770">
        <ele>718.6</ele>
        <time>2019-11-03T09:51:17Z</time>
      </trkpt>
      <trkpt lat="38.4091520" lon="-2.5489670">
        <ele>718.6</ele>
        <time>2019-11-03T09:51:20Z</time>
      </trkpt>
      <trkpt lat="38.4091600" lon="-2.5490260">
        <ele>718.6</ele>
        <time>2019-11-03T09:51:22Z</time>
      </trkpt>
      <trkpt lat="38.4091720" lon="-2.5491120">
        <ele>718.6</ele>
        <time>2019-11-03T09:51:25Z</time>
      </trkpt>
      <trkpt lat="38.4091880" lon="-2.5491900">
        <ele>718.6</ele>
        <time>2019-11-03T09:51:28Z</time>
      </trkpt>
      <trkpt lat="38.4092030" lon="-2.5492800">
        <ele>718.6</ele>
        <time>2019-11-03T09:51:31Z</time>
      </trkpt>
      <trkpt lat="38.4092130" lon="-2.5493390">
        <ele>718.6</ele>
        <time>2019-11-03T09:51:33Z</time>
      </trkpt>
      <trkpt lat="38.4092260" lon="-2.5494230">
        <ele>720.6</ele>
        <time>2019-11-03T09:51:36Z</time>
      </trkpt>
      <trkpt lat="38.4092360" lon="-2.5495080">
        <ele>720.6</ele>
        <time>2019-11-03T09:51:39Z</time>
      </trkpt>
      <trkpt lat="38.4092360" lon="-2.5495900">
        <ele>720.6</ele>
        <time>2019-11-03T09:51:42Z</time>
      </trkpt>
      <trkpt lat="38.4092360" lon="-2.5496830">
        <ele>720.6</ele>
        <time>2019-11-03T09:51:45Z</time>
      </trkpt>
      <trkpt lat="38.4092340" lon="-2.5497690">
        <ele>720.6</ele>
        <time>2019-11-03T09:51:48Z</time>
      </trkpt>
      <trkpt lat="38.4092190" lon="-2.5498500">
        <ele>720.6</ele>
        <time>2019-11-03T09:51:51Z</time>
      </trkpt>
      <trkpt lat="38.4091960" lon="-2.5499300">
        <ele>720.6</ele>
        <time>2019-11-03T09:51:54Z</time>
      </trkpt>
      <trkpt lat="38.4091670" lon="-2.5500130">
        <ele>722.6</ele>
        <time>2019-11-03T09:51:57Z</time>
      </trkpt>
      <trkpt lat="38.4091420" lon="-2.5500880">
        <ele>722.6</ele>
        <time>2019-11-03T09:52:00Z</time>
      </trkpt>
      <trkpt lat="38.4091110" lon="-2.5501580">
        <ele>722.6</ele>
        <time>2019-11-03T09:52:03Z</time>
      </trkpt>
      <trkpt lat="38.4090780" lon="-2.5502280">
        <ele>722.6</ele>
        <time>2019-11-03T09:52:06Z</time>
      </trkpt>
      <trkpt lat="38.4090390" lon="-2.5502990">
        <ele>722.6</ele>
        <time>2019-11-03T09:52:09Z</time>
      </trkpt>
      <trkpt lat="38.4090010" lon="-2.5503710">
        <ele>722.6</ele>
        <time>2019-11-03T09:52:12Z</time>
      </trkpt>
      <trkpt lat="38.4089570" lon="-2.5504380">
        <ele>724.7</ele>
        <time>2019-11-03T09:52:15Z</time>
      </trkpt>
      <trkpt lat="38.4089190" lon="-2.5504820">
        <ele>724.7</ele>
        <time>2019-11-03T09:52:17Z</time>
      </trkpt>
      <trkpt lat="38.4088630" lon="-2.5505420">
        <ele>724.7</ele>
        <time>2019-11-03T09:52:20Z</time>
      </trkpt>
      <trkpt lat="38.4088010" lon="-2.5505950">
        <ele>724.7</ele>
        <time>2019-11-03T09:52:23Z</time>
      </trkpt>
      <trkpt lat="38.4087190" lon="-2.5506440">
        <ele>724.7</ele>
        <time>2019-11-03T09:52:27Z</time>
      </trkpt>
      <trkpt lat="38.4086580" lon="-2.5506780">
        <ele>724.7</ele>
        <time>2019-11-03T09:52:30Z</time>
      </trkpt>
      <trkpt lat="38.4085960" lon="-2.5507110">
        <ele>727.1</ele>
        <time>2019-11-03T09:52:33Z</time>
      </trkpt>
      <trkpt lat="38.4085350" lon="-2.5507380">
        <ele>727.1</ele>
        <time>2019-11-03T09:52:36Z</time>
      </trkpt>
      <trkpt lat="38.4084660" lon="-2.5507540">
        <ele>727.1</ele>
        <time>2019-11-03T09:52:39Z</time>
      </trkpt>
      <trkpt lat="38.4083970" lon="-2.5507600">
        <ele>727.1</ele>
        <time>2019-11-03T09:52:42Z</time>
      </trkpt>
      <trkpt lat="38.4083250" lon="-2.5507620">
        <ele>727.1</ele>
        <time>2019-11-03T09:52:45Z</time>
      </trkpt>
      <trkpt lat="38.4082560" lon="-2.5507520">
        <ele>727.1</ele>
        <time>2019-11-03T09:52:48Z</time>
      </trkpt>
      <trkpt lat="38.4081870" lon="-2.5507450">
        <ele>729.2</ele>
        <time>2019-11-03T09:52:51Z</time>
      </trkpt>
      <trkpt lat="38.4081150" lon="-2.5507380">
        <ele>729.2</ele>
        <time>2019-11-03T09:52:54Z</time>
      </trkpt>
      <trkpt lat="38.4080460" lon="-2.5507240">
        <ele>729.2</ele>
        <time>2019-11-03T09:52:57Z</time>
      </trkpt>
      <trkpt lat="38.4079820" lon="-2.5507090">
        <ele>729.2</ele>
        <time>2019-11-03T09:53:00Z</time>
      </trkpt>
      <trkpt lat="38.4079210" lon="-2.5506960">
        <ele>729.2</ele>
        <time>2019-11-03T09:53:03Z</time>
      </trkpt>
      <trkpt lat="38.4078800" lon="-2.5506840">
        <ele>731.4</ele>
        <time>2019-11-03T09:53:05Z</time>
      </trkpt>
      <trkpt lat="38.4078180" lon="-2.5506620">
        <ele>731.4</ele>
        <time>2019-11-03T09:53:08Z</time>
      </trkpt>
      <trkpt lat="38.4077490" lon="-2.5506390">
        <ele>731.4</ele>
        <time>2019-11-03T09:53:11Z</time>
      </trkpt>
      <trkpt lat="38.4076770" lon="-2.5506140">
        <ele>731.4</ele>
        <time>2019-11-03T09:53:14Z</time>
      </trkpt>
      <trkpt lat="38.4076030" lon="-2.5505950">
        <ele>731.4</ele>
        <time>2019-11-03T09:53:17Z</time>
      </trkpt>
      <trkpt lat="38.4075370" lon="-2.5505770">
        <ele>733.9</ele>
        <time>2019-11-03T09:53:20Z</time>
      </trkpt>
      <trkpt lat="38.4074910" lon="-2.5505620">
        <ele>733.9</ele>
        <time>2019-11-03T09:53:22Z</time>
      </trkpt>
      <trkpt lat="38.4074160" lon="-2.5505520">
        <ele>733.9</ele>
        <time>2019-11-03T09:53:25Z</time>
      </trkpt>
      <trkpt lat="38.4073450" lon="-2.5505490">
        <ele>733.9</ele>
        <time>2019-11-03T09:53:28Z</time>
      </trkpt>
      <trkpt lat="38.4072730" lon="-2.5505540">
        <ele>733.9</ele>
        <time>2019-11-03T09:53:31Z</time>
      </trkpt>
      <trkpt lat="38.4072060" lon="-2.5505610">
        <ele>733.9</ele>
        <time>2019-11-03T09:53:34Z</time>
      </trkpt>
      <trkpt lat="38.4071580" lon="-2.5505700">
        <ele>736.2</ele>
        <time>2019-11-03T09:53:36Z</time>
      </trkpt>
      <trkpt lat="38.4071090" lon="-2.5505840">
        <ele>736.2</ele>
        <time>2019-11-03T09:53:38Z</time>
      </trkpt>
      <trkpt lat="38.4070350" lon="-2.5505990">
        <ele>736.2</ele>
        <time>2019-11-03T09:53:41Z</time>
      </trkpt>
      <trkpt lat="38.4069860" lon="-2.5506120">
        <ele>736.2</ele>
        <time>2019-11-03T09:53:43Z</time>
      </trkpt>
      <trkpt lat="38.4069170" lon="-2.5506370">
        <ele>736.2</ele>
        <time>2019-11-03T09:53:46Z</time>
      </trkpt>
      <trkpt lat="38.4068450" lon="-2.5506550">
        <ele>736.2</ele>
        <time>2019-11-03T09:53:49Z</time>
      </trkpt>
      <trkpt lat="38.4067740" lon="-2.5506650">
        <ele>738.7</ele>
        <time>2019-11-03T09:53:52Z</time>
      </trkpt>
      <trkpt lat="38.4067280" lon="-2.5506700">
        <ele>738.7</ele>
        <time>2019-11-03T09:53:54Z</time>
      </trkpt>
      <trkpt lat="38.4066590" lon="-2.5506790">
        <ele>738.7</ele>
        <time>2019-11-03T09:53:57Z</time>
      </trkpt>
      <trkpt lat="38.4065890" lon="-2.5506850">
        <ele>738.7</ele>
        <time>2019-11-03T09:54:00Z</time>
      </trkpt>
      <trkpt lat="38.4065200" lon="-2.5506850">
        <ele>738.7</ele>
        <time>2019-11-03T09:54:03Z</time>
      </trkpt>
      <trkpt lat="38.4064510" lon="-2.5506900">
        <ele>738.7</ele>
        <time>2019-11-03T09:54:06Z</time>
      </trkpt>
      <trkpt lat="38.4063800" lon="-2.5506870">
        <ele>741.3</ele>
        <time>2019-11-03T09:54:09Z</time>
      </trkpt>
      <trkpt lat="38.4063100" lon="-2.5506800">
        <ele>741.3</ele>
        <time>2019-11-03T09:54:12Z</time>
      </trkpt>
      <trkpt lat="38.4062620" lon="-2.5506710">
        <ele>741.3</ele>
        <time>2019-11-03T09:54:14Z</time>
      </trkpt>
      <trkpt lat="38.4061850" lon="-2.5506590">
        <ele>741.3</ele>
        <time>2019-11-03T09:54:17Z</time>
      </trkpt>
      <trkpt lat="38.4061360" lon="-2.5506480">
        <ele>741.3</ele>
        <time>2019-11-03T09:54:19Z</time>
      </trkpt>
      <trkpt lat="38.4060620" lon="-2.5506330">
        <ele>741.3</ele>
        <time>2019-11-03T09:54:22Z</time>
      </trkpt>
      <trkpt lat="38.4059900" lon="-2.5506200">
        <ele>743.8</ele>
        <time>2019-11-03T09:54:25Z</time>
      </trkpt>
      <trkpt lat="38.4059420" lon="-2.5506110">
        <ele>743.8</ele>
        <time>2019-11-03T09:54:27Z</time>
      </trkpt>
      <trkpt lat="38.4058600" lon="-2.5506070">
        <ele>743.8</ele>
        <time>2019-11-03T09:54:30Z</time>
      </trkpt>
      <trkpt lat="38.4058110" lon="-2.5506020">
        <ele>743.8</ele>
        <time>2019-11-03T09:54:32Z</time>
      </trkpt>
      <trkpt lat="38.4057630" lon="-2.5505930">
        <ele>743.8</ele>
        <time>2019-11-03T09:54:34Z</time>
      </trkpt>
      <trkpt lat="38.4056860" lon="-2.5505750">
        <ele>743.8</ele>
        <time>2019-11-03T09:54:37Z</time>
      </trkpt>
      <trkpt lat="38.4056350" lon="-2.5505620">
        <ele>743.8</ele>
        <time>2019-11-03T09:54:39Z</time>
      </trkpt>
      <trkpt lat="38.4055860" lon="-2.5505520">
        <ele>746.6</ele>
        <time>2019-11-03T09:54:41Z</time>
      </trkpt>
      <trkpt lat="38.4055320" lon="-2.5505430">
        <ele>746.6</ele>
        <time>2019-11-03T09:54:43Z</time>
      </trkpt>
      <trkpt lat="38.4054780" lon="-2.5505330">
        <ele>746.6</ele>
        <time>2019-11-03T09:54:45Z</time>
      </trkpt>
      <trkpt lat="38.4054300" lon="-2.5505230">
        <ele>746.6</ele>
        <time>2019-11-03T09:54:47Z</time>
      </trkpt>
      <trkpt lat="38.4053530" lon="-2.5505100">
        <ele>746.6</ele>
        <time>2019-11-03T09:54:50Z</time>
      </trkpt>
      <trkpt lat="38.4053040" lon="-2.5505010">
        <ele>746.6</ele>
        <time>2019-11-03T09:54:52Z</time>
      </trkpt>
      <trkpt lat="38.4052280" lon="-2.5504850">
        <ele>746.6</ele>
        <time>2019-11-03T09:54:55Z</time>
      </trkpt>
      <trkpt lat="38.4051790" lon="-2.5504750">
        <ele>749.4</ele>
        <time>2019-11-03T09:54:57Z</time>
      </trkpt>
      <trkpt lat="38.4051280" lon="-2.5504630">
        <ele>749.4</ele>
        <time>2019-11-03T09:54:59Z</time>
      </trkpt>
      <trkpt lat="38.4050530" lon="-2.5504340">
        <ele>749.4</ele>
        <time>2019-11-03T09:55:02Z</time>
      </trkpt>
      <trkpt lat="38.4050020" lon="-2.5504090">
        <ele>749.4</ele>
        <time>2019-11-03T09:55:04Z</time>
      </trkpt>
      <trkpt lat="38.4049540" lon="-2.5503840">
        <ele>749.4</ele>
        <time>2019-11-03T09:55:06Z</time>
      </trkpt>
      <trkpt lat="38.4049080" lon="-2.5503560">
        <ele>749.4</ele>
        <time>2019-11-03T09:55:08Z</time>
      </trkpt>
      <trkpt lat="38.4048610" lon="-2.5503300">
        <ele>749.4</ele>
        <time>2019-11-03T09:55:10Z</time>
      </trkpt>
      <trkpt lat="38.4047900" lon="-2.5502870">
        <ele>752.1</ele>
        <time>2019-11-03T09:55:13Z</time>
      </trkpt>
      <trkpt lat="38.4047390" lon="-2.5502540">
        <ele>752.1</ele>
        <time>2019-11-03T09:55:15Z</time>
      </trkpt>
      <trkpt lat="38.4046850" lon="-2.5502230">
        <ele>752.1</ele>
        <time>2019-11-03T09:55:17Z</time>
      </trkpt>
      <trkpt lat="38.4046340" lon="-2.5501950">
        <ele>752.1</ele>
        <time>2019-11-03T09:55:19Z</time>
      </trkpt>
      <trkpt lat="38.4045800" lon="-2.5501690">
        <ele>752.1</ele>
        <time>2019-11-03T09:55:21Z</time>
      </trkpt>
      <trkpt lat="38.4045290" lon="-2.5501410">
        <ele>752.1</ele>
        <time>2019-11-03T09:55:23Z</time>
      </trkpt>
      <trkpt lat="38.4044770" lon="-2.5501170">
        <ele>752.1</ele>
        <time>2019-11-03T09:55:25Z</time>
      </trkpt>
      <trkpt lat="38.4044010" lon="-2.5500890">
        <ele>754.9</ele>
        <time>2019-11-03T09:55:28Z</time>
      </trkpt>
      <trkpt lat="38.4043470" lon="-2.5500760">
        <ele>754.9</ele>
        <time>2019-11-03T09:55:30Z</time>
      </trkpt>
      <trkpt lat="38.4042960" lon="-2.5500680">
        <ele>754.9</ele>
        <time>2019-11-03T09:55:32Z</time>
      </trkpt>
      <trkpt lat="38.4042240" lon="-2.5500590">
        <ele>754.9</ele>
        <time>2019-11-03T09:55:35Z</time>
      </trkpt>
      <trkpt lat="38.4041450" lon="-2.5500610">
        <ele>754.9</ele>
        <time>2019-11-03T09:55:38Z</time>
      </trkpt>
      <trkpt lat="38.4040930" lon="-2.5500650">
        <ele>754.9</ele>
        <time>2019-11-03T09:55:40Z</time>
      </trkpt>
      <trkpt lat="38.4040420" lon="-2.5500710">
        <ele>754.9</ele>
        <time>2019-11-03T09:55:42Z</time>
      </trkpt>
      <trkpt lat="38.4039910" lon="-2.5500790">
        <ele>757.6</ele>
        <time>2019-11-03T09:55:44Z</time>
      </trkpt>
      <trkpt lat="38.4039420" lon="-2.5500850">
        <ele>757.6</ele>
        <time>2019-11-03T09:55:46Z</time>
      </trkpt>
      <trkpt lat="38.4038940" lon="-2.5500890">
        <ele>757.6</ele>
        <time>2019-11-03T09:55:48Z</time>
      </trkpt>
      <trkpt lat="38.4038170" lon="-2.5501010">
        <ele>757.6</ele>
        <time>2019-11-03T09:55:51Z</time>
      </trkpt>
      <trkpt lat="38.4037480" lon="-2.5501120">
        <ele>757.6</ele>
        <time>2019-11-03T09:55:54Z</time>
      </trkpt>
      <trkpt lat="38.4036990" lon="-2.5501260">
        <ele>757.6</ele>
        <time>2019-11-03T09:55:56Z</time>
      </trkpt>
      <trkpt lat="38.4036250" lon="-2.5501510">
        <ele>757.6</ele>
        <time>2019-11-03T09:55:59Z</time>
      </trkpt>
      <trkpt lat="38.4035790" lon="-2.5501620">
        <ele>760.2</ele>
        <time>2019-11-03T09:56:01Z</time>
      </trkpt>
      <trkpt lat="38.4035300" lon="-2.5501750">
        <ele>760.2</ele>
        <time>2019-11-03T09:56:03Z</time>
      </trkpt>
      <trkpt lat="38.4034530" lon="-2.5502100">
        <ele>760.2</ele>
        <time>2019-11-03T09:56:06Z</time>
      </trkpt>
      <trkpt lat="38.4034050" lon="-2.5502410">
        <ele>760.2</ele>
        <time>2019-11-03T09:56:08Z</time>
      </trkpt>
      <trkpt lat="38.4033590" lon="-2.5502750">
        <ele>760.2</ele>
        <time>2019-11-03T09:56:10Z</time>
      </trkpt>
      <trkpt lat="38.4033100" lon="-2.5503100">
        <ele>760.2</ele>
        <time>2019-11-03T09:56:12Z</time>
      </trkpt>
      <trkpt lat="38.4032590" lon="-2.5503480">
        <ele>760.2</ele>
        <time>2019-11-03T09:56:14Z</time>
      </trkpt>
      <trkpt lat="38.4032100" lon="-2.5503860">
        <ele>762.8</ele>
        <time>2019-11-03T09:56:16Z</time>
      </trkpt>
      <trkpt lat="38.4031590" lon="-2.5504250">
        <ele>762.8</ele>
        <time>2019-11-03T09:56:18Z</time>
      </trkpt>
      <trkpt lat="38.4031100" lon="-2.5504670">
        <ele>762.8</ele>
        <time>2019-11-03T09:56:20Z</time>
      </trkpt>
      <trkpt lat="38.4030620" lon="-2.5505100">
        <ele>762.8</ele>
        <time>2019-11-03T09:56:22Z</time>
      </trkpt>
      <trkpt lat="38.4030030" lon="-2.5505590">
        <ele>762.8</ele>
        <time>2019-11-03T09:56:24Z</time>
      </trkpt>
      <trkpt lat="38.4029410" lon="-2.5506100">
        <ele>762.8</ele>
        <time>2019-11-03T09:56:26Z</time>
      </trkpt>
      <trkpt lat="38.4028830" lon="-2.5506600">
        <ele>762.8</ele>
        <time>2019-11-03T09:56:28Z</time>
      </trkpt>
      <trkpt lat="38.4028130" lon="-2.5507180">
        <ele>762.8</ele>
        <time>2019-11-03T09:56:30Z</time>
      </trkpt>
      <trkpt lat="38.4027440" lon="-2.5507820">
        <ele>765.1</ele>
        <time>2019-11-03T09:56:32Z</time>
      </trkpt>
      <trkpt lat="38.4026680" lon="-2.5508510">
        <ele>765.1</ele>
        <time>2019-11-03T09:56:34Z</time>
      </trkpt>
      <trkpt lat="38.4025880" lon="-2.5509190">
        <ele>765.1</ele>
        <time>2019-11-03T09:56:36Z</time>
      </trkpt>
      <trkpt lat="38.4025090" lon="-2.5509880">
        <ele>765.1</ele>
        <time>2019-11-03T09:56:38Z</time>
      </trkpt>
      <trkpt lat="38.4024650" lon="-2.5510240">
        <ele>765.1</ele>
        <time>2019-11-03T09:56:39Z</time>
      </trkpt>
      <trkpt lat="38.4024240" lon="-2.5510580">
        <ele>765.1</ele>
        <time>2019-11-03T09:56:40Z</time>
      </trkpt>
      <trkpt lat="38.4023320" lon="-2.5511330">
        <ele>765.1</ele>
        <time>2019-11-03T09:56:42Z</time>
      </trkpt>
      <trkpt lat="38.4022860" lon="-2.5511710">
        <ele>765.1</ele>
        <time>2019-11-03T09:56:43Z</time>
      </trkpt>
      <trkpt lat="38.4022400" lon="-2.5512080">
        <ele>765.1</ele>
        <time>2019-11-03T09:56:44Z</time>
      </trkpt>
      <trkpt lat="38.4021940" lon="-2.5512500">
        <ele>765.1</ele>
        <time>2019-11-03T09:56:45Z</time>
      </trkpt>
      <trkpt lat="38.4021450" lon="-2.5512920">
        <ele>765.1</ele>
        <time>2019-11-03T09:56:46Z</time>
      </trkpt>
      <trkpt lat="38.4020970" lon="-2.5513350">
        <ele>765.1</ele>
        <time>2019-11-03T09:56:47Z</time>
      </trkpt>
      <trkpt lat="38.4020450" lon="-2.5513770">
        <ele>767.4</ele>
        <time>2019-11-03T09:56:48Z</time>
      </trkpt>
      <trkpt lat="38.4019970" lon="-2.5514190">
        <ele>767.4</ele>
        <time>2019-11-03T09:56:49Z</time>
      </trkpt>
      <trkpt lat="38.4019430" lon="-2.5514610">
        <ele>767.4</ele>
        <time>2019-11-03T09:56:50Z</time>
      </trkpt>
      <trkpt lat="38.4018940" lon="-2.5515040">
        <ele>767.4</ele>
        <time>2019-11-03T09:56:51Z</time>
      </trkpt>
      <trkpt lat="38.4018430" lon="-2.5515480">
        <ele>767.4</ele>
        <time>2019-11-03T09:56:52Z</time>
      </trkpt>
      <trkpt lat="38.4017950" lon="-2.5515890">
        <ele>767.4</ele>
        <time>2019-11-03T09:56:53Z</time>
      </trkpt>
      <trkpt lat="38.4017460" lon="-2.5516320">
        <ele>767.4</ele>
        <time>2019-11-03T09:56:54Z</time>
      </trkpt>
      <trkpt lat="38.4016920" lon="-2.5516760">
        <ele>767.4</ele>
        <time>2019-11-03T09:56:55Z</time>
      </trkpt>
      <trkpt lat="38.4016410" lon="-2.5517190">
        <ele>767.4</ele>
        <time>2019-11-03T09:56:56Z</time>
      </trkpt>
      <trkpt lat="38.4015870" lon="-2.5517620">
        <ele>767.4</ele>
        <time>2019-11-03T09:56:57Z</time>
      </trkpt>
      <trkpt lat="38.4015390" lon="-2.5518040">
        <ele>767.4</ele>
        <time>2019-11-03T09:56:58Z</time>
      </trkpt>
      <trkpt lat="38.4014900" lon="-2.5518440">
        <ele>767.4</ele>
        <time>2019-11-03T09:56:59Z</time>
      </trkpt>
      <trkpt lat="38.4014360" lon="-2.5518880">
        <ele>767.4</ele>
        <time>2019-11-03T09:57:00Z</time>
      </trkpt>
      <trkpt lat="38.4013820" lon="-2.5519330">
        <ele>767.4</ele>
        <time>2019-11-03T09:57:01Z</time>
      </trkpt>
      <trkpt lat="38.4013340" lon="-2.5519770">
        <ele>767.4</ele>
        <time>2019-11-03T09:57:02Z</time>
      </trkpt>
      <trkpt lat="38.4012830" lon="-2.5520220">
        <ele>767.4</ele>
        <time>2019-11-03T09:57:03Z</time>
      </trkpt>
      <trkpt lat="38.4012290" lon="-2.5520670">
        <ele>767.4</ele>
        <time>2019-11-03T09:57:04Z</time>
      </trkpt>
      <trkpt lat="38.4011800" lon="-2.5521110">
        <ele>767.4</ele>
        <time>2019-11-03T09:57:05Z</time>
      </trkpt>
      <trkpt lat="38.4011340" lon="-2.5521520">
        <ele>767.4</ele>
        <time>2019-11-03T09:57:06Z</time>
      </trkpt>
      <trkpt lat="38.4010800" lon="-2.5521960">
        <ele>767.4</ele>
        <time>2019-11-03T09:57:07Z</time>
      </trkpt>
      <trkpt lat="38.4010320" lon="-2.5522400">
        <ele>767.4</ele>
        <time>2019-11-03T09:57:08Z</time>
      </trkpt>
      <trkpt lat="38.4009860" lon="-2.5522820">
        <ele>767.4</ele>
        <time>2019-11-03T09:57:09Z</time>
      </trkpt>
      <trkpt lat="38.4009320" lon="-2.5523260">
        <ele>769.5</ele>
        <time>2019-11-03T09:57:10Z</time>
      </trkpt>
      <trkpt lat="38.4008830" lon="-2.5523700">
        <ele>769.5</ele>
        <time>2019-11-03T09:57:11Z</time>
      </trkpt>
      <trkpt lat="38.4008320" lon="-2.5524130">
        <ele>769.5</ele>
        <time>2019-11-03T09:57:12Z</time>
      </trkpt>
      <trkpt lat="38.4007810" lon="-2.5524570">
        <ele>769.5</ele>
        <time>2019-11-03T09:57:13Z</time>
      </trkpt>
      <trkpt lat="38.4007300" lon="-2.5525010">
        <ele>769.5</ele>
        <time>2019-11-03T09:57:14Z</time>
      </trkpt>
      <trkpt lat="38.4006760" lon="-2.5525460">
        <ele>769.5</ele>
        <time>2019-11-03T09:57:15Z</time>
      </trkpt>
      <trkpt lat="38.4006270" lon="-2.5525930">
        <ele>769.5</ele>
        <time>2019-11-03T09:57:16Z</time>
      </trkpt>
      <trkpt lat="38.4005790" lon="-2.5526410">
        <ele>769.5</ele>
        <time>2019-11-03T09:57:17Z</time>
      </trkpt>
      <trkpt lat="38.4005250" lon="-2.5526910">
        <ele>769.5</ele>
        <time>2019-11-03T09:57:18Z</time>
      </trkpt>
      <trkpt lat="38.4004740" lon="-2.5527420">
        <ele>769.5</ele>
        <time>2019-11-03T09:57:19Z</time>
      </trkpt>
      <trkpt lat="38.4004250" lon="-2.5527940">
        <ele>769.5</ele>
        <time>2019-11-03T09:57:20Z</time>
      </trkpt>
      <trkpt lat="38.4003760" lon="-2.5528470">
        <ele>769.5</ele>
        <time>2019-11-03T09:57:21Z</time>
      </trkpt>
      <trkpt lat="38.4003300" lon="-2.5528970">
        <ele>769.5</ele>
        <time>2019-11-03T09:57:22Z</time>
      </trkpt>
      <trkpt lat="38.4002790" lon="-2.5529540">
        <ele>769.5</ele>
        <time>2019-11-03T09:57:23Z</time>
      </trkpt>
      <trkpt lat="38.4002330" lon="-2.5530120">
        <ele>769.5</ele>
        <time>2019-11-03T09:57:24Z</time>
      </trkpt>
      <trkpt lat="38.4001890" lon="-2.5530720">
        <ele>769.5</ele>
        <time>2019-11-03T09:57:25Z</time>
      </trkpt>
      <trkpt lat="38.4001430" lon="-2.5531340">
        <ele>769.5</ele>
        <time>2019-11-03T09:57:26Z</time>
      </trkpt>
      <trkpt lat="38.4001000" lon="-2.5531940">
        <ele>769.5</ele>
        <time>2019-11-03T09:57:27Z</time>
      </trkpt>
      <trkpt lat="38.4000540" lon="-2.5532590">
        <ele>769.5</ele>
        <time>2019-11-03T09:57:28Z</time>
      </trkpt>
      <trkpt lat="38.4000100" lon="-2.5533240">
        <ele>769.5</ele>
        <time>2019-11-03T09:57:29Z</time>
      </trkpt>
      <trkpt lat="38.3999670" lon="-2.5533910">
        <ele>769.5</ele>
        <time>2019-11-03T09:57:30Z</time>
      </trkpt>
      <trkpt lat="38.3999260" lon="-2.5534580">
        <ele>769.5</ele>
        <time>2019-11-03T09:57:31Z</time>
      </trkpt>
      <trkpt lat="38.3998820" lon="-2.5535270">
        <ele>769.5</ele>
        <time>2019-11-03T09:57:32Z</time>
      </trkpt>
      <trkpt lat="38.3998460" lon="-2.5535970">
        <ele>769.5</ele>
        <time>2019-11-03T09:57:33Z</time>
      </trkpt>
      <trkpt lat="38.3998080" lon="-2.5536680">
        <ele>769.5</ele>
        <time>2019-11-03T09:57:34Z</time>
      </trkpt>
      <trkpt lat="38.3997720" lon="-2.5537410">
        <ele>769.5</ele>
        <time>2019-11-03T09:57:35Z</time>
      </trkpt>
      <trkpt lat="38.3997390" lon="-2.5538140">
        <ele>772.1</ele>
        <time>2019-11-03T09:57:36Z</time>
      </trkpt>
      <trkpt lat="38.3997030" lon="-2.5538880">
        <ele>772.1</ele>
        <time>2019-11-03T09:57:37Z</time>
      </trkpt>
      <trkpt lat="38.3996720" lon="-2.5539580">
        <ele>772.1</ele>
        <time>2019-11-03T09:57:38Z</time>
      </trkpt>
      <trkpt lat="38.3996440" lon="-2.5540310">
        <ele>772.1</ele>
        <time>2019-11-03T09:57:39Z</time>
      </trkpt>
      <trkpt lat="38.3996130" lon="-2.5541070">
        <ele>772.1</ele>
        <time>2019-11-03T09:57:40Z</time>
      </trkpt>
      <trkpt lat="38.3995830" lon="-2.5541900">
        <ele>772.1</ele>
        <time>2019-11-03T09:57:41Z</time>
      </trkpt>
      <trkpt lat="38.3995520" lon="-2.5542730">
        <ele>772.1</ele>
        <time>2019-11-03T09:57:42Z</time>
      </trkpt>
      <trkpt lat="38.3995210" lon="-2.5543580">
        <ele>772.1</ele>
        <time>2019-11-03T09:57:43Z</time>
      </trkpt>
      <trkpt lat="38.3994910" lon="-2.5544420">
        <ele>772.1</ele>
        <time>2019-11-03T09:57:44Z</time>
      </trkpt>
      <trkpt lat="38.3994600" lon="-2.5545270">
        <ele>772.1</ele>
        <time>2019-11-03T09:57:45Z</time>
      </trkpt>
      <trkpt lat="38.3994340" lon="-2.5546120">
        <ele>772.1</ele>
        <time>2019-11-03T09:57:46Z</time>
      </trkpt>
      <trkpt lat="38.3994060" lon="-2.5546960">
        <ele>772.1</ele>
        <time>2019-11-03T09:57:47Z</time>
      </trkpt>
      <trkpt lat="38.3993800" lon="-2.5547820">
        <ele>772.1</ele>
        <time>2019-11-03T09:57:48Z</time>
      </trkpt>
      <trkpt lat="38.3993520" lon="-2.5548680">
        <ele>772.1</ele>
        <time>2019-11-03T09:57:49Z</time>
      </trkpt>
      <trkpt lat="38.3993270" lon="-2.5549530">
        <ele>772.1</ele>
        <time>2019-11-03T09:57:50Z</time>
      </trkpt>
      <trkpt lat="38.3992990" lon="-2.5550390">
        <ele>772.1</ele>
        <time>2019-11-03T09:57:51Z</time>
      </trkpt>
      <trkpt lat="38.3992730" lon="-2.5551250">
        <ele>772.1</ele>
        <time>2019-11-03T09:57:52Z</time>
      </trkpt>
      <trkpt lat="38.3992470" lon="-2.5552100">
        <ele>772.1</ele>
        <time>2019-11-03T09:57:53Z</time>
      </trkpt>
      <trkpt lat="38.3992240" lon="-2.5552990">
        <ele>772.1</ele>
        <time>2019-11-03T09:57:54Z</time>
      </trkpt>
      <trkpt lat="38.3992010" lon="-2.5553730">
        <ele>772.1</ele>
        <time>2019-11-03T09:57:55Z</time>
      </trkpt>
      <trkpt lat="38.3991730" lon="-2.5554580">
        <ele>772.1</ele>
        <time>2019-11-03T09:57:56Z</time>
      </trkpt>
      <trkpt lat="38.3991480" lon="-2.5555480">
        <ele>772.1</ele>
        <time>2019-11-03T09:57:57Z</time>
      </trkpt>
      <trkpt lat="38.3991190" lon="-2.5556420">
        <ele>772.1</ele>
        <time>2019-11-03T09:57:58Z</time>
      </trkpt>
      <trkpt lat="38.3990890" lon="-2.5557380">
        <ele>772.1</ele>
        <time>2019-11-03T09:57:59Z</time>
      </trkpt>
      <trkpt lat="38.3990600" lon="-2.5558270">
        <ele>772.1</ele>
        <time>2019-11-03T09:58:00Z</time>
      </trkpt>
      <trkpt lat="38.3990300" lon="-2.5559250">
        <ele>772.1</ele>
        <time>2019-11-03T09:58:01Z</time>
      </trkpt>
      <trkpt lat="38.3989910" lon="-2.5560220">
        <ele>772.1</ele>
        <time>2019-11-03T09:58:02Z</time>
      </trkpt>
      <trkpt lat="38.3989560" lon="-2.5561180">
        <ele>772.1</ele>
        <time>2019-11-03T09:58:03Z</time>
      </trkpt>
      <trkpt lat="38.3989250" lon="-2.5562110">
        <ele>772.1</ele>
        <time>2019-11-03T09:58:04Z</time>
      </trkpt>
      <trkpt lat="38.3988990" lon="-2.5562970">
        <ele>772.1</ele>
        <time>2019-11-03T09:58:05Z</time>
      </trkpt>
      <trkpt lat="38.3988680" lon="-2.5563890">
        <ele>772.1</ele>
        <time>2019-11-03T09:58:06Z</time>
      </trkpt>
      <trkpt lat="38.3988350" lon="-2.5564800">
        <ele>772.1</ele>
        <time>2019-11-03T09:58:07Z</time>
      </trkpt>
      <trkpt lat="38.3988040" lon="-2.5565720">
        <ele>774.4</ele>
        <time>2019-11-03T09:58:08Z</time>
      </trkpt>
      <trkpt lat="38.3987760" lon="-2.5566620">
        <ele>774.4</ele>
        <time>2019-11-03T09:58:09Z</time>
      </trkpt>
      <trkpt lat="38.3987510" lon="-2.5567460">
        <ele>774.4</ele>
        <time>2019-11-03T09:58:10Z</time>
      </trkpt>
      <trkpt lat="38.3987050" lon="-2.5568450">
        <ele>774.4</ele>
        <time>2019-11-03T09:58:11Z</time>
      </trkpt>
      <trkpt lat="38.3986640" lon="-2.5569230">
        <ele>774.4</ele>
        <time>2019-11-03T09:58:12Z</time>
      </trkpt>
      <trkpt lat="38.3986330" lon="-2.5569950">
        <ele>774.4</ele>
        <time>2019-11-03T09:58:13Z</time>
      </trkpt>
      <trkpt lat="38.3986020" lon="-2.5570720">
        <ele>774.4</ele>
        <time>2019-11-03T09:58:14Z</time>
      </trkpt>
      <trkpt lat="38.3985740" lon="-2.5571470">
        <ele>774.4</ele>
        <time>2019-11-03T09:58:15Z</time>
      </trkpt>
      <trkpt lat="38.3985560" lon="-2.5572130">
        <ele>774.4</ele>
        <time>2019-11-03T09:58:16Z</time>
      </trkpt>
      <trkpt lat="38.3985280" lon="-2.5572890">
        <ele>774.4</ele>
        <time>2019-11-03T09:58:17Z</time>
      </trkpt>
      <trkpt lat="38.3985050" lon="-2.5573660">
        <ele>774.4</ele>
        <time>2019-11-03T09:58:18Z</time>
      </trkpt>
      <trkpt lat="38.3984840" lon="-2.5574390">
        <ele>774.4</ele>
        <time>2019-11-03T09:58:19Z</time>
      </trkpt>
      <trkpt lat="38.3984560" lon="-2.5575110">
        <ele>774.4</ele>
        <time>2019-11-03T09:58:20Z</time>
      </trkpt>
      <trkpt lat="38.3984380" lon="-2.5575790">
        <ele>774.4</ele>
        <time>2019-11-03T09:58:21Z</time>
      </trkpt>
      <trkpt lat="38.3984180" lon="-2.5576460">
        <ele>774.4</ele>
        <time>2019-11-03T09:58:22Z</time>
      </trkpt>
      <trkpt lat="38.3984030" lon="-2.5577080">
        <ele>774.4</ele>
        <time>2019-11-03T09:58:23Z</time>
      </trkpt>
      <trkpt lat="38.3983920" lon="-2.5577690">
        <ele>774.4</ele>
        <time>2019-11-03T09:58:24Z</time>
      </trkpt>
      <trkpt lat="38.3983640" lon="-2.5578900">
        <ele>774.4</ele>
        <time>2019-11-03T09:58:26Z</time>
      </trkpt>
      <trkpt lat="38.3983390" lon="-2.5580020">
        <ele>774.4</ele>
        <time>2019-11-03T09:58:28Z</time>
      </trkpt>
      <trkpt lat="38.3983160" lon="-2.5581130">
        <ele>774.4</ele>
        <time>2019-11-03T09:58:30Z</time>
      </trkpt>
      <trkpt lat="38.3982920" lon="-2.5582210">
        <ele>774.4</ele>
        <time>2019-11-03T09:58:32Z</time>
      </trkpt>
      <trkpt lat="38.3982750" lon="-2.5583330">
        <ele>774.4</ele>
        <time>2019-11-03T09:58:34Z</time>
      </trkpt>
      <trkpt lat="38.3982540" lon="-2.5584370">
        <ele>774.4</ele>
        <time>2019-11-03T09:58:36Z</time>
      </trkpt>
      <trkpt lat="38.3982440" lon="-2.5585430">
        <ele>774.4</ele>
        <time>2019-11-03T09:58:38Z</time>
      </trkpt>
      <trkpt lat="38.3982360" lon="-2.5586460">
        <ele>774.4</ele>
        <time>2019-11-03T09:58:40Z</time>
      </trkpt>
      <trkpt lat="38.3982310" lon="-2.5587510">
        <ele>774.4</ele>
        <time>2019-11-03T09:58:42Z</time>
      </trkpt>
      <trkpt lat="38.3982310" lon="-2.5588570">
        <ele>774.4</ele>
        <time>2019-11-03T09:58:44Z</time>
      </trkpt>
      <trkpt lat="38.3982360" lon="-2.5589630">
        <ele>774.4</ele>
        <time>2019-11-03T09:58:46Z</time>
      </trkpt>
      <trkpt lat="38.3982440" lon="-2.5590720">
        <ele>774.4</ele>
        <time>2019-11-03T09:58:48Z</time>
      </trkpt>
      <trkpt lat="38.3982540" lon="-2.5592290">
        <ele>774.4</ele>
        <time>2019-11-03T09:58:51Z</time>
      </trkpt>
      <trkpt lat="38.3982750" lon="-2.5593840">
        <ele>774.4</ele>
        <time>2019-11-03T09:58:54Z</time>
      </trkpt>
      <trkpt lat="38.3982900" lon="-2.5594910">
        <ele>776.5</ele>
        <time>2019-11-03T09:58:56Z</time>
      </trkpt>
      <trkpt lat="38.3983080" lon="-2.5595950">
        <ele>776.5</ele>
        <time>2019-11-03T09:58:58Z</time>
      </trkpt>
      <trkpt lat="38.3983230" lon="-2.5596950">
        <ele>776.5</ele>
        <time>2019-11-03T09:59:00Z</time>
      </trkpt>
      <trkpt lat="38.3983460" lon="-2.5597980">
        <ele>776.5</ele>
        <time>2019-11-03T09:59:02Z</time>
      </trkpt>
      <trkpt lat="38.3983720" lon="-2.5598990">
        <ele>776.5</ele>
        <time>2019-11-03T09:59:04Z</time>
      </trkpt>
      <trkpt lat="38.3983950" lon="-2.5600010">
        <ele>776.5</ele>
        <time>2019-11-03T09:59:06Z</time>
      </trkpt>
      <trkpt lat="38.3984230" lon="-2.5601090">
        <ele>776.5</ele>
        <time>2019-11-03T09:59:08Z</time>
      </trkpt>
      <trkpt lat="38.3984540" lon="-2.5602170">
        <ele>776.5</ele>
        <time>2019-11-03T09:59:10Z</time>
      </trkpt>
      <trkpt lat="38.3984790" lon="-2.5603230">
        <ele>776.5</ele>
        <time>2019-11-03T09:59:12Z</time>
      </trkpt>
      <trkpt lat="38.3984950" lon="-2.5603770">
        <ele>776.5</ele>
        <time>2019-11-03T09:59:13Z</time>
      </trkpt>
      <trkpt lat="38.3985250" lon="-2.5604850">
        <ele>776.5</ele>
        <time>2019-11-03T09:59:15Z</time>
      </trkpt>
      <trkpt lat="38.3985510" lon="-2.5605980">
        <ele>776.5</ele>
        <time>2019-11-03T09:59:17Z</time>
      </trkpt>
      <trkpt lat="38.3985790" lon="-2.5607100">
        <ele>776.5</ele>
        <time>2019-11-03T09:59:19Z</time>
      </trkpt>
      <trkpt lat="38.3986020" lon="-2.5608310">
        <ele>776.5</ele>
        <time>2019-11-03T09:59:21Z</time>
      </trkpt>
      <trkpt lat="38.3986120" lon="-2.5609480">
        <ele>776.5</ele>
        <time>2019-11-03T09:59:23Z</time>
      </trkpt>
      <trkpt lat="38.3986120" lon="-2.5610680">
        <ele>776.5</ele>
        <time>2019-11-03T09:59:25Z</time>
      </trkpt>
      <trkpt lat="38.3986050" lon="-2.5611240">
        <ele>776.5</ele>
        <time>2019-11-03T09:59:26Z</time>
      </trkpt>
      <trkpt lat="38.3985740" lon="-2.5612400">
        <ele>776.5</ele>
        <time>2019-11-03T09:59:28Z</time>
      </trkpt>
      <trkpt lat="38.3985330" lon="-2.5613450">
        <ele>776.5</ele>
        <time>2019-11-03T09:59:30Z</time>
      </trkpt>
      <trkpt lat="38.3985020" lon="-2.5613970">
        <ele>776.5</ele>
        <time>2019-11-03T09:59:31Z</time>
      </trkpt>
      <trkpt lat="38.3984330" lon="-2.5614970">
        <ele>776.5</ele>
        <time>2019-11-03T09:59:33Z</time>
      </trkpt>
      <trkpt lat="38.3983950" lon="-2.5615440">
        <ele>776.5</ele>
        <time>2019-11-03T09:59:34Z</time>
      </trkpt>
      <trkpt lat="38.3983560" lon="-2.5615900">
        <ele>776.5</ele>
        <time>2019-11-03T09:59:35Z</time>
      </trkpt>
      <trkpt lat="38.3983180" lon="-2.5616350">
        <ele>776.5</ele>
        <time>2019-11-03T09:59:36Z</time>
      </trkpt>
      <trkpt lat="38.3982390" lon="-2.5617230">
        <ele>776.5</ele>
        <time>2019-11-03T09:59:38Z</time>
      </trkpt>
      <trkpt lat="38.3982000" lon="-2.5617680">
        <ele>776.5</ele>
        <time>2019-11-03T09:59:39Z</time>
      </trkpt>
      <trkpt lat="38.3981590" lon="-2.5618160">
        <ele>776.5</ele>
        <time>2019-11-03T09:59:40Z</time>
      </trkpt>
      <trkpt lat="38.3981160" lon="-2.5618660">
        <ele>776.5</ele>
        <time>2019-11-03T09:59:41Z</time>
      </trkpt>
      <trkpt lat="38.3980830" lon="-2.5619160">
        <ele>776.5</ele>
        <time>2019-11-03T09:59:42Z</time>
      </trkpt>
      <trkpt lat="38.3980420" lon="-2.5619720">
        <ele>776.5</ele>
        <time>2019-11-03T09:59:43Z</time>
      </trkpt>
      <trkpt lat="38.3980030" lon="-2.5620290">
        <ele>776.5</ele>
        <time>2019-11-03T09:59:44Z</time>
      </trkpt>
      <trkpt lat="38.3979650" lon="-2.5620860">
        <ele>776.5</ele>
        <time>2019-11-03T09:59:45Z</time>
      </trkpt>
      <trkpt lat="38.3979260" lon="-2.5621440">
        <ele>776.5</ele>
        <time>2019-11-03T09:59:46Z</time>
      </trkpt>
      <trkpt lat="38.3978880" lon="-2.5622040">
        <ele>776.5</ele>
        <time>2019-11-03T09:59:47Z</time>
      </trkpt>
      <trkpt lat="38.3978550" lon="-2.5622660">
        <ele>776.5</ele>
        <time>2019-11-03T09:59:48Z</time>
      </trkpt>
      <trkpt lat="38.3978190" lon="-2.5623260">
        <ele>776.5</ele>
        <time>2019-11-03T09:59:49Z</time>
      </trkpt>
      <trkpt lat="38.3977880" lon="-2.5623930">
        <ele>776.5</ele>
        <time>2019-11-03T09:59:50Z</time>
      </trkpt>
      <trkpt lat="38.3977550" lon="-2.5624600">
        <ele>776.5</ele>
        <time>2019-11-03T09:59:51Z</time>
      </trkpt>
      <trkpt lat="38.3977240" lon="-2.5625280">
        <ele>776.5</ele>
        <time>2019-11-03T09:59:52Z</time>
      </trkpt>
      <trkpt lat="38.3976930" lon="-2.5625980">
        <ele>776.5</ele>
        <time>2019-11-03T09:59:53Z</time>
      </trkpt>
      <trkpt lat="38.3976680" lon="-2.5626680">
        <ele>776.5</ele>
        <time>2019-11-03T09:59:54Z</time>
      </trkpt>
      <trkpt lat="38.3976400" lon="-2.5627400">
        <ele>776.5</ele>
        <time>2019-11-03T09:59:55Z</time>
      </trkpt>
      <trkpt lat="38.3976170" lon="-2.5628120">
        <ele>776.5</ele>
        <time>2019-11-03T09:59:56Z</time>
      </trkpt>
      <trkpt lat="38.3975940" lon="-2.5628800">
        <ele>776.5</ele>
        <time>2019-11-03T09:59:57Z</time>
      </trkpt>
      <trkpt lat="38.3975760" lon="-2.5629540">
        <ele>776.5</ele>
        <time>2019-11-03T09:59:58Z</time>
      </trkpt>
      <trkpt lat="38.3975550" lon="-2.5630290">
        <ele>776.5</ele>
        <time>2019-11-03T09:59:59Z</time>
      </trkpt>
      <trkpt lat="38.3975370" lon="-2.5631050">
        <ele>778.8</ele>
        <time>2019-11-03T10:00:00Z</time>
      </trkpt>
      <trkpt lat="38.3975220" lon="-2.5631830">
        <ele>778.8</ele>
        <time>2019-11-03T10:00:01Z</time>
      </trkpt>
      <trkpt lat="38.3975070" lon="-2.5632600">
        <ele>778.8</ele>
        <time>2019-11-03T10:00:02Z</time>
      </trkpt>
      <trkpt lat="38.3974960" lon="-2.5633360">
        <ele>778.8</ele>
        <time>2019-11-03T10:00:03Z</time>
      </trkpt>
      <trkpt lat="38.3974840" lon="-2.5634120">
        <ele>778.8</ele>
        <time>2019-11-03T10:00:04Z</time>
      </trkpt>
      <trkpt lat="38.3974730" lon="-2.5634870">
        <ele>778.8</ele>
        <time>2019-11-03T10:00:05Z</time>
      </trkpt>
      <trkpt lat="38.3974680" lon="-2.5635620">
        <ele>778.8</ele>
        <time>2019-11-03T10:00:06Z</time>
      </trkpt>
      <trkpt lat="38.3974600" lon="-2.5636350">
        <ele>778.8</ele>
        <time>2019-11-03T10:00:07Z</time>
      </trkpt>
      <trkpt lat="38.3974580" lon="-2.5637010">
        <ele>778.8</ele>
        <time>2019-11-03T10:00:08Z</time>
      </trkpt>
      <trkpt lat="38.3974530" lon="-2.5637710">
        <ele>778.8</ele>
        <time>2019-11-03T10:00:09Z</time>
      </trkpt>
      <trkpt lat="38.3974530" lon="-2.5638380">
        <ele>778.8</ele>
        <time>2019-11-03T10:00:10Z</time>
      </trkpt>
      <trkpt lat="38.3974530" lon="-2.5639020">
        <ele>778.8</ele>
        <time>2019-11-03T10:00:11Z</time>
      </trkpt>
      <trkpt lat="38.3974530" lon="-2.5639600">
        <ele>778.8</ele>
        <time>2019-11-03T10:00:12Z</time>
      </trkpt>
      <trkpt lat="38.3974600" lon="-2.5640730">
        <ele>778.8</ele>
        <time>2019-11-03T10:00:14Z</time>
      </trkpt>
      <trkpt lat="38.3974730" lon="-2.5641740">
        <ele>778.8</ele>
        <time>2019-11-03T10:00:16Z</time>
      </trkpt>
      <trkpt lat="38.3974840" lon="-2.5642780">
        <ele>778.8</ele>
        <time>2019-11-03T10:00:18Z</time>
      </trkpt>
      <trkpt lat="38.3974960" lon="-2.5643770">
        <ele>778.8</ele>
        <time>2019-11-03T10:00:20Z</time>
      </trkpt>
      <trkpt lat="38.3975040" lon="-2.5644700">
        <ele>778.8</ele>
        <time>2019-11-03T10:00:22Z</time>
      </trkpt>
      <trkpt lat="38.3975120" lon="-2.5645670">
        <ele>778.8</ele>
        <time>2019-11-03T10:00:24Z</time>
      </trkpt>
      <trkpt lat="38.3975220" lon="-2.5646600">
        <ele>778.8</ele>
        <time>2019-11-03T10:00:26Z</time>
      </trkpt>
      <trkpt lat="38.3975300" lon="-2.5647550">
        <ele>778.8</ele>
        <time>2019-11-03T10:00:28Z</time>
      </trkpt>
      <trkpt lat="38.3975400" lon="-2.5648440">
        <ele>778.8</ele>
        <time>2019-11-03T10:00:30Z</time>
      </trkpt>
      <trkpt lat="38.3975480" lon="-2.5649440">
        <ele>778.8</ele>
        <time>2019-11-03T10:00:32Z</time>
      </trkpt>
      <trkpt lat="38.3975600" lon="-2.5650410">
        <ele>778.8</ele>
        <time>2019-11-03T10:00:34Z</time>
      </trkpt>
      <trkpt lat="38.3975680" lon="-2.5651380">
        <ele>778.8</ele>
        <time>2019-11-03T10:00:36Z</time>
      </trkpt>
      <trkpt lat="38.3975760" lon="-2.5652340">
        <ele>778.8</ele>
        <time>2019-11-03T10:00:38Z</time>
      </trkpt>
      <trkpt lat="38.3975780" lon="-2.5653250">
        <ele>778.8</ele>
        <time>2019-11-03T10:00:40Z</time>
      </trkpt>
      <trkpt lat="38.3975780" lon="-2.5654080">
        <ele>778.8</ele>
        <time>2019-11-03T10:00:42Z</time>
      </trkpt>
      <trkpt lat="38.3975780" lon="-2.5654950">
        <ele>778.8</ele>
        <time>2019-11-03T10:00:44Z</time>
      </trkpt>
      <trkpt lat="38.3975760" lon="-2.5655810">
        <ele>778.8</ele>
        <time>2019-11-03T10:00:46Z</time>
      </trkpt>
      <trkpt lat="38.3975680" lon="-2.5656670">
        <ele>778.8</ele>
        <time>2019-11-03T10:00:48Z</time>
      </trkpt>
      <trkpt lat="38.3975550" lon="-2.5657530">
        <ele>778.8</ele>
        <time>2019-11-03T10:00:50Z</time>
      </trkpt>
      <trkpt lat="38.3975480" lon="-2.5658360">
        <ele>778.8</ele>
        <time>2019-11-03T10:00:52Z</time>
      </trkpt>
      <trkpt lat="38.3975370" lon="-2.5659260">
        <ele>778.8</ele>
        <time>2019-11-03T10:00:54Z</time>
      </trkpt>
      <trkpt lat="38.3975270" lon="-2.5660180">
        <ele>778.8</ele>
        <time>2019-11-03T10:00:56Z</time>
      </trkpt>
      <trkpt lat="38.3975190" lon="-2.5661070">
        <ele>778.8</ele>
        <time>2019-11-03T10:00:58Z</time>
      </trkpt>
      <trkpt lat="38.3975140" lon="-2.5661940">
        <ele>778.8</ele>
        <time>2019-11-03T10:01:00Z</time>
      </trkpt>
      <trkpt lat="38.3975070" lon="-2.5662790">
        <ele>778.8</ele>
        <time>2019-11-03T10:01:02Z</time>
      </trkpt>
      <trkpt lat="38.3974990" lon="-2.5663620">
        <ele>778.8</ele>
        <time>2019-11-03T10:01:04Z</time>
      </trkpt>
      <trkpt lat="38.3974910" lon="-2.5664440">
        <ele>778.8</ele>
        <time>2019-11-03T10:01:06Z</time>
      </trkpt>
      <trkpt lat="38.3974840" lon="-2.5665310">
        <ele>778.8</ele>
        <time>2019-11-03T10:01:08Z</time>
      </trkpt>
      <trkpt lat="38.3974730" lon="-2.5666160">
        <ele>778.8</ele>
        <time>2019-11-03T10:01:10Z</time>
      </trkpt>
      <trkpt lat="38.3974600" lon="-2.5667050">
        <ele>778.8</ele>
        <time>2019-11-03T10:01:12Z</time>
      </trkpt>
      <trkpt lat="38.3974500" lon="-2.5667860">
        <ele>778.8</ele>
        <time>2019-11-03T10:01:14Z</time>
      </trkpt>
      <trkpt lat="38.3974430" lon="-2.5668670">
        <ele>778.8</ele>
        <time>2019-11-03T10:01:16Z</time>
      </trkpt>
      <trkpt lat="38.3974300" lon="-2.5669490">
        <ele>778.8</ele>
        <time>2019-11-03T10:01:18Z</time>
      </trkpt>
      <trkpt lat="38.3974220" lon="-2.5670240">
        <ele>778.8</ele>
        <time>2019-11-03T10:01:20Z</time>
      </trkpt>
      <trkpt lat="38.3974140" lon="-2.5671000">
        <ele>778.8</ele>
        <time>2019-11-03T10:01:22Z</time>
      </trkpt>
      <trkpt lat="38.3974070" lon="-2.5671790">
        <ele>778.8</ele>
        <time>2019-11-03T10:01:24Z</time>
      </trkpt>
      <trkpt lat="38.3973990" lon="-2.5672600">
        <ele>778.8</ele>
        <time>2019-11-03T10:01:26Z</time>
      </trkpt>
      <trkpt lat="38.3973890" lon="-2.5673410">
        <ele>778.8</ele>
        <time>2019-11-03T10:01:28Z</time>
      </trkpt>
      <trkpt lat="38.3973810" lon="-2.5674220">
        <ele>778.8</ele>
        <time>2019-11-03T10:01:30Z</time>
      </trkpt>
      <trkpt lat="38.3973730" lon="-2.5675050">
        <ele>778.8</ele>
        <time>2019-11-03T10:01:32Z</time>
      </trkpt>
      <trkpt lat="38.3973610" lon="-2.5675840">
        <ele>778.8</ele>
        <time>2019-11-03T10:01:34Z</time>
      </trkpt>
      <trkpt lat="38.3973450" lon="-2.5676630">
        <ele>778.8</ele>
        <time>2019-11-03T10:01:36Z</time>
      </trkpt>
      <trkpt lat="38.3973320" lon="-2.5677420">
        <ele>778.8</ele>
        <time>2019-11-03T10:01:38Z</time>
      </trkpt>
      <trkpt lat="38.3973090" lon="-2.5678240">
        <ele>778.8</ele>
        <time>2019-11-03T10:01:40Z</time>
      </trkpt>
      <trkpt lat="38.3972860" lon="-2.5679030">
        <ele>778.8</ele>
        <time>2019-11-03T10:01:42Z</time>
      </trkpt>
      <trkpt lat="38.3972560" lon="-2.5679820">
        <ele>778.8</ele>
        <time>2019-11-03T10:01:44Z</time>
      </trkpt>
      <trkpt lat="38.3972200" lon="-2.5680600">
        <ele>778.8</ele>
        <time>2019-11-03T10:01:46Z</time>
      </trkpt>
      <trkpt lat="38.3971810" lon="-2.5681330">
        <ele>778.8</ele>
        <time>2019-11-03T10:01:48Z</time>
      </trkpt>
      <trkpt lat="38.3971400" lon="-2.5682020">
        <ele>778.8</ele>
        <time>2019-11-03T10:01:50Z</time>
      </trkpt>
      <trkpt lat="38.3971000" lon="-2.5682710">
        <ele>778.8</ele>
        <time>2019-11-03T10:01:52Z</time>
      </trkpt>
      <trkpt lat="38.3970530" lon="-2.5683350">
        <ele>778.8</ele>
        <time>2019-11-03T10:01:54Z</time>
      </trkpt>
      <trkpt lat="38.3970070" lon="-2.5683990">
        <ele>778.8</ele>
        <time>2019-11-03T10:01:56Z</time>
      </trkpt>
      <trkpt lat="38.3969610" lon="-2.5684630">
        <ele>778.8</ele>
        <time>2019-11-03T10:01:58Z</time>
      </trkpt>
      <trkpt lat="38.3969150" lon="-2.5685280">
        <ele>778.8</ele>
        <time>2019-11-03T10:02:00Z</time>
      </trkpt>
      <trkpt lat="38.3968740" lon="-2.5685890">
        <ele>778.8</ele>
        <time>2019-11-03T10:02:02Z</time>
      </trkpt>
      <trkpt lat="38.3968230" lon="-2.5686490">
        <ele>778.8</ele>
        <time>2019-11-03T10:02:04Z</time>
      </trkpt>
      <trkpt lat="38.3967740" lon="-2.5687140">
        <ele>778.8</ele>
        <time>2019-11-03T10:02:06Z</time>
      </trkpt>
      <trkpt lat="38.3967260" lon="-2.5687820">
        <ele>778.8</ele>
        <time>2019-11-03T10:02:08Z</time>
      </trkpt>
      <trkpt lat="38.3966800" lon="-2.5688480">
        <ele>778.8</ele>
        <time>2019-11-03T10:02:10Z</time>
      </trkpt>
      <trkpt lat="38.3966280" lon="-2.5689200">
        <ele>778.8</ele>
        <time>2019-11-03T10:02:12Z</time>
      </trkpt>
      <trkpt lat="38.3965880" lon="-2.5689970">
        <ele>778.8</ele>
        <time>2019-11-03T10:02:14Z</time>
      </trkpt>
      <trkpt lat="38.3965470" lon="-2.5690720">
        <ele>778.8</ele>
        <time>2019-11-03T10:02:16Z</time>
      </trkpt>
      <trkpt lat="38.3965160" lon="-2.5691490">
        <ele>778.8</ele>
        <time>2019-11-03T10:02:18Z</time>
      </trkpt>
      <trkpt lat="38.3964880" lon="-2.5692280">
        <ele>778.8</ele>
        <time>2019-11-03T10:02:20Z</time>
      </trkpt>
      <trkpt lat="38.3964700" lon="-2.5693110">
        <ele>778.8</ele>
        <time>2019-11-03T10:02:22Z</time>
      </trkpt>
      <trkpt lat="38.3964570" lon="-2.5693940">
        <ele>778.8</ele>
        <time>2019-11-03T10:02:24Z</time>
      </trkpt>
      <trkpt lat="38.3964490" lon="-2.5694790">
        <ele>778.8</ele>
        <time>2019-11-03T10:02:26Z</time>
      </trkpt>
      <trkpt lat="38.3964490" lon="-2.5695680">
        <ele>780.8</ele>
        <time>2019-11-03T10:02:28Z</time>
      </trkpt>
      <trkpt lat="38.3964570" lon="-2.5696560">
        <ele>780.8</ele>
        <time>2019-11-03T10:02:30Z</time>
      </trkpt>
      <trkpt lat="38.3964700" lon="-2.5697440">
        <ele>780.8</ele>
        <time>2019-11-03T10:02:32Z</time>
      </trkpt>
      <trkpt lat="38.3964880" lon="-2.5698320">
        <ele>780.8</ele>
        <time>2019-11-03T10:02:34Z</time>
      </trkpt>
      <trkpt lat="38.3965110" lon="-2.5699170">
        <ele>780.8</ele>
        <time>2019-11-03T10:02:36Z</time>
      </trkpt>
      <trkpt lat="38.3965410" lon="-2.5700010">
        <ele>780.8</ele>
        <time>2019-11-03T10:02:38Z</time>
      </trkpt>
      <trkpt lat="38.3965750" lon="-2.5700810">
        <ele>780.8</ele>
        <time>2019-11-03T10:02:40Z</time>
      </trkpt>
      <trkpt lat="38.3966130" lon="-2.5701570">
        <ele>780.8</ele>
        <time>2019-11-03T10:02:42Z</time>
      </trkpt>
      <trkpt lat="38.3966590" lon="-2.5702320">
        <ele>780.8</ele>
        <time>2019-11-03T10:02:44Z</time>
      </trkpt>
      <trkpt lat="38.3967100" lon="-2.5703030">
        <ele>780.8</ele>
        <time>2019-11-03T10:02:46Z</time>
      </trkpt>
      <trkpt lat="38.3967620" lon="-2.5703660">
        <ele>780.8</ele>
        <time>2019-11-03T10:02:48Z</time>
      </trkpt>
      <trkpt lat="38.3968150" lon="-2.5704250">
        <ele>780.8</ele>
        <time>2019-11-03T10:02:50Z</time>
      </trkpt>
      <trkpt lat="38.3968740" lon="-2.5704860">
        <ele>780.8</ele>
        <time>2019-11-03T10:02:52Z</time>
      </trkpt>
      <trkpt lat="38.3969360" lon="-2.5705420">
        <ele>780.8</ele>
        <time>2019-11-03T10:02:54Z</time>
      </trkpt>
      <trkpt lat="38.3969870" lon="-2.5705930">
        <ele>780.8</ele>
        <time>2019-11-03T10:02:56Z</time>
      </trkpt>
      <trkpt lat="38.3970480" lon="-2.5706510">
        <ele>780.8</ele>
        <time>2019-11-03T10:02:58Z</time>
      </trkpt>
      <trkpt lat="38.3971020" lon="-2.5707120">
        <ele>782.8</ele>
        <time>2019-11-03T10:03:00Z</time>
      </trkpt>
      <trkpt lat="38.3971510" lon="-2.5707680">
        <ele>782.8</ele>
        <time>2019-11-03T10:03:02Z</time>
      </trkpt>
      <trkpt lat="38.3972040" lon="-2.5708300">
        <ele>813.5</ele>
        <time>2019-11-03T10:03:04Z</time>
      </trkpt>
      <trkpt lat="38.3972280" lon="-2.5708610">
        <ele>813.5</ele>
        <time>2019-11-03T10:03:05Z</time>
      </trkpt>
      <trkpt lat="38.3972790" lon="-2.5709170">
        <ele>813.5</ele>
        <time>2019-11-03T10:03:07Z</time>
      </trkpt>
      <trkpt lat="38.3973250" lon="-2.5709770">
        <ele>813.5</ele>
        <time>2019-11-03T10:03:09Z</time>
      </trkpt>
      <trkpt lat="38.3973680" lon="-2.5710390">
        <ele>813.5</ele>
        <time>2019-11-03T10:03:11Z</time>
      </trkpt>
      <trkpt lat="38.3974070" lon="-2.5711010">
        <ele>813.5</ele>
        <time>2019-11-03T10:03:13Z</time>
      </trkpt>
      <trkpt lat="38.3974450" lon="-2.5711650">
        <ele>813.5</ele>
        <time>2019-11-03T10:03:15Z</time>
      </trkpt>
      <trkpt lat="38.3974840" lon="-2.5712250">
        <ele>813.5</ele>
        <time>2019-11-03T10:03:17Z</time>
      </trkpt>
      <trkpt lat="38.3975190" lon="-2.5712920">
        <ele>813.5</ele>
        <time>2019-11-03T10:03:19Z</time>
      </trkpt>
      <trkpt lat="38.3975530" lon="-2.5713620">
        <ele>813.5</ele>
        <time>2019-11-03T10:03:21Z</time>
      </trkpt>
      <trkpt lat="38.3975860" lon="-2.5714310">
        <ele>813.5</ele>
        <time>2019-11-03T10:03:23Z</time>
      </trkpt>
      <trkpt lat="38.3976170" lon="-2.5715020">
        <ele>813.5</ele>
        <time>2019-11-03T10:03:25Z</time>
      </trkpt>
      <trkpt lat="38.3976470" lon="-2.5715750">
        <ele>813.5</ele>
        <time>2019-11-03T10:03:27Z</time>
      </trkpt>
      <trkpt lat="38.3976760" lon="-2.5716490">
        <ele>815.7</ele>
        <time>2019-11-03T10:03:29Z</time>
      </trkpt>
      <trkpt lat="38.3977090" lon="-2.5717570">
        <ele>815.7</ele>
        <time>2019-11-03T10:03:32Z</time>
      </trkpt>
      <trkpt lat="38.3977470" lon="-2.5718570">
        <ele>815.7</ele>
        <time>2019-11-03T10:03:35Z</time>
      </trkpt>
      <trkpt lat="38.3977700" lon="-2.5719230">
        <ele>815.7</ele>
        <time>2019-11-03T10:03:37Z</time>
      </trkpt>
      <trkpt lat="38.3977960" lon="-2.5719920">
        <ele>815.7</ele>
        <time>2019-11-03T10:03:39Z</time>
      </trkpt>
      <trkpt lat="38.3978190" lon="-2.5720620">
        <ele>815.7</ele>
        <time>2019-11-03T10:03:41Z</time>
      </trkpt>
      <trkpt lat="38.3978470" lon="-2.5721370">
        <ele>815.7</ele>
        <time>2019-11-03T10:03:43Z</time>
      </trkpt>
      <trkpt lat="38.3978700" lon="-2.5722150">
        <ele>815.7</ele>
        <time>2019-11-03T10:03:45Z</time>
      </trkpt>
      <trkpt lat="38.3979010" lon="-2.5722890">
        <ele>817.8</ele>
        <time>2019-11-03T10:03:47Z</time>
      </trkpt>
      <trkpt lat="38.3979260" lon="-2.5723620">
        <ele>817.8</ele>
        <time>2019-11-03T10:03:49Z</time>
      </trkpt>
      <trkpt lat="38.3979570" lon="-2.5724370">
        <ele>817.8</ele>
        <time>2019-11-03T10:03:51Z</time>
      </trkpt>
      <trkpt lat="38.3979830" lon="-2.5725090">
        <ele>817.8</ele>
        <time>2019-11-03T10:03:53Z</time>
      </trkpt>
      <trkpt lat="38.3980130" lon="-2.5725780">
        <ele>817.8</ele>
        <time>2019-11-03T10:03:55Z</time>
      </trkpt>
      <trkpt lat="38.3980440" lon="-2.5726450">
        <ele>817.8</ele>
        <time>2019-11-03T10:03:57Z</time>
      </trkpt>
      <trkpt lat="38.3980720" lon="-2.5727090">
        <ele>817.8</ele>
        <time>2019-11-03T10:03:59Z</time>
      </trkpt>
      <trkpt lat="38.3980950" lon="-2.5727720">
        <ele>817.8</ele>
        <time>2019-11-03T10:04:01Z</time>
      </trkpt>
      <trkpt lat="38.3981160" lon="-2.5728370">
        <ele>817.8</ele>
        <time>2019-11-03T10:04:03Z</time>
      </trkpt>
      <trkpt lat="38.3981440" lon="-2.5729040">
        <ele>817.8</ele>
        <time>2019-11-03T10:04:05Z</time>
      </trkpt>
      <trkpt lat="38.3981700" lon="-2.5729690">
        <ele>817.8</ele>
        <time>2019-11-03T10:04:07Z</time>
      </trkpt>
      <trkpt lat="38.3981930" lon="-2.5730380">
        <ele>817.8</ele>
        <time>2019-11-03T10:04:09Z</time>
      </trkpt>
      <trkpt lat="38.3982160" lon="-2.5731080">
        <ele>817.8</ele>
        <time>2019-11-03T10:04:11Z</time>
      </trkpt>
      <trkpt lat="38.3982360" lon="-2.5731770">
        <ele>817.8</ele>
        <time>2019-11-03T10:04:13Z</time>
      </trkpt>
      <trkpt lat="38.3982520" lon="-2.5732510">
        <ele>817.8</ele>
        <time>2019-11-03T10:04:15Z</time>
      </trkpt>
      <trkpt lat="38.3982670" lon="-2.5733220">
        <ele>820.3</ele>
        <time>2019-11-03T10:04:17Z</time>
      </trkpt>
      <trkpt lat="38.3982750" lon="-2.5733860">
        <ele>820.3</ele>
        <time>2019-11-03T10:04:19Z</time>
      </trkpt>
      <trkpt lat="38.3982820" lon="-2.5734530">
        <ele>820.3</ele>
        <time>2019-11-03T10:04:21Z</time>
      </trkpt>
      <trkpt lat="38.3982850" lon="-2.5735500">
        <ele>820.3</ele>
        <time>2019-11-03T10:04:24Z</time>
      </trkpt>
      <trkpt lat="38.3982900" lon="-2.5736090">
        <ele>820.3</ele>
        <time>2019-11-03T10:04:26Z</time>
      </trkpt>
      <trkpt lat="38.3982900" lon="-2.5736990">
        <ele>820.3</ele>
        <time>2019-11-03T10:04:29Z</time>
      </trkpt>
      <trkpt lat="38.3982850" lon="-2.5737600">
        <ele>820.3</ele>
        <time>2019-11-03T10:04:31Z</time>
      </trkpt>
      <trkpt lat="38.3982820" lon="-2.5738570">
        <ele>820.3</ele>
        <time>2019-11-03T10:04:34Z</time>
      </trkpt>
      <trkpt lat="38.3982770" lon="-2.5739210">
        <ele>820.3</ele>
        <time>2019-11-03T10:04:36Z</time>
      </trkpt>
      <trkpt lat="38.3982690" lon="-2.5740190">
        <ele>822.4</ele>
        <time>2019-11-03T10:04:39Z</time>
      </trkpt>
      <trkpt lat="38.3982620" lon="-2.5740840">
        <ele>822.4</ele>
        <time>2019-11-03T10:04:41Z</time>
      </trkpt>
      <trkpt lat="38.3982460" lon="-2.5741790">
        <ele>822.4</ele>
        <time>2019-11-03T10:04:44Z</time>
      </trkpt>
      <trkpt lat="38.3982280" lon="-2.5742430">
        <ele>822.4</ele>
        <time>2019-11-03T10:04:46Z</time>
      </trkpt>
      <trkpt lat="38.3982130" lon="-2.5743060">
        <ele>822.4</ele>
        <time>2019-11-03T10:04:48Z</time>
      </trkpt>
      <trkpt lat="38.3981900" lon="-2.5743720">
        <ele>822.4</ele>
        <time>2019-11-03T10:04:50Z</time>
      </trkpt>
      <trkpt lat="38.3981700" lon="-2.5744390">
        <ele>822.4</ele>
        <time>2019-11-03T10:04:52Z</time>
      </trkpt>
      <trkpt lat="38.3981520" lon="-2.5745070">
        <ele>822.4</ele>
        <time>2019-11-03T10:04:54Z</time>
      </trkpt>
      <trkpt lat="38.3981240" lon="-2.5745820">
        <ele>822.4</ele>
        <time>2019-11-03T10:04:56Z</time>
      </trkpt>
      <trkpt lat="38.3980950" lon="-2.5746560">
        <ele>822.4</ele>
        <time>2019-11-03T10:04:58Z</time>
      </trkpt>
      <trkpt lat="38.3980600" lon="-2.5747310">
        <ele>822.4</ele>
        <time>2019-11-03T10:05:00Z</time>
      </trkpt>
      <trkpt lat="38.3980210" lon="-2.5748050">
        <ele>824.4</ele>
        <time>2019-11-03T10:05:02Z</time>
      </trkpt>
      <trkpt lat="38.3979830" lon="-2.5748830">
        <ele>824.4</ele>
        <time>2019-11-03T10:05:04Z</time>
      </trkpt>
      <trkpt lat="38.3979370" lon="-2.5749600">
        <ele>824.4</ele>
        <time>2019-11-03T10:05:06Z</time>
      </trkpt>
      <trkpt lat="38.3978850" lon="-2.5750400">
        <ele>824.4</ele>
        <time>2019-11-03T10:05:08Z</time>
      </trkpt>
      <trkpt lat="38.3978320" lon="-2.5751200">
        <ele>824.4</ele>
        <time>2019-11-03T10:05:10Z</time>
      </trkpt>
      <trkpt lat="38.3977780" lon="-2.5751960">
        <ele>824.4</ele>
        <time>2019-11-03T10:05:12Z</time>
      </trkpt>
      <trkpt lat="38.3977160" lon="-2.5752720">
        <ele>824.4</ele>
        <time>2019-11-03T10:05:14Z</time>
      </trkpt>
      <trkpt lat="38.3976600" lon="-2.5753460">
        <ele>824.4</ele>
        <time>2019-11-03T10:05:16Z</time>
      </trkpt>
      <trkpt lat="38.3975940" lon="-2.5754250">
        <ele>824.4</ele>
        <time>2019-11-03T10:05:18Z</time>
      </trkpt>
      <trkpt lat="38.3975300" lon="-2.5755050">
        <ele>826.4</ele>
        <time>2019-11-03T10:05:20Z</time>
      </trkpt>
      <trkpt lat="38.3974660" lon="-2.5755900">
        <ele>826.4</ele>
        <time>2019-11-03T10:05:22Z</time>
      </trkpt>
      <trkpt lat="38.3974350" lon="-2.5756350">
        <ele>826.4</ele>
        <time>2019-11-03T10:05:23Z</time>
      </trkpt>
      <trkpt lat="38.3973760" lon="-2.5757280">
        <ele>826.4</ele>
        <time>2019-11-03T10:05:25Z</time>
      </trkpt>
      <trkpt lat="38.3973250" lon="-2.5758250">
        <ele>826.4</ele>
        <time>2019-11-03T10:05:27Z</time>
      </trkpt>
      <trkpt lat="38.3972740" lon="-2.5759270">
        <ele>826.4</ele>
        <time>2019-11-03T10:05:29Z</time>
      </trkpt>
      <trkpt lat="38.3972280" lon="-2.5760300">
        <ele>826.4</ele>
        <time>2019-11-03T10:05:31Z</time>
      </trkpt>
      <trkpt lat="38.3971810" lon="-2.5761430">
        <ele>826.4</ele>
        <time>2019-11-03T10:05:33Z</time>
      </trkpt>
      <trkpt lat="38.3971400" lon="-2.5762550">
        <ele>826.4</ele>
        <time>2019-11-03T10:05:35Z</time>
      </trkpt>
      <trkpt lat="38.3971020" lon="-2.5763740">
        <ele>829.1</ele>
        <time>2019-11-03T10:05:37Z</time>
      </trkpt>
      <trkpt lat="38.3970530" lon="-2.5765490">
        <ele>829.1</ele>
        <time>2019-11-03T10:05:40Z</time>
      </trkpt>
      <trkpt lat="38.3970180" lon="-2.5766680">
        <ele>829.1</ele>
        <time>2019-11-03T10:05:42Z</time>
      </trkpt>
      <trkpt lat="38.3969870" lon="-2.5767860">
        <ele>829.1</ele>
        <time>2019-11-03T10:05:44Z</time>
      </trkpt>
      <trkpt lat="38.3969610" lon="-2.5769020">
        <ele>829.1</ele>
        <time>2019-11-03T10:05:46Z</time>
      </trkpt>
      <trkpt lat="38.3969360" lon="-2.5770150">
        <ele>829.1</ele>
        <time>2019-11-03T10:05:48Z</time>
      </trkpt>
      <trkpt lat="38.3969080" lon="-2.5771380">
        <ele>829.1</ele>
        <time>2019-11-03T10:05:50Z</time>
      </trkpt>
      <trkpt lat="38.3968770" lon="-2.5772570">
        <ele>829.1</ele>
        <time>2019-11-03T10:05:52Z</time>
      </trkpt>
      <trkpt lat="38.3968540" lon="-2.5773710">
        <ele>829.1</ele>
        <time>2019-11-03T10:05:54Z</time>
      </trkpt>
      <trkpt lat="38.3968280" lon="-2.5774860">
        <ele>831.1</ele>
        <time>2019-11-03T10:05:56Z</time>
      </trkpt>
      <trkpt lat="38.3968050" lon="-2.5776030">
        <ele>831.1</ele>
        <time>2019-11-03T10:05:58Z</time>
      </trkpt>
      <trkpt lat="38.3967820" lon="-2.5777170">
        <ele>831.1</ele>
        <time>2019-11-03T10:06:00Z</time>
      </trkpt>
      <trkpt lat="38.3967560" lon="-2.5778290">
        <ele>831.1</ele>
        <time>2019-11-03T10:06:02Z</time>
      </trkpt>
      <trkpt lat="38.3967260" lon="-2.5779490">
        <ele>831.1</ele>
        <time>2019-11-03T10:06:04Z</time>
      </trkpt>
      <trkpt lat="38.3966950" lon="-2.5780720">
        <ele>831.1</ele>
        <time>2019-11-03T10:06:06Z</time>
      </trkpt>
      <trkpt lat="38.3966800" lon="-2.5781300">
        <ele>831.1</ele>
        <time>2019-11-03T10:06:07Z</time>
      </trkpt>
      <trkpt lat="38.3966520" lon="-2.5782520">
        <ele>831.1</ele>
        <time>2019-11-03T10:06:09Z</time>
      </trkpt>
      <trkpt lat="38.3966340" lon="-2.5783140">
        <ele>831.1</ele>
        <time>2019-11-03T10:06:10Z</time>
      </trkpt>
      <trkpt lat="38.3966180" lon="-2.5783740">
        <ele>831.1</ele>
        <time>2019-11-03T10:06:11Z</time>
      </trkpt>
      <trkpt lat="38.3965880" lon="-2.5784900">
        <ele>833.1</ele>
        <time>2019-11-03T10:06:13Z</time>
      </trkpt>
      <trkpt lat="38.3965490" lon="-2.5786030">
        <ele>833.1</ele>
        <time>2019-11-03T10:06:15Z</time>
      </trkpt>
      <trkpt lat="38.3965080" lon="-2.5787160">
        <ele>833.1</ele>
        <time>2019-11-03T10:06:17Z</time>
      </trkpt>
      <trkpt lat="38.3964620" lon="-2.5788240">
        <ele>833.1</ele>
        <time>2019-11-03T10:06:19Z</time>
      </trkpt>
      <trkpt lat="38.3964390" lon="-2.5788740">
        <ele>833.1</ele>
        <time>2019-11-03T10:06:20Z</time>
      </trkpt>
      <trkpt lat="38.3963850" lon="-2.5789680">
        <ele>833.1</ele>
        <time>2019-11-03T10:06:22Z</time>
      </trkpt>
      <trkpt lat="38.3963290" lon="-2.5790540">
        <ele>833.1</ele>
        <time>2019-11-03T10:06:24Z</time>
      </trkpt>
      <trkpt lat="38.3962700" lon="-2.5791320">
        <ele>833.1</ele>
        <time>2019-11-03T10:06:26Z</time>
      </trkpt>
      <trkpt lat="38.3962140" lon="-2.5792020">
        <ele>833.1</ele>
        <time>2019-11-03T10:06:28Z</time>
      </trkpt>
      <trkpt lat="38.3961500" lon="-2.5792660">
        <ele>833.1</ele>
        <time>2019-11-03T10:06:30Z</time>
      </trkpt>
      <trkpt lat="38.3960760" lon="-2.5793230">
        <ele>833.1</ele>
        <time>2019-11-03T10:06:32Z</time>
      </trkpt>
      <trkpt lat="38.3960040" lon="-2.5793740">
        <ele>833.1</ele>
        <time>2019-11-03T10:06:34Z</time>
      </trkpt>
      <trkpt lat="38.3959240" lon="-2.5794220">
        <ele>833.1</ele>
        <time>2019-11-03T10:06:36Z</time>
      </trkpt>
      <trkpt lat="38.3958430" lon="-2.5794680">
        <ele>833.1</ele>
        <time>2019-11-03T10:06:38Z</time>
      </trkpt>
      <trkpt lat="38.3957630" lon="-2.5795150">
        <ele>835.7</ele>
        <time>2019-11-03T10:06:40Z</time>
      </trkpt>
      <trkpt lat="38.3957170" lon="-2.5795390">
        <ele>835.7</ele>
        <time>2019-11-03T10:06:41Z</time>
      </trkpt>
      <trkpt lat="38.3956330" lon="-2.5795880">
        <ele>835.7</ele>
        <time>2019-11-03T10:06:43Z</time>
      </trkpt>
      <trkpt lat="38.3955890" lon="-2.5796100">
        <ele>835.7</ele>
        <time>2019-11-03T10:06:44Z</time>
      </trkpt>
      <trkpt lat="38.3955000" lon="-2.5796500">
        <ele>835.7</ele>
        <time>2019-11-03T10:06:46Z</time>
      </trkpt>
      <trkpt lat="38.3954120" lon="-2.5796920">
        <ele>835.7</ele>
        <time>2019-11-03T10:06:48Z</time>
      </trkpt>
      <trkpt lat="38.3953660" lon="-2.5797150">
        <ele>835.7</ele>
        <time>2019-11-03T10:06:49Z</time>
      </trkpt>
      <trkpt lat="38.3952820" lon="-2.5797680">
        <ele>835.7</ele>
        <time>2019-11-03T10:06:51Z</time>
      </trkpt>
      <trkpt lat="38.3952410" lon="-2.5797950">
        <ele>835.7</ele>
        <time>2019-11-03T10:06:52Z</time>
      </trkpt>
      <trkpt lat="38.3951540" lon="-2.5798600">
        <ele>835.7</ele>
        <time>2019-11-03T10:06:54Z</time>
      </trkpt>
      <trkpt lat="38.3951080" lon="-2.5798960">
        <ele>835.7</ele>
        <time>2019-11-03T10:06:55Z</time>
      </trkpt>
      <trkpt lat="38.3950620" lon="-2.5799330">
        <ele>835.7</ele>
        <time>2019-11-03T10:06:56Z</time>
      </trkpt>
      <trkpt lat="38.3950210" lon="-2.5799710">
        <ele>835.7</ele>
        <time>2019-11-03T10:06:57Z</time>
      </trkpt>
      <trkpt lat="38.3949770" lon="-2.5800110">
        <ele>835.7</ele>
        <time>2019-11-03T10:06:58Z</time>
      </trkpt>
      <trkpt lat="38.3949310" lon="-2.5800510">
        <ele>835.7</ele>
        <time>2019-11-03T10:06:59Z</time>
      </trkpt>
      <trkpt lat="38.3948520" lon="-2.5801370">
        <ele>835.7</ele>
        <time>2019-11-03T10:07:01Z</time>
      </trkpt>
      <trkpt lat="38.3948130" lon="-2.5801790">
        <ele>835.7</ele>
        <time>2019-11-03T10:07:02Z</time>
      </trkpt>
      <trkpt lat="38.3947720" lon="-2.5802240">
        <ele>835.7</ele>
        <time>2019-11-03T10:07:03Z</time>
      </trkpt>
      <trkpt lat="38.3947340" lon="-2.5802700">
        <ele>835.7</ele>
        <time>2019-11-03T10:07:04Z</time>
      </trkpt>
      <trkpt lat="38.3946910" lon="-2.5803160">
        <ele>835.7</ele>
        <time>2019-11-03T10:07:05Z</time>
      </trkpt>
      <trkpt lat="38.3946520" lon="-2.5803620">
        <ele>835.7</ele>
        <time>2019-11-03T10:07:06Z</time>
      </trkpt>
      <trkpt lat="38.3946160" lon="-2.5804050">
        <ele>835.7</ele>
        <time>2019-11-03T10:07:07Z</time>
      </trkpt>
      <trkpt lat="38.3945320" lon="-2.5804990">
        <ele>835.7</ele>
        <time>2019-11-03T10:07:09Z</time>
      </trkpt>
      <trkpt lat="38.3944880" lon="-2.5805460">
        <ele>835.7</ele>
        <time>2019-11-03T10:07:10Z</time>
      </trkpt>
      <trkpt lat="38.3944500" lon="-2.5805920">
        <ele>835.7</ele>
        <time>2019-11-03T10:07:11Z</time>
      </trkpt>
      <trkpt lat="38.3944140" lon="-2.5806370">
        <ele>838.1</ele>
        <time>2019-11-03T10:07:12Z</time>
      </trkpt>
      <trkpt lat="38.3943760" lon="-2.5806820">
        <ele>838.1</ele>
        <time>2019-11-03T10:07:13Z</time>
      </trkpt>
      <trkpt lat="38.3943400" lon="-2.5807230">
        <ele>838.1</ele>
        <time>2019-11-03T10:07:14Z</time>
      </trkpt>
      <trkpt lat="38.3942630" lon="-2.5808130">
        <ele>838.1</ele>
        <time>2019-11-03T10:07:16Z</time>
      </trkpt>
      <trkpt lat="38.3942270" lon="-2.5808540">
        <ele>838.1</ele>
        <time>2019-11-03T10:07:17Z</time>
      </trkpt>
      <trkpt lat="38.3941500" lon="-2.5809410">
        <ele>838.1</ele>
        <time>2019-11-03T10:07:19Z</time>
      </trkpt>
      <trkpt lat="38.3941070" lon="-2.5809820">
        <ele>838.1</ele>
        <time>2019-11-03T10:07:20Z</time>
      </trkpt>
      <trkpt lat="38.3940280" lon="-2.5810600">
        <ele>838.1</ele>
        <time>2019-11-03T10:07:22Z</time>
      </trkpt>
      <trkpt lat="38.3939870" lon="-2.5810990">
        <ele>838.1</ele>
        <time>2019-11-03T10:07:23Z</time>
      </trkpt>
      <trkpt lat="38.3939020" lon="-2.5811730">
        <ele>838.1</ele>
        <time>2019-11-03T10:07:25Z</time>
      </trkpt>
      <trkpt lat="38.3938640" lon="-2.5812090">
        <ele>838.1</ele>
        <time>2019-11-03T10:07:26Z</time>
      </trkpt>
      <trkpt lat="38.3937770" lon="-2.5812750">
        <ele>838.1</ele>
        <time>2019-11-03T10:07:28Z</time>
      </trkpt>
      <trkpt lat="38.3936920" lon="-2.5813380">
        <ele>838.1</ele>
        <time>2019-11-03T10:07:30Z</time>
      </trkpt>
      <trkpt lat="38.3936050" lon="-2.5813950">
        <ele>838.1</ele>
        <time>2019-11-03T10:07:32Z</time>
      </trkpt>
      <trkpt lat="38.3935210" lon="-2.5814480">
        <ele>838.1</ele>
        <time>2019-11-03T10:07:34Z</time>
      </trkpt>
      <trkpt lat="38.3934260" lon="-2.5815040">
        <ele>838.1</ele>
        <time>2019-11-03T10:07:36Z</time>
      </trkpt>
      <trkpt lat="38.3933800" lon="-2.5815300">
        <ele>838.1</ele>
        <time>2019-11-03T10:07:37Z</time>
      </trkpt>
      <trkpt lat="38.3933340" lon="-2.5815550">
        <ele>838.1</ele>
        <time>2019-11-03T10:07:38Z</time>
      </trkpt>
      <trkpt lat="38.3932420" lon="-2.5816000">
        <ele>838.1</ele>
        <time>2019-11-03T10:07:40Z</time>
      </trkpt>
      <trkpt lat="38.3931420" lon="-2.5816410">
        <ele>838.1</ele>
        <time>2019-11-03T10:07:42Z</time>
      </trkpt>
      <trkpt lat="38.3930930" lon="-2.5816610">
        <ele>838.1</ele>
        <time>2019-11-03T10:07:43Z</time>
      </trkpt>
      <trkpt lat="38.3930390" lon="-2.5816820">
        <ele>838.1</ele>
        <time>2019-11-03T10:07:44Z</time>
      </trkpt>
      <trkpt lat="38.3929780" lon="-2.5817060">
        <ele>838.1</ele>
        <time>2019-11-03T10:07:45Z</time>
      </trkpt>
      <trkpt lat="38.3929220" lon="-2.5817310">
        <ele>838.1</ele>
        <time>2019-11-03T10:07:46Z</time>
      </trkpt>
      <trkpt lat="38.3927990" lon="-2.5817850">
        <ele>838.1</ele>
        <time>2019-11-03T10:07:48Z</time>
      </trkpt>
      <trkpt lat="38.3927420" lon="-2.5818120">
        <ele>838.1</ele>
        <time>2019-11-03T10:07:49Z</time>
      </trkpt>
      <trkpt lat="38.3926810" lon="-2.5818440">
        <ele>838.1</ele>
        <time>2019-11-03T10:07:50Z</time>
      </trkpt>
      <trkpt lat="38.3926250" lon="-2.5818800">
        <ele>838.1</ele>
        <time>2019-11-03T10:07:51Z</time>
      </trkpt>
      <trkpt lat="38.3925630" lon="-2.5819200">
        <ele>838.1</ele>
        <time>2019-11-03T10:07:52Z</time>
      </trkpt>
      <trkpt lat="38.3925070" lon="-2.5819610">
        <ele>838.1</ele>
        <time>2019-11-03T10:07:53Z</time>
      </trkpt>
      <trkpt lat="38.3924480" lon="-2.5820040">
        <ele>838.1</ele>
        <time>2019-11-03T10:07:54Z</time>
      </trkpt>
      <trkpt lat="38.3923920" lon="-2.5820490">
        <ele>838.1</ele>
        <time>2019-11-03T10:07:55Z</time>
      </trkpt>
      <trkpt lat="38.3923330" lon="-2.5820930">
        <ele>838.1</ele>
        <time>2019-11-03T10:07:56Z</time>
      </trkpt>
      <trkpt lat="38.3922820" lon="-2.5821390">
        <ele>838.1</ele>
        <time>2019-11-03T10:07:57Z</time>
      </trkpt>
      <trkpt lat="38.3922300" lon="-2.5821870">
        <ele>838.1</ele>
        <time>2019-11-03T10:07:58Z</time>
      </trkpt>
      <trkpt lat="38.3921820" lon="-2.5822350">
        <ele>838.1</ele>
        <time>2019-11-03T10:07:59Z</time>
      </trkpt>
      <trkpt lat="38.3921430" lon="-2.5822870">
        <ele>838.1</ele>
        <time>2019-11-03T10:08:00Z</time>
      </trkpt>
      <trkpt lat="38.3921100" lon="-2.5823370">
        <ele>838.1</ele>
        <time>2019-11-03T10:08:01Z</time>
      </trkpt>
      <trkpt lat="38.3920790" lon="-2.5823810">
        <ele>838.1</ele>
        <time>2019-11-03T10:08:02Z</time>
      </trkpt>
      <trkpt lat="38.3920360" lon="-2.5824350">
        <ele>838.1</ele>
        <time>2019-11-03T10:08:04Z</time>
      </trkpt>
      <trkpt lat="38.3919820" lon="-2.5824210">
        <ele>838.1</ele>
        <time>2019-11-03T10:10:27Z</time>
      </trkpt>
      <trkpt lat="38.3919330" lon="-2.5824620">
        <ele>840.5</ele>
        <time>2019-11-03T10:10:32Z</time>
      </trkpt>
      <trkpt lat="38.3918850" lon="-2.5825110">
        <ele>840.5</ele>
        <time>2019-11-03T10:10:35Z</time>
      </trkpt>
      <trkpt lat="38.3918410" lon="-2.5825600">
        <ele>840.5</ele>
        <time>2019-11-03T10:10:37Z</time>
      </trkpt>
      <trkpt lat="38.3917930" lon="-2.5826160">
        <ele>840.5</ele>
        <time>2019-11-03T10:10:39Z</time>
      </trkpt>
      <trkpt lat="38.3917410" lon="-2.5826730">
        <ele>840.5</ele>
        <time>2019-11-03T10:10:41Z</time>
      </trkpt>
      <trkpt lat="38.3916900" lon="-2.5827340">
        <ele>840.5</ele>
        <time>2019-11-03T10:10:43Z</time>
      </trkpt>
      <trkpt lat="38.3916360" lon="-2.5827990">
        <ele>840.5</ele>
        <time>2019-11-03T10:10:45Z</time>
      </trkpt>
      <trkpt lat="38.3915780" lon="-2.5828690">
        <ele>840.5</ele>
        <time>2019-11-03T10:10:47Z</time>
      </trkpt>
      <trkpt lat="38.3915190" lon="-2.5829450">
        <ele>840.5</ele>
        <time>2019-11-03T10:10:49Z</time>
      </trkpt>
      <trkpt lat="38.3914500" lon="-2.5830280">
        <ele>840.5</ele>
        <time>2019-11-03T10:10:51Z</time>
      </trkpt>
      <trkpt lat="38.3914140" lon="-2.5830700">
        <ele>840.5</ele>
        <time>2019-11-03T10:10:52Z</time>
      </trkpt>
      <trkpt lat="38.3913420" lon="-2.5831560">
        <ele>840.5</ele>
        <time>2019-11-03T10:10:54Z</time>
      </trkpt>
      <trkpt lat="38.3912630" lon="-2.5832310">
        <ele>840.5</ele>
        <time>2019-11-03T10:10:56Z</time>
      </trkpt>
      <trkpt lat="38.3911780" lon="-2.5832890">
        <ele>840.5</ele>
        <time>2019-11-03T10:10:58Z</time>
      </trkpt>
      <trkpt lat="38.3911320" lon="-2.5833130">
        <ele>840.5</ele>
        <time>2019-11-03T10:10:59Z</time>
      </trkpt>
      <trkpt lat="38.3910300" lon="-2.5833500">
        <ele>840.5</ele>
        <time>2019-11-03T10:11:01Z</time>
      </trkpt>
      <trkpt lat="38.3909790" lon="-2.5833650">
        <ele>840.5</ele>
        <time>2019-11-03T10:11:02Z</time>
      </trkpt>
      <trkpt lat="38.3909220" lon="-2.5833770">
        <ele>840.5</ele>
        <time>2019-11-03T10:11:03Z</time>
      </trkpt>
      <trkpt lat="38.3908680" lon="-2.5833870">
        <ele>840.5</ele>
        <time>2019-11-03T10:11:04Z</time>
      </trkpt>
      <trkpt lat="38.3908120" lon="-2.5833960">
        <ele>840.5</ele>
        <time>2019-11-03T10:11:05Z</time>
      </trkpt>
      <trkpt lat="38.3907510" lon="-2.5834050">
        <ele>840.5</ele>
        <time>2019-11-03T10:11:06Z</time>
      </trkpt>
      <trkpt lat="38.3906970" lon="-2.5834130">
        <ele>840.5</ele>
        <time>2019-11-03T10:11:07Z</time>
      </trkpt>
      <trkpt lat="38.3906360" lon="-2.5834210">
        <ele>840.5</ele>
        <time>2019-11-03T10:11:08Z</time>
      </trkpt>
      <trkpt lat="38.3905790" lon="-2.5834300">
        <ele>840.5</ele>
        <time>2019-11-03T10:11:09Z</time>
      </trkpt>
      <trkpt lat="38.3905230" lon="-2.5834410">
        <ele>840.5</ele>
        <time>2019-11-03T10:11:10Z</time>
      </trkpt>
      <trkpt lat="38.3904640" lon="-2.5834540">
        <ele>840.5</ele>
        <time>2019-11-03T10:11:11Z</time>
      </trkpt>
      <trkpt lat="38.3904080" lon="-2.5834710">
        <ele>840.5</ele>
        <time>2019-11-03T10:11:12Z</time>
      </trkpt>
      <trkpt lat="38.3903540" lon="-2.5834950">
        <ele>840.5</ele>
        <time>2019-11-03T10:11:13Z</time>
      </trkpt>
      <trkpt lat="38.3903050" lon="-2.5835260">
        <ele>840.5</ele>
        <time>2019-11-03T10:11:14Z</time>
      </trkpt>
      <trkpt lat="38.3902620" lon="-2.5835640">
        <ele>840.5</ele>
        <time>2019-11-03T10:11:15Z</time>
      </trkpt>
      <trkpt lat="38.3902230" lon="-2.5836100">
        <ele>840.5</ele>
        <time>2019-11-03T10:11:16Z</time>
      </trkpt>
      <trkpt lat="38.3901950" lon="-2.5836570">
        <ele>840.5</ele>
        <time>2019-11-03T10:11:17Z</time>
      </trkpt>
      <trkpt lat="38.3901410" lon="-2.5837640">
        <ele>840.5</ele>
        <time>2019-11-03T10:11:19Z</time>
      </trkpt>
      <trkpt lat="38.3900950" lon="-2.5838820">
        <ele>840.5</ele>
        <time>2019-11-03T10:11:21Z</time>
      </trkpt>
      <trkpt lat="38.3900750" lon="-2.5839400">
        <ele>840.5</ele>
        <time>2019-11-03T10:11:22Z</time>
      </trkpt>
      <trkpt lat="38.3900340" lon="-2.5840450">
        <ele>840.5</ele>
        <time>2019-11-03T10:11:24Z</time>
      </trkpt>
      <trkpt lat="38.3899960" lon="-2.5841310">
        <ele>840.5</ele>
        <time>2019-11-03T10:11:26Z</time>
      </trkpt>
      <trkpt lat="38.3899570" lon="-2.5841910">
        <ele>840.5</ele>
        <time>2019-11-03T10:11:28Z</time>
      </trkpt>
      <trkpt lat="38.3899260" lon="-2.5842310">
        <ele>840.5</ele>
        <time>2019-11-03T10:11:30Z</time>
      </trkpt>
      <trkpt lat="38.3898880" lon="-2.5842820">
        <ele>840.5</ele>
        <time>2019-11-03T10:11:33Z</time>
      </trkpt>
      <trkpt lat="38.3899010" lon="-2.5843050">
        <ele>840.5</ele>
        <time>2019-11-03T10:11:39Z</time>
      </trkpt>
      <trkpt lat="38.3898650" lon="-2.5842210">
        <ele>840.5</ele>
        <time>2019-11-03T10:11:44Z</time>
      </trkpt>
      <trkpt lat="38.3898270" lon="-2.5841440">
        <ele>840.5</ele>
        <time>2019-11-03T10:11:47Z</time>
      </trkpt>
      <trkpt lat="38.3897980" lon="-2.5840930">
        <ele>840.5</ele>
        <time>2019-11-03T10:11:49Z</time>
      </trkpt>
      <trkpt lat="38.3897630" lon="-2.5840370">
        <ele>840.5</ele>
        <time>2019-11-03T10:11:51Z</time>
      </trkpt>
      <trkpt lat="38.3897290" lon="-2.5839790">
        <ele>840.5</ele>
        <time>2019-11-03T10:11:53Z</time>
      </trkpt>
      <trkpt lat="38.3896990" lon="-2.5839200">
        <ele>840.5</ele>
        <time>2019-11-03T10:11:55Z</time>
      </trkpt>
      <trkpt lat="38.3896630" lon="-2.5838560">
        <ele>840.5</ele>
        <time>2019-11-03T10:11:57Z</time>
      </trkpt>
      <trkpt lat="38.3896290" lon="-2.5837970">
        <ele>840.5</ele>
        <time>2019-11-03T10:11:59Z</time>
      </trkpt>
      <trkpt lat="38.3896040" lon="-2.5837380">
        <ele>840.5</ele>
        <time>2019-11-03T10:12:01Z</time>
      </trkpt>
      <trkpt lat="38.3895730" lon="-2.5836890">
        <ele>840.5</ele>
        <time>2019-11-03T10:12:03Z</time>
      </trkpt>
      <trkpt lat="38.3895420" lon="-2.5836160">
        <ele>840.5</ele>
        <time>2019-11-03T10:12:06Z</time>
      </trkpt>
      <trkpt lat="38.3895350" lon="-2.5835320">
        <ele>840.5</ele>
        <time>2019-11-03T10:12:09Z</time>
      </trkpt>
      <trkpt lat="38.3895580" lon="-2.5834450">
        <ele>840.5</ele>
        <time>2019-11-03T10:12:12Z</time>
      </trkpt>
      <trkpt lat="38.3895880" lon="-2.5833630">
        <ele>840.5</ele>
        <time>2019-11-03T10:12:15Z</time>
      </trkpt>
      <trkpt lat="38.3896170" lon="-2.5832780">
        <ele>840.5</ele>
        <time>2019-11-03T10:12:18Z</time>
      </trkpt>
      <trkpt lat="38.3896550" lon="-2.5831920">
        <ele>840.5</ele>
        <time>2019-11-03T10:12:21Z</time>
      </trkpt>
      <trkpt lat="38.3896780" lon="-2.5831330">
        <ele>840.5</ele>
        <time>2019-11-03T10:12:23Z</time>
      </trkpt>
      <trkpt lat="38.3897090" lon="-2.5830480">
        <ele>840.5</ele>
        <time>2019-11-03T10:12:26Z</time>
      </trkpt>
      <trkpt lat="38.3897240" lon="-2.5829880">
        <ele>840.5</ele>
        <time>2019-11-03T10:12:28Z</time>
      </trkpt>
      <trkpt lat="38.3897450" lon="-2.5829000">
        <ele>840.5</ele>
        <time>2019-11-03T10:12:31Z</time>
      </trkpt>
      <trkpt lat="38.3897600" lon="-2.5828150">
        <ele>840.5</ele>
        <time>2019-11-03T10:12:34Z</time>
      </trkpt>
      <trkpt lat="38.3897700" lon="-2.5827470">
        <ele>840.5</ele>
        <time>2019-11-03T10:12:37Z</time>
      </trkpt>
      <trkpt lat="38.3897910" lon="-2.5826920">
        <ele>840.5</ele>
        <time>2019-11-03T10:12:40Z</time>
      </trkpt>
      <trkpt lat="38.3898390" lon="-2.5826420">
        <ele>840.5</ele>
        <time>2019-11-03T10:12:44Z</time>
      </trkpt>
      <trkpt lat="38.3899010" lon="-2.5826180">
        <ele>840.5</ele>
        <time>2019-11-03T10:12:48Z</time>
      </trkpt>
      <trkpt lat="38.3899490" lon="-2.5826070">
        <ele>840.5</ele>
        <time>2019-11-03T10:12:51Z</time>
      </trkpt>
      <trkpt lat="38.3900130" lon="-2.5825920">
        <ele>840.5</ele>
        <time>2019-11-03T10:12:55Z</time>
      </trkpt>
      <trkpt lat="38.3900650" lon="-2.5825730">
        <ele>840.5</ele>
        <time>2019-11-03T10:12:58Z</time>
      </trkpt>
      <trkpt lat="38.3901290" lon="-2.5825610">
        <ele>840.5</ele>
        <time>2019-11-03T10:13:02Z</time>
      </trkpt>
      <trkpt lat="38.3901950" lon="-2.5825350">
        <ele>840.5</ele>
        <time>2019-11-03T10:13:06Z</time>
      </trkpt>
      <trkpt lat="38.3902460" lon="-2.5825050">
        <ele>840.5</ele>
        <time>2019-11-03T10:13:09Z</time>
      </trkpt>
      <trkpt lat="38.3903000" lon="-2.5824890">
        <ele>840.5</ele>
        <time>2019-11-03T10:13:12Z</time>
      </trkpt>
      <trkpt lat="38.3903590" lon="-2.5824800">
        <ele>840.5</ele>
        <time>2019-11-03T10:13:15Z</time>
      </trkpt>
      <trkpt lat="38.3904180" lon="-2.5824750">
        <ele>840.5</ele>
        <time>2019-11-03T10:13:18Z</time>
      </trkpt>
      <trkpt lat="38.3904790" lon="-2.5824670">
        <ele>840.5</ele>
        <time>2019-11-03T10:13:21Z</time>
      </trkpt>
      <trkpt lat="38.3905330" lon="-2.5824460">
        <ele>840.5</ele>
        <time>2019-11-03T10:13:24Z</time>
      </trkpt>
      <trkpt lat="38.3905690" lon="-2.5824070">
        <ele>840.5</ele>
        <time>2019-11-03T10:13:27Z</time>
      </trkpt>
      <trkpt lat="38.3905770" lon="-2.5823360">
        <ele>840.5</ele>
        <time>2019-11-03T10:13:32Z</time>
      </trkpt>
      <trkpt lat="38.3905640" lon="-2.5822730">
        <ele>840.5</ele>
        <time>2019-11-03T10:13:37Z</time>
      </trkpt>
      <trkpt lat="38.3905690" lon="-2.5822090">
        <ele>840.5</ele>
        <time>2019-11-03T10:13:43Z</time>
      </trkpt>
      <trkpt lat="38.3906020" lon="-2.5821480">
        <ele>840.5</ele>
        <time>2019-11-03T10:13:48Z</time>
      </trkpt>
      <trkpt lat="38.3906330" lon="-2.5821000">
        <ele>842.5</ele>
        <time>2019-11-03T10:13:52Z</time>
      </trkpt>
      <trkpt lat="38.3906870" lon="-2.5820510">
        <ele>842.5</ele>
        <time>2019-11-03T10:13:57Z</time>
      </trkpt>
      <trkpt lat="38.3907250" lon="-2.5820020">
        <ele>842.5</ele>
        <time>2019-11-03T10:14:02Z</time>
      </trkpt>
      <trkpt lat="38.3907560" lon="-2.5819470">
        <ele>842.5</ele>
        <time>2019-11-03T10:14:06Z</time>
      </trkpt>
      <trkpt lat="38.3907710" lon="-2.5818830">
        <ele>842.5</ele>
        <time>2019-11-03T10:14:10Z</time>
      </trkpt>
      <trkpt lat="38.3907660" lon="-2.5818040">
        <ele>842.5</ele>
        <time>2019-11-03T10:14:15Z</time>
      </trkpt>
      <trkpt lat="38.3907250" lon="-2.5817480">
        <ele>842.5</ele>
        <time>2019-11-03T10:14:19Z</time>
      </trkpt>
      <trkpt lat="38.3906660" lon="-2.5817010">
        <ele>842.5</ele>
        <time>2019-11-03T10:14:22Z</time>
      </trkpt>
      <trkpt lat="38.3906050" lon="-2.5816610">
        <ele>844.5</ele>
        <time>2019-11-03T10:14:24Z</time>
      </trkpt>
      <trkpt lat="38.3905250" lon="-2.5816140">
        <ele>844.5</ele>
        <time>2019-11-03T10:14:26Z</time>
      </trkpt>
      <trkpt lat="38.3904410" lon="-2.5815690">
        <ele>844.5</ele>
        <time>2019-11-03T10:14:28Z</time>
      </trkpt>
      <trkpt lat="38.3903620" lon="-2.5815290">
        <ele>844.5</ele>
        <time>2019-11-03T10:14:30Z</time>
      </trkpt>
      <trkpt lat="38.3902980" lon="-2.5814940">
        <ele>844.5</ele>
        <time>2019-11-03T10:14:32Z</time>
      </trkpt>
      <trkpt lat="38.3902520" lon="-2.5814570">
        <ele>844.5</ele>
        <time>2019-11-03T10:14:34Z</time>
      </trkpt>
      <trkpt lat="38.3902280" lon="-2.5814010">
        <ele>844.5</ele>
        <time>2019-11-03T10:14:37Z</time>
      </trkpt>
      <trkpt lat="38.3902310" lon="-2.5813300">
        <ele>844.5</ele>
        <time>2019-11-03T10:14:41Z</time>
      </trkpt>
      <trkpt lat="38.3902540" lon="-2.5812530">
        <ele>844.5</ele>
        <time>2019-11-03T10:14:45Z</time>
      </trkpt>
      <trkpt lat="38.3902690" lon="-2.5811930">
        <ele>844.5</ele>
        <time>2019-11-03T10:14:48Z</time>
      </trkpt>
      <trkpt lat="38.3902820" lon="-2.5811180">
        <ele>844.5</ele>
        <time>2019-11-03T10:14:52Z</time>
      </trkpt>
      <trkpt lat="38.3902920" lon="-2.5810410">
        <ele>844.5</ele>
        <time>2019-11-03T10:14:56Z</time>
      </trkpt>
      <trkpt lat="38.3902980" lon="-2.5809630">
        <ele>844.5</ele>
        <time>2019-11-03T10:15:00Z</time>
      </trkpt>
      <trkpt lat="38.3903050" lon="-2.5808870">
        <ele>846.6</ele>
        <time>2019-11-03T10:15:04Z</time>
      </trkpt>
      <trkpt lat="38.3903130" lon="-2.5808250">
        <ele>846.6</ele>
        <time>2019-11-03T10:15:07Z</time>
      </trkpt>
      <trkpt lat="38.3903230" lon="-2.5807620">
        <ele>846.6</ele>
        <time>2019-11-03T10:15:10Z</time>
      </trkpt>
      <trkpt lat="38.3903460" lon="-2.5806890">
        <ele>846.6</ele>
        <time>2019-11-03T10:15:14Z</time>
      </trkpt>
      <trkpt lat="38.3903670" lon="-2.5806130">
        <ele>846.6</ele>
        <time>2019-11-03T10:15:18Z</time>
      </trkpt>
      <trkpt lat="38.3903850" lon="-2.5805430">
        <ele>846.6</ele>
        <time>2019-11-03T10:15:22Z</time>
      </trkpt>
      <trkpt lat="38.3904030" lon="-2.5804840">
        <ele>846.6</ele>
        <time>2019-11-03T10:15:26Z</time>
      </trkpt>
      <trkpt lat="38.3904260" lon="-2.5804240">
        <ele>848.6</ele>
        <time>2019-11-03T10:15:30Z</time>
      </trkpt>
      <trkpt lat="38.3904410" lon="-2.5803740">
        <ele>848.6</ele>
        <time>2019-11-03T10:15:33Z</time>
      </trkpt>
      <trkpt lat="38.3904640" lon="-2.5802970">
        <ele>848.6</ele>
        <time>2019-11-03T10:15:37Z</time>
      </trkpt>
      <trkpt lat="38.3904720" lon="-2.5802320">
        <ele>848.6</ele>
        <time>2019-11-03T10:15:41Z</time>
      </trkpt>
      <trkpt lat="38.3904560" lon="-2.5801590">
        <ele>848.6</ele>
        <time>2019-11-03T10:15:46Z</time>
      </trkpt>
      <trkpt lat="38.3904310" lon="-2.5801060">
        <ele>851.2</ele>
        <time>2019-11-03T10:15:50Z</time>
      </trkpt>
      <trkpt lat="38.3903950" lon="-2.5800470">
        <ele>851.2</ele>
        <time>2019-11-03T10:15:54Z</time>
      </trkpt>
      <trkpt lat="38.3903540" lon="-2.5800060">
        <ele>851.2</ele>
        <time>2019-11-03T10:15:58Z</time>
      </trkpt>
      <trkpt lat="38.3903130" lon="-2.5799630">
        <ele>851.2</ele>
        <time>2019-11-03T10:16:02Z</time>
      </trkpt>
      <trkpt lat="38.3902750" lon="-2.5799070">
        <ele>851.2</ele>
        <time>2019-11-03T10:16:06Z</time>
      </trkpt>
      <trkpt lat="38.3902230" lon="-2.5798530">
        <ele>851.2</ele>
        <time>2019-11-03T10:16:10Z</time>
      </trkpt>
      <trkpt lat="38.3901900" lon="-2.5798110">
        <ele>853.3</ele>
        <time>2019-11-03T10:16:13Z</time>
      </trkpt>
      <trkpt lat="38.3901520" lon="-2.5797740">
        <ele>853.3</ele>
        <time>2019-11-03T10:16:16Z</time>
      </trkpt>
      <trkpt lat="38.3900900" lon="-2.5797300">
        <ele>853.3</ele>
        <time>2019-11-03T10:16:20Z</time>
      </trkpt>
      <trkpt lat="38.3900520" lon="-2.5796860">
        <ele>853.3</ele>
        <time>2019-11-03T10:16:23Z</time>
      </trkpt>
      <trkpt lat="38.3900190" lon="-2.5796370">
        <ele>855.3</ele>
        <time>2019-11-03T10:16:26Z</time>
      </trkpt>
      <trkpt lat="38.3899800" lon="-2.5795820">
        <ele>855.3</ele>
        <time>2019-11-03T10:16:29Z</time>
      </trkpt>
      <trkpt lat="38.3899340" lon="-2.5795240">
        <ele>855.3</ele>
        <time>2019-11-03T10:16:32Z</time>
      </trkpt>
      <trkpt lat="38.3898880" lon="-2.5794670">
        <ele>855.3</ele>
        <time>2019-11-03T10:16:35Z</time>
      </trkpt>
      <trkpt lat="38.3898420" lon="-2.5794110">
        <ele>857.3</ele>
        <time>2019-11-03T10:16:38Z</time>
      </trkpt>
      <trkpt lat="38.3897980" lon="-2.5793590">
        <ele>857.3</ele>
        <time>2019-11-03T10:16:41Z</time>
      </trkpt>
      <trkpt lat="38.3897470" lon="-2.5793070">
        <ele>857.3</ele>
        <time>2019-11-03T10:16:44Z</time>
      </trkpt>
      <trkpt lat="38.3896990" lon="-2.5792650">
        <ele>857.3</ele>
        <time>2019-11-03T10:16:47Z</time>
      </trkpt>
      <trkpt lat="38.3896400" lon="-2.5792260">
        <ele>857.3</ele>
        <time>2019-11-03T10:16:50Z</time>
      </trkpt>
      <trkpt lat="38.3895910" lon="-2.5791850">
        <ele>859.4</ele>
        <time>2019-11-03T10:16:53Z</time>
      </trkpt>
      <trkpt lat="38.3895370" lon="-2.5791500">
        <ele>859.4</ele>
        <time>2019-11-03T10:16:56Z</time>
      </trkpt>
      <trkpt lat="38.3894910" lon="-2.5791160">
        <ele>859.4</ele>
        <time>2019-11-03T10:16:59Z</time>
      </trkpt>
      <trkpt lat="38.3894580" lon="-2.5790780">
        <ele>859.4</ele>
        <time>2019-11-03T10:17:02Z</time>
      </trkpt>
      <trkpt lat="38.3894350" lon="-2.5790190">
        <ele>859.4</ele>
        <time>2019-11-03T10:17:06Z</time>
      </trkpt>
      <trkpt lat="38.3894450" lon="-2.5789700">
        <ele>862.0</ele>
        <time>2019-11-03T10:17:10Z</time>
      </trkpt>
      <trkpt lat="38.3894810" lon="-2.5789120">
        <ele>862.0</ele>
        <time>2019-11-03T10:17:15Z</time>
      </trkpt>
      <trkpt lat="38.3895140" lon="-2.5788540">
        <ele>862.0</ele>
        <time>2019-11-03T10:17:20Z</time>
      </trkpt>
      <trkpt lat="38.3895600" lon="-2.5787900">
        <ele>864.8</ele>
        <time>2019-11-03T10:17:25Z</time>
      </trkpt>
      <trkpt lat="38.3895810" lon="-2.5787210">
        <ele>864.8</ele>
        <time>2019-11-03T10:17:30Z</time>
      </trkpt>
      <trkpt lat="38.3895650" lon="-2.5786520">
        <ele>864.8</ele>
        <time>2019-11-03T10:17:35Z</time>
      </trkpt>
    </trkseg>
  </trk>
</gpx>
